<?xml version="1.0" encoding="UTF-8" standalone="no" ?>
<gpx xmlns="http://www.topografix.com/GPX/1/1" xmlns:xsi="http://www.w3.org/2001/XMLSchema-instance" xsi:schemaLocation="http://www.topografix.com/GPX/1/1 http://www.topografix.com/GPX/1/1/gpx.xsd" version="1.1" creator="VisuGPX - https://www.visugpx.com">
  <metadata>
    <name>2018-06-03 Bike ride-Chatillon-Limas 39k</name>
    <desc><![CDATA[2018-06-03 Bike ride-Chatillon-Limas 39k]]></desc>
  </metadata>
  <wpt lat="45.92447" lon="4.73704">
    <ele>174</ele>
    <name><![CDATA[2018-06-03 10:10 (Start)]]></name>
  </wpt>
  <wpt lat="45.92461" lon="4.7371">
    <ele>174</ele>
    <name><![CDATA[2018-06-03 10:10 (End)]]></name>
  </wpt>
  <trk>
    <name><![CDATA[2018-06-03 10:10]]></name>
    <trkseg>
      <trkpt lat="45.92447" lon="4.73704">
        <ele>174</ele>
        <time>2018-06-03T08:10:49.068Z</time>
      </trkpt>
      <trkpt lat="45.92453" lon="4.73746">
        <ele>174</ele>
        <time>2018-06-03T08:10:47.853Z</time>
      </trkpt>
      <trkpt lat="45.92459" lon="4.73723">
        <ele>174</ele>
        <time>2018-06-03T08:10:48.853Z</time>
      </trkpt>
      <trkpt lat="45.92457" lon="4.7372">
        <ele>174</ele>
        <time>2018-06-03T08:10:52Z</time>
      </trkpt>
      <trkpt lat="45.92453" lon="4.73712">
        <ele>174</ele>
        <time>2018-06-03T08:10:53Z</time>
      </trkpt>
      <trkpt lat="45.92461" lon="4.73706">
        <ele>174</ele>
        <time>2018-06-03T08:11:10Z</time>
      </trkpt>
      <trkpt lat="45.92462" lon="4.73704">
        <ele>174</ele>
        <time>2018-06-03T08:11:11Z</time>
      </trkpt>
      <trkpt lat="45.92463" lon="4.73692">
        <ele>174</ele>
        <time>2018-06-03T08:11:15Z</time>
      </trkpt>
      <trkpt lat="45.92463" lon="4.73688">
        <ele>174</ele>
        <time>2018-06-03T08:11:16Z</time>
      </trkpt>
      <trkpt lat="45.92464" lon="4.73679">
        <ele>174</ele>
        <time>2018-06-03T08:11:18Z</time>
      </trkpt>
      <trkpt lat="45.92466" lon="4.73666">
        <ele>174</ele>
        <time>2018-06-03T08:11:19Z</time>
      </trkpt>
      <trkpt lat="45.92469" lon="4.73655">
        <ele>174</ele>
        <time>2018-06-03T08:11:21Z</time>
      </trkpt>
      <trkpt lat="45.92469" lon="4.7365">
        <ele>174</ele>
        <time>2018-06-03T08:11:22Z</time>
      </trkpt>
      <trkpt lat="45.9247" lon="4.73639">
        <ele>174</ele>
        <time>2018-06-03T08:11:24Z</time>
      </trkpt>
      <trkpt lat="45.9247" lon="4.73633">
        <ele>174</ele>
        <time>2018-06-03T08:11:25Z</time>
      </trkpt>
      <trkpt lat="45.9247" lon="4.73626">
        <ele>174</ele>
        <time>2018-06-03T08:11:26Z</time>
      </trkpt>
      <trkpt lat="45.9247" lon="4.73619">
        <ele>174</ele>
        <time>2018-06-03T08:11:27Z</time>
      </trkpt>
      <trkpt lat="45.92471" lon="4.73613">
        <ele>174</ele>
        <time>2018-06-03T08:11:28Z</time>
      </trkpt>
      <trkpt lat="45.92471" lon="4.73606">
        <ele>174</ele>
        <time>2018-06-03T08:11:29Z</time>
      </trkpt>
      <trkpt lat="45.92471" lon="4.73599">
        <ele>174</ele>
        <time>2018-06-03T08:11:30Z</time>
      </trkpt>
      <trkpt lat="45.92471" lon="4.73591">
        <ele>174</ele>
        <time>2018-06-03T08:11:31Z</time>
      </trkpt>
      <trkpt lat="45.9247" lon="4.7358">
        <ele>173</ele>
        <time>2018-06-03T08:11:33Z</time>
      </trkpt>
      <trkpt lat="45.9247" lon="4.73574">
        <ele>173</ele>
        <time>2018-06-03T08:11:34Z</time>
      </trkpt>
      <trkpt lat="45.92469" lon="4.73562">
        <ele>173</ele>
        <time>2018-06-03T08:11:36Z</time>
      </trkpt>
      <trkpt lat="45.92468" lon="4.7356">
        <ele>173</ele>
        <time>2018-06-03T08:11:37Z</time>
      </trkpt>
      <trkpt lat="45.92465" lon="4.73552">
        <ele>173</ele>
        <time>2018-06-03T08:11:40Z</time>
      </trkpt>
      <trkpt lat="45.92459" lon="4.73547">
        <ele>173</ele>
        <time>2018-06-03T08:11:41Z</time>
      </trkpt>
      <trkpt lat="45.9245" lon="4.7355">
        <ele>174</ele>
        <time>2018-06-03T08:11:43Z</time>
      </trkpt>
      <trkpt lat="45.92446" lon="4.73552">
        <ele>174</ele>
        <time>2018-06-03T08:11:44Z</time>
      </trkpt>
      <trkpt lat="45.92442" lon="4.73555">
        <ele>174</ele>
        <time>2018-06-03T08:11:45Z</time>
      </trkpt>
      <trkpt lat="45.92438" lon="4.73559">
        <ele>174</ele>
        <time>2018-06-03T08:11:46Z</time>
      </trkpt>
      <trkpt lat="45.9243" lon="4.73562">
        <ele>174</ele>
        <time>2018-06-03T08:11:48Z</time>
      </trkpt>
      <trkpt lat="45.92425" lon="4.73564">
        <ele>174</ele>
        <time>2018-06-03T08:11:49Z</time>
      </trkpt>
      <trkpt lat="45.9242" lon="4.73566">
        <ele>174</ele>
        <time>2018-06-03T08:11:50Z</time>
      </trkpt>
      <trkpt lat="45.92417" lon="4.73568">
        <ele>173</ele>
        <time>2018-06-03T08:11:51Z</time>
      </trkpt>
      <trkpt lat="45.92412" lon="4.73571">
        <ele>173</ele>
        <time>2018-06-03T08:11:52Z</time>
      </trkpt>
      <trkpt lat="45.92407" lon="4.73574">
        <ele>173</ele>
        <time>2018-06-03T08:11:53Z</time>
      </trkpt>
      <trkpt lat="45.92403" lon="4.73576">
        <ele>173</ele>
        <time>2018-06-03T08:11:54Z</time>
      </trkpt>
      <trkpt lat="45.92398" lon="4.73578">
        <ele>173</ele>
        <time>2018-06-03T08:11:55Z</time>
      </trkpt>
      <trkpt lat="45.9239" lon="4.73582">
        <ele>173</ele>
        <time>2018-06-03T08:11:57Z</time>
      </trkpt>
      <trkpt lat="45.92385" lon="4.73583">
        <ele>173</ele>
        <time>2018-06-03T08:11:58Z</time>
      </trkpt>
      <trkpt lat="45.92377" lon="4.73587">
        <ele>173</ele>
        <time>2018-06-03T08:12:00Z</time>
      </trkpt>
      <trkpt lat="45.92372" lon="4.7359">
        <ele>173</ele>
        <time>2018-06-03T08:12:01Z</time>
      </trkpt>
      <trkpt lat="45.92367" lon="4.73592">
        <ele>173</ele>
        <time>2018-06-03T08:12:02Z</time>
      </trkpt>
      <trkpt lat="45.92362" lon="4.73595">
        <ele>173</ele>
        <time>2018-06-03T08:12:03Z</time>
      </trkpt>
      <trkpt lat="45.92357" lon="4.73598">
        <ele>173</ele>
        <time>2018-06-03T08:12:04Z</time>
      </trkpt>
      <trkpt lat="45.92353" lon="4.73599">
        <ele>173</ele>
        <time>2018-06-03T08:12:05Z</time>
      </trkpt>
      <trkpt lat="45.92347" lon="4.73602">
        <ele>173</ele>
        <time>2018-06-03T08:12:06Z</time>
      </trkpt>
      <trkpt lat="45.92342" lon="4.73605">
        <ele>173</ele>
        <time>2018-06-03T08:12:07Z</time>
      </trkpt>
      <trkpt lat="45.92335" lon="4.7361">
        <ele>173</ele>
        <time>2018-06-03T08:12:09Z</time>
      </trkpt>
      <trkpt lat="45.9233" lon="4.73613">
        <ele>172</ele>
        <time>2018-06-03T08:12:10Z</time>
      </trkpt>
      <trkpt lat="45.92325" lon="4.73617">
        <ele>172</ele>
        <time>2018-06-03T08:12:11Z</time>
      </trkpt>
      <trkpt lat="45.9232" lon="4.7362">
        <ele>172</ele>
        <time>2018-06-03T08:12:12Z</time>
      </trkpt>
      <trkpt lat="45.92315" lon="4.73622">
        <ele>172</ele>
        <time>2018-06-03T08:12:13Z</time>
      </trkpt>
      <trkpt lat="45.9231" lon="4.73625">
        <ele>172</ele>
        <time>2018-06-03T08:12:14Z</time>
      </trkpt>
      <trkpt lat="45.92306" lon="4.73625">
        <ele>172</ele>
        <time>2018-06-03T08:12:15Z</time>
      </trkpt>
      <trkpt lat="45.923" lon="4.73628">
        <ele>172</ele>
        <time>2018-06-03T08:12:16Z</time>
      </trkpt>
      <trkpt lat="45.92295" lon="4.7363">
        <ele>172</ele>
        <time>2018-06-03T08:12:17Z</time>
      </trkpt>
      <trkpt lat="45.92291" lon="4.73632">
        <ele>172</ele>
        <time>2018-06-03T08:12:18Z</time>
      </trkpt>
      <trkpt lat="45.92285" lon="4.73635">
        <ele>172</ele>
        <time>2018-06-03T08:12:19Z</time>
      </trkpt>
      <trkpt lat="45.92281" lon="4.73639">
        <ele>172</ele>
        <time>2018-06-03T08:12:20Z</time>
      </trkpt>
      <trkpt lat="45.92276" lon="4.73643">
        <ele>172</ele>
        <time>2018-06-03T08:12:21Z</time>
      </trkpt>
      <trkpt lat="45.92271" lon="4.73646">
        <ele>172</ele>
        <time>2018-06-03T08:12:22Z</time>
      </trkpt>
      <trkpt lat="45.92266" lon="4.73649">
        <ele>171</ele>
        <time>2018-06-03T08:12:23Z</time>
      </trkpt>
      <trkpt lat="45.92262" lon="4.73653">
        <ele>171</ele>
        <time>2018-06-03T08:12:24Z</time>
      </trkpt>
      <trkpt lat="45.92257" lon="4.73655">
        <ele>171</ele>
        <time>2018-06-03T08:12:25Z</time>
      </trkpt>
      <trkpt lat="45.92252" lon="4.73658">
        <ele>171</ele>
        <time>2018-06-03T08:12:26Z</time>
      </trkpt>
      <trkpt lat="45.92247" lon="4.73662">
        <ele>171</ele>
        <time>2018-06-03T08:12:27Z</time>
      </trkpt>
      <trkpt lat="45.92242" lon="4.73665">
        <ele>171</ele>
        <time>2018-06-03T08:12:28Z</time>
      </trkpt>
      <trkpt lat="45.92237" lon="4.73668">
        <ele>171</ele>
        <time>2018-06-03T08:12:29Z</time>
      </trkpt>
      <trkpt lat="45.92233" lon="4.73672">
        <ele>171</ele>
        <time>2018-06-03T08:12:30Z</time>
      </trkpt>
      <trkpt lat="45.92227" lon="4.73676">
        <ele>171</ele>
        <time>2018-06-03T08:12:31Z</time>
      </trkpt>
      <trkpt lat="45.92222" lon="4.7368">
        <ele>171</ele>
        <time>2018-06-03T08:12:32Z</time>
      </trkpt>
      <trkpt lat="45.92216" lon="4.73683">
        <ele>171</ele>
        <time>2018-06-03T08:12:33Z</time>
      </trkpt>
      <trkpt lat="45.92211" lon="4.73687">
        <ele>171</ele>
        <time>2018-06-03T08:12:34Z</time>
      </trkpt>
      <trkpt lat="45.92205" lon="4.7369">
        <ele>171</ele>
        <time>2018-06-03T08:12:35Z</time>
      </trkpt>
      <trkpt lat="45.922" lon="4.73692">
        <ele>171</ele>
        <time>2018-06-03T08:12:36Z</time>
      </trkpt>
      <trkpt lat="45.92195" lon="4.73694">
        <ele>171</ele>
        <time>2018-06-03T08:12:37Z</time>
      </trkpt>
      <trkpt lat="45.9219" lon="4.73696">
        <ele>171</ele>
        <time>2018-06-03T08:12:38Z</time>
      </trkpt>
      <trkpt lat="45.92185" lon="4.737">
        <ele>171</ele>
        <time>2018-06-03T08:12:39Z</time>
      </trkpt>
      <trkpt lat="45.92179" lon="4.73702">
        <ele>171</ele>
        <time>2018-06-03T08:12:40Z</time>
      </trkpt>
      <trkpt lat="45.92174" lon="4.73704">
        <ele>171</ele>
        <time>2018-06-03T08:12:41Z</time>
      </trkpt>
      <trkpt lat="45.92169" lon="4.73706">
        <ele>171</ele>
        <time>2018-06-03T08:12:42Z</time>
      </trkpt>
      <trkpt lat="45.92164" lon="4.73708">
        <ele>171</ele>
        <time>2018-06-03T08:12:43Z</time>
      </trkpt>
      <trkpt lat="45.92159" lon="4.7371">
        <ele>171</ele>
        <time>2018-06-03T08:12:44Z</time>
      </trkpt>
      <trkpt lat="45.92153" lon="4.73711">
        <ele>171</ele>
        <time>2018-06-03T08:12:45Z</time>
      </trkpt>
      <trkpt lat="45.92148" lon="4.73713">
        <ele>171</ele>
        <time>2018-06-03T08:12:46Z</time>
      </trkpt>
      <trkpt lat="45.92142" lon="4.73716">
        <ele>171</ele>
        <time>2018-06-03T08:12:47Z</time>
      </trkpt>
      <trkpt lat="45.92136" lon="4.73718">
        <ele>171</ele>
        <time>2018-06-03T08:12:48Z</time>
      </trkpt>
      <trkpt lat="45.92129" lon="4.7372">
        <ele>171</ele>
        <time>2018-06-03T08:12:49Z</time>
      </trkpt>
      <trkpt lat="45.92124" lon="4.73721">
        <ele>171</ele>
        <time>2018-06-03T08:12:50Z</time>
      </trkpt>
      <trkpt lat="45.92118" lon="4.73722">
        <ele>171</ele>
        <time>2018-06-03T08:12:51Z</time>
      </trkpt>
      <trkpt lat="45.92113" lon="4.73725">
        <ele>171</ele>
        <time>2018-06-03T08:12:52Z</time>
      </trkpt>
      <trkpt lat="45.92107" lon="4.73726">
        <ele>171</ele>
        <time>2018-06-03T08:12:53Z</time>
      </trkpt>
      <trkpt lat="45.92102" lon="4.73727">
        <ele>171</ele>
        <time>2018-06-03T08:12:54Z</time>
      </trkpt>
      <trkpt lat="45.92097" lon="4.73728">
        <ele>171</ele>
        <time>2018-06-03T08:12:55Z</time>
      </trkpt>
      <trkpt lat="45.92092" lon="4.73727">
        <ele>171</ele>
        <time>2018-06-03T08:12:56Z</time>
      </trkpt>
      <trkpt lat="45.92087" lon="4.73727">
        <ele>171</ele>
        <time>2018-06-03T08:12:57Z</time>
      </trkpt>
      <trkpt lat="45.92081" lon="4.73727">
        <ele>171</ele>
        <time>2018-06-03T08:12:58Z</time>
      </trkpt>
      <trkpt lat="45.92076" lon="4.73726">
        <ele>171</ele>
        <time>2018-06-03T08:12:59Z</time>
      </trkpt>
      <trkpt lat="45.92071" lon="4.73726">
        <ele>171</ele>
        <time>2018-06-03T08:13:00Z</time>
      </trkpt>
      <trkpt lat="45.92065" lon="4.73727">
        <ele>171</ele>
        <time>2018-06-03T08:13:01Z</time>
      </trkpt>
      <trkpt lat="45.9206" lon="4.73729">
        <ele>171</ele>
        <time>2018-06-03T08:13:02Z</time>
      </trkpt>
      <trkpt lat="45.92054" lon="4.7373">
        <ele>171</ele>
        <time>2018-06-03T08:13:03Z</time>
      </trkpt>
      <trkpt lat="45.92046" lon="4.73731">
        <ele>171</ele>
        <time>2018-06-03T08:13:04Z</time>
      </trkpt>
      <trkpt lat="45.92041" lon="4.73732">
        <ele>171</ele>
        <time>2018-06-03T08:13:05Z</time>
      </trkpt>
      <trkpt lat="45.92036" lon="4.73731">
        <ele>171</ele>
        <time>2018-06-03T08:13:06Z</time>
      </trkpt>
      <trkpt lat="45.9203" lon="4.73731">
        <ele>171</ele>
        <time>2018-06-03T08:13:07Z</time>
      </trkpt>
      <trkpt lat="45.92024" lon="4.73732">
        <ele>171</ele>
        <time>2018-06-03T08:13:08Z</time>
      </trkpt>
      <trkpt lat="45.9202" lon="4.73732">
        <ele>171</ele>
        <time>2018-06-03T08:13:09Z</time>
      </trkpt>
      <trkpt lat="45.92014" lon="4.73732">
        <ele>171</ele>
        <time>2018-06-03T08:13:10Z</time>
      </trkpt>
      <trkpt lat="45.92008" lon="4.73731">
        <ele>171</ele>
        <time>2018-06-03T08:13:11Z</time>
      </trkpt>
      <trkpt lat="45.92002" lon="4.73731">
        <ele>171</ele>
        <time>2018-06-03T08:13:12Z</time>
      </trkpt>
      <trkpt lat="45.91996" lon="4.7373">
        <ele>171</ele>
        <time>2018-06-03T08:13:13Z</time>
      </trkpt>
      <trkpt lat="45.91991" lon="4.7373">
        <ele>171</ele>
        <time>2018-06-03T08:13:14Z</time>
      </trkpt>
      <trkpt lat="45.91985" lon="4.7373">
        <ele>171</ele>
        <time>2018-06-03T08:13:15Z</time>
      </trkpt>
      <trkpt lat="45.91979" lon="4.7373">
        <ele>171</ele>
        <time>2018-06-03T08:13:16Z</time>
      </trkpt>
      <trkpt lat="45.91973" lon="4.73731">
        <ele>171</ele>
        <time>2018-06-03T08:13:17Z</time>
      </trkpt>
      <trkpt lat="45.91968" lon="4.73731">
        <ele>171</ele>
        <time>2018-06-03T08:13:18Z</time>
      </trkpt>
      <trkpt lat="45.91964" lon="4.73731">
        <ele>171</ele>
        <time>2018-06-03T08:13:19Z</time>
      </trkpt>
      <trkpt lat="45.91957" lon="4.7373">
        <ele>170</ele>
        <time>2018-06-03T08:13:20Z</time>
      </trkpt>
      <trkpt lat="45.91952" lon="4.7373">
        <ele>170</ele>
        <time>2018-06-03T08:13:21Z</time>
      </trkpt>
      <trkpt lat="45.91946" lon="4.73731">
        <ele>170</ele>
        <time>2018-06-03T08:13:22Z</time>
      </trkpt>
      <trkpt lat="45.9194" lon="4.73731">
        <ele>170</ele>
        <time>2018-06-03T08:13:23Z</time>
      </trkpt>
      <trkpt lat="45.91935" lon="4.73731">
        <ele>170</ele>
        <time>2018-06-03T08:13:24Z</time>
      </trkpt>
      <trkpt lat="45.91929" lon="4.73731">
        <ele>170</ele>
        <time>2018-06-03T08:13:25Z</time>
      </trkpt>
      <trkpt lat="45.91923" lon="4.73732">
        <ele>170</ele>
        <time>2018-06-03T08:13:26Z</time>
      </trkpt>
      <trkpt lat="45.91918" lon="4.73732">
        <ele>170</ele>
        <time>2018-06-03T08:13:27Z</time>
      </trkpt>
      <trkpt lat="45.91912" lon="4.73732">
        <ele>171</ele>
        <time>2018-06-03T08:13:28Z</time>
      </trkpt>
      <trkpt lat="45.91907" lon="4.73733">
        <ele>171</ele>
        <time>2018-06-03T08:13:29Z</time>
      </trkpt>
      <trkpt lat="45.919" lon="4.73735">
        <ele>171</ele>
        <time>2018-06-03T08:13:30Z</time>
      </trkpt>
      <trkpt lat="45.91894" lon="4.73735">
        <ele>171</ele>
        <time>2018-06-03T08:13:31Z</time>
      </trkpt>
      <trkpt lat="45.91889" lon="4.73734">
        <ele>171</ele>
        <time>2018-06-03T08:13:32Z</time>
      </trkpt>
      <trkpt lat="45.91884" lon="4.73734">
        <ele>171</ele>
        <time>2018-06-03T08:13:33Z</time>
      </trkpt>
      <trkpt lat="45.91879" lon="4.73733">
        <ele>171</ele>
        <time>2018-06-03T08:13:34Z</time>
      </trkpt>
      <trkpt lat="45.91875" lon="4.73733">
        <ele>171</ele>
        <time>2018-06-03T08:13:35Z</time>
      </trkpt>
      <trkpt lat="45.91868" lon="4.73734">
        <ele>171</ele>
        <time>2018-06-03T08:13:36Z</time>
      </trkpt>
      <trkpt lat="45.91863" lon="4.73734">
        <ele>171</ele>
        <time>2018-06-03T08:13:37Z</time>
      </trkpt>
      <trkpt lat="45.91858" lon="4.73734">
        <ele>171</ele>
        <time>2018-06-03T08:13:38Z</time>
      </trkpt>
      <trkpt lat="45.91853" lon="4.73735">
        <ele>171</ele>
        <time>2018-06-03T08:13:39Z</time>
      </trkpt>
      <trkpt lat="45.91848" lon="4.73734">
        <ele>172</ele>
        <time>2018-06-03T08:13:40Z</time>
      </trkpt>
      <trkpt lat="45.91841" lon="4.73736">
        <ele>172</ele>
        <time>2018-06-03T08:13:41Z</time>
      </trkpt>
      <trkpt lat="45.91836" lon="4.73735">
        <ele>172</ele>
        <time>2018-06-03T08:13:42Z</time>
      </trkpt>
      <trkpt lat="45.9183" lon="4.73735">
        <ele>172</ele>
        <time>2018-06-03T08:13:43Z</time>
      </trkpt>
      <trkpt lat="45.91824" lon="4.73737">
        <ele>172</ele>
        <time>2018-06-03T08:13:44Z</time>
      </trkpt>
      <trkpt lat="45.91818" lon="4.73736">
        <ele>172</ele>
        <time>2018-06-03T08:13:45Z</time>
      </trkpt>
      <trkpt lat="45.91813" lon="4.73737">
        <ele>172</ele>
        <time>2018-06-03T08:13:46Z</time>
      </trkpt>
      <trkpt lat="45.91808" lon="4.73738">
        <ele>172</ele>
        <time>2018-06-03T08:13:47Z</time>
      </trkpt>
      <trkpt lat="45.91802" lon="4.73738">
        <ele>172</ele>
        <time>2018-06-03T08:13:48Z</time>
      </trkpt>
      <trkpt lat="45.91797" lon="4.73738">
        <ele>172</ele>
        <time>2018-06-03T08:13:49Z</time>
      </trkpt>
      <trkpt lat="45.91792" lon="4.73737">
        <ele>172</ele>
        <time>2018-06-03T08:13:50Z</time>
      </trkpt>
      <trkpt lat="45.91787" lon="4.73737">
        <ele>173</ele>
        <time>2018-06-03T08:13:51Z</time>
      </trkpt>
      <trkpt lat="45.91781" lon="4.73738">
        <ele>173</ele>
        <time>2018-06-03T08:13:52Z</time>
      </trkpt>
      <trkpt lat="45.91776" lon="4.73737">
        <ele>173</ele>
        <time>2018-06-03T08:13:53Z</time>
      </trkpt>
      <trkpt lat="45.91771" lon="4.73736">
        <ele>173</ele>
        <time>2018-06-03T08:13:54Z</time>
      </trkpt>
      <trkpt lat="45.91764" lon="4.73738">
        <ele>173</ele>
        <time>2018-06-03T08:13:55Z</time>
      </trkpt>
      <trkpt lat="45.91759" lon="4.73738">
        <ele>173</ele>
        <time>2018-06-03T08:13:56Z</time>
      </trkpt>
      <trkpt lat="45.91753" lon="4.73739">
        <ele>173</ele>
        <time>2018-06-03T08:13:57Z</time>
      </trkpt>
      <trkpt lat="45.91748" lon="4.7374">
        <ele>173</ele>
        <time>2018-06-03T08:13:58Z</time>
      </trkpt>
      <trkpt lat="45.91743" lon="4.73739">
        <ele>173</ele>
        <time>2018-06-03T08:13:59Z</time>
      </trkpt>
      <trkpt lat="45.91737" lon="4.73739">
        <ele>173</ele>
        <time>2018-06-03T08:14:00Z</time>
      </trkpt>
      <trkpt lat="45.91728" lon="4.7374">
        <ele>173</ele>
        <time>2018-06-03T08:14:02Z</time>
      </trkpt>
      <trkpt lat="45.91723" lon="4.73739">
        <ele>173</ele>
        <time>2018-06-03T08:14:03Z</time>
      </trkpt>
      <trkpt lat="45.91718" lon="4.73738">
        <ele>173</ele>
        <time>2018-06-03T08:14:04Z</time>
      </trkpt>
      <trkpt lat="45.91713" lon="4.73738">
        <ele>173</ele>
        <time>2018-06-03T08:14:05Z</time>
      </trkpt>
      <trkpt lat="45.91704" lon="4.73736">
        <ele>172</ele>
        <time>2018-06-03T08:14:07Z</time>
      </trkpt>
      <trkpt lat="45.91699" lon="4.73735">
        <ele>172</ele>
        <time>2018-06-03T08:14:08Z</time>
      </trkpt>
      <trkpt lat="45.91693" lon="4.73734">
        <ele>172</ele>
        <time>2018-06-03T08:14:09Z</time>
      </trkpt>
      <trkpt lat="45.91688" lon="4.73735">
        <ele>172</ele>
        <time>2018-06-03T08:14:10Z</time>
      </trkpt>
      <trkpt lat="45.91682" lon="4.73735">
        <ele>172</ele>
        <time>2018-06-03T08:14:11Z</time>
      </trkpt>
      <trkpt lat="45.91677" lon="4.73737">
        <ele>172</ele>
        <time>2018-06-03T08:14:12Z</time>
      </trkpt>
      <trkpt lat="45.91672" lon="4.73738">
        <ele>172</ele>
        <time>2018-06-03T08:14:13Z</time>
      </trkpt>
      <trkpt lat="45.91667" lon="4.73737">
        <ele>172</ele>
        <time>2018-06-03T08:14:14Z</time>
      </trkpt>
      <trkpt lat="45.91661" lon="4.73739">
        <ele>172</ele>
        <time>2018-06-03T08:14:15Z</time>
      </trkpt>
      <trkpt lat="45.91656" lon="4.73739">
        <ele>172</ele>
        <time>2018-06-03T08:14:16Z</time>
      </trkpt>
      <trkpt lat="45.9165" lon="4.73739">
        <ele>172</ele>
        <time>2018-06-03T08:14:17Z</time>
      </trkpt>
      <trkpt lat="45.91644" lon="4.7374">
        <ele>172</ele>
        <time>2018-06-03T08:14:18Z</time>
      </trkpt>
      <trkpt lat="45.91639" lon="4.73739">
        <ele>172</ele>
        <time>2018-06-03T08:14:19Z</time>
      </trkpt>
      <trkpt lat="45.91633" lon="4.73739">
        <ele>172</ele>
        <time>2018-06-03T08:14:20Z</time>
      </trkpt>
      <trkpt lat="45.91628" lon="4.73739">
        <ele>172</ele>
        <time>2018-06-03T08:14:21Z</time>
      </trkpt>
      <trkpt lat="45.91622" lon="4.7374">
        <ele>173</ele>
        <time>2018-06-03T08:14:22Z</time>
      </trkpt>
      <trkpt lat="45.91617" lon="4.7374">
        <ele>173</ele>
        <time>2018-06-03T08:14:23Z</time>
      </trkpt>
      <trkpt lat="45.91611" lon="4.73741">
        <ele>173</ele>
        <time>2018-06-03T08:14:24Z</time>
      </trkpt>
      <trkpt lat="45.91606" lon="4.73739">
        <ele>173</ele>
        <time>2018-06-03T08:14:25Z</time>
      </trkpt>
      <trkpt lat="45.91599" lon="4.7374">
        <ele>173</ele>
        <time>2018-06-03T08:14:26Z</time>
      </trkpt>
      <trkpt lat="45.91594" lon="4.7374">
        <ele>173</ele>
        <time>2018-06-03T08:14:27Z</time>
      </trkpt>
      <trkpt lat="45.91588" lon="4.73741">
        <ele>173</ele>
        <time>2018-06-03T08:14:28Z</time>
      </trkpt>
      <trkpt lat="45.91582" lon="4.73741">
        <ele>173</ele>
        <time>2018-06-03T08:14:29Z</time>
      </trkpt>
      <trkpt lat="45.91577" lon="4.7374">
        <ele>173</ele>
        <time>2018-06-03T08:14:30Z</time>
      </trkpt>
      <trkpt lat="45.91572" lon="4.73743">
        <ele>173</ele>
        <time>2018-06-03T08:14:31Z</time>
      </trkpt>
      <trkpt lat="45.91567" lon="4.73742">
        <ele>173</ele>
        <time>2018-06-03T08:14:32Z</time>
      </trkpt>
      <trkpt lat="45.91562" lon="4.73741">
        <ele>173</ele>
        <time>2018-06-03T08:14:33Z</time>
      </trkpt>
      <trkpt lat="45.91556" lon="4.7374">
        <ele>174</ele>
        <time>2018-06-03T08:14:34Z</time>
      </trkpt>
      <trkpt lat="45.9155" lon="4.73739">
        <ele>174</ele>
        <time>2018-06-03T08:14:35Z</time>
      </trkpt>
      <trkpt lat="45.91544" lon="4.73739">
        <ele>174</ele>
        <time>2018-06-03T08:14:36Z</time>
      </trkpt>
      <trkpt lat="45.91538" lon="4.73739">
        <ele>174</ele>
        <time>2018-06-03T08:14:37Z</time>
      </trkpt>
      <trkpt lat="45.91532" lon="4.73738">
        <ele>174</ele>
        <time>2018-06-03T08:14:38Z</time>
      </trkpt>
      <trkpt lat="45.91527" lon="4.73738">
        <ele>174</ele>
        <time>2018-06-03T08:14:39Z</time>
      </trkpt>
      <trkpt lat="45.91521" lon="4.73738">
        <ele>174</ele>
        <time>2018-06-03T08:14:40Z</time>
      </trkpt>
      <trkpt lat="45.91516" lon="4.73738">
        <ele>174</ele>
        <time>2018-06-03T08:14:41Z</time>
      </trkpt>
      <trkpt lat="45.9151" lon="4.73739">
        <ele>174</ele>
        <time>2018-06-03T08:14:42Z</time>
      </trkpt>
      <trkpt lat="45.91505" lon="4.73738">
        <ele>174</ele>
        <time>2018-06-03T08:14:43Z</time>
      </trkpt>
      <trkpt lat="45.915" lon="4.73738">
        <ele>174</ele>
        <time>2018-06-03T08:14:44Z</time>
      </trkpt>
      <trkpt lat="45.91494" lon="4.73737">
        <ele>174</ele>
        <time>2018-06-03T08:14:45Z</time>
      </trkpt>
      <trkpt lat="45.91488" lon="4.73737">
        <ele>174</ele>
        <time>2018-06-03T08:14:46Z</time>
      </trkpt>
      <trkpt lat="45.91482" lon="4.73738">
        <ele>174</ele>
        <time>2018-06-03T08:14:47Z</time>
      </trkpt>
      <trkpt lat="45.91477" lon="4.73738">
        <ele>174</ele>
        <time>2018-06-03T08:14:48Z</time>
      </trkpt>
      <trkpt lat="45.91472" lon="4.73737">
        <ele>174</ele>
        <time>2018-06-03T08:14:49Z</time>
      </trkpt>
      <trkpt lat="45.91466" lon="4.7374">
        <ele>174</ele>
        <time>2018-06-03T08:14:50Z</time>
      </trkpt>
      <trkpt lat="45.91459" lon="4.73741">
        <ele>174</ele>
        <time>2018-06-03T08:14:51Z</time>
      </trkpt>
      <trkpt lat="45.91453" lon="4.73741">
        <ele>173</ele>
        <time>2018-06-03T08:14:52Z</time>
      </trkpt>
      <trkpt lat="45.91448" lon="4.73741">
        <ele>173</ele>
        <time>2018-06-03T08:14:53Z</time>
      </trkpt>
      <trkpt lat="45.91442" lon="4.7374">
        <ele>173</ele>
        <time>2018-06-03T08:14:54Z</time>
      </trkpt>
      <trkpt lat="45.91436" lon="4.73741">
        <ele>173</ele>
        <time>2018-06-03T08:14:55Z</time>
      </trkpt>
      <trkpt lat="45.91431" lon="4.73741">
        <ele>173</ele>
        <time>2018-06-03T08:14:56Z</time>
      </trkpt>
      <trkpt lat="45.91426" lon="4.73742">
        <ele>173</ele>
        <time>2018-06-03T08:14:57Z</time>
      </trkpt>
      <trkpt lat="45.91421" lon="4.73742">
        <ele>173</ele>
        <time>2018-06-03T08:14:58Z</time>
      </trkpt>
      <trkpt lat="45.91415" lon="4.73743">
        <ele>172</ele>
        <time>2018-06-03T08:14:59Z</time>
      </trkpt>
      <trkpt lat="45.91409" lon="4.73743">
        <ele>172</ele>
        <time>2018-06-03T08:15:00Z</time>
      </trkpt>
      <trkpt lat="45.91404" lon="4.73744">
        <ele>173</ele>
        <time>2018-06-03T08:15:01Z</time>
      </trkpt>
      <trkpt lat="45.91399" lon="4.73748">
        <ele>173</ele>
        <time>2018-06-03T08:15:02Z</time>
      </trkpt>
      <trkpt lat="45.91393" lon="4.73748">
        <ele>173</ele>
        <time>2018-06-03T08:15:03Z</time>
      </trkpt>
      <trkpt lat="45.91386" lon="4.73749">
        <ele>173</ele>
        <time>2018-06-03T08:15:04Z</time>
      </trkpt>
      <trkpt lat="45.9138" lon="4.73749">
        <ele>173</ele>
        <time>2018-06-03T08:15:05Z</time>
      </trkpt>
      <trkpt lat="45.91375" lon="4.73749">
        <ele>173</ele>
        <time>2018-06-03T08:15:06Z</time>
      </trkpt>
      <trkpt lat="45.9137" lon="4.73749">
        <ele>173</ele>
        <time>2018-06-03T08:15:07Z</time>
      </trkpt>
      <trkpt lat="45.91363" lon="4.7375">
        <ele>173</ele>
        <time>2018-06-03T08:15:08Z</time>
      </trkpt>
      <trkpt lat="45.91358" lon="4.7375">
        <ele>173</ele>
        <time>2018-06-03T08:15:09Z</time>
      </trkpt>
      <trkpt lat="45.91352" lon="4.7375">
        <ele>173</ele>
        <time>2018-06-03T08:15:10Z</time>
      </trkpt>
      <trkpt lat="45.91346" lon="4.7375">
        <ele>173</ele>
        <time>2018-06-03T08:15:11Z</time>
      </trkpt>
      <trkpt lat="45.9134" lon="4.73749">
        <ele>173</ele>
        <time>2018-06-03T08:15:12Z</time>
      </trkpt>
      <trkpt lat="45.91334" lon="4.7375">
        <ele>173</ele>
        <time>2018-06-03T08:15:13Z</time>
      </trkpt>
      <trkpt lat="45.9133" lon="4.73749">
        <ele>173</ele>
        <time>2018-06-03T08:15:14Z</time>
      </trkpt>
      <trkpt lat="45.91325" lon="4.73748">
        <ele>173</ele>
        <time>2018-06-03T08:15:15Z</time>
      </trkpt>
      <trkpt lat="45.91319" lon="4.73749">
        <ele>173</ele>
        <time>2018-06-03T08:15:16Z</time>
      </trkpt>
      <trkpt lat="45.91313" lon="4.73747">
        <ele>174</ele>
        <time>2018-06-03T08:15:17Z</time>
      </trkpt>
      <trkpt lat="45.91307" lon="4.73747">
        <ele>174</ele>
        <time>2018-06-03T08:15:18Z</time>
      </trkpt>
      <trkpt lat="45.913" lon="4.73747">
        <ele>174</ele>
        <time>2018-06-03T08:15:19Z</time>
      </trkpt>
      <trkpt lat="45.91294" lon="4.73747">
        <ele>174</ele>
        <time>2018-06-03T08:15:20Z</time>
      </trkpt>
      <trkpt lat="45.91287" lon="4.73747">
        <ele>174</ele>
        <time>2018-06-03T08:15:21Z</time>
      </trkpt>
      <trkpt lat="45.91281" lon="4.73746">
        <ele>174</ele>
        <time>2018-06-03T08:15:22Z</time>
      </trkpt>
      <trkpt lat="45.91275" lon="4.73749">
        <ele>174</ele>
        <time>2018-06-03T08:15:23Z</time>
      </trkpt>
      <trkpt lat="45.91269" lon="4.73749">
        <ele>174</ele>
        <time>2018-06-03T08:15:24Z</time>
      </trkpt>
      <trkpt lat="45.91263" lon="4.73749">
        <ele>175</ele>
        <time>2018-06-03T08:15:25Z</time>
      </trkpt>
      <trkpt lat="45.91257" lon="4.73749">
        <ele>175</ele>
        <time>2018-06-03T08:15:26Z</time>
      </trkpt>
      <trkpt lat="45.91251" lon="4.73748">
        <ele>175</ele>
        <time>2018-06-03T08:15:27Z</time>
      </trkpt>
      <trkpt lat="45.91245" lon="4.73751">
        <ele>175</ele>
        <time>2018-06-03T08:15:28Z</time>
      </trkpt>
      <trkpt lat="45.91239" lon="4.73751">
        <ele>175</ele>
        <time>2018-06-03T08:15:29Z</time>
      </trkpt>
      <trkpt lat="45.91233" lon="4.7375">
        <ele>175</ele>
        <time>2018-06-03T08:15:30Z</time>
      </trkpt>
      <trkpt lat="45.91227" lon="4.7375">
        <ele>175</ele>
        <time>2018-06-03T08:15:31Z</time>
      </trkpt>
      <trkpt lat="45.91222" lon="4.73751">
        <ele>175</ele>
        <time>2018-06-03T08:15:32Z</time>
      </trkpt>
      <trkpt lat="45.91216" lon="4.73751">
        <ele>175</ele>
        <time>2018-06-03T08:15:33Z</time>
      </trkpt>
      <trkpt lat="45.91211" lon="4.73751">
        <ele>175</ele>
        <time>2018-06-03T08:15:34Z</time>
      </trkpt>
      <trkpt lat="45.91206" lon="4.7375">
        <ele>175</ele>
        <time>2018-06-03T08:15:35Z</time>
      </trkpt>
      <trkpt lat="45.91201" lon="4.7375">
        <ele>175</ele>
        <time>2018-06-03T08:15:36Z</time>
      </trkpt>
      <trkpt lat="45.91195" lon="4.73748">
        <ele>175</ele>
        <time>2018-06-03T08:15:37Z</time>
      </trkpt>
      <trkpt lat="45.9119" lon="4.73747">
        <ele>175</ele>
        <time>2018-06-03T08:15:38Z</time>
      </trkpt>
      <trkpt lat="45.91185" lon="4.73746">
        <ele>175</ele>
        <time>2018-06-03T08:15:39Z</time>
      </trkpt>
      <trkpt lat="45.91179" lon="4.73744">
        <ele>175</ele>
        <time>2018-06-03T08:15:40Z</time>
      </trkpt>
      <trkpt lat="45.91174" lon="4.73743">
        <ele>175</ele>
        <time>2018-06-03T08:15:41Z</time>
      </trkpt>
      <trkpt lat="45.91169" lon="4.73742">
        <ele>175</ele>
        <time>2018-06-03T08:15:42Z</time>
      </trkpt>
      <trkpt lat="45.91163" lon="4.73741">
        <ele>175</ele>
        <time>2018-06-03T08:15:43Z</time>
      </trkpt>
      <trkpt lat="45.91159" lon="4.73739">
        <ele>175</ele>
        <time>2018-06-03T08:15:44Z</time>
      </trkpt>
      <trkpt lat="45.91153" lon="4.73738">
        <ele>175</ele>
        <time>2018-06-03T08:15:45Z</time>
      </trkpt>
      <trkpt lat="45.91149" lon="4.73734">
        <ele>175</ele>
        <time>2018-06-03T08:15:46Z</time>
      </trkpt>
      <trkpt lat="45.91145" lon="4.73729">
        <ele>174</ele>
        <time>2018-06-03T08:15:47Z</time>
      </trkpt>
      <trkpt lat="45.91142" lon="4.7372">
        <ele>174</ele>
        <time>2018-06-03T08:15:48Z</time>
      </trkpt>
      <trkpt lat="45.9114" lon="4.73713">
        <ele>174</ele>
        <time>2018-06-03T08:15:49Z</time>
      </trkpt>
      <trkpt lat="45.91138" lon="4.73703">
        <ele>174</ele>
        <time>2018-06-03T08:15:50Z</time>
      </trkpt>
      <trkpt lat="45.91135" lon="4.73699">
        <ele>174</ele>
        <time>2018-06-03T08:15:51Z</time>
      </trkpt>
      <trkpt lat="45.91131" lon="4.73692">
        <ele>174</ele>
        <time>2018-06-03T08:15:52Z</time>
      </trkpt>
      <trkpt lat="45.91128" lon="4.73685">
        <ele>174</ele>
        <time>2018-06-03T08:15:53Z</time>
      </trkpt>
      <trkpt lat="45.91125" lon="4.73678">
        <ele>174</ele>
        <time>2018-06-03T08:15:54Z</time>
      </trkpt>
      <trkpt lat="45.91122" lon="4.73672">
        <ele>174</ele>
        <time>2018-06-03T08:15:55Z</time>
      </trkpt>
      <trkpt lat="45.91118" lon="4.73663">
        <ele>174</ele>
        <time>2018-06-03T08:15:56Z</time>
      </trkpt>
      <trkpt lat="45.91115" lon="4.73654">
        <ele>174</ele>
        <time>2018-06-03T08:15:57Z</time>
      </trkpt>
      <trkpt lat="45.91111" lon="4.73647">
        <ele>174</ele>
        <time>2018-06-03T08:15:58Z</time>
      </trkpt>
      <trkpt lat="45.91108" lon="4.73641">
        <ele>174</ele>
        <time>2018-06-03T08:15:59Z</time>
      </trkpt>
      <trkpt lat="45.91104" lon="4.73634">
        <ele>174</ele>
        <time>2018-06-03T08:16:00Z</time>
      </trkpt>
      <trkpt lat="45.91102" lon="4.73628">
        <ele>174</ele>
        <time>2018-06-03T08:16:01Z</time>
      </trkpt>
      <trkpt lat="45.91099" lon="4.73619">
        <ele>174</ele>
        <time>2018-06-03T08:16:02Z</time>
      </trkpt>
      <trkpt lat="45.91096" lon="4.73612">
        <ele>174</ele>
        <time>2018-06-03T08:16:03Z</time>
      </trkpt>
      <trkpt lat="45.91093" lon="4.73606">
        <ele>174</ele>
        <time>2018-06-03T08:16:04Z</time>
      </trkpt>
      <trkpt lat="45.91091" lon="4.73601">
        <ele>174</ele>
        <time>2018-06-03T08:16:05Z</time>
      </trkpt>
      <trkpt lat="45.91089" lon="4.73593">
        <ele>174</ele>
        <time>2018-06-03T08:16:06Z</time>
      </trkpt>
      <trkpt lat="45.91087" lon="4.73588">
        <ele>174</ele>
        <time>2018-06-03T08:16:07Z</time>
      </trkpt>
      <trkpt lat="45.91085" lon="4.73581">
        <ele>174</ele>
        <time>2018-06-03T08:16:08Z</time>
      </trkpt>
      <trkpt lat="45.91081" lon="4.73576">
        <ele>174</ele>
        <time>2018-06-03T08:16:09Z</time>
      </trkpt>
      <trkpt lat="45.91079" lon="4.7357">
        <ele>174</ele>
        <time>2018-06-03T08:16:10Z</time>
      </trkpt>
      <trkpt lat="45.91077" lon="4.73563">
        <ele>174</ele>
        <time>2018-06-03T08:16:11Z</time>
      </trkpt>
      <trkpt lat="45.91074" lon="4.73558">
        <ele>174</ele>
        <time>2018-06-03T08:16:12Z</time>
      </trkpt>
      <trkpt lat="45.91072" lon="4.73553">
        <ele>174</ele>
        <time>2018-06-03T08:16:13Z</time>
      </trkpt>
      <trkpt lat="45.91068" lon="4.73547">
        <ele>174</ele>
        <time>2018-06-03T08:16:14Z</time>
      </trkpt>
      <trkpt lat="45.91065" lon="4.73541">
        <ele>175</ele>
        <time>2018-06-03T08:16:15Z</time>
      </trkpt>
      <trkpt lat="45.91063" lon="4.73534">
        <ele>175</ele>
        <time>2018-06-03T08:16:16Z</time>
      </trkpt>
      <trkpt lat="45.91059" lon="4.73526">
        <ele>175</ele>
        <time>2018-06-03T08:16:17Z</time>
      </trkpt>
      <trkpt lat="45.91057" lon="4.7352">
        <ele>175</ele>
        <time>2018-06-03T08:16:18Z</time>
      </trkpt>
      <trkpt lat="45.91053" lon="4.73508">
        <ele>175</ele>
        <time>2018-06-03T08:16:20Z</time>
      </trkpt>
      <trkpt lat="45.91048" lon="4.73502">
        <ele>175</ele>
        <time>2018-06-03T08:16:21Z</time>
      </trkpt>
      <trkpt lat="45.91045" lon="4.73495">
        <ele>175</ele>
        <time>2018-06-03T08:16:22Z</time>
      </trkpt>
      <trkpt lat="45.91043" lon="4.73489">
        <ele>175</ele>
        <time>2018-06-03T08:16:23Z</time>
      </trkpt>
      <trkpt lat="45.9104" lon="4.73484">
        <ele>175</ele>
        <time>2018-06-03T08:16:24Z</time>
      </trkpt>
      <trkpt lat="45.91037" lon="4.73478">
        <ele>175</ele>
        <time>2018-06-03T08:16:25Z</time>
      </trkpt>
      <trkpt lat="45.91035" lon="4.73471">
        <ele>175</ele>
        <time>2018-06-03T08:16:26Z</time>
      </trkpt>
      <trkpt lat="45.91034" lon="4.73464">
        <ele>175</ele>
        <time>2018-06-03T08:16:27Z</time>
      </trkpt>
      <trkpt lat="45.91033" lon="4.73458">
        <ele>175</ele>
        <time>2018-06-03T08:16:28Z</time>
      </trkpt>
      <trkpt lat="45.91033" lon="4.73451">
        <ele>175</ele>
        <time>2018-06-03T08:16:29Z</time>
      </trkpt>
      <trkpt lat="45.91033" lon="4.73444">
        <ele>175</ele>
        <time>2018-06-03T08:16:30Z</time>
      </trkpt>
      <trkpt lat="45.91033" lon="4.73435">
        <ele>175</ele>
        <time>2018-06-03T08:16:31Z</time>
      </trkpt>
      <trkpt lat="45.91033" lon="4.73428">
        <ele>175</ele>
        <time>2018-06-03T08:16:32Z</time>
      </trkpt>
      <trkpt lat="45.91032" lon="4.73421">
        <ele>175</ele>
        <time>2018-06-03T08:16:33Z</time>
      </trkpt>
      <trkpt lat="45.91029" lon="4.73416">
        <ele>174</ele>
        <time>2018-06-03T08:16:34Z</time>
      </trkpt>
      <trkpt lat="45.91025" lon="4.73411">
        <ele>174</ele>
        <time>2018-06-03T08:16:35Z</time>
      </trkpt>
      <trkpt lat="45.9102" lon="4.73411">
        <ele>174</ele>
        <time>2018-06-03T08:16:36Z</time>
      </trkpt>
      <trkpt lat="45.91013" lon="4.73413">
        <ele>175</ele>
        <time>2018-06-03T08:16:37Z</time>
      </trkpt>
      <trkpt lat="45.91009" lon="4.73415">
        <ele>175</ele>
        <time>2018-06-03T08:16:38Z</time>
      </trkpt>
      <trkpt lat="45.91006" lon="4.73422">
        <ele>175</ele>
        <time>2018-06-03T08:16:39Z</time>
      </trkpt>
      <trkpt lat="45.91002" lon="4.73427">
        <ele>175</ele>
        <time>2018-06-03T08:16:40Z</time>
      </trkpt>
      <trkpt lat="45.90999" lon="4.73432">
        <ele>175</ele>
        <time>2018-06-03T08:16:41Z</time>
      </trkpt>
      <trkpt lat="45.90994" lon="4.73437">
        <ele>175</ele>
        <time>2018-06-03T08:16:42Z</time>
      </trkpt>
      <trkpt lat="45.90989" lon="4.7344">
        <ele>175</ele>
        <time>2018-06-03T08:16:43Z</time>
      </trkpt>
      <trkpt lat="45.90984" lon="4.73442">
        <ele>175</ele>
        <time>2018-06-03T08:16:44Z</time>
      </trkpt>
      <trkpt lat="45.90979" lon="4.73446">
        <ele>175</ele>
        <time>2018-06-03T08:16:45Z</time>
      </trkpt>
      <trkpt lat="45.90974" lon="4.73448">
        <ele>175</ele>
        <time>2018-06-03T08:16:46Z</time>
      </trkpt>
      <trkpt lat="45.90969" lon="4.73453">
        <ele>175</ele>
        <time>2018-06-03T08:16:47Z</time>
      </trkpt>
      <trkpt lat="45.90963" lon="4.73455">
        <ele>175</ele>
        <time>2018-06-03T08:16:48Z</time>
      </trkpt>
      <trkpt lat="45.90958" lon="4.73457">
        <ele>175</ele>
        <time>2018-06-03T08:16:49Z</time>
      </trkpt>
      <trkpt lat="45.90952" lon="4.73459">
        <ele>175</ele>
        <time>2018-06-03T08:16:50Z</time>
      </trkpt>
      <trkpt lat="45.90947" lon="4.73461">
        <ele>175</ele>
        <time>2018-06-03T08:16:51Z</time>
      </trkpt>
      <trkpt lat="45.90941" lon="4.73464">
        <ele>175</ele>
        <time>2018-06-03T08:16:52Z</time>
      </trkpt>
      <trkpt lat="45.90931" lon="4.73468">
        <ele>175</ele>
        <time>2018-06-03T08:16:53Z</time>
      </trkpt>
      <trkpt lat="45.90927" lon="4.73472">
        <ele>175</ele>
        <time>2018-06-03T08:16:54Z</time>
      </trkpt>
      <trkpt lat="45.90922" lon="4.73475">
        <ele>175</ele>
        <time>2018-06-03T08:16:55Z</time>
      </trkpt>
      <trkpt lat="45.90917" lon="4.73477">
        <ele>175</ele>
        <time>2018-06-03T08:16:56Z</time>
      </trkpt>
      <trkpt lat="45.90911" lon="4.73481">
        <ele>175</ele>
        <time>2018-06-03T08:16:57Z</time>
      </trkpt>
      <trkpt lat="45.90907" lon="4.73482">
        <ele>175</ele>
        <time>2018-06-03T08:16:58Z</time>
      </trkpt>
      <trkpt lat="45.90901" lon="4.73483">
        <ele>175</ele>
        <time>2018-06-03T08:16:59Z</time>
      </trkpt>
      <trkpt lat="45.90896" lon="4.73486">
        <ele>175</ele>
        <time>2018-06-03T08:17:00Z</time>
      </trkpt>
      <trkpt lat="45.90892" lon="4.73487">
        <ele>175</ele>
        <time>2018-06-03T08:17:01Z</time>
      </trkpt>
      <trkpt lat="45.90885" lon="4.7349">
        <ele>175</ele>
        <time>2018-06-03T08:17:02Z</time>
      </trkpt>
      <trkpt lat="45.90878" lon="4.73493">
        <ele>175</ele>
        <time>2018-06-03T08:17:03Z</time>
      </trkpt>
      <trkpt lat="45.90872" lon="4.73495">
        <ele>175</ele>
        <time>2018-06-03T08:17:04Z</time>
      </trkpt>
      <trkpt lat="45.90867" lon="4.73497">
        <ele>175</ele>
        <time>2018-06-03T08:17:05Z</time>
      </trkpt>
      <trkpt lat="45.90862" lon="4.73499">
        <ele>175</ele>
        <time>2018-06-03T08:17:06Z</time>
      </trkpt>
      <trkpt lat="45.90856" lon="4.73501">
        <ele>174</ele>
        <time>2018-06-03T08:17:07Z</time>
      </trkpt>
      <trkpt lat="45.90851" lon="4.73506">
        <ele>174</ele>
        <time>2018-06-03T08:17:08Z</time>
      </trkpt>
      <trkpt lat="45.90847" lon="4.73509">
        <ele>174</ele>
        <time>2018-06-03T08:17:09Z</time>
      </trkpt>
      <trkpt lat="45.90842" lon="4.73511">
        <ele>174</ele>
        <time>2018-06-03T08:17:10Z</time>
      </trkpt>
      <trkpt lat="45.90838" lon="4.73513">
        <ele>174</ele>
        <time>2018-06-03T08:17:11Z</time>
      </trkpt>
      <trkpt lat="45.90833" lon="4.73515">
        <ele>175</ele>
        <time>2018-06-03T08:17:12Z</time>
      </trkpt>
      <trkpt lat="45.90827" lon="4.73517">
        <ele>175</ele>
        <time>2018-06-03T08:17:13Z</time>
      </trkpt>
      <trkpt lat="45.90822" lon="4.73519">
        <ele>175</ele>
        <time>2018-06-03T08:17:14Z</time>
      </trkpt>
      <trkpt lat="45.90818" lon="4.73522">
        <ele>175</ele>
        <time>2018-06-03T08:17:15Z</time>
      </trkpt>
      <trkpt lat="45.90812" lon="4.73525">
        <ele>175</ele>
        <time>2018-06-03T08:17:17Z</time>
      </trkpt>
      <trkpt lat="45.90806" lon="4.73528">
        <ele>175</ele>
        <time>2018-06-03T08:17:18Z</time>
      </trkpt>
      <trkpt lat="45.90801" lon="4.73531">
        <ele>175</ele>
        <time>2018-06-03T08:17:19Z</time>
      </trkpt>
      <trkpt lat="45.90794" lon="4.73533">
        <ele>176</ele>
        <time>2018-06-03T08:17:20Z</time>
      </trkpt>
      <trkpt lat="45.90787" lon="4.73537">
        <ele>176</ele>
        <time>2018-06-03T08:17:21Z</time>
      </trkpt>
      <trkpt lat="45.90781" lon="4.73539">
        <ele>176</ele>
        <time>2018-06-03T08:17:22Z</time>
      </trkpt>
      <trkpt lat="45.90776" lon="4.73541">
        <ele>176</ele>
        <time>2018-06-03T08:17:23Z</time>
      </trkpt>
      <trkpt lat="45.90771" lon="4.73543">
        <ele>176</ele>
        <time>2018-06-03T08:17:24Z</time>
      </trkpt>
      <trkpt lat="45.90765" lon="4.73546">
        <ele>176</ele>
        <time>2018-06-03T08:17:25Z</time>
      </trkpt>
      <trkpt lat="45.9076" lon="4.7355">
        <ele>176</ele>
        <time>2018-06-03T08:17:26Z</time>
      </trkpt>
      <trkpt lat="45.90754" lon="4.73552">
        <ele>177</ele>
        <time>2018-06-03T08:17:27Z</time>
      </trkpt>
      <trkpt lat="45.90748" lon="4.73552">
        <ele>178</ele>
        <time>2018-06-03T08:17:28Z</time>
      </trkpt>
      <trkpt lat="45.90743" lon="4.73555">
        <ele>178</ele>
        <time>2018-06-03T08:17:29Z</time>
      </trkpt>
      <trkpt lat="45.90738" lon="4.73556">
        <ele>178</ele>
        <time>2018-06-03T08:17:30Z</time>
      </trkpt>
      <trkpt lat="45.90733" lon="4.73558">
        <ele>178</ele>
        <time>2018-06-03T08:17:31Z</time>
      </trkpt>
      <trkpt lat="45.90728" lon="4.7356">
        <ele>178</ele>
        <time>2018-06-03T08:17:32Z</time>
      </trkpt>
      <trkpt lat="45.90724" lon="4.7356">
        <ele>178</ele>
        <time>2018-06-03T08:17:33Z</time>
      </trkpt>
      <trkpt lat="45.90719" lon="4.73563">
        <ele>178</ele>
        <time>2018-06-03T08:17:34Z</time>
      </trkpt>
      <trkpt lat="45.90714" lon="4.73565">
        <ele>178</ele>
        <time>2018-06-03T08:17:35Z</time>
      </trkpt>
      <trkpt lat="45.90709" lon="4.73566">
        <ele>178</ele>
        <time>2018-06-03T08:17:36Z</time>
      </trkpt>
      <trkpt lat="45.90702" lon="4.73572">
        <ele>178</ele>
        <time>2018-06-03T08:17:38Z</time>
      </trkpt>
      <trkpt lat="45.90697" lon="4.73573">
        <ele>178</ele>
        <time>2018-06-03T08:17:39Z</time>
      </trkpt>
      <trkpt lat="45.9069" lon="4.73577">
        <ele>179</ele>
        <time>2018-06-03T08:17:41Z</time>
      </trkpt>
      <trkpt lat="45.90684" lon="4.73579">
        <ele>179</ele>
        <time>2018-06-03T08:17:42Z</time>
      </trkpt>
      <trkpt lat="45.90677" lon="4.73582">
        <ele>179</ele>
        <time>2018-06-03T08:17:44Z</time>
      </trkpt>
      <trkpt lat="45.90673" lon="4.73584">
        <ele>180</ele>
        <time>2018-06-03T08:17:45Z</time>
      </trkpt>
      <trkpt lat="45.90665" lon="4.73589">
        <ele>180</ele>
        <time>2018-06-03T08:17:47Z</time>
      </trkpt>
      <trkpt lat="45.90662" lon="4.73593">
        <ele>180</ele>
        <time>2018-06-03T08:17:48Z</time>
      </trkpt>
      <trkpt lat="45.90654" lon="4.73596">
        <ele>181</ele>
        <time>2018-06-03T08:17:50Z</time>
      </trkpt>
      <trkpt lat="45.90649" lon="4.73596">
        <ele>181</ele>
        <time>2018-06-03T08:17:51Z</time>
      </trkpt>
      <trkpt lat="45.90642" lon="4.73599">
        <ele>181</ele>
        <time>2018-06-03T08:17:53Z</time>
      </trkpt>
      <trkpt lat="45.90638" lon="4.73601">
        <ele>181</ele>
        <time>2018-06-03T08:17:54Z</time>
      </trkpt>
      <trkpt lat="45.90631" lon="4.73604">
        <ele>181</ele>
        <time>2018-06-03T08:17:56Z</time>
      </trkpt>
      <trkpt lat="45.90627" lon="4.73605">
        <ele>181</ele>
        <time>2018-06-03T08:17:57Z</time>
      </trkpt>
      <trkpt lat="45.90619" lon="4.73607">
        <ele>181</ele>
        <time>2018-06-03T08:17:59Z</time>
      </trkpt>
      <trkpt lat="45.90615" lon="4.73609">
        <ele>181</ele>
        <time>2018-06-03T08:18:00Z</time>
      </trkpt>
      <trkpt lat="45.90607" lon="4.73611">
        <ele>180</ele>
        <time>2018-06-03T08:18:02Z</time>
      </trkpt>
      <trkpt lat="45.90603" lon="4.73613">
        <ele>180</ele>
        <time>2018-06-03T08:18:03Z</time>
      </trkpt>
      <trkpt lat="45.90594" lon="4.73616">
        <ele>180</ele>
        <time>2018-06-03T08:18:05Z</time>
      </trkpt>
      <trkpt lat="45.9059" lon="4.73617">
        <ele>180</ele>
        <time>2018-06-03T08:18:06Z</time>
      </trkpt>
      <trkpt lat="45.90585" lon="4.73619">
        <ele>180</ele>
        <time>2018-06-03T08:18:07Z</time>
      </trkpt>
      <trkpt lat="45.9058" lon="4.73621">
        <ele>179</ele>
        <time>2018-06-03T08:18:08Z</time>
      </trkpt>
      <trkpt lat="45.90572" lon="4.73623">
        <ele>179</ele>
        <time>2018-06-03T08:18:10Z</time>
      </trkpt>
      <trkpt lat="45.90568" lon="4.73625">
        <ele>179</ele>
        <time>2018-06-03T08:18:11Z</time>
      </trkpt>
      <trkpt lat="45.9056" lon="4.73629">
        <ele>179</ele>
        <time>2018-06-03T08:18:13Z</time>
      </trkpt>
      <trkpt lat="45.90555" lon="4.7363">
        <ele>179</ele>
        <time>2018-06-03T08:18:14Z</time>
      </trkpt>
      <trkpt lat="45.90551" lon="4.73633">
        <ele>178</ele>
        <time>2018-06-03T08:18:15Z</time>
      </trkpt>
      <trkpt lat="45.90547" lon="4.73634">
        <ele>178</ele>
        <time>2018-06-03T08:18:16Z</time>
      </trkpt>
      <trkpt lat="45.90542" lon="4.73636">
        <ele>178</ele>
        <time>2018-06-03T08:18:17Z</time>
      </trkpt>
      <trkpt lat="45.90538" lon="4.73638">
        <ele>178</ele>
        <time>2018-06-03T08:18:18Z</time>
      </trkpt>
      <trkpt lat="45.90533" lon="4.73639">
        <ele>178</ele>
        <time>2018-06-03T08:18:19Z</time>
      </trkpt>
      <trkpt lat="45.90529" lon="4.73641">
        <ele>178</ele>
        <time>2018-06-03T08:18:20Z</time>
      </trkpt>
      <trkpt lat="45.90524" lon="4.73643">
        <ele>178</ele>
        <time>2018-06-03T08:18:21Z</time>
      </trkpt>
      <trkpt lat="45.90518" lon="4.73645">
        <ele>178</ele>
        <time>2018-06-03T08:18:22Z</time>
      </trkpt>
      <trkpt lat="45.90513" lon="4.73647">
        <ele>178</ele>
        <time>2018-06-03T08:18:23Z</time>
      </trkpt>
      <trkpt lat="45.90509" lon="4.73649">
        <ele>178</ele>
        <time>2018-06-03T08:18:24Z</time>
      </trkpt>
      <trkpt lat="45.90504" lon="4.73651">
        <ele>178</ele>
        <time>2018-06-03T08:18:25Z</time>
      </trkpt>
      <trkpt lat="45.905" lon="4.73654">
        <ele>177</ele>
        <time>2018-06-03T08:18:26Z</time>
      </trkpt>
      <trkpt lat="45.90495" lon="4.73655">
        <ele>177</ele>
        <time>2018-06-03T08:18:27Z</time>
      </trkpt>
      <trkpt lat="45.90491" lon="4.73657">
        <ele>177</ele>
        <time>2018-06-03T08:18:28Z</time>
      </trkpt>
      <trkpt lat="45.90485" lon="4.73658">
        <ele>177</ele>
        <time>2018-06-03T08:18:29Z</time>
      </trkpt>
      <trkpt lat="45.90478" lon="4.73661">
        <ele>177</ele>
        <time>2018-06-03T08:18:30Z</time>
      </trkpt>
      <trkpt lat="45.90472" lon="4.73664">
        <ele>177</ele>
        <time>2018-06-03T08:18:31Z</time>
      </trkpt>
      <trkpt lat="45.90466" lon="4.73667">
        <ele>176</ele>
        <time>2018-06-03T08:18:32Z</time>
      </trkpt>
      <trkpt lat="45.9046" lon="4.73669">
        <ele>176</ele>
        <time>2018-06-03T08:18:33Z</time>
      </trkpt>
      <trkpt lat="45.90455" lon="4.73671">
        <ele>176</ele>
        <time>2018-06-03T08:18:34Z</time>
      </trkpt>
      <trkpt lat="45.90449" lon="4.73673">
        <ele>176</ele>
        <time>2018-06-03T08:18:35Z</time>
      </trkpt>
      <trkpt lat="45.90443" lon="4.73675">
        <ele>176</ele>
        <time>2018-06-03T08:18:36Z</time>
      </trkpt>
      <trkpt lat="45.90438" lon="4.73678">
        <ele>176</ele>
        <time>2018-06-03T08:18:37Z</time>
      </trkpt>
      <trkpt lat="45.90432" lon="4.73681">
        <ele>176</ele>
        <time>2018-06-03T08:18:38Z</time>
      </trkpt>
      <trkpt lat="45.90426" lon="4.73683">
        <ele>176</ele>
        <time>2018-06-03T08:18:39Z</time>
      </trkpt>
      <trkpt lat="45.90421" lon="4.73689">
        <ele>176</ele>
        <time>2018-06-03T08:18:40Z</time>
      </trkpt>
      <trkpt lat="45.90414" lon="4.73691">
        <ele>177</ele>
        <time>2018-06-03T08:18:41Z</time>
      </trkpt>
      <trkpt lat="45.90407" lon="4.73692">
        <ele>177</ele>
        <time>2018-06-03T08:18:42Z</time>
      </trkpt>
      <trkpt lat="45.90401" lon="4.73695">
        <ele>177</ele>
        <time>2018-06-03T08:18:43Z</time>
      </trkpt>
      <trkpt lat="45.90395" lon="4.73698">
        <ele>177</ele>
        <time>2018-06-03T08:18:44Z</time>
      </trkpt>
      <trkpt lat="45.90389" lon="4.73701">
        <ele>177</ele>
        <time>2018-06-03T08:18:45Z</time>
      </trkpt>
      <trkpt lat="45.90383" lon="4.73703">
        <ele>177</ele>
        <time>2018-06-03T08:18:46Z</time>
      </trkpt>
      <trkpt lat="45.90377" lon="4.73708">
        <ele>177</ele>
        <time>2018-06-03T08:18:47Z</time>
      </trkpt>
      <trkpt lat="45.9037" lon="4.73711">
        <ele>177</ele>
        <time>2018-06-03T08:18:48Z</time>
      </trkpt>
      <trkpt lat="45.90364" lon="4.73713">
        <ele>177</ele>
        <time>2018-06-03T08:18:49Z</time>
      </trkpt>
      <trkpt lat="45.90357" lon="4.73716">
        <ele>177</ele>
        <time>2018-06-03T08:18:50Z</time>
      </trkpt>
      <trkpt lat="45.9035" lon="4.7372">
        <ele>177</ele>
        <time>2018-06-03T08:18:51Z</time>
      </trkpt>
      <trkpt lat="45.90343" lon="4.73722">
        <ele>177</ele>
        <time>2018-06-03T08:18:52Z</time>
      </trkpt>
      <trkpt lat="45.90336" lon="4.73726">
        <ele>177</ele>
        <time>2018-06-03T08:18:53Z</time>
      </trkpt>
      <trkpt lat="45.90329" lon="4.7373">
        <ele>177</ele>
        <time>2018-06-03T08:18:54Z</time>
      </trkpt>
      <trkpt lat="45.90321" lon="4.73732">
        <ele>177</ele>
        <time>2018-06-03T08:18:55Z</time>
      </trkpt>
      <trkpt lat="45.90314" lon="4.73735">
        <ele>177</ele>
        <time>2018-06-03T08:18:56Z</time>
      </trkpt>
      <trkpt lat="45.90306" lon="4.73738">
        <ele>177</ele>
        <time>2018-06-03T08:18:57Z</time>
      </trkpt>
      <trkpt lat="45.90299" lon="4.7374">
        <ele>177</ele>
        <time>2018-06-03T08:18:58Z</time>
      </trkpt>
      <trkpt lat="45.90293" lon="4.73743">
        <ele>177</ele>
        <time>2018-06-03T08:18:59Z</time>
      </trkpt>
      <trkpt lat="45.90286" lon="4.73747">
        <ele>177</ele>
        <time>2018-06-03T08:19:00Z</time>
      </trkpt>
      <trkpt lat="45.90279" lon="4.7375">
        <ele>177</ele>
        <time>2018-06-03T08:19:01Z</time>
      </trkpt>
      <trkpt lat="45.90274" lon="4.73754">
        <ele>177</ele>
        <time>2018-06-03T08:19:02Z</time>
      </trkpt>
      <trkpt lat="45.90267" lon="4.73756">
        <ele>177</ele>
        <time>2018-06-03T08:19:03Z</time>
      </trkpt>
      <trkpt lat="45.90262" lon="4.73758">
        <ele>177</ele>
        <time>2018-06-03T08:19:04Z</time>
      </trkpt>
      <trkpt lat="45.90255" lon="4.73761">
        <ele>178</ele>
        <time>2018-06-03T08:19:05Z</time>
      </trkpt>
      <trkpt lat="45.9025" lon="4.73765">
        <ele>178</ele>
        <time>2018-06-03T08:19:06Z</time>
      </trkpt>
      <trkpt lat="45.90244" lon="4.73767">
        <ele>178</ele>
        <time>2018-06-03T08:19:07Z</time>
      </trkpt>
      <trkpt lat="45.90238" lon="4.7377">
        <ele>177</ele>
        <time>2018-06-03T08:19:08Z</time>
      </trkpt>
      <trkpt lat="45.9023" lon="4.73771">
        <ele>177</ele>
        <time>2018-06-03T08:19:09Z</time>
      </trkpt>
      <trkpt lat="45.90225" lon="4.73774">
        <ele>177</ele>
        <time>2018-06-03T08:19:10Z</time>
      </trkpt>
      <trkpt lat="45.90219" lon="4.73776">
        <ele>177</ele>
        <time>2018-06-03T08:19:11Z</time>
      </trkpt>
      <trkpt lat="45.90213" lon="4.73778">
        <ele>177</ele>
        <time>2018-06-03T08:19:12Z</time>
      </trkpt>
      <trkpt lat="45.90208" lon="4.73781">
        <ele>177</ele>
        <time>2018-06-03T08:19:13Z</time>
      </trkpt>
      <trkpt lat="45.90201" lon="4.73783">
        <ele>177</ele>
        <time>2018-06-03T08:19:14Z</time>
      </trkpt>
      <trkpt lat="45.90195" lon="4.73786">
        <ele>177</ele>
        <time>2018-06-03T08:19:15Z</time>
      </trkpt>
      <trkpt lat="45.9019" lon="4.73789">
        <ele>177</ele>
        <time>2018-06-03T08:19:16Z</time>
      </trkpt>
      <trkpt lat="45.90186" lon="4.73791">
        <ele>177</ele>
        <time>2018-06-03T08:19:17Z</time>
      </trkpt>
      <trkpt lat="45.9018" lon="4.73793">
        <ele>177</ele>
        <time>2018-06-03T08:19:18Z</time>
      </trkpt>
      <trkpt lat="45.90174" lon="4.73795">
        <ele>177</ele>
        <time>2018-06-03T08:19:19Z</time>
      </trkpt>
      <trkpt lat="45.90169" lon="4.73797">
        <ele>177</ele>
        <time>2018-06-03T08:19:20Z</time>
      </trkpt>
      <trkpt lat="45.90162" lon="4.738">
        <ele>176</ele>
        <time>2018-06-03T08:19:21Z</time>
      </trkpt>
      <trkpt lat="45.90155" lon="4.73802">
        <ele>177</ele>
        <time>2018-06-03T08:19:22Z</time>
      </trkpt>
      <trkpt lat="45.90149" lon="4.73805">
        <ele>177</ele>
        <time>2018-06-03T08:19:23Z</time>
      </trkpt>
      <trkpt lat="45.90144" lon="4.73806">
        <ele>177</ele>
        <time>2018-06-03T08:19:24Z</time>
      </trkpt>
      <trkpt lat="45.90138" lon="4.73808">
        <ele>177</ele>
        <time>2018-06-03T08:19:25Z</time>
      </trkpt>
      <trkpt lat="45.90132" lon="4.7381">
        <ele>177</ele>
        <time>2018-06-03T08:19:26Z</time>
      </trkpt>
      <trkpt lat="45.90126" lon="4.73814">
        <ele>177</ele>
        <time>2018-06-03T08:19:27Z</time>
      </trkpt>
      <trkpt lat="45.9012" lon="4.73816">
        <ele>177</ele>
        <time>2018-06-03T08:19:28Z</time>
      </trkpt>
      <trkpt lat="45.90116" lon="4.73818">
        <ele>177</ele>
        <time>2018-06-03T08:19:29Z</time>
      </trkpt>
      <trkpt lat="45.90111" lon="4.73821">
        <ele>177</ele>
        <time>2018-06-03T08:19:30Z</time>
      </trkpt>
      <trkpt lat="45.90106" lon="4.73823">
        <ele>177</ele>
        <time>2018-06-03T08:19:31Z</time>
      </trkpt>
      <trkpt lat="45.90102" lon="4.73826">
        <ele>177</ele>
        <time>2018-06-03T08:19:32Z</time>
      </trkpt>
      <trkpt lat="45.90097" lon="4.73828">
        <ele>177</ele>
        <time>2018-06-03T08:19:33Z</time>
      </trkpt>
      <trkpt lat="45.90093" lon="4.7383">
        <ele>178</ele>
        <time>2018-06-03T08:19:34Z</time>
      </trkpt>
      <trkpt lat="45.90085" lon="4.73834">
        <ele>178</ele>
        <time>2018-06-03T08:19:36Z</time>
      </trkpt>
      <trkpt lat="45.9008" lon="4.73835">
        <ele>178</ele>
        <time>2018-06-03T08:19:37Z</time>
      </trkpt>
      <trkpt lat="45.90074" lon="4.73836">
        <ele>178</ele>
        <time>2018-06-03T08:19:39Z</time>
      </trkpt>
      <trkpt lat="45.90071" lon="4.73836">
        <ele>178</ele>
        <time>2018-06-03T08:19:40Z</time>
      </trkpt>
      <trkpt lat="45.90063" lon="4.73839">
        <ele>178</ele>
        <time>2018-06-03T08:21:24Z</time>
      </trkpt>
      <trkpt lat="45.90062" lon="4.7384">
        <ele>178</ele>
        <time>2018-06-03T08:21:25Z</time>
      </trkpt>
      <trkpt lat="45.90054" lon="4.73844">
        <ele>178</ele>
        <time>2018-06-03T08:21:30Z</time>
      </trkpt>
      <trkpt lat="45.90051" lon="4.73846">
        <ele>178</ele>
        <time>2018-06-03T08:21:31Z</time>
      </trkpt>
      <trkpt lat="45.90046" lon="4.73849">
        <ele>178</ele>
        <time>2018-06-03T08:21:33Z</time>
      </trkpt>
      <trkpt lat="45.90037" lon="4.73852">
        <ele>178</ele>
        <time>2018-06-03T08:21:34Z</time>
      </trkpt>
      <trkpt lat="45.90029" lon="4.73855">
        <ele>178</ele>
        <time>2018-06-03T08:21:36Z</time>
      </trkpt>
      <trkpt lat="45.90025" lon="4.73856">
        <ele>178</ele>
        <time>2018-06-03T08:21:37Z</time>
      </trkpt>
      <trkpt lat="45.90017" lon="4.73858">
        <ele>178</ele>
        <time>2018-06-03T08:21:39Z</time>
      </trkpt>
      <trkpt lat="45.90012" lon="4.7386">
        <ele>178</ele>
        <time>2018-06-03T08:21:40Z</time>
      </trkpt>
      <trkpt lat="45.90007" lon="4.73862">
        <ele>178</ele>
        <time>2018-06-03T08:21:41Z</time>
      </trkpt>
      <trkpt lat="45.90001" lon="4.73863">
        <ele>178</ele>
        <time>2018-06-03T08:21:42Z</time>
      </trkpt>
      <trkpt lat="45.89995" lon="4.73864">
        <ele>178</ele>
        <time>2018-06-03T08:21:43Z</time>
      </trkpt>
      <trkpt lat="45.89989" lon="4.73866">
        <ele>178</ele>
        <time>2018-06-03T08:21:44Z</time>
      </trkpt>
      <trkpt lat="45.89983" lon="4.73869">
        <ele>178</ele>
        <time>2018-06-03T08:21:45Z</time>
      </trkpt>
      <trkpt lat="45.89978" lon="4.73872">
        <ele>178</ele>
        <time>2018-06-03T08:21:46Z</time>
      </trkpt>
      <trkpt lat="45.89972" lon="4.73874">
        <ele>178</ele>
        <time>2018-06-03T08:21:47Z</time>
      </trkpt>
      <trkpt lat="45.89966" lon="4.73876">
        <ele>178</ele>
        <time>2018-06-03T08:21:48Z</time>
      </trkpt>
      <trkpt lat="45.8996" lon="4.73879">
        <ele>178</ele>
        <time>2018-06-03T08:21:49Z</time>
      </trkpt>
      <trkpt lat="45.89954" lon="4.73881">
        <ele>178</ele>
        <time>2018-06-03T08:21:50Z</time>
      </trkpt>
      <trkpt lat="45.89948" lon="4.73884">
        <ele>178</ele>
        <time>2018-06-03T08:21:51Z</time>
      </trkpt>
      <trkpt lat="45.89943" lon="4.73886">
        <ele>178</ele>
        <time>2018-06-03T08:21:52Z</time>
      </trkpt>
      <trkpt lat="45.89937" lon="4.73889">
        <ele>178</ele>
        <time>2018-06-03T08:21:53Z</time>
      </trkpt>
      <trkpt lat="45.89933" lon="4.73892">
        <ele>178</ele>
        <time>2018-06-03T08:21:54Z</time>
      </trkpt>
      <trkpt lat="45.89927" lon="4.73894">
        <ele>178</ele>
        <time>2018-06-03T08:21:55Z</time>
      </trkpt>
      <trkpt lat="45.89923" lon="4.73897">
        <ele>178</ele>
        <time>2018-06-03T08:21:56Z</time>
      </trkpt>
      <trkpt lat="45.89917" lon="4.73898">
        <ele>178</ele>
        <time>2018-06-03T08:21:57Z</time>
      </trkpt>
      <trkpt lat="45.89912" lon="4.739">
        <ele>178</ele>
        <time>2018-06-03T08:21:58Z</time>
      </trkpt>
      <trkpt lat="45.89907" lon="4.73903">
        <ele>178</ele>
        <time>2018-06-03T08:21:59Z</time>
      </trkpt>
      <trkpt lat="45.899" lon="4.73906">
        <ele>178</ele>
        <time>2018-06-03T08:22:00Z</time>
      </trkpt>
      <trkpt lat="45.89894" lon="4.73907">
        <ele>179</ele>
        <time>2018-06-03T08:22:01Z</time>
      </trkpt>
      <trkpt lat="45.8989" lon="4.73908">
        <ele>179</ele>
        <time>2018-06-03T08:22:02Z</time>
      </trkpt>
      <trkpt lat="45.89885" lon="4.73911">
        <ele>179</ele>
        <time>2018-06-03T08:22:03Z</time>
      </trkpt>
      <trkpt lat="45.8988" lon="4.73913">
        <ele>179</ele>
        <time>2018-06-03T08:22:04Z</time>
      </trkpt>
      <trkpt lat="45.89876" lon="4.73915">
        <ele>179</ele>
        <time>2018-06-03T08:22:05Z</time>
      </trkpt>
      <trkpt lat="45.89871" lon="4.73917">
        <ele>179</ele>
        <time>2018-06-03T08:22:06Z</time>
      </trkpt>
      <trkpt lat="45.89865" lon="4.73922">
        <ele>179</ele>
        <time>2018-06-03T08:22:07Z</time>
      </trkpt>
      <trkpt lat="45.8986" lon="4.73924">
        <ele>179</ele>
        <time>2018-06-03T08:22:08Z</time>
      </trkpt>
      <trkpt lat="45.89855" lon="4.73924">
        <ele>179</ele>
        <time>2018-06-03T08:22:09Z</time>
      </trkpt>
      <trkpt lat="45.8985" lon="4.73927">
        <ele>179</ele>
        <time>2018-06-03T08:22:10Z</time>
      </trkpt>
      <trkpt lat="45.89845" lon="4.7393">
        <ele>179</ele>
        <time>2018-06-03T08:22:11Z</time>
      </trkpt>
      <trkpt lat="45.89839" lon="4.73931">
        <ele>179</ele>
        <time>2018-06-03T08:22:12Z</time>
      </trkpt>
      <trkpt lat="45.89834" lon="4.73933">
        <ele>179</ele>
        <time>2018-06-03T08:22:13Z</time>
      </trkpt>
      <trkpt lat="45.89828" lon="4.73935">
        <ele>179</ele>
        <time>2018-06-03T08:22:14Z</time>
      </trkpt>
      <trkpt lat="45.89822" lon="4.73937">
        <ele>179</ele>
        <time>2018-06-03T08:22:15Z</time>
      </trkpt>
      <trkpt lat="45.89817" lon="4.73939">
        <ele>179</ele>
        <time>2018-06-03T08:22:16Z</time>
      </trkpt>
      <trkpt lat="45.8981" lon="4.73942">
        <ele>179</ele>
        <time>2018-06-03T08:22:17Z</time>
      </trkpt>
      <trkpt lat="45.89805" lon="4.73946">
        <ele>179</ele>
        <time>2018-06-03T08:22:18Z</time>
      </trkpt>
      <trkpt lat="45.89799" lon="4.73948">
        <ele>179</ele>
        <time>2018-06-03T08:22:19Z</time>
      </trkpt>
      <trkpt lat="45.89794" lon="4.7395">
        <ele>179</ele>
        <time>2018-06-03T08:22:20Z</time>
      </trkpt>
      <trkpt lat="45.89788" lon="4.73952">
        <ele>179</ele>
        <time>2018-06-03T08:22:21Z</time>
      </trkpt>
      <trkpt lat="45.89782" lon="4.73954">
        <ele>179</ele>
        <time>2018-06-03T08:22:22Z</time>
      </trkpt>
      <trkpt lat="45.89777" lon="4.73957">
        <ele>179</ele>
        <time>2018-06-03T08:22:23Z</time>
      </trkpt>
      <trkpt lat="45.89772" lon="4.7396">
        <ele>179</ele>
        <time>2018-06-03T08:22:24Z</time>
      </trkpt>
      <trkpt lat="45.89767" lon="4.73961">
        <ele>179</ele>
        <time>2018-06-03T08:22:25Z</time>
      </trkpt>
      <trkpt lat="45.89762" lon="4.73963">
        <ele>179</ele>
        <time>2018-06-03T08:22:26Z</time>
      </trkpt>
      <trkpt lat="45.89756" lon="4.73966">
        <ele>178</ele>
        <time>2018-06-03T08:22:27Z</time>
      </trkpt>
      <trkpt lat="45.8975" lon="4.73969">
        <ele>178</ele>
        <time>2018-06-03T08:22:28Z</time>
      </trkpt>
      <trkpt lat="45.89744" lon="4.73973">
        <ele>178</ele>
        <time>2018-06-03T08:22:29Z</time>
      </trkpt>
      <trkpt lat="45.89739" lon="4.73975">
        <ele>178</ele>
        <time>2018-06-03T08:22:30Z</time>
      </trkpt>
      <trkpt lat="45.89734" lon="4.73977">
        <ele>178</ele>
        <time>2018-06-03T08:22:31Z</time>
      </trkpt>
      <trkpt lat="45.89729" lon="4.7398">
        <ele>178</ele>
        <time>2018-06-03T08:22:32Z</time>
      </trkpt>
      <trkpt lat="45.89723" lon="4.73982">
        <ele>178</ele>
        <time>2018-06-03T08:22:33Z</time>
      </trkpt>
      <trkpt lat="45.89717" lon="4.73984">
        <ele>178</ele>
        <time>2018-06-03T08:22:34Z</time>
      </trkpt>
      <trkpt lat="45.89712" lon="4.73986">
        <ele>178</ele>
        <time>2018-06-03T08:22:35Z</time>
      </trkpt>
      <trkpt lat="45.89707" lon="4.73989">
        <ele>178</ele>
        <time>2018-06-03T08:22:36Z</time>
      </trkpt>
      <trkpt lat="45.89702" lon="4.73991">
        <ele>178</ele>
        <time>2018-06-03T08:22:37Z</time>
      </trkpt>
      <trkpt lat="45.89695" lon="4.73994">
        <ele>178</ele>
        <time>2018-06-03T08:22:38Z</time>
      </trkpt>
      <trkpt lat="45.89691" lon="4.73997">
        <ele>179</ele>
        <time>2018-06-03T08:22:39Z</time>
      </trkpt>
      <trkpt lat="45.89684" lon="4.74001">
        <ele>179</ele>
        <time>2018-06-03T08:22:40Z</time>
      </trkpt>
      <trkpt lat="45.89678" lon="4.74003">
        <ele>179</ele>
        <time>2018-06-03T08:22:41Z</time>
      </trkpt>
      <trkpt lat="45.89673" lon="4.74006">
        <ele>179</ele>
        <time>2018-06-03T08:22:42Z</time>
      </trkpt>
      <trkpt lat="45.89668" lon="4.74009">
        <ele>179</ele>
        <time>2018-06-03T08:22:43Z</time>
      </trkpt>
      <trkpt lat="45.89662" lon="4.74011">
        <ele>179</ele>
        <time>2018-06-03T08:22:44Z</time>
      </trkpt>
      <trkpt lat="45.89657" lon="4.74014">
        <ele>179</ele>
        <time>2018-06-03T08:22:45Z</time>
      </trkpt>
      <trkpt lat="45.89651" lon="4.74014">
        <ele>180</ele>
        <time>2018-06-03T08:22:46Z</time>
      </trkpt>
      <trkpt lat="45.89644" lon="4.74017">
        <ele>180</ele>
        <time>2018-06-03T08:22:47Z</time>
      </trkpt>
      <trkpt lat="45.89639" lon="4.74021">
        <ele>180</ele>
        <time>2018-06-03T08:22:48Z</time>
      </trkpt>
      <trkpt lat="45.89634" lon="4.74022">
        <ele>180</ele>
        <time>2018-06-03T08:22:49Z</time>
      </trkpt>
      <trkpt lat="45.89629" lon="4.74024">
        <ele>180</ele>
        <time>2018-06-03T08:22:50Z</time>
      </trkpt>
      <trkpt lat="45.89624" lon="4.74026">
        <ele>180</ele>
        <time>2018-06-03T08:22:51Z</time>
      </trkpt>
      <trkpt lat="45.89619" lon="4.74028">
        <ele>180</ele>
        <time>2018-06-03T08:22:52Z</time>
      </trkpt>
      <trkpt lat="45.89614" lon="4.74032">
        <ele>180</ele>
        <time>2018-06-03T08:22:53Z</time>
      </trkpt>
      <trkpt lat="45.89608" lon="4.74033">
        <ele>180</ele>
        <time>2018-06-03T08:22:54Z</time>
      </trkpt>
      <trkpt lat="45.89603" lon="4.74034">
        <ele>180</ele>
        <time>2018-06-03T08:22:55Z</time>
      </trkpt>
      <trkpt lat="45.89597" lon="4.74036">
        <ele>180</ele>
        <time>2018-06-03T08:22:56Z</time>
      </trkpt>
      <trkpt lat="45.89592" lon="4.74039">
        <ele>180</ele>
        <time>2018-06-03T08:22:57Z</time>
      </trkpt>
      <trkpt lat="45.89586" lon="4.74042">
        <ele>180</ele>
        <time>2018-06-03T08:22:58Z</time>
      </trkpt>
      <trkpt lat="45.8958" lon="4.74044">
        <ele>181</ele>
        <time>2018-06-03T08:22:59Z</time>
      </trkpt>
      <trkpt lat="45.89574" lon="4.74047">
        <ele>181</ele>
        <time>2018-06-03T08:23:00Z</time>
      </trkpt>
      <trkpt lat="45.89568" lon="4.74049">
        <ele>181</ele>
        <time>2018-06-03T08:23:01Z</time>
      </trkpt>
      <trkpt lat="45.89562" lon="4.7405">
        <ele>181</ele>
        <time>2018-06-03T08:23:02Z</time>
      </trkpt>
      <trkpt lat="45.89557" lon="4.74051">
        <ele>181</ele>
        <time>2018-06-03T08:23:03Z</time>
      </trkpt>
      <trkpt lat="45.89552" lon="4.74054">
        <ele>181</ele>
        <time>2018-06-03T08:23:04Z</time>
      </trkpt>
      <trkpt lat="45.89546" lon="4.74056">
        <ele>181</ele>
        <time>2018-06-03T08:23:05Z</time>
      </trkpt>
      <trkpt lat="45.8954" lon="4.74058">
        <ele>181</ele>
        <time>2018-06-03T08:23:06Z</time>
      </trkpt>
      <trkpt lat="45.89535" lon="4.7406">
        <ele>181</ele>
        <time>2018-06-03T08:23:07Z</time>
      </trkpt>
      <trkpt lat="45.89529" lon="4.74063">
        <ele>181</ele>
        <time>2018-06-03T08:23:08Z</time>
      </trkpt>
      <trkpt lat="45.89523" lon="4.74065">
        <ele>181</ele>
        <time>2018-06-03T08:23:09Z</time>
      </trkpt>
      <trkpt lat="45.89518" lon="4.74068">
        <ele>181</ele>
        <time>2018-06-03T08:23:10Z</time>
      </trkpt>
      <trkpt lat="45.89512" lon="4.7407">
        <ele>181</ele>
        <time>2018-06-03T08:23:11Z</time>
      </trkpt>
      <trkpt lat="45.89506" lon="4.74073">
        <ele>181</ele>
        <time>2018-06-03T08:23:12Z</time>
      </trkpt>
      <trkpt lat="45.895" lon="4.74075">
        <ele>181</ele>
        <time>2018-06-03T08:23:13Z</time>
      </trkpt>
      <trkpt lat="45.89494" lon="4.74078">
        <ele>181</ele>
        <time>2018-06-03T08:23:14Z</time>
      </trkpt>
      <trkpt lat="45.89489" lon="4.7408">
        <ele>181</ele>
        <time>2018-06-03T08:23:15Z</time>
      </trkpt>
      <trkpt lat="45.89484" lon="4.74082">
        <ele>181</ele>
        <time>2018-06-03T08:23:16Z</time>
      </trkpt>
      <trkpt lat="45.89477" lon="4.74084">
        <ele>182</ele>
        <time>2018-06-03T08:23:17Z</time>
      </trkpt>
      <trkpt lat="45.89471" lon="4.74086">
        <ele>182</ele>
        <time>2018-06-03T08:23:18Z</time>
      </trkpt>
      <trkpt lat="45.89465" lon="4.74088">
        <ele>182</ele>
        <time>2018-06-03T08:23:19Z</time>
      </trkpt>
      <trkpt lat="45.89459" lon="4.7409">
        <ele>182</ele>
        <time>2018-06-03T08:23:20Z</time>
      </trkpt>
      <trkpt lat="45.89454" lon="4.74093">
        <ele>182</ele>
        <time>2018-06-03T08:23:21Z</time>
      </trkpt>
      <trkpt lat="45.89448" lon="4.74094">
        <ele>182</ele>
        <time>2018-06-03T08:23:22Z</time>
      </trkpt>
      <trkpt lat="45.89443" lon="4.74096">
        <ele>182</ele>
        <time>2018-06-03T08:23:23Z</time>
      </trkpt>
      <trkpt lat="45.89435" lon="4.74101">
        <ele>182</ele>
        <time>2018-06-03T08:23:24Z</time>
      </trkpt>
      <trkpt lat="45.8943" lon="4.74104">
        <ele>182</ele>
        <time>2018-06-03T08:23:25Z</time>
      </trkpt>
      <trkpt lat="45.89426" lon="4.74106">
        <ele>183</ele>
        <time>2018-06-03T08:23:26Z</time>
      </trkpt>
      <trkpt lat="45.89421" lon="4.74108">
        <ele>183</ele>
        <time>2018-06-03T08:23:27Z</time>
      </trkpt>
      <trkpt lat="45.89416" lon="4.7411">
        <ele>183</ele>
        <time>2018-06-03T08:23:28Z</time>
      </trkpt>
      <trkpt lat="45.89411" lon="4.74112">
        <ele>183</ele>
        <time>2018-06-03T08:23:29Z</time>
      </trkpt>
      <trkpt lat="45.89404" lon="4.74116">
        <ele>184</ele>
        <time>2018-06-03T08:23:30Z</time>
      </trkpt>
      <trkpt lat="45.894" lon="4.7412">
        <ele>184</ele>
        <time>2018-06-03T08:23:31Z</time>
      </trkpt>
      <trkpt lat="45.89395" lon="4.74121">
        <ele>184</ele>
        <time>2018-06-03T08:23:32Z</time>
      </trkpt>
      <trkpt lat="45.8939" lon="4.74124">
        <ele>184</ele>
        <time>2018-06-03T08:23:33Z</time>
      </trkpt>
      <trkpt lat="45.89383" lon="4.74127">
        <ele>184</ele>
        <time>2018-06-03T08:23:34Z</time>
      </trkpt>
      <trkpt lat="45.89378" lon="4.74128">
        <ele>184</ele>
        <time>2018-06-03T08:23:35Z</time>
      </trkpt>
      <trkpt lat="45.89373" lon="4.74131">
        <ele>184</ele>
        <time>2018-06-03T08:23:36Z</time>
      </trkpt>
      <trkpt lat="45.89368" lon="4.74131">
        <ele>184</ele>
        <time>2018-06-03T08:23:37Z</time>
      </trkpt>
      <trkpt lat="45.89363" lon="4.74135">
        <ele>184</ele>
        <time>2018-06-03T08:23:38Z</time>
      </trkpt>
      <trkpt lat="45.89357" lon="4.74137">
        <ele>184</ele>
        <time>2018-06-03T08:23:39Z</time>
      </trkpt>
      <trkpt lat="45.89352" lon="4.74139">
        <ele>184</ele>
        <time>2018-06-03T08:23:40Z</time>
      </trkpt>
      <trkpt lat="45.89347" lon="4.74142">
        <ele>185</ele>
        <time>2018-06-03T08:23:41Z</time>
      </trkpt>
      <trkpt lat="45.89342" lon="4.74143">
        <ele>185</ele>
        <time>2018-06-03T08:23:42Z</time>
      </trkpt>
      <trkpt lat="45.89337" lon="4.74145">
        <ele>185</ele>
        <time>2018-06-03T08:23:43Z</time>
      </trkpt>
      <trkpt lat="45.89332" lon="4.74146">
        <ele>185</ele>
        <time>2018-06-03T08:23:44Z</time>
      </trkpt>
      <trkpt lat="45.89327" lon="4.74148">
        <ele>185</ele>
        <time>2018-06-03T08:23:45Z</time>
      </trkpt>
      <trkpt lat="45.89321" lon="4.74152">
        <ele>185</ele>
        <time>2018-06-03T08:23:46Z</time>
      </trkpt>
      <trkpt lat="45.89316" lon="4.74154">
        <ele>185</ele>
        <time>2018-06-03T08:23:47Z</time>
      </trkpt>
      <trkpt lat="45.89311" lon="4.74157">
        <ele>185</ele>
        <time>2018-06-03T08:23:48Z</time>
      </trkpt>
      <trkpt lat="45.89305" lon="4.74158">
        <ele>185</ele>
        <time>2018-06-03T08:23:49Z</time>
      </trkpt>
      <trkpt lat="45.893" lon="4.7416">
        <ele>185</ele>
        <time>2018-06-03T08:23:50Z</time>
      </trkpt>
      <trkpt lat="45.89295" lon="4.74162">
        <ele>185</ele>
        <time>2018-06-03T08:23:51Z</time>
      </trkpt>
      <trkpt lat="45.89291" lon="4.74167">
        <ele>186</ele>
        <time>2018-06-03T08:23:52Z</time>
      </trkpt>
      <trkpt lat="45.89284" lon="4.7417">
        <ele>186</ele>
        <time>2018-06-03T08:23:53Z</time>
      </trkpt>
      <trkpt lat="45.89279" lon="4.74173">
        <ele>186</ele>
        <time>2018-06-03T08:23:54Z</time>
      </trkpt>
      <trkpt lat="45.89273" lon="4.74176">
        <ele>186</ele>
        <time>2018-06-03T08:23:55Z</time>
      </trkpt>
      <trkpt lat="45.89269" lon="4.74179">
        <ele>186</ele>
        <time>2018-06-03T08:23:56Z</time>
      </trkpt>
      <trkpt lat="45.89263" lon="4.74181">
        <ele>186</ele>
        <time>2018-06-03T08:23:57Z</time>
      </trkpt>
      <trkpt lat="45.89258" lon="4.74182">
        <ele>186</ele>
        <time>2018-06-03T08:23:58Z</time>
      </trkpt>
      <trkpt lat="45.89252" lon="4.74184">
        <ele>186</ele>
        <time>2018-06-03T08:23:59Z</time>
      </trkpt>
      <trkpt lat="45.89247" lon="4.74186">
        <ele>186</ele>
        <time>2018-06-03T08:24:00Z</time>
      </trkpt>
      <trkpt lat="45.89241" lon="4.74187">
        <ele>186</ele>
        <time>2018-06-03T08:24:01Z</time>
      </trkpt>
      <trkpt lat="45.89235" lon="4.74191">
        <ele>186</ele>
        <time>2018-06-03T08:24:02Z</time>
      </trkpt>
      <trkpt lat="45.8923" lon="4.74194">
        <ele>186</ele>
        <time>2018-06-03T08:24:03Z</time>
      </trkpt>
      <trkpt lat="45.89224" lon="4.74194">
        <ele>186</ele>
        <time>2018-06-03T08:24:04Z</time>
      </trkpt>
      <trkpt lat="45.89218" lon="4.74196">
        <ele>186</ele>
        <time>2018-06-03T08:24:05Z</time>
      </trkpt>
      <trkpt lat="45.89212" lon="4.74199">
        <ele>186</ele>
        <time>2018-06-03T08:24:06Z</time>
      </trkpt>
      <trkpt lat="45.89207" lon="4.742">
        <ele>186</ele>
        <time>2018-06-03T08:24:07Z</time>
      </trkpt>
      <trkpt lat="45.89201" lon="4.74201">
        <ele>186</ele>
        <time>2018-06-03T08:24:08Z</time>
      </trkpt>
      <trkpt lat="45.89194" lon="4.74205">
        <ele>186</ele>
        <time>2018-06-03T08:24:09Z</time>
      </trkpt>
      <trkpt lat="45.89187" lon="4.74209">
        <ele>186</ele>
        <time>2018-06-03T08:24:10Z</time>
      </trkpt>
      <trkpt lat="45.8918" lon="4.74213">
        <ele>186</ele>
        <time>2018-06-03T08:24:11Z</time>
      </trkpt>
      <trkpt lat="45.89174" lon="4.74215">
        <ele>186</ele>
        <time>2018-06-03T08:24:12Z</time>
      </trkpt>
      <trkpt lat="45.89169" lon="4.74216">
        <ele>186</ele>
        <time>2018-06-03T08:24:13Z</time>
      </trkpt>
      <trkpt lat="45.89163" lon="4.74219">
        <ele>186</ele>
        <time>2018-06-03T08:24:14Z</time>
      </trkpt>
      <trkpt lat="45.89158" lon="4.74221">
        <ele>186</ele>
        <time>2018-06-03T08:24:15Z</time>
      </trkpt>
      <trkpt lat="45.89151" lon="4.74223">
        <ele>186</ele>
        <time>2018-06-03T08:24:16Z</time>
      </trkpt>
      <trkpt lat="45.89146" lon="4.74225">
        <ele>186</ele>
        <time>2018-06-03T08:24:17Z</time>
      </trkpt>
      <trkpt lat="45.89142" lon="4.74224">
        <ele>186</ele>
        <time>2018-06-03T08:24:18Z</time>
      </trkpt>
      <trkpt lat="45.89135" lon="4.74229">
        <ele>186</ele>
        <time>2018-06-03T08:24:19Z</time>
      </trkpt>
      <trkpt lat="45.8913" lon="4.7423">
        <ele>186</ele>
        <time>2018-06-03T08:24:20Z</time>
      </trkpt>
      <trkpt lat="45.89124" lon="4.74233">
        <ele>186</ele>
        <time>2018-06-03T08:24:21Z</time>
      </trkpt>
      <trkpt lat="45.8912" lon="4.74233">
        <ele>186</ele>
        <time>2018-06-03T08:24:22Z</time>
      </trkpt>
      <trkpt lat="45.89114" lon="4.74235">
        <ele>186</ele>
        <time>2018-06-03T08:24:23Z</time>
      </trkpt>
      <trkpt lat="45.89108" lon="4.74237">
        <ele>186</ele>
        <time>2018-06-03T08:24:24Z</time>
      </trkpt>
      <trkpt lat="45.89102" lon="4.74239">
        <ele>186</ele>
        <time>2018-06-03T08:24:25Z</time>
      </trkpt>
      <trkpt lat="45.89096" lon="4.74241">
        <ele>186</ele>
        <time>2018-06-03T08:24:26Z</time>
      </trkpt>
      <trkpt lat="45.89091" lon="4.74243">
        <ele>186</ele>
        <time>2018-06-03T08:24:27Z</time>
      </trkpt>
      <trkpt lat="45.89085" lon="4.74244">
        <ele>186</ele>
        <time>2018-06-03T08:24:28Z</time>
      </trkpt>
      <trkpt lat="45.8908" lon="4.74245">
        <ele>186</ele>
        <time>2018-06-03T08:24:29Z</time>
      </trkpt>
      <trkpt lat="45.89075" lon="4.74248">
        <ele>186</ele>
        <time>2018-06-03T08:24:30Z</time>
      </trkpt>
      <trkpt lat="45.8907" lon="4.74251">
        <ele>186</ele>
        <time>2018-06-03T08:24:31Z</time>
      </trkpt>
      <trkpt lat="45.89064" lon="4.74252">
        <ele>186</ele>
        <time>2018-06-03T08:24:32Z</time>
      </trkpt>
      <trkpt lat="45.89059" lon="4.74254">
        <ele>186</ele>
        <time>2018-06-03T08:24:33Z</time>
      </trkpt>
      <trkpt lat="45.89054" lon="4.74256">
        <ele>187</ele>
        <time>2018-06-03T08:24:34Z</time>
      </trkpt>
      <trkpt lat="45.89049" lon="4.74258">
        <ele>187</ele>
        <time>2018-06-03T08:24:35Z</time>
      </trkpt>
      <trkpt lat="45.89045" lon="4.7426">
        <ele>187</ele>
        <time>2018-06-03T08:24:36Z</time>
      </trkpt>
      <trkpt lat="45.89036" lon="4.74262">
        <ele>187</ele>
        <time>2018-06-03T08:24:38Z</time>
      </trkpt>
      <trkpt lat="45.89032" lon="4.74264">
        <ele>187</ele>
        <time>2018-06-03T08:24:39Z</time>
      </trkpt>
      <trkpt lat="45.89026" lon="4.74267">
        <ele>187</ele>
        <time>2018-06-03T08:24:40Z</time>
      </trkpt>
      <trkpt lat="45.89021" lon="4.7427">
        <ele>187</ele>
        <time>2018-06-03T08:24:41Z</time>
      </trkpt>
      <trkpt lat="45.89015" lon="4.74272">
        <ele>187</ele>
        <time>2018-06-03T08:24:42Z</time>
      </trkpt>
      <trkpt lat="45.89009" lon="4.74273">
        <ele>187</ele>
        <time>2018-06-03T08:24:43Z</time>
      </trkpt>
      <trkpt lat="45.89004" lon="4.74275">
        <ele>187</ele>
        <time>2018-06-03T08:24:44Z</time>
      </trkpt>
      <trkpt lat="45.88999" lon="4.74276">
        <ele>187</ele>
        <time>2018-06-03T08:24:45Z</time>
      </trkpt>
      <trkpt lat="45.88994" lon="4.74278">
        <ele>187</ele>
        <time>2018-06-03T08:24:46Z</time>
      </trkpt>
      <trkpt lat="45.88989" lon="4.7428">
        <ele>187</ele>
        <time>2018-06-03T08:24:47Z</time>
      </trkpt>
      <trkpt lat="45.88981" lon="4.74282">
        <ele>187</ele>
        <time>2018-06-03T08:24:49Z</time>
      </trkpt>
      <trkpt lat="45.88976" lon="4.74281">
        <ele>187</ele>
        <time>2018-06-03T08:24:50Z</time>
      </trkpt>
      <trkpt lat="45.88971" lon="4.74282">
        <ele>187</ele>
        <time>2018-06-03T08:24:51Z</time>
      </trkpt>
      <trkpt lat="45.88967" lon="4.74281">
        <ele>187</ele>
        <time>2018-06-03T08:24:52Z</time>
      </trkpt>
      <trkpt lat="45.88963" lon="4.74272">
        <ele>187</ele>
        <time>2018-06-03T08:24:54Z</time>
      </trkpt>
      <trkpt lat="45.88959" lon="4.74273">
        <ele>187</ele>
        <time>2018-06-03T08:24:55Z</time>
      </trkpt>
      <trkpt lat="45.8895" lon="4.74272">
        <ele>187</ele>
        <time>2018-06-03T08:24:57Z</time>
      </trkpt>
      <trkpt lat="45.88945" lon="4.74271">
        <ele>187</ele>
        <time>2018-06-03T08:24:58Z</time>
      </trkpt>
      <trkpt lat="45.88936" lon="4.74271">
        <ele>187</ele>
        <time>2018-06-03T08:24:59Z</time>
      </trkpt>
      <trkpt lat="45.88933" lon="4.74269">
        <ele>187</ele>
        <time>2018-06-03T08:25:00Z</time>
      </trkpt>
      <trkpt lat="45.88925" lon="4.74266">
        <ele>187</ele>
        <time>2018-06-03T08:25:02Z</time>
      </trkpt>
      <trkpt lat="45.8892" lon="4.74265">
        <ele>187</ele>
        <time>2018-06-03T08:25:03Z</time>
      </trkpt>
      <trkpt lat="45.88916" lon="4.74262">
        <ele>187</ele>
        <time>2018-06-03T08:25:04Z</time>
      </trkpt>
      <trkpt lat="45.88912" lon="4.74258">
        <ele>187</ele>
        <time>2018-06-03T08:25:05Z</time>
      </trkpt>
      <trkpt lat="45.88905" lon="4.74251">
        <ele>187</ele>
        <time>2018-06-03T08:25:07Z</time>
      </trkpt>
      <trkpt lat="45.88903" lon="4.74247">
        <ele>187</ele>
        <time>2018-06-03T08:25:08Z</time>
      </trkpt>
      <trkpt lat="45.889" lon="4.74242">
        <ele>187</ele>
        <time>2018-06-03T08:25:09Z</time>
      </trkpt>
      <trkpt lat="45.88895" lon="4.74239">
        <ele>187</ele>
        <time>2018-06-03T08:25:10Z</time>
      </trkpt>
      <trkpt lat="45.88891" lon="4.74236">
        <ele>187</ele>
        <time>2018-06-03T08:25:11Z</time>
      </trkpt>
      <trkpt lat="45.88883" lon="4.74233">
        <ele>187</ele>
        <time>2018-06-03T08:25:12Z</time>
      </trkpt>
      <trkpt lat="45.88879" lon="4.7423">
        <ele>187</ele>
        <time>2018-06-03T08:25:13Z</time>
      </trkpt>
      <trkpt lat="45.88873" lon="4.74226">
        <ele>187</ele>
        <time>2018-06-03T08:25:14Z</time>
      </trkpt>
      <trkpt lat="45.88868" lon="4.74222">
        <ele>187</ele>
        <time>2018-06-03T08:25:15Z</time>
      </trkpt>
      <trkpt lat="45.88863" lon="4.74217">
        <ele>187</ele>
        <time>2018-06-03T08:25:16Z</time>
      </trkpt>
      <trkpt lat="45.88856" lon="4.74216">
        <ele>187</ele>
        <time>2018-06-03T08:25:17Z</time>
      </trkpt>
      <trkpt lat="45.88852" lon="4.74213">
        <ele>187</ele>
        <time>2018-06-03T08:25:18Z</time>
      </trkpt>
      <trkpt lat="45.88846" lon="4.7421">
        <ele>187</ele>
        <time>2018-06-03T08:25:19Z</time>
      </trkpt>
      <trkpt lat="45.88841" lon="4.74208">
        <ele>187</ele>
        <time>2018-06-03T08:25:20Z</time>
      </trkpt>
      <trkpt lat="45.88836" lon="4.74204">
        <ele>187</ele>
        <time>2018-06-03T08:25:21Z</time>
      </trkpt>
      <trkpt lat="45.88832" lon="4.742">
        <ele>187</ele>
        <time>2018-06-03T08:25:22Z</time>
      </trkpt>
      <trkpt lat="45.88828" lon="4.74196">
        <ele>187</ele>
        <time>2018-06-03T08:25:23Z</time>
      </trkpt>
      <trkpt lat="45.88824" lon="4.74191">
        <ele>187</ele>
        <time>2018-06-03T08:25:24Z</time>
      </trkpt>
      <trkpt lat="45.88819" lon="4.74187">
        <ele>187</ele>
        <time>2018-06-03T08:25:25Z</time>
      </trkpt>
      <trkpt lat="45.88815" lon="4.74185">
        <ele>187</ele>
        <time>2018-06-03T08:25:26Z</time>
      </trkpt>
      <trkpt lat="45.88809" lon="4.74183">
        <ele>187</ele>
        <time>2018-06-03T08:25:27Z</time>
      </trkpt>
      <trkpt lat="45.88802" lon="4.74181">
        <ele>187</ele>
        <time>2018-06-03T08:25:28Z</time>
      </trkpt>
      <trkpt lat="45.88796" lon="4.74178">
        <ele>187</ele>
        <time>2018-06-03T08:25:29Z</time>
      </trkpt>
      <trkpt lat="45.88791" lon="4.74175">
        <ele>188</ele>
        <time>2018-06-03T08:25:30Z</time>
      </trkpt>
      <trkpt lat="45.88784" lon="4.74175">
        <ele>188</ele>
        <time>2018-06-03T08:25:31Z</time>
      </trkpt>
      <trkpt lat="45.88778" lon="4.74174">
        <ele>188</ele>
        <time>2018-06-03T08:25:32Z</time>
      </trkpt>
      <trkpt lat="45.88775" lon="4.74173">
        <ele>188</ele>
        <time>2018-06-03T08:25:33Z</time>
      </trkpt>
      <trkpt lat="45.88769" lon="4.7417">
        <ele>188</ele>
        <time>2018-06-03T08:25:34Z</time>
      </trkpt>
      <trkpt lat="45.88763" lon="4.74165">
        <ele>187</ele>
        <time>2018-06-03T08:25:35Z</time>
      </trkpt>
      <trkpt lat="45.8876" lon="4.74161">
        <ele>187</ele>
        <time>2018-06-03T08:25:36Z</time>
      </trkpt>
      <trkpt lat="45.88756" lon="4.74156">
        <ele>187</ele>
        <time>2018-06-03T08:25:37Z</time>
      </trkpt>
      <trkpt lat="45.88752" lon="4.74152">
        <ele>187</ele>
        <time>2018-06-03T08:25:38Z</time>
      </trkpt>
      <trkpt lat="45.88748" lon="4.7415">
        <ele>188</ele>
        <time>2018-06-03T08:25:39Z</time>
      </trkpt>
      <trkpt lat="45.88743" lon="4.74147">
        <ele>188</ele>
        <time>2018-06-03T08:25:40Z</time>
      </trkpt>
      <trkpt lat="45.88737" lon="4.74144">
        <ele>188</ele>
        <time>2018-06-03T08:25:41Z</time>
      </trkpt>
      <trkpt lat="45.88733" lon="4.7414">
        <ele>188</ele>
        <time>2018-06-03T08:25:42Z</time>
      </trkpt>
      <trkpt lat="45.88728" lon="4.74136">
        <ele>188</ele>
        <time>2018-06-03T08:25:43Z</time>
      </trkpt>
      <trkpt lat="45.88724" lon="4.74132">
        <ele>188</ele>
        <time>2018-06-03T08:25:44Z</time>
      </trkpt>
      <trkpt lat="45.88719" lon="4.74127">
        <ele>188</ele>
        <time>2018-06-03T08:25:45Z</time>
      </trkpt>
      <trkpt lat="45.88715" lon="4.74122">
        <ele>188</ele>
        <time>2018-06-03T08:25:46Z</time>
      </trkpt>
      <trkpt lat="45.8871" lon="4.74117">
        <ele>188</ele>
        <time>2018-06-03T08:25:47Z</time>
      </trkpt>
      <trkpt lat="45.88705" lon="4.74115">
        <ele>188</ele>
        <time>2018-06-03T08:25:48Z</time>
      </trkpt>
      <trkpt lat="45.88697" lon="4.74115">
        <ele>188</ele>
        <time>2018-06-03T08:25:49Z</time>
      </trkpt>
      <trkpt lat="45.88692" lon="4.74114">
        <ele>188</ele>
        <time>2018-06-03T08:25:50Z</time>
      </trkpt>
      <trkpt lat="45.88687" lon="4.74115">
        <ele>188</ele>
        <time>2018-06-03T08:25:51Z</time>
      </trkpt>
      <trkpt lat="45.88682" lon="4.74114">
        <ele>188</ele>
        <time>2018-06-03T08:25:52Z</time>
      </trkpt>
      <trkpt lat="45.88678" lon="4.74111">
        <ele>188</ele>
        <time>2018-06-03T08:25:53Z</time>
      </trkpt>
      <trkpt lat="45.88674" lon="4.74105">
        <ele>188</ele>
        <time>2018-06-03T08:25:54Z</time>
      </trkpt>
      <trkpt lat="45.88672" lon="4.74099">
        <ele>188</ele>
        <time>2018-06-03T08:25:55Z</time>
      </trkpt>
      <trkpt lat="45.8867" lon="4.74092">
        <ele>188</ele>
        <time>2018-06-03T08:25:56Z</time>
      </trkpt>
      <trkpt lat="45.88668" lon="4.74084">
        <ele>188</ele>
        <time>2018-06-03T08:25:57Z</time>
      </trkpt>
      <trkpt lat="45.88666" lon="4.74077">
        <ele>188</ele>
        <time>2018-06-03T08:25:58Z</time>
      </trkpt>
      <trkpt lat="45.88663" lon="4.74069">
        <ele>188</ele>
        <time>2018-06-03T08:25:59Z</time>
      </trkpt>
      <trkpt lat="45.88661" lon="4.74062">
        <ele>187</ele>
        <time>2018-06-03T08:26:00Z</time>
      </trkpt>
      <trkpt lat="45.88659" lon="4.74053">
        <ele>187</ele>
        <time>2018-06-03T08:26:01Z</time>
      </trkpt>
      <trkpt lat="45.88658" lon="4.74044">
        <ele>187</ele>
        <time>2018-06-03T08:26:02Z</time>
      </trkpt>
      <trkpt lat="45.88657" lon="4.74035">
        <ele>187</ele>
        <time>2018-06-03T08:26:03Z</time>
      </trkpt>
      <trkpt lat="45.88655" lon="4.74026">
        <ele>187</ele>
        <time>2018-06-03T08:26:04Z</time>
      </trkpt>
      <trkpt lat="45.88653" lon="4.74018">
        <ele>187</ele>
        <time>2018-06-03T08:26:05Z</time>
      </trkpt>
      <trkpt lat="45.88653" lon="4.74009">
        <ele>187</ele>
        <time>2018-06-03T08:26:06Z</time>
      </trkpt>
      <trkpt lat="45.88652" lon="4.74">
        <ele>187</ele>
        <time>2018-06-03T08:26:07Z</time>
      </trkpt>
      <trkpt lat="45.8865" lon="4.73991">
        <ele>186</ele>
        <time>2018-06-03T08:26:08Z</time>
      </trkpt>
      <trkpt lat="45.88649" lon="4.73984">
        <ele>187</ele>
        <time>2018-06-03T08:26:09Z</time>
      </trkpt>
      <trkpt lat="45.88648" lon="4.73975">
        <ele>187</ele>
        <time>2018-06-03T08:26:10Z</time>
      </trkpt>
      <trkpt lat="45.88646" lon="4.73967">
        <ele>187</ele>
        <time>2018-06-03T08:26:11Z</time>
      </trkpt>
      <trkpt lat="45.88645" lon="4.73958">
        <ele>187</ele>
        <time>2018-06-03T08:26:12Z</time>
      </trkpt>
      <trkpt lat="45.88644" lon="4.73951">
        <ele>187</ele>
        <time>2018-06-03T08:26:13Z</time>
      </trkpt>
      <trkpt lat="45.88644" lon="4.73942">
        <ele>187</ele>
        <time>2018-06-03T08:26:14Z</time>
      </trkpt>
      <trkpt lat="45.88642" lon="4.73934">
        <ele>187</ele>
        <time>2018-06-03T08:26:15Z</time>
      </trkpt>
      <trkpt lat="45.88643" lon="4.73924">
        <ele>187</ele>
        <time>2018-06-03T08:26:16Z</time>
      </trkpt>
      <trkpt lat="45.88641" lon="4.73914">
        <ele>187</ele>
        <time>2018-06-03T08:26:17Z</time>
      </trkpt>
      <trkpt lat="45.88642" lon="4.73905">
        <ele>187</ele>
        <time>2018-06-03T08:26:18Z</time>
      </trkpt>
      <trkpt lat="45.88642" lon="4.73896">
        <ele>187</ele>
        <time>2018-06-03T08:26:19Z</time>
      </trkpt>
      <trkpt lat="45.88642" lon="4.73885">
        <ele>187</ele>
        <time>2018-06-03T08:26:20Z</time>
      </trkpt>
      <trkpt lat="45.88643" lon="4.73878">
        <ele>187</ele>
        <time>2018-06-03T08:26:21Z</time>
      </trkpt>
      <trkpt lat="45.88643" lon="4.73869">
        <ele>187</ele>
        <time>2018-06-03T08:26:22Z</time>
      </trkpt>
      <trkpt lat="45.88642" lon="4.73859">
        <ele>187</ele>
        <time>2018-06-03T08:26:23Z</time>
      </trkpt>
      <trkpt lat="45.88641" lon="4.7385">
        <ele>187</ele>
        <time>2018-06-03T08:26:24Z</time>
      </trkpt>
      <trkpt lat="45.88641" lon="4.73842">
        <ele>187</ele>
        <time>2018-06-03T08:26:25Z</time>
      </trkpt>
      <trkpt lat="45.88642" lon="4.73834">
        <ele>187</ele>
        <time>2018-06-03T08:26:26Z</time>
      </trkpt>
      <trkpt lat="45.88641" lon="4.73825">
        <ele>187</ele>
        <time>2018-06-03T08:26:27Z</time>
      </trkpt>
      <trkpt lat="45.88642" lon="4.73816">
        <ele>187</ele>
        <time>2018-06-03T08:26:28Z</time>
      </trkpt>
      <trkpt lat="45.88642" lon="4.73808">
        <ele>187</ele>
        <time>2018-06-03T08:26:29Z</time>
      </trkpt>
      <trkpt lat="45.88642" lon="4.738">
        <ele>187</ele>
        <time>2018-06-03T08:26:30Z</time>
      </trkpt>
      <trkpt lat="45.88643" lon="4.73792">
        <ele>187</ele>
        <time>2018-06-03T08:26:31Z</time>
      </trkpt>
      <trkpt lat="45.88643" lon="4.73785">
        <ele>187</ele>
        <time>2018-06-03T08:26:32Z</time>
      </trkpt>
      <trkpt lat="45.88644" lon="4.73778">
        <ele>187</ele>
        <time>2018-06-03T08:26:33Z</time>
      </trkpt>
      <trkpt lat="45.88644" lon="4.7377">
        <ele>187</ele>
        <time>2018-06-03T08:26:34Z</time>
      </trkpt>
      <trkpt lat="45.88644" lon="4.73763">
        <ele>187</ele>
        <time>2018-06-03T08:26:35Z</time>
      </trkpt>
      <trkpt lat="45.88644" lon="4.73755">
        <ele>187</ele>
        <time>2018-06-03T08:26:36Z</time>
      </trkpt>
      <trkpt lat="45.88645" lon="4.73743">
        <ele>187</ele>
        <time>2018-06-03T08:26:38Z</time>
      </trkpt>
      <trkpt lat="45.88645" lon="4.73736">
        <ele>186</ele>
        <time>2018-06-03T08:26:39Z</time>
      </trkpt>
      <trkpt lat="45.88645" lon="4.73727">
        <ele>186</ele>
        <time>2018-06-03T08:26:40Z</time>
      </trkpt>
      <trkpt lat="45.88645" lon="4.7372">
        <ele>186</ele>
        <time>2018-06-03T08:26:41Z</time>
      </trkpt>
      <trkpt lat="45.88644" lon="4.73712">
        <ele>186</ele>
        <time>2018-06-03T08:26:42Z</time>
      </trkpt>
      <trkpt lat="45.88644" lon="4.73704">
        <ele>186</ele>
        <time>2018-06-03T08:26:43Z</time>
      </trkpt>
      <trkpt lat="45.88645" lon="4.73694">
        <ele>186</ele>
        <time>2018-06-03T08:26:45Z</time>
      </trkpt>
      <trkpt lat="45.88645" lon="4.73687">
        <ele>186</ele>
        <time>2018-06-03T08:26:46Z</time>
      </trkpt>
      <trkpt lat="45.88646" lon="4.73674">
        <ele>186</ele>
        <time>2018-06-03T08:26:48Z</time>
      </trkpt>
      <trkpt lat="45.88648" lon="4.73669">
        <ele>186</ele>
        <time>2018-06-03T08:26:49Z</time>
      </trkpt>
      <trkpt lat="45.88648" lon="4.73663">
        <ele>186</ele>
        <time>2018-06-03T08:26:50Z</time>
      </trkpt>
      <trkpt lat="45.88649" lon="4.73655">
        <ele>186</ele>
        <time>2018-06-03T08:26:51Z</time>
      </trkpt>
      <trkpt lat="45.88649" lon="4.73648">
        <ele>186</ele>
        <time>2018-06-03T08:26:52Z</time>
      </trkpt>
      <trkpt lat="45.88649" lon="4.7364">
        <ele>186</ele>
        <time>2018-06-03T08:26:53Z</time>
      </trkpt>
      <trkpt lat="45.88648" lon="4.7363">
        <ele>186</ele>
        <time>2018-06-03T08:26:54Z</time>
      </trkpt>
      <trkpt lat="45.88647" lon="4.73622">
        <ele>186</ele>
        <time>2018-06-03T08:26:55Z</time>
      </trkpt>
      <trkpt lat="45.88647" lon="4.73614">
        <ele>186</ele>
        <time>2018-06-03T08:26:56Z</time>
      </trkpt>
      <trkpt lat="45.88647" lon="4.73606">
        <ele>186</ele>
        <time>2018-06-03T08:26:57Z</time>
      </trkpt>
      <trkpt lat="45.88647" lon="4.73598">
        <ele>185</ele>
        <time>2018-06-03T08:26:58Z</time>
      </trkpt>
      <trkpt lat="45.88647" lon="4.73589">
        <ele>185</ele>
        <time>2018-06-03T08:26:59Z</time>
      </trkpt>
      <trkpt lat="45.88647" lon="4.7358">
        <ele>185</ele>
        <time>2018-06-03T08:27:00Z</time>
      </trkpt>
      <trkpt lat="45.88647" lon="4.73569">
        <ele>185</ele>
        <time>2018-06-03T08:27:01Z</time>
      </trkpt>
      <trkpt lat="45.88647" lon="4.73559">
        <ele>185</ele>
        <time>2018-06-03T08:27:02Z</time>
      </trkpt>
      <trkpt lat="45.88648" lon="4.7355">
        <ele>185</ele>
        <time>2018-06-03T08:27:03Z</time>
      </trkpt>
      <trkpt lat="45.88649" lon="4.7354">
        <ele>185</ele>
        <time>2018-06-03T08:27:04Z</time>
      </trkpt>
      <trkpt lat="45.8865" lon="4.7353">
        <ele>185</ele>
        <time>2018-06-03T08:27:05Z</time>
      </trkpt>
      <trkpt lat="45.8865" lon="4.73523">
        <ele>185</ele>
        <time>2018-06-03T08:27:06Z</time>
      </trkpt>
      <trkpt lat="45.88652" lon="4.73513">
        <ele>185</ele>
        <time>2018-06-03T08:27:07Z</time>
      </trkpt>
      <trkpt lat="45.88654" lon="4.73504">
        <ele>184</ele>
        <time>2018-06-03T08:27:08Z</time>
      </trkpt>
      <trkpt lat="45.88654" lon="4.73496">
        <ele>184</ele>
        <time>2018-06-03T08:27:09Z</time>
      </trkpt>
      <trkpt lat="45.88654" lon="4.73489">
        <ele>184</ele>
        <time>2018-06-03T08:27:10Z</time>
      </trkpt>
      <trkpt lat="45.88653" lon="4.73482">
        <ele>184</ele>
        <time>2018-06-03T08:27:11Z</time>
      </trkpt>
      <trkpt lat="45.8865" lon="4.73477">
        <ele>184</ele>
        <time>2018-06-03T08:27:12Z</time>
      </trkpt>
      <trkpt lat="45.88646" lon="4.73474">
        <ele>184</ele>
        <time>2018-06-03T08:27:13Z</time>
      </trkpt>
      <trkpt lat="45.88641" lon="4.73472">
        <ele>184</ele>
        <time>2018-06-03T08:27:14Z</time>
      </trkpt>
      <trkpt lat="45.88637" lon="4.73469">
        <ele>184</ele>
        <time>2018-06-03T08:27:15Z</time>
      </trkpt>
      <trkpt lat="45.88633" lon="4.73458">
        <ele>184</ele>
        <time>2018-06-03T08:27:17Z</time>
      </trkpt>
      <trkpt lat="45.88633" lon="4.7345">
        <ele>184</ele>
        <time>2018-06-03T08:27:18Z</time>
      </trkpt>
      <trkpt lat="45.88634" lon="4.73439">
        <ele>184</ele>
        <time>2018-06-03T08:27:20Z</time>
      </trkpt>
      <trkpt lat="45.88634" lon="4.73431">
        <ele>184</ele>
        <time>2018-06-03T08:27:21Z</time>
      </trkpt>
      <trkpt lat="45.88635" lon="4.73422">
        <ele>184</ele>
        <time>2018-06-03T08:27:22Z</time>
      </trkpt>
      <trkpt lat="45.88635" lon="4.73416">
        <ele>183</ele>
        <time>2018-06-03T08:27:23Z</time>
      </trkpt>
      <trkpt lat="45.88634" lon="4.73407">
        <ele>183</ele>
        <time>2018-06-03T08:27:24Z</time>
      </trkpt>
      <trkpt lat="45.88632" lon="4.73401">
        <ele>183</ele>
        <time>2018-06-03T08:27:25Z</time>
      </trkpt>
      <trkpt lat="45.88628" lon="4.73393">
        <ele>183</ele>
        <time>2018-06-03T08:27:26Z</time>
      </trkpt>
      <trkpt lat="45.88623" lon="4.73389">
        <ele>183</ele>
        <time>2018-06-03T08:27:27Z</time>
      </trkpt>
      <trkpt lat="45.88618" lon="4.73387">
        <ele>183</ele>
        <time>2018-06-03T08:27:28Z</time>
      </trkpt>
      <trkpt lat="45.88612" lon="4.73386">
        <ele>183</ele>
        <time>2018-06-03T08:27:29Z</time>
      </trkpt>
      <trkpt lat="45.88603" lon="4.73384">
        <ele>183</ele>
        <time>2018-06-03T08:27:31Z</time>
      </trkpt>
      <trkpt lat="45.886" lon="4.73384">
        <ele>183</ele>
        <time>2018-06-03T08:27:32Z</time>
      </trkpt>
      <trkpt lat="45.88595" lon="4.73385">
        <ele>183</ele>
        <time>2018-06-03T08:27:33Z</time>
      </trkpt>
      <trkpt lat="45.88589" lon="4.73385">
        <ele>183</ele>
        <time>2018-06-03T08:27:34Z</time>
      </trkpt>
      <trkpt lat="45.88581" lon="4.7339">
        <ele>183</ele>
        <time>2018-06-03T08:27:36Z</time>
      </trkpt>
      <trkpt lat="45.88576" lon="4.73391">
        <ele>183</ele>
        <time>2018-06-03T08:27:37Z</time>
      </trkpt>
      <trkpt lat="45.88569" lon="4.73393">
        <ele>183</ele>
        <time>2018-06-03T08:27:38Z</time>
      </trkpt>
      <trkpt lat="45.88563" lon="4.73395">
        <ele>183</ele>
        <time>2018-06-03T08:27:39Z</time>
      </trkpt>
      <trkpt lat="45.88556" lon="4.73397">
        <ele>183</ele>
        <time>2018-06-03T08:27:40Z</time>
      </trkpt>
      <trkpt lat="45.88551" lon="4.73399">
        <ele>183</ele>
        <time>2018-06-03T08:27:41Z</time>
      </trkpt>
      <trkpt lat="45.88545" lon="4.73401">
        <ele>183</ele>
        <time>2018-06-03T08:27:42Z</time>
      </trkpt>
      <trkpt lat="45.88539" lon="4.73403">
        <ele>183</ele>
        <time>2018-06-03T08:27:43Z</time>
      </trkpt>
      <trkpt lat="45.88534" lon="4.73404">
        <ele>183</ele>
        <time>2018-06-03T08:27:44Z</time>
      </trkpt>
      <trkpt lat="45.88528" lon="4.73406">
        <ele>183</ele>
        <time>2018-06-03T08:27:45Z</time>
      </trkpt>
      <trkpt lat="45.88524" lon="4.73407">
        <ele>183</ele>
        <time>2018-06-03T08:27:46Z</time>
      </trkpt>
      <trkpt lat="45.88518" lon="4.73408">
        <ele>184</ele>
        <time>2018-06-03T08:27:47Z</time>
      </trkpt>
      <trkpt lat="45.88513" lon="4.73409">
        <ele>184</ele>
        <time>2018-06-03T08:27:48Z</time>
      </trkpt>
      <trkpt lat="45.88508" lon="4.73412">
        <ele>184</ele>
        <time>2018-06-03T08:27:49Z</time>
      </trkpt>
      <trkpt lat="45.88503" lon="4.73414">
        <ele>184</ele>
        <time>2018-06-03T08:27:50Z</time>
      </trkpt>
      <trkpt lat="45.88499" lon="4.73415">
        <ele>184</ele>
        <time>2018-06-03T08:27:51Z</time>
      </trkpt>
      <trkpt lat="45.88493" lon="4.73416">
        <ele>184</ele>
        <time>2018-06-03T08:27:52Z</time>
      </trkpt>
      <trkpt lat="45.88487" lon="4.73417">
        <ele>184</ele>
        <time>2018-06-03T08:27:53Z</time>
      </trkpt>
      <trkpt lat="45.88481" lon="4.73421">
        <ele>184</ele>
        <time>2018-06-03T08:27:54Z</time>
      </trkpt>
      <trkpt lat="45.88475" lon="4.73423">
        <ele>184</ele>
        <time>2018-06-03T08:27:55Z</time>
      </trkpt>
      <trkpt lat="45.8847" lon="4.73424">
        <ele>184</ele>
        <time>2018-06-03T08:27:56Z</time>
      </trkpt>
      <trkpt lat="45.88464" lon="4.73428">
        <ele>184</ele>
        <time>2018-06-03T08:27:57Z</time>
      </trkpt>
      <trkpt lat="45.88458" lon="4.73429">
        <ele>184</ele>
        <time>2018-06-03T08:27:58Z</time>
      </trkpt>
      <trkpt lat="45.88452" lon="4.73431">
        <ele>184</ele>
        <time>2018-06-03T08:27:59Z</time>
      </trkpt>
      <trkpt lat="45.88447" lon="4.73433">
        <ele>184</ele>
        <time>2018-06-03T08:28:00Z</time>
      </trkpt>
      <trkpt lat="45.88442" lon="4.73433">
        <ele>184</ele>
        <time>2018-06-03T08:28:01Z</time>
      </trkpt>
      <trkpt lat="45.88437" lon="4.73436">
        <ele>184</ele>
        <time>2018-06-03T08:28:02Z</time>
      </trkpt>
      <trkpt lat="45.88431" lon="4.73438">
        <ele>184</ele>
        <time>2018-06-03T08:28:03Z</time>
      </trkpt>
      <trkpt lat="45.88425" lon="4.7344">
        <ele>184</ele>
        <time>2018-06-03T08:28:04Z</time>
      </trkpt>
      <trkpt lat="45.88419" lon="4.73441">
        <ele>184</ele>
        <time>2018-06-03T08:28:05Z</time>
      </trkpt>
      <trkpt lat="45.88414" lon="4.73443">
        <ele>184</ele>
        <time>2018-06-03T08:28:06Z</time>
      </trkpt>
      <trkpt lat="45.88408" lon="4.73445">
        <ele>184</ele>
        <time>2018-06-03T08:28:07Z</time>
      </trkpt>
      <trkpt lat="45.88404" lon="4.73446">
        <ele>184</ele>
        <time>2018-06-03T08:28:08Z</time>
      </trkpt>
      <trkpt lat="45.88399" lon="4.73446">
        <ele>184</ele>
        <time>2018-06-03T08:28:09Z</time>
      </trkpt>
      <trkpt lat="45.88395" lon="4.73447">
        <ele>184</ele>
        <time>2018-06-03T08:28:10Z</time>
      </trkpt>
      <trkpt lat="45.8839" lon="4.73448">
        <ele>184</ele>
        <time>2018-06-03T08:28:11Z</time>
      </trkpt>
      <trkpt lat="45.88384" lon="4.73449">
        <ele>184</ele>
        <time>2018-06-03T08:28:12Z</time>
      </trkpt>
      <trkpt lat="45.88379" lon="4.73449">
        <ele>184</ele>
        <time>2018-06-03T08:28:13Z</time>
      </trkpt>
      <trkpt lat="45.88374" lon="4.73451">
        <ele>184</ele>
        <time>2018-06-03T08:28:14Z</time>
      </trkpt>
      <trkpt lat="45.88369" lon="4.73453">
        <ele>184</ele>
        <time>2018-06-03T08:28:15Z</time>
      </trkpt>
      <trkpt lat="45.88364" lon="4.73455">
        <ele>184</ele>
        <time>2018-06-03T08:28:16Z</time>
      </trkpt>
      <trkpt lat="45.88358" lon="4.73458">
        <ele>184</ele>
        <time>2018-06-03T08:28:17Z</time>
      </trkpt>
      <trkpt lat="45.88352" lon="4.7346">
        <ele>184</ele>
        <time>2018-06-03T08:28:18Z</time>
      </trkpt>
      <trkpt lat="45.88347" lon="4.73461">
        <ele>184</ele>
        <time>2018-06-03T08:28:19Z</time>
      </trkpt>
      <trkpt lat="45.88342" lon="4.73463">
        <ele>184</ele>
        <time>2018-06-03T08:28:20Z</time>
      </trkpt>
      <trkpt lat="45.88337" lon="4.73464">
        <ele>184</ele>
        <time>2018-06-03T08:28:21Z</time>
      </trkpt>
      <trkpt lat="45.88332" lon="4.73466">
        <ele>184</ele>
        <time>2018-06-03T08:28:22Z</time>
      </trkpt>
      <trkpt lat="45.88327" lon="4.73467">
        <ele>184</ele>
        <time>2018-06-03T08:28:23Z</time>
      </trkpt>
      <trkpt lat="45.88322" lon="4.73469">
        <ele>184</ele>
        <time>2018-06-03T08:28:24Z</time>
      </trkpt>
      <trkpt lat="45.88313" lon="4.7347">
        <ele>184</ele>
        <time>2018-06-03T08:28:25Z</time>
      </trkpt>
      <trkpt lat="45.88308" lon="4.73473">
        <ele>184</ele>
        <time>2018-06-03T08:28:26Z</time>
      </trkpt>
      <trkpt lat="45.88303" lon="4.73474">
        <ele>184</ele>
        <time>2018-06-03T08:28:27Z</time>
      </trkpt>
      <trkpt lat="45.88299" lon="4.73476">
        <ele>184</ele>
        <time>2018-06-03T08:28:28Z</time>
      </trkpt>
      <trkpt lat="45.88294" lon="4.73479">
        <ele>184</ele>
        <time>2018-06-03T08:28:29Z</time>
      </trkpt>
      <trkpt lat="45.88288" lon="4.73483">
        <ele>184</ele>
        <time>2018-06-03T08:28:30Z</time>
      </trkpt>
      <trkpt lat="45.88284" lon="4.73486">
        <ele>184</ele>
        <time>2018-06-03T08:28:31Z</time>
      </trkpt>
      <trkpt lat="45.88279" lon="4.73489">
        <ele>184</ele>
        <time>2018-06-03T08:28:32Z</time>
      </trkpt>
      <trkpt lat="45.88274" lon="4.73493">
        <ele>184</ele>
        <time>2018-06-03T08:28:33Z</time>
      </trkpt>
      <trkpt lat="45.8827" lon="4.73496">
        <ele>184</ele>
        <time>2018-06-03T08:28:34Z</time>
      </trkpt>
      <trkpt lat="45.88264" lon="4.735">
        <ele>185</ele>
        <time>2018-06-03T08:28:35Z</time>
      </trkpt>
      <trkpt lat="45.8826" lon="4.73504">
        <ele>185</ele>
        <time>2018-06-03T08:28:36Z</time>
      </trkpt>
      <trkpt lat="45.88255" lon="4.73508">
        <ele>185</ele>
        <time>2018-06-03T08:28:37Z</time>
      </trkpt>
      <trkpt lat="45.8825" lon="4.73509">
        <ele>185</ele>
        <time>2018-06-03T08:28:38Z</time>
      </trkpt>
      <trkpt lat="45.88246" lon="4.73511">
        <ele>185</ele>
        <time>2018-06-03T08:28:39Z</time>
      </trkpt>
      <trkpt lat="45.8824" lon="4.73514">
        <ele>185</ele>
        <time>2018-06-03T08:28:40Z</time>
      </trkpt>
      <trkpt lat="45.88235" lon="4.73517">
        <ele>185</ele>
        <time>2018-06-03T08:28:41Z</time>
      </trkpt>
      <trkpt lat="45.8823" lon="4.73521">
        <ele>185</ele>
        <time>2018-06-03T08:28:42Z</time>
      </trkpt>
      <trkpt lat="45.88225" lon="4.73524">
        <ele>185</ele>
        <time>2018-06-03T08:28:43Z</time>
      </trkpt>
      <trkpt lat="45.88221" lon="4.73525">
        <ele>185</ele>
        <time>2018-06-03T08:28:44Z</time>
      </trkpt>
      <trkpt lat="45.88217" lon="4.73528">
        <ele>185</ele>
        <time>2018-06-03T08:28:45Z</time>
      </trkpt>
      <trkpt lat="45.88212" lon="4.73532">
        <ele>185</ele>
        <time>2018-06-03T08:28:46Z</time>
      </trkpt>
      <trkpt lat="45.88208" lon="4.73536">
        <ele>186</ele>
        <time>2018-06-03T08:28:47Z</time>
      </trkpt>
      <trkpt lat="45.88203" lon="4.73539">
        <ele>186</ele>
        <time>2018-06-03T08:28:48Z</time>
      </trkpt>
      <trkpt lat="45.88198" lon="4.73541">
        <ele>186</ele>
        <time>2018-06-03T08:28:49Z</time>
      </trkpt>
      <trkpt lat="45.88194" lon="4.73545">
        <ele>186</ele>
        <time>2018-06-03T08:28:50Z</time>
      </trkpt>
      <trkpt lat="45.88189" lon="4.73548">
        <ele>186</ele>
        <time>2018-06-03T08:28:51Z</time>
      </trkpt>
      <trkpt lat="45.88184" lon="4.73551">
        <ele>186</ele>
        <time>2018-06-03T08:28:52Z</time>
      </trkpt>
      <trkpt lat="45.88178" lon="4.73554">
        <ele>186</ele>
        <time>2018-06-03T08:28:53Z</time>
      </trkpt>
      <trkpt lat="45.88173" lon="4.73559">
        <ele>186</ele>
        <time>2018-06-03T08:28:54Z</time>
      </trkpt>
      <trkpt lat="45.88167" lon="4.73561">
        <ele>186</ele>
        <time>2018-06-03T08:28:55Z</time>
      </trkpt>
      <trkpt lat="45.88163" lon="4.73565">
        <ele>186</ele>
        <time>2018-06-03T08:28:56Z</time>
      </trkpt>
      <trkpt lat="45.88159" lon="4.73569">
        <ele>186</ele>
        <time>2018-06-03T08:28:57Z</time>
      </trkpt>
      <trkpt lat="45.88154" lon="4.73571">
        <ele>186</ele>
        <time>2018-06-03T08:28:58Z</time>
      </trkpt>
      <trkpt lat="45.88149" lon="4.73574">
        <ele>186</ele>
        <time>2018-06-03T08:28:59Z</time>
      </trkpt>
      <trkpt lat="45.88145" lon="4.73578">
        <ele>186</ele>
        <time>2018-06-03T08:29:00Z</time>
      </trkpt>
      <trkpt lat="45.88141" lon="4.73581">
        <ele>186</ele>
        <time>2018-06-03T08:29:01Z</time>
      </trkpt>
      <trkpt lat="45.88135" lon="4.73584">
        <ele>187</ele>
        <time>2018-06-03T08:29:02Z</time>
      </trkpt>
      <trkpt lat="45.88131" lon="4.73587">
        <ele>187</ele>
        <time>2018-06-03T08:29:03Z</time>
      </trkpt>
      <trkpt lat="45.88126" lon="4.73589">
        <ele>187</ele>
        <time>2018-06-03T08:29:04Z</time>
      </trkpt>
      <trkpt lat="45.88122" lon="4.73592">
        <ele>187</ele>
        <time>2018-06-03T08:29:05Z</time>
      </trkpt>
      <trkpt lat="45.88117" lon="4.73595">
        <ele>187</ele>
        <time>2018-06-03T08:29:06Z</time>
      </trkpt>
      <trkpt lat="45.88112" lon="4.73598">
        <ele>187</ele>
        <time>2018-06-03T08:29:07Z</time>
      </trkpt>
      <trkpt lat="45.88107" lon="4.73602">
        <ele>188</ele>
        <time>2018-06-03T08:29:08Z</time>
      </trkpt>
      <trkpt lat="45.88103" lon="4.73605">
        <ele>188</ele>
        <time>2018-06-03T08:29:09Z</time>
      </trkpt>
      <trkpt lat="45.88099" lon="4.7361">
        <ele>188</ele>
        <time>2018-06-03T08:29:10Z</time>
      </trkpt>
      <trkpt lat="45.88096" lon="4.73616">
        <ele>188</ele>
        <time>2018-06-03T08:29:11Z</time>
      </trkpt>
      <trkpt lat="45.88091" lon="4.73619">
        <ele>188</ele>
        <time>2018-06-03T08:29:12Z</time>
      </trkpt>
      <trkpt lat="45.88087" lon="4.73621">
        <ele>188</ele>
        <time>2018-06-03T08:29:13Z</time>
      </trkpt>
      <trkpt lat="45.88081" lon="4.73625">
        <ele>189</ele>
        <time>2018-06-03T08:29:14Z</time>
      </trkpt>
      <trkpt lat="45.88077" lon="4.73628">
        <ele>189</ele>
        <time>2018-06-03T08:29:15Z</time>
      </trkpt>
      <trkpt lat="45.88073" lon="4.73631">
        <ele>189</ele>
        <time>2018-06-03T08:29:16Z</time>
      </trkpt>
      <trkpt lat="45.88068" lon="4.73633">
        <ele>189</ele>
        <time>2018-06-03T08:29:17Z</time>
      </trkpt>
      <trkpt lat="45.88062" lon="4.73636">
        <ele>189</ele>
        <time>2018-06-03T08:29:18Z</time>
      </trkpt>
      <trkpt lat="45.88057" lon="4.73638">
        <ele>189</ele>
        <time>2018-06-03T08:29:19Z</time>
      </trkpt>
      <trkpt lat="45.88053" lon="4.73641">
        <ele>189</ele>
        <time>2018-06-03T08:29:20Z</time>
      </trkpt>
      <trkpt lat="45.88049" lon="4.73644">
        <ele>189</ele>
        <time>2018-06-03T08:29:21Z</time>
      </trkpt>
      <trkpt lat="45.88044" lon="4.7365">
        <ele>189</ele>
        <time>2018-06-03T08:29:22Z</time>
      </trkpt>
      <trkpt lat="45.88039" lon="4.73653">
        <ele>189</ele>
        <time>2018-06-03T08:29:23Z</time>
      </trkpt>
      <trkpt lat="45.88034" lon="4.73658">
        <ele>189</ele>
        <time>2018-06-03T08:29:24Z</time>
      </trkpt>
      <trkpt lat="45.88028" lon="4.7366">
        <ele>189</ele>
        <time>2018-06-03T08:29:25Z</time>
      </trkpt>
      <trkpt lat="45.88022" lon="4.73663">
        <ele>189</ele>
        <time>2018-06-03T08:29:26Z</time>
      </trkpt>
      <trkpt lat="45.88017" lon="4.73663">
        <ele>189</ele>
        <time>2018-06-03T08:29:27Z</time>
      </trkpt>
      <trkpt lat="45.88011" lon="4.73661">
        <ele>190</ele>
        <time>2018-06-03T08:29:28Z</time>
      </trkpt>
      <trkpt lat="45.88005" lon="4.7366">
        <ele>190</ele>
        <time>2018-06-03T08:29:29Z</time>
      </trkpt>
      <trkpt lat="45.88" lon="4.73658">
        <ele>190</ele>
        <time>2018-06-03T08:29:30Z</time>
      </trkpt>
      <trkpt lat="45.87994" lon="4.73656">
        <ele>190</ele>
        <time>2018-06-03T08:29:31Z</time>
      </trkpt>
      <trkpt lat="45.87988" lon="4.73654">
        <ele>190</ele>
        <time>2018-06-03T08:29:32Z</time>
      </trkpt>
      <trkpt lat="45.87983" lon="4.73652">
        <ele>190</ele>
        <time>2018-06-03T08:29:33Z</time>
      </trkpt>
      <trkpt lat="45.87978" lon="4.7365">
        <ele>190</ele>
        <time>2018-06-03T08:29:34Z</time>
      </trkpt>
      <trkpt lat="45.87972" lon="4.73648">
        <ele>190</ele>
        <time>2018-06-03T08:29:35Z</time>
      </trkpt>
      <trkpt lat="45.87965" lon="4.73647">
        <ele>190</ele>
        <time>2018-06-03T08:29:36Z</time>
      </trkpt>
      <trkpt lat="45.8796" lon="4.73645">
        <ele>190</ele>
        <time>2018-06-03T08:29:37Z</time>
      </trkpt>
      <trkpt lat="45.87953" lon="4.73643">
        <ele>190</ele>
        <time>2018-06-03T08:29:38Z</time>
      </trkpt>
      <trkpt lat="45.87945" lon="4.73643">
        <ele>190</ele>
        <time>2018-06-03T08:29:39Z</time>
      </trkpt>
      <trkpt lat="45.87939" lon="4.73643">
        <ele>190</ele>
        <time>2018-06-03T08:29:40Z</time>
      </trkpt>
      <trkpt lat="45.87933" lon="4.73641">
        <ele>190</ele>
        <time>2018-06-03T08:29:41Z</time>
      </trkpt>
      <trkpt lat="45.87926" lon="4.7364">
        <ele>190</ele>
        <time>2018-06-03T08:29:42Z</time>
      </trkpt>
      <trkpt lat="45.8792" lon="4.73639">
        <ele>190</ele>
        <time>2018-06-03T08:29:43Z</time>
      </trkpt>
      <trkpt lat="45.87914" lon="4.73636">
        <ele>190</ele>
        <time>2018-06-03T08:29:44Z</time>
      </trkpt>
      <trkpt lat="45.87909" lon="4.73635">
        <ele>190</ele>
        <time>2018-06-03T08:29:45Z</time>
      </trkpt>
      <trkpt lat="45.87905" lon="4.73633">
        <ele>190</ele>
        <time>2018-06-03T08:29:46Z</time>
      </trkpt>
      <trkpt lat="45.879" lon="4.73632">
        <ele>190</ele>
        <time>2018-06-03T08:29:47Z</time>
      </trkpt>
      <trkpt lat="45.87895" lon="4.73629">
        <ele>190</ele>
        <time>2018-06-03T08:29:48Z</time>
      </trkpt>
      <trkpt lat="45.8789" lon="4.73628">
        <ele>190</ele>
        <time>2018-06-03T08:29:49Z</time>
      </trkpt>
      <trkpt lat="45.87885" lon="4.73627">
        <ele>190</ele>
        <time>2018-06-03T08:29:50Z</time>
      </trkpt>
      <trkpt lat="45.8788" lon="4.73625">
        <ele>190</ele>
        <time>2018-06-03T08:29:51Z</time>
      </trkpt>
      <trkpt lat="45.87875" lon="4.73626">
        <ele>190</ele>
        <time>2018-06-03T08:29:52Z</time>
      </trkpt>
      <trkpt lat="45.8787" lon="4.73629">
        <ele>190</ele>
        <time>2018-06-03T08:29:53Z</time>
      </trkpt>
      <trkpt lat="45.87865" lon="4.73632">
        <ele>190</ele>
        <time>2018-06-03T08:29:54Z</time>
      </trkpt>
      <trkpt lat="45.8786" lon="4.73635">
        <ele>191</ele>
        <time>2018-06-03T08:29:55Z</time>
      </trkpt>
      <trkpt lat="45.87838" lon="4.73637">
        <ele>191</ele>
        <time>2018-06-03T08:30:01Z</time>
      </trkpt>
      <trkpt lat="45.87837" lon="4.73629">
        <ele>191</ele>
        <time>2018-06-03T08:30:02Z</time>
      </trkpt>
      <trkpt lat="45.87836" lon="4.73624">
        <ele>191</ele>
        <time>2018-06-03T08:30:03Z</time>
      </trkpt>
      <trkpt lat="45.87833" lon="4.73617">
        <ele>190</ele>
        <time>2018-06-03T08:30:04Z</time>
      </trkpt>
      <trkpt lat="45.87831" lon="4.7361">
        <ele>190</ele>
        <time>2018-06-03T08:30:05Z</time>
      </trkpt>
      <trkpt lat="45.87828" lon="4.73604">
        <ele>190</ele>
        <time>2018-06-03T08:30:06Z</time>
      </trkpt>
      <trkpt lat="45.87825" lon="4.73598">
        <ele>190</ele>
        <time>2018-06-03T08:30:07Z</time>
      </trkpt>
      <trkpt lat="45.87822" lon="4.73591">
        <ele>190</ele>
        <time>2018-06-03T08:30:08Z</time>
      </trkpt>
      <trkpt lat="45.87819" lon="4.73585">
        <ele>190</ele>
        <time>2018-06-03T08:30:09Z</time>
      </trkpt>
      <trkpt lat="45.87816" lon="4.73578">
        <ele>189</ele>
        <time>2018-06-03T08:30:10Z</time>
      </trkpt>
      <trkpt lat="45.87814" lon="4.73572">
        <ele>189</ele>
        <time>2018-06-03T08:30:11Z</time>
      </trkpt>
      <trkpt lat="45.87811" lon="4.73565">
        <ele>189</ele>
        <time>2018-06-03T08:30:12Z</time>
      </trkpt>
      <trkpt lat="45.87806" lon="4.73558">
        <ele>189</ele>
        <time>2018-06-03T08:30:13Z</time>
      </trkpt>
      <trkpt lat="45.87803" lon="4.73551">
        <ele>189</ele>
        <time>2018-06-03T08:30:14Z</time>
      </trkpt>
      <trkpt lat="45.87799" lon="4.73545">
        <ele>189</ele>
        <time>2018-06-03T08:30:15Z</time>
      </trkpt>
      <trkpt lat="45.87795" lon="4.73539">
        <ele>189</ele>
        <time>2018-06-03T08:30:16Z</time>
      </trkpt>
      <trkpt lat="45.87792" lon="4.73531">
        <ele>189</ele>
        <time>2018-06-03T08:30:17Z</time>
      </trkpt>
      <trkpt lat="45.87788" lon="4.73524">
        <ele>189</ele>
        <time>2018-06-03T08:30:18Z</time>
      </trkpt>
      <trkpt lat="45.87785" lon="4.73516">
        <ele>189</ele>
        <time>2018-06-03T08:30:19Z</time>
      </trkpt>
      <trkpt lat="45.87782" lon="4.73509">
        <ele>189</ele>
        <time>2018-06-03T08:30:20Z</time>
      </trkpt>
      <trkpt lat="45.8778" lon="4.73501">
        <ele>189</ele>
        <time>2018-06-03T08:30:21Z</time>
      </trkpt>
      <trkpt lat="45.87775" lon="4.73492">
        <ele>188</ele>
        <time>2018-06-03T08:30:22Z</time>
      </trkpt>
      <trkpt lat="45.8777" lon="4.73484">
        <ele>188</ele>
        <time>2018-06-03T08:30:23Z</time>
      </trkpt>
      <trkpt lat="45.87767" lon="4.73476">
        <ele>188</ele>
        <time>2018-06-03T08:30:24Z</time>
      </trkpt>
      <trkpt lat="45.87763" lon="4.73469">
        <ele>188</ele>
        <time>2018-06-03T08:30:25Z</time>
      </trkpt>
      <trkpt lat="45.8776" lon="4.7346">
        <ele>188</ele>
        <time>2018-06-03T08:30:26Z</time>
      </trkpt>
      <trkpt lat="45.87756" lon="4.73452">
        <ele>188</ele>
        <time>2018-06-03T08:30:27Z</time>
      </trkpt>
      <trkpt lat="45.87752" lon="4.73445">
        <ele>188</ele>
        <time>2018-06-03T08:30:28Z</time>
      </trkpt>
      <trkpt lat="45.87748" lon="4.73437">
        <ele>188</ele>
        <time>2018-06-03T08:30:29Z</time>
      </trkpt>
      <trkpt lat="45.87745" lon="4.73431">
        <ele>188</ele>
        <time>2018-06-03T08:30:30Z</time>
      </trkpt>
      <trkpt lat="45.87741" lon="4.73422">
        <ele>188</ele>
        <time>2018-06-03T08:30:31Z</time>
      </trkpt>
      <trkpt lat="45.87738" lon="4.73416">
        <ele>188</ele>
        <time>2018-06-03T08:30:32Z</time>
      </trkpt>
      <trkpt lat="45.87735" lon="4.73409">
        <ele>188</ele>
        <time>2018-06-03T08:30:33Z</time>
      </trkpt>
      <trkpt lat="45.87732" lon="4.73402">
        <ele>188</ele>
        <time>2018-06-03T08:30:34Z</time>
      </trkpt>
      <trkpt lat="45.87727" lon="4.73395">
        <ele>188</ele>
        <time>2018-06-03T08:30:35Z</time>
      </trkpt>
      <trkpt lat="45.87724" lon="4.73388">
        <ele>188</ele>
        <time>2018-06-03T08:30:36Z</time>
      </trkpt>
      <trkpt lat="45.87721" lon="4.73381">
        <ele>187</ele>
        <time>2018-06-03T08:30:37Z</time>
      </trkpt>
      <trkpt lat="45.87717" lon="4.73374">
        <ele>187</ele>
        <time>2018-06-03T08:30:38Z</time>
      </trkpt>
      <trkpt lat="45.87715" lon="4.73367">
        <ele>187</ele>
        <time>2018-06-03T08:30:39Z</time>
      </trkpt>
      <trkpt lat="45.87712" lon="4.7336">
        <ele>187</ele>
        <time>2018-06-03T08:30:40Z</time>
      </trkpt>
      <trkpt lat="45.87709" lon="4.73354">
        <ele>187</ele>
        <time>2018-06-03T08:30:41Z</time>
      </trkpt>
      <trkpt lat="45.87706" lon="4.73348">
        <ele>187</ele>
        <time>2018-06-03T08:30:42Z</time>
      </trkpt>
      <trkpt lat="45.87702" lon="4.7334">
        <ele>187</ele>
        <time>2018-06-03T08:30:43Z</time>
      </trkpt>
      <trkpt lat="45.87699" lon="4.73334">
        <ele>187</ele>
        <time>2018-06-03T08:30:44Z</time>
      </trkpt>
      <trkpt lat="45.87693" lon="4.73327">
        <ele>188</ele>
        <time>2018-06-03T08:30:45Z</time>
      </trkpt>
      <trkpt lat="45.87691" lon="4.73321">
        <ele>188</ele>
        <time>2018-06-03T08:30:46Z</time>
      </trkpt>
      <trkpt lat="45.87688" lon="4.73316">
        <ele>188</ele>
        <time>2018-06-03T08:30:47Z</time>
      </trkpt>
      <trkpt lat="45.87685" lon="4.7331">
        <ele>188</ele>
        <time>2018-06-03T08:30:48Z</time>
      </trkpt>
      <trkpt lat="45.87683" lon="4.73304">
        <ele>188</ele>
        <time>2018-06-03T08:30:49Z</time>
      </trkpt>
      <trkpt lat="45.8768" lon="4.73298">
        <ele>188</ele>
        <time>2018-06-03T08:30:50Z</time>
      </trkpt>
      <trkpt lat="45.87677" lon="4.73294">
        <ele>188</ele>
        <time>2018-06-03T08:30:51Z</time>
      </trkpt>
      <trkpt lat="45.87674" lon="4.73288">
        <ele>188</ele>
        <time>2018-06-03T08:30:52Z</time>
      </trkpt>
      <trkpt lat="45.87672" lon="4.73282">
        <ele>188</ele>
        <time>2018-06-03T08:30:53Z</time>
      </trkpt>
      <trkpt lat="45.87669" lon="4.73277">
        <ele>188</ele>
        <time>2018-06-03T08:30:54Z</time>
      </trkpt>
      <trkpt lat="45.87667" lon="4.7327">
        <ele>188</ele>
        <time>2018-06-03T08:30:55Z</time>
      </trkpt>
      <trkpt lat="45.87664" lon="4.73264">
        <ele>189</ele>
        <time>2018-06-03T08:30:56Z</time>
      </trkpt>
      <trkpt lat="45.87661" lon="4.73259">
        <ele>189</ele>
        <time>2018-06-03T08:30:57Z</time>
      </trkpt>
      <trkpt lat="45.87656" lon="4.73249">
        <ele>189</ele>
        <time>2018-06-03T08:30:59Z</time>
      </trkpt>
      <trkpt lat="45.87654" lon="4.73244">
        <ele>188</ele>
        <time>2018-06-03T08:31:00Z</time>
      </trkpt>
      <trkpt lat="45.87648" lon="4.73234">
        <ele>188</ele>
        <time>2018-06-03T08:31:02Z</time>
      </trkpt>
      <trkpt lat="45.87645" lon="4.7323">
        <ele>188</ele>
        <time>2018-06-03T08:31:03Z</time>
      </trkpt>
      <trkpt lat="45.87642" lon="4.73224">
        <ele>188</ele>
        <time>2018-06-03T08:31:04Z</time>
      </trkpt>
      <trkpt lat="45.8764" lon="4.73219">
        <ele>188</ele>
        <time>2018-06-03T08:31:05Z</time>
      </trkpt>
      <trkpt lat="45.87637" lon="4.73213">
        <ele>188</ele>
        <time>2018-06-03T08:31:06Z</time>
      </trkpt>
      <trkpt lat="45.87634" lon="4.73206">
        <ele>188</ele>
        <time>2018-06-03T08:31:07Z</time>
      </trkpt>
      <trkpt lat="45.87631" lon="4.73199">
        <ele>188</ele>
        <time>2018-06-03T08:31:08Z</time>
      </trkpt>
      <trkpt lat="45.87628" lon="4.73193">
        <ele>188</ele>
        <time>2018-06-03T08:31:09Z</time>
      </trkpt>
      <trkpt lat="45.87625" lon="4.73187">
        <ele>188</ele>
        <time>2018-06-03T08:31:10Z</time>
      </trkpt>
      <trkpt lat="45.87622" lon="4.73183">
        <ele>188</ele>
        <time>2018-06-03T08:31:11Z</time>
      </trkpt>
      <trkpt lat="45.8762" lon="4.73177">
        <ele>187</ele>
        <time>2018-06-03T08:31:12Z</time>
      </trkpt>
      <trkpt lat="45.87617" lon="4.73171">
        <ele>187</ele>
        <time>2018-06-03T08:31:13Z</time>
      </trkpt>
      <trkpt lat="45.87615" lon="4.73165">
        <ele>187</ele>
        <time>2018-06-03T08:31:14Z</time>
      </trkpt>
      <trkpt lat="45.87611" lon="4.73158">
        <ele>187</ele>
        <time>2018-06-03T08:31:15Z</time>
      </trkpt>
      <trkpt lat="45.87607" lon="4.7315">
        <ele>187</ele>
        <time>2018-06-03T08:31:16Z</time>
      </trkpt>
      <trkpt lat="45.87603" lon="4.73142">
        <ele>187</ele>
        <time>2018-06-03T08:31:17Z</time>
      </trkpt>
      <trkpt lat="45.876" lon="4.73134">
        <ele>187</ele>
        <time>2018-06-03T08:31:18Z</time>
      </trkpt>
      <trkpt lat="45.87597" lon="4.73126">
        <ele>187</ele>
        <time>2018-06-03T08:31:19Z</time>
      </trkpt>
      <trkpt lat="45.87592" lon="4.73117">
        <ele>188</ele>
        <time>2018-06-03T08:31:20Z</time>
      </trkpt>
      <trkpt lat="45.87587" lon="4.73111">
        <ele>188</ele>
        <time>2018-06-03T08:31:21Z</time>
      </trkpt>
      <trkpt lat="45.87582" lon="4.73103">
        <ele>188</ele>
        <time>2018-06-03T08:31:22Z</time>
      </trkpt>
      <trkpt lat="45.87579" lon="4.73096">
        <ele>188</ele>
        <time>2018-06-03T08:31:23Z</time>
      </trkpt>
      <trkpt lat="45.87575" lon="4.73089">
        <ele>188</ele>
        <time>2018-06-03T08:31:24Z</time>
      </trkpt>
      <trkpt lat="45.87572" lon="4.73081">
        <ele>188</ele>
        <time>2018-06-03T08:31:25Z</time>
      </trkpt>
      <trkpt lat="45.87568" lon="4.73074">
        <ele>188</ele>
        <time>2018-06-03T08:31:26Z</time>
      </trkpt>
      <trkpt lat="45.87567" lon="4.73068">
        <ele>188</ele>
        <time>2018-06-03T08:31:27Z</time>
      </trkpt>
      <trkpt lat="45.87564" lon="4.73061">
        <ele>188</ele>
        <time>2018-06-03T08:31:28Z</time>
      </trkpt>
      <trkpt lat="45.8756" lon="4.73055">
        <ele>188</ele>
        <time>2018-06-03T08:31:29Z</time>
      </trkpt>
      <trkpt lat="45.87556" lon="4.7305">
        <ele>188</ele>
        <time>2018-06-03T08:31:30Z</time>
      </trkpt>
      <trkpt lat="45.87554" lon="4.73041">
        <ele>188</ele>
        <time>2018-06-03T08:31:31Z</time>
      </trkpt>
      <trkpt lat="45.87553" lon="4.73035">
        <ele>188</ele>
        <time>2018-06-03T08:31:32Z</time>
      </trkpt>
      <trkpt lat="45.87548" lon="4.73029">
        <ele>188</ele>
        <time>2018-06-03T08:31:33Z</time>
      </trkpt>
      <trkpt lat="45.87546" lon="4.73023">
        <ele>188</ele>
        <time>2018-06-03T08:31:34Z</time>
      </trkpt>
      <trkpt lat="45.87544" lon="4.73016">
        <ele>188</ele>
        <time>2018-06-03T08:31:35Z</time>
      </trkpt>
      <trkpt lat="45.87539" lon="4.73009">
        <ele>187</ele>
        <time>2018-06-03T08:31:36Z</time>
      </trkpt>
      <trkpt lat="45.87536" lon="4.73004">
        <ele>187</ele>
        <time>2018-06-03T08:31:37Z</time>
      </trkpt>
      <trkpt lat="45.87533" lon="4.72997">
        <ele>187</ele>
        <time>2018-06-03T08:31:38Z</time>
      </trkpt>
      <trkpt lat="45.8753" lon="4.7299">
        <ele>187</ele>
        <time>2018-06-03T08:31:39Z</time>
      </trkpt>
      <trkpt lat="45.87528" lon="4.72984">
        <ele>187</ele>
        <time>2018-06-03T08:31:40Z</time>
      </trkpt>
      <trkpt lat="45.87525" lon="4.72977">
        <ele>187</ele>
        <time>2018-06-03T08:31:41Z</time>
      </trkpt>
      <trkpt lat="45.87521" lon="4.7297">
        <ele>187</ele>
        <time>2018-06-03T08:31:42Z</time>
      </trkpt>
      <trkpt lat="45.87517" lon="4.72963">
        <ele>187</ele>
        <time>2018-06-03T08:31:43Z</time>
      </trkpt>
      <trkpt lat="45.87513" lon="4.72959">
        <ele>187</ele>
        <time>2018-06-03T08:31:44Z</time>
      </trkpt>
      <trkpt lat="45.87508" lon="4.72953">
        <ele>187</ele>
        <time>2018-06-03T08:31:45Z</time>
      </trkpt>
      <trkpt lat="45.87503" lon="4.72949">
        <ele>187</ele>
        <time>2018-06-03T08:31:46Z</time>
      </trkpt>
      <trkpt lat="45.87498" lon="4.72945">
        <ele>188</ele>
        <time>2018-06-03T08:31:47Z</time>
      </trkpt>
      <trkpt lat="45.87493" lon="4.72942">
        <ele>188</ele>
        <time>2018-06-03T08:31:48Z</time>
      </trkpt>
      <trkpt lat="45.87488" lon="4.72938">
        <ele>188</ele>
        <time>2018-06-03T08:31:49Z</time>
      </trkpt>
      <trkpt lat="45.87484" lon="4.72933">
        <ele>188</ele>
        <time>2018-06-03T08:31:50Z</time>
      </trkpt>
      <trkpt lat="45.87479" lon="4.7293">
        <ele>188</ele>
        <time>2018-06-03T08:31:51Z</time>
      </trkpt>
      <trkpt lat="45.87475" lon="4.72925">
        <ele>188</ele>
        <time>2018-06-03T08:31:52Z</time>
      </trkpt>
      <trkpt lat="45.87472" lon="4.72921">
        <ele>188</ele>
        <time>2018-06-03T08:31:53Z</time>
      </trkpt>
      <trkpt lat="45.87467" lon="4.72911">
        <ele>188</ele>
        <time>2018-06-03T08:31:55Z</time>
      </trkpt>
      <trkpt lat="45.87467" lon="4.72908">
        <ele>188</ele>
        <time>2018-06-03T08:31:56Z</time>
      </trkpt>
      <trkpt lat="45.87465" lon="4.72895">
        <ele>188</ele>
        <time>2018-06-03T08:31:58Z</time>
      </trkpt>
      <trkpt lat="45.87465" lon="4.72893">
        <ele>188</ele>
        <time>2018-06-03T08:31:59Z</time>
      </trkpt>
      <trkpt lat="45.87463" lon="4.72885">
        <ele>188</ele>
        <time>2018-06-03T08:32:00Z</time>
      </trkpt>
      <trkpt lat="45.87461" lon="4.7288">
        <ele>188</ele>
        <time>2018-06-03T08:32:01Z</time>
      </trkpt>
      <trkpt lat="45.87458" lon="4.72873">
        <ele>188</ele>
        <time>2018-06-03T08:32:02Z</time>
      </trkpt>
      <trkpt lat="45.87455" lon="4.72867">
        <ele>188</ele>
        <time>2018-06-03T08:32:03Z</time>
      </trkpt>
      <trkpt lat="45.87453" lon="4.7286">
        <ele>188</ele>
        <time>2018-06-03T08:32:04Z</time>
      </trkpt>
      <trkpt lat="45.8745" lon="4.72853">
        <ele>188</ele>
        <time>2018-06-03T08:32:05Z</time>
      </trkpt>
      <trkpt lat="45.87447" lon="4.72846">
        <ele>188</ele>
        <time>2018-06-03T08:32:06Z</time>
      </trkpt>
      <trkpt lat="45.87445" lon="4.7284">
        <ele>188</ele>
        <time>2018-06-03T08:32:07Z</time>
      </trkpt>
      <trkpt lat="45.87443" lon="4.72834">
        <ele>188</ele>
        <time>2018-06-03T08:32:08Z</time>
      </trkpt>
      <trkpt lat="45.87441" lon="4.72827">
        <ele>189</ele>
        <time>2018-06-03T08:32:09Z</time>
      </trkpt>
      <trkpt lat="45.87439" lon="4.72821">
        <ele>189</ele>
        <time>2018-06-03T08:32:10Z</time>
      </trkpt>
      <trkpt lat="45.87435" lon="4.72814">
        <ele>189</ele>
        <time>2018-06-03T08:32:11Z</time>
      </trkpt>
      <trkpt lat="45.87432" lon="4.72808">
        <ele>189</ele>
        <time>2018-06-03T08:32:12Z</time>
      </trkpt>
      <trkpt lat="45.8743" lon="4.72801">
        <ele>189</ele>
        <time>2018-06-03T08:32:13Z</time>
      </trkpt>
      <trkpt lat="45.87427" lon="4.72794">
        <ele>189</ele>
        <time>2018-06-03T08:32:14Z</time>
      </trkpt>
      <trkpt lat="45.87423" lon="4.72787">
        <ele>189</ele>
        <time>2018-06-03T08:32:15Z</time>
      </trkpt>
      <trkpt lat="45.87419" lon="4.72781">
        <ele>189</ele>
        <time>2018-06-03T08:32:16Z</time>
      </trkpt>
      <trkpt lat="45.87417" lon="4.72775">
        <ele>189</ele>
        <time>2018-06-03T08:32:17Z</time>
      </trkpt>
      <trkpt lat="45.87414" lon="4.72769">
        <ele>189</ele>
        <time>2018-06-03T08:32:18Z</time>
      </trkpt>
      <trkpt lat="45.87412" lon="4.72761">
        <ele>189</ele>
        <time>2018-06-03T08:32:19Z</time>
      </trkpt>
      <trkpt lat="45.8741" lon="4.72756">
        <ele>189</ele>
        <time>2018-06-03T08:32:20Z</time>
      </trkpt>
      <trkpt lat="45.87407" lon="4.7275">
        <ele>189</ele>
        <time>2018-06-03T08:32:21Z</time>
      </trkpt>
      <trkpt lat="45.87403" lon="4.7274">
        <ele>189</ele>
        <time>2018-06-03T08:32:23Z</time>
      </trkpt>
      <trkpt lat="45.87399" lon="4.72735">
        <ele>189</ele>
        <time>2018-06-03T08:32:24Z</time>
      </trkpt>
      <trkpt lat="45.87395" lon="4.72732">
        <ele>190</ele>
        <time>2018-06-03T08:32:25Z</time>
      </trkpt>
      <trkpt lat="45.87392" lon="4.72726">
        <ele>190</ele>
        <time>2018-06-03T08:32:26Z</time>
      </trkpt>
      <trkpt lat="45.87391" lon="4.7272">
        <ele>190</ele>
        <time>2018-06-03T08:32:27Z</time>
      </trkpt>
      <trkpt lat="45.87388" lon="4.72714">
        <ele>190</ele>
        <time>2018-06-03T08:32:28Z</time>
      </trkpt>
      <trkpt lat="45.87386" lon="4.72708">
        <ele>190</ele>
        <time>2018-06-03T08:32:29Z</time>
      </trkpt>
      <trkpt lat="45.87383" lon="4.72702">
        <ele>190</ele>
        <time>2018-06-03T08:32:30Z</time>
      </trkpt>
      <trkpt lat="45.87381" lon="4.72696">
        <ele>190</ele>
        <time>2018-06-03T08:32:31Z</time>
      </trkpt>
      <trkpt lat="45.87377" lon="4.72691">
        <ele>190</ele>
        <time>2018-06-03T08:32:32Z</time>
      </trkpt>
      <trkpt lat="45.87372" lon="4.72687">
        <ele>190</ele>
        <time>2018-06-03T08:32:33Z</time>
      </trkpt>
      <trkpt lat="45.87367" lon="4.72683">
        <ele>190</ele>
        <time>2018-06-03T08:32:34Z</time>
      </trkpt>
      <trkpt lat="45.87362" lon="4.72678">
        <ele>190</ele>
        <time>2018-06-03T08:32:35Z</time>
      </trkpt>
      <trkpt lat="45.87357" lon="4.72675">
        <ele>190</ele>
        <time>2018-06-03T08:32:36Z</time>
      </trkpt>
      <trkpt lat="45.87351" lon="4.72667">
        <ele>190</ele>
        <time>2018-06-03T08:32:38Z</time>
      </trkpt>
      <trkpt lat="45.87347" lon="4.72662">
        <ele>190</ele>
        <time>2018-06-03T08:32:39Z</time>
      </trkpt>
      <trkpt lat="45.87342" lon="4.72659">
        <ele>190</ele>
        <time>2018-06-03T08:32:40Z</time>
      </trkpt>
      <trkpt lat="45.87339" lon="4.72655">
        <ele>190</ele>
        <time>2018-06-03T08:32:41Z</time>
      </trkpt>
      <trkpt lat="45.87333" lon="4.72651">
        <ele>192</ele>
        <time>2018-06-03T08:32:42Z</time>
      </trkpt>
      <trkpt lat="45.8733" lon="4.72647">
        <ele>192</ele>
        <time>2018-06-03T08:32:43Z</time>
      </trkpt>
      <trkpt lat="45.87326" lon="4.72642">
        <ele>192</ele>
        <time>2018-06-03T08:32:44Z</time>
      </trkpt>
      <trkpt lat="45.87319" lon="4.72637">
        <ele>193</ele>
        <time>2018-06-03T08:32:45Z</time>
      </trkpt>
      <trkpt lat="45.87315" lon="4.72631">
        <ele>193</ele>
        <time>2018-06-03T08:32:46Z</time>
      </trkpt>
      <trkpt lat="45.87311" lon="4.72627">
        <ele>193</ele>
        <time>2018-06-03T08:32:47Z</time>
      </trkpt>
      <trkpt lat="45.87305" lon="4.72618">
        <ele>193</ele>
        <time>2018-06-03T08:32:49Z</time>
      </trkpt>
      <trkpt lat="45.873" lon="4.72614">
        <ele>194</ele>
        <time>2018-06-03T08:32:50Z</time>
      </trkpt>
      <trkpt lat="45.87294" lon="4.72605">
        <ele>194</ele>
        <time>2018-06-03T08:32:52Z</time>
      </trkpt>
      <trkpt lat="45.87291" lon="4.72601">
        <ele>194</ele>
        <time>2018-06-03T08:32:53Z</time>
      </trkpt>
      <trkpt lat="45.87288" lon="4.72595">
        <ele>194</ele>
        <time>2018-06-03T08:32:54Z</time>
      </trkpt>
      <trkpt lat="45.87285" lon="4.7259">
        <ele>194</ele>
        <time>2018-06-03T08:32:55Z</time>
      </trkpt>
      <trkpt lat="45.87281" lon="4.72587">
        <ele>195</ele>
        <time>2018-06-03T08:32:56Z</time>
      </trkpt>
      <trkpt lat="45.87278" lon="4.72581">
        <ele>194</ele>
        <time>2018-06-03T08:32:57Z</time>
      </trkpt>
      <trkpt lat="45.87271" lon="4.72574">
        <ele>195</ele>
        <time>2018-06-03T08:32:59Z</time>
      </trkpt>
      <trkpt lat="45.87267" lon="4.72569">
        <ele>195</ele>
        <time>2018-06-03T08:33:00Z</time>
      </trkpt>
      <trkpt lat="45.87261" lon="4.72561">
        <ele>194</ele>
        <time>2018-06-03T08:33:02Z</time>
      </trkpt>
      <trkpt lat="45.87257" lon="4.72559">
        <ele>194</ele>
        <time>2018-06-03T08:33:03Z</time>
      </trkpt>
      <trkpt lat="45.87253" lon="4.72549">
        <ele>194</ele>
        <time>2018-06-03T08:33:06Z</time>
      </trkpt>
      <trkpt lat="45.87252" lon="4.72545">
        <ele>194</ele>
        <time>2018-06-03T08:33:07Z</time>
      </trkpt>
      <trkpt lat="45.87249" lon="4.72538">
        <ele>197</ele>
        <time>2018-06-03T08:33:09Z</time>
      </trkpt>
      <trkpt lat="45.87245" lon="4.72526">
        <ele>196</ele>
        <time>2018-06-03T08:33:10Z</time>
      </trkpt>
      <trkpt lat="45.87242" lon="4.72516">
        <ele>196</ele>
        <time>2018-06-03T08:33:12Z</time>
      </trkpt>
      <trkpt lat="45.87239" lon="4.72511">
        <ele>195</ele>
        <time>2018-06-03T08:33:13Z</time>
      </trkpt>
      <trkpt lat="45.87234" lon="4.72501">
        <ele>196</ele>
        <time>2018-06-03T08:33:15Z</time>
      </trkpt>
      <trkpt lat="45.87231" lon="4.72496">
        <ele>194</ele>
        <time>2018-06-03T08:33:16Z</time>
      </trkpt>
      <trkpt lat="45.87225" lon="4.72487">
        <ele>194</ele>
        <time>2018-06-03T08:33:18Z</time>
      </trkpt>
      <trkpt lat="45.87222" lon="4.72481">
        <ele>194</ele>
        <time>2018-06-03T08:33:19Z</time>
      </trkpt>
      <trkpt lat="45.87217" lon="4.72472">
        <ele>194</ele>
        <time>2018-06-03T08:33:21Z</time>
      </trkpt>
      <trkpt lat="45.87214" lon="4.72467">
        <ele>194</ele>
        <time>2018-06-03T08:33:22Z</time>
      </trkpt>
      <trkpt lat="45.87207" lon="4.7246">
        <ele>194</ele>
        <time>2018-06-03T08:33:24Z</time>
      </trkpt>
      <trkpt lat="45.87203" lon="4.72456">
        <ele>194</ele>
        <time>2018-06-03T08:33:25Z</time>
      </trkpt>
      <trkpt lat="45.87199" lon="4.72452">
        <ele>194</ele>
        <time>2018-06-03T08:33:26Z</time>
      </trkpt>
      <trkpt lat="45.87196" lon="4.72447">
        <ele>194</ele>
        <time>2018-06-03T08:33:27Z</time>
      </trkpt>
      <trkpt lat="45.8719" lon="4.72439">
        <ele>194</ele>
        <time>2018-06-03T08:33:29Z</time>
      </trkpt>
      <trkpt lat="45.87188" lon="4.72435">
        <ele>194</ele>
        <time>2018-06-03T08:33:30Z</time>
      </trkpt>
      <trkpt lat="45.87182" lon="4.72427">
        <ele>194</ele>
        <time>2018-06-03T08:33:33Z</time>
      </trkpt>
      <trkpt lat="45.87177" lon="4.72421">
        <ele>194</ele>
        <time>2018-06-03T08:33:34Z</time>
      </trkpt>
      <trkpt lat="45.87174" lon="4.72417">
        <ele>193</ele>
        <time>2018-06-03T08:33:36Z</time>
      </trkpt>
      <trkpt lat="45.87169" lon="4.72409">
        <ele>193</ele>
        <time>2018-06-03T08:33:37Z</time>
      </trkpt>
      <trkpt lat="45.87167" lon="4.72405">
        <ele>196</ele>
        <time>2018-06-03T08:33:38Z</time>
      </trkpt>
      <trkpt lat="45.87164" lon="4.72398">
        <ele>196</ele>
        <time>2018-06-03T08:33:39Z</time>
      </trkpt>
      <trkpt lat="45.87162" lon="4.72393">
        <ele>197</ele>
        <time>2018-06-03T08:33:40Z</time>
      </trkpt>
      <trkpt lat="45.87158" lon="4.72387">
        <ele>197</ele>
        <time>2018-06-03T08:33:41Z</time>
      </trkpt>
      <trkpt lat="45.87156" lon="4.72381">
        <ele>197</ele>
        <time>2018-06-03T08:33:42Z</time>
      </trkpt>
      <trkpt lat="45.87154" lon="4.72375">
        <ele>197</ele>
        <time>2018-06-03T08:33:43Z</time>
      </trkpt>
      <trkpt lat="45.87149" lon="4.72365">
        <ele>197</ele>
        <time>2018-06-03T08:33:45Z</time>
      </trkpt>
      <trkpt lat="45.87147" lon="4.72359">
        <ele>197</ele>
        <time>2018-06-03T08:33:46Z</time>
      </trkpt>
      <trkpt lat="45.87144" lon="4.72354">
        <ele>197</ele>
        <time>2018-06-03T08:33:47Z</time>
      </trkpt>
      <trkpt lat="45.87142" lon="4.72348">
        <ele>197</ele>
        <time>2018-06-03T08:33:48Z</time>
      </trkpt>
      <trkpt lat="45.8714" lon="4.72342">
        <ele>197</ele>
        <time>2018-06-03T08:33:49Z</time>
      </trkpt>
      <trkpt lat="45.87137" lon="4.72336">
        <ele>197</ele>
        <time>2018-06-03T08:33:50Z</time>
      </trkpt>
      <trkpt lat="45.87134" lon="4.72324">
        <ele>195</ele>
        <time>2018-06-03T08:33:52Z</time>
      </trkpt>
      <trkpt lat="45.87131" lon="4.72317">
        <ele>196</ele>
        <time>2018-06-03T08:33:53Z</time>
      </trkpt>
      <trkpt lat="45.87127" lon="4.72311">
        <ele>196</ele>
        <time>2018-06-03T08:33:54Z</time>
      </trkpt>
      <trkpt lat="45.87125" lon="4.72305">
        <ele>196</ele>
        <time>2018-06-03T08:33:55Z</time>
      </trkpt>
      <trkpt lat="45.87123" lon="4.723">
        <ele>196</ele>
        <time>2018-06-03T08:33:56Z</time>
      </trkpt>
      <trkpt lat="45.87119" lon="4.72293">
        <ele>197</ele>
        <time>2018-06-03T08:33:57Z</time>
      </trkpt>
      <trkpt lat="45.87116" lon="4.72289">
        <ele>197</ele>
        <time>2018-06-03T08:33:58Z</time>
      </trkpt>
      <trkpt lat="45.87112" lon="4.72283">
        <ele>197</ele>
        <time>2018-06-03T08:33:59Z</time>
      </trkpt>
      <trkpt lat="45.87108" lon="4.72278">
        <ele>197</ele>
        <time>2018-06-03T08:34:00Z</time>
      </trkpt>
      <trkpt lat="45.87104" lon="4.72273">
        <ele>197</ele>
        <time>2018-06-03T08:34:01Z</time>
      </trkpt>
      <trkpt lat="45.871" lon="4.72267">
        <ele>197</ele>
        <time>2018-06-03T08:34:02Z</time>
      </trkpt>
      <trkpt lat="45.87097" lon="4.72262">
        <ele>198</ele>
        <time>2018-06-03T08:34:03Z</time>
      </trkpt>
      <trkpt lat="45.87092" lon="4.72257">
        <ele>198</ele>
        <time>2018-06-03T08:34:04Z</time>
      </trkpt>
      <trkpt lat="45.87087" lon="4.72252">
        <ele>199</ele>
        <time>2018-06-03T08:34:05Z</time>
      </trkpt>
      <trkpt lat="45.87082" lon="4.72247">
        <ele>199</ele>
        <time>2018-06-03T08:34:06Z</time>
      </trkpt>
      <trkpt lat="45.87078" lon="4.72241">
        <ele>200</ele>
        <time>2018-06-03T08:34:07Z</time>
      </trkpt>
      <trkpt lat="45.87073" lon="4.72237">
        <ele>200</ele>
        <time>2018-06-03T08:34:08Z</time>
      </trkpt>
      <trkpt lat="45.87067" lon="4.72231">
        <ele>200</ele>
        <time>2018-06-03T08:34:09Z</time>
      </trkpt>
      <trkpt lat="45.87063" lon="4.72226">
        <ele>200</ele>
        <time>2018-06-03T08:34:10Z</time>
      </trkpt>
      <trkpt lat="45.87058" lon="4.72222">
        <ele>200</ele>
        <time>2018-06-03T08:34:11Z</time>
      </trkpt>
      <trkpt lat="45.87053" lon="4.72219">
        <ele>201</ele>
        <time>2018-06-03T08:34:12Z</time>
      </trkpt>
      <trkpt lat="45.87048" lon="4.72216">
        <ele>201</ele>
        <time>2018-06-03T08:34:13Z</time>
      </trkpt>
      <trkpt lat="45.87043" lon="4.72212">
        <ele>201</ele>
        <time>2018-06-03T08:34:14Z</time>
      </trkpt>
      <trkpt lat="45.87037" lon="4.72208">
        <ele>201</ele>
        <time>2018-06-03T08:34:15Z</time>
      </trkpt>
      <trkpt lat="45.87032" lon="4.72204">
        <ele>201</ele>
        <time>2018-06-03T08:34:16Z</time>
      </trkpt>
      <trkpt lat="45.87027" lon="4.72201">
        <ele>201</ele>
        <time>2018-06-03T08:34:17Z</time>
      </trkpt>
      <trkpt lat="45.87023" lon="4.72198">
        <ele>201</ele>
        <time>2018-06-03T08:34:18Z</time>
      </trkpt>
      <trkpt lat="45.87018" lon="4.72195">
        <ele>201</ele>
        <time>2018-06-03T08:34:19Z</time>
      </trkpt>
      <trkpt lat="45.87013" lon="4.72193">
        <ele>202</ele>
        <time>2018-06-03T08:34:20Z</time>
      </trkpt>
      <trkpt lat="45.87008" lon="4.72191">
        <ele>202</ele>
        <time>2018-06-03T08:34:21Z</time>
      </trkpt>
      <trkpt lat="45.87" lon="4.72187">
        <ele>208</ele>
        <time>2018-06-03T08:34:22Z</time>
      </trkpt>
      <trkpt lat="45.86995" lon="4.72184">
        <ele>207</ele>
        <time>2018-06-03T08:34:23Z</time>
      </trkpt>
      <trkpt lat="45.86989" lon="4.72179">
        <ele>207</ele>
        <time>2018-06-03T08:34:24Z</time>
      </trkpt>
      <trkpt lat="45.86984" lon="4.72176">
        <ele>207</ele>
        <time>2018-06-03T08:34:25Z</time>
      </trkpt>
      <trkpt lat="45.86979" lon="4.72171">
        <ele>208</ele>
        <time>2018-06-03T08:34:26Z</time>
      </trkpt>
      <trkpt lat="45.86974" lon="4.72166">
        <ele>201</ele>
        <time>2018-06-03T08:34:27Z</time>
      </trkpt>
      <trkpt lat="45.86969" lon="4.72162">
        <ele>201</ele>
        <time>2018-06-03T08:34:28Z</time>
      </trkpt>
      <trkpt lat="45.86963" lon="4.72158">
        <ele>201</ele>
        <time>2018-06-03T08:34:29Z</time>
      </trkpt>
      <trkpt lat="45.86957" lon="4.72153">
        <ele>201</ele>
        <time>2018-06-03T08:34:30Z</time>
      </trkpt>
      <trkpt lat="45.86951" lon="4.7215">
        <ele>202</ele>
        <time>2018-06-03T08:34:31Z</time>
      </trkpt>
      <trkpt lat="45.86946" lon="4.72146">
        <ele>202</ele>
        <time>2018-06-03T08:34:32Z</time>
      </trkpt>
      <trkpt lat="45.86942" lon="4.72143">
        <ele>202</ele>
        <time>2018-06-03T08:34:33Z</time>
      </trkpt>
      <trkpt lat="45.86936" lon="4.72141">
        <ele>202</ele>
        <time>2018-06-03T08:34:34Z</time>
      </trkpt>
      <trkpt lat="45.86931" lon="4.72139">
        <ele>202</ele>
        <time>2018-06-03T08:34:35Z</time>
      </trkpt>
      <trkpt lat="45.86926" lon="4.72136">
        <ele>202</ele>
        <time>2018-06-03T08:34:36Z</time>
      </trkpt>
      <trkpt lat="45.86919" lon="4.72133">
        <ele>201</ele>
        <time>2018-06-03T08:34:37Z</time>
      </trkpt>
      <trkpt lat="45.86914" lon="4.72132">
        <ele>204</ele>
        <time>2018-06-03T08:34:38Z</time>
      </trkpt>
      <trkpt lat="45.86908" lon="4.72133">
        <ele>204</ele>
        <time>2018-06-03T08:34:39Z</time>
      </trkpt>
      <trkpt lat="45.86902" lon="4.7213">
        <ele>203</ele>
        <time>2018-06-03T08:34:40Z</time>
      </trkpt>
      <trkpt lat="45.86896" lon="4.72127">
        <ele>203</ele>
        <time>2018-06-03T08:34:41Z</time>
      </trkpt>
      <trkpt lat="45.86891" lon="4.72125">
        <ele>202</ele>
        <time>2018-06-03T08:34:42Z</time>
      </trkpt>
      <trkpt lat="45.86887" lon="4.72122">
        <ele>202</ele>
        <time>2018-06-03T08:34:43Z</time>
      </trkpt>
      <trkpt lat="45.86881" lon="4.7212">
        <ele>202</ele>
        <time>2018-06-03T08:34:44Z</time>
      </trkpt>
      <trkpt lat="45.86875" lon="4.72115">
        <ele>202</ele>
        <time>2018-06-03T08:34:45Z</time>
      </trkpt>
      <trkpt lat="45.86869" lon="4.72114">
        <ele>201</ele>
        <time>2018-06-03T08:34:46Z</time>
      </trkpt>
      <trkpt lat="45.86864" lon="4.7211">
        <ele>201</ele>
        <time>2018-06-03T08:34:47Z</time>
      </trkpt>
      <trkpt lat="45.8686" lon="4.72108">
        <ele>201</ele>
        <time>2018-06-03T08:34:48Z</time>
      </trkpt>
      <trkpt lat="45.86854" lon="4.72105">
        <ele>200</ele>
        <time>2018-06-03T08:34:49Z</time>
      </trkpt>
      <trkpt lat="45.86849" lon="4.72101">
        <ele>199</ele>
        <time>2018-06-03T08:34:50Z</time>
      </trkpt>
      <trkpt lat="45.86843" lon="4.72098">
        <ele>198</ele>
        <time>2018-06-03T08:34:51Z</time>
      </trkpt>
      <trkpt lat="45.86839" lon="4.72095">
        <ele>197</ele>
        <time>2018-06-03T08:34:52Z</time>
      </trkpt>
      <trkpt lat="45.86833" lon="4.72093">
        <ele>196</ele>
        <time>2018-06-03T08:34:53Z</time>
      </trkpt>
      <trkpt lat="45.86828" lon="4.72093">
        <ele>197</ele>
        <time>2018-06-03T08:34:54Z</time>
      </trkpt>
      <trkpt lat="45.86823" lon="4.72092">
        <ele>198</ele>
        <time>2018-06-03T08:34:55Z</time>
      </trkpt>
      <trkpt lat="45.86816" lon="4.72089">
        <ele>199</ele>
        <time>2018-06-03T08:34:56Z</time>
      </trkpt>
      <trkpt lat="45.86811" lon="4.72087">
        <ele>200</ele>
        <time>2018-06-03T08:34:57Z</time>
      </trkpt>
      <trkpt lat="45.86805" lon="4.72084">
        <ele>200</ele>
        <time>2018-06-03T08:34:58Z</time>
      </trkpt>
      <trkpt lat="45.86798" lon="4.72081">
        <ele>194</ele>
        <time>2018-06-03T08:34:59Z</time>
      </trkpt>
      <trkpt lat="45.86792" lon="4.72079">
        <ele>194</ele>
        <time>2018-06-03T08:35:00Z</time>
      </trkpt>
      <trkpt lat="45.86785" lon="4.72078">
        <ele>194</ele>
        <time>2018-06-03T08:35:01Z</time>
      </trkpt>
      <trkpt lat="45.86779" lon="4.72076">
        <ele>195</ele>
        <time>2018-06-03T08:35:02Z</time>
      </trkpt>
      <trkpt lat="45.86773" lon="4.72073">
        <ele>195</ele>
        <time>2018-06-03T08:35:03Z</time>
      </trkpt>
      <trkpt lat="45.86766" lon="4.72069">
        <ele>195</ele>
        <time>2018-06-03T08:35:04Z</time>
      </trkpt>
      <trkpt lat="45.8676" lon="4.72065">
        <ele>195</ele>
        <time>2018-06-03T08:35:05Z</time>
      </trkpt>
      <trkpt lat="45.86755" lon="4.72063">
        <ele>195</ele>
        <time>2018-06-03T08:35:06Z</time>
      </trkpt>
      <trkpt lat="45.86749" lon="4.72059">
        <ele>197</ele>
        <time>2018-06-03T08:35:07Z</time>
      </trkpt>
      <trkpt lat="45.86744" lon="4.72059">
        <ele>197</ele>
        <time>2018-06-03T08:35:08Z</time>
      </trkpt>
      <trkpt lat="45.86738" lon="4.72057">
        <ele>197</ele>
        <time>2018-06-03T08:35:09Z</time>
      </trkpt>
      <trkpt lat="45.86733" lon="4.72054">
        <ele>197</ele>
        <time>2018-06-03T08:35:10Z</time>
      </trkpt>
      <trkpt lat="45.86728" lon="4.72051">
        <ele>197</ele>
        <time>2018-06-03T08:35:11Z</time>
      </trkpt>
      <trkpt lat="45.86725" lon="4.72049">
        <ele>197</ele>
        <time>2018-06-03T08:35:12Z</time>
      </trkpt>
      <trkpt lat="45.8672" lon="4.72044">
        <ele>197</ele>
        <time>2018-06-03T08:35:13Z</time>
      </trkpt>
      <trkpt lat="45.86715" lon="4.72041">
        <ele>197</ele>
        <time>2018-06-03T08:35:14Z</time>
      </trkpt>
      <trkpt lat="45.86709" lon="4.72038">
        <ele>197</ele>
        <time>2018-06-03T08:35:15Z</time>
      </trkpt>
      <trkpt lat="45.86704" lon="4.72033">
        <ele>197</ele>
        <time>2018-06-03T08:35:16Z</time>
      </trkpt>
      <trkpt lat="45.86698" lon="4.72029">
        <ele>197</ele>
        <time>2018-06-03T08:35:17Z</time>
      </trkpt>
      <trkpt lat="45.86693" lon="4.72024">
        <ele>197</ele>
        <time>2018-06-03T08:35:18Z</time>
      </trkpt>
      <trkpt lat="45.86688" lon="4.72022">
        <ele>197</ele>
        <time>2018-06-03T08:35:19Z</time>
      </trkpt>
      <trkpt lat="45.86683" lon="4.72018">
        <ele>196</ele>
        <time>2018-06-03T08:35:20Z</time>
      </trkpt>
      <trkpt lat="45.86675" lon="4.72016">
        <ele>196</ele>
        <time>2018-06-03T08:35:21Z</time>
      </trkpt>
      <trkpt lat="45.86671" lon="4.7201">
        <ele>196</ele>
        <time>2018-06-03T08:35:22Z</time>
      </trkpt>
      <trkpt lat="45.86665" lon="4.72006">
        <ele>196</ele>
        <time>2018-06-03T08:35:23Z</time>
      </trkpt>
      <trkpt lat="45.86661" lon="4.72003">
        <ele>196</ele>
        <time>2018-06-03T08:35:24Z</time>
      </trkpt>
      <trkpt lat="45.86656" lon="4.72">
        <ele>195</ele>
        <time>2018-06-03T08:35:25Z</time>
      </trkpt>
      <trkpt lat="45.86651" lon="4.71995">
        <ele>195</ele>
        <time>2018-06-03T08:35:26Z</time>
      </trkpt>
      <trkpt lat="45.86647" lon="4.71991">
        <ele>195</ele>
        <time>2018-06-03T08:35:27Z</time>
      </trkpt>
      <trkpt lat="45.86643" lon="4.71986">
        <ele>195</ele>
        <time>2018-06-03T08:35:28Z</time>
      </trkpt>
      <trkpt lat="45.86638" lon="4.71983">
        <ele>195</ele>
        <time>2018-06-03T08:35:29Z</time>
      </trkpt>
      <trkpt lat="45.86634" lon="4.71979">
        <ele>195</ele>
        <time>2018-06-03T08:35:30Z</time>
      </trkpt>
      <trkpt lat="45.86629" lon="4.71977">
        <ele>195</ele>
        <time>2018-06-03T08:35:31Z</time>
      </trkpt>
      <trkpt lat="45.86625" lon="4.71973">
        <ele>195</ele>
        <time>2018-06-03T08:35:32Z</time>
      </trkpt>
      <trkpt lat="45.86619" lon="4.7197">
        <ele>195</ele>
        <time>2018-06-03T08:35:33Z</time>
      </trkpt>
      <trkpt lat="45.86615" lon="4.71966">
        <ele>195</ele>
        <time>2018-06-03T08:35:34Z</time>
      </trkpt>
      <trkpt lat="45.86608" lon="4.7196">
        <ele>195</ele>
        <time>2018-06-03T08:35:35Z</time>
      </trkpt>
      <trkpt lat="45.86603" lon="4.71956">
        <ele>194</ele>
        <time>2018-06-03T08:35:36Z</time>
      </trkpt>
      <trkpt lat="45.86598" lon="4.71952">
        <ele>194</ele>
        <time>2018-06-03T08:35:37Z</time>
      </trkpt>
      <trkpt lat="45.86592" lon="4.71949">
        <ele>194</ele>
        <time>2018-06-03T08:35:38Z</time>
      </trkpt>
      <trkpt lat="45.86588" lon="4.71946">
        <ele>194</ele>
        <time>2018-06-03T08:35:39Z</time>
      </trkpt>
      <trkpt lat="45.86583" lon="4.71943">
        <ele>196</ele>
        <time>2018-06-03T08:35:40Z</time>
      </trkpt>
      <trkpt lat="45.86576" lon="4.71938">
        <ele>196</ele>
        <time>2018-06-03T08:35:41Z</time>
      </trkpt>
      <trkpt lat="45.8657" lon="4.71936">
        <ele>196</ele>
        <time>2018-06-03T08:35:42Z</time>
      </trkpt>
      <trkpt lat="45.86564" lon="4.71931">
        <ele>196</ele>
        <time>2018-06-03T08:35:43Z</time>
      </trkpt>
      <trkpt lat="45.8656" lon="4.71926">
        <ele>196</ele>
        <time>2018-06-03T08:35:44Z</time>
      </trkpt>
      <trkpt lat="45.86555" lon="4.71924">
        <ele>196</ele>
        <time>2018-06-03T08:35:45Z</time>
      </trkpt>
      <trkpt lat="45.86551" lon="4.7192">
        <ele>196</ele>
        <time>2018-06-03T08:35:46Z</time>
      </trkpt>
      <trkpt lat="45.86547" lon="4.71916">
        <ele>195</ele>
        <time>2018-06-03T08:35:47Z</time>
      </trkpt>
      <trkpt lat="45.86541" lon="4.71911">
        <ele>195</ele>
        <time>2018-06-03T08:35:48Z</time>
      </trkpt>
      <trkpt lat="45.86536" lon="4.71907">
        <ele>195</ele>
        <time>2018-06-03T08:35:49Z</time>
      </trkpt>
      <trkpt lat="45.8653" lon="4.71902">
        <ele>195</ele>
        <time>2018-06-03T08:35:50Z</time>
      </trkpt>
      <trkpt lat="45.86525" lon="4.71897">
        <ele>195</ele>
        <time>2018-06-03T08:35:51Z</time>
      </trkpt>
      <trkpt lat="45.8652" lon="4.71893">
        <ele>195</ele>
        <time>2018-06-03T08:35:52Z</time>
      </trkpt>
      <trkpt lat="45.86513" lon="4.71889">
        <ele>195</ele>
        <time>2018-06-03T08:35:53Z</time>
      </trkpt>
      <trkpt lat="45.86508" lon="4.71885">
        <ele>195</ele>
        <time>2018-06-03T08:35:54Z</time>
      </trkpt>
      <trkpt lat="45.86504" lon="4.71882">
        <ele>195</ele>
        <time>2018-06-03T08:35:55Z</time>
      </trkpt>
      <trkpt lat="45.865" lon="4.71878">
        <ele>195</ele>
        <time>2018-06-03T08:35:56Z</time>
      </trkpt>
      <trkpt lat="45.86496" lon="4.71875">
        <ele>199</ele>
        <time>2018-06-03T08:35:57Z</time>
      </trkpt>
      <trkpt lat="45.86491" lon="4.7187">
        <ele>199</ele>
        <time>2018-06-03T08:35:58Z</time>
      </trkpt>
      <trkpt lat="45.86486" lon="4.71866">
        <ele>199</ele>
        <time>2018-06-03T08:35:59Z</time>
      </trkpt>
      <trkpt lat="45.86482" lon="4.7186">
        <ele>199</ele>
        <time>2018-06-03T08:36:00Z</time>
      </trkpt>
      <trkpt lat="45.86477" lon="4.71858">
        <ele>199</ele>
        <time>2018-06-03T08:36:01Z</time>
      </trkpt>
      <trkpt lat="45.86473" lon="4.71854">
        <ele>199</ele>
        <time>2018-06-03T08:36:02Z</time>
      </trkpt>
      <trkpt lat="45.86467" lon="4.71848">
        <ele>199</ele>
        <time>2018-06-03T08:36:03Z</time>
      </trkpt>
      <trkpt lat="45.86463" lon="4.71846">
        <ele>199</ele>
        <time>2018-06-03T08:36:04Z</time>
      </trkpt>
      <trkpt lat="45.86459" lon="4.71842">
        <ele>200</ele>
        <time>2018-06-03T08:36:05Z</time>
      </trkpt>
      <trkpt lat="45.86451" lon="4.71836">
        <ele>200</ele>
        <time>2018-06-03T08:36:06Z</time>
      </trkpt>
      <trkpt lat="45.86446" lon="4.7183">
        <ele>197</ele>
        <time>2018-06-03T08:36:07Z</time>
      </trkpt>
      <trkpt lat="45.86442" lon="4.71827">
        <ele>198</ele>
        <time>2018-06-03T08:36:08Z</time>
      </trkpt>
      <trkpt lat="45.86437" lon="4.71824">
        <ele>198</ele>
        <time>2018-06-03T08:36:09Z</time>
      </trkpt>
      <trkpt lat="45.86434" lon="4.7182">
        <ele>198</ele>
        <time>2018-06-03T08:36:10Z</time>
      </trkpt>
      <trkpt lat="45.86428" lon="4.71816">
        <ele>198</ele>
        <time>2018-06-03T08:36:11Z</time>
      </trkpt>
      <trkpt lat="45.86423" lon="4.71812">
        <ele>198</ele>
        <time>2018-06-03T08:36:12Z</time>
      </trkpt>
      <trkpt lat="45.86419" lon="4.71807">
        <ele>198</ele>
        <time>2018-06-03T08:36:13Z</time>
      </trkpt>
      <trkpt lat="45.86414" lon="4.71805">
        <ele>199</ele>
        <time>2018-06-03T08:36:14Z</time>
      </trkpt>
      <trkpt lat="45.8641" lon="4.718">
        <ele>199</ele>
        <time>2018-06-03T08:36:15Z</time>
      </trkpt>
      <trkpt lat="45.86404" lon="4.71796">
        <ele>199</ele>
        <time>2018-06-03T08:36:16Z</time>
      </trkpt>
      <trkpt lat="45.864" lon="4.71792">
        <ele>199</ele>
        <time>2018-06-03T08:36:17Z</time>
      </trkpt>
      <trkpt lat="45.86395" lon="4.71788">
        <ele>198</ele>
        <time>2018-06-03T08:36:18Z</time>
      </trkpt>
      <trkpt lat="45.86389" lon="4.71784">
        <ele>198</ele>
        <time>2018-06-03T08:36:19Z</time>
      </trkpt>
      <trkpt lat="45.86386" lon="4.71779">
        <ele>198</ele>
        <time>2018-06-03T08:36:20Z</time>
      </trkpt>
      <trkpt lat="45.86381" lon="4.71776">
        <ele>198</ele>
        <time>2018-06-03T08:36:21Z</time>
      </trkpt>
      <trkpt lat="45.86376" lon="4.71772">
        <ele>198</ele>
        <time>2018-06-03T08:36:22Z</time>
      </trkpt>
      <trkpt lat="45.86372" lon="4.71768">
        <ele>198</ele>
        <time>2018-06-03T08:36:23Z</time>
      </trkpt>
      <trkpt lat="45.86367" lon="4.71763">
        <ele>198</ele>
        <time>2018-06-03T08:36:24Z</time>
      </trkpt>
      <trkpt lat="45.86363" lon="4.71759">
        <ele>198</ele>
        <time>2018-06-03T08:36:25Z</time>
      </trkpt>
      <trkpt lat="45.86358" lon="4.71756">
        <ele>198</ele>
        <time>2018-06-03T08:36:26Z</time>
      </trkpt>
      <trkpt lat="45.86352" lon="4.71753">
        <ele>197</ele>
        <time>2018-06-03T08:36:27Z</time>
      </trkpt>
      <trkpt lat="45.86349" lon="4.71748">
        <ele>195</ele>
        <time>2018-06-03T08:36:28Z</time>
      </trkpt>
      <trkpt lat="45.86344" lon="4.71744">
        <ele>195</ele>
        <time>2018-06-03T08:36:29Z</time>
      </trkpt>
      <trkpt lat="45.8634" lon="4.7174">
        <ele>195</ele>
        <time>2018-06-03T08:36:30Z</time>
      </trkpt>
      <trkpt lat="45.86333" lon="4.71736">
        <ele>196</ele>
        <time>2018-06-03T08:36:31Z</time>
      </trkpt>
      <trkpt lat="45.86328" lon="4.71735">
        <ele>196</ele>
        <time>2018-06-03T08:36:32Z</time>
      </trkpt>
      <trkpt lat="45.86322" lon="4.7173">
        <ele>196</ele>
        <time>2018-06-03T08:36:33Z</time>
      </trkpt>
      <trkpt lat="45.86316" lon="4.71726">
        <ele>196</ele>
        <time>2018-06-03T08:36:34Z</time>
      </trkpt>
      <trkpt lat="45.86311" lon="4.71722">
        <ele>196</ele>
        <time>2018-06-03T08:36:35Z</time>
      </trkpt>
      <trkpt lat="45.86307" lon="4.71722">
        <ele>196</ele>
        <time>2018-06-03T08:36:36Z</time>
      </trkpt>
      <trkpt lat="45.86302" lon="4.71717">
        <ele>196</ele>
        <time>2018-06-03T08:36:37Z</time>
      </trkpt>
      <trkpt lat="45.86297" lon="4.71713">
        <ele>196</ele>
        <time>2018-06-03T08:36:38Z</time>
      </trkpt>
      <trkpt lat="45.86291" lon="4.71708">
        <ele>196</ele>
        <time>2018-06-03T08:36:39Z</time>
      </trkpt>
      <trkpt lat="45.86285" lon="4.71705">
        <ele>195</ele>
        <time>2018-06-03T08:36:40Z</time>
      </trkpt>
      <trkpt lat="45.86281" lon="4.71701">
        <ele>195</ele>
        <time>2018-06-03T08:36:41Z</time>
      </trkpt>
      <trkpt lat="45.86275" lon="4.71696">
        <ele>195</ele>
        <time>2018-06-03T08:36:42Z</time>
      </trkpt>
      <trkpt lat="45.8627" lon="4.71692">
        <ele>195</ele>
        <time>2018-06-03T08:36:43Z</time>
      </trkpt>
      <trkpt lat="45.86265" lon="4.71689">
        <ele>195</ele>
        <time>2018-06-03T08:36:44Z</time>
      </trkpt>
      <trkpt lat="45.86258" lon="4.71683">
        <ele>195</ele>
        <time>2018-06-03T08:36:45Z</time>
      </trkpt>
      <trkpt lat="45.86253" lon="4.71678">
        <ele>195</ele>
        <time>2018-06-03T08:36:46Z</time>
      </trkpt>
      <trkpt lat="45.86244" lon="4.71679">
        <ele>196</ele>
        <time>2018-06-03T08:36:47Z</time>
      </trkpt>
      <trkpt lat="45.86239" lon="4.71675">
        <ele>196</ele>
        <time>2018-06-03T08:36:48Z</time>
      </trkpt>
      <trkpt lat="45.86235" lon="4.7167">
        <ele>196</ele>
        <time>2018-06-03T08:36:49Z</time>
      </trkpt>
      <trkpt lat="45.8623" lon="4.71666">
        <ele>195</ele>
        <time>2018-06-03T08:36:50Z</time>
      </trkpt>
      <trkpt lat="45.86226" lon="4.7166">
        <ele>195</ele>
        <time>2018-06-03T08:36:51Z</time>
      </trkpt>
      <trkpt lat="45.86222" lon="4.71655">
        <ele>195</ele>
        <time>2018-06-03T08:36:52Z</time>
      </trkpt>
      <trkpt lat="45.86216" lon="4.71651">
        <ele>195</ele>
        <time>2018-06-03T08:36:53Z</time>
      </trkpt>
      <trkpt lat="45.86213" lon="4.71645">
        <ele>195</ele>
        <time>2018-06-03T08:36:54Z</time>
      </trkpt>
      <trkpt lat="45.86211" lon="4.71638">
        <ele>195</ele>
        <time>2018-06-03T08:36:55Z</time>
      </trkpt>
      <trkpt lat="45.86209" lon="4.71631">
        <ele>195</ele>
        <time>2018-06-03T08:36:56Z</time>
      </trkpt>
      <trkpt lat="45.86208" lon="4.71624">
        <ele>195</ele>
        <time>2018-06-03T08:36:57Z</time>
      </trkpt>
      <trkpt lat="45.86207" lon="4.71616">
        <ele>195</ele>
        <time>2018-06-03T08:36:58Z</time>
      </trkpt>
      <trkpt lat="45.86203" lon="4.71611">
        <ele>195</ele>
        <time>2018-06-03T08:36:59Z</time>
      </trkpt>
      <trkpt lat="45.862" lon="4.71605">
        <ele>195</ele>
        <time>2018-06-03T08:37:00Z</time>
      </trkpt>
      <trkpt lat="45.86195" lon="4.716">
        <ele>195</ele>
        <time>2018-06-03T08:37:01Z</time>
      </trkpt>
      <trkpt lat="45.86192" lon="4.71597">
        <ele>195</ele>
        <time>2018-06-03T08:37:02Z</time>
      </trkpt>
      <trkpt lat="45.86187" lon="4.7159">
        <ele>196</ele>
        <time>2018-06-03T08:37:03Z</time>
      </trkpt>
      <trkpt lat="45.86183" lon="4.71584">
        <ele>196</ele>
        <time>2018-06-03T08:37:04Z</time>
      </trkpt>
      <trkpt lat="45.8618" lon="4.71578">
        <ele>196</ele>
        <time>2018-06-03T08:37:05Z</time>
      </trkpt>
      <trkpt lat="45.86179" lon="4.71576">
        <ele>196</ele>
        <time>2018-06-03T08:37:06Z</time>
      </trkpt>
      <trkpt lat="45.86174" lon="4.71567">
        <ele>195</ele>
        <time>2018-06-03T08:37:07Z</time>
      </trkpt>
      <trkpt lat="45.86169" lon="4.71562">
        <ele>195</ele>
        <time>2018-06-03T08:37:08Z</time>
      </trkpt>
      <trkpt lat="45.86167" lon="4.71556">
        <ele>195</ele>
        <time>2018-06-03T08:37:09Z</time>
      </trkpt>
      <trkpt lat="45.86164" lon="4.71551">
        <ele>196</ele>
        <time>2018-06-03T08:37:10Z</time>
      </trkpt>
      <trkpt lat="45.86161" lon="4.71544">
        <ele>196</ele>
        <time>2018-06-03T08:37:11Z</time>
      </trkpt>
      <trkpt lat="45.86156" lon="4.71534">
        <ele>195</ele>
        <time>2018-06-03T08:37:13Z</time>
      </trkpt>
      <trkpt lat="45.86153" lon="4.71528">
        <ele>195</ele>
        <time>2018-06-03T08:37:14Z</time>
      </trkpt>
      <trkpt lat="45.8615" lon="4.71523">
        <ele>195</ele>
        <time>2018-06-03T08:37:15Z</time>
      </trkpt>
      <trkpt lat="45.86148" lon="4.71516">
        <ele>195</ele>
        <time>2018-06-03T08:37:16Z</time>
      </trkpt>
      <trkpt lat="45.86146" lon="4.71504">
        <ele>195</ele>
        <time>2018-06-03T08:37:18Z</time>
      </trkpt>
      <trkpt lat="45.86144" lon="4.71499">
        <ele>195</ele>
        <time>2018-06-03T08:37:19Z</time>
      </trkpt>
      <trkpt lat="45.86143" lon="4.71492">
        <ele>195</ele>
        <time>2018-06-03T08:37:20Z</time>
      </trkpt>
      <trkpt lat="45.86139" lon="4.71487">
        <ele>195</ele>
        <time>2018-06-03T08:37:21Z</time>
      </trkpt>
      <trkpt lat="45.86136" lon="4.71481">
        <ele>195</ele>
        <time>2018-06-03T08:37:22Z</time>
      </trkpt>
      <trkpt lat="45.86133" lon="4.71476">
        <ele>195</ele>
        <time>2018-06-03T08:37:23Z</time>
      </trkpt>
      <trkpt lat="45.8613" lon="4.7147">
        <ele>195</ele>
        <time>2018-06-03T08:37:24Z</time>
      </trkpt>
      <trkpt lat="45.86129" lon="4.71464">
        <ele>195</ele>
        <time>2018-06-03T08:37:25Z</time>
      </trkpt>
      <trkpt lat="45.86127" lon="4.71456">
        <ele>195</ele>
        <time>2018-06-03T08:37:26Z</time>
      </trkpt>
      <trkpt lat="45.86125" lon="4.7145">
        <ele>195</ele>
        <time>2018-06-03T08:37:27Z</time>
      </trkpt>
      <trkpt lat="45.86123" lon="4.71442">
        <ele>195</ele>
        <time>2018-06-03T08:37:28Z</time>
      </trkpt>
      <trkpt lat="45.86122" lon="4.71434">
        <ele>195</ele>
        <time>2018-06-03T08:37:29Z</time>
      </trkpt>
      <trkpt lat="45.8612" lon="4.71426">
        <ele>195</ele>
        <time>2018-06-03T08:37:30Z</time>
      </trkpt>
      <trkpt lat="45.86116" lon="4.71419">
        <ele>195</ele>
        <time>2018-06-03T08:37:31Z</time>
      </trkpt>
      <trkpt lat="45.86118" lon="4.71413">
        <ele>196</ele>
        <time>2018-06-03T08:37:32Z</time>
      </trkpt>
      <trkpt lat="45.86116" lon="4.71404">
        <ele>196</ele>
        <time>2018-06-03T08:37:33Z</time>
      </trkpt>
      <trkpt lat="45.86115" lon="4.71395">
        <ele>196</ele>
        <time>2018-06-03T08:37:34Z</time>
      </trkpt>
      <trkpt lat="45.86115" lon="4.71388">
        <ele>196</ele>
        <time>2018-06-03T08:37:35Z</time>
      </trkpt>
      <trkpt lat="45.86115" lon="4.7138">
        <ele>196</ele>
        <time>2018-06-03T08:37:36Z</time>
      </trkpt>
      <trkpt lat="45.86115" lon="4.71373">
        <ele>196</ele>
        <time>2018-06-03T08:37:37Z</time>
      </trkpt>
      <trkpt lat="45.86114" lon="4.71362">
        <ele>196</ele>
        <time>2018-06-03T08:37:39Z</time>
      </trkpt>
      <trkpt lat="45.86114" lon="4.71359">
        <ele>196</ele>
        <time>2018-06-03T08:37:40Z</time>
      </trkpt>
      <trkpt lat="45.86113" lon="4.71352">
        <ele>196</ele>
        <time>2018-06-03T08:37:41Z</time>
      </trkpt>
      <trkpt lat="45.86111" lon="4.71345">
        <ele>196</ele>
        <time>2018-06-03T08:37:42Z</time>
      </trkpt>
      <trkpt lat="45.8611" lon="4.71338">
        <ele>196</ele>
        <time>2018-06-03T08:37:43Z</time>
      </trkpt>
      <trkpt lat="45.8611" lon="4.71331">
        <ele>196</ele>
        <time>2018-06-03T08:37:44Z</time>
      </trkpt>
      <trkpt lat="45.86108" lon="4.71323">
        <ele>196</ele>
        <time>2018-06-03T08:37:45Z</time>
      </trkpt>
      <trkpt lat="45.86106" lon="4.71314">
        <ele>196</ele>
        <time>2018-06-03T08:37:46Z</time>
      </trkpt>
      <trkpt lat="45.86105" lon="4.71307">
        <ele>196</ele>
        <time>2018-06-03T08:37:47Z</time>
      </trkpt>
      <trkpt lat="45.86104" lon="4.713">
        <ele>197</ele>
        <time>2018-06-03T08:37:48Z</time>
      </trkpt>
      <trkpt lat="45.86101" lon="4.71294">
        <ele>197</ele>
        <time>2018-06-03T08:37:49Z</time>
      </trkpt>
      <trkpt lat="45.861" lon="4.71288">
        <ele>197</ele>
        <time>2018-06-03T08:37:50Z</time>
      </trkpt>
      <trkpt lat="45.861" lon="4.71277">
        <ele>197</ele>
        <time>2018-06-03T08:37:52Z</time>
      </trkpt>
      <trkpt lat="45.86095" lon="4.71271">
        <ele>197</ele>
        <time>2018-06-03T08:37:53Z</time>
      </trkpt>
      <trkpt lat="45.86091" lon="4.71262">
        <ele>197</ele>
        <time>2018-06-03T08:37:55Z</time>
      </trkpt>
      <trkpt lat="45.86087" lon="4.71259">
        <ele>197</ele>
        <time>2018-06-03T08:37:56Z</time>
      </trkpt>
      <trkpt lat="45.86084" lon="4.71253">
        <ele>198</ele>
        <time>2018-06-03T08:37:57Z</time>
      </trkpt>
      <trkpt lat="45.86083" lon="4.71247">
        <ele>198</ele>
        <time>2018-06-03T08:37:58Z</time>
      </trkpt>
      <trkpt lat="45.86082" lon="4.71234">
        <ele>198</ele>
        <time>2018-06-03T08:38:00Z</time>
      </trkpt>
      <trkpt lat="45.86083" lon="4.71227">
        <ele>198</ele>
        <time>2018-06-03T08:38:01Z</time>
      </trkpt>
      <trkpt lat="45.86084" lon="4.7122">
        <ele>197</ele>
        <time>2018-06-03T08:38:02Z</time>
      </trkpt>
      <trkpt lat="45.86085" lon="4.71214">
        <ele>197</ele>
        <time>2018-06-03T08:38:03Z</time>
      </trkpt>
      <trkpt lat="45.86087" lon="4.71204">
        <ele>197</ele>
        <time>2018-06-03T08:38:05Z</time>
      </trkpt>
      <trkpt lat="45.86088" lon="4.71197">
        <ele>197</ele>
        <time>2018-06-03T08:38:06Z</time>
      </trkpt>
      <trkpt lat="45.86089" lon="4.71188">
        <ele>197</ele>
        <time>2018-06-03T08:38:07Z</time>
      </trkpt>
      <trkpt lat="45.8609" lon="4.71181">
        <ele>197</ele>
        <time>2018-06-03T08:38:08Z</time>
      </trkpt>
      <trkpt lat="45.86091" lon="4.71168">
        <ele>198</ele>
        <time>2018-06-03T08:38:10Z</time>
      </trkpt>
      <trkpt lat="45.86091" lon="4.71161">
        <ele>197</ele>
        <time>2018-06-03T08:38:11Z</time>
      </trkpt>
      <trkpt lat="45.86091" lon="4.71153">
        <ele>197</ele>
        <time>2018-06-03T08:38:12Z</time>
      </trkpt>
      <trkpt lat="45.86088" lon="4.71146">
        <ele>197</ele>
        <time>2018-06-03T08:38:13Z</time>
      </trkpt>
      <trkpt lat="45.86083" lon="4.71138">
        <ele>197</ele>
        <time>2018-06-03T08:38:14Z</time>
      </trkpt>
      <trkpt lat="45.86084" lon="4.71131">
        <ele>196</ele>
        <time>2018-06-03T08:38:15Z</time>
      </trkpt>
      <trkpt lat="45.86077" lon="4.71128">
        <ele>197</ele>
        <time>2018-06-03T08:38:16Z</time>
      </trkpt>
      <trkpt lat="45.86074" lon="4.71124">
        <ele>197</ele>
        <time>2018-06-03T08:38:17Z</time>
      </trkpt>
      <trkpt lat="45.8607" lon="4.71122">
        <ele>197</ele>
        <time>2018-06-03T08:38:18Z</time>
      </trkpt>
      <trkpt lat="45.86066" lon="4.71118">
        <ele>197</ele>
        <time>2018-06-03T08:38:19Z</time>
      </trkpt>
      <trkpt lat="45.86058" lon="4.71113">
        <ele>197</ele>
        <time>2018-06-03T08:38:21Z</time>
      </trkpt>
      <trkpt lat="45.86054" lon="4.71109">
        <ele>197</ele>
        <time>2018-06-03T08:38:22Z</time>
      </trkpt>
      <trkpt lat="45.86051" lon="4.71103">
        <ele>197</ele>
        <time>2018-06-03T08:38:23Z</time>
      </trkpt>
      <trkpt lat="45.86048" lon="4.71096">
        <ele>197</ele>
        <time>2018-06-03T08:38:24Z</time>
      </trkpt>
      <trkpt lat="45.86045" lon="4.71091">
        <ele>197</ele>
        <time>2018-06-03T08:38:25Z</time>
      </trkpt>
      <trkpt lat="45.86042" lon="4.71084">
        <ele>197</ele>
        <time>2018-06-03T08:38:26Z</time>
      </trkpt>
      <trkpt lat="45.86041" lon="4.71078">
        <ele>197</ele>
        <time>2018-06-03T08:38:27Z</time>
      </trkpt>
      <trkpt lat="45.86039" lon="4.71072">
        <ele>197</ele>
        <time>2018-06-03T08:38:28Z</time>
      </trkpt>
      <trkpt lat="45.86039" lon="4.71065">
        <ele>197</ele>
        <time>2018-06-03T08:38:29Z</time>
      </trkpt>
      <trkpt lat="45.86036" lon="4.71058">
        <ele>197</ele>
        <time>2018-06-03T08:38:30Z</time>
      </trkpt>
      <trkpt lat="45.86035" lon="4.71052">
        <ele>197</ele>
        <time>2018-06-03T08:38:31Z</time>
      </trkpt>
      <trkpt lat="45.86033" lon="4.71044">
        <ele>197</ele>
        <time>2018-06-03T08:38:32Z</time>
      </trkpt>
      <trkpt lat="45.86033" lon="4.71037">
        <ele>197</ele>
        <time>2018-06-03T08:38:33Z</time>
      </trkpt>
      <trkpt lat="45.86032" lon="4.7103">
        <ele>197</ele>
        <time>2018-06-03T08:38:34Z</time>
      </trkpt>
      <trkpt lat="45.86029" lon="4.71018">
        <ele>197</ele>
        <time>2018-06-03T08:38:36Z</time>
      </trkpt>
      <trkpt lat="45.86026" lon="4.71013">
        <ele>197</ele>
        <time>2018-06-03T08:38:37Z</time>
      </trkpt>
      <trkpt lat="45.86021" lon="4.71008">
        <ele>197</ele>
        <time>2018-06-03T08:38:38Z</time>
      </trkpt>
      <trkpt lat="45.86017" lon="4.71004">
        <ele>197</ele>
        <time>2018-06-03T08:38:39Z</time>
      </trkpt>
      <trkpt lat="45.86013" lon="4.70999">
        <ele>197</ele>
        <time>2018-06-03T08:38:40Z</time>
      </trkpt>
      <trkpt lat="45.86011" lon="4.70994">
        <ele>197</ele>
        <time>2018-06-03T08:38:41Z</time>
      </trkpt>
      <trkpt lat="45.86007" lon="4.70991">
        <ele>197</ele>
        <time>2018-06-03T08:38:42Z</time>
      </trkpt>
      <trkpt lat="45.86001" lon="4.70988">
        <ele>197</ele>
        <time>2018-06-03T08:38:43Z</time>
      </trkpt>
      <trkpt lat="45.85996" lon="4.70983">
        <ele>197</ele>
        <time>2018-06-03T08:38:44Z</time>
      </trkpt>
      <trkpt lat="45.85991" lon="4.70981">
        <ele>197</ele>
        <time>2018-06-03T08:38:45Z</time>
      </trkpt>
      <trkpt lat="45.85986" lon="4.70978">
        <ele>197</ele>
        <time>2018-06-03T08:38:46Z</time>
      </trkpt>
      <trkpt lat="45.8598" lon="4.70975">
        <ele>197</ele>
        <time>2018-06-03T08:38:47Z</time>
      </trkpt>
      <trkpt lat="45.85976" lon="4.70972">
        <ele>197</ele>
        <time>2018-06-03T08:38:48Z</time>
      </trkpt>
      <trkpt lat="45.8597" lon="4.70969">
        <ele>197</ele>
        <time>2018-06-03T08:38:49Z</time>
      </trkpt>
      <trkpt lat="45.85965" lon="4.70969">
        <ele>197</ele>
        <time>2018-06-03T08:38:50Z</time>
      </trkpt>
      <trkpt lat="45.85961" lon="4.70969">
        <ele>197</ele>
        <time>2018-06-03T08:38:51Z</time>
      </trkpt>
      <trkpt lat="45.85956" lon="4.70969">
        <ele>197</ele>
        <time>2018-06-03T08:38:52Z</time>
      </trkpt>
      <trkpt lat="45.85951" lon="4.70969">
        <ele>197</ele>
        <time>2018-06-03T08:38:53Z</time>
      </trkpt>
      <trkpt lat="45.85942" lon="4.70966">
        <ele>197</ele>
        <time>2018-06-03T08:38:55Z</time>
      </trkpt>
      <trkpt lat="45.85939" lon="4.70964">
        <ele>197</ele>
        <time>2018-06-03T08:38:56Z</time>
      </trkpt>
      <trkpt lat="45.85938" lon="4.70954">
        <ele>197</ele>
        <time>2018-06-03T08:38:59Z</time>
      </trkpt>
      <trkpt lat="45.85939" lon="4.70942">
        <ele>197</ele>
        <time>2018-06-03T08:39:00Z</time>
      </trkpt>
      <trkpt lat="45.85943" lon="4.70931">
        <ele>197</ele>
        <time>2018-06-03T08:39:02Z</time>
      </trkpt>
      <trkpt lat="45.85944" lon="4.70925">
        <ele>197</ele>
        <time>2018-06-03T08:39:03Z</time>
      </trkpt>
      <trkpt lat="45.85946" lon="4.70919">
        <ele>197</ele>
        <time>2018-06-03T08:39:04Z</time>
      </trkpt>
      <trkpt lat="45.85946" lon="4.70912">
        <ele>197</ele>
        <time>2018-06-03T08:39:05Z</time>
      </trkpt>
      <trkpt lat="45.85948" lon="4.70905">
        <ele>197</ele>
        <time>2018-06-03T08:39:06Z</time>
      </trkpt>
      <trkpt lat="45.85951" lon="4.70897">
        <ele>197</ele>
        <time>2018-06-03T08:39:07Z</time>
      </trkpt>
      <trkpt lat="45.85953" lon="4.70891">
        <ele>197</ele>
        <time>2018-06-03T08:39:08Z</time>
      </trkpt>
      <trkpt lat="45.85953" lon="4.70885">
        <ele>197</ele>
        <time>2018-06-03T08:39:09Z</time>
      </trkpt>
      <trkpt lat="45.85954" lon="4.70874">
        <ele>196</ele>
        <time>2018-06-03T08:39:11Z</time>
      </trkpt>
      <trkpt lat="45.85955" lon="4.70867">
        <ele>196</ele>
        <time>2018-06-03T08:39:12Z</time>
      </trkpt>
      <trkpt lat="45.85956" lon="4.7086">
        <ele>196</ele>
        <time>2018-06-03T08:39:13Z</time>
      </trkpt>
      <trkpt lat="45.85955" lon="4.70854">
        <ele>196</ele>
        <time>2018-06-03T08:39:14Z</time>
      </trkpt>
      <trkpt lat="45.85956" lon="4.70848">
        <ele>196</ele>
        <time>2018-06-03T08:39:15Z</time>
      </trkpt>
      <trkpt lat="45.85957" lon="4.7084">
        <ele>196</ele>
        <time>2018-06-03T08:39:16Z</time>
      </trkpt>
      <trkpt lat="45.85957" lon="4.70831">
        <ele>196</ele>
        <time>2018-06-03T08:39:17Z</time>
      </trkpt>
      <trkpt lat="45.85957" lon="4.70824">
        <ele>195</ele>
        <time>2018-06-03T08:39:18Z</time>
      </trkpt>
      <trkpt lat="45.85956" lon="4.70816">
        <ele>195</ele>
        <time>2018-06-03T08:39:19Z</time>
      </trkpt>
      <trkpt lat="45.85954" lon="4.70809">
        <ele>195</ele>
        <time>2018-06-03T08:39:20Z</time>
      </trkpt>
      <trkpt lat="45.85954" lon="4.70802">
        <ele>195</ele>
        <time>2018-06-03T08:39:21Z</time>
      </trkpt>
      <trkpt lat="45.85953" lon="4.70796">
        <ele>195</ele>
        <time>2018-06-03T08:39:22Z</time>
      </trkpt>
      <trkpt lat="45.85954" lon="4.7079">
        <ele>195</ele>
        <time>2018-06-03T08:39:23Z</time>
      </trkpt>
      <trkpt lat="45.85955" lon="4.70782">
        <ele>195</ele>
        <time>2018-06-03T08:39:24Z</time>
      </trkpt>
      <trkpt lat="45.85956" lon="4.70774">
        <ele>195</ele>
        <time>2018-06-03T08:39:25Z</time>
      </trkpt>
      <trkpt lat="45.85957" lon="4.70765">
        <ele>195</ele>
        <time>2018-06-03T08:39:26Z</time>
      </trkpt>
      <trkpt lat="45.85957" lon="4.70759">
        <ele>195</ele>
        <time>2018-06-03T08:39:27Z</time>
      </trkpt>
      <trkpt lat="45.85958" lon="4.70751">
        <ele>195</ele>
        <time>2018-06-03T08:39:28Z</time>
      </trkpt>
      <trkpt lat="45.85958" lon="4.70743">
        <ele>194</ele>
        <time>2018-06-03T08:39:29Z</time>
      </trkpt>
      <trkpt lat="45.85959" lon="4.70735">
        <ele>194</ele>
        <time>2018-06-03T08:39:30Z</time>
      </trkpt>
      <trkpt lat="45.85958" lon="4.70728">
        <ele>194</ele>
        <time>2018-06-03T08:39:31Z</time>
      </trkpt>
      <trkpt lat="45.85959" lon="4.70721">
        <ele>194</ele>
        <time>2018-06-03T08:39:32Z</time>
      </trkpt>
      <trkpt lat="45.85958" lon="4.70714">
        <ele>194</ele>
        <time>2018-06-03T08:39:33Z</time>
      </trkpt>
      <trkpt lat="45.85958" lon="4.70707">
        <ele>194</ele>
        <time>2018-06-03T08:39:34Z</time>
      </trkpt>
      <trkpt lat="45.85957" lon="4.707">
        <ele>194</ele>
        <time>2018-06-03T08:39:35Z</time>
      </trkpt>
      <trkpt lat="45.85959" lon="4.70694">
        <ele>194</ele>
        <time>2018-06-03T08:39:36Z</time>
      </trkpt>
      <trkpt lat="45.85961" lon="4.70686">
        <ele>194</ele>
        <time>2018-06-03T08:39:37Z</time>
      </trkpt>
      <trkpt lat="45.8596" lon="4.70681">
        <ele>194</ele>
        <time>2018-06-03T08:39:38Z</time>
      </trkpt>
      <trkpt lat="45.85957" lon="4.70674">
        <ele>194</ele>
        <time>2018-06-03T08:39:39Z</time>
      </trkpt>
      <trkpt lat="45.85953" lon="4.70666">
        <ele>194</ele>
        <time>2018-06-03T08:39:40Z</time>
      </trkpt>
      <trkpt lat="45.85948" lon="4.7066">
        <ele>194</ele>
        <time>2018-06-03T08:39:41Z</time>
      </trkpt>
      <trkpt lat="45.85947" lon="4.70655">
        <ele>194</ele>
        <time>2018-06-03T08:39:42Z</time>
      </trkpt>
      <trkpt lat="45.85944" lon="4.70649">
        <ele>194</ele>
        <time>2018-06-03T08:39:43Z</time>
      </trkpt>
      <trkpt lat="45.85939" lon="4.70644">
        <ele>194</ele>
        <time>2018-06-03T08:39:44Z</time>
      </trkpt>
      <trkpt lat="45.85935" lon="4.70639">
        <ele>194</ele>
        <time>2018-06-03T08:39:45Z</time>
      </trkpt>
      <trkpt lat="45.8593" lon="4.70634">
        <ele>194</ele>
        <time>2018-06-03T08:39:46Z</time>
      </trkpt>
      <trkpt lat="45.85927" lon="4.70629">
        <ele>194</ele>
        <time>2018-06-03T08:39:47Z</time>
      </trkpt>
      <trkpt lat="45.85924" lon="4.70623">
        <ele>194</ele>
        <time>2018-06-03T08:39:48Z</time>
      </trkpt>
      <trkpt lat="45.85919" lon="4.70619">
        <ele>194</ele>
        <time>2018-06-03T08:39:49Z</time>
      </trkpt>
      <trkpt lat="45.85917" lon="4.70613">
        <ele>195</ele>
        <time>2018-06-03T08:39:50Z</time>
      </trkpt>
      <trkpt lat="45.85914" lon="4.70608">
        <ele>195</ele>
        <time>2018-06-03T08:39:51Z</time>
      </trkpt>
      <trkpt lat="45.85911" lon="4.70604">
        <ele>195</ele>
        <time>2018-06-03T08:39:52Z</time>
      </trkpt>
      <trkpt lat="45.85907" lon="4.70598">
        <ele>195</ele>
        <time>2018-06-03T08:39:53Z</time>
      </trkpt>
      <trkpt lat="45.85903" lon="4.70594">
        <ele>195</ele>
        <time>2018-06-03T08:39:54Z</time>
      </trkpt>
      <trkpt lat="45.85899" lon="4.7059">
        <ele>195</ele>
        <time>2018-06-03T08:39:55Z</time>
      </trkpt>
      <trkpt lat="45.85895" lon="4.70586">
        <ele>195</ele>
        <time>2018-06-03T08:39:56Z</time>
      </trkpt>
      <trkpt lat="45.8589" lon="4.70587">
        <ele>195</ele>
        <time>2018-06-03T08:39:58Z</time>
      </trkpt>
      <trkpt lat="45.8588" lon="4.7058">
        <ele>195</ele>
        <time>2018-06-03T08:39:59Z</time>
      </trkpt>
      <trkpt lat="45.85874" lon="4.70579">
        <ele>195</ele>
        <time>2018-06-03T08:40:00Z</time>
      </trkpt>
      <trkpt lat="45.8587" lon="4.70577">
        <ele>195</ele>
        <time>2018-06-03T08:40:01Z</time>
      </trkpt>
      <trkpt lat="45.85868" lon="4.70576">
        <ele>195</ele>
        <time>2018-06-03T08:40:02Z</time>
      </trkpt>
      <trkpt lat="45.8586" lon="4.70572">
        <ele>195</ele>
        <time>2018-06-03T08:40:03Z</time>
      </trkpt>
      <trkpt lat="45.85856" lon="4.70567">
        <ele>195</ele>
        <time>2018-06-03T08:40:04Z</time>
      </trkpt>
      <trkpt lat="45.85852" lon="4.70564">
        <ele>195</ele>
        <time>2018-06-03T08:40:05Z</time>
      </trkpt>
      <trkpt lat="45.85846" lon="4.70559">
        <ele>195</ele>
        <time>2018-06-03T08:40:07Z</time>
      </trkpt>
      <trkpt lat="45.85842" lon="4.70557">
        <ele>195</ele>
        <time>2018-06-03T08:40:08Z</time>
      </trkpt>
      <trkpt lat="45.85833" lon="4.70557">
        <ele>195</ele>
        <time>2018-06-03T08:40:09Z</time>
      </trkpt>
      <trkpt lat="45.85828" lon="4.70554">
        <ele>195</ele>
        <time>2018-06-03T08:40:10Z</time>
      </trkpt>
      <trkpt lat="45.8582" lon="4.7055">
        <ele>195</ele>
        <time>2018-06-03T08:40:12Z</time>
      </trkpt>
      <trkpt lat="45.85815" lon="4.70549">
        <ele>195</ele>
        <time>2018-06-03T08:40:13Z</time>
      </trkpt>
      <trkpt lat="45.85808" lon="4.70548">
        <ele>195</ele>
        <time>2018-06-03T08:40:14Z</time>
      </trkpt>
      <trkpt lat="45.85804" lon="4.70544">
        <ele>195</ele>
        <time>2018-06-03T08:40:15Z</time>
      </trkpt>
      <trkpt lat="45.85799" lon="4.70541">
        <ele>195</ele>
        <time>2018-06-03T08:40:16Z</time>
      </trkpt>
      <trkpt lat="45.85796" lon="4.70538">
        <ele>195</ele>
        <time>2018-06-03T08:40:17Z</time>
      </trkpt>
      <trkpt lat="45.8579" lon="4.70535">
        <ele>196</ele>
        <time>2018-06-03T08:40:18Z</time>
      </trkpt>
      <trkpt lat="45.85786" lon="4.70533">
        <ele>196</ele>
        <time>2018-06-03T08:40:19Z</time>
      </trkpt>
      <trkpt lat="45.85783" lon="4.7053">
        <ele>196</ele>
        <time>2018-06-03T08:40:20Z</time>
      </trkpt>
      <trkpt lat="45.85778" lon="4.70527">
        <ele>196</ele>
        <time>2018-06-03T08:40:21Z</time>
      </trkpt>
      <trkpt lat="45.85773" lon="4.70524">
        <ele>196</ele>
        <time>2018-06-03T08:40:22Z</time>
      </trkpt>
      <trkpt lat="45.85768" lon="4.70522">
        <ele>196</ele>
        <time>2018-06-03T08:40:23Z</time>
      </trkpt>
      <trkpt lat="45.85765" lon="4.70518">
        <ele>196</ele>
        <time>2018-06-03T08:40:24Z</time>
      </trkpt>
      <trkpt lat="45.85761" lon="4.70514">
        <ele>196</ele>
        <time>2018-06-03T08:40:25Z</time>
      </trkpt>
      <trkpt lat="45.85756" lon="4.70511">
        <ele>196</ele>
        <time>2018-06-03T08:40:26Z</time>
      </trkpt>
      <trkpt lat="45.85751" lon="4.7051">
        <ele>196</ele>
        <time>2018-06-03T08:40:27Z</time>
      </trkpt>
      <trkpt lat="45.85744" lon="4.70503">
        <ele>196</ele>
        <time>2018-06-03T08:40:29Z</time>
      </trkpt>
      <trkpt lat="45.85742" lon="4.70497">
        <ele>196</ele>
        <time>2018-06-03T08:40:30Z</time>
      </trkpt>
      <trkpt lat="45.85735" lon="4.7049">
        <ele>196</ele>
        <time>2018-06-03T08:40:32Z</time>
      </trkpt>
      <trkpt lat="45.85732" lon="4.70484">
        <ele>196</ele>
        <time>2018-06-03T08:40:33Z</time>
      </trkpt>
      <trkpt lat="45.85728" lon="4.70476">
        <ele>196</ele>
        <time>2018-06-03T08:40:35Z</time>
      </trkpt>
      <trkpt lat="45.85725" lon="4.7047">
        <ele>196</ele>
        <time>2018-06-03T08:40:36Z</time>
      </trkpt>
      <trkpt lat="45.85725" lon="4.70462">
        <ele>196</ele>
        <time>2018-06-03T08:40:37Z</time>
      </trkpt>
      <trkpt lat="45.85724" lon="4.70454">
        <ele>196</ele>
        <time>2018-06-03T08:40:38Z</time>
      </trkpt>
      <trkpt lat="45.85722" lon="4.70446">
        <ele>196</ele>
        <time>2018-06-03T08:40:39Z</time>
      </trkpt>
      <trkpt lat="45.85721" lon="4.70439">
        <ele>196</ele>
        <time>2018-06-03T08:40:40Z</time>
      </trkpt>
      <trkpt lat="45.85721" lon="4.70431">
        <ele>196</ele>
        <time>2018-06-03T08:40:41Z</time>
      </trkpt>
      <trkpt lat="45.8572" lon="4.70424">
        <ele>196</ele>
        <time>2018-06-03T08:40:42Z</time>
      </trkpt>
      <trkpt lat="45.85718" lon="4.70417">
        <ele>196</ele>
        <time>2018-06-03T08:40:43Z</time>
      </trkpt>
      <trkpt lat="45.85716" lon="4.70407">
        <ele>196</ele>
        <time>2018-06-03T08:40:44Z</time>
      </trkpt>
      <trkpt lat="45.85715" lon="4.70399">
        <ele>196</ele>
        <time>2018-06-03T08:40:45Z</time>
      </trkpt>
      <trkpt lat="45.85714" lon="4.70391">
        <ele>196</ele>
        <time>2018-06-03T08:40:46Z</time>
      </trkpt>
      <trkpt lat="45.85713" lon="4.70382">
        <ele>196</ele>
        <time>2018-06-03T08:40:47Z</time>
      </trkpt>
      <trkpt lat="45.85712" lon="4.70374">
        <ele>196</ele>
        <time>2018-06-03T08:40:48Z</time>
      </trkpt>
      <trkpt lat="45.85711" lon="4.70365">
        <ele>196</ele>
        <time>2018-06-03T08:40:49Z</time>
      </trkpt>
      <trkpt lat="45.8571" lon="4.70357">
        <ele>196</ele>
        <time>2018-06-03T08:40:50Z</time>
      </trkpt>
      <trkpt lat="45.85709" lon="4.70349">
        <ele>196</ele>
        <time>2018-06-03T08:40:51Z</time>
      </trkpt>
      <trkpt lat="45.85708" lon="4.70341">
        <ele>196</ele>
        <time>2018-06-03T08:40:52Z</time>
      </trkpt>
      <trkpt lat="45.85706" lon="4.70332">
        <ele>197</ele>
        <time>2018-06-03T08:40:53Z</time>
      </trkpt>
      <trkpt lat="45.85705" lon="4.70324">
        <ele>197</ele>
        <time>2018-06-03T08:40:54Z</time>
      </trkpt>
      <trkpt lat="45.85703" lon="4.70315">
        <ele>197</ele>
        <time>2018-06-03T08:40:55Z</time>
      </trkpt>
      <trkpt lat="45.85703" lon="4.70307">
        <ele>197</ele>
        <time>2018-06-03T08:40:56Z</time>
      </trkpt>
      <trkpt lat="45.85701" lon="4.70298">
        <ele>197</ele>
        <time>2018-06-03T08:40:57Z</time>
      </trkpt>
      <trkpt lat="45.85701" lon="4.7029">
        <ele>197</ele>
        <time>2018-06-03T08:40:58Z</time>
      </trkpt>
      <trkpt lat="45.857" lon="4.70281">
        <ele>197</ele>
        <time>2018-06-03T08:40:59Z</time>
      </trkpt>
      <trkpt lat="45.85699" lon="4.70274">
        <ele>197</ele>
        <time>2018-06-03T08:41:00Z</time>
      </trkpt>
      <trkpt lat="45.85698" lon="4.70265">
        <ele>197</ele>
        <time>2018-06-03T08:41:01Z</time>
      </trkpt>
      <trkpt lat="45.85696" lon="4.70258">
        <ele>197</ele>
        <time>2018-06-03T08:41:02Z</time>
      </trkpt>
      <trkpt lat="45.85696" lon="4.7025">
        <ele>197</ele>
        <time>2018-06-03T08:41:03Z</time>
      </trkpt>
      <trkpt lat="45.85695" lon="4.70241">
        <ele>197</ele>
        <time>2018-06-03T08:41:04Z</time>
      </trkpt>
      <trkpt lat="45.85694" lon="4.70233">
        <ele>197</ele>
        <time>2018-06-03T08:41:05Z</time>
      </trkpt>
      <trkpt lat="45.85694" lon="4.70226">
        <ele>197</ele>
        <time>2018-06-03T08:41:06Z</time>
      </trkpt>
      <trkpt lat="45.85693" lon="4.70217">
        <ele>197</ele>
        <time>2018-06-03T08:41:07Z</time>
      </trkpt>
      <trkpt lat="45.85692" lon="4.70209">
        <ele>197</ele>
        <time>2018-06-03T08:41:08Z</time>
      </trkpt>
      <trkpt lat="45.8569" lon="4.702">
        <ele>197</ele>
        <time>2018-06-03T08:41:09Z</time>
      </trkpt>
      <trkpt lat="45.85689" lon="4.70192">
        <ele>197</ele>
        <time>2018-06-03T08:41:10Z</time>
      </trkpt>
      <trkpt lat="45.85687" lon="4.70184">
        <ele>197</ele>
        <time>2018-06-03T08:41:11Z</time>
      </trkpt>
      <trkpt lat="45.85686" lon="4.70175">
        <ele>197</ele>
        <time>2018-06-03T08:41:12Z</time>
      </trkpt>
      <trkpt lat="45.85684" lon="4.70167">
        <ele>197</ele>
        <time>2018-06-03T08:41:13Z</time>
      </trkpt>
      <trkpt lat="45.85681" lon="4.7016">
        <ele>197</ele>
        <time>2018-06-03T08:41:14Z</time>
      </trkpt>
      <trkpt lat="45.85679" lon="4.70154">
        <ele>197</ele>
        <time>2018-06-03T08:41:15Z</time>
      </trkpt>
      <trkpt lat="45.85677" lon="4.70146">
        <ele>197</ele>
        <time>2018-06-03T08:41:16Z</time>
      </trkpt>
      <trkpt lat="45.85678" lon="4.70141">
        <ele>197</ele>
        <time>2018-06-03T08:41:17Z</time>
      </trkpt>
      <trkpt lat="45.85675" lon="4.70133">
        <ele>197</ele>
        <time>2018-06-03T08:41:18Z</time>
      </trkpt>
      <trkpt lat="45.85675" lon="4.70125">
        <ele>197</ele>
        <time>2018-06-03T08:41:19Z</time>
      </trkpt>
      <trkpt lat="45.85674" lon="4.70117">
        <ele>197</ele>
        <time>2018-06-03T08:41:20Z</time>
      </trkpt>
      <trkpt lat="45.85674" lon="4.70111">
        <ele>197</ele>
        <time>2018-06-03T08:41:21Z</time>
      </trkpt>
      <trkpt lat="45.85675" lon="4.70103">
        <ele>196</ele>
        <time>2018-06-03T08:41:22Z</time>
      </trkpt>
      <trkpt lat="45.85677" lon="4.70091">
        <ele>196</ele>
        <time>2018-06-03T08:41:24Z</time>
      </trkpt>
      <trkpt lat="45.85677" lon="4.70084">
        <ele>196</ele>
        <time>2018-06-03T08:41:25Z</time>
      </trkpt>
      <trkpt lat="45.85679" lon="4.70072">
        <ele>196</ele>
        <time>2018-06-03T08:41:27Z</time>
      </trkpt>
      <trkpt lat="45.8568" lon="4.70067">
        <ele>196</ele>
        <time>2018-06-03T08:41:28Z</time>
      </trkpt>
      <trkpt lat="45.85685" lon="4.70056">
        <ele>195</ele>
        <time>2018-06-03T08:41:30Z</time>
      </trkpt>
      <trkpt lat="45.85687" lon="4.70051">
        <ele>195</ele>
        <time>2018-06-03T08:41:31Z</time>
      </trkpt>
      <trkpt lat="45.85689" lon="4.70043">
        <ele>195</ele>
        <time>2018-06-03T08:41:32Z</time>
      </trkpt>
      <trkpt lat="45.8569" lon="4.70035">
        <ele>195</ele>
        <time>2018-06-03T08:41:33Z</time>
      </trkpt>
      <trkpt lat="45.85692" lon="4.70028">
        <ele>195</ele>
        <time>2018-06-03T08:41:34Z</time>
      </trkpt>
      <trkpt lat="45.85693" lon="4.70021">
        <ele>195</ele>
        <time>2018-06-03T08:41:35Z</time>
      </trkpt>
      <trkpt lat="45.85692" lon="4.70013">
        <ele>195</ele>
        <time>2018-06-03T08:41:36Z</time>
      </trkpt>
      <trkpt lat="45.85692" lon="4.70007">
        <ele>195</ele>
        <time>2018-06-03T08:41:37Z</time>
      </trkpt>
      <trkpt lat="45.85691" lon="4.69999">
        <ele>195</ele>
        <time>2018-06-03T08:41:38Z</time>
      </trkpt>
      <trkpt lat="45.85691" lon="4.69993">
        <ele>195</ele>
        <time>2018-06-03T08:41:39Z</time>
      </trkpt>
      <trkpt lat="45.8569" lon="4.69986">
        <ele>195</ele>
        <time>2018-06-03T08:41:40Z</time>
      </trkpt>
      <trkpt lat="45.85689" lon="4.69978">
        <ele>195</ele>
        <time>2018-06-03T08:41:41Z</time>
      </trkpt>
      <trkpt lat="45.85688" lon="4.6997">
        <ele>195</ele>
        <time>2018-06-03T08:41:42Z</time>
      </trkpt>
      <trkpt lat="45.85686" lon="4.69963">
        <ele>195</ele>
        <time>2018-06-03T08:41:43Z</time>
      </trkpt>
      <trkpt lat="45.85684" lon="4.69955">
        <ele>195</ele>
        <time>2018-06-03T08:41:44Z</time>
      </trkpt>
      <trkpt lat="45.85682" lon="4.69948">
        <ele>195</ele>
        <time>2018-06-03T08:41:45Z</time>
      </trkpt>
      <trkpt lat="45.8568" lon="4.69939">
        <ele>195</ele>
        <time>2018-06-03T08:41:46Z</time>
      </trkpt>
      <trkpt lat="45.85678" lon="4.69931">
        <ele>195</ele>
        <time>2018-06-03T08:41:47Z</time>
      </trkpt>
      <trkpt lat="45.85674" lon="4.69923">
        <ele>195</ele>
        <time>2018-06-03T08:41:48Z</time>
      </trkpt>
      <trkpt lat="45.85671" lon="4.69914">
        <ele>195</ele>
        <time>2018-06-03T08:41:49Z</time>
      </trkpt>
      <trkpt lat="45.8567" lon="4.69907">
        <ele>195</ele>
        <time>2018-06-03T08:41:50Z</time>
      </trkpt>
      <trkpt lat="45.85668" lon="4.69898">
        <ele>195</ele>
        <time>2018-06-03T08:41:51Z</time>
      </trkpt>
      <trkpt lat="45.85667" lon="4.69888">
        <ele>195</ele>
        <time>2018-06-03T08:41:52Z</time>
      </trkpt>
      <trkpt lat="45.85666" lon="4.6988">
        <ele>195</ele>
        <time>2018-06-03T08:41:53Z</time>
      </trkpt>
      <trkpt lat="45.85664" lon="4.69873">
        <ele>195</ele>
        <time>2018-06-03T08:41:54Z</time>
      </trkpt>
      <trkpt lat="45.85664" lon="4.69866">
        <ele>195</ele>
        <time>2018-06-03T08:41:55Z</time>
      </trkpt>
      <trkpt lat="45.85663" lon="4.69857">
        <ele>195</ele>
        <time>2018-06-03T08:41:56Z</time>
      </trkpt>
      <trkpt lat="45.85663" lon="4.69849">
        <ele>195</ele>
        <time>2018-06-03T08:41:57Z</time>
      </trkpt>
      <trkpt lat="45.85662" lon="4.69841">
        <ele>195</ele>
        <time>2018-06-03T08:41:58Z</time>
      </trkpt>
      <trkpt lat="45.85663" lon="4.69834">
        <ele>195</ele>
        <time>2018-06-03T08:41:59Z</time>
      </trkpt>
      <trkpt lat="45.85662" lon="4.69826">
        <ele>195</ele>
        <time>2018-06-03T08:42:00Z</time>
      </trkpt>
      <trkpt lat="45.85662" lon="4.69818">
        <ele>195</ele>
        <time>2018-06-03T08:42:01Z</time>
      </trkpt>
      <trkpt lat="45.8566" lon="4.69809">
        <ele>195</ele>
        <time>2018-06-03T08:42:02Z</time>
      </trkpt>
      <trkpt lat="45.85659" lon="4.698">
        <ele>195</ele>
        <time>2018-06-03T08:42:03Z</time>
      </trkpt>
      <trkpt lat="45.85659" lon="4.69793">
        <ele>195</ele>
        <time>2018-06-03T08:42:04Z</time>
      </trkpt>
      <trkpt lat="45.85657" lon="4.69784">
        <ele>195</ele>
        <time>2018-06-03T08:42:05Z</time>
      </trkpt>
      <trkpt lat="45.85656" lon="4.69776">
        <ele>195</ele>
        <time>2018-06-03T08:42:06Z</time>
      </trkpt>
      <trkpt lat="45.85657" lon="4.69769">
        <ele>195</ele>
        <time>2018-06-03T08:42:07Z</time>
      </trkpt>
      <trkpt lat="45.85656" lon="4.69761">
        <ele>195</ele>
        <time>2018-06-03T08:42:08Z</time>
      </trkpt>
      <trkpt lat="45.85655" lon="4.69752">
        <ele>195</ele>
        <time>2018-06-03T08:42:09Z</time>
      </trkpt>
      <trkpt lat="45.85656" lon="4.69744">
        <ele>195</ele>
        <time>2018-06-03T08:42:10Z</time>
      </trkpt>
      <trkpt lat="45.85654" lon="4.69734">
        <ele>195</ele>
        <time>2018-06-03T08:42:11Z</time>
      </trkpt>
      <trkpt lat="45.85654" lon="4.69726">
        <ele>195</ele>
        <time>2018-06-03T08:42:12Z</time>
      </trkpt>
      <trkpt lat="45.85653" lon="4.69719">
        <ele>196</ele>
        <time>2018-06-03T08:42:13Z</time>
      </trkpt>
      <trkpt lat="45.85652" lon="4.69711">
        <ele>196</ele>
        <time>2018-06-03T08:42:14Z</time>
      </trkpt>
      <trkpt lat="45.85651" lon="4.69704">
        <ele>196</ele>
        <time>2018-06-03T08:42:15Z</time>
      </trkpt>
      <trkpt lat="45.85649" lon="4.69696">
        <ele>196</ele>
        <time>2018-06-03T08:42:16Z</time>
      </trkpt>
      <trkpt lat="45.85647" lon="4.69688">
        <ele>196</ele>
        <time>2018-06-03T08:42:17Z</time>
      </trkpt>
      <trkpt lat="45.85647" lon="4.6968">
        <ele>196</ele>
        <time>2018-06-03T08:42:18Z</time>
      </trkpt>
      <trkpt lat="45.85646" lon="4.69672">
        <ele>196</ele>
        <time>2018-06-03T08:42:19Z</time>
      </trkpt>
      <trkpt lat="45.85647" lon="4.69664">
        <ele>197</ele>
        <time>2018-06-03T08:42:20Z</time>
      </trkpt>
      <trkpt lat="45.85645" lon="4.69655">
        <ele>197</ele>
        <time>2018-06-03T08:42:21Z</time>
      </trkpt>
      <trkpt lat="45.85644" lon="4.69647">
        <ele>197</ele>
        <time>2018-06-03T08:42:22Z</time>
      </trkpt>
      <trkpt lat="45.85645" lon="4.69639">
        <ele>197</ele>
        <time>2018-06-03T08:42:23Z</time>
      </trkpt>
      <trkpt lat="45.85644" lon="4.6963">
        <ele>197</ele>
        <time>2018-06-03T08:42:24Z</time>
      </trkpt>
      <trkpt lat="45.85643" lon="4.69621">
        <ele>197</ele>
        <time>2018-06-03T08:42:25Z</time>
      </trkpt>
      <trkpt lat="45.85643" lon="4.69613">
        <ele>197</ele>
        <time>2018-06-03T08:42:26Z</time>
      </trkpt>
      <trkpt lat="45.85642" lon="4.69605">
        <ele>197</ele>
        <time>2018-06-03T08:42:27Z</time>
      </trkpt>
      <trkpt lat="45.85641" lon="4.69597">
        <ele>197</ele>
        <time>2018-06-03T08:42:28Z</time>
      </trkpt>
      <trkpt lat="45.8564" lon="4.69589">
        <ele>197</ele>
        <time>2018-06-03T08:42:29Z</time>
      </trkpt>
      <trkpt lat="45.8564" lon="4.69579">
        <ele>198</ele>
        <time>2018-06-03T08:42:30Z</time>
      </trkpt>
      <trkpt lat="45.8564" lon="4.69572">
        <ele>198</ele>
        <time>2018-06-03T08:42:31Z</time>
      </trkpt>
      <trkpt lat="45.85639" lon="4.69565">
        <ele>198</ele>
        <time>2018-06-03T08:42:32Z</time>
      </trkpt>
      <trkpt lat="45.85638" lon="4.69558">
        <ele>198</ele>
        <time>2018-06-03T08:42:33Z</time>
      </trkpt>
      <trkpt lat="45.85638" lon="4.69551">
        <ele>198</ele>
        <time>2018-06-03T08:42:34Z</time>
      </trkpt>
      <trkpt lat="45.85638" lon="4.69543">
        <ele>198</ele>
        <time>2018-06-03T08:42:35Z</time>
      </trkpt>
      <trkpt lat="45.85635" lon="4.69534">
        <ele>198</ele>
        <time>2018-06-03T08:42:36Z</time>
      </trkpt>
      <trkpt lat="45.85634" lon="4.69527">
        <ele>198</ele>
        <time>2018-06-03T08:42:37Z</time>
      </trkpt>
      <trkpt lat="45.85633" lon="4.6952">
        <ele>198</ele>
        <time>2018-06-03T08:42:38Z</time>
      </trkpt>
      <trkpt lat="45.85632" lon="4.69513">
        <ele>198</ele>
        <time>2018-06-03T08:42:39Z</time>
      </trkpt>
      <trkpt lat="45.85631" lon="4.69507">
        <ele>198</ele>
        <time>2018-06-03T08:42:40Z</time>
      </trkpt>
      <trkpt lat="45.85629" lon="4.69497">
        <ele>198</ele>
        <time>2018-06-03T08:42:41Z</time>
      </trkpt>
      <trkpt lat="45.85629" lon="4.69489">
        <ele>198</ele>
        <time>2018-06-03T08:42:42Z</time>
      </trkpt>
      <trkpt lat="45.85629" lon="4.69482">
        <ele>198</ele>
        <time>2018-06-03T08:42:43Z</time>
      </trkpt>
      <trkpt lat="45.85629" lon="4.69473">
        <ele>198</ele>
        <time>2018-06-03T08:42:44Z</time>
      </trkpt>
      <trkpt lat="45.85628" lon="4.69465">
        <ele>198</ele>
        <time>2018-06-03T08:42:45Z</time>
      </trkpt>
      <trkpt lat="45.85627" lon="4.69457">
        <ele>198</ele>
        <time>2018-06-03T08:42:46Z</time>
      </trkpt>
      <trkpt lat="45.85626" lon="4.69449">
        <ele>198</ele>
        <time>2018-06-03T08:42:47Z</time>
      </trkpt>
      <trkpt lat="45.85623" lon="4.69441">
        <ele>198</ele>
        <time>2018-06-03T08:42:48Z</time>
      </trkpt>
      <trkpt lat="45.85622" lon="4.69433">
        <ele>198</ele>
        <time>2018-06-03T08:42:49Z</time>
      </trkpt>
      <trkpt lat="45.85622" lon="4.69425">
        <ele>198</ele>
        <time>2018-06-03T08:42:50Z</time>
      </trkpt>
      <trkpt lat="45.85622" lon="4.69418">
        <ele>198</ele>
        <time>2018-06-03T08:42:51Z</time>
      </trkpt>
      <trkpt lat="45.85622" lon="4.69406">
        <ele>198</ele>
        <time>2018-06-03T08:42:53Z</time>
      </trkpt>
      <trkpt lat="45.85621" lon="4.69399">
        <ele>198</ele>
        <time>2018-06-03T08:42:54Z</time>
      </trkpt>
      <trkpt lat="45.8562" lon="4.6939">
        <ele>198</ele>
        <time>2018-06-03T08:42:55Z</time>
      </trkpt>
      <trkpt lat="45.85619" lon="4.69383">
        <ele>198</ele>
        <time>2018-06-03T08:42:56Z</time>
      </trkpt>
      <trkpt lat="45.85619" lon="4.69377">
        <ele>198</ele>
        <time>2018-06-03T08:42:57Z</time>
      </trkpt>
      <trkpt lat="45.85618" lon="4.69369">
        <ele>198</ele>
        <time>2018-06-03T08:42:58Z</time>
      </trkpt>
      <trkpt lat="45.85618" lon="4.69361">
        <ele>198</ele>
        <time>2018-06-03T08:42:59Z</time>
      </trkpt>
      <trkpt lat="45.85617" lon="4.69353">
        <ele>198</ele>
        <time>2018-06-03T08:43:00Z</time>
      </trkpt>
      <trkpt lat="45.85616" lon="4.69346">
        <ele>198</ele>
        <time>2018-06-03T08:43:01Z</time>
      </trkpt>
      <trkpt lat="45.85615" lon="4.69339">
        <ele>198</ele>
        <time>2018-06-03T08:43:02Z</time>
      </trkpt>
      <trkpt lat="45.85613" lon="4.69332">
        <ele>198</ele>
        <time>2018-06-03T08:43:03Z</time>
      </trkpt>
      <trkpt lat="45.85612" lon="4.69325">
        <ele>198</ele>
        <time>2018-06-03T08:43:04Z</time>
      </trkpt>
      <trkpt lat="45.85611" lon="4.69319">
        <ele>198</ele>
        <time>2018-06-03T08:43:05Z</time>
      </trkpt>
      <trkpt lat="45.8561" lon="4.69312">
        <ele>198</ele>
        <time>2018-06-03T08:43:06Z</time>
      </trkpt>
      <trkpt lat="45.85608" lon="4.69304">
        <ele>198</ele>
        <time>2018-06-03T08:43:07Z</time>
      </trkpt>
      <trkpt lat="45.85608" lon="4.69299">
        <ele>198</ele>
        <time>2018-06-03T08:43:08Z</time>
      </trkpt>
      <trkpt lat="45.85607" lon="4.69292">
        <ele>198</ele>
        <time>2018-06-03T08:43:09Z</time>
      </trkpt>
      <trkpt lat="45.85607" lon="4.69284">
        <ele>198</ele>
        <time>2018-06-03T08:43:10Z</time>
      </trkpt>
      <trkpt lat="45.85608" lon="4.69278">
        <ele>198</ele>
        <time>2018-06-03T08:43:11Z</time>
      </trkpt>
      <trkpt lat="45.85609" lon="4.6927">
        <ele>198</ele>
        <time>2018-06-03T08:43:12Z</time>
      </trkpt>
      <trkpt lat="45.8561" lon="4.69264">
        <ele>198</ele>
        <time>2018-06-03T08:43:13Z</time>
      </trkpt>
      <trkpt lat="45.85609" lon="4.69257">
        <ele>198</ele>
        <time>2018-06-03T08:43:14Z</time>
      </trkpt>
      <trkpt lat="45.85606" lon="4.69244">
        <ele>199</ele>
        <time>2018-06-03T08:43:16Z</time>
      </trkpt>
      <trkpt lat="45.85604" lon="4.69237">
        <ele>199</ele>
        <time>2018-06-03T08:43:17Z</time>
      </trkpt>
      <trkpt lat="45.85603" lon="4.6923">
        <ele>199</ele>
        <time>2018-06-03T08:43:18Z</time>
      </trkpt>
      <trkpt lat="45.85602" lon="4.69222">
        <ele>199</ele>
        <time>2018-06-03T08:43:19Z</time>
      </trkpt>
      <trkpt lat="45.85601" lon="4.69216">
        <ele>199</ele>
        <time>2018-06-03T08:43:20Z</time>
      </trkpt>
      <trkpt lat="45.85601" lon="4.69208">
        <ele>199</ele>
        <time>2018-06-03T08:43:21Z</time>
      </trkpt>
      <trkpt lat="45.856" lon="4.69199">
        <ele>199</ele>
        <time>2018-06-03T08:43:22Z</time>
      </trkpt>
      <trkpt lat="45.856" lon="4.6919">
        <ele>199</ele>
        <time>2018-06-03T08:43:23Z</time>
      </trkpt>
      <trkpt lat="45.85599" lon="4.69182">
        <ele>199</ele>
        <time>2018-06-03T08:43:24Z</time>
      </trkpt>
      <trkpt lat="45.85597" lon="4.69174">
        <ele>199</ele>
        <time>2018-06-03T08:43:25Z</time>
      </trkpt>
      <trkpt lat="45.85597" lon="4.69167">
        <ele>199</ele>
        <time>2018-06-03T08:43:26Z</time>
      </trkpt>
      <trkpt lat="45.85597" lon="4.69158">
        <ele>199</ele>
        <time>2018-06-03T08:43:27Z</time>
      </trkpt>
      <trkpt lat="45.85595" lon="4.69146">
        <ele>199</ele>
        <time>2018-06-03T08:43:28Z</time>
      </trkpt>
      <trkpt lat="45.85594" lon="4.69136">
        <ele>199</ele>
        <time>2018-06-03T08:43:29Z</time>
      </trkpt>
      <trkpt lat="45.85593" lon="4.69128">
        <ele>199</ele>
        <time>2018-06-03T08:43:30Z</time>
      </trkpt>
      <trkpt lat="45.85593" lon="4.6912">
        <ele>198</ele>
        <time>2018-06-03T08:43:31Z</time>
      </trkpt>
      <trkpt lat="45.85592" lon="4.69111">
        <ele>199</ele>
        <time>2018-06-03T08:43:32Z</time>
      </trkpt>
      <trkpt lat="45.8559" lon="4.69104">
        <ele>199</ele>
        <time>2018-06-03T08:43:33Z</time>
      </trkpt>
      <trkpt lat="45.8559" lon="4.69096">
        <ele>199</ele>
        <time>2018-06-03T08:43:34Z</time>
      </trkpt>
      <trkpt lat="45.85589" lon="4.69088">
        <ele>199</ele>
        <time>2018-06-03T08:43:35Z</time>
      </trkpt>
      <trkpt lat="45.85589" lon="4.6908">
        <ele>199</ele>
        <time>2018-06-03T08:43:36Z</time>
      </trkpt>
      <trkpt lat="45.85589" lon="4.69072">
        <ele>199</ele>
        <time>2018-06-03T08:43:37Z</time>
      </trkpt>
      <trkpt lat="45.85588" lon="4.69062">
        <ele>199</ele>
        <time>2018-06-03T08:43:38Z</time>
      </trkpt>
      <trkpt lat="45.85586" lon="4.69054">
        <ele>199</ele>
        <time>2018-06-03T08:43:39Z</time>
      </trkpt>
      <trkpt lat="45.85585" lon="4.69046">
        <ele>199</ele>
        <time>2018-06-03T08:43:40Z</time>
      </trkpt>
      <trkpt lat="45.85584" lon="4.69039">
        <ele>199</ele>
        <time>2018-06-03T08:43:41Z</time>
      </trkpt>
      <trkpt lat="45.85584" lon="4.69032">
        <ele>199</ele>
        <time>2018-06-03T08:43:42Z</time>
      </trkpt>
      <trkpt lat="45.85583" lon="4.69024">
        <ele>200</ele>
        <time>2018-06-03T08:43:43Z</time>
      </trkpt>
      <trkpt lat="45.85583" lon="4.69016">
        <ele>200</ele>
        <time>2018-06-03T08:43:44Z</time>
      </trkpt>
      <trkpt lat="45.85582" lon="4.69008">
        <ele>200</ele>
        <time>2018-06-03T08:43:45Z</time>
      </trkpt>
      <trkpt lat="45.85581" lon="4.69">
        <ele>200</ele>
        <time>2018-06-03T08:43:46Z</time>
      </trkpt>
      <trkpt lat="45.8558" lon="4.68991">
        <ele>200</ele>
        <time>2018-06-03T08:43:47Z</time>
      </trkpt>
      <trkpt lat="45.85578" lon="4.68982">
        <ele>200</ele>
        <time>2018-06-03T08:43:48Z</time>
      </trkpt>
      <trkpt lat="45.85577" lon="4.68975">
        <ele>200</ele>
        <time>2018-06-03T08:43:49Z</time>
      </trkpt>
      <trkpt lat="45.85576" lon="4.68966">
        <ele>200</ele>
        <time>2018-06-03T08:43:50Z</time>
      </trkpt>
      <trkpt lat="45.85576" lon="4.68957">
        <ele>200</ele>
        <time>2018-06-03T08:43:51Z</time>
      </trkpt>
      <trkpt lat="45.85575" lon="4.68949">
        <ele>200</ele>
        <time>2018-06-03T08:43:52Z</time>
      </trkpt>
      <trkpt lat="45.85574" lon="4.6894">
        <ele>200</ele>
        <time>2018-06-03T08:43:53Z</time>
      </trkpt>
      <trkpt lat="45.85574" lon="4.68932">
        <ele>200</ele>
        <time>2018-06-03T08:43:54Z</time>
      </trkpt>
      <trkpt lat="45.85574" lon="4.68923">
        <ele>200</ele>
        <time>2018-06-03T08:43:55Z</time>
      </trkpt>
      <trkpt lat="45.85572" lon="4.68916">
        <ele>200</ele>
        <time>2018-06-03T08:43:56Z</time>
      </trkpt>
      <trkpt lat="45.85572" lon="4.68906">
        <ele>200</ele>
        <time>2018-06-03T08:43:57Z</time>
      </trkpt>
      <trkpt lat="45.8557" lon="4.68898">
        <ele>200</ele>
        <time>2018-06-03T08:43:58Z</time>
      </trkpt>
      <trkpt lat="45.8557" lon="4.68889">
        <ele>200</ele>
        <time>2018-06-03T08:43:59Z</time>
      </trkpt>
      <trkpt lat="45.85569" lon="4.6888">
        <ele>200</ele>
        <time>2018-06-03T08:44:00Z</time>
      </trkpt>
      <trkpt lat="45.85569" lon="4.68871">
        <ele>200</ele>
        <time>2018-06-03T08:44:01Z</time>
      </trkpt>
      <trkpt lat="45.85569" lon="4.68861">
        <ele>200</ele>
        <time>2018-06-03T08:44:02Z</time>
      </trkpt>
      <trkpt lat="45.85568" lon="4.68852">
        <ele>200</ele>
        <time>2018-06-03T08:44:03Z</time>
      </trkpt>
      <trkpt lat="45.85569" lon="4.68845">
        <ele>200</ele>
        <time>2018-06-03T08:44:04Z</time>
      </trkpt>
      <trkpt lat="45.85569" lon="4.68837">
        <ele>200</ele>
        <time>2018-06-03T08:44:05Z</time>
      </trkpt>
      <trkpt lat="45.85568" lon="4.6883">
        <ele>200</ele>
        <time>2018-06-03T08:44:06Z</time>
      </trkpt>
      <trkpt lat="45.85568" lon="4.68823">
        <ele>200</ele>
        <time>2018-06-03T08:44:07Z</time>
      </trkpt>
      <trkpt lat="45.85568" lon="4.68815">
        <ele>200</ele>
        <time>2018-06-03T08:44:08Z</time>
      </trkpt>
      <trkpt lat="45.85568" lon="4.68807">
        <ele>200</ele>
        <time>2018-06-03T08:44:09Z</time>
      </trkpt>
      <trkpt lat="45.85567" lon="4.68799">
        <ele>200</ele>
        <time>2018-06-03T08:44:10Z</time>
      </trkpt>
      <trkpt lat="45.85566" lon="4.6879">
        <ele>200</ele>
        <time>2018-06-03T08:44:11Z</time>
      </trkpt>
      <trkpt lat="45.85566" lon="4.68783">
        <ele>200</ele>
        <time>2018-06-03T08:44:12Z</time>
      </trkpt>
      <trkpt lat="45.85564" lon="4.68774">
        <ele>200</ele>
        <time>2018-06-03T08:44:13Z</time>
      </trkpt>
      <trkpt lat="45.85565" lon="4.68765">
        <ele>200</ele>
        <time>2018-06-03T08:44:14Z</time>
      </trkpt>
      <trkpt lat="45.85565" lon="4.68757">
        <ele>200</ele>
        <time>2018-06-03T08:44:15Z</time>
      </trkpt>
      <trkpt lat="45.85564" lon="4.68748">
        <ele>200</ele>
        <time>2018-06-03T08:44:16Z</time>
      </trkpt>
      <trkpt lat="45.85562" lon="4.6874">
        <ele>200</ele>
        <time>2018-06-03T08:44:17Z</time>
      </trkpt>
      <trkpt lat="45.85561" lon="4.68731">
        <ele>200</ele>
        <time>2018-06-03T08:44:18Z</time>
      </trkpt>
      <trkpt lat="45.85559" lon="4.68722">
        <ele>200</ele>
        <time>2018-06-03T08:44:19Z</time>
      </trkpt>
      <trkpt lat="45.85558" lon="4.68714">
        <ele>200</ele>
        <time>2018-06-03T08:44:20Z</time>
      </trkpt>
      <trkpt lat="45.85556" lon="4.68706">
        <ele>200</ele>
        <time>2018-06-03T08:44:21Z</time>
      </trkpt>
      <trkpt lat="45.85554" lon="4.68697">
        <ele>200</ele>
        <time>2018-06-03T08:44:22Z</time>
      </trkpt>
      <trkpt lat="45.85553" lon="4.68688">
        <ele>200</ele>
        <time>2018-06-03T08:44:23Z</time>
      </trkpt>
      <trkpt lat="45.85552" lon="4.6868">
        <ele>200</ele>
        <time>2018-06-03T08:44:24Z</time>
      </trkpt>
      <trkpt lat="45.8555" lon="4.6867">
        <ele>200</ele>
        <time>2018-06-03T08:44:25Z</time>
      </trkpt>
      <trkpt lat="45.8555" lon="4.68663">
        <ele>200</ele>
        <time>2018-06-03T08:44:26Z</time>
      </trkpt>
      <trkpt lat="45.85549" lon="4.68655">
        <ele>201</ele>
        <time>2018-06-03T08:44:27Z</time>
      </trkpt>
      <trkpt lat="45.85549" lon="4.68647">
        <ele>201</ele>
        <time>2018-06-03T08:44:28Z</time>
      </trkpt>
      <trkpt lat="45.85548" lon="4.68639">
        <ele>201</ele>
        <time>2018-06-03T08:44:29Z</time>
      </trkpt>
      <trkpt lat="45.85547" lon="4.68631">
        <ele>201</ele>
        <time>2018-06-03T08:44:30Z</time>
      </trkpt>
      <trkpt lat="45.85547" lon="4.68623">
        <ele>201</ele>
        <time>2018-06-03T08:44:31Z</time>
      </trkpt>
      <trkpt lat="45.85547" lon="4.68616">
        <ele>201</ele>
        <time>2018-06-03T08:44:32Z</time>
      </trkpt>
      <trkpt lat="45.85545" lon="4.68609">
        <ele>201</ele>
        <time>2018-06-03T08:44:33Z</time>
      </trkpt>
      <trkpt lat="45.85544" lon="4.686">
        <ele>201</ele>
        <time>2018-06-03T08:44:34Z</time>
      </trkpt>
      <trkpt lat="45.85545" lon="4.68592">
        <ele>201</ele>
        <time>2018-06-03T08:44:35Z</time>
      </trkpt>
      <trkpt lat="45.85544" lon="4.68584">
        <ele>201</ele>
        <time>2018-06-03T08:44:36Z</time>
      </trkpt>
      <trkpt lat="45.85542" lon="4.68574">
        <ele>201</ele>
        <time>2018-06-03T08:44:37Z</time>
      </trkpt>
      <trkpt lat="45.85542" lon="4.68564">
        <ele>201</ele>
        <time>2018-06-03T08:44:38Z</time>
      </trkpt>
      <trkpt lat="45.85542" lon="4.68557">
        <ele>201</ele>
        <time>2018-06-03T08:44:39Z</time>
      </trkpt>
      <trkpt lat="45.85543" lon="4.68549">
        <ele>201</ele>
        <time>2018-06-03T08:44:40Z</time>
      </trkpt>
      <trkpt lat="45.85542" lon="4.68542">
        <ele>201</ele>
        <time>2018-06-03T08:44:41Z</time>
      </trkpt>
      <trkpt lat="45.85541" lon="4.68529">
        <ele>201</ele>
        <time>2018-06-03T08:44:43Z</time>
      </trkpt>
      <trkpt lat="45.85539" lon="4.68522">
        <ele>201</ele>
        <time>2018-06-03T08:44:44Z</time>
      </trkpt>
      <trkpt lat="45.85538" lon="4.68516">
        <ele>201</ele>
        <time>2018-06-03T08:44:45Z</time>
      </trkpt>
      <trkpt lat="45.85539" lon="4.68509">
        <ele>201</ele>
        <time>2018-06-03T08:44:46Z</time>
      </trkpt>
      <trkpt lat="45.85539" lon="4.68503">
        <ele>201</ele>
        <time>2018-06-03T08:44:47Z</time>
      </trkpt>
      <trkpt lat="45.85537" lon="4.68495">
        <ele>200</ele>
        <time>2018-06-03T08:44:48Z</time>
      </trkpt>
      <trkpt lat="45.85536" lon="4.68488">
        <ele>200</ele>
        <time>2018-06-03T08:44:49Z</time>
      </trkpt>
      <trkpt lat="45.85535" lon="4.68481">
        <ele>200</ele>
        <time>2018-06-03T08:44:50Z</time>
      </trkpt>
      <trkpt lat="45.85534" lon="4.68473">
        <ele>200</ele>
        <time>2018-06-03T08:44:51Z</time>
      </trkpt>
      <trkpt lat="45.85535" lon="4.68465">
        <ele>200</ele>
        <time>2018-06-03T08:44:52Z</time>
      </trkpt>
      <trkpt lat="45.85534" lon="4.68458">
        <ele>200</ele>
        <time>2018-06-03T08:44:53Z</time>
      </trkpt>
      <trkpt lat="45.85533" lon="4.6845">
        <ele>200</ele>
        <time>2018-06-03T08:44:54Z</time>
      </trkpt>
      <trkpt lat="45.85533" lon="4.68443">
        <ele>200</ele>
        <time>2018-06-03T08:44:55Z</time>
      </trkpt>
      <trkpt lat="45.8553" lon="4.68435">
        <ele>200</ele>
        <time>2018-06-03T08:44:56Z</time>
      </trkpt>
      <trkpt lat="45.8553" lon="4.68428">
        <ele>200</ele>
        <time>2018-06-03T08:44:57Z</time>
      </trkpt>
      <trkpt lat="45.85529" lon="4.68421">
        <ele>200</ele>
        <time>2018-06-03T08:44:58Z</time>
      </trkpt>
      <trkpt lat="45.85528" lon="4.68413">
        <ele>200</ele>
        <time>2018-06-03T08:44:59Z</time>
      </trkpt>
      <trkpt lat="45.85527" lon="4.68406">
        <ele>200</ele>
        <time>2018-06-03T08:45:00Z</time>
      </trkpt>
      <trkpt lat="45.85526" lon="4.68399">
        <ele>200</ele>
        <time>2018-06-03T08:45:01Z</time>
      </trkpt>
      <trkpt lat="45.85524" lon="4.6839">
        <ele>200</ele>
        <time>2018-06-03T08:45:02Z</time>
      </trkpt>
      <trkpt lat="45.85523" lon="4.68383">
        <ele>201</ele>
        <time>2018-06-03T08:45:03Z</time>
      </trkpt>
      <trkpt lat="45.85525" lon="4.68376">
        <ele>201</ele>
        <time>2018-06-03T08:45:04Z</time>
      </trkpt>
      <trkpt lat="45.85524" lon="4.68368">
        <ele>201</ele>
        <time>2018-06-03T08:45:05Z</time>
      </trkpt>
      <trkpt lat="45.85522" lon="4.6836">
        <ele>201</ele>
        <time>2018-06-03T08:45:06Z</time>
      </trkpt>
      <trkpt lat="45.85522" lon="4.68352">
        <ele>201</ele>
        <time>2018-06-03T08:45:07Z</time>
      </trkpt>
      <trkpt lat="45.85522" lon="4.68344">
        <ele>201</ele>
        <time>2018-06-03T08:45:08Z</time>
      </trkpt>
      <trkpt lat="45.85521" lon="4.68335">
        <ele>201</ele>
        <time>2018-06-03T08:45:09Z</time>
      </trkpt>
      <trkpt lat="45.8552" lon="4.68327">
        <ele>202</ele>
        <time>2018-06-03T08:45:10Z</time>
      </trkpt>
      <trkpt lat="45.8552" lon="4.68319">
        <ele>202</ele>
        <time>2018-06-03T08:45:11Z</time>
      </trkpt>
      <trkpt lat="45.85521" lon="4.68312">
        <ele>202</ele>
        <time>2018-06-03T08:45:12Z</time>
      </trkpt>
      <trkpt lat="45.8552" lon="4.68304">
        <ele>202</ele>
        <time>2018-06-03T08:45:13Z</time>
      </trkpt>
      <trkpt lat="45.85518" lon="4.68297">
        <ele>202</ele>
        <time>2018-06-03T08:45:14Z</time>
      </trkpt>
      <trkpt lat="45.85517" lon="4.6829">
        <ele>202</ele>
        <time>2018-06-03T08:45:15Z</time>
      </trkpt>
      <trkpt lat="45.85516" lon="4.68282">
        <ele>202</ele>
        <time>2018-06-03T08:45:16Z</time>
      </trkpt>
      <trkpt lat="45.85516" lon="4.68275">
        <ele>202</ele>
        <time>2018-06-03T08:45:17Z</time>
      </trkpt>
      <trkpt lat="45.85515" lon="4.68268">
        <ele>202</ele>
        <time>2018-06-03T08:45:18Z</time>
      </trkpt>
      <trkpt lat="45.85517" lon="4.68256">
        <ele>203</ele>
        <time>2018-06-03T08:45:20Z</time>
      </trkpt>
      <trkpt lat="45.85516" lon="4.68249">
        <ele>203</ele>
        <time>2018-06-03T08:45:21Z</time>
      </trkpt>
      <trkpt lat="45.85519" lon="4.68242">
        <ele>203</ele>
        <time>2018-06-03T08:45:22Z</time>
      </trkpt>
      <trkpt lat="45.85519" lon="4.68234">
        <ele>203</ele>
        <time>2018-06-03T08:45:23Z</time>
      </trkpt>
      <trkpt lat="45.85517" lon="4.68226">
        <ele>203</ele>
        <time>2018-06-03T08:45:24Z</time>
      </trkpt>
      <trkpt lat="45.85515" lon="4.68216">
        <ele>203</ele>
        <time>2018-06-03T08:45:25Z</time>
      </trkpt>
      <trkpt lat="45.85515" lon="4.68208">
        <ele>203</ele>
        <time>2018-06-03T08:45:26Z</time>
      </trkpt>
      <trkpt lat="45.85513" lon="4.682">
        <ele>203</ele>
        <time>2018-06-03T08:45:27Z</time>
      </trkpt>
      <trkpt lat="45.8551" lon="4.68193">
        <ele>203</ele>
        <time>2018-06-03T08:45:28Z</time>
      </trkpt>
      <trkpt lat="45.8551" lon="4.68184">
        <ele>203</ele>
        <time>2018-06-03T08:45:29Z</time>
      </trkpt>
      <trkpt lat="45.85509" lon="4.68176">
        <ele>204</ele>
        <time>2018-06-03T08:45:30Z</time>
      </trkpt>
      <trkpt lat="45.85508" lon="4.68167">
        <ele>204</ele>
        <time>2018-06-03T08:45:31Z</time>
      </trkpt>
      <trkpt lat="45.85507" lon="4.68159">
        <ele>204</ele>
        <time>2018-06-03T08:45:32Z</time>
      </trkpt>
      <trkpt lat="45.85505" lon="4.68149">
        <ele>203</ele>
        <time>2018-06-03T08:45:33Z</time>
      </trkpt>
      <trkpt lat="45.85504" lon="4.68142">
        <ele>203</ele>
        <time>2018-06-03T08:45:34Z</time>
      </trkpt>
      <trkpt lat="45.85503" lon="4.68134">
        <ele>203</ele>
        <time>2018-06-03T08:45:35Z</time>
      </trkpt>
      <trkpt lat="45.85502" lon="4.68128">
        <ele>203</ele>
        <time>2018-06-03T08:45:36Z</time>
      </trkpt>
      <trkpt lat="45.85501" lon="4.6812">
        <ele>203</ele>
        <time>2018-06-03T08:45:37Z</time>
      </trkpt>
      <trkpt lat="45.85501" lon="4.68114">
        <ele>203</ele>
        <time>2018-06-03T08:45:38Z</time>
      </trkpt>
      <trkpt lat="45.85499" lon="4.68106">
        <ele>204</ele>
        <time>2018-06-03T08:45:39Z</time>
      </trkpt>
      <trkpt lat="45.85499" lon="4.68094">
        <ele>204</ele>
        <time>2018-06-03T08:45:41Z</time>
      </trkpt>
      <trkpt lat="45.85498" lon="4.68086">
        <ele>204</ele>
        <time>2018-06-03T08:45:42Z</time>
      </trkpt>
      <trkpt lat="45.85498" lon="4.68078">
        <ele>205</ele>
        <time>2018-06-03T08:45:43Z</time>
      </trkpt>
      <trkpt lat="45.85498" lon="4.68071">
        <ele>205</ele>
        <time>2018-06-03T08:45:44Z</time>
      </trkpt>
      <trkpt lat="45.85497" lon="4.6806">
        <ele>206</ele>
        <time>2018-06-03T08:45:46Z</time>
      </trkpt>
      <trkpt lat="45.85496" lon="4.68053">
        <ele>206</ele>
        <time>2018-06-03T08:45:47Z</time>
      </trkpt>
      <trkpt lat="45.85493" lon="4.68041">
        <ele>206</ele>
        <time>2018-06-03T08:45:49Z</time>
      </trkpt>
      <trkpt lat="45.85492" lon="4.68035">
        <ele>207</ele>
        <time>2018-06-03T08:45:50Z</time>
      </trkpt>
      <trkpt lat="45.85494" lon="4.68024">
        <ele>207</ele>
        <time>2018-06-03T08:45:52Z</time>
      </trkpt>
      <trkpt lat="45.85495" lon="4.68017">
        <ele>207</ele>
        <time>2018-06-03T08:45:53Z</time>
      </trkpt>
      <trkpt lat="45.85495" lon="4.68009">
        <ele>206</ele>
        <time>2018-06-03T08:45:54Z</time>
      </trkpt>
      <trkpt lat="45.85496" lon="4.68003">
        <ele>206</ele>
        <time>2018-06-03T08:45:55Z</time>
      </trkpt>
      <trkpt lat="45.855" lon="4.67996">
        <ele>207</ele>
        <time>2018-06-03T08:45:56Z</time>
      </trkpt>
      <trkpt lat="45.85504" lon="4.67992">
        <ele>206</ele>
        <time>2018-06-03T08:45:57Z</time>
      </trkpt>
      <trkpt lat="45.85509" lon="4.67986">
        <ele>206</ele>
        <time>2018-06-03T08:45:58Z</time>
      </trkpt>
      <trkpt lat="45.85514" lon="4.67981">
        <ele>206</ele>
        <time>2018-06-03T08:45:59Z</time>
      </trkpt>
      <trkpt lat="45.85518" lon="4.67978">
        <ele>206</ele>
        <time>2018-06-03T08:46:00Z</time>
      </trkpt>
      <trkpt lat="45.85523" lon="4.67975">
        <ele>206</ele>
        <time>2018-06-03T08:46:01Z</time>
      </trkpt>
      <trkpt lat="45.85525" lon="4.67969">
        <ele>206</ele>
        <time>2018-06-03T08:46:02Z</time>
      </trkpt>
      <trkpt lat="45.85528" lon="4.67963">
        <ele>206</ele>
        <time>2018-06-03T08:46:03Z</time>
      </trkpt>
      <trkpt lat="45.85533" lon="4.67961">
        <ele>205</ele>
        <time>2018-06-03T08:46:04Z</time>
      </trkpt>
      <trkpt lat="45.85539" lon="4.67957">
        <ele>205</ele>
        <time>2018-06-03T08:46:05Z</time>
      </trkpt>
      <trkpt lat="45.85543" lon="4.67953">
        <ele>205</ele>
        <time>2018-06-03T08:46:06Z</time>
      </trkpt>
      <trkpt lat="45.85546" lon="4.67949">
        <ele>205</ele>
        <time>2018-06-03T08:46:07Z</time>
      </trkpt>
      <trkpt lat="45.8555" lon="4.67944">
        <ele>205</ele>
        <time>2018-06-03T08:46:08Z</time>
      </trkpt>
      <trkpt lat="45.85554" lon="4.67942">
        <ele>205</ele>
        <time>2018-06-03T08:46:09Z</time>
      </trkpt>
      <trkpt lat="45.85561" lon="4.67935">
        <ele>205</ele>
        <time>2018-06-03T08:46:11Z</time>
      </trkpt>
      <trkpt lat="45.85564" lon="4.67933">
        <ele>205</ele>
        <time>2018-06-03T08:46:12Z</time>
      </trkpt>
      <trkpt lat="45.85572" lon="4.67927">
        <ele>205</ele>
        <time>2018-06-03T08:46:14Z</time>
      </trkpt>
      <trkpt lat="45.85574" lon="4.67921">
        <ele>204</ele>
        <time>2018-06-03T08:46:15Z</time>
      </trkpt>
      <trkpt lat="45.85573" lon="4.6791">
        <ele>205</ele>
        <time>2018-06-03T08:46:17Z</time>
      </trkpt>
      <trkpt lat="45.85574" lon="4.67903">
        <ele>206</ele>
        <time>2018-06-03T08:46:18Z</time>
      </trkpt>
      <trkpt lat="45.85575" lon="4.67897">
        <ele>206</ele>
        <time>2018-06-03T08:46:19Z</time>
      </trkpt>
      <trkpt lat="45.85575" lon="4.67889">
        <ele>206</ele>
        <time>2018-06-03T08:46:20Z</time>
      </trkpt>
      <trkpt lat="45.85576" lon="4.67882">
        <ele>206</ele>
        <time>2018-06-03T08:46:21Z</time>
      </trkpt>
      <trkpt lat="45.85576" lon="4.67875">
        <ele>206</ele>
        <time>2018-06-03T08:46:22Z</time>
      </trkpt>
      <trkpt lat="45.85576" lon="4.67863">
        <ele>206</ele>
        <time>2018-06-03T08:46:23Z</time>
      </trkpt>
      <trkpt lat="45.85577" lon="4.67852">
        <ele>206</ele>
        <time>2018-06-03T08:46:24Z</time>
      </trkpt>
      <trkpt lat="45.85578" lon="4.67846">
        <ele>206</ele>
        <time>2018-06-03T08:46:26Z</time>
      </trkpt>
      <trkpt lat="45.85577" lon="4.67833">
        <ele>205</ele>
        <time>2018-06-03T08:46:27Z</time>
      </trkpt>
      <trkpt lat="45.85578" lon="4.67827">
        <ele>206</ele>
        <time>2018-06-03T08:46:28Z</time>
      </trkpt>
      <trkpt lat="45.85579" lon="4.67819">
        <ele>206</ele>
        <time>2018-06-03T08:46:29Z</time>
      </trkpt>
      <trkpt lat="45.85582" lon="4.67805">
        <ele>206</ele>
        <time>2018-06-03T08:46:30Z</time>
      </trkpt>
      <trkpt lat="45.85583" lon="4.67798">
        <ele>206</ele>
        <time>2018-06-03T08:46:31Z</time>
      </trkpt>
      <trkpt lat="45.85587" lon="4.67791">
        <ele>210</ele>
        <time>2018-06-03T08:46:32Z</time>
      </trkpt>
      <trkpt lat="45.8559" lon="4.67783">
        <ele>209</ele>
        <time>2018-06-03T08:46:33Z</time>
      </trkpt>
      <trkpt lat="45.85593" lon="4.67776">
        <ele>209</ele>
        <time>2018-06-03T08:46:34Z</time>
      </trkpt>
      <trkpt lat="45.85595" lon="4.67769">
        <ele>209</ele>
        <time>2018-06-03T08:46:35Z</time>
      </trkpt>
      <trkpt lat="45.85598" lon="4.67762">
        <ele>208</ele>
        <time>2018-06-03T08:46:36Z</time>
      </trkpt>
      <trkpt lat="45.85601" lon="4.67756">
        <ele>208</ele>
        <time>2018-06-03T08:46:37Z</time>
      </trkpt>
      <trkpt lat="45.85604" lon="4.67751">
        <ele>209</ele>
        <time>2018-06-03T08:46:38Z</time>
      </trkpt>
      <trkpt lat="45.85608" lon="4.67744">
        <ele>208</ele>
        <time>2018-06-03T08:46:39Z</time>
      </trkpt>
      <trkpt lat="45.85612" lon="4.67739">
        <ele>208</ele>
        <time>2018-06-03T08:46:40Z</time>
      </trkpt>
      <trkpt lat="45.85616" lon="4.67733">
        <ele>209</ele>
        <time>2018-06-03T08:46:41Z</time>
      </trkpt>
      <trkpt lat="45.85621" lon="4.67727">
        <ele>209</ele>
        <time>2018-06-03T08:46:42Z</time>
      </trkpt>
      <trkpt lat="45.85625" lon="4.67721">
        <ele>209</ele>
        <time>2018-06-03T08:46:43Z</time>
      </trkpt>
      <trkpt lat="45.85629" lon="4.67714">
        <ele>210</ele>
        <time>2018-06-03T08:46:44Z</time>
      </trkpt>
      <trkpt lat="45.85633" lon="4.67709">
        <ele>210</ele>
        <time>2018-06-03T08:46:45Z</time>
      </trkpt>
      <trkpt lat="45.85637" lon="4.67704">
        <ele>210</ele>
        <time>2018-06-03T08:46:46Z</time>
      </trkpt>
      <trkpt lat="45.85641" lon="4.677">
        <ele>210</ele>
        <time>2018-06-03T08:46:47Z</time>
      </trkpt>
      <trkpt lat="45.85646" lon="4.67696">
        <ele>210</ele>
        <time>2018-06-03T08:46:48Z</time>
      </trkpt>
      <trkpt lat="45.8565" lon="4.67693">
        <ele>210</ele>
        <time>2018-06-03T08:46:49Z</time>
      </trkpt>
      <trkpt lat="45.85655" lon="4.67691">
        <ele>210</ele>
        <time>2018-06-03T08:46:50Z</time>
      </trkpt>
      <trkpt lat="45.8566" lon="4.67687">
        <ele>210</ele>
        <time>2018-06-03T08:46:51Z</time>
      </trkpt>
      <trkpt lat="45.85664" lon="4.67683">
        <ele>209</ele>
        <time>2018-06-03T08:46:52Z</time>
      </trkpt>
      <trkpt lat="45.85669" lon="4.67679">
        <ele>214</ele>
        <time>2018-06-03T08:46:53Z</time>
      </trkpt>
      <trkpt lat="45.85674" lon="4.67675">
        <ele>214</ele>
        <time>2018-06-03T08:46:54Z</time>
      </trkpt>
      <trkpt lat="45.85681" lon="4.67674">
        <ele>215</ele>
        <time>2018-06-03T08:46:55Z</time>
      </trkpt>
      <trkpt lat="45.85686" lon="4.6767">
        <ele>216</ele>
        <time>2018-06-03T08:46:56Z</time>
      </trkpt>
      <trkpt lat="45.85691" lon="4.67665">
        <ele>211</ele>
        <time>2018-06-03T08:46:57Z</time>
      </trkpt>
      <trkpt lat="45.857" lon="4.6766">
        <ele>211</ele>
        <time>2018-06-03T08:46:58Z</time>
      </trkpt>
      <trkpt lat="45.85707" lon="4.67657">
        <ele>212</ele>
        <time>2018-06-03T08:46:59Z</time>
      </trkpt>
      <trkpt lat="45.85713" lon="4.67654">
        <ele>213</ele>
        <time>2018-06-03T08:47:00Z</time>
      </trkpt>
      <trkpt lat="45.85718" lon="4.67653">
        <ele>213</ele>
        <time>2018-06-03T08:47:01Z</time>
      </trkpt>
      <trkpt lat="45.85722" lon="4.67648">
        <ele>213</ele>
        <time>2018-06-03T08:47:02Z</time>
      </trkpt>
      <trkpt lat="45.85728" lon="4.67644">
        <ele>213</ele>
        <time>2018-06-03T08:47:03Z</time>
      </trkpt>
      <trkpt lat="45.85732" lon="4.67642">
        <ele>214</ele>
        <time>2018-06-03T08:47:04Z</time>
      </trkpt>
      <trkpt lat="45.85739" lon="4.67637">
        <ele>213</ele>
        <time>2018-06-03T08:47:05Z</time>
      </trkpt>
      <trkpt lat="45.85743" lon="4.67633">
        <ele>213</ele>
        <time>2018-06-03T08:47:06Z</time>
      </trkpt>
      <trkpt lat="45.85749" lon="4.6763">
        <ele>213</ele>
        <time>2018-06-03T08:47:07Z</time>
      </trkpt>
      <trkpt lat="45.85756" lon="4.6763">
        <ele>220</ele>
        <time>2018-06-03T08:47:08Z</time>
      </trkpt>
      <trkpt lat="45.8576" lon="4.67628">
        <ele>220</ele>
        <time>2018-06-03T08:47:09Z</time>
      </trkpt>
      <trkpt lat="45.85766" lon="4.67624">
        <ele>220</ele>
        <time>2018-06-03T08:47:10Z</time>
      </trkpt>
      <trkpt lat="45.85771" lon="4.67619">
        <ele>220</ele>
        <time>2018-06-03T08:47:11Z</time>
      </trkpt>
      <trkpt lat="45.85778" lon="4.67616">
        <ele>220</ele>
        <time>2018-06-03T08:47:12Z</time>
      </trkpt>
      <trkpt lat="45.85783" lon="4.67612">
        <ele>220</ele>
        <time>2018-06-03T08:47:13Z</time>
      </trkpt>
      <trkpt lat="45.85789" lon="4.67606">
        <ele>220</ele>
        <time>2018-06-03T08:47:14Z</time>
      </trkpt>
      <trkpt lat="45.85795" lon="4.676">
        <ele>221</ele>
        <time>2018-06-03T08:47:15Z</time>
      </trkpt>
      <trkpt lat="45.85801" lon="4.67596">
        <ele>221</ele>
        <time>2018-06-03T08:47:16Z</time>
      </trkpt>
      <trkpt lat="45.85804" lon="4.67592">
        <ele>221</ele>
        <time>2018-06-03T08:47:17Z</time>
      </trkpt>
      <trkpt lat="45.8581" lon="4.67586">
        <ele>221</ele>
        <time>2018-06-03T08:47:18Z</time>
      </trkpt>
      <trkpt lat="45.85814" lon="4.67581">
        <ele>215</ele>
        <time>2018-06-03T08:47:19Z</time>
      </trkpt>
      <trkpt lat="45.85821" lon="4.67576">
        <ele>216</ele>
        <time>2018-06-03T08:47:20Z</time>
      </trkpt>
      <trkpt lat="45.85823" lon="4.67568">
        <ele>215</ele>
        <time>2018-06-03T08:47:21Z</time>
      </trkpt>
      <trkpt lat="45.85826" lon="4.67561">
        <ele>214</ele>
        <time>2018-06-03T08:47:22Z</time>
      </trkpt>
      <trkpt lat="45.85827" lon="4.67552">
        <ele>212</ele>
        <time>2018-06-03T08:47:23Z</time>
      </trkpt>
      <trkpt lat="45.85829" lon="4.67545">
        <ele>211</ele>
        <time>2018-06-03T08:47:24Z</time>
      </trkpt>
      <trkpt lat="45.85834" lon="4.67538">
        <ele>221</ele>
        <time>2018-06-03T08:47:25Z</time>
      </trkpt>
      <trkpt lat="45.85839" lon="4.67534">
        <ele>221</ele>
        <time>2018-06-03T08:47:26Z</time>
      </trkpt>
      <trkpt lat="45.85844" lon="4.67527">
        <ele>220</ele>
        <time>2018-06-03T08:47:27Z</time>
      </trkpt>
      <trkpt lat="45.85846" lon="4.67519">
        <ele>218</ele>
        <time>2018-06-03T08:47:28Z</time>
      </trkpt>
      <trkpt lat="45.85851" lon="4.67513">
        <ele>218</ele>
        <time>2018-06-03T08:47:29Z</time>
      </trkpt>
      <trkpt lat="45.85852" lon="4.67506">
        <ele>217</ele>
        <time>2018-06-03T08:47:30Z</time>
      </trkpt>
      <trkpt lat="45.85861" lon="4.67511">
        <ele>220</ele>
        <time>2018-06-03T08:47:31Z</time>
      </trkpt>
      <trkpt lat="45.85861" lon="4.67499">
        <ele>213</ele>
        <time>2018-06-03T08:47:32Z</time>
      </trkpt>
      <trkpt lat="45.85862" lon="4.67492">
        <ele>214</ele>
        <time>2018-06-03T08:47:33Z</time>
      </trkpt>
      <trkpt lat="45.85862" lon="4.67481">
        <ele>214</ele>
        <time>2018-06-03T08:47:34Z</time>
      </trkpt>
      <trkpt lat="45.85865" lon="4.67474">
        <ele>214</ele>
        <time>2018-06-03T08:47:35Z</time>
      </trkpt>
      <trkpt lat="45.85866" lon="4.67468">
        <ele>214</ele>
        <time>2018-06-03T08:47:36Z</time>
      </trkpt>
      <trkpt lat="45.85866" lon="4.67459">
        <ele>214</ele>
        <time>2018-06-03T08:47:37Z</time>
      </trkpt>
      <trkpt lat="45.85866" lon="4.67451">
        <ele>214</ele>
        <time>2018-06-03T08:47:38Z</time>
      </trkpt>
      <trkpt lat="45.85866" lon="4.67441">
        <ele>213</ele>
        <time>2018-06-03T08:47:39Z</time>
      </trkpt>
      <trkpt lat="45.85868" lon="4.67432">
        <ele>213</ele>
        <time>2018-06-03T08:47:40Z</time>
      </trkpt>
      <trkpt lat="45.85869" lon="4.67423">
        <ele>213</ele>
        <time>2018-06-03T08:47:41Z</time>
      </trkpt>
      <trkpt lat="45.85869" lon="4.67415">
        <ele>209</ele>
        <time>2018-06-03T08:47:42Z</time>
      </trkpt>
      <trkpt lat="45.8587" lon="4.67406">
        <ele>209</ele>
        <time>2018-06-03T08:47:43Z</time>
      </trkpt>
      <trkpt lat="45.85872" lon="4.67398">
        <ele>209</ele>
        <time>2018-06-03T08:47:44Z</time>
      </trkpt>
      <trkpt lat="45.85872" lon="4.67388">
        <ele>209</ele>
        <time>2018-06-03T08:47:45Z</time>
      </trkpt>
      <trkpt lat="45.85872" lon="4.6738">
        <ele>209</ele>
        <time>2018-06-03T08:47:46Z</time>
      </trkpt>
      <trkpt lat="45.85873" lon="4.67371">
        <ele>209</ele>
        <time>2018-06-03T08:47:47Z</time>
      </trkpt>
      <trkpt lat="45.85874" lon="4.67362">
        <ele>209</ele>
        <time>2018-06-03T08:47:48Z</time>
      </trkpt>
      <trkpt lat="45.85875" lon="4.67354">
        <ele>209</ele>
        <time>2018-06-03T08:47:49Z</time>
      </trkpt>
      <trkpt lat="45.85875" lon="4.67344">
        <ele>208</ele>
        <time>2018-06-03T08:47:50Z</time>
      </trkpt>
      <trkpt lat="45.85877" lon="4.67337">
        <ele>208</ele>
        <time>2018-06-03T08:47:51Z</time>
      </trkpt>
      <trkpt lat="45.85877" lon="4.67328">
        <ele>206</ele>
        <time>2018-06-03T08:47:52Z</time>
      </trkpt>
      <trkpt lat="45.85878" lon="4.67319">
        <ele>206</ele>
        <time>2018-06-03T08:47:53Z</time>
      </trkpt>
      <trkpt lat="45.85879" lon="4.67311">
        <ele>206</ele>
        <time>2018-06-03T08:47:54Z</time>
      </trkpt>
      <trkpt lat="45.8588" lon="4.67303">
        <ele>206</ele>
        <time>2018-06-03T08:47:55Z</time>
      </trkpt>
      <trkpt lat="45.8588" lon="4.67293">
        <ele>205</ele>
        <time>2018-06-03T08:47:56Z</time>
      </trkpt>
      <trkpt lat="45.8588" lon="4.67285">
        <ele>205</ele>
        <time>2018-06-03T08:47:57Z</time>
      </trkpt>
      <trkpt lat="45.8588" lon="4.67277">
        <ele>205</ele>
        <time>2018-06-03T08:47:58Z</time>
      </trkpt>
      <trkpt lat="45.85881" lon="4.67268">
        <ele>205</ele>
        <time>2018-06-03T08:47:59Z</time>
      </trkpt>
      <trkpt lat="45.85882" lon="4.67259">
        <ele>205</ele>
        <time>2018-06-03T08:48:00Z</time>
      </trkpt>
      <trkpt lat="45.85883" lon="4.6725">
        <ele>204</ele>
        <time>2018-06-03T08:48:01Z</time>
      </trkpt>
      <trkpt lat="45.85883" lon="4.67242">
        <ele>204</ele>
        <time>2018-06-03T08:48:02Z</time>
      </trkpt>
      <trkpt lat="45.85885" lon="4.67235">
        <ele>204</ele>
        <time>2018-06-03T08:48:03Z</time>
      </trkpt>
      <trkpt lat="45.85885" lon="4.67226">
        <ele>204</ele>
        <time>2018-06-03T08:48:04Z</time>
      </trkpt>
      <trkpt lat="45.85886" lon="4.67218">
        <ele>204</ele>
        <time>2018-06-03T08:48:05Z</time>
      </trkpt>
      <trkpt lat="45.85887" lon="4.67209">
        <ele>204</ele>
        <time>2018-06-03T08:48:06Z</time>
      </trkpt>
      <trkpt lat="45.85887" lon="4.67199">
        <ele>204</ele>
        <time>2018-06-03T08:48:07Z</time>
      </trkpt>
      <trkpt lat="45.85888" lon="4.67192">
        <ele>204</ele>
        <time>2018-06-03T08:48:08Z</time>
      </trkpt>
      <trkpt lat="45.85889" lon="4.67183">
        <ele>204</ele>
        <time>2018-06-03T08:48:09Z</time>
      </trkpt>
      <trkpt lat="45.85889" lon="4.67174">
        <ele>205</ele>
        <time>2018-06-03T08:48:10Z</time>
      </trkpt>
      <trkpt lat="45.85889" lon="4.67165">
        <ele>204</ele>
        <time>2018-06-03T08:48:11Z</time>
      </trkpt>
      <trkpt lat="45.85889" lon="4.67155">
        <ele>204</ele>
        <time>2018-06-03T08:48:12Z</time>
      </trkpt>
      <trkpt lat="45.8589" lon="4.67147">
        <ele>204</ele>
        <time>2018-06-03T08:48:13Z</time>
      </trkpt>
      <trkpt lat="45.8589" lon="4.67139">
        <ele>204</ele>
        <time>2018-06-03T08:48:14Z</time>
      </trkpt>
      <trkpt lat="45.85892" lon="4.6713">
        <ele>204</ele>
        <time>2018-06-03T08:48:15Z</time>
      </trkpt>
      <trkpt lat="45.85893" lon="4.67123">
        <ele>204</ele>
        <time>2018-06-03T08:48:16Z</time>
      </trkpt>
      <trkpt lat="45.85894" lon="4.67114">
        <ele>204</ele>
        <time>2018-06-03T08:48:17Z</time>
      </trkpt>
      <trkpt lat="45.85896" lon="4.67106">
        <ele>204</ele>
        <time>2018-06-03T08:48:18Z</time>
      </trkpt>
      <trkpt lat="45.85897" lon="4.67097">
        <ele>204</ele>
        <time>2018-06-03T08:48:19Z</time>
      </trkpt>
      <trkpt lat="45.85898" lon="4.67089">
        <ele>204</ele>
        <time>2018-06-03T08:48:20Z</time>
      </trkpt>
      <trkpt lat="45.85898" lon="4.67081">
        <ele>204</ele>
        <time>2018-06-03T08:48:21Z</time>
      </trkpt>
      <trkpt lat="45.859" lon="4.67073">
        <ele>205</ele>
        <time>2018-06-03T08:48:22Z</time>
      </trkpt>
      <trkpt lat="45.85901" lon="4.67065">
        <ele>205</ele>
        <time>2018-06-03T08:48:23Z</time>
      </trkpt>
      <trkpt lat="45.85902" lon="4.67058">
        <ele>205</ele>
        <time>2018-06-03T08:48:24Z</time>
      </trkpt>
      <trkpt lat="45.85903" lon="4.6705">
        <ele>205</ele>
        <time>2018-06-03T08:48:25Z</time>
      </trkpt>
      <trkpt lat="45.85906" lon="4.67041">
        <ele>205</ele>
        <time>2018-06-03T08:48:26Z</time>
      </trkpt>
      <trkpt lat="45.85907" lon="4.67033">
        <ele>205</ele>
        <time>2018-06-03T08:48:27Z</time>
      </trkpt>
      <trkpt lat="45.8591" lon="4.67023">
        <ele>205</ele>
        <time>2018-06-03T08:48:28Z</time>
      </trkpt>
      <trkpt lat="45.85911" lon="4.67016">
        <ele>205</ele>
        <time>2018-06-03T08:48:29Z</time>
      </trkpt>
      <trkpt lat="45.85912" lon="4.6701">
        <ele>206</ele>
        <time>2018-06-03T08:48:30Z</time>
      </trkpt>
      <trkpt lat="45.85914" lon="4.67004">
        <ele>206</ele>
        <time>2018-06-03T08:48:31Z</time>
      </trkpt>
      <trkpt lat="45.85918" lon="4.66999">
        <ele>206</ele>
        <time>2018-06-03T08:48:32Z</time>
      </trkpt>
      <trkpt lat="45.85921" lon="4.66995">
        <ele>207</ele>
        <time>2018-06-03T08:48:33Z</time>
      </trkpt>
      <trkpt lat="45.85927" lon="4.66985">
        <ele>208</ele>
        <time>2018-06-03T08:48:35Z</time>
      </trkpt>
      <trkpt lat="45.85927" lon="4.66979">
        <ele>208</ele>
        <time>2018-06-03T08:48:36Z</time>
      </trkpt>
      <trkpt lat="45.85928" lon="4.66969">
        <ele>209</ele>
        <time>2018-06-03T08:48:37Z</time>
      </trkpt>
      <trkpt lat="45.85927" lon="4.66961">
        <ele>209</ele>
        <time>2018-06-03T08:48:38Z</time>
      </trkpt>
      <trkpt lat="45.85925" lon="4.66951">
        <ele>209</ele>
        <time>2018-06-03T08:48:39Z</time>
      </trkpt>
      <trkpt lat="45.85924" lon="4.66943">
        <ele>209</ele>
        <time>2018-06-03T08:48:40Z</time>
      </trkpt>
      <trkpt lat="45.85921" lon="4.66935">
        <ele>208</ele>
        <time>2018-06-03T08:48:41Z</time>
      </trkpt>
      <trkpt lat="45.85922" lon="4.66925">
        <ele>208</ele>
        <time>2018-06-03T08:48:42Z</time>
      </trkpt>
      <trkpt lat="45.85924" lon="4.66917">
        <ele>208</ele>
        <time>2018-06-03T08:48:43Z</time>
      </trkpt>
      <trkpt lat="45.85925" lon="4.66909">
        <ele>208</ele>
        <time>2018-06-03T08:48:44Z</time>
      </trkpt>
      <trkpt lat="45.85927" lon="4.66899">
        <ele>209</ele>
        <time>2018-06-03T08:48:45Z</time>
      </trkpt>
      <trkpt lat="45.85929" lon="4.66892">
        <ele>209</ele>
        <time>2018-06-03T08:48:46Z</time>
      </trkpt>
      <trkpt lat="45.85931" lon="4.66885">
        <ele>210</ele>
        <time>2018-06-03T08:48:47Z</time>
      </trkpt>
      <trkpt lat="45.85932" lon="4.66877">
        <ele>210</ele>
        <time>2018-06-03T08:48:48Z</time>
      </trkpt>
      <trkpt lat="45.85934" lon="4.6687">
        <ele>210</ele>
        <time>2018-06-03T08:48:49Z</time>
      </trkpt>
      <trkpt lat="45.85937" lon="4.66863">
        <ele>210</ele>
        <time>2018-06-03T08:48:50Z</time>
      </trkpt>
      <trkpt lat="45.85938" lon="4.66857">
        <ele>210</ele>
        <time>2018-06-03T08:48:51Z</time>
      </trkpt>
      <trkpt lat="45.8594" lon="4.6685">
        <ele>210</ele>
        <time>2018-06-03T08:48:52Z</time>
      </trkpt>
      <trkpt lat="45.85942" lon="4.66842">
        <ele>210</ele>
        <time>2018-06-03T08:48:53Z</time>
      </trkpt>
      <trkpt lat="45.85944" lon="4.66834">
        <ele>210</ele>
        <time>2018-06-03T08:48:54Z</time>
      </trkpt>
      <trkpt lat="45.85947" lon="4.66826">
        <ele>212</ele>
        <time>2018-06-03T08:48:55Z</time>
      </trkpt>
      <trkpt lat="45.85949" lon="4.66819">
        <ele>212</ele>
        <time>2018-06-03T08:48:56Z</time>
      </trkpt>
      <trkpt lat="45.85951" lon="4.66812">
        <ele>213</ele>
        <time>2018-06-03T08:48:57Z</time>
      </trkpt>
      <trkpt lat="45.85954" lon="4.66805">
        <ele>213</ele>
        <time>2018-06-03T08:48:58Z</time>
      </trkpt>
      <trkpt lat="45.85956" lon="4.66798">
        <ele>213</ele>
        <time>2018-06-03T08:48:59Z</time>
      </trkpt>
      <trkpt lat="45.85958" lon="4.66792">
        <ele>213</ele>
        <time>2018-06-03T08:49:00Z</time>
      </trkpt>
      <trkpt lat="45.85961" lon="4.66786">
        <ele>213</ele>
        <time>2018-06-03T08:49:01Z</time>
      </trkpt>
      <trkpt lat="45.85965" lon="4.6678">
        <ele>214</ele>
        <time>2018-06-03T08:49:02Z</time>
      </trkpt>
      <trkpt lat="45.85968" lon="4.66775">
        <ele>214</ele>
        <time>2018-06-03T08:49:03Z</time>
      </trkpt>
      <trkpt lat="45.85971" lon="4.6677">
        <ele>214</ele>
        <time>2018-06-03T08:49:04Z</time>
      </trkpt>
      <trkpt lat="45.85974" lon="4.66762">
        <ele>214</ele>
        <time>2018-06-03T08:49:05Z</time>
      </trkpt>
      <trkpt lat="45.85977" lon="4.66757">
        <ele>215</ele>
        <time>2018-06-03T08:49:06Z</time>
      </trkpt>
      <trkpt lat="45.8598" lon="4.6675">
        <ele>216</ele>
        <time>2018-06-03T08:49:07Z</time>
      </trkpt>
      <trkpt lat="45.85982" lon="4.66742">
        <ele>216</ele>
        <time>2018-06-03T08:49:08Z</time>
      </trkpt>
      <trkpt lat="45.85984" lon="4.66735">
        <ele>216</ele>
        <time>2018-06-03T08:49:09Z</time>
      </trkpt>
      <trkpt lat="45.85988" lon="4.66729">
        <ele>216</ele>
        <time>2018-06-03T08:49:10Z</time>
      </trkpt>
      <trkpt lat="45.85992" lon="4.66718">
        <ele>215</ele>
        <time>2018-06-03T08:49:12Z</time>
      </trkpt>
      <trkpt lat="45.85994" lon="4.66712">
        <ele>215</ele>
        <time>2018-06-03T08:49:13Z</time>
      </trkpt>
      <trkpt lat="45.85997" lon="4.66707">
        <ele>215</ele>
        <time>2018-06-03T08:49:14Z</time>
      </trkpt>
      <trkpt lat="45.86001" lon="4.66701">
        <ele>219</ele>
        <time>2018-06-03T08:49:15Z</time>
      </trkpt>
      <trkpt lat="45.86005" lon="4.66695">
        <ele>218</ele>
        <time>2018-06-03T08:49:16Z</time>
      </trkpt>
      <trkpt lat="45.86008" lon="4.6669">
        <ele>218</ele>
        <time>2018-06-03T08:49:17Z</time>
      </trkpt>
      <trkpt lat="45.86011" lon="4.66683">
        <ele>217</ele>
        <time>2018-06-03T08:49:18Z</time>
      </trkpt>
      <trkpt lat="45.86016" lon="4.66678">
        <ele>217</ele>
        <time>2018-06-03T08:49:19Z</time>
      </trkpt>
      <trkpt lat="45.86021" lon="4.66673">
        <ele>218</ele>
        <time>2018-06-03T08:49:20Z</time>
      </trkpt>
      <trkpt lat="45.86026" lon="4.66669">
        <ele>218</ele>
        <time>2018-06-03T08:49:21Z</time>
      </trkpt>
      <trkpt lat="45.86032" lon="4.66664">
        <ele>214</ele>
        <time>2018-06-03T08:49:22Z</time>
      </trkpt>
      <trkpt lat="45.86037" lon="4.66662">
        <ele>214</ele>
        <time>2018-06-03T08:49:23Z</time>
      </trkpt>
      <trkpt lat="45.86043" lon="4.66659">
        <ele>215</ele>
        <time>2018-06-03T08:49:24Z</time>
      </trkpt>
      <trkpt lat="45.86045" lon="4.66655">
        <ele>215</ele>
        <time>2018-06-03T08:49:25Z</time>
      </trkpt>
      <trkpt lat="45.86049" lon="4.66651">
        <ele>215</ele>
        <time>2018-06-03T08:49:26Z</time>
      </trkpt>
      <trkpt lat="45.86051" lon="4.66645">
        <ele>215</ele>
        <time>2018-06-03T08:49:27Z</time>
      </trkpt>
      <trkpt lat="45.86057" lon="4.66637">
        <ele>215</ele>
        <time>2018-06-03T08:49:29Z</time>
      </trkpt>
      <trkpt lat="45.86064" lon="4.66635">
        <ele>215</ele>
        <time>2018-06-03T08:49:30Z</time>
      </trkpt>
      <trkpt lat="45.8607" lon="4.66632">
        <ele>215</ele>
        <time>2018-06-03T08:49:31Z</time>
      </trkpt>
      <trkpt lat="45.86076" lon="4.6663">
        <ele>215</ele>
        <time>2018-06-03T08:49:32Z</time>
      </trkpt>
      <trkpt lat="45.86082" lon="4.6662">
        <ele>214</ele>
        <time>2018-06-03T08:49:33Z</time>
      </trkpt>
      <trkpt lat="45.86086" lon="4.66619">
        <ele>221</ele>
        <time>2018-06-03T08:49:34Z</time>
      </trkpt>
      <trkpt lat="45.86092" lon="4.66617">
        <ele>221</ele>
        <time>2018-06-03T08:49:35Z</time>
      </trkpt>
      <trkpt lat="45.86096" lon="4.66616">
        <ele>221</ele>
        <time>2018-06-03T08:49:36Z</time>
      </trkpt>
      <trkpt lat="45.861" lon="4.66612">
        <ele>221</ele>
        <time>2018-06-03T08:49:38Z</time>
      </trkpt>
      <trkpt lat="45.86108" lon="4.66607">
        <ele>221</ele>
        <time>2018-06-03T08:49:39Z</time>
      </trkpt>
      <trkpt lat="45.86111" lon="4.66606">
        <ele>221</ele>
        <time>2018-06-03T08:49:40Z</time>
      </trkpt>
      <trkpt lat="45.86114" lon="4.66597">
        <ele>220</ele>
        <time>2018-06-03T08:49:41Z</time>
      </trkpt>
      <trkpt lat="45.86119" lon="4.66595">
        <ele>221</ele>
        <time>2018-06-03T08:49:42Z</time>
      </trkpt>
      <trkpt lat="45.86125" lon="4.66589">
        <ele>221</ele>
        <time>2018-06-03T08:49:43Z</time>
      </trkpt>
      <trkpt lat="45.86132" lon="4.6658">
        <ele>215</ele>
        <time>2018-06-03T08:49:44Z</time>
      </trkpt>
      <trkpt lat="45.8614" lon="4.66575">
        <ele>215</ele>
        <time>2018-06-03T08:49:46Z</time>
      </trkpt>
      <trkpt lat="45.86145" lon="4.6657">
        <ele>216</ele>
        <time>2018-06-03T08:49:47Z</time>
      </trkpt>
      <trkpt lat="45.86148" lon="4.66566">
        <ele>216</ele>
        <time>2018-06-03T08:49:48Z</time>
      </trkpt>
      <trkpt lat="45.86156" lon="4.66562">
        <ele>216</ele>
        <time>2018-06-03T08:49:49Z</time>
      </trkpt>
      <trkpt lat="45.86162" lon="4.66552">
        <ele>215</ele>
        <time>2018-06-03T08:49:51Z</time>
      </trkpt>
      <trkpt lat="45.86164" lon="4.66547">
        <ele>215</ele>
        <time>2018-06-03T08:49:52Z</time>
      </trkpt>
      <trkpt lat="45.86169" lon="4.66539">
        <ele>219</ele>
        <time>2018-06-03T08:49:53Z</time>
      </trkpt>
      <trkpt lat="45.86172" lon="4.66534">
        <ele>219</ele>
        <time>2018-06-03T08:49:54Z</time>
      </trkpt>
      <trkpt lat="45.86176" lon="4.66529">
        <ele>218</ele>
        <time>2018-06-03T08:49:55Z</time>
      </trkpt>
      <trkpt lat="45.86179" lon="4.66523">
        <ele>218</ele>
        <time>2018-06-03T08:49:56Z</time>
      </trkpt>
      <trkpt lat="45.86181" lon="4.66516">
        <ele>217</ele>
        <time>2018-06-03T08:49:57Z</time>
      </trkpt>
      <trkpt lat="45.86184" lon="4.6651">
        <ele>216</ele>
        <time>2018-06-03T08:49:58Z</time>
      </trkpt>
      <trkpt lat="45.86188" lon="4.66504">
        <ele>217</ele>
        <time>2018-06-03T08:49:59Z</time>
      </trkpt>
      <trkpt lat="45.86192" lon="4.66498">
        <ele>213</ele>
        <time>2018-06-03T08:50:00Z</time>
      </trkpt>
      <trkpt lat="45.86195" lon="4.66491">
        <ele>213</ele>
        <time>2018-06-03T08:50:01Z</time>
      </trkpt>
      <trkpt lat="45.86198" lon="4.66485">
        <ele>213</ele>
        <time>2018-06-03T08:50:02Z</time>
      </trkpt>
      <trkpt lat="45.86202" lon="4.66477">
        <ele>213</ele>
        <time>2018-06-03T08:50:03Z</time>
      </trkpt>
      <trkpt lat="45.86206" lon="4.6647">
        <ele>213</ele>
        <time>2018-06-03T08:50:04Z</time>
      </trkpt>
      <trkpt lat="45.8621" lon="4.66463">
        <ele>213</ele>
        <time>2018-06-03T08:50:05Z</time>
      </trkpt>
      <trkpt lat="45.86213" lon="4.66455">
        <ele>213</ele>
        <time>2018-06-03T08:50:06Z</time>
      </trkpt>
      <trkpt lat="45.86218" lon="4.66448">
        <ele>213</ele>
        <time>2018-06-03T08:50:07Z</time>
      </trkpt>
      <trkpt lat="45.86222" lon="4.66442">
        <ele>213</ele>
        <time>2018-06-03T08:50:08Z</time>
      </trkpt>
      <trkpt lat="45.86225" lon="4.66435">
        <ele>213</ele>
        <time>2018-06-03T08:50:09Z</time>
      </trkpt>
      <trkpt lat="45.8623" lon="4.66428">
        <ele>214</ele>
        <time>2018-06-03T08:50:10Z</time>
      </trkpt>
      <trkpt lat="45.86235" lon="4.66421">
        <ele>214</ele>
        <time>2018-06-03T08:50:11Z</time>
      </trkpt>
      <trkpt lat="45.8624" lon="4.66417">
        <ele>213</ele>
        <time>2018-06-03T08:50:12Z</time>
      </trkpt>
      <trkpt lat="45.86242" lon="4.66404">
        <ele>213</ele>
        <time>2018-06-03T08:50:13Z</time>
      </trkpt>
      <trkpt lat="45.86247" lon="4.66397">
        <ele>213</ele>
        <time>2018-06-03T08:50:14Z</time>
      </trkpt>
      <trkpt lat="45.86253" lon="4.66391">
        <ele>216</ele>
        <time>2018-06-03T08:50:15Z</time>
      </trkpt>
      <trkpt lat="45.86255" lon="4.66382">
        <ele>216</ele>
        <time>2018-06-03T08:50:16Z</time>
      </trkpt>
      <trkpt lat="45.86261" lon="4.66376">
        <ele>216</ele>
        <time>2018-06-03T08:50:17Z</time>
      </trkpt>
      <trkpt lat="45.86262" lon="4.66369">
        <ele>216</ele>
        <time>2018-06-03T08:50:18Z</time>
      </trkpt>
      <trkpt lat="45.86269" lon="4.66364">
        <ele>216</ele>
        <time>2018-06-03T08:50:19Z</time>
      </trkpt>
      <trkpt lat="45.86275" lon="4.66358">
        <ele>216</ele>
        <time>2018-06-03T08:50:20Z</time>
      </trkpt>
      <trkpt lat="45.86279" lon="4.6635">
        <ele>216</ele>
        <time>2018-06-03T08:50:21Z</time>
      </trkpt>
      <trkpt lat="45.86283" lon="4.66347">
        <ele>217</ele>
        <time>2018-06-03T08:50:22Z</time>
      </trkpt>
      <trkpt lat="45.86287" lon="4.6634">
        <ele>217</ele>
        <time>2018-06-03T08:50:23Z</time>
      </trkpt>
      <trkpt lat="45.8629" lon="4.66335">
        <ele>217</ele>
        <time>2018-06-03T08:50:24Z</time>
      </trkpt>
      <trkpt lat="45.86293" lon="4.66329">
        <ele>215</ele>
        <time>2018-06-03T08:50:25Z</time>
      </trkpt>
      <trkpt lat="45.86299" lon="4.66323">
        <ele>215</ele>
        <time>2018-06-03T08:50:26Z</time>
      </trkpt>
      <trkpt lat="45.86302" lon="4.66316">
        <ele>215</ele>
        <time>2018-06-03T08:50:27Z</time>
      </trkpt>
      <trkpt lat="45.86308" lon="4.66307">
        <ele>215</ele>
        <time>2018-06-03T08:50:29Z</time>
      </trkpt>
      <trkpt lat="45.86314" lon="4.66301">
        <ele>215</ele>
        <time>2018-06-03T08:50:30Z</time>
      </trkpt>
      <trkpt lat="45.8632" lon="4.66298">
        <ele>215</ele>
        <time>2018-06-03T08:50:31Z</time>
      </trkpt>
      <trkpt lat="45.86324" lon="4.66295">
        <ele>215</ele>
        <time>2018-06-03T08:50:32Z</time>
      </trkpt>
      <trkpt lat="45.86329" lon="4.6629">
        <ele>215</ele>
        <time>2018-06-03T08:50:33Z</time>
      </trkpt>
      <trkpt lat="45.86333" lon="4.66287">
        <ele>215</ele>
        <time>2018-06-03T08:50:34Z</time>
      </trkpt>
      <trkpt lat="45.86338" lon="4.66282">
        <ele>219</ele>
        <time>2018-06-03T08:50:35Z</time>
      </trkpt>
      <trkpt lat="45.86343" lon="4.66277">
        <ele>218</ele>
        <time>2018-06-03T08:50:36Z</time>
      </trkpt>
      <trkpt lat="45.86347" lon="4.66274">
        <ele>218</ele>
        <time>2018-06-03T08:50:37Z</time>
      </trkpt>
      <trkpt lat="45.86352" lon="4.66266">
        <ele>218</ele>
        <time>2018-06-03T08:50:38Z</time>
      </trkpt>
      <trkpt lat="45.86357" lon="4.66263">
        <ele>218</ele>
        <time>2018-06-03T08:50:39Z</time>
      </trkpt>
      <trkpt lat="45.86361" lon="4.66259">
        <ele>218</ele>
        <time>2018-06-03T08:50:40Z</time>
      </trkpt>
      <trkpt lat="45.86365" lon="4.66254">
        <ele>218</ele>
        <time>2018-06-03T08:50:41Z</time>
      </trkpt>
      <trkpt lat="45.86371" lon="4.66249">
        <ele>214</ele>
        <time>2018-06-03T08:50:42Z</time>
      </trkpt>
      <trkpt lat="45.86376" lon="4.66246">
        <ele>214</ele>
        <time>2018-06-03T08:50:43Z</time>
      </trkpt>
      <trkpt lat="45.86382" lon="4.66243">
        <ele>214</ele>
        <time>2018-06-03T08:50:44Z</time>
      </trkpt>
      <trkpt lat="45.86388" lon="4.6624">
        <ele>215</ele>
        <time>2018-06-03T08:50:45Z</time>
      </trkpt>
      <trkpt lat="45.86394" lon="4.6624">
        <ele>215</ele>
        <time>2018-06-03T08:50:46Z</time>
      </trkpt>
      <trkpt lat="45.86399" lon="4.66236">
        <ele>216</ele>
        <time>2018-06-03T08:50:47Z</time>
      </trkpt>
      <trkpt lat="45.86403" lon="4.66235">
        <ele>216</ele>
        <time>2018-06-03T08:50:48Z</time>
      </trkpt>
      <trkpt lat="45.8641" lon="4.66234">
        <ele>216</ele>
        <time>2018-06-03T08:50:49Z</time>
      </trkpt>
      <trkpt lat="45.86413" lon="4.66234">
        <ele>217</ele>
        <time>2018-06-03T08:50:50Z</time>
      </trkpt>
      <trkpt lat="45.8642" lon="4.66231">
        <ele>219</ele>
        <time>2018-06-03T08:50:51Z</time>
      </trkpt>
      <trkpt lat="45.86424" lon="4.66228">
        <ele>218</ele>
        <time>2018-06-03T08:50:52Z</time>
      </trkpt>
      <trkpt lat="45.8643" lon="4.66226">
        <ele>218</ele>
        <time>2018-06-03T08:50:53Z</time>
      </trkpt>
      <trkpt lat="45.86435" lon="4.66223">
        <ele>218</ele>
        <time>2018-06-03T08:50:54Z</time>
      </trkpt>
      <trkpt lat="45.8644" lon="4.66227">
        <ele>218</ele>
        <time>2018-06-03T08:50:55Z</time>
      </trkpt>
      <trkpt lat="45.86444" lon="4.66223">
        <ele>218</ele>
        <time>2018-06-03T08:50:56Z</time>
      </trkpt>
      <trkpt lat="45.86451" lon="4.66218">
        <ele>218</ele>
        <time>2018-06-03T08:50:58Z</time>
      </trkpt>
      <trkpt lat="45.86455" lon="4.66219">
        <ele>218</ele>
        <time>2018-06-03T08:50:59Z</time>
      </trkpt>
      <trkpt lat="45.86459" lon="4.66215">
        <ele>218</ele>
        <time>2018-06-03T08:51:00Z</time>
      </trkpt>
      <trkpt lat="45.86465" lon="4.66215">
        <ele>218</ele>
        <time>2018-06-03T08:51:01Z</time>
      </trkpt>
      <trkpt lat="45.86471" lon="4.66215">
        <ele>218</ele>
        <time>2018-06-03T08:51:02Z</time>
      </trkpt>
      <trkpt lat="45.86475" lon="4.66213">
        <ele>218</ele>
        <time>2018-06-03T08:51:03Z</time>
      </trkpt>
      <trkpt lat="45.8648" lon="4.66211">
        <ele>218</ele>
        <time>2018-06-03T08:51:04Z</time>
      </trkpt>
      <trkpt lat="45.86487" lon="4.66211">
        <ele>219</ele>
        <time>2018-06-03T08:51:05Z</time>
      </trkpt>
      <trkpt lat="45.86492" lon="4.66213">
        <ele>219</ele>
        <time>2018-06-03T08:51:06Z</time>
      </trkpt>
      <trkpt lat="45.86497" lon="4.66207">
        <ele>218</ele>
        <time>2018-06-03T08:51:07Z</time>
      </trkpt>
      <trkpt lat="45.86505" lon="4.66204">
        <ele>224</ele>
        <time>2018-06-03T08:51:09Z</time>
      </trkpt>
      <trkpt lat="45.86509" lon="4.66203">
        <ele>224</ele>
        <time>2018-06-03T08:51:10Z</time>
      </trkpt>
      <trkpt lat="45.86516" lon="4.662">
        <ele>224</ele>
        <time>2018-06-03T08:51:12Z</time>
      </trkpt>
      <trkpt lat="45.86521" lon="4.66196">
        <ele>224</ele>
        <time>2018-06-03T08:51:13Z</time>
      </trkpt>
      <trkpt lat="45.86526" lon="4.66194">
        <ele>225</ele>
        <time>2018-06-03T08:51:14Z</time>
      </trkpt>
      <trkpt lat="45.86529" lon="4.6619">
        <ele>225</ele>
        <time>2018-06-03T08:51:15Z</time>
      </trkpt>
      <trkpt lat="45.86535" lon="4.66186">
        <ele>225</ele>
        <time>2018-06-03T08:51:16Z</time>
      </trkpt>
      <trkpt lat="45.8654" lon="4.66185">
        <ele>225</ele>
        <time>2018-06-03T08:51:17Z</time>
      </trkpt>
      <trkpt lat="45.86544" lon="4.6618">
        <ele>226</ele>
        <time>2018-06-03T08:51:18Z</time>
      </trkpt>
      <trkpt lat="45.86547" lon="4.66176">
        <ele>226</ele>
        <time>2018-06-03T08:51:19Z</time>
      </trkpt>
      <trkpt lat="45.86552" lon="4.6617">
        <ele>226</ele>
        <time>2018-06-03T08:51:20Z</time>
      </trkpt>
      <trkpt lat="45.86556" lon="4.66164">
        <ele>219</ele>
        <time>2018-06-03T08:51:21Z</time>
      </trkpt>
      <trkpt lat="45.8656" lon="4.6616">
        <ele>220</ele>
        <time>2018-06-03T08:51:22Z</time>
      </trkpt>
      <trkpt lat="45.86565" lon="4.66157">
        <ele>220</ele>
        <time>2018-06-03T08:51:23Z</time>
      </trkpt>
      <trkpt lat="45.86569" lon="4.66153">
        <ele>221</ele>
        <time>2018-06-03T08:51:24Z</time>
      </trkpt>
      <trkpt lat="45.86574" lon="4.66149">
        <ele>221</ele>
        <time>2018-06-03T08:51:25Z</time>
      </trkpt>
      <trkpt lat="45.86579" lon="4.66143">
        <ele>220</ele>
        <time>2018-06-03T08:51:26Z</time>
      </trkpt>
      <trkpt lat="45.86583" lon="4.6614">
        <ele>219</ele>
        <time>2018-06-03T08:51:27Z</time>
      </trkpt>
      <trkpt lat="45.86588" lon="4.66134">
        <ele>225</ele>
        <time>2018-06-03T08:51:28Z</time>
      </trkpt>
      <trkpt lat="45.86593" lon="4.66129">
        <ele>224</ele>
        <time>2018-06-03T08:51:29Z</time>
      </trkpt>
      <trkpt lat="45.86598" lon="4.66125">
        <ele>224</ele>
        <time>2018-06-03T08:51:30Z</time>
      </trkpt>
      <trkpt lat="45.86605" lon="4.66122">
        <ele>224</ele>
        <time>2018-06-03T08:51:31Z</time>
      </trkpt>
      <trkpt lat="45.86612" lon="4.6612">
        <ele>224</ele>
        <time>2018-06-03T08:51:32Z</time>
      </trkpt>
      <trkpt lat="45.86618" lon="4.66116">
        <ele>224</ele>
        <time>2018-06-03T08:51:33Z</time>
      </trkpt>
      <trkpt lat="45.86624" lon="4.66114">
        <ele>224</ele>
        <time>2018-06-03T08:51:34Z</time>
      </trkpt>
      <trkpt lat="45.86628" lon="4.66109">
        <ele>224</ele>
        <time>2018-06-03T08:51:35Z</time>
      </trkpt>
      <trkpt lat="45.86635" lon="4.6611">
        <ele>225</ele>
        <time>2018-06-03T08:51:36Z</time>
      </trkpt>
      <trkpt lat="45.8664" lon="4.66105">
        <ele>224</ele>
        <time>2018-06-03T08:51:37Z</time>
      </trkpt>
      <trkpt lat="45.86648" lon="4.66105">
        <ele>224</ele>
        <time>2018-06-03T08:51:38Z</time>
      </trkpt>
      <trkpt lat="45.86654" lon="4.66105">
        <ele>224</ele>
        <time>2018-06-03T08:51:39Z</time>
      </trkpt>
      <trkpt lat="45.86661" lon="4.66103">
        <ele>224</ele>
        <time>2018-06-03T08:51:40Z</time>
      </trkpt>
      <trkpt lat="45.86666" lon="4.66101">
        <ele>223</ele>
        <time>2018-06-03T08:51:41Z</time>
      </trkpt>
      <trkpt lat="45.86672" lon="4.661">
        <ele>230</ele>
        <time>2018-06-03T08:51:42Z</time>
      </trkpt>
      <trkpt lat="45.86676" lon="4.66097">
        <ele>230</ele>
        <time>2018-06-03T08:51:43Z</time>
      </trkpt>
      <trkpt lat="45.86683" lon="4.66094">
        <ele>231</ele>
        <time>2018-06-03T08:51:44Z</time>
      </trkpt>
      <trkpt lat="45.86686" lon="4.66091">
        <ele>232</ele>
        <time>2018-06-03T08:51:45Z</time>
      </trkpt>
      <trkpt lat="45.86691" lon="4.66091">
        <ele>233</ele>
        <time>2018-06-03T08:51:46Z</time>
      </trkpt>
      <trkpt lat="45.86697" lon="4.66091">
        <ele>235</ele>
        <time>2018-06-03T08:51:47Z</time>
      </trkpt>
      <trkpt lat="45.86702" lon="4.66085">
        <ele>236</ele>
        <time>2018-06-03T08:51:48Z</time>
      </trkpt>
      <trkpt lat="45.86706" lon="4.6608">
        <ele>224</ele>
        <time>2018-06-03T08:51:49Z</time>
      </trkpt>
      <trkpt lat="45.86714" lon="4.66074">
        <ele>225</ele>
        <time>2018-06-03T08:51:51Z</time>
      </trkpt>
      <trkpt lat="45.86719" lon="4.66076">
        <ele>226</ele>
        <time>2018-06-03T08:51:52Z</time>
      </trkpt>
      <trkpt lat="45.86725" lon="4.66078">
        <ele>228</ele>
        <time>2018-06-03T08:51:54Z</time>
      </trkpt>
      <trkpt lat="45.86732" lon="4.66077">
        <ele>230</ele>
        <time>2018-06-03T08:51:55Z</time>
      </trkpt>
      <trkpt lat="45.86736" lon="4.66069">
        <ele>229</ele>
        <time>2018-06-03T08:51:56Z</time>
      </trkpt>
      <trkpt lat="45.86739" lon="4.66063">
        <ele>228</ele>
        <time>2018-06-03T08:51:57Z</time>
      </trkpt>
      <trkpt lat="45.86742" lon="4.66048">
        <ele>225</ele>
        <time>2018-06-03T08:51:58Z</time>
      </trkpt>
      <trkpt lat="45.86746" lon="4.66043">
        <ele>224</ele>
        <time>2018-06-03T08:51:59Z</time>
      </trkpt>
      <trkpt lat="45.86751" lon="4.66046">
        <ele>235</ele>
        <time>2018-06-03T08:52:00Z</time>
      </trkpt>
      <trkpt lat="45.86757" lon="4.6604">
        <ele>234</ele>
        <time>2018-06-03T08:52:01Z</time>
      </trkpt>
      <trkpt lat="45.86762" lon="4.6604">
        <ele>234</ele>
        <time>2018-06-03T08:52:02Z</time>
      </trkpt>
      <trkpt lat="45.8677" lon="4.66038">
        <ele>234</ele>
        <time>2018-06-03T08:52:04Z</time>
      </trkpt>
      <trkpt lat="45.86776" lon="4.66035">
        <ele>235</ele>
        <time>2018-06-03T08:52:05Z</time>
      </trkpt>
      <trkpt lat="45.86778" lon="4.6603">
        <ele>234</ele>
        <time>2018-06-03T08:52:10.448Z</time>
      </trkpt>
      <trkpt lat="45.86783" lon="4.66024">
        <ele>234</ele>
        <time>2018-06-03T08:52:07Z</time>
      </trkpt>
      <trkpt lat="45.86786" lon="4.66017">
        <ele>234</ele>
        <time>2018-06-03T08:52:08Z</time>
      </trkpt>
      <trkpt lat="45.86791" lon="4.6601">
        <ele>234</ele>
        <time>2018-06-03T08:52:09Z</time>
      </trkpt>
      <trkpt lat="45.86794" lon="4.66003">
        <ele>234</ele>
        <time>2018-06-03T08:52:10Z</time>
      </trkpt>
      <trkpt lat="45.86798" lon="4.66">
        <ele>224</ele>
        <time>2018-06-03T08:52:11Z</time>
      </trkpt>
      <trkpt lat="45.86802" lon="4.65994">
        <ele>225</ele>
        <time>2018-06-03T08:52:12Z</time>
      </trkpt>
      <trkpt lat="45.86804" lon="4.65989">
        <ele>225</ele>
        <time>2018-06-03T08:52:13Z</time>
      </trkpt>
      <trkpt lat="45.86808" lon="4.65982">
        <ele>225</ele>
        <time>2018-06-03T08:52:14Z</time>
      </trkpt>
      <trkpt lat="45.86813" lon="4.65976">
        <ele>225</ele>
        <time>2018-06-03T08:52:15Z</time>
      </trkpt>
      <trkpt lat="45.86815" lon="4.65971">
        <ele>225</ele>
        <time>2018-06-03T08:52:16Z</time>
      </trkpt>
      <trkpt lat="45.86819" lon="4.65964">
        <ele>224</ele>
        <time>2018-06-03T08:52:17Z</time>
      </trkpt>
      <trkpt lat="45.86822" lon="4.65957">
        <ele>223</ele>
        <time>2018-06-03T08:52:18Z</time>
      </trkpt>
      <trkpt lat="45.86825" lon="4.65953">
        <ele>223</ele>
        <time>2018-06-03T08:52:19Z</time>
      </trkpt>
      <trkpt lat="45.86829" lon="4.65948">
        <ele>223</ele>
        <time>2018-06-03T08:52:20Z</time>
      </trkpt>
      <trkpt lat="45.86831" lon="4.65941">
        <ele>222</ele>
        <time>2018-06-03T08:52:21Z</time>
      </trkpt>
      <trkpt lat="45.86833" lon="4.65935">
        <ele>222</ele>
        <time>2018-06-03T08:52:22Z</time>
      </trkpt>
      <trkpt lat="45.86838" lon="4.6593">
        <ele>231</ele>
        <time>2018-06-03T08:52:23Z</time>
      </trkpt>
      <trkpt lat="45.86842" lon="4.65925">
        <ele>230</ele>
        <time>2018-06-03T08:52:24Z</time>
      </trkpt>
      <trkpt lat="45.86845" lon="4.6592">
        <ele>230</ele>
        <time>2018-06-03T08:52:25Z</time>
      </trkpt>
      <trkpt lat="45.86848" lon="4.65913">
        <ele>225</ele>
        <time>2018-06-03T08:52:26Z</time>
      </trkpt>
      <trkpt lat="45.86852" lon="4.65907">
        <ele>226</ele>
        <time>2018-06-03T08:52:27Z</time>
      </trkpt>
      <trkpt lat="45.86855" lon="4.65903">
        <ele>227</ele>
        <time>2018-06-03T08:52:28Z</time>
      </trkpt>
      <trkpt lat="45.86857" lon="4.65896">
        <ele>228</ele>
        <time>2018-06-03T08:52:29Z</time>
      </trkpt>
      <trkpt lat="45.8686" lon="4.6589">
        <ele>228</ele>
        <time>2018-06-03T08:52:30Z</time>
      </trkpt>
      <trkpt lat="45.86862" lon="4.65884">
        <ele>228</ele>
        <time>2018-06-03T08:52:31Z</time>
      </trkpt>
      <trkpt lat="45.86865" lon="4.65877">
        <ele>228</ele>
        <time>2018-06-03T08:52:32Z</time>
      </trkpt>
      <trkpt lat="45.86869" lon="4.6587">
        <ele>228</ele>
        <time>2018-06-03T08:52:33Z</time>
      </trkpt>
      <trkpt lat="45.86871" lon="4.65864">
        <ele>228</ele>
        <time>2018-06-03T08:52:34Z</time>
      </trkpt>
      <trkpt lat="45.86874" lon="4.65856">
        <ele>228</ele>
        <time>2018-06-03T08:52:35Z</time>
      </trkpt>
      <trkpt lat="45.86876" lon="4.65848">
        <ele>228</ele>
        <time>2018-06-03T08:52:36Z</time>
      </trkpt>
      <trkpt lat="45.8688" lon="4.65842">
        <ele>228</ele>
        <time>2018-06-03T08:52:37Z</time>
      </trkpt>
      <trkpt lat="45.86882" lon="4.6583">
        <ele>224</ele>
        <time>2018-06-03T08:52:38Z</time>
      </trkpt>
      <trkpt lat="45.86883" lon="4.65823">
        <ele>224</ele>
        <time>2018-06-03T08:52:39Z</time>
      </trkpt>
      <trkpt lat="45.86882" lon="4.6581">
        <ele>223</ele>
        <time>2018-06-03T08:52:40Z</time>
      </trkpt>
      <trkpt lat="45.86883" lon="4.65804">
        <ele>223</ele>
        <time>2018-06-03T08:52:41Z</time>
      </trkpt>
      <trkpt lat="45.86884" lon="4.65797">
        <ele>223</ele>
        <time>2018-06-03T08:52:42Z</time>
      </trkpt>
      <trkpt lat="45.86886" lon="4.6579">
        <ele>223</ele>
        <time>2018-06-03T08:52:43Z</time>
      </trkpt>
      <trkpt lat="45.86887" lon="4.65782">
        <ele>223</ele>
        <time>2018-06-03T08:52:44Z</time>
      </trkpt>
      <trkpt lat="45.86887" lon="4.65774">
        <ele>223</ele>
        <time>2018-06-03T08:52:45Z</time>
      </trkpt>
      <trkpt lat="45.86888" lon="4.65766">
        <ele>223</ele>
        <time>2018-06-03T08:52:46Z</time>
      </trkpt>
      <trkpt lat="45.86891" lon="4.65761">
        <ele>224</ele>
        <time>2018-06-03T08:52:47Z</time>
      </trkpt>
      <trkpt lat="45.86892" lon="4.65749">
        <ele>224</ele>
        <time>2018-06-03T08:52:48Z</time>
      </trkpt>
      <trkpt lat="45.86894" lon="4.6574">
        <ele>224</ele>
        <time>2018-06-03T08:52:49Z</time>
      </trkpt>
      <trkpt lat="45.86894" lon="4.65732">
        <ele>224</ele>
        <time>2018-06-03T08:52:50Z</time>
      </trkpt>
      <trkpt lat="45.86896" lon="4.65725">
        <ele>223</ele>
        <time>2018-06-03T08:52:51Z</time>
      </trkpt>
      <trkpt lat="45.86896" lon="4.65713">
        <ele>223</ele>
        <time>2018-06-03T08:52:52Z</time>
      </trkpt>
      <trkpt lat="45.86896" lon="4.65702">
        <ele>223</ele>
        <time>2018-06-03T08:52:53Z</time>
      </trkpt>
      <trkpt lat="45.86897" lon="4.65692">
        <ele>224</ele>
        <time>2018-06-03T08:52:54Z</time>
      </trkpt>
      <trkpt lat="45.86898" lon="4.65683">
        <ele>225</ele>
        <time>2018-06-03T08:52:55Z</time>
      </trkpt>
      <trkpt lat="45.86898" lon="4.65673">
        <ele>225</ele>
        <time>2018-06-03T08:52:56Z</time>
      </trkpt>
      <trkpt lat="45.86899" lon="4.65664">
        <ele>225</ele>
        <time>2018-06-03T08:52:57Z</time>
      </trkpt>
      <trkpt lat="45.86901" lon="4.65655">
        <ele>225</ele>
        <time>2018-06-03T08:52:58Z</time>
      </trkpt>
      <trkpt lat="45.86902" lon="4.65645">
        <ele>224</ele>
        <time>2018-06-03T08:52:59Z</time>
      </trkpt>
      <trkpt lat="45.86903" lon="4.65636">
        <ele>224</ele>
        <time>2018-06-03T08:53:00Z</time>
      </trkpt>
      <trkpt lat="45.86903" lon="4.65625">
        <ele>223</ele>
        <time>2018-06-03T08:53:01Z</time>
      </trkpt>
      <trkpt lat="45.86907" lon="4.65616">
        <ele>223</ele>
        <time>2018-06-03T08:53:02Z</time>
      </trkpt>
      <trkpt lat="45.8691" lon="4.65606">
        <ele>223</ele>
        <time>2018-06-03T08:53:03Z</time>
      </trkpt>
      <trkpt lat="45.86912" lon="4.65597">
        <ele>224</ele>
        <time>2018-06-03T08:53:04Z</time>
      </trkpt>
      <trkpt lat="45.86916" lon="4.65586">
        <ele>226</ele>
        <time>2018-06-03T08:53:05Z</time>
      </trkpt>
      <trkpt lat="45.86916" lon="4.65574">
        <ele>223</ele>
        <time>2018-06-03T08:53:06Z</time>
      </trkpt>
      <trkpt lat="45.86921" lon="4.65566">
        <ele>230</ele>
        <time>2018-06-03T08:53:07Z</time>
      </trkpt>
      <trkpt lat="45.86923" lon="4.65556">
        <ele>230</ele>
        <time>2018-06-03T08:53:08Z</time>
      </trkpt>
      <trkpt lat="45.86925" lon="4.65546">
        <ele>230</ele>
        <time>2018-06-03T08:53:09Z</time>
      </trkpt>
      <trkpt lat="45.86929" lon="4.65536">
        <ele>230</ele>
        <time>2018-06-03T08:53:10Z</time>
      </trkpt>
      <trkpt lat="45.86932" lon="4.65526">
        <ele>229</ele>
        <time>2018-06-03T08:53:11Z</time>
      </trkpt>
      <trkpt lat="45.86933" lon="4.65517">
        <ele>228</ele>
        <time>2018-06-03T08:53:12Z</time>
      </trkpt>
      <trkpt lat="45.86937" lon="4.65505">
        <ele>227</ele>
        <time>2018-06-03T08:53:13Z</time>
      </trkpt>
      <trkpt lat="45.86946" lon="4.65499">
        <ele>222</ele>
        <time>2018-06-03T08:53:14Z</time>
      </trkpt>
      <trkpt lat="45.8695" lon="4.65491">
        <ele>223</ele>
        <time>2018-06-03T08:53:15Z</time>
      </trkpt>
      <trkpt lat="45.86952" lon="4.65483">
        <ele>223</ele>
        <time>2018-06-03T08:53:16Z</time>
      </trkpt>
      <trkpt lat="45.86957" lon="4.65474">
        <ele>223</ele>
        <time>2018-06-03T08:53:17Z</time>
      </trkpt>
      <trkpt lat="45.86962" lon="4.65467">
        <ele>223</ele>
        <time>2018-06-03T08:53:18Z</time>
      </trkpt>
      <trkpt lat="45.86969" lon="4.65461">
        <ele>223</ele>
        <time>2018-06-03T08:53:19Z</time>
      </trkpt>
      <trkpt lat="45.86974" lon="4.65455">
        <ele>223</ele>
        <time>2018-06-03T08:53:20Z</time>
      </trkpt>
      <trkpt lat="45.86976" lon="4.65448">
        <ele>223</ele>
        <time>2018-06-03T08:53:21Z</time>
      </trkpt>
      <trkpt lat="45.86982" lon="4.65443">
        <ele>222</ele>
        <time>2018-06-03T08:53:22Z</time>
      </trkpt>
      <trkpt lat="45.86987" lon="4.65438">
        <ele>222</ele>
        <time>2018-06-03T08:53:23Z</time>
      </trkpt>
      <trkpt lat="45.86992" lon="4.65433">
        <ele>222</ele>
        <time>2018-06-03T08:53:24Z</time>
      </trkpt>
      <trkpt lat="45.86995" lon="4.65425">
        <ele>222</ele>
        <time>2018-06-03T08:53:25Z</time>
      </trkpt>
      <trkpt lat="45.87001" lon="4.65421">
        <ele>224</ele>
        <time>2018-06-03T08:53:26Z</time>
      </trkpt>
      <trkpt lat="45.87" lon="4.65411">
        <ele>222</ele>
        <time>2018-06-03T08:53:27Z</time>
      </trkpt>
      <trkpt lat="45.87004" lon="4.65403">
        <ele>222</ele>
        <time>2018-06-03T08:53:28Z</time>
      </trkpt>
      <trkpt lat="45.87006" lon="4.65397">
        <ele>223</ele>
        <time>2018-06-03T08:53:29Z</time>
      </trkpt>
      <trkpt lat="45.87015" lon="4.65393">
        <ele>223</ele>
        <time>2018-06-03T08:53:30Z</time>
      </trkpt>
      <trkpt lat="45.87018" lon="4.65387">
        <ele>223</ele>
        <time>2018-06-03T08:53:31Z</time>
      </trkpt>
      <trkpt lat="45.87023" lon="4.65381">
        <ele>223</ele>
        <time>2018-06-03T08:53:32Z</time>
      </trkpt>
      <trkpt lat="45.87028" lon="4.65372">
        <ele>223</ele>
        <time>2018-06-03T08:53:33Z</time>
      </trkpt>
      <trkpt lat="45.87034" lon="4.65365">
        <ele>223</ele>
        <time>2018-06-03T08:53:34Z</time>
      </trkpt>
      <trkpt lat="45.87039" lon="4.65358">
        <ele>223</ele>
        <time>2018-06-03T08:53:35Z</time>
      </trkpt>
      <trkpt lat="45.87043" lon="4.65351">
        <ele>223</ele>
        <time>2018-06-03T08:53:36Z</time>
      </trkpt>
      <trkpt lat="45.87045" lon="4.65343">
        <ele>223</ele>
        <time>2018-06-03T08:53:37Z</time>
      </trkpt>
      <trkpt lat="45.8705" lon="4.65336">
        <ele>223</ele>
        <time>2018-06-03T08:53:38Z</time>
      </trkpt>
      <trkpt lat="45.87058" lon="4.65334">
        <ele>224</ele>
        <time>2018-06-03T08:53:39Z</time>
      </trkpt>
      <trkpt lat="45.87062" lon="4.65327">
        <ele>219</ele>
        <time>2018-06-03T08:53:40Z</time>
      </trkpt>
      <trkpt lat="45.87065" lon="4.65321">
        <ele>219</ele>
        <time>2018-06-03T08:53:41Z</time>
      </trkpt>
      <trkpt lat="45.87067" lon="4.65313">
        <ele>218</ele>
        <time>2018-06-03T08:53:42Z</time>
      </trkpt>
      <trkpt lat="45.87069" lon="4.65305">
        <ele>217</ele>
        <time>2018-06-03T08:53:43Z</time>
      </trkpt>
      <trkpt lat="45.87072" lon="4.65298">
        <ele>217</ele>
        <time>2018-06-03T08:53:44Z</time>
      </trkpt>
      <trkpt lat="45.87075" lon="4.65291">
        <ele>216</ele>
        <time>2018-06-03T08:53:45Z</time>
      </trkpt>
      <trkpt lat="45.8708" lon="4.65283">
        <ele>216</ele>
        <time>2018-06-03T08:53:46Z</time>
      </trkpt>
      <trkpt lat="45.87085" lon="4.65276">
        <ele>225</ele>
        <time>2018-06-03T08:53:47Z</time>
      </trkpt>
      <trkpt lat="45.87088" lon="4.65272">
        <ele>224</ele>
        <time>2018-06-03T08:53:48Z</time>
      </trkpt>
      <trkpt lat="45.87092" lon="4.65266">
        <ele>223</ele>
        <time>2018-06-03T08:53:49Z</time>
      </trkpt>
      <trkpt lat="45.87094" lon="4.65261">
        <ele>222</ele>
        <time>2018-06-03T08:53:50Z</time>
      </trkpt>
      <trkpt lat="45.87099" lon="4.65252">
        <ele>222</ele>
        <time>2018-06-03T08:53:52Z</time>
      </trkpt>
      <trkpt lat="45.87105" lon="4.65245">
        <ele>218</ele>
        <time>2018-06-03T08:53:53Z</time>
      </trkpt>
      <trkpt lat="45.87107" lon="4.65237">
        <ele>219</ele>
        <time>2018-06-03T08:53:54Z</time>
      </trkpt>
      <trkpt lat="45.87111" lon="4.65229">
        <ele>219</ele>
        <time>2018-06-03T08:53:55Z</time>
      </trkpt>
      <trkpt lat="45.87116" lon="4.65223">
        <ele>220</ele>
        <time>2018-06-03T08:53:56Z</time>
      </trkpt>
      <trkpt lat="45.87121" lon="4.6522">
        <ele>220</ele>
        <time>2018-06-03T08:53:57Z</time>
      </trkpt>
      <trkpt lat="45.87126" lon="4.65213">
        <ele>221</ele>
        <time>2018-06-03T08:53:58Z</time>
      </trkpt>
      <trkpt lat="45.87129" lon="4.65206">
        <ele>221</ele>
        <time>2018-06-03T08:53:59Z</time>
      </trkpt>
      <trkpt lat="45.87134" lon="4.65202">
        <ele>221</ele>
        <time>2018-06-03T08:54:00Z</time>
      </trkpt>
      <trkpt lat="45.87139" lon="4.65195">
        <ele>221</ele>
        <time>2018-06-03T08:54:01Z</time>
      </trkpt>
      <trkpt lat="45.87144" lon="4.65191">
        <ele>221</ele>
        <time>2018-06-03T08:54:02Z</time>
      </trkpt>
      <trkpt lat="45.8715" lon="4.65186">
        <ele>221</ele>
        <time>2018-06-03T08:54:03Z</time>
      </trkpt>
      <trkpt lat="45.87157" lon="4.65181">
        <ele>221</ele>
        <time>2018-06-03T08:54:04Z</time>
      </trkpt>
      <trkpt lat="45.87162" lon="4.65177">
        <ele>220</ele>
        <time>2018-06-03T08:54:05Z</time>
      </trkpt>
      <trkpt lat="45.87167" lon="4.6517">
        <ele>223</ele>
        <time>2018-06-03T08:54:06Z</time>
      </trkpt>
      <trkpt lat="45.87173" lon="4.65166">
        <ele>221</ele>
        <time>2018-06-03T08:54:07Z</time>
      </trkpt>
      <trkpt lat="45.87178" lon="4.65164">
        <ele>221</ele>
        <time>2018-06-03T08:54:09Z</time>
      </trkpt>
      <trkpt lat="45.87188" lon="4.65157">
        <ele>222</ele>
        <time>2018-06-03T08:54:10Z</time>
      </trkpt>
      <trkpt lat="45.87188" lon="4.65148">
        <ele>222</ele>
        <time>2018-06-03T08:54:11Z</time>
      </trkpt>
      <trkpt lat="45.87198" lon="4.65149">
        <ele>223</ele>
        <time>2018-06-03T08:54:12Z</time>
      </trkpt>
      <trkpt lat="45.87201" lon="4.65142">
        <ele>223</ele>
        <time>2018-06-03T08:54:13Z</time>
      </trkpt>
      <trkpt lat="45.87206" lon="4.65137">
        <ele>223</ele>
        <time>2018-06-03T08:54:14Z</time>
      </trkpt>
      <trkpt lat="45.87212" lon="4.65134">
        <ele>223</ele>
        <time>2018-06-03T08:54:15Z</time>
      </trkpt>
      <trkpt lat="45.87216" lon="4.6513">
        <ele>223</ele>
        <time>2018-06-03T08:54:16Z</time>
      </trkpt>
      <trkpt lat="45.8722" lon="4.65123">
        <ele>223</ele>
        <time>2018-06-03T08:54:17Z</time>
      </trkpt>
      <trkpt lat="45.87224" lon="4.6512">
        <ele>223</ele>
        <time>2018-06-03T08:54:18Z</time>
      </trkpt>
      <trkpt lat="45.87231" lon="4.65117">
        <ele>223</ele>
        <time>2018-06-03T08:54:19Z</time>
      </trkpt>
      <trkpt lat="45.87237" lon="4.65113">
        <ele>222</ele>
        <time>2018-06-03T08:54:20Z</time>
      </trkpt>
      <trkpt lat="45.87243" lon="4.65109">
        <ele>222</ele>
        <time>2018-06-03T08:54:21Z</time>
      </trkpt>
      <trkpt lat="45.87249" lon="4.65106">
        <ele>222</ele>
        <time>2018-06-03T08:54:22Z</time>
      </trkpt>
      <trkpt lat="45.87253" lon="4.65103">
        <ele>227</ele>
        <time>2018-06-03T08:54:23Z</time>
      </trkpt>
      <trkpt lat="45.87259" lon="4.65099">
        <ele>227</ele>
        <time>2018-06-03T08:54:24Z</time>
      </trkpt>
      <trkpt lat="45.87263" lon="4.65095">
        <ele>227</ele>
        <time>2018-06-03T08:54:25Z</time>
      </trkpt>
      <trkpt lat="45.87266" lon="4.65091">
        <ele>227</ele>
        <time>2018-06-03T08:54:26Z</time>
      </trkpt>
      <trkpt lat="45.87274" lon="4.65087">
        <ele>228</ele>
        <time>2018-06-03T08:54:27Z</time>
      </trkpt>
      <trkpt lat="45.87276" lon="4.6508">
        <ele>220</ele>
        <time>2018-06-03T08:54:28Z</time>
      </trkpt>
      <trkpt lat="45.87282" lon="4.65077">
        <ele>221</ele>
        <time>2018-06-03T08:54:29Z</time>
      </trkpt>
      <trkpt lat="45.87285" lon="4.65072">
        <ele>221</ele>
        <time>2018-06-03T08:54:30Z</time>
      </trkpt>
      <trkpt lat="45.8729" lon="4.65062">
        <ele>221</ele>
        <time>2018-06-03T08:54:32Z</time>
      </trkpt>
      <trkpt lat="45.87293" lon="4.65049">
        <ele>220</ele>
        <time>2018-06-03T08:54:33Z</time>
      </trkpt>
      <trkpt lat="45.87296" lon="4.65043">
        <ele>220</ele>
        <time>2018-06-03T08:54:34Z</time>
      </trkpt>
      <trkpt lat="45.87302" lon="4.65038">
        <ele>220</ele>
        <time>2018-06-03T08:54:35Z</time>
      </trkpt>
      <trkpt lat="45.87304" lon="4.65032">
        <ele>220</ele>
        <time>2018-06-03T08:54:36Z</time>
      </trkpt>
      <trkpt lat="45.87307" lon="4.65026">
        <ele>220</ele>
        <time>2018-06-03T08:54:37Z</time>
      </trkpt>
      <trkpt lat="45.8731" lon="4.65018">
        <ele>219</ele>
        <time>2018-06-03T08:54:38Z</time>
      </trkpt>
      <trkpt lat="45.87312" lon="4.65014">
        <ele>219</ele>
        <time>2018-06-03T08:54:39Z</time>
      </trkpt>
      <trkpt lat="45.87315" lon="4.65009">
        <ele>219</ele>
        <time>2018-06-03T08:54:40Z</time>
      </trkpt>
      <trkpt lat="45.87318" lon="4.65002">
        <ele>219</ele>
        <time>2018-06-03T08:54:41Z</time>
      </trkpt>
      <trkpt lat="45.87322" lon="4.64992">
        <ele>216</ele>
        <time>2018-06-03T08:54:43Z</time>
      </trkpt>
      <trkpt lat="45.87325" lon="4.64986">
        <ele>215</ele>
        <time>2018-06-03T08:54:44Z</time>
      </trkpt>
      <trkpt lat="45.87328" lon="4.64979">
        <ele>215</ele>
        <time>2018-06-03T08:54:45Z</time>
      </trkpt>
      <trkpt lat="45.8733" lon="4.64974">
        <ele>215</ele>
        <time>2018-06-03T08:54:46Z</time>
      </trkpt>
      <trkpt lat="45.87333" lon="4.64967">
        <ele>214</ele>
        <time>2018-06-03T08:54:47Z</time>
      </trkpt>
      <trkpt lat="45.87337" lon="4.64959">
        <ele>218</ele>
        <time>2018-06-03T08:54:48Z</time>
      </trkpt>
      <trkpt lat="45.87341" lon="4.64951">
        <ele>218</ele>
        <time>2018-06-03T08:54:49Z</time>
      </trkpt>
      <trkpt lat="45.87344" lon="4.64946">
        <ele>218</ele>
        <time>2018-06-03T08:54:50Z</time>
      </trkpt>
      <trkpt lat="45.87348" lon="4.64942">
        <ele>217</ele>
        <time>2018-06-03T08:54:51Z</time>
      </trkpt>
      <trkpt lat="45.87353" lon="4.64936">
        <ele>217</ele>
        <time>2018-06-03T08:54:52Z</time>
      </trkpt>
      <trkpt lat="45.87357" lon="4.6493">
        <ele>217</ele>
        <time>2018-06-03T08:54:53Z</time>
      </trkpt>
      <trkpt lat="45.87361" lon="4.64926">
        <ele>217</ele>
        <time>2018-06-03T08:54:54Z</time>
      </trkpt>
      <trkpt lat="45.87364" lon="4.64917">
        <ele>218</ele>
        <time>2018-06-03T08:54:55Z</time>
      </trkpt>
      <trkpt lat="45.87368" lon="4.64912">
        <ele>214</ele>
        <time>2018-06-03T08:54:56Z</time>
      </trkpt>
      <trkpt lat="45.87373" lon="4.64908">
        <ele>215</ele>
        <time>2018-06-03T08:54:57Z</time>
      </trkpt>
      <trkpt lat="45.87378" lon="4.64903">
        <ele>215</ele>
        <time>2018-06-03T08:54:58Z</time>
      </trkpt>
      <trkpt lat="45.8738" lon="4.64897">
        <ele>215</ele>
        <time>2018-06-03T08:54:59Z</time>
      </trkpt>
      <trkpt lat="45.87383" lon="4.64891">
        <ele>215</ele>
        <time>2018-06-03T08:55:00Z</time>
      </trkpt>
      <trkpt lat="45.87386" lon="4.64887">
        <ele>215</ele>
        <time>2018-06-03T08:55:01Z</time>
      </trkpt>
      <trkpt lat="45.8739" lon="4.64882">
        <ele>215</ele>
        <time>2018-06-03T08:55:02Z</time>
      </trkpt>
      <trkpt lat="45.87394" lon="4.64877">
        <ele>215</ele>
        <time>2018-06-03T08:55:03Z</time>
      </trkpt>
      <trkpt lat="45.87397" lon="4.64871">
        <ele>215</ele>
        <time>2018-06-03T08:55:04Z</time>
      </trkpt>
      <trkpt lat="45.874" lon="4.64865">
        <ele>215</ele>
        <time>2018-06-03T08:55:05Z</time>
      </trkpt>
      <trkpt lat="45.87403" lon="4.6486">
        <ele>215</ele>
        <time>2018-06-03T08:55:06Z</time>
      </trkpt>
      <trkpt lat="45.87405" lon="4.64856">
        <ele>215</ele>
        <time>2018-06-03T08:55:07Z</time>
      </trkpt>
      <trkpt lat="45.8741" lon="4.6485">
        <ele>215</ele>
        <time>2018-06-03T08:55:08Z</time>
      </trkpt>
      <trkpt lat="45.87414" lon="4.64845">
        <ele>215</ele>
        <time>2018-06-03T08:55:09Z</time>
      </trkpt>
      <trkpt lat="45.87418" lon="4.6484">
        <ele>217</ele>
        <time>2018-06-03T08:55:10Z</time>
      </trkpt>
      <trkpt lat="45.87422" lon="4.64834">
        <ele>216</ele>
        <time>2018-06-03T08:55:11Z</time>
      </trkpt>
      <trkpt lat="45.87426" lon="4.6483">
        <ele>215</ele>
        <time>2018-06-03T08:55:12Z</time>
      </trkpt>
      <trkpt lat="45.8743" lon="4.64825">
        <ele>215</ele>
        <time>2018-06-03T08:55:13Z</time>
      </trkpt>
      <trkpt lat="45.87434" lon="4.64819">
        <ele>215</ele>
        <time>2018-06-03T08:55:14Z</time>
      </trkpt>
      <trkpt lat="45.8744" lon="4.64814">
        <ele>215</ele>
        <time>2018-06-03T08:55:15Z</time>
      </trkpt>
      <trkpt lat="45.87445" lon="4.64811">
        <ele>215</ele>
        <time>2018-06-03T08:55:16Z</time>
      </trkpt>
      <trkpt lat="45.87449" lon="4.64805">
        <ele>214</ele>
        <time>2018-06-03T08:55:17Z</time>
      </trkpt>
      <trkpt lat="45.87454" lon="4.64798">
        <ele>214</ele>
        <time>2018-06-03T08:55:18Z</time>
      </trkpt>
      <trkpt lat="45.87458" lon="4.64792">
        <ele>214</ele>
        <time>2018-06-03T08:55:19Z</time>
      </trkpt>
      <trkpt lat="45.87461" lon="4.64786">
        <ele>214</ele>
        <time>2018-06-03T08:55:20Z</time>
      </trkpt>
      <trkpt lat="45.87464" lon="4.6478">
        <ele>214</ele>
        <time>2018-06-03T08:55:21Z</time>
      </trkpt>
      <trkpt lat="45.87468" lon="4.64776">
        <ele>214</ele>
        <time>2018-06-03T08:55:22Z</time>
      </trkpt>
      <trkpt lat="45.87472" lon="4.64771">
        <ele>214</ele>
        <time>2018-06-03T08:55:23Z</time>
      </trkpt>
      <trkpt lat="45.87475" lon="4.64764">
        <ele>214</ele>
        <time>2018-06-03T08:55:24Z</time>
      </trkpt>
      <trkpt lat="45.8748" lon="4.6476">
        <ele>214</ele>
        <time>2018-06-03T08:55:25Z</time>
      </trkpt>
      <trkpt lat="45.87483" lon="4.64755">
        <ele>214</ele>
        <time>2018-06-03T08:55:26Z</time>
      </trkpt>
      <trkpt lat="45.87486" lon="4.64751">
        <ele>213</ele>
        <time>2018-06-03T08:55:27Z</time>
      </trkpt>
      <trkpt lat="45.87491" lon="4.64745">
        <ele>213</ele>
        <time>2018-06-03T08:55:28Z</time>
      </trkpt>
      <trkpt lat="45.87495" lon="4.6474">
        <ele>213</ele>
        <time>2018-06-03T08:55:29Z</time>
      </trkpt>
      <trkpt lat="45.87498" lon="4.64736">
        <ele>213</ele>
        <time>2018-06-03T08:55:30Z</time>
      </trkpt>
      <trkpt lat="45.87502" lon="4.64731">
        <ele>213</ele>
        <time>2018-06-03T08:55:31Z</time>
      </trkpt>
      <trkpt lat="45.87506" lon="4.64726">
        <ele>213</ele>
        <time>2018-06-03T08:55:32Z</time>
      </trkpt>
      <trkpt lat="45.87511" lon="4.6472">
        <ele>213</ele>
        <time>2018-06-03T08:55:33Z</time>
      </trkpt>
      <trkpt lat="45.87515" lon="4.64713">
        <ele>212</ele>
        <time>2018-06-03T08:55:34Z</time>
      </trkpt>
      <trkpt lat="45.87521" lon="4.64705">
        <ele>212</ele>
        <time>2018-06-03T08:55:36Z</time>
      </trkpt>
      <trkpt lat="45.87525" lon="4.64701">
        <ele>212</ele>
        <time>2018-06-03T08:55:37Z</time>
      </trkpt>
      <trkpt lat="45.87529" lon="4.64696">
        <ele>212</ele>
        <time>2018-06-03T08:55:38Z</time>
      </trkpt>
      <trkpt lat="45.87532" lon="4.64692">
        <ele>212</ele>
        <time>2018-06-03T08:55:39Z</time>
      </trkpt>
      <trkpt lat="45.87537" lon="4.64687">
        <ele>212</ele>
        <time>2018-06-03T08:55:40Z</time>
      </trkpt>
      <trkpt lat="45.8754" lon="4.64681">
        <ele>212</ele>
        <time>2018-06-03T08:55:41Z</time>
      </trkpt>
      <trkpt lat="45.87547" lon="4.64673">
        <ele>212</ele>
        <time>2018-06-03T08:55:43Z</time>
      </trkpt>
      <trkpt lat="45.8755" lon="4.64669">
        <ele>212</ele>
        <time>2018-06-03T08:55:44Z</time>
      </trkpt>
      <trkpt lat="45.87554" lon="4.64664">
        <ele>212</ele>
        <time>2018-06-03T08:55:45Z</time>
      </trkpt>
      <trkpt lat="45.87557" lon="4.64659">
        <ele>212</ele>
        <time>2018-06-03T08:55:46Z</time>
      </trkpt>
      <trkpt lat="45.87561" lon="4.64653">
        <ele>212</ele>
        <time>2018-06-03T08:55:47Z</time>
      </trkpt>
      <trkpt lat="45.87564" lon="4.64648">
        <ele>212</ele>
        <time>2018-06-03T08:55:48Z</time>
      </trkpt>
      <trkpt lat="45.87568" lon="4.64644">
        <ele>212</ele>
        <time>2018-06-03T08:55:49Z</time>
      </trkpt>
      <trkpt lat="45.87572" lon="4.64639">
        <ele>212</ele>
        <time>2018-06-03T08:55:50Z</time>
      </trkpt>
      <trkpt lat="45.87575" lon="4.64635">
        <ele>212</ele>
        <time>2018-06-03T08:55:51Z</time>
      </trkpt>
      <trkpt lat="45.8758" lon="4.64631">
        <ele>212</ele>
        <time>2018-06-03T08:55:52Z</time>
      </trkpt>
      <trkpt lat="45.87583" lon="4.64627">
        <ele>212</ele>
        <time>2018-06-03T08:55:53Z</time>
      </trkpt>
      <trkpt lat="45.87587" lon="4.6462">
        <ele>212</ele>
        <time>2018-06-03T08:55:54Z</time>
      </trkpt>
      <trkpt lat="45.87591" lon="4.64616">
        <ele>212</ele>
        <time>2018-06-03T08:55:55Z</time>
      </trkpt>
      <trkpt lat="45.87594" lon="4.64611">
        <ele>212</ele>
        <time>2018-06-03T08:55:56Z</time>
      </trkpt>
      <trkpt lat="45.87598" lon="4.64606">
        <ele>212</ele>
        <time>2018-06-03T08:55:57Z</time>
      </trkpt>
      <trkpt lat="45.87601" lon="4.64602">
        <ele>212</ele>
        <time>2018-06-03T08:55:58Z</time>
      </trkpt>
      <trkpt lat="45.87604" lon="4.64597">
        <ele>212</ele>
        <time>2018-06-03T08:55:59Z</time>
      </trkpt>
      <trkpt lat="45.87608" lon="4.64592">
        <ele>212</ele>
        <time>2018-06-03T08:56:00Z</time>
      </trkpt>
      <trkpt lat="45.87611" lon="4.64588">
        <ele>212</ele>
        <time>2018-06-03T08:56:01Z</time>
      </trkpt>
      <trkpt lat="45.87615" lon="4.64584">
        <ele>212</ele>
        <time>2018-06-03T08:56:02Z</time>
      </trkpt>
      <trkpt lat="45.87618" lon="4.6458">
        <ele>212</ele>
        <time>2018-06-03T08:56:03Z</time>
      </trkpt>
      <trkpt lat="45.87622" lon="4.64574">
        <ele>212</ele>
        <time>2018-06-03T08:56:04Z</time>
      </trkpt>
      <trkpt lat="45.87626" lon="4.6457">
        <ele>212</ele>
        <time>2018-06-03T08:56:05Z</time>
      </trkpt>
      <trkpt lat="45.87629" lon="4.64565">
        <ele>212</ele>
        <time>2018-06-03T08:56:06Z</time>
      </trkpt>
      <trkpt lat="45.87636" lon="4.64557">
        <ele>212</ele>
        <time>2018-06-03T08:56:08Z</time>
      </trkpt>
      <trkpt lat="45.8764" lon="4.64553">
        <ele>212</ele>
        <time>2018-06-03T08:56:09Z</time>
      </trkpt>
      <trkpt lat="45.87645" lon="4.64543">
        <ele>213</ele>
        <time>2018-06-03T08:56:11Z</time>
      </trkpt>
      <trkpt lat="45.87647" lon="4.64539">
        <ele>213</ele>
        <time>2018-06-03T08:56:12Z</time>
      </trkpt>
      <trkpt lat="45.87653" lon="4.64533">
        <ele>213</ele>
        <time>2018-06-03T08:56:13Z</time>
      </trkpt>
      <trkpt lat="45.87657" lon="4.64527">
        <ele>213</ele>
        <time>2018-06-03T08:56:14Z</time>
      </trkpt>
      <trkpt lat="45.87659" lon="4.64523">
        <ele>213</ele>
        <time>2018-06-03T08:56:15Z</time>
      </trkpt>
      <trkpt lat="45.87665" lon="4.64519">
        <ele>213</ele>
        <time>2018-06-03T08:56:16Z</time>
      </trkpt>
      <trkpt lat="45.87668" lon="4.64515">
        <ele>215</ele>
        <time>2018-06-03T08:56:17Z</time>
      </trkpt>
      <trkpt lat="45.87671" lon="4.6451">
        <ele>215</ele>
        <time>2018-06-03T08:56:18Z</time>
      </trkpt>
      <trkpt lat="45.87677" lon="4.64502">
        <ele>215</ele>
        <time>2018-06-03T08:56:20Z</time>
      </trkpt>
      <trkpt lat="45.87682" lon="4.64502">
        <ele>215</ele>
        <time>2018-06-03T08:56:21Z</time>
      </trkpt>
      <trkpt lat="45.87689" lon="4.64505">
        <ele>215</ele>
        <time>2018-06-03T08:56:23Z</time>
      </trkpt>
      <trkpt lat="45.87691" lon="4.6451">
        <ele>215</ele>
        <time>2018-06-03T08:56:24Z</time>
      </trkpt>
      <trkpt lat="45.87695" lon="4.64518">
        <ele>215</ele>
        <time>2018-06-03T08:56:26Z</time>
      </trkpt>
      <trkpt lat="45.87697" lon="4.64522">
        <ele>215</ele>
        <time>2018-06-03T08:56:27Z</time>
      </trkpt>
      <trkpt lat="45.87701" lon="4.64527">
        <ele>215</ele>
        <time>2018-06-03T08:56:28Z</time>
      </trkpt>
      <trkpt lat="45.87704" lon="4.64531">
        <ele>216</ele>
        <time>2018-06-03T08:56:29Z</time>
      </trkpt>
      <trkpt lat="45.87709" lon="4.64535">
        <ele>216</ele>
        <time>2018-06-03T08:56:31Z</time>
      </trkpt>
      <trkpt lat="45.87711" lon="4.64541">
        <ele>216</ele>
        <time>2018-06-03T08:56:32Z</time>
      </trkpt>
      <trkpt lat="45.87715" lon="4.64552">
        <ele>216</ele>
        <time>2018-06-03T08:56:34Z</time>
      </trkpt>
      <trkpt lat="45.87717" lon="4.64558">
        <ele>216</ele>
        <time>2018-06-03T08:56:35Z</time>
      </trkpt>
      <trkpt lat="45.87718" lon="4.64567">
        <ele>216</ele>
        <time>2018-06-03T08:56:36Z</time>
      </trkpt>
      <trkpt lat="45.87721" lon="4.64575">
        <ele>217</ele>
        <time>2018-06-03T08:56:37Z</time>
      </trkpt>
      <trkpt lat="45.87721" lon="4.64586">
        <ele>217</ele>
        <time>2018-06-03T08:56:39Z</time>
      </trkpt>
      <trkpt lat="45.8772" lon="4.64591">
        <ele>217</ele>
        <time>2018-06-03T08:56:40Z</time>
      </trkpt>
      <trkpt lat="45.87719" lon="4.64602">
        <ele>217</ele>
        <time>2018-06-03T08:56:43Z</time>
      </trkpt>
      <trkpt lat="45.87719" lon="4.64612">
        <ele>217</ele>
        <time>2018-06-03T08:56:44Z</time>
      </trkpt>
      <trkpt lat="45.87721" lon="4.64624">
        <ele>217</ele>
        <time>2018-06-03T08:56:46Z</time>
      </trkpt>
      <trkpt lat="45.87721" lon="4.64626">
        <ele>217</ele>
        <time>2018-06-03T08:56:47Z</time>
      </trkpt>
      <trkpt lat="45.87721" lon="4.64638">
        <ele>217</ele>
        <time>2018-06-03T08:56:49Z</time>
      </trkpt>
      <trkpt lat="45.87721" lon="4.64641">
        <ele>217</ele>
        <time>2018-06-03T08:56:50Z</time>
      </trkpt>
      <trkpt lat="45.87722" lon="4.64651">
        <ele>217</ele>
        <time>2018-06-03T08:56:52Z</time>
      </trkpt>
      <trkpt lat="45.87722" lon="4.64655">
        <ele>217</ele>
        <time>2018-06-03T08:56:53Z</time>
      </trkpt>
      <trkpt lat="45.87721" lon="4.64662">
        <ele>217</ele>
        <time>2018-06-03T08:56:54Z</time>
      </trkpt>
      <trkpt lat="45.87722" lon="4.64669">
        <ele>216</ele>
        <time>2018-06-03T08:56:55Z</time>
      </trkpt>
      <trkpt lat="45.87722" lon="4.64677">
        <ele>216</ele>
        <time>2018-06-03T08:56:56Z</time>
      </trkpt>
      <trkpt lat="45.87723" lon="4.64686">
        <ele>216</ele>
        <time>2018-06-03T08:56:57Z</time>
      </trkpt>
      <trkpt lat="45.87723" lon="4.64692">
        <ele>216</ele>
        <time>2018-06-03T08:56:58Z</time>
      </trkpt>
      <trkpt lat="45.87724" lon="4.64699">
        <ele>215</ele>
        <time>2018-06-03T08:56:59Z</time>
      </trkpt>
      <trkpt lat="45.87727" lon="4.64711">
        <ele>215</ele>
        <time>2018-06-03T08:57:01Z</time>
      </trkpt>
      <trkpt lat="45.87727" lon="4.64719">
        <ele>215</ele>
        <time>2018-06-03T08:57:02Z</time>
      </trkpt>
      <trkpt lat="45.8773" lon="4.64726">
        <ele>215</ele>
        <time>2018-06-03T08:57:03Z</time>
      </trkpt>
      <trkpt lat="45.8773" lon="4.64732">
        <ele>214</ele>
        <time>2018-06-03T08:57:04Z</time>
      </trkpt>
      <trkpt lat="45.87731" lon="4.64739">
        <ele>214</ele>
        <time>2018-06-03T08:57:05Z</time>
      </trkpt>
      <trkpt lat="45.8773" lon="4.64745">
        <ele>214</ele>
        <time>2018-06-03T08:57:06Z</time>
      </trkpt>
      <trkpt lat="45.8773" lon="4.64751">
        <ele>213</ele>
        <time>2018-06-03T08:57:07Z</time>
      </trkpt>
      <trkpt lat="45.87733" lon="4.64758">
        <ele>213</ele>
        <time>2018-06-03T08:57:08Z</time>
      </trkpt>
      <trkpt lat="45.87734" lon="4.64767">
        <ele>213</ele>
        <time>2018-06-03T08:57:10Z</time>
      </trkpt>
      <trkpt lat="45.87734" lon="4.64775">
        <ele>213</ele>
        <time>2018-06-03T08:57:11Z</time>
      </trkpt>
      <trkpt lat="45.87736" lon="4.64783">
        <ele>213</ele>
        <time>2018-06-03T08:57:13Z</time>
      </trkpt>
      <trkpt lat="45.87739" lon="4.6479">
        <ele>213</ele>
        <time>2018-06-03T08:57:14Z</time>
      </trkpt>
      <trkpt lat="45.87745" lon="4.64798">
        <ele>214</ele>
        <time>2018-06-03T08:57:16Z</time>
      </trkpt>
      <trkpt lat="45.87749" lon="4.64804">
        <ele>214</ele>
        <time>2018-06-03T08:57:17Z</time>
      </trkpt>
      <trkpt lat="45.87755" lon="4.64812">
        <ele>214</ele>
        <time>2018-06-03T08:57:21Z</time>
      </trkpt>
      <trkpt lat="45.87757" lon="4.64815">
        <ele>214</ele>
        <time>2018-06-03T08:57:22Z</time>
      </trkpt>
      <trkpt lat="45.87762" lon="4.64824">
        <ele>214</ele>
        <time>2018-06-03T08:57:25Z</time>
      </trkpt>
      <trkpt lat="45.87764" lon="4.64826">
        <ele>214</ele>
        <time>2018-06-03T08:57:26Z</time>
      </trkpt>
      <trkpt lat="45.87768" lon="4.64835">
        <ele>216</ele>
        <time>2018-06-03T08:57:29Z</time>
      </trkpt>
      <trkpt lat="45.8777" lon="4.64837">
        <ele>216</ele>
        <time>2018-06-03T08:57:30Z</time>
      </trkpt>
      <trkpt lat="45.87774" lon="4.64846">
        <ele>217</ele>
        <time>2018-06-03T08:57:33Z</time>
      </trkpt>
      <trkpt lat="45.87776" lon="4.64849">
        <ele>217</ele>
        <time>2018-06-03T08:57:34Z</time>
      </trkpt>
      <trkpt lat="45.87781" lon="4.64856">
        <ele>218</ele>
        <time>2018-06-03T08:57:37Z</time>
      </trkpt>
      <trkpt lat="45.87782" lon="4.64859">
        <ele>218</ele>
        <time>2018-06-03T08:57:38Z</time>
      </trkpt>
      <trkpt lat="45.87786" lon="4.64867">
        <ele>218</ele>
        <time>2018-06-03T08:57:41Z</time>
      </trkpt>
      <trkpt lat="45.87787" lon="4.6487">
        <ele>218</ele>
        <time>2018-06-03T08:57:42Z</time>
      </trkpt>
      <trkpt lat="45.87792" lon="4.64881">
        <ele>219</ele>
        <time>2018-06-03T08:57:46Z</time>
      </trkpt>
      <trkpt lat="45.87793" lon="4.64884">
        <ele>219</ele>
        <time>2018-06-03T08:57:47Z</time>
      </trkpt>
      <trkpt lat="45.87797" lon="4.64894">
        <ele>219</ele>
        <time>2018-06-03T08:57:51Z</time>
      </trkpt>
      <trkpt lat="45.87798" lon="4.64896">
        <ele>219</ele>
        <time>2018-06-03T08:57:52Z</time>
      </trkpt>
      <trkpt lat="45.87803" lon="4.64906">
        <ele>220</ele>
        <time>2018-06-03T08:57:56Z</time>
      </trkpt>
      <trkpt lat="45.87804" lon="4.64908">
        <ele>220</ele>
        <time>2018-06-03T08:57:57Z</time>
      </trkpt>
      <trkpt lat="45.87809" lon="4.64918">
        <ele>224</ele>
        <time>2018-06-03T08:58:01Z</time>
      </trkpt>
      <trkpt lat="45.8781" lon="4.6492">
        <ele>224</ele>
        <time>2018-06-03T08:58:02Z</time>
      </trkpt>
      <trkpt lat="45.87815" lon="4.64929">
        <ele>224</ele>
        <time>2018-06-03T08:58:06Z</time>
      </trkpt>
      <trkpt lat="45.87816" lon="4.64931">
        <ele>224</ele>
        <time>2018-06-03T08:58:07Z</time>
      </trkpt>
      <trkpt lat="45.8782" lon="4.6494">
        <ele>225</ele>
        <time>2018-06-03T08:58:11Z</time>
      </trkpt>
      <trkpt lat="45.87822" lon="4.64942">
        <ele>225</ele>
        <time>2018-06-03T08:58:12Z</time>
      </trkpt>
      <trkpt lat="45.87828" lon="4.64949">
        <ele>225</ele>
        <time>2018-06-03T08:58:17Z</time>
      </trkpt>
      <trkpt lat="45.87829" lon="4.6495">
        <ele>225</ele>
        <time>2018-06-03T08:58:18Z</time>
      </trkpt>
      <trkpt lat="45.87836" lon="4.64957">
        <ele>228</ele>
        <time>2018-06-03T08:58:22Z</time>
      </trkpt>
      <trkpt lat="45.87838" lon="4.64958">
        <ele>228</ele>
        <time>2018-06-03T08:58:23Z</time>
      </trkpt>
      <trkpt lat="45.87846" lon="4.64964">
        <ele>228</ele>
        <time>2018-06-03T08:58:27Z</time>
      </trkpt>
      <trkpt lat="45.87847" lon="4.64965">
        <ele>229</ele>
        <time>2018-06-03T08:58:28Z</time>
      </trkpt>
      <trkpt lat="45.87855" lon="4.64971">
        <ele>229</ele>
        <time>2018-06-03T08:58:33Z</time>
      </trkpt>
      <trkpt lat="45.87856" lon="4.64972">
        <ele>229</ele>
        <time>2018-06-03T08:58:34Z</time>
      </trkpt>
      <trkpt lat="45.87863" lon="4.64977">
        <ele>229</ele>
        <time>2018-06-03T08:58:38Z</time>
      </trkpt>
      <trkpt lat="45.87865" lon="4.64978">
        <ele>230</ele>
        <time>2018-06-03T08:58:39Z</time>
      </trkpt>
      <trkpt lat="45.87871" lon="4.64981">
        <ele>230</ele>
        <time>2018-06-03T08:58:43Z</time>
      </trkpt>
      <trkpt lat="45.87873" lon="4.64982">
        <ele>230</ele>
        <time>2018-06-03T08:58:44Z</time>
      </trkpt>
      <trkpt lat="45.87882" lon="4.64985">
        <ele>231</ele>
        <time>2018-06-03T08:58:48Z</time>
      </trkpt>
      <trkpt lat="45.87884" lon="4.64986">
        <ele>231</ele>
        <time>2018-06-03T08:58:49Z</time>
      </trkpt>
      <trkpt lat="45.87891" lon="4.64988">
        <ele>232</ele>
        <time>2018-06-03T08:58:53Z</time>
      </trkpt>
      <trkpt lat="45.87893" lon="4.64988">
        <ele>232</ele>
        <time>2018-06-03T08:58:54Z</time>
      </trkpt>
      <trkpt lat="45.87901" lon="4.64989">
        <ele>233</ele>
        <time>2018-06-03T08:58:58Z</time>
      </trkpt>
      <trkpt lat="45.87902" lon="4.64989">
        <ele>233</ele>
        <time>2018-06-03T08:58:59Z</time>
      </trkpt>
      <trkpt lat="45.8791" lon="4.64989">
        <ele>234</ele>
        <time>2018-06-03T08:59:03Z</time>
      </trkpt>
      <trkpt lat="45.87912" lon="4.64989">
        <ele>234</ele>
        <time>2018-06-03T08:59:04Z</time>
      </trkpt>
      <trkpt lat="45.87919" lon="4.64988">
        <ele>237</ele>
        <time>2018-06-03T08:59:07Z</time>
      </trkpt>
      <trkpt lat="45.87921" lon="4.64987">
        <ele>237</ele>
        <time>2018-06-03T08:59:08Z</time>
      </trkpt>
      <trkpt lat="45.87928" lon="4.64986">
        <ele>237</ele>
        <time>2018-06-03T08:59:11Z</time>
      </trkpt>
      <trkpt lat="45.87931" lon="4.64986">
        <ele>237</ele>
        <time>2018-06-03T08:59:12Z</time>
      </trkpt>
      <trkpt lat="45.87939" lon="4.64985">
        <ele>237</ele>
        <time>2018-06-03T08:59:16Z</time>
      </trkpt>
      <trkpt lat="45.87942" lon="4.64985">
        <ele>238</ele>
        <time>2018-06-03T08:59:17Z</time>
      </trkpt>
      <trkpt lat="45.87948" lon="4.64981">
        <ele>238</ele>
        <time>2018-06-03T08:59:20Z</time>
      </trkpt>
      <trkpt lat="45.8795" lon="4.6498">
        <ele>238</ele>
        <time>2018-06-03T08:59:21Z</time>
      </trkpt>
      <trkpt lat="45.87956" lon="4.64975">
        <ele>238</ele>
        <time>2018-06-03T08:59:24Z</time>
      </trkpt>
      <trkpt lat="45.87958" lon="4.64973">
        <ele>238</ele>
        <time>2018-06-03T08:59:25Z</time>
      </trkpt>
      <trkpt lat="45.87964" lon="4.64967">
        <ele>238</ele>
        <time>2018-06-03T08:59:28Z</time>
      </trkpt>
      <trkpt lat="45.87967" lon="4.64965">
        <ele>238</ele>
        <time>2018-06-03T08:59:29Z</time>
      </trkpt>
      <trkpt lat="45.87973" lon="4.64961">
        <ele>238</ele>
        <time>2018-06-03T08:59:32Z</time>
      </trkpt>
      <trkpt lat="45.87975" lon="4.64959">
        <ele>238</ele>
        <time>2018-06-03T08:59:33Z</time>
      </trkpt>
      <trkpt lat="45.87983" lon="4.64954">
        <ele>238</ele>
        <time>2018-06-03T08:59:37Z</time>
      </trkpt>
      <trkpt lat="45.87985" lon="4.64953">
        <ele>238</ele>
        <time>2018-06-03T08:59:38Z</time>
      </trkpt>
      <trkpt lat="45.87991" lon="4.64947">
        <ele>237</ele>
        <time>2018-06-03T08:59:42Z</time>
      </trkpt>
      <trkpt lat="45.87993" lon="4.64945">
        <ele>237</ele>
        <time>2018-06-03T08:59:43Z</time>
      </trkpt>
      <trkpt lat="45.88" lon="4.64939">
        <ele>245</ele>
        <time>2018-06-03T08:59:46Z</time>
      </trkpt>
      <trkpt lat="45.88002" lon="4.64937">
        <ele>244</ele>
        <time>2018-06-03T08:59:47Z</time>
      </trkpt>
      <trkpt lat="45.88009" lon="4.64931">
        <ele>243</ele>
        <time>2018-06-03T08:59:50Z</time>
      </trkpt>
      <trkpt lat="45.8801" lon="4.6493">
        <ele>243</ele>
        <time>2018-06-03T08:59:51Z</time>
      </trkpt>
      <trkpt lat="45.88018" lon="4.64923">
        <ele>244</ele>
        <time>2018-06-03T08:59:55Z</time>
      </trkpt>
      <trkpt lat="45.88019" lon="4.6492">
        <ele>244</ele>
        <time>2018-06-03T08:59:56Z</time>
      </trkpt>
      <trkpt lat="45.88025" lon="4.64913">
        <ele>238</ele>
        <time>2018-06-03T09:00:01Z</time>
      </trkpt>
      <trkpt lat="45.88027" lon="4.64911">
        <ele>238</ele>
        <time>2018-06-03T09:00:02Z</time>
      </trkpt>
      <trkpt lat="45.88034" lon="4.64904">
        <ele>239</ele>
        <time>2018-06-03T09:00:06Z</time>
      </trkpt>
      <trkpt lat="45.88036" lon="4.64903">
        <ele>239</ele>
        <time>2018-06-03T09:00:07Z</time>
      </trkpt>
      <trkpt lat="45.88042" lon="4.64897">
        <ele>239</ele>
        <time>2018-06-03T09:00:11Z</time>
      </trkpt>
      <trkpt lat="45.88043" lon="4.64895">
        <ele>239</ele>
        <time>2018-06-03T09:00:12Z</time>
      </trkpt>
      <trkpt lat="45.8805" lon="4.64889">
        <ele>240</ele>
        <time>2018-06-03T09:00:16Z</time>
      </trkpt>
      <trkpt lat="45.88052" lon="4.64887">
        <ele>240</ele>
        <time>2018-06-03T09:00:17Z</time>
      </trkpt>
      <trkpt lat="45.8806" lon="4.64882">
        <ele>240</ele>
        <time>2018-06-03T09:00:22Z</time>
      </trkpt>
      <trkpt lat="45.88061" lon="4.64881">
        <ele>240</ele>
        <time>2018-06-03T09:00:23Z</time>
      </trkpt>
      <trkpt lat="45.88068" lon="4.64875">
        <ele>240</ele>
        <time>2018-06-03T09:00:28Z</time>
      </trkpt>
      <trkpt lat="45.8807" lon="4.64874">
        <ele>240</ele>
        <time>2018-06-03T09:00:29Z</time>
      </trkpt>
      <trkpt lat="45.88077" lon="4.6487">
        <ele>240</ele>
        <time>2018-06-03T09:00:33Z</time>
      </trkpt>
      <trkpt lat="45.88079" lon="4.6487">
        <ele>240</ele>
        <time>2018-06-03T09:00:34Z</time>
      </trkpt>
      <trkpt lat="45.88087" lon="4.64866">
        <ele>246</ele>
        <time>2018-06-03T09:00:39Z</time>
      </trkpt>
      <trkpt lat="45.88089" lon="4.64866">
        <ele>246</ele>
        <time>2018-06-03T09:00:40Z</time>
      </trkpt>
      <trkpt lat="45.88095" lon="4.64864">
        <ele>246</ele>
        <time>2018-06-03T09:00:43Z</time>
      </trkpt>
      <trkpt lat="45.88098" lon="4.64864">
        <ele>247</ele>
        <time>2018-06-03T09:00:44Z</time>
      </trkpt>
      <trkpt lat="45.88106" lon="4.64862">
        <ele>247</ele>
        <time>2018-06-03T09:00:48Z</time>
      </trkpt>
      <trkpt lat="45.88109" lon="4.64862">
        <ele>247</ele>
        <time>2018-06-03T09:00:49Z</time>
      </trkpt>
      <trkpt lat="45.88117" lon="4.64859">
        <ele>247</ele>
        <time>2018-06-03T09:00:53Z</time>
      </trkpt>
      <trkpt lat="45.88119" lon="4.64858">
        <ele>247</ele>
        <time>2018-06-03T09:00:54Z</time>
      </trkpt>
      <trkpt lat="45.88126" lon="4.64856">
        <ele>248</ele>
        <time>2018-06-03T09:00:58Z</time>
      </trkpt>
      <trkpt lat="45.88128" lon="4.64855">
        <ele>248</ele>
        <time>2018-06-03T09:00:59Z</time>
      </trkpt>
      <trkpt lat="45.88137" lon="4.64853">
        <ele>248</ele>
        <time>2018-06-03T09:01:04Z</time>
      </trkpt>
      <trkpt lat="45.88138" lon="4.64852">
        <ele>248</ele>
        <time>2018-06-03T09:01:05Z</time>
      </trkpt>
      <trkpt lat="45.88146" lon="4.64852">
        <ele>248</ele>
        <time>2018-06-03T09:01:09Z</time>
      </trkpt>
      <trkpt lat="45.88148" lon="4.64852">
        <ele>248</ele>
        <time>2018-06-03T09:01:10Z</time>
      </trkpt>
      <trkpt lat="45.88156" lon="4.6485">
        <ele>248</ele>
        <time>2018-06-03T09:01:14Z</time>
      </trkpt>
      <trkpt lat="45.88158" lon="4.6485">
        <ele>248</ele>
        <time>2018-06-03T09:01:15Z</time>
      </trkpt>
      <trkpt lat="45.88166" lon="4.64849">
        <ele>247</ele>
        <time>2018-06-03T09:01:19Z</time>
      </trkpt>
      <trkpt lat="45.88168" lon="4.64848">
        <ele>251</ele>
        <time>2018-06-03T09:01:20Z</time>
      </trkpt>
      <trkpt lat="45.88174" lon="4.64844">
        <ele>251</ele>
        <time>2018-06-03T09:01:24Z</time>
      </trkpt>
      <trkpt lat="45.88176" lon="4.64843">
        <ele>251</ele>
        <time>2018-06-03T09:01:25Z</time>
      </trkpt>
      <trkpt lat="45.88184" lon="4.64841">
        <ele>252</ele>
        <time>2018-06-03T09:01:30Z</time>
      </trkpt>
      <trkpt lat="45.88186" lon="4.64841">
        <ele>252</ele>
        <time>2018-06-03T09:01:31Z</time>
      </trkpt>
      <trkpt lat="45.88194" lon="4.64839">
        <ele>254</ele>
        <time>2018-06-03T09:01:35Z</time>
      </trkpt>
      <trkpt lat="45.88196" lon="4.64838">
        <ele>254</ele>
        <time>2018-06-03T09:01:36Z</time>
      </trkpt>
      <trkpt lat="45.88203" lon="4.64836">
        <ele>255</ele>
        <time>2018-06-03T09:01:40Z</time>
      </trkpt>
      <trkpt lat="45.88205" lon="4.64835">
        <ele>255</ele>
        <time>2018-06-03T09:01:41Z</time>
      </trkpt>
      <trkpt lat="45.88213" lon="4.64834">
        <ele>256</ele>
        <time>2018-06-03T09:01:45Z</time>
      </trkpt>
      <trkpt lat="45.88215" lon="4.64833">
        <ele>247</ele>
        <time>2018-06-03T09:01:46Z</time>
      </trkpt>
      <trkpt lat="45.88223" lon="4.6483">
        <ele>248</ele>
        <time>2018-06-03T09:01:50Z</time>
      </trkpt>
      <trkpt lat="45.88225" lon="4.64829">
        <ele>248</ele>
        <time>2018-06-03T09:01:51Z</time>
      </trkpt>
      <trkpt lat="45.88233" lon="4.64828">
        <ele>250</ele>
        <time>2018-06-03T09:01:55Z</time>
      </trkpt>
      <trkpt lat="45.88235" lon="4.64828">
        <ele>251</ele>
        <time>2018-06-03T09:01:56Z</time>
      </trkpt>
      <trkpt lat="45.88244" lon="4.64826">
        <ele>252</ele>
        <time>2018-06-03T09:02:01Z</time>
      </trkpt>
      <trkpt lat="45.88245" lon="4.64825">
        <ele>253</ele>
        <time>2018-06-03T09:02:02Z</time>
      </trkpt>
      <trkpt lat="45.88254" lon="4.64823">
        <ele>257</ele>
        <time>2018-06-03T09:02:07Z</time>
      </trkpt>
      <trkpt lat="45.88256" lon="4.64822">
        <ele>257</ele>
        <time>2018-06-03T09:02:08Z</time>
      </trkpt>
      <trkpt lat="45.88263" lon="4.6482">
        <ele>257</ele>
        <time>2018-06-03T09:02:12Z</time>
      </trkpt>
      <trkpt lat="45.88265" lon="4.6482">
        <ele>257</ele>
        <time>2018-06-03T09:02:13Z</time>
      </trkpt>
      <trkpt lat="45.88273" lon="4.64819">
        <ele>258</ele>
        <time>2018-06-03T09:02:18Z</time>
      </trkpt>
      <trkpt lat="45.88275" lon="4.64818">
        <ele>258</ele>
        <time>2018-06-03T09:02:19Z</time>
      </trkpt>
      <trkpt lat="45.88283" lon="4.64814">
        <ele>258</ele>
        <time>2018-06-03T09:02:24Z</time>
      </trkpt>
      <trkpt lat="45.88284" lon="4.64813">
        <ele>258</ele>
        <time>2018-06-03T09:02:25Z</time>
      </trkpt>
      <trkpt lat="45.88293" lon="4.64812">
        <ele>259</ele>
        <time>2018-06-03T09:02:30Z</time>
      </trkpt>
      <trkpt lat="45.88294" lon="4.64812">
        <ele>259</ele>
        <time>2018-06-03T09:02:31Z</time>
      </trkpt>
      <trkpt lat="45.88302" lon="4.64809">
        <ele>260</ele>
        <time>2018-06-03T09:02:37Z</time>
      </trkpt>
      <trkpt lat="45.88304" lon="4.64809">
        <ele>260</ele>
        <time>2018-06-03T09:02:38Z</time>
      </trkpt>
      <trkpt lat="45.88311" lon="4.64806">
        <ele>261</ele>
        <time>2018-06-03T09:02:43Z</time>
      </trkpt>
      <trkpt lat="45.88313" lon="4.64806">
        <ele>261</ele>
        <time>2018-06-03T09:02:44Z</time>
      </trkpt>
      <trkpt lat="45.88321" lon="4.64803">
        <ele>261</ele>
        <time>2018-06-03T09:02:48Z</time>
      </trkpt>
      <trkpt lat="45.88323" lon="4.64803">
        <ele>261</ele>
        <time>2018-06-03T09:02:49Z</time>
      </trkpt>
      <trkpt lat="45.88331" lon="4.648">
        <ele>261</ele>
        <time>2018-06-03T09:02:54Z</time>
      </trkpt>
      <trkpt lat="45.88333" lon="4.64799">
        <ele>261</ele>
        <time>2018-06-03T09:02:55Z</time>
      </trkpt>
      <trkpt lat="45.8834" lon="4.64796">
        <ele>267</ele>
        <time>2018-06-03T09:03:00Z</time>
      </trkpt>
      <trkpt lat="45.88342" lon="4.64795">
        <ele>267</ele>
        <time>2018-06-03T09:03:01Z</time>
      </trkpt>
      <trkpt lat="45.8835" lon="4.64791">
        <ele>267</ele>
        <time>2018-06-03T09:03:05Z</time>
      </trkpt>
      <trkpt lat="45.88351" lon="4.64791">
        <ele>267</ele>
        <time>2018-06-03T09:03:06Z</time>
      </trkpt>
      <trkpt lat="45.88359" lon="4.64792">
        <ele>267</ele>
        <time>2018-06-03T09:03:10Z</time>
      </trkpt>
      <trkpt lat="45.88362" lon="4.64792">
        <ele>267</ele>
        <time>2018-06-03T09:03:11Z</time>
      </trkpt>
      <trkpt lat="45.88369" lon="4.64792">
        <ele>267</ele>
        <time>2018-06-03T09:03:15Z</time>
      </trkpt>
      <trkpt lat="45.88371" lon="4.64792">
        <ele>267</ele>
        <time>2018-06-03T09:03:16Z</time>
      </trkpt>
      <trkpt lat="45.88379" lon="4.64792">
        <ele>268</ele>
        <time>2018-06-03T09:03:20Z</time>
      </trkpt>
      <trkpt lat="45.88381" lon="4.64792">
        <ele>268</ele>
        <time>2018-06-03T09:03:21Z</time>
      </trkpt>
      <trkpt lat="45.88388" lon="4.6479">
        <ele>268</ele>
        <time>2018-06-03T09:03:25Z</time>
      </trkpt>
      <trkpt lat="45.8839" lon="4.64789">
        <ele>268</ele>
        <time>2018-06-03T09:03:26Z</time>
      </trkpt>
      <trkpt lat="45.88398" lon="4.64788">
        <ele>268</ele>
        <time>2018-06-03T09:03:30Z</time>
      </trkpt>
      <trkpt lat="45.884" lon="4.64788">
        <ele>268</ele>
        <time>2018-06-03T09:03:31Z</time>
      </trkpt>
      <trkpt lat="45.88408" lon="4.64788">
        <ele>268</ele>
        <time>2018-06-03T09:03:35Z</time>
      </trkpt>
      <trkpt lat="45.8841" lon="4.64788">
        <ele>268</ele>
        <time>2018-06-03T09:03:36Z</time>
      </trkpt>
      <trkpt lat="45.88418" lon="4.64786">
        <ele>271</ele>
        <time>2018-06-03T09:03:40Z</time>
      </trkpt>
      <trkpt lat="45.8842" lon="4.64786">
        <ele>271</ele>
        <time>2018-06-03T09:03:41Z</time>
      </trkpt>
      <trkpt lat="45.88427" lon="4.64782">
        <ele>270</ele>
        <time>2018-06-03T09:03:45Z</time>
      </trkpt>
      <trkpt lat="45.88428" lon="4.64782">
        <ele>270</ele>
        <time>2018-06-03T09:03:46Z</time>
      </trkpt>
      <trkpt lat="45.88436" lon="4.6478">
        <ele>270</ele>
        <time>2018-06-03T09:03:51Z</time>
      </trkpt>
      <trkpt lat="45.88437" lon="4.6478">
        <ele>270</ele>
        <time>2018-06-03T09:03:52Z</time>
      </trkpt>
      <trkpt lat="45.88445" lon="4.6478">
        <ele>271</ele>
        <time>2018-06-03T09:03:57Z</time>
      </trkpt>
      <trkpt lat="45.88447" lon="4.64779">
        <ele>271</ele>
        <time>2018-06-03T09:03:58Z</time>
      </trkpt>
      <trkpt lat="45.88454" lon="4.64778">
        <ele>271</ele>
        <time>2018-06-03T09:04:01Z</time>
      </trkpt>
      <trkpt lat="45.88456" lon="4.64778">
        <ele>271</ele>
        <time>2018-06-03T09:04:02Z</time>
      </trkpt>
      <trkpt lat="45.88464" lon="4.64778">
        <ele>271</ele>
        <time>2018-06-03T09:04:06Z</time>
      </trkpt>
      <trkpt lat="45.88465" lon="4.64777">
        <ele>271</ele>
        <time>2018-06-03T09:04:07Z</time>
      </trkpt>
      <trkpt lat="45.88473" lon="4.64777">
        <ele>271</ele>
        <time>2018-06-03T09:04:11Z</time>
      </trkpt>
      <trkpt lat="45.88475" lon="4.64777">
        <ele>271</ele>
        <time>2018-06-03T09:04:12Z</time>
      </trkpt>
      <trkpt lat="45.88482" lon="4.64776">
        <ele>271</ele>
        <time>2018-06-03T09:04:15Z</time>
      </trkpt>
      <trkpt lat="45.88485" lon="4.64776">
        <ele>271</ele>
        <time>2018-06-03T09:04:16Z</time>
      </trkpt>
      <trkpt lat="45.88492" lon="4.64774">
        <ele>271</ele>
        <time>2018-06-03T09:04:19Z</time>
      </trkpt>
      <trkpt lat="45.88495" lon="4.64774">
        <ele>271</ele>
        <time>2018-06-03T09:04:20Z</time>
      </trkpt>
      <trkpt lat="45.88503" lon="4.64772">
        <ele>270</ele>
        <time>2018-06-03T09:04:24Z</time>
      </trkpt>
      <trkpt lat="45.88506" lon="4.64771">
        <ele>270</ele>
        <time>2018-06-03T09:04:25Z</time>
      </trkpt>
      <trkpt lat="45.88514" lon="4.64771">
        <ele>270</ele>
        <time>2018-06-03T09:04:29Z</time>
      </trkpt>
      <trkpt lat="45.88516" lon="4.64772">
        <ele>271</ele>
        <time>2018-06-03T09:04:30Z</time>
      </trkpt>
      <trkpt lat="45.88523" lon="4.64774">
        <ele>271</ele>
        <time>2018-06-03T09:04:33Z</time>
      </trkpt>
      <trkpt lat="45.88525" lon="4.64775">
        <ele>271</ele>
        <time>2018-06-03T09:04:34Z</time>
      </trkpt>
      <trkpt lat="45.88532" lon="4.64778">
        <ele>271</ele>
        <time>2018-06-03T09:04:37Z</time>
      </trkpt>
      <trkpt lat="45.88534" lon="4.64779">
        <ele>271</ele>
        <time>2018-06-03T09:04:38Z</time>
      </trkpt>
      <trkpt lat="45.88541" lon="4.64785">
        <ele>271</ele>
        <time>2018-06-03T09:04:42Z</time>
      </trkpt>
      <trkpt lat="45.88542" lon="4.64787">
        <ele>271</ele>
        <time>2018-06-03T09:04:43Z</time>
      </trkpt>
      <trkpt lat="45.88548" lon="4.64794">
        <ele>272</ele>
        <time>2018-06-03T09:04:47Z</time>
      </trkpt>
      <trkpt lat="45.88549" lon="4.64796">
        <ele>272</ele>
        <time>2018-06-03T09:04:48Z</time>
      </trkpt>
      <trkpt lat="45.88551" lon="4.64806">
        <ele>272</ele>
        <time>2018-06-03T09:04:52Z</time>
      </trkpt>
      <trkpt lat="45.88551" lon="4.64809">
        <ele>272</ele>
        <time>2018-06-03T09:04:53Z</time>
      </trkpt>
      <trkpt lat="45.88553" lon="4.64819">
        <ele>273</ele>
        <time>2018-06-03T09:04:57Z</time>
      </trkpt>
      <trkpt lat="45.88554" lon="4.64821">
        <ele>273</ele>
        <time>2018-06-03T09:04:58Z</time>
      </trkpt>
      <trkpt lat="45.88554" lon="4.64832">
        <ele>273</ele>
        <time>2018-06-03T09:05:02Z</time>
      </trkpt>
      <trkpt lat="45.88554" lon="4.64835">
        <ele>276</ele>
        <time>2018-06-03T09:05:03Z</time>
      </trkpt>
      <trkpt lat="45.88553" lon="4.64846">
        <ele>276</ele>
        <time>2018-06-03T09:05:07Z</time>
      </trkpt>
      <trkpt lat="45.88553" lon="4.64849">
        <ele>276</ele>
        <time>2018-06-03T09:05:08Z</time>
      </trkpt>
      <trkpt lat="45.88552" lon="4.6486">
        <ele>276</ele>
        <time>2018-06-03T09:05:13Z</time>
      </trkpt>
      <trkpt lat="45.88551" lon="4.64864">
        <ele>276</ele>
        <time>2018-06-03T09:05:14Z</time>
      </trkpt>
      <trkpt lat="45.88551" lon="4.64875">
        <ele>277</ele>
        <time>2018-06-03T09:05:18Z</time>
      </trkpt>
      <trkpt lat="45.88551" lon="4.64878">
        <ele>277</ele>
        <time>2018-06-03T09:05:19Z</time>
      </trkpt>
      <trkpt lat="45.88551" lon="4.64891">
        <ele>277</ele>
        <time>2018-06-03T09:05:23Z</time>
      </trkpt>
      <trkpt lat="45.8855" lon="4.64894">
        <ele>277</ele>
        <time>2018-06-03T09:05:24Z</time>
      </trkpt>
      <trkpt lat="45.88547" lon="4.64905">
        <ele>277</ele>
        <time>2018-06-03T09:05:29Z</time>
      </trkpt>
      <trkpt lat="45.88547" lon="4.64908">
        <ele>277</ele>
        <time>2018-06-03T09:05:30Z</time>
      </trkpt>
      <trkpt lat="45.88543" lon="4.64918">
        <ele>279</ele>
        <time>2018-06-03T09:05:34Z</time>
      </trkpt>
      <trkpt lat="45.88542" lon="4.64921">
        <ele>279</ele>
        <time>2018-06-03T09:05:35Z</time>
      </trkpt>
      <trkpt lat="45.88539" lon="4.64932">
        <ele>280</ele>
        <time>2018-06-03T09:05:39Z</time>
      </trkpt>
      <trkpt lat="45.88539" lon="4.64935">
        <ele>280</ele>
        <time>2018-06-03T09:05:40Z</time>
      </trkpt>
      <trkpt lat="45.88538" lon="4.64947">
        <ele>280</ele>
        <time>2018-06-03T09:05:44Z</time>
      </trkpt>
      <trkpt lat="45.88538" lon="4.6495">
        <ele>280</ele>
        <time>2018-06-03T09:05:45Z</time>
      </trkpt>
      <trkpt lat="45.88537" lon="4.64961">
        <ele>281</ele>
        <time>2018-06-03T09:05:49Z</time>
      </trkpt>
      <trkpt lat="45.88536" lon="4.64964">
        <ele>281</ele>
        <time>2018-06-03T09:05:50Z</time>
      </trkpt>
      <trkpt lat="45.88535" lon="4.64974">
        <ele>281</ele>
        <time>2018-06-03T09:05:54Z</time>
      </trkpt>
      <trkpt lat="45.88534" lon="4.64977">
        <ele>281</ele>
        <time>2018-06-03T09:05:55Z</time>
      </trkpt>
      <trkpt lat="45.88533" lon="4.64988">
        <ele>282</ele>
        <time>2018-06-03T09:05:59Z</time>
      </trkpt>
      <trkpt lat="45.88532" lon="4.64991">
        <ele>282</ele>
        <time>2018-06-03T09:06:00Z</time>
      </trkpt>
      <trkpt lat="45.88531" lon="4.65001">
        <ele>284</ele>
        <time>2018-06-03T09:06:04Z</time>
      </trkpt>
      <trkpt lat="45.88531" lon="4.65004">
        <ele>285</ele>
        <time>2018-06-03T09:06:05Z</time>
      </trkpt>
      <trkpt lat="45.8853" lon="4.65015">
        <ele>285</ele>
        <time>2018-06-03T09:06:09Z</time>
      </trkpt>
      <trkpt lat="45.8853" lon="4.65018">
        <ele>285</ele>
        <time>2018-06-03T09:06:10Z</time>
      </trkpt>
      <trkpt lat="45.88527" lon="4.65026">
        <ele>285</ele>
        <time>2018-06-03T09:06:13Z</time>
      </trkpt>
      <trkpt lat="45.88526" lon="4.65031">
        <ele>285</ele>
        <time>2018-06-03T09:06:14Z</time>
      </trkpt>
      <trkpt lat="45.88523" lon="4.65041">
        <ele>285</ele>
        <time>2018-06-03T09:06:18Z</time>
      </trkpt>
      <trkpt lat="45.88522" lon="4.65043">
        <ele>285</ele>
        <time>2018-06-03T09:06:19Z</time>
      </trkpt>
      <trkpt lat="45.88519" lon="4.65052">
        <ele>285</ele>
        <time>2018-06-03T09:06:23Z</time>
      </trkpt>
      <trkpt lat="45.88518" lon="4.65055">
        <ele>286</ele>
        <time>2018-06-03T09:06:24Z</time>
      </trkpt>
      <trkpt lat="45.88513" lon="4.65063">
        <ele>286</ele>
        <time>2018-06-03T09:06:28Z</time>
      </trkpt>
      <trkpt lat="45.88512" lon="4.65065">
        <ele>287</ele>
        <time>2018-06-03T09:06:29Z</time>
      </trkpt>
      <trkpt lat="45.88506" lon="4.65073">
        <ele>288</ele>
        <time>2018-06-03T09:06:33Z</time>
      </trkpt>
      <trkpt lat="45.88505" lon="4.65075">
        <ele>288</ele>
        <time>2018-06-03T09:06:34Z</time>
      </trkpt>
      <trkpt lat="45.88501" lon="4.65084">
        <ele>290</ele>
        <time>2018-06-03T09:06:38Z</time>
      </trkpt>
      <trkpt lat="45.885" lon="4.65086">
        <ele>290</ele>
        <time>2018-06-03T09:06:39Z</time>
      </trkpt>
      <trkpt lat="45.88495" lon="4.65094">
        <ele>291</ele>
        <time>2018-06-03T09:06:43Z</time>
      </trkpt>
      <trkpt lat="45.88494" lon="4.65097">
        <ele>292</ele>
        <time>2018-06-03T09:06:44Z</time>
      </trkpt>
      <trkpt lat="45.8849" lon="4.65106">
        <ele>292</ele>
        <time>2018-06-03T09:06:48Z</time>
      </trkpt>
      <trkpt lat="45.88488" lon="4.65108">
        <ele>293</ele>
        <time>2018-06-03T09:06:49Z</time>
      </trkpt>
      <trkpt lat="45.88483" lon="4.65117">
        <ele>293</ele>
        <time>2018-06-03T09:06:53Z</time>
      </trkpt>
      <trkpt lat="45.88482" lon="4.65119">
        <ele>293</ele>
        <time>2018-06-03T09:06:54Z</time>
      </trkpt>
      <trkpt lat="45.88476" lon="4.65126">
        <ele>294</ele>
        <time>2018-06-03T09:06:58Z</time>
      </trkpt>
      <trkpt lat="45.88475" lon="4.65127">
        <ele>294</ele>
        <time>2018-06-03T09:06:59Z</time>
      </trkpt>
      <trkpt lat="45.88469" lon="4.65134">
        <ele>294</ele>
        <time>2018-06-03T09:07:03Z</time>
      </trkpt>
      <trkpt lat="45.88468" lon="4.65136">
        <ele>294</ele>
        <time>2018-06-03T09:07:04Z</time>
      </trkpt>
      <trkpt lat="45.88462" lon="4.65144">
        <ele>294</ele>
        <time>2018-06-03T09:07:08Z</time>
      </trkpt>
      <trkpt lat="45.8846" lon="4.65146">
        <ele>294</ele>
        <time>2018-06-03T09:07:09Z</time>
      </trkpt>
      <trkpt lat="45.88454" lon="4.65153">
        <ele>295</ele>
        <time>2018-06-03T09:07:13Z</time>
      </trkpt>
      <trkpt lat="45.88452" lon="4.65155">
        <ele>295</ele>
        <time>2018-06-03T09:07:14Z</time>
      </trkpt>
      <trkpt lat="45.88446" lon="4.65162">
        <ele>295</ele>
        <time>2018-06-03T09:07:19Z</time>
      </trkpt>
      <trkpt lat="45.88444" lon="4.65164">
        <ele>296</ele>
        <time>2018-06-03T09:07:20Z</time>
      </trkpt>
      <trkpt lat="45.88438" lon="4.6517">
        <ele>297</ele>
        <time>2018-06-03T09:07:24Z</time>
      </trkpt>
      <trkpt lat="45.88437" lon="4.65172">
        <ele>297</ele>
        <time>2018-06-03T09:07:25Z</time>
      </trkpt>
      <trkpt lat="45.8843" lon="4.65178">
        <ele>298</ele>
        <time>2018-06-03T09:07:29Z</time>
      </trkpt>
      <trkpt lat="45.88429" lon="4.65179">
        <ele>298</ele>
        <time>2018-06-03T09:07:30Z</time>
      </trkpt>
      <trkpt lat="45.88422" lon="4.65185">
        <ele>298</ele>
        <time>2018-06-03T09:07:34Z</time>
      </trkpt>
      <trkpt lat="45.8842" lon="4.65186">
        <ele>298</ele>
        <time>2018-06-03T09:07:35Z</time>
      </trkpt>
      <trkpt lat="45.88412" lon="4.65191">
        <ele>299</ele>
        <time>2018-06-03T09:07:39Z</time>
      </trkpt>
      <trkpt lat="45.8841" lon="4.65192">
        <ele>299</ele>
        <time>2018-06-03T09:07:40Z</time>
      </trkpt>
      <trkpt lat="45.88403" lon="4.65199">
        <ele>300</ele>
        <time>2018-06-03T09:07:45Z</time>
      </trkpt>
      <trkpt lat="45.88402" lon="4.652">
        <ele>300</ele>
        <time>2018-06-03T09:07:46Z</time>
      </trkpt>
      <trkpt lat="45.88396" lon="4.65207">
        <ele>300</ele>
        <time>2018-06-03T09:07:51Z</time>
      </trkpt>
      <trkpt lat="45.88394" lon="4.65209">
        <ele>300</ele>
        <time>2018-06-03T09:07:52Z</time>
      </trkpt>
      <trkpt lat="45.88389" lon="4.65216">
        <ele>300</ele>
        <time>2018-06-03T09:07:56Z</time>
      </trkpt>
      <trkpt lat="45.88387" lon="4.65218">
        <ele>300</ele>
        <time>2018-06-03T09:07:57Z</time>
      </trkpt>
      <trkpt lat="45.88381" lon="4.65225">
        <ele>300</ele>
        <time>2018-06-03T09:08:01Z</time>
      </trkpt>
      <trkpt lat="45.88379" lon="4.65226">
        <ele>300</ele>
        <time>2018-06-03T09:08:02Z</time>
      </trkpt>
      <trkpt lat="45.88372" lon="4.65233">
        <ele>300</ele>
        <time>2018-06-03T09:08:06Z</time>
      </trkpt>
      <trkpt lat="45.8837" lon="4.65234">
        <ele>300</ele>
        <time>2018-06-03T09:08:07Z</time>
      </trkpt>
      <trkpt lat="45.88364" lon="4.65239">
        <ele>300</ele>
        <time>2018-06-03T09:08:10Z</time>
      </trkpt>
      <trkpt lat="45.88362" lon="4.65241">
        <ele>300</ele>
        <time>2018-06-03T09:08:11Z</time>
      </trkpt>
      <trkpt lat="45.88355" lon="4.6525">
        <ele>300</ele>
        <time>2018-06-03T09:08:15Z</time>
      </trkpt>
      <trkpt lat="45.88354" lon="4.65252">
        <ele>301</ele>
        <time>2018-06-03T09:08:16Z</time>
      </trkpt>
      <trkpt lat="45.88347" lon="4.6526">
        <ele>301</ele>
        <time>2018-06-03T09:08:20Z</time>
      </trkpt>
      <trkpt lat="45.88345" lon="4.65262">
        <ele>301</ele>
        <time>2018-06-03T09:08:21Z</time>
      </trkpt>
      <trkpt lat="45.88339" lon="4.6527">
        <ele>301</ele>
        <time>2018-06-03T09:08:25Z</time>
      </trkpt>
      <trkpt lat="45.88337" lon="4.65272">
        <ele>301</ele>
        <time>2018-06-03T09:08:26Z</time>
      </trkpt>
      <trkpt lat="45.8833" lon="4.65279">
        <ele>304</ele>
        <time>2018-06-03T09:08:30Z</time>
      </trkpt>
      <trkpt lat="45.88328" lon="4.65281">
        <ele>304</ele>
        <time>2018-06-03T09:08:31Z</time>
      </trkpt>
      <trkpt lat="45.88322" lon="4.6529">
        <ele>304</ele>
        <time>2018-06-03T09:08:35Z</time>
      </trkpt>
      <trkpt lat="45.88321" lon="4.65292">
        <ele>304</ele>
        <time>2018-06-03T09:08:36Z</time>
      </trkpt>
      <trkpt lat="45.88314" lon="4.65301">
        <ele>305</ele>
        <time>2018-06-03T09:08:40Z</time>
      </trkpt>
      <trkpt lat="45.88313" lon="4.65303">
        <ele>305</ele>
        <time>2018-06-03T09:08:41Z</time>
      </trkpt>
      <trkpt lat="45.88307" lon="4.65312">
        <ele>305</ele>
        <time>2018-06-03T09:08:45Z</time>
      </trkpt>
      <trkpt lat="45.88306" lon="4.65315">
        <ele>305</ele>
        <time>2018-06-03T09:08:46Z</time>
      </trkpt>
      <trkpt lat="45.88301" lon="4.65325">
        <ele>305</ele>
        <time>2018-06-03T09:08:50Z</time>
      </trkpt>
      <trkpt lat="45.883" lon="4.65328">
        <ele>305</ele>
        <time>2018-06-03T09:08:51Z</time>
      </trkpt>
      <trkpt lat="45.88296" lon="4.65339">
        <ele>307</ele>
        <time>2018-06-03T09:08:55Z</time>
      </trkpt>
      <trkpt lat="45.88295" lon="4.65341">
        <ele>307</ele>
        <time>2018-06-03T09:08:56Z</time>
      </trkpt>
      <trkpt lat="45.88292" lon="4.65351">
        <ele>307</ele>
        <time>2018-06-03T09:09:00Z</time>
      </trkpt>
      <trkpt lat="45.88292" lon="4.65354">
        <ele>307</ele>
        <time>2018-06-03T09:09:01Z</time>
      </trkpt>
      <trkpt lat="45.88289" lon="4.65364">
        <ele>308</ele>
        <time>2018-06-03T09:09:05Z</time>
      </trkpt>
      <trkpt lat="45.88288" lon="4.65366">
        <ele>308</ele>
        <time>2018-06-03T09:09:06Z</time>
      </trkpt>
      <trkpt lat="45.88285" lon="4.65376">
        <ele>308</ele>
        <time>2018-06-03T09:09:10Z</time>
      </trkpt>
      <trkpt lat="45.88285" lon="4.65379">
        <ele>308</ele>
        <time>2018-06-03T09:09:11Z</time>
      </trkpt>
      <trkpt lat="45.88282" lon="4.6539">
        <ele>308</ele>
        <time>2018-06-03T09:09:15Z</time>
      </trkpt>
      <trkpt lat="45.88281" lon="4.65392">
        <ele>308</ele>
        <time>2018-06-03T09:09:16Z</time>
      </trkpt>
      <trkpt lat="45.88279" lon="4.65403">
        <ele>309</ele>
        <time>2018-06-03T09:09:20Z</time>
      </trkpt>
      <trkpt lat="45.88278" lon="4.65407">
        <ele>309</ele>
        <time>2018-06-03T09:09:21Z</time>
      </trkpt>
      <trkpt lat="45.88273" lon="4.65416">
        <ele>309</ele>
        <time>2018-06-03T09:09:25Z</time>
      </trkpt>
      <trkpt lat="45.88271" lon="4.65418">
        <ele>310</ele>
        <time>2018-06-03T09:09:26Z</time>
      </trkpt>
      <trkpt lat="45.88267" lon="4.65428">
        <ele>311</ele>
        <time>2018-06-03T09:09:30Z</time>
      </trkpt>
      <trkpt lat="45.88266" lon="4.65431">
        <ele>311</ele>
        <time>2018-06-03T09:09:31Z</time>
      </trkpt>
      <trkpt lat="45.88263" lon="4.65441">
        <ele>311</ele>
        <time>2018-06-03T09:09:35Z</time>
      </trkpt>
      <trkpt lat="45.88263" lon="4.65444">
        <ele>311</ele>
        <time>2018-06-03T09:09:36Z</time>
      </trkpt>
      <trkpt lat="45.88258" lon="4.65454">
        <ele>311</ele>
        <time>2018-06-03T09:09:40Z</time>
      </trkpt>
      <trkpt lat="45.88257" lon="4.65456">
        <ele>311</ele>
        <time>2018-06-03T09:09:41Z</time>
      </trkpt>
      <trkpt lat="45.88253" lon="4.65466">
        <ele>312</ele>
        <time>2018-06-03T09:09:45Z</time>
      </trkpt>
      <trkpt lat="45.88252" lon="4.65469">
        <ele>312</ele>
        <time>2018-06-03T09:09:46Z</time>
      </trkpt>
      <trkpt lat="45.88248" lon="4.65479">
        <ele>316</ele>
        <time>2018-06-03T09:09:50Z</time>
      </trkpt>
      <trkpt lat="45.88247" lon="4.65482">
        <ele>316</ele>
        <time>2018-06-03T09:09:51Z</time>
      </trkpt>
      <trkpt lat="45.88244" lon="4.6549">
        <ele>316</ele>
        <time>2018-06-03T09:09:54Z</time>
      </trkpt>
      <trkpt lat="45.88243" lon="4.65493">
        <ele>316</ele>
        <time>2018-06-03T09:09:55Z</time>
      </trkpt>
      <trkpt lat="45.88239" lon="4.65504">
        <ele>317</ele>
        <time>2018-06-03T09:10:00Z</time>
      </trkpt>
      <trkpt lat="45.88238" lon="4.65507">
        <ele>317</ele>
        <time>2018-06-03T09:10:01Z</time>
      </trkpt>
      <trkpt lat="45.88235" lon="4.65518">
        <ele>318</ele>
        <time>2018-06-03T09:10:05Z</time>
      </trkpt>
      <trkpt lat="45.88235" lon="4.6552">
        <ele>319</ele>
        <time>2018-06-03T09:10:06Z</time>
      </trkpt>
      <trkpt lat="45.88232" lon="4.6553">
        <ele>319</ele>
        <time>2018-06-03T09:10:10Z</time>
      </trkpt>
      <trkpt lat="45.88231" lon="4.65533">
        <ele>319</ele>
        <time>2018-06-03T09:10:11Z</time>
      </trkpt>
      <trkpt lat="45.88228" lon="4.65543">
        <ele>320</ele>
        <time>2018-06-03T09:10:15Z</time>
      </trkpt>
      <trkpt lat="45.88227" lon="4.65546">
        <ele>320</ele>
        <time>2018-06-03T09:10:16Z</time>
      </trkpt>
      <trkpt lat="45.88224" lon="4.65556">
        <ele>320</ele>
        <time>2018-06-03T09:10:20Z</time>
      </trkpt>
      <trkpt lat="45.88223" lon="4.65559">
        <ele>320</ele>
        <time>2018-06-03T09:10:21Z</time>
      </trkpt>
      <trkpt lat="45.8822" lon="4.65569">
        <ele>320</ele>
        <time>2018-06-03T09:10:25Z</time>
      </trkpt>
      <trkpt lat="45.88219" lon="4.65572">
        <ele>320</ele>
        <time>2018-06-03T09:10:26Z</time>
      </trkpt>
      <trkpt lat="45.88216" lon="4.65582">
        <ele>321</ele>
        <time>2018-06-03T09:10:30Z</time>
      </trkpt>
      <trkpt lat="45.88216" lon="4.65585">
        <ele>321</ele>
        <time>2018-06-03T09:10:31Z</time>
      </trkpt>
      <trkpt lat="45.88213" lon="4.65596">
        <ele>321</ele>
        <time>2018-06-03T09:10:35Z</time>
      </trkpt>
      <trkpt lat="45.88213" lon="4.65599">
        <ele>321</ele>
        <time>2018-06-03T09:10:36Z</time>
      </trkpt>
      <trkpt lat="45.88209" lon="4.6561">
        <ele>321</ele>
        <time>2018-06-03T09:10:41Z</time>
      </trkpt>
      <trkpt lat="45.88207" lon="4.65612">
        <ele>321</ele>
        <time>2018-06-03T09:10:42Z</time>
      </trkpt>
      <trkpt lat="45.88203" lon="4.65621">
        <ele>321</ele>
        <time>2018-06-03T09:10:46Z</time>
      </trkpt>
      <trkpt lat="45.88202" lon="4.65624">
        <ele>321</ele>
        <time>2018-06-03T09:10:47Z</time>
      </trkpt>
      <trkpt lat="45.88198" lon="4.65634">
        <ele>321</ele>
        <time>2018-06-03T09:10:51Z</time>
      </trkpt>
      <trkpt lat="45.88197" lon="4.65636">
        <ele>322</ele>
        <time>2018-06-03T09:10:52Z</time>
      </trkpt>
      <trkpt lat="45.88193" lon="4.65646">
        <ele>322</ele>
        <time>2018-06-03T09:10:56Z</time>
      </trkpt>
      <trkpt lat="45.88192" lon="4.65649">
        <ele>322</ele>
        <time>2018-06-03T09:10:57Z</time>
      </trkpt>
      <trkpt lat="45.88188" lon="4.65658">
        <ele>322</ele>
        <time>2018-06-03T09:11:01Z</time>
      </trkpt>
      <trkpt lat="45.88187" lon="4.6566">
        <ele>322</ele>
        <time>2018-06-03T09:11:02Z</time>
      </trkpt>
      <trkpt lat="45.88183" lon="4.65669">
        <ele>323</ele>
        <time>2018-06-03T09:11:06Z</time>
      </trkpt>
      <trkpt lat="45.88181" lon="4.65671">
        <ele>323</ele>
        <time>2018-06-03T09:11:07Z</time>
      </trkpt>
      <trkpt lat="45.88175" lon="4.65679">
        <ele>323</ele>
        <time>2018-06-03T09:11:11Z</time>
      </trkpt>
      <trkpt lat="45.88173" lon="4.65681">
        <ele>323</ele>
        <time>2018-06-03T09:11:12Z</time>
      </trkpt>
      <trkpt lat="45.88167" lon="4.65689">
        <ele>322</ele>
        <time>2018-06-03T09:11:16Z</time>
      </trkpt>
      <trkpt lat="45.88166" lon="4.65691">
        <ele>330</ele>
        <time>2018-06-03T09:11:17Z</time>
      </trkpt>
      <trkpt lat="45.88162" lon="4.65701">
        <ele>331</ele>
        <time>2018-06-03T09:11:21Z</time>
      </trkpt>
      <trkpt lat="45.88161" lon="4.65703">
        <ele>331</ele>
        <time>2018-06-03T09:11:22Z</time>
      </trkpt>
      <trkpt lat="45.88156" lon="4.65712">
        <ele>331</ele>
        <time>2018-06-03T09:11:26Z</time>
      </trkpt>
      <trkpt lat="45.88154" lon="4.65714">
        <ele>331</ele>
        <time>2018-06-03T09:11:27Z</time>
      </trkpt>
      <trkpt lat="45.88148" lon="4.65721">
        <ele>331</ele>
        <time>2018-06-03T09:11:31Z</time>
      </trkpt>
      <trkpt lat="45.88147" lon="4.65723">
        <ele>332</ele>
        <time>2018-06-03T09:11:32Z</time>
      </trkpt>
      <trkpt lat="45.88142" lon="4.6573">
        <ele>332</ele>
        <time>2018-06-03T09:11:36Z</time>
      </trkpt>
      <trkpt lat="45.8814" lon="4.65731">
        <ele>332</ele>
        <time>2018-06-03T09:11:37Z</time>
      </trkpt>
      <trkpt lat="45.88133" lon="4.65737">
        <ele>333</ele>
        <time>2018-06-03T09:11:42Z</time>
      </trkpt>
      <trkpt lat="45.88132" lon="4.65739">
        <ele>333</ele>
        <time>2018-06-03T09:11:43Z</time>
      </trkpt>
      <trkpt lat="45.88126" lon="4.65744">
        <ele>334</ele>
        <time>2018-06-03T09:11:47Z</time>
      </trkpt>
      <trkpt lat="45.88124" lon="4.65746">
        <ele>334</ele>
        <time>2018-06-03T09:11:48Z</time>
      </trkpt>
      <trkpt lat="45.88117" lon="4.65754">
        <ele>334</ele>
        <time>2018-06-03T09:11:53Z</time>
      </trkpt>
      <trkpt lat="45.88116" lon="4.65755">
        <ele>334</ele>
        <time>2018-06-03T09:11:54Z</time>
      </trkpt>
      <trkpt lat="45.8811" lon="4.65764">
        <ele>335</ele>
        <time>2018-06-03T09:11:59Z</time>
      </trkpt>
      <trkpt lat="45.88108" lon="4.65766">
        <ele>335</ele>
        <time>2018-06-03T09:12:00Z</time>
      </trkpt>
      <trkpt lat="45.88103" lon="4.65774">
        <ele>335</ele>
        <time>2018-06-03T09:12:04Z</time>
      </trkpt>
      <trkpt lat="45.88102" lon="4.65776">
        <ele>335</ele>
        <time>2018-06-03T09:12:05Z</time>
      </trkpt>
      <trkpt lat="45.88096" lon="4.65784">
        <ele>335</ele>
        <time>2018-06-03T09:12:09Z</time>
      </trkpt>
      <trkpt lat="45.88094" lon="4.65786">
        <ele>335</ele>
        <time>2018-06-03T09:12:10Z</time>
      </trkpt>
      <trkpt lat="45.88087" lon="4.65794">
        <ele>334</ele>
        <time>2018-06-03T09:12:15Z</time>
      </trkpt>
      <trkpt lat="45.88086" lon="4.65795">
        <ele>334</ele>
        <time>2018-06-03T09:12:16Z</time>
      </trkpt>
      <trkpt lat="45.88078" lon="4.658">
        <ele>342</ele>
        <time>2018-06-03T09:12:22Z</time>
      </trkpt>
      <trkpt lat="45.88077" lon="4.65801">
        <ele>341</ele>
        <time>2018-06-03T09:12:23Z</time>
      </trkpt>
      <trkpt lat="45.8807" lon="4.65806">
        <ele>341</ele>
        <time>2018-06-03T09:12:28Z</time>
      </trkpt>
      <trkpt lat="45.88068" lon="4.65808">
        <ele>341</ele>
        <time>2018-06-03T09:12:29Z</time>
      </trkpt>
      <trkpt lat="45.8806" lon="4.65813">
        <ele>341</ele>
        <time>2018-06-03T09:12:32Z</time>
      </trkpt>
      <trkpt lat="45.88057" lon="4.65815">
        <ele>342</ele>
        <time>2018-06-03T09:12:33Z</time>
      </trkpt>
      <trkpt lat="45.88049" lon="4.65821">
        <ele>342</ele>
        <time>2018-06-03T09:12:37Z</time>
      </trkpt>
      <trkpt lat="45.88047" lon="4.65822">
        <ele>342</ele>
        <time>2018-06-03T09:12:38Z</time>
      </trkpt>
      <trkpt lat="45.88041" lon="4.65826">
        <ele>343</ele>
        <time>2018-06-03T09:12:41Z</time>
      </trkpt>
      <trkpt lat="45.88038" lon="4.65828">
        <ele>343</ele>
        <time>2018-06-03T09:12:42Z</time>
      </trkpt>
      <trkpt lat="45.88031" lon="4.65832">
        <ele>343</ele>
        <time>2018-06-03T09:12:45Z</time>
      </trkpt>
      <trkpt lat="45.88029" lon="4.65834">
        <ele>339</ele>
        <time>2018-06-03T09:12:46Z</time>
      </trkpt>
      <trkpt lat="45.88021" lon="4.65838">
        <ele>340</ele>
        <time>2018-06-03T09:12:51Z</time>
      </trkpt>
      <trkpt lat="45.88019" lon="4.65839">
        <ele>340</ele>
        <time>2018-06-03T09:12:52Z</time>
      </trkpt>
      <trkpt lat="45.88011" lon="4.65844">
        <ele>341</ele>
        <time>2018-06-03T09:12:56Z</time>
      </trkpt>
      <trkpt lat="45.88009" lon="4.65845">
        <ele>341</ele>
        <time>2018-06-03T09:12:57Z</time>
      </trkpt>
      <trkpt lat="45.88001" lon="4.6585">
        <ele>341</ele>
        <time>2018-06-03T09:13:00Z</time>
      </trkpt>
      <trkpt lat="45.87999" lon="4.65851">
        <ele>344</ele>
        <time>2018-06-03T09:13:01Z</time>
      </trkpt>
      <trkpt lat="45.87993" lon="4.65855">
        <ele>344</ele>
        <time>2018-06-03T09:13:03Z</time>
      </trkpt>
      <trkpt lat="45.87991" lon="4.65858">
        <ele>344</ele>
        <time>2018-06-03T09:13:04Z</time>
      </trkpt>
      <trkpt lat="45.87984" lon="4.65866">
        <ele>344</ele>
        <time>2018-06-03T09:13:07Z</time>
      </trkpt>
      <trkpt lat="45.87982" lon="4.65869">
        <ele>344</ele>
        <time>2018-06-03T09:13:08Z</time>
      </trkpt>
      <trkpt lat="45.87976" lon="4.65878">
        <ele>343</ele>
        <time>2018-06-03T09:13:11Z</time>
      </trkpt>
      <trkpt lat="45.87975" lon="4.6588">
        <ele>343</ele>
        <time>2018-06-03T09:13:12Z</time>
      </trkpt>
      <trkpt lat="45.87969" lon="4.65889">
        <ele>343</ele>
        <time>2018-06-03T09:13:15Z</time>
      </trkpt>
      <trkpt lat="45.87966" lon="4.65892">
        <ele>343</ele>
        <time>2018-06-03T09:13:16Z</time>
      </trkpt>
      <trkpt lat="45.8796" lon="4.659">
        <ele>343</ele>
        <time>2018-06-03T09:13:19Z</time>
      </trkpt>
      <trkpt lat="45.87958" lon="4.65903">
        <ele>343</ele>
        <time>2018-06-03T09:13:20Z</time>
      </trkpt>
      <trkpt lat="45.87952" lon="4.65912">
        <ele>343</ele>
        <time>2018-06-03T09:13:23Z</time>
      </trkpt>
      <trkpt lat="45.8795" lon="4.65915">
        <ele>343</ele>
        <time>2018-06-03T09:13:24Z</time>
      </trkpt>
      <trkpt lat="45.87945" lon="4.65924">
        <ele>341</ele>
        <time>2018-06-03T09:13:27Z</time>
      </trkpt>
      <trkpt lat="45.87943" lon="4.65926">
        <ele>341</ele>
        <time>2018-06-03T09:13:28Z</time>
      </trkpt>
      <trkpt lat="45.87939" lon="4.65936">
        <ele>341</ele>
        <time>2018-06-03T09:13:31Z</time>
      </trkpt>
      <trkpt lat="45.87937" lon="4.65939">
        <ele>341</ele>
        <time>2018-06-03T09:13:32Z</time>
      </trkpt>
      <trkpt lat="45.87933" lon="4.65948">
        <ele>341</ele>
        <time>2018-06-03T09:13:35Z</time>
      </trkpt>
      <trkpt lat="45.87932" lon="4.6595">
        <ele>341</ele>
        <time>2018-06-03T09:13:36Z</time>
      </trkpt>
      <trkpt lat="45.87927" lon="4.65961">
        <ele>341</ele>
        <time>2018-06-03T09:13:40Z</time>
      </trkpt>
      <trkpt lat="45.87926" lon="4.65963">
        <ele>341</ele>
        <time>2018-06-03T09:13:41Z</time>
      </trkpt>
      <trkpt lat="45.87922" lon="4.65974">
        <ele>341</ele>
        <time>2018-06-03T09:13:45Z</time>
      </trkpt>
      <trkpt lat="45.87922" lon="4.65977">
        <ele>341</ele>
        <time>2018-06-03T09:13:46Z</time>
      </trkpt>
      <trkpt lat="45.87921" lon="4.6599">
        <ele>342</ele>
        <time>2018-06-03T09:13:50Z</time>
      </trkpt>
      <trkpt lat="45.87921" lon="4.65993">
        <ele>342</ele>
        <time>2018-06-03T09:13:51Z</time>
      </trkpt>
      <trkpt lat="45.87921" lon="4.66005">
        <ele>343</ele>
        <time>2018-06-03T09:13:55Z</time>
      </trkpt>
      <trkpt lat="45.87921" lon="4.66008">
        <ele>342</ele>
        <time>2018-06-03T09:13:56Z</time>
      </trkpt>
      <trkpt lat="45.8792" lon="4.6602">
        <ele>342</ele>
        <time>2018-06-03T09:14:00Z</time>
      </trkpt>
      <trkpt lat="45.87921" lon="4.66024">
        <ele>342</ele>
        <time>2018-06-03T09:14:01Z</time>
      </trkpt>
      <trkpt lat="45.87921" lon="4.66037">
        <ele>342</ele>
        <time>2018-06-03T09:14:05Z</time>
      </trkpt>
      <trkpt lat="45.87921" lon="4.6604">
        <ele>342</ele>
        <time>2018-06-03T09:14:06Z</time>
      </trkpt>
      <trkpt lat="45.87922" lon="4.66051">
        <ele>342</ele>
        <time>2018-06-03T09:14:10Z</time>
      </trkpt>
      <trkpt lat="45.87923" lon="4.66054">
        <ele>342</ele>
        <time>2018-06-03T09:14:11Z</time>
      </trkpt>
      <trkpt lat="45.87924" lon="4.66065">
        <ele>343</ele>
        <time>2018-06-03T09:14:15Z</time>
      </trkpt>
      <trkpt lat="45.87924" lon="4.66068">
        <ele>343</ele>
        <time>2018-06-03T09:14:16Z</time>
      </trkpt>
      <trkpt lat="45.87924" lon="4.66079">
        <ele>343</ele>
        <time>2018-06-03T09:14:20Z</time>
      </trkpt>
      <trkpt lat="45.87924" lon="4.66081">
        <ele>343</ele>
        <time>2018-06-03T09:14:21Z</time>
      </trkpt>
      <trkpt lat="45.87925" lon="4.66092">
        <ele>345</ele>
        <time>2018-06-03T09:14:25Z</time>
      </trkpt>
      <trkpt lat="45.87925" lon="4.66095">
        <ele>346</ele>
        <time>2018-06-03T09:14:26Z</time>
      </trkpt>
      <trkpt lat="45.87926" lon="4.66106">
        <ele>346</ele>
        <time>2018-06-03T09:14:30Z</time>
      </trkpt>
      <trkpt lat="45.87926" lon="4.66109">
        <ele>347</ele>
        <time>2018-06-03T09:14:31Z</time>
      </trkpt>
      <trkpt lat="45.87926" lon="4.66121">
        <ele>348</ele>
        <time>2018-06-03T09:14:35Z</time>
      </trkpt>
      <trkpt lat="45.87927" lon="4.66124">
        <ele>348</ele>
        <time>2018-06-03T09:14:36Z</time>
      </trkpt>
      <trkpt lat="45.87931" lon="4.66134">
        <ele>348</ele>
        <time>2018-06-03T09:14:40Z</time>
      </trkpt>
      <trkpt lat="45.87933" lon="4.66135">
        <ele>349</ele>
        <time>2018-06-03T09:14:41Z</time>
      </trkpt>
      <trkpt lat="45.87939" lon="4.66139">
        <ele>349</ele>
        <time>2018-06-03T09:14:44Z</time>
      </trkpt>
      <trkpt lat="45.87943" lon="4.6614">
        <ele>349</ele>
        <time>2018-06-03T09:14:45Z</time>
      </trkpt>
      <trkpt lat="45.87949" lon="4.66142">
        <ele>349</ele>
        <time>2018-06-03T09:14:47Z</time>
      </trkpt>
      <trkpt lat="45.87952" lon="4.66143">
        <ele>349</ele>
        <time>2018-06-03T09:14:48Z</time>
      </trkpt>
      <trkpt lat="45.87961" lon="4.66144">
        <ele>348</ele>
        <time>2018-06-03T09:14:51Z</time>
      </trkpt>
      <trkpt lat="45.87964" lon="4.66144">
        <ele>348</ele>
        <time>2018-06-03T09:14:52Z</time>
      </trkpt>
      <trkpt lat="45.8797" lon="4.66145">
        <ele>348</ele>
        <time>2018-06-03T09:14:54Z</time>
      </trkpt>
      <trkpt lat="45.87979" lon="4.66146">
        <ele>349</ele>
        <time>2018-06-03T09:14:55Z</time>
      </trkpt>
      <trkpt lat="45.87987" lon="4.66146">
        <ele>349</ele>
        <time>2018-06-03T09:14:58Z</time>
      </trkpt>
      <trkpt lat="45.87989" lon="4.66146">
        <ele>349</ele>
        <time>2018-06-03T09:14:59Z</time>
      </trkpt>
      <trkpt lat="45.87997" lon="4.66146">
        <ele>349</ele>
        <time>2018-06-03T09:15:02Z</time>
      </trkpt>
      <trkpt lat="45.88" lon="4.66145">
        <ele>349</ele>
        <time>2018-06-03T09:15:03Z</time>
      </trkpt>
      <trkpt lat="45.88003" lon="4.66145">
        <ele>348</ele>
        <time>2018-06-03T09:15:04Z</time>
      </trkpt>
      <trkpt lat="45.88012" lon="4.66143">
        <ele>348</ele>
        <time>2018-06-03T09:15:05Z</time>
      </trkpt>
      <trkpt lat="45.8802" lon="4.66141">
        <ele>348</ele>
        <time>2018-06-03T09:15:07Z</time>
      </trkpt>
      <trkpt lat="45.88023" lon="4.6614">
        <ele>348</ele>
        <time>2018-06-03T09:15:08Z</time>
      </trkpt>
      <trkpt lat="45.88031" lon="4.66139">
        <ele>348</ele>
        <time>2018-06-03T09:15:10Z</time>
      </trkpt>
      <trkpt lat="45.88035" lon="4.66139">
        <ele>347</ele>
        <time>2018-06-03T09:15:11Z</time>
      </trkpt>
      <trkpt lat="45.88044" lon="4.66138">
        <ele>347</ele>
        <time>2018-06-03T09:15:13Z</time>
      </trkpt>
      <trkpt lat="45.88048" lon="4.66137">
        <ele>347</ele>
        <time>2018-06-03T09:15:14Z</time>
      </trkpt>
      <trkpt lat="45.88057" lon="4.66137">
        <ele>348</ele>
        <time>2018-06-03T09:15:16Z</time>
      </trkpt>
      <trkpt lat="45.88061" lon="4.66137">
        <ele>348</ele>
        <time>2018-06-03T09:15:17Z</time>
      </trkpt>
      <trkpt lat="45.8807" lon="4.66137">
        <ele>348</ele>
        <time>2018-06-03T09:15:19Z</time>
      </trkpt>
      <trkpt lat="45.88074" lon="4.66137">
        <ele>348</ele>
        <time>2018-06-03T09:15:20Z</time>
      </trkpt>
      <trkpt lat="45.88082" lon="4.66136">
        <ele>348</ele>
        <time>2018-06-03T09:15:23Z</time>
      </trkpt>
      <trkpt lat="45.88084" lon="4.66136">
        <ele>349</ele>
        <time>2018-06-03T09:15:24Z</time>
      </trkpt>
      <trkpt lat="45.88093" lon="4.66135">
        <ele>349</ele>
        <time>2018-06-03T09:15:27Z</time>
      </trkpt>
      <trkpt lat="45.88096" lon="4.66135">
        <ele>349</ele>
        <time>2018-06-03T09:15:28Z</time>
      </trkpt>
      <trkpt lat="45.88105" lon="4.66134">
        <ele>349</ele>
        <time>2018-06-03T09:15:29Z</time>
      </trkpt>
      <trkpt lat="45.88113" lon="4.66133">
        <ele>349</ele>
        <time>2018-06-03T09:15:31Z</time>
      </trkpt>
      <trkpt lat="45.88118" lon="4.66133">
        <ele>349</ele>
        <time>2018-06-03T09:15:32Z</time>
      </trkpt>
      <trkpt lat="45.88126" lon="4.66131">
        <ele>349</ele>
        <time>2018-06-03T09:15:34Z</time>
      </trkpt>
      <trkpt lat="45.88131" lon="4.66131">
        <ele>349</ele>
        <time>2018-06-03T09:15:35Z</time>
      </trkpt>
      <trkpt lat="45.88138" lon="4.66131">
        <ele>349</ele>
        <time>2018-06-03T09:15:37Z</time>
      </trkpt>
      <trkpt lat="45.88142" lon="4.6613">
        <ele>349</ele>
        <time>2018-06-03T09:15:38Z</time>
      </trkpt>
      <trkpt lat="45.8815" lon="4.6613">
        <ele>349</ele>
        <time>2018-06-03T09:15:41Z</time>
      </trkpt>
      <trkpt lat="45.88152" lon="4.6613">
        <ele>349</ele>
        <time>2018-06-03T09:15:42Z</time>
      </trkpt>
      <trkpt lat="45.8816" lon="4.6613">
        <ele>349</ele>
        <time>2018-06-03T09:15:45Z</time>
      </trkpt>
      <trkpt lat="45.88163" lon="4.66129">
        <ele>349</ele>
        <time>2018-06-03T09:15:46Z</time>
      </trkpt>
      <trkpt lat="45.88166" lon="4.66129">
        <ele>349</ele>
        <time>2018-06-03T09:15:47Z</time>
      </trkpt>
      <trkpt lat="45.88175" lon="4.66128">
        <ele>350</ele>
        <time>2018-06-03T09:15:48Z</time>
      </trkpt>
      <trkpt lat="45.88182" lon="4.66127">
        <ele>349</ele>
        <time>2018-06-03T09:15:51Z</time>
      </trkpt>
      <trkpt lat="45.8819" lon="4.66126">
        <ele>349</ele>
        <time>2018-06-03T09:15:52Z</time>
      </trkpt>
      <trkpt lat="45.88197" lon="4.66125">
        <ele>349</ele>
        <time>2018-06-03T09:15:54Z</time>
      </trkpt>
      <trkpt lat="45.88199" lon="4.66125">
        <ele>349</ele>
        <time>2018-06-03T09:15:55Z</time>
      </trkpt>
      <trkpt lat="45.88206" lon="4.66125">
        <ele>349</ele>
        <time>2018-06-03T09:15:58Z</time>
      </trkpt>
      <trkpt lat="45.88209" lon="4.66125">
        <ele>349</ele>
        <time>2018-06-03T09:15:59Z</time>
      </trkpt>
      <trkpt lat="45.88215" lon="4.66126">
        <ele>349</ele>
        <time>2018-06-03T09:16:01Z</time>
      </trkpt>
      <trkpt lat="45.88218" lon="4.66126">
        <ele>349</ele>
        <time>2018-06-03T09:16:02Z</time>
      </trkpt>
      <trkpt lat="45.88225" lon="4.66128">
        <ele>349</ele>
        <time>2018-06-03T09:16:04Z</time>
      </trkpt>
      <trkpt lat="45.88228" lon="4.66128">
        <ele>349</ele>
        <time>2018-06-03T09:16:05Z</time>
      </trkpt>
      <trkpt lat="45.88235" lon="4.66129">
        <ele>350</ele>
        <time>2018-06-03T09:16:07Z</time>
      </trkpt>
      <trkpt lat="45.88238" lon="4.6613">
        <ele>350</ele>
        <time>2018-06-03T09:16:08Z</time>
      </trkpt>
      <trkpt lat="45.88244" lon="4.6613">
        <ele>350</ele>
        <time>2018-06-03T09:16:10Z</time>
      </trkpt>
      <trkpt lat="45.88247" lon="4.66131">
        <ele>350</ele>
        <time>2018-06-03T09:16:11Z</time>
      </trkpt>
      <trkpt lat="45.88254" lon="4.66132">
        <ele>351</ele>
        <time>2018-06-03T09:16:13Z</time>
      </trkpt>
      <trkpt lat="45.88257" lon="4.66133">
        <ele>351</ele>
        <time>2018-06-03T09:16:14Z</time>
      </trkpt>
      <trkpt lat="45.88263" lon="4.66134">
        <ele>352</ele>
        <time>2018-06-03T09:16:16Z</time>
      </trkpt>
      <trkpt lat="45.88266" lon="4.66134">
        <ele>352</ele>
        <time>2018-06-03T09:16:17Z</time>
      </trkpt>
      <trkpt lat="45.88273" lon="4.66135">
        <ele>352</ele>
        <time>2018-06-03T09:16:19Z</time>
      </trkpt>
      <trkpt lat="45.88282" lon="4.66135">
        <ele>352</ele>
        <time>2018-06-03T09:16:20Z</time>
      </trkpt>
      <trkpt lat="45.8829" lon="4.66136">
        <ele>352</ele>
        <time>2018-06-03T09:16:24Z</time>
      </trkpt>
      <trkpt lat="45.88293" lon="4.66136">
        <ele>352</ele>
        <time>2018-06-03T09:16:25Z</time>
      </trkpt>
      <trkpt lat="45.88301" lon="4.66137">
        <ele>353</ele>
        <time>2018-06-03T09:16:28Z</time>
      </trkpt>
      <trkpt lat="45.88304" lon="4.66137">
        <ele>353</ele>
        <time>2018-06-03T09:16:29Z</time>
      </trkpt>
      <trkpt lat="45.8831" lon="4.66138">
        <ele>353</ele>
        <time>2018-06-03T09:16:31Z</time>
      </trkpt>
      <trkpt lat="45.88313" lon="4.66138">
        <ele>353</ele>
        <time>2018-06-03T09:16:32Z</time>
      </trkpt>
      <trkpt lat="45.88321" lon="4.66138">
        <ele>354</ele>
        <time>2018-06-03T09:16:35Z</time>
      </trkpt>
      <trkpt lat="45.88324" lon="4.66137">
        <ele>354</ele>
        <time>2018-06-03T09:16:36Z</time>
      </trkpt>
      <trkpt lat="45.8833" lon="4.66136">
        <ele>354</ele>
        <time>2018-06-03T09:16:38Z</time>
      </trkpt>
      <trkpt lat="45.88333" lon="4.66136">
        <ele>354</ele>
        <time>2018-06-03T09:16:39Z</time>
      </trkpt>
      <trkpt lat="45.88339" lon="4.66135">
        <ele>356</ele>
        <time>2018-06-03T09:16:41Z</time>
      </trkpt>
      <trkpt lat="45.88342" lon="4.66135">
        <ele>356</ele>
        <time>2018-06-03T09:16:42Z</time>
      </trkpt>
      <trkpt lat="45.8835" lon="4.66134">
        <ele>356</ele>
        <time>2018-06-03T09:16:45Z</time>
      </trkpt>
      <trkpt lat="45.88353" lon="4.66134">
        <ele>356</ele>
        <time>2018-06-03T09:16:46Z</time>
      </trkpt>
      <trkpt lat="45.88361" lon="4.66132">
        <ele>356</ele>
        <time>2018-06-03T09:16:49Z</time>
      </trkpt>
      <trkpt lat="45.88363" lon="4.66132">
        <ele>356</ele>
        <time>2018-06-03T09:16:50Z</time>
      </trkpt>
      <trkpt lat="45.8837" lon="4.66132">
        <ele>356</ele>
        <time>2018-06-03T09:16:53Z</time>
      </trkpt>
      <trkpt lat="45.88372" lon="4.66132">
        <ele>356</ele>
        <time>2018-06-03T09:16:54Z</time>
      </trkpt>
      <trkpt lat="45.88379" lon="4.66134">
        <ele>356</ele>
        <time>2018-06-03T09:16:57Z</time>
      </trkpt>
      <trkpt lat="45.88382" lon="4.66134">
        <ele>357</ele>
        <time>2018-06-03T09:16:58Z</time>
      </trkpt>
      <trkpt lat="45.88391" lon="4.66135">
        <ele>357</ele>
        <time>2018-06-03T09:17:02Z</time>
      </trkpt>
      <trkpt lat="45.88394" lon="4.66136">
        <ele>357</ele>
        <time>2018-06-03T09:17:03Z</time>
      </trkpt>
      <trkpt lat="45.88401" lon="4.66137">
        <ele>358</ele>
        <time>2018-06-03T09:17:06Z</time>
      </trkpt>
      <trkpt lat="45.88403" lon="4.66138">
        <ele>358</ele>
        <time>2018-06-03T09:17:07Z</time>
      </trkpt>
      <trkpt lat="45.8841" lon="4.66139">
        <ele>358</ele>
        <time>2018-06-03T09:17:10Z</time>
      </trkpt>
      <trkpt lat="45.88412" lon="4.66139">
        <ele>358</ele>
        <time>2018-06-03T09:17:11Z</time>
      </trkpt>
      <trkpt lat="45.88419" lon="4.6614">
        <ele>361</ele>
        <time>2018-06-03T09:17:14Z</time>
      </trkpt>
      <trkpt lat="45.88422" lon="4.6614">
        <ele>361</ele>
        <time>2018-06-03T09:17:15Z</time>
      </trkpt>
      <trkpt lat="45.8843" lon="4.66141">
        <ele>361</ele>
        <time>2018-06-03T09:17:19Z</time>
      </trkpt>
      <trkpt lat="45.88432" lon="4.6614">
        <ele>361</ele>
        <time>2018-06-03T09:17:20Z</time>
      </trkpt>
      <trkpt lat="45.8844" lon="4.66141">
        <ele>361</ele>
        <time>2018-06-03T09:17:24Z</time>
      </trkpt>
      <trkpt lat="45.88442" lon="4.66141">
        <ele>361</ele>
        <time>2018-06-03T09:17:25Z</time>
      </trkpt>
      <trkpt lat="45.88449" lon="4.66143">
        <ele>361</ele>
        <time>2018-06-03T09:17:29Z</time>
      </trkpt>
      <trkpt lat="45.88451" lon="4.66144">
        <ele>361</ele>
        <time>2018-06-03T09:17:30Z</time>
      </trkpt>
      <trkpt lat="45.8846" lon="4.66144">
        <ele>361</ele>
        <time>2018-06-03T09:17:34Z</time>
      </trkpt>
      <trkpt lat="45.88462" lon="4.66145">
        <ele>361</ele>
        <time>2018-06-03T09:17:35Z</time>
      </trkpt>
      <trkpt lat="45.88469" lon="4.66146">
        <ele>361</ele>
        <time>2018-06-03T09:17:38Z</time>
      </trkpt>
      <trkpt lat="45.88471" lon="4.66147">
        <ele>362</ele>
        <time>2018-06-03T09:17:39Z</time>
      </trkpt>
      <trkpt lat="45.88479" lon="4.66149">
        <ele>362</ele>
        <time>2018-06-03T09:17:42Z</time>
      </trkpt>
      <trkpt lat="45.88481" lon="4.66149">
        <ele>362</ele>
        <time>2018-06-03T09:17:43Z</time>
      </trkpt>
      <trkpt lat="45.88488" lon="4.66153">
        <ele>363</ele>
        <time>2018-06-03T09:17:47Z</time>
      </trkpt>
      <trkpt lat="45.8849" lon="4.66154">
        <ele>364</ele>
        <time>2018-06-03T09:17:48Z</time>
      </trkpt>
      <trkpt lat="45.88497" lon="4.66162">
        <ele>366</ele>
        <time>2018-06-03T09:17:53Z</time>
      </trkpt>
      <trkpt lat="45.88498" lon="4.66164">
        <ele>366</ele>
        <time>2018-06-03T09:17:54Z</time>
      </trkpt>
      <trkpt lat="45.88504" lon="4.6617">
        <ele>368</ele>
        <time>2018-06-03T09:17:58Z</time>
      </trkpt>
      <trkpt lat="45.88506" lon="4.66172">
        <ele>368</ele>
        <time>2018-06-03T09:17:59Z</time>
      </trkpt>
      <trkpt lat="45.88513" lon="4.66179">
        <ele>369</ele>
        <time>2018-06-03T09:18:03Z</time>
      </trkpt>
      <trkpt lat="45.88515" lon="4.66181">
        <ele>369</ele>
        <time>2018-06-03T09:18:04Z</time>
      </trkpt>
      <trkpt lat="45.88522" lon="4.66188">
        <ele>369</ele>
        <time>2018-06-03T09:18:08Z</time>
      </trkpt>
      <trkpt lat="45.88524" lon="4.66189">
        <ele>369</ele>
        <time>2018-06-03T09:18:09Z</time>
      </trkpt>
      <trkpt lat="45.8853" lon="4.66195">
        <ele>370</ele>
        <time>2018-06-03T09:18:13Z</time>
      </trkpt>
      <trkpt lat="45.88532" lon="4.66197">
        <ele>370</ele>
        <time>2018-06-03T09:18:14Z</time>
      </trkpt>
      <trkpt lat="45.88538" lon="4.66204">
        <ele>370</ele>
        <time>2018-06-03T09:18:18Z</time>
      </trkpt>
      <trkpt lat="45.88539" lon="4.66206">
        <ele>370</ele>
        <time>2018-06-03T09:18:19Z</time>
      </trkpt>
      <trkpt lat="45.88547" lon="4.66212">
        <ele>370</ele>
        <time>2018-06-03T09:18:24Z</time>
      </trkpt>
      <trkpt lat="45.88549" lon="4.66213">
        <ele>370</ele>
        <time>2018-06-03T09:18:25Z</time>
      </trkpt>
      <trkpt lat="45.88555" lon="4.6622">
        <ele>370</ele>
        <time>2018-06-03T09:18:29Z</time>
      </trkpt>
      <trkpt lat="45.88557" lon="4.66222">
        <ele>370</ele>
        <time>2018-06-03T09:18:30Z</time>
      </trkpt>
      <trkpt lat="45.88564" lon="4.66229">
        <ele>370</ele>
        <time>2018-06-03T09:18:34Z</time>
      </trkpt>
      <trkpt lat="45.88565" lon="4.66232">
        <ele>370</ele>
        <time>2018-06-03T09:18:35Z</time>
      </trkpt>
      <trkpt lat="45.88572" lon="4.6624">
        <ele>371</ele>
        <time>2018-06-03T09:18:39Z</time>
      </trkpt>
      <trkpt lat="45.88573" lon="4.66242">
        <ele>371</ele>
        <time>2018-06-03T09:18:40Z</time>
      </trkpt>
      <trkpt lat="45.88578" lon="4.66249">
        <ele>371</ele>
        <time>2018-06-03T09:18:43Z</time>
      </trkpt>
      <trkpt lat="45.8858" lon="4.66251">
        <ele>372</ele>
        <time>2018-06-03T09:18:44Z</time>
      </trkpt>
      <trkpt lat="45.88585" lon="4.66258">
        <ele>371</ele>
        <time>2018-06-03T09:18:47Z</time>
      </trkpt>
      <trkpt lat="45.88586" lon="4.6626">
        <ele>371</ele>
        <time>2018-06-03T09:18:48Z</time>
      </trkpt>
      <trkpt lat="45.88591" lon="4.66268">
        <ele>372</ele>
        <time>2018-06-03T09:18:51Z</time>
      </trkpt>
      <trkpt lat="45.88592" lon="4.66271">
        <ele>372</ele>
        <time>2018-06-03T09:18:52Z</time>
      </trkpt>
      <trkpt lat="45.88597" lon="4.66279">
        <ele>372</ele>
        <time>2018-06-03T09:18:55Z</time>
      </trkpt>
      <trkpt lat="45.88599" lon="4.66282">
        <ele>373</ele>
        <time>2018-06-03T09:18:56Z</time>
      </trkpt>
      <trkpt lat="45.88604" lon="4.66291">
        <ele>373</ele>
        <time>2018-06-03T09:18:59Z</time>
      </trkpt>
      <trkpt lat="45.88606" lon="4.66294">
        <ele>373</ele>
        <time>2018-06-03T09:19:00Z</time>
      </trkpt>
      <trkpt lat="45.88611" lon="4.66302">
        <ele>373</ele>
        <time>2018-06-03T09:19:03Z</time>
      </trkpt>
      <trkpt lat="45.88613" lon="4.66305">
        <ele>374</ele>
        <time>2018-06-03T09:19:04Z</time>
      </trkpt>
      <trkpt lat="45.88619" lon="4.66313">
        <ele>374</ele>
        <time>2018-06-03T09:19:07Z</time>
      </trkpt>
      <trkpt lat="45.88621" lon="4.66316">
        <ele>374</ele>
        <time>2018-06-03T09:19:08Z</time>
      </trkpt>
      <trkpt lat="45.88626" lon="4.66324">
        <ele>374</ele>
        <time>2018-06-03T09:19:11Z</time>
      </trkpt>
      <trkpt lat="45.88628" lon="4.66327">
        <ele>374</ele>
        <time>2018-06-03T09:19:12Z</time>
      </trkpt>
      <trkpt lat="45.88633" lon="4.66336">
        <ele>380</ele>
        <time>2018-06-03T09:19:15Z</time>
      </trkpt>
      <trkpt lat="45.88634" lon="4.66339">
        <ele>379</ele>
        <time>2018-06-03T09:19:16Z</time>
      </trkpt>
      <trkpt lat="45.8864" lon="4.66347">
        <ele>379</ele>
        <time>2018-06-03T09:19:19Z</time>
      </trkpt>
      <trkpt lat="45.88641" lon="4.6635">
        <ele>379</ele>
        <time>2018-06-03T09:19:20Z</time>
      </trkpt>
      <trkpt lat="45.88647" lon="4.66359">
        <ele>380</ele>
        <time>2018-06-03T09:19:23Z</time>
      </trkpt>
      <trkpt lat="45.88649" lon="4.66362">
        <ele>380</ele>
        <time>2018-06-03T09:19:24Z</time>
      </trkpt>
      <trkpt lat="45.88655" lon="4.6637">
        <ele>380</ele>
        <time>2018-06-03T09:19:27Z</time>
      </trkpt>
      <trkpt lat="45.88657" lon="4.66372">
        <ele>380</ele>
        <time>2018-06-03T09:19:28Z</time>
      </trkpt>
      <trkpt lat="45.88663" lon="4.6638">
        <ele>381</ele>
        <time>2018-06-03T09:19:31Z</time>
      </trkpt>
      <trkpt lat="45.88666" lon="4.66383">
        <ele>381</ele>
        <time>2018-06-03T09:19:32Z</time>
      </trkpt>
      <trkpt lat="45.88673" lon="4.6639">
        <ele>378</ele>
        <time>2018-06-03T09:19:35Z</time>
      </trkpt>
      <trkpt lat="45.88675" lon="4.66392">
        <ele>378</ele>
        <time>2018-06-03T09:19:36Z</time>
      </trkpt>
      <trkpt lat="45.88681" lon="4.66398">
        <ele>378</ele>
        <time>2018-06-03T09:19:39Z</time>
      </trkpt>
      <trkpt lat="45.88684" lon="4.664">
        <ele>378</ele>
        <time>2018-06-03T09:19:40Z</time>
      </trkpt>
      <trkpt lat="45.8869" lon="4.66404">
        <ele>378</ele>
        <time>2018-06-03T09:19:43Z</time>
      </trkpt>
      <trkpt lat="45.88693" lon="4.66406">
        <ele>378</ele>
        <time>2018-06-03T09:19:44Z</time>
      </trkpt>
      <trkpt lat="45.88698" lon="4.66412">
        <ele>378</ele>
        <time>2018-06-03T09:19:47Z</time>
      </trkpt>
      <trkpt lat="45.887" lon="4.66414">
        <ele>378</ele>
        <time>2018-06-03T09:19:48Z</time>
      </trkpt>
      <trkpt lat="45.88707" lon="4.6642">
        <ele>383</ele>
        <time>2018-06-03T09:19:51Z</time>
      </trkpt>
      <trkpt lat="45.88709" lon="4.66422">
        <ele>383</ele>
        <time>2018-06-03T09:19:52Z</time>
      </trkpt>
      <trkpt lat="45.88716" lon="4.66429">
        <ele>383</ele>
        <time>2018-06-03T09:19:55Z</time>
      </trkpt>
      <trkpt lat="45.88718" lon="4.66431">
        <ele>383</ele>
        <time>2018-06-03T09:19:56Z</time>
      </trkpt>
      <trkpt lat="45.88724" lon="4.66435">
        <ele>383</ele>
        <time>2018-06-03T09:19:59Z</time>
      </trkpt>
      <trkpt lat="45.88726" lon="4.66436">
        <ele>383</ele>
        <time>2018-06-03T09:20:00Z</time>
      </trkpt>
      <trkpt lat="45.88732" lon="4.66441">
        <ele>383</ele>
        <time>2018-06-03T09:20:03Z</time>
      </trkpt>
      <trkpt lat="45.88734" lon="4.66443">
        <ele>383</ele>
        <time>2018-06-03T09:20:04Z</time>
      </trkpt>
      <trkpt lat="45.8874" lon="4.66449">
        <ele>383</ele>
        <time>2018-06-03T09:20:07Z</time>
      </trkpt>
      <trkpt lat="45.88742" lon="4.66451">
        <ele>383</ele>
        <time>2018-06-03T09:20:08Z</time>
      </trkpt>
      <trkpt lat="45.88747" lon="4.66458">
        <ele>384</ele>
        <time>2018-06-03T09:20:11Z</time>
      </trkpt>
      <trkpt lat="45.88749" lon="4.66461">
        <ele>384</ele>
        <time>2018-06-03T09:20:12Z</time>
      </trkpt>
      <trkpt lat="45.88755" lon="4.6647">
        <ele>382</ele>
        <time>2018-06-03T09:20:16Z</time>
      </trkpt>
      <trkpt lat="45.88756" lon="4.66472">
        <ele>383</ele>
        <time>2018-06-03T09:20:17Z</time>
      </trkpt>
      <trkpt lat="45.88762" lon="4.6648">
        <ele>383</ele>
        <time>2018-06-03T09:20:21Z</time>
      </trkpt>
      <trkpt lat="45.88764" lon="4.66483">
        <ele>383</ele>
        <time>2018-06-03T09:20:22Z</time>
      </trkpt>
      <trkpt lat="45.88768" lon="4.66492">
        <ele>384</ele>
        <time>2018-06-03T09:20:26Z</time>
      </trkpt>
      <trkpt lat="45.88769" lon="4.66495">
        <ele>384</ele>
        <time>2018-06-03T09:20:27Z</time>
      </trkpt>
      <trkpt lat="45.88774" lon="4.66506">
        <ele>389</ele>
        <time>2018-06-03T09:20:32Z</time>
      </trkpt>
      <trkpt lat="45.88775" lon="4.66508">
        <ele>390</ele>
        <time>2018-06-03T09:20:33Z</time>
      </trkpt>
      <trkpt lat="45.8878" lon="4.66516">
        <ele>390</ele>
        <time>2018-06-03T09:20:37Z</time>
      </trkpt>
      <trkpt lat="45.88781" lon="4.66518">
        <ele>390</ele>
        <time>2018-06-03T09:20:38Z</time>
      </trkpt>
      <trkpt lat="45.88788" lon="4.66524">
        <ele>390</ele>
        <time>2018-06-03T09:20:42Z</time>
      </trkpt>
      <trkpt lat="45.88789" lon="4.66526">
        <ele>391</ele>
        <time>2018-06-03T09:20:43Z</time>
      </trkpt>
      <trkpt lat="45.88795" lon="4.66533">
        <ele>391</ele>
        <time>2018-06-03T09:20:47Z</time>
      </trkpt>
      <trkpt lat="45.88796" lon="4.66535">
        <ele>391</ele>
        <time>2018-06-03T09:20:48Z</time>
      </trkpt>
      <trkpt lat="45.88803" lon="4.66539">
        <ele>391</ele>
        <time>2018-06-03T09:20:52Z</time>
      </trkpt>
      <trkpt lat="45.88805" lon="4.6654">
        <ele>391</ele>
        <time>2018-06-03T09:20:53Z</time>
      </trkpt>
      <trkpt lat="45.88813" lon="4.66543">
        <ele>391</ele>
        <time>2018-06-03T09:20:57Z</time>
      </trkpt>
      <trkpt lat="45.88815" lon="4.66544">
        <ele>392</ele>
        <time>2018-06-03T09:20:58Z</time>
      </trkpt>
      <trkpt lat="45.88821" lon="4.66547">
        <ele>392</ele>
        <time>2018-06-03T09:21:01Z</time>
      </trkpt>
      <trkpt lat="45.88823" lon="4.66548">
        <ele>392</ele>
        <time>2018-06-03T09:21:02Z</time>
      </trkpt>
      <trkpt lat="45.8883" lon="4.66552">
        <ele>392</ele>
        <time>2018-06-03T09:21:05Z</time>
      </trkpt>
      <trkpt lat="45.88832" lon="4.66553">
        <ele>393</ele>
        <time>2018-06-03T09:21:06Z</time>
      </trkpt>
      <trkpt lat="45.88838" lon="4.66556">
        <ele>391</ele>
        <time>2018-06-03T09:21:09Z</time>
      </trkpt>
      <trkpt lat="45.8884" lon="4.66558">
        <ele>391</ele>
        <time>2018-06-03T09:21:10Z</time>
      </trkpt>
      <trkpt lat="45.88848" lon="4.66564">
        <ele>392</ele>
        <time>2018-06-03T09:21:14Z</time>
      </trkpt>
      <trkpt lat="45.8885" lon="4.66566">
        <ele>392</ele>
        <time>2018-06-03T09:21:15Z</time>
      </trkpt>
      <trkpt lat="45.88857" lon="4.6657">
        <ele>392</ele>
        <time>2018-06-03T09:21:20Z</time>
      </trkpt>
      <trkpt lat="45.88858" lon="4.66572">
        <ele>392</ele>
        <time>2018-06-03T09:21:21Z</time>
      </trkpt>
      <trkpt lat="45.88865" lon="4.66579">
        <ele>392</ele>
        <time>2018-06-03T09:21:26Z</time>
      </trkpt>
      <trkpt lat="45.88867" lon="4.66581">
        <ele>392</ele>
        <time>2018-06-03T09:21:27Z</time>
      </trkpt>
      <trkpt lat="45.88872" lon="4.66589">
        <ele>399</ele>
        <time>2018-06-03T09:21:32Z</time>
      </trkpt>
      <trkpt lat="45.88873" lon="4.66591">
        <ele>399</ele>
        <time>2018-06-03T09:21:33Z</time>
      </trkpt>
      <trkpt lat="45.88879" lon="4.666">
        <ele>400</ele>
        <time>2018-06-03T09:21:37Z</time>
      </trkpt>
      <trkpt lat="45.88881" lon="4.66602">
        <ele>400</ele>
        <time>2018-06-03T09:21:38Z</time>
      </trkpt>
      <trkpt lat="45.88885" lon="4.6661">
        <ele>400</ele>
        <time>2018-06-03T09:21:42Z</time>
      </trkpt>
      <trkpt lat="45.88886" lon="4.66612">
        <ele>400</ele>
        <time>2018-06-03T09:21:43Z</time>
      </trkpt>
      <trkpt lat="45.88892" lon="4.6662">
        <ele>401</ele>
        <time>2018-06-03T09:21:48Z</time>
      </trkpt>
      <trkpt lat="45.88893" lon="4.66622">
        <ele>401</ele>
        <time>2018-06-03T09:21:49Z</time>
      </trkpt>
      <trkpt lat="45.88898" lon="4.66631">
        <ele>401</ele>
        <time>2018-06-03T09:21:54Z</time>
      </trkpt>
      <trkpt lat="45.88899" lon="4.66633">
        <ele>402</ele>
        <time>2018-06-03T09:21:55Z</time>
      </trkpt>
      <trkpt lat="45.88904" lon="4.66644">
        <ele>403</ele>
        <time>2018-06-03T09:22:01Z</time>
      </trkpt>
      <trkpt lat="45.88906" lon="4.66646">
        <ele>403</ele>
        <time>2018-06-03T09:22:02Z</time>
      </trkpt>
      <trkpt lat="45.88912" lon="4.66654">
        <ele>404</ele>
        <time>2018-06-03T09:22:06Z</time>
      </trkpt>
      <trkpt lat="45.88914" lon="4.66656">
        <ele>404</ele>
        <time>2018-06-03T09:22:07Z</time>
      </trkpt>
      <trkpt lat="45.8892" lon="4.6666">
        <ele>404</ele>
        <time>2018-06-03T09:22:10Z</time>
      </trkpt>
      <trkpt lat="45.88922" lon="4.66662">
        <ele>404</ele>
        <time>2018-06-03T09:22:11Z</time>
      </trkpt>
      <trkpt lat="45.88929" lon="4.66668">
        <ele>407</ele>
        <time>2018-06-03T09:22:15Z</time>
      </trkpt>
      <trkpt lat="45.88931" lon="4.66669">
        <ele>407</ele>
        <time>2018-06-03T09:22:16Z</time>
      </trkpt>
      <trkpt lat="45.88938" lon="4.66677">
        <ele>408</ele>
        <time>2018-06-03T09:22:20Z</time>
      </trkpt>
      <trkpt lat="45.8894" lon="4.66679">
        <ele>408</ele>
        <time>2018-06-03T09:22:21Z</time>
      </trkpt>
      <trkpt lat="45.88946" lon="4.66685">
        <ele>409</ele>
        <time>2018-06-03T09:22:24Z</time>
      </trkpt>
      <trkpt lat="45.88948" lon="4.66688">
        <ele>409</ele>
        <time>2018-06-03T09:22:25Z</time>
      </trkpt>
      <trkpt lat="45.88954" lon="4.66693">
        <ele>409</ele>
        <time>2018-06-03T09:22:28Z</time>
      </trkpt>
      <trkpt lat="45.88956" lon="4.66695">
        <ele>409</ele>
        <time>2018-06-03T09:22:29Z</time>
      </trkpt>
      <trkpt lat="45.88963" lon="4.66699">
        <ele>409</ele>
        <time>2018-06-03T09:22:32Z</time>
      </trkpt>
      <trkpt lat="45.88966" lon="4.66701">
        <ele>409</ele>
        <time>2018-06-03T09:22:33Z</time>
      </trkpt>
      <trkpt lat="45.88973" lon="4.66705">
        <ele>409</ele>
        <time>2018-06-03T09:22:36Z</time>
      </trkpt>
      <trkpt lat="45.88975" lon="4.66706">
        <ele>409</ele>
        <time>2018-06-03T09:22:37Z</time>
      </trkpt>
      <trkpt lat="45.88982" lon="4.66709">
        <ele>409</ele>
        <time>2018-06-03T09:22:40Z</time>
      </trkpt>
      <trkpt lat="45.88985" lon="4.66709">
        <ele>409</ele>
        <time>2018-06-03T09:22:41Z</time>
      </trkpt>
      <trkpt lat="45.88993" lon="4.66712">
        <ele>410</ele>
        <time>2018-06-03T09:22:44Z</time>
      </trkpt>
      <trkpt lat="45.88996" lon="4.66713">
        <ele>410</ele>
        <time>2018-06-03T09:22:45Z</time>
      </trkpt>
      <trkpt lat="45.89004" lon="4.66715">
        <ele>407</ele>
        <time>2018-06-03T09:22:48Z</time>
      </trkpt>
      <trkpt lat="45.89007" lon="4.66716">
        <ele>407</ele>
        <time>2018-06-03T09:22:49Z</time>
      </trkpt>
      <trkpt lat="45.89014" lon="4.6672">
        <ele>408</ele>
        <time>2018-06-03T09:22:52Z</time>
      </trkpt>
      <trkpt lat="45.89016" lon="4.66722">
        <ele>408</ele>
        <time>2018-06-03T09:22:53Z</time>
      </trkpt>
      <trkpt lat="45.89022" lon="4.66726">
        <ele>408</ele>
        <time>2018-06-03T09:22:56Z</time>
      </trkpt>
      <trkpt lat="45.89024" lon="4.66728">
        <ele>408</ele>
        <time>2018-06-03T09:22:57Z</time>
      </trkpt>
      <trkpt lat="45.89032" lon="4.66733">
        <ele>408</ele>
        <time>2018-06-03T09:23:00Z</time>
      </trkpt>
      <trkpt lat="45.89035" lon="4.66734">
        <ele>408</ele>
        <time>2018-06-03T09:23:01Z</time>
      </trkpt>
      <trkpt lat="45.89041" lon="4.66737">
        <ele>407</ele>
        <time>2018-06-03T09:23:03Z</time>
      </trkpt>
      <trkpt lat="45.89044" lon="4.66738">
        <ele>407</ele>
        <time>2018-06-03T09:23:04Z</time>
      </trkpt>
      <trkpt lat="45.8905" lon="4.6674">
        <ele>407</ele>
        <time>2018-06-03T09:23:06Z</time>
      </trkpt>
      <trkpt lat="45.89062" lon="4.66745">
        <ele>407</ele>
        <time>2018-06-03T09:23:07Z</time>
      </trkpt>
      <trkpt lat="45.8907" lon="4.66751">
        <ele>411</ele>
        <time>2018-06-03T09:23:09Z</time>
      </trkpt>
      <trkpt lat="45.89074" lon="4.66753">
        <ele>411</ele>
        <time>2018-06-03T09:23:10Z</time>
      </trkpt>
      <trkpt lat="45.89081" lon="4.66762">
        <ele>411</ele>
        <time>2018-06-03T09:23:13Z</time>
      </trkpt>
      <trkpt lat="45.89082" lon="4.66764">
        <ele>411</ele>
        <time>2018-06-03T09:23:14Z</time>
      </trkpt>
      <trkpt lat="45.89087" lon="4.66771">
        <ele>410</ele>
        <time>2018-06-03T09:23:17Z</time>
      </trkpt>
      <trkpt lat="45.89089" lon="4.66773">
        <ele>410</ele>
        <time>2018-06-03T09:23:18Z</time>
      </trkpt>
      <trkpt lat="45.89096" lon="4.66779">
        <ele>410</ele>
        <time>2018-06-03T09:23:22Z</time>
      </trkpt>
      <trkpt lat="45.89098" lon="4.66781">
        <ele>410</ele>
        <time>2018-06-03T09:23:23Z</time>
      </trkpt>
      <trkpt lat="45.89104" lon="4.66787">
        <ele>410</ele>
        <time>2018-06-03T09:23:27Z</time>
      </trkpt>
      <trkpt lat="45.89105" lon="4.66788">
        <ele>410</ele>
        <time>2018-06-03T09:23:28Z</time>
      </trkpt>
      <trkpt lat="45.89107" lon="4.66793">
        <ele>410</ele>
        <time>2018-06-03T09:23:30Z</time>
      </trkpt>
      <trkpt lat="45.89108" lon="4.66803">
        <ele>411</ele>
        <time>2018-06-03T09:23:31Z</time>
      </trkpt>
      <trkpt lat="45.89104" lon="4.66813">
        <ele>412</ele>
        <time>2018-06-03T09:23:36Z</time>
      </trkpt>
      <trkpt lat="45.89102" lon="4.66814">
        <ele>412</ele>
        <time>2018-06-03T09:23:37Z</time>
      </trkpt>
      <trkpt lat="45.89104" lon="4.66826">
        <ele>412</ele>
        <time>2018-06-03T09:23:48Z</time>
      </trkpt>
      <trkpt lat="45.89106" lon="4.66827">
        <ele>412</ele>
        <time>2018-06-03T09:23:49Z</time>
      </trkpt>
      <trkpt lat="45.89114" lon="4.66831">
        <ele>412</ele>
        <time>2018-06-03T09:23:52Z</time>
      </trkpt>
      <trkpt lat="45.89117" lon="4.66832">
        <ele>412</ele>
        <time>2018-06-03T09:23:53Z</time>
      </trkpt>
      <trkpt lat="45.89123" lon="4.66823">
        <ele>411</ele>
        <time>2018-06-03T09:25:06Z</time>
      </trkpt>
      <trkpt lat="45.89123" lon="4.66822">
        <ele>411</ele>
        <time>2018-06-03T09:25:07Z</time>
      </trkpt>
      <trkpt lat="45.89129" lon="4.66831">
        <ele>411</ele>
        <time>2018-06-03T09:29:56Z</time>
      </trkpt>
      <trkpt lat="45.89129" lon="4.66831">
        <ele>411</ele>
        <time>2018-06-03T09:29:57Z</time>
      </trkpt>
      <trkpt lat="45.89125" lon="4.66827">
        <ele>411</ele>
        <time>2018-06-03T09:35:54.881Z</time>
      </trkpt>
      <trkpt lat="45.89119" lon="4.6682">
        <ele>411</ele>
        <time>2018-06-03T09:35:55.881Z</time>
      </trkpt>
      <trkpt lat="45.89112" lon="4.66826">
        <ele>412</ele>
        <time>2018-06-03T09:36:41Z</time>
      </trkpt>
      <trkpt lat="45.89111" lon="4.66826">
        <ele>412</ele>
        <time>2018-06-03T09:36:42Z</time>
      </trkpt>
      <trkpt lat="45.89117" lon="4.66835">
        <ele>414</ele>
        <time>2018-06-03T09:37:48Z</time>
      </trkpt>
      <trkpt lat="45.89118" lon="4.66836">
        <ele>414</ele>
        <time>2018-06-03T09:37:49Z</time>
      </trkpt>
      <trkpt lat="45.89122" lon="4.66829">
        <ele>412</ele>
        <time>2018-06-03T09:38:07Z</time>
      </trkpt>
      <trkpt lat="45.89123" lon="4.66829">
        <ele>412</ele>
        <time>2018-06-03T09:38:08Z</time>
      </trkpt>
      <trkpt lat="45.89123" lon="4.66829">
        <ele>411</ele>
        <time>2018-06-03T09:38:10Z</time>
      </trkpt>
      <trkpt lat="45.89123" lon="4.66828">
        <ele>411</ele>
        <time>2018-06-03T09:38:11Z</time>
      </trkpt>
      <trkpt lat="45.89131" lon="4.66824">
        <ele>411</ele>
        <time>2018-06-03T09:38:53Z</time>
      </trkpt>
      <trkpt lat="45.89133" lon="4.66824">
        <ele>411</ele>
        <time>2018-06-03T09:38:54Z</time>
      </trkpt>
      <trkpt lat="45.89141" lon="4.66829">
        <ele>412</ele>
        <time>2018-06-03T09:38:57Z</time>
      </trkpt>
      <trkpt lat="45.89151" lon="4.66833">
        <ele>412</ele>
        <time>2018-06-03T09:38:58Z</time>
      </trkpt>
      <trkpt lat="45.89157" lon="4.66839">
        <ele>414</ele>
        <time>2018-06-03T09:39:00Z</time>
      </trkpt>
      <trkpt lat="45.89158" lon="4.6684">
        <ele>414</ele>
        <time>2018-06-03T09:39:01Z</time>
      </trkpt>
      <trkpt lat="45.8916" lon="4.6685">
        <ele>414</ele>
        <time>2018-06-03T09:39:05Z</time>
      </trkpt>
      <trkpt lat="45.89161" lon="4.66855">
        <ele>414</ele>
        <time>2018-06-03T09:39:06Z</time>
      </trkpt>
      <trkpt lat="45.89161" lon="4.66866">
        <ele>414</ele>
        <time>2018-06-03T09:39:07Z</time>
      </trkpt>
      <trkpt lat="45.8916" lon="4.66871">
        <ele>414</ele>
        <time>2018-06-03T09:39:08Z</time>
      </trkpt>
      <trkpt lat="45.89158" lon="4.66881">
        <ele>414</ele>
        <time>2018-06-03T09:39:11Z</time>
      </trkpt>
      <trkpt lat="45.89157" lon="4.6689">
        <ele>414</ele>
        <time>2018-06-03T09:39:12Z</time>
      </trkpt>
      <trkpt lat="45.89159" lon="4.66902">
        <ele>415</ele>
        <time>2018-06-03T09:39:14Z</time>
      </trkpt>
      <trkpt lat="45.8916" lon="4.66908">
        <ele>415</ele>
        <time>2018-06-03T09:39:15Z</time>
      </trkpt>
      <trkpt lat="45.89163" lon="4.66919">
        <ele>414</ele>
        <time>2018-06-03T09:39:17Z</time>
      </trkpt>
      <trkpt lat="45.89166" lon="4.66924">
        <ele>414</ele>
        <time>2018-06-03T09:39:18Z</time>
      </trkpt>
      <trkpt lat="45.8917" lon="4.66935">
        <ele>415</ele>
        <time>2018-06-03T09:39:20Z</time>
      </trkpt>
      <trkpt lat="45.89171" lon="4.6694">
        <ele>415</ele>
        <time>2018-06-03T09:39:21Z</time>
      </trkpt>
      <trkpt lat="45.89175" lon="4.66951">
        <ele>415</ele>
        <time>2018-06-03T09:39:23Z</time>
      </trkpt>
      <trkpt lat="45.89176" lon="4.66953">
        <ele>415</ele>
        <time>2018-06-03T09:39:24Z</time>
      </trkpt>
      <trkpt lat="45.89178" lon="4.66962">
        <ele>415</ele>
        <time>2018-06-03T09:39:25Z</time>
      </trkpt>
      <trkpt lat="45.89179" lon="4.66967">
        <ele>415</ele>
        <time>2018-06-03T09:39:26Z</time>
      </trkpt>
      <trkpt lat="45.89182" lon="4.66974">
        <ele>415</ele>
        <time>2018-06-03T09:39:28Z</time>
      </trkpt>
      <trkpt lat="45.89184" lon="4.66981">
        <ele>415</ele>
        <time>2018-06-03T09:39:29Z</time>
      </trkpt>
      <trkpt lat="45.89186" lon="4.66992">
        <ele>414</ele>
        <time>2018-06-03T09:39:33Z</time>
      </trkpt>
      <trkpt lat="45.89187" lon="4.66995">
        <ele>414</ele>
        <time>2018-06-03T09:39:34Z</time>
      </trkpt>
      <trkpt lat="45.89188" lon="4.67006">
        <ele>413</ele>
        <time>2018-06-03T09:39:37Z</time>
      </trkpt>
      <trkpt lat="45.8919" lon="4.67017">
        <ele>413</ele>
        <time>2018-06-03T09:39:38Z</time>
      </trkpt>
      <trkpt lat="45.89192" lon="4.67025">
        <ele>413</ele>
        <time>2018-06-03T09:39:40Z</time>
      </trkpt>
      <trkpt lat="45.89194" lon="4.6703">
        <ele>413</ele>
        <time>2018-06-03T09:39:41Z</time>
      </trkpt>
      <trkpt lat="45.89197" lon="4.6704">
        <ele>413</ele>
        <time>2018-06-03T09:39:43Z</time>
      </trkpt>
      <trkpt lat="45.89198" lon="4.67046">
        <ele>413</ele>
        <time>2018-06-03T09:39:44Z</time>
      </trkpt>
      <trkpt lat="45.89201" lon="4.67057">
        <ele>412</ele>
        <time>2018-06-03T09:39:46Z</time>
      </trkpt>
      <trkpt lat="45.89203" lon="4.67063">
        <ele>412</ele>
        <time>2018-06-03T09:39:47Z</time>
      </trkpt>
      <trkpt lat="45.89205" lon="4.67068">
        <ele>412</ele>
        <time>2018-06-03T09:39:48Z</time>
      </trkpt>
      <trkpt lat="45.89208" lon="4.67074">
        <ele>412</ele>
        <time>2018-06-03T09:39:49Z</time>
      </trkpt>
      <trkpt lat="45.8921" lon="4.6708">
        <ele>413</ele>
        <time>2018-06-03T09:39:50Z</time>
      </trkpt>
      <trkpt lat="45.89212" lon="4.67086">
        <ele>410</ele>
        <time>2018-06-03T09:39:51Z</time>
      </trkpt>
      <trkpt lat="45.89214" lon="4.67092">
        <ele>411</ele>
        <time>2018-06-03T09:39:52Z</time>
      </trkpt>
      <trkpt lat="45.89217" lon="4.67099">
        <ele>411</ele>
        <time>2018-06-03T09:39:53Z</time>
      </trkpt>
      <trkpt lat="45.8922" lon="4.67105">
        <ele>411</ele>
        <time>2018-06-03T09:39:54Z</time>
      </trkpt>
      <trkpt lat="45.89222" lon="4.67111">
        <ele>411</ele>
        <time>2018-06-03T09:39:55Z</time>
      </trkpt>
      <trkpt lat="45.89225" lon="4.67118">
        <ele>411</ele>
        <time>2018-06-03T09:39:56Z</time>
      </trkpt>
      <trkpt lat="45.89229" lon="4.67123">
        <ele>411</ele>
        <time>2018-06-03T09:39:57Z</time>
      </trkpt>
      <trkpt lat="45.89231" lon="4.6713">
        <ele>411</ele>
        <time>2018-06-03T09:39:58Z</time>
      </trkpt>
      <trkpt lat="45.89234" lon="4.67137">
        <ele>411</ele>
        <time>2018-06-03T09:39:59Z</time>
      </trkpt>
      <trkpt lat="45.89237" lon="4.67142">
        <ele>411</ele>
        <time>2018-06-03T09:40:00Z</time>
      </trkpt>
      <trkpt lat="45.89242" lon="4.67147">
        <ele>411</ele>
        <time>2018-06-03T09:40:01Z</time>
      </trkpt>
      <trkpt lat="45.89245" lon="4.67152">
        <ele>412</ele>
        <time>2018-06-03T09:40:02Z</time>
      </trkpt>
      <trkpt lat="45.89249" lon="4.67157">
        <ele>412</ele>
        <time>2018-06-03T09:40:03Z</time>
      </trkpt>
      <trkpt lat="45.89253" lon="4.67163">
        <ele>414</ele>
        <time>2018-06-03T09:40:04Z</time>
      </trkpt>
      <trkpt lat="45.89257" lon="4.67168">
        <ele>413</ele>
        <time>2018-06-03T09:40:05Z</time>
      </trkpt>
      <trkpt lat="45.89262" lon="4.67173">
        <ele>412</ele>
        <time>2018-06-03T09:40:06Z</time>
      </trkpt>
      <trkpt lat="45.89267" lon="4.67177">
        <ele>412</ele>
        <time>2018-06-03T09:40:07Z</time>
      </trkpt>
      <trkpt lat="45.89273" lon="4.67181">
        <ele>412</ele>
        <time>2018-06-03T09:40:08Z</time>
      </trkpt>
      <trkpt lat="45.89278" lon="4.67185">
        <ele>412</ele>
        <time>2018-06-03T09:40:09Z</time>
      </trkpt>
      <trkpt lat="45.89282" lon="4.6719">
        <ele>412</ele>
        <time>2018-06-03T09:40:10Z</time>
      </trkpt>
      <trkpt lat="45.89288" lon="4.67194">
        <ele>412</ele>
        <time>2018-06-03T09:40:11Z</time>
      </trkpt>
      <trkpt lat="45.89294" lon="4.67197">
        <ele>412</ele>
        <time>2018-06-03T09:40:12Z</time>
      </trkpt>
      <trkpt lat="45.89299" lon="4.672">
        <ele>412</ele>
        <time>2018-06-03T09:40:13Z</time>
      </trkpt>
      <trkpt lat="45.89304" lon="4.67203">
        <ele>412</ele>
        <time>2018-06-03T09:40:14Z</time>
      </trkpt>
      <trkpt lat="45.8931" lon="4.67205">
        <ele>412</ele>
        <time>2018-06-03T09:40:15Z</time>
      </trkpt>
      <trkpt lat="45.89315" lon="4.67208">
        <ele>412</ele>
        <time>2018-06-03T09:40:16Z</time>
      </trkpt>
      <trkpt lat="45.8932" lon="4.6721">
        <ele>411</ele>
        <time>2018-06-03T09:40:17Z</time>
      </trkpt>
      <trkpt lat="45.89326" lon="4.67213">
        <ele>411</ele>
        <time>2018-06-03T09:40:18Z</time>
      </trkpt>
      <trkpt lat="45.89331" lon="4.67215">
        <ele>411</ele>
        <time>2018-06-03T09:40:19Z</time>
      </trkpt>
      <trkpt lat="45.89337" lon="4.67218">
        <ele>415</ele>
        <time>2018-06-03T09:40:20Z</time>
      </trkpt>
      <trkpt lat="45.89342" lon="4.67223">
        <ele>415</ele>
        <time>2018-06-03T09:40:21Z</time>
      </trkpt>
      <trkpt lat="45.89346" lon="4.67227">
        <ele>414</ele>
        <time>2018-06-03T09:40:22Z</time>
      </trkpt>
      <trkpt lat="45.89352" lon="4.67231">
        <ele>415</ele>
        <time>2018-06-03T09:40:23Z</time>
      </trkpt>
      <trkpt lat="45.89356" lon="4.67237">
        <ele>414</ele>
        <time>2018-06-03T09:40:24Z</time>
      </trkpt>
      <trkpt lat="45.89361" lon="4.67244">
        <ele>415</ele>
        <time>2018-06-03T09:40:25Z</time>
      </trkpt>
      <trkpt lat="45.89365" lon="4.6725">
        <ele>409</ele>
        <time>2018-06-03T09:40:26Z</time>
      </trkpt>
      <trkpt lat="45.89369" lon="4.67255">
        <ele>409</ele>
        <time>2018-06-03T09:40:27Z</time>
      </trkpt>
      <trkpt lat="45.89372" lon="4.67264">
        <ele>409</ele>
        <time>2018-06-03T09:40:28Z</time>
      </trkpt>
      <trkpt lat="45.89375" lon="4.67272">
        <ele>409</ele>
        <time>2018-06-03T09:40:29Z</time>
      </trkpt>
      <trkpt lat="45.89379" lon="4.67278">
        <ele>408</ele>
        <time>2018-06-03T09:40:30Z</time>
      </trkpt>
      <trkpt lat="45.89383" lon="4.67286">
        <ele>408</ele>
        <time>2018-06-03T09:40:31Z</time>
      </trkpt>
      <trkpt lat="45.89387" lon="4.67292">
        <ele>408</ele>
        <time>2018-06-03T09:40:32Z</time>
      </trkpt>
      <trkpt lat="45.89392" lon="4.67298">
        <ele>408</ele>
        <time>2018-06-03T09:40:33Z</time>
      </trkpt>
      <trkpt lat="45.89395" lon="4.67302">
        <ele>408</ele>
        <time>2018-06-03T09:40:34Z</time>
      </trkpt>
      <trkpt lat="45.894" lon="4.67307">
        <ele>408</ele>
        <time>2018-06-03T09:40:35Z</time>
      </trkpt>
      <trkpt lat="45.89404" lon="4.67313">
        <ele>407</ele>
        <time>2018-06-03T09:40:36Z</time>
      </trkpt>
      <trkpt lat="45.89408" lon="4.67319">
        <ele>407</ele>
        <time>2018-06-03T09:40:37Z</time>
      </trkpt>
      <trkpt lat="45.89413" lon="4.67325">
        <ele>407</ele>
        <time>2018-06-03T09:40:38Z</time>
      </trkpt>
      <trkpt lat="45.89419" lon="4.67331">
        <ele>408</ele>
        <time>2018-06-03T09:40:39Z</time>
      </trkpt>
      <trkpt lat="45.89423" lon="4.67337">
        <ele>407</ele>
        <time>2018-06-03T09:40:40Z</time>
      </trkpt>
      <trkpt lat="45.89427" lon="4.67342">
        <ele>407</ele>
        <time>2018-06-03T09:40:41Z</time>
      </trkpt>
      <trkpt lat="45.89432" lon="4.67349">
        <ele>407</ele>
        <time>2018-06-03T09:40:42Z</time>
      </trkpt>
      <trkpt lat="45.89439" lon="4.67355">
        <ele>407</ele>
        <time>2018-06-03T09:40:43Z</time>
      </trkpt>
      <trkpt lat="45.89444" lon="4.6736">
        <ele>407</ele>
        <time>2018-06-03T09:40:44Z</time>
      </trkpt>
      <trkpt lat="45.89449" lon="4.67366">
        <ele>407</ele>
        <time>2018-06-03T09:40:45Z</time>
      </trkpt>
      <trkpt lat="45.89455" lon="4.67372">
        <ele>407</ele>
        <time>2018-06-03T09:40:46Z</time>
      </trkpt>
      <trkpt lat="45.89461" lon="4.67378">
        <ele>407</ele>
        <time>2018-06-03T09:40:47Z</time>
      </trkpt>
      <trkpt lat="45.89467" lon="4.67383">
        <ele>407</ele>
        <time>2018-06-03T09:40:48Z</time>
      </trkpt>
      <trkpt lat="45.89474" lon="4.67387">
        <ele>407</ele>
        <time>2018-06-03T09:40:49Z</time>
      </trkpt>
      <trkpt lat="45.8948" lon="4.67391">
        <ele>407</ele>
        <time>2018-06-03T09:40:50Z</time>
      </trkpt>
      <trkpt lat="45.89486" lon="4.67395">
        <ele>406</ele>
        <time>2018-06-03T09:40:51Z</time>
      </trkpt>
      <trkpt lat="45.89493" lon="4.67399">
        <ele>406</ele>
        <time>2018-06-03T09:40:52Z</time>
      </trkpt>
      <trkpt lat="45.89498" lon="4.67404">
        <ele>405</ele>
        <time>2018-06-03T09:40:53Z</time>
      </trkpt>
      <trkpt lat="45.89505" lon="4.67411">
        <ele>406</ele>
        <time>2018-06-03T09:40:54Z</time>
      </trkpt>
      <trkpt lat="45.89511" lon="4.67416">
        <ele>407</ele>
        <time>2018-06-03T09:40:55Z</time>
      </trkpt>
      <trkpt lat="45.89518" lon="4.67419">
        <ele>402</ele>
        <time>2018-06-03T09:40:56Z</time>
      </trkpt>
      <trkpt lat="45.89524" lon="4.67422">
        <ele>402</ele>
        <time>2018-06-03T09:40:57Z</time>
      </trkpt>
      <trkpt lat="45.89531" lon="4.67427">
        <ele>402</ele>
        <time>2018-06-03T09:40:58Z</time>
      </trkpt>
      <trkpt lat="45.89537" lon="4.67426">
        <ele>402</ele>
        <time>2018-06-03T09:40:59Z</time>
      </trkpt>
      <trkpt lat="45.89545" lon="4.67429">
        <ele>402</ele>
        <time>2018-06-03T09:41:00Z</time>
      </trkpt>
      <trkpt lat="45.8955" lon="4.6743">
        <ele>402</ele>
        <time>2018-06-03T09:41:01Z</time>
      </trkpt>
      <trkpt lat="45.89556" lon="4.67434">
        <ele>402</ele>
        <time>2018-06-03T09:41:02Z</time>
      </trkpt>
      <trkpt lat="45.89563" lon="4.67435">
        <ele>403</ele>
        <time>2018-06-03T09:41:03Z</time>
      </trkpt>
      <trkpt lat="45.8957" lon="4.67437">
        <ele>403</ele>
        <time>2018-06-03T09:41:04Z</time>
      </trkpt>
      <trkpt lat="45.89577" lon="4.67439">
        <ele>403</ele>
        <time>2018-06-03T09:41:05Z</time>
      </trkpt>
      <trkpt lat="45.89583" lon="4.67443">
        <ele>403</ele>
        <time>2018-06-03T09:41:06Z</time>
      </trkpt>
      <trkpt lat="45.89589" lon="4.67446">
        <ele>404</ele>
        <time>2018-06-03T09:41:07Z</time>
      </trkpt>
      <trkpt lat="45.89594" lon="4.67448">
        <ele>404</ele>
        <time>2018-06-03T09:41:08Z</time>
      </trkpt>
      <trkpt lat="45.896" lon="4.67451">
        <ele>404</ele>
        <time>2018-06-03T09:41:09Z</time>
      </trkpt>
      <trkpt lat="45.89606" lon="4.67453">
        <ele>404</ele>
        <time>2018-06-03T09:41:10Z</time>
      </trkpt>
      <trkpt lat="45.89613" lon="4.67456">
        <ele>403</ele>
        <time>2018-06-03T09:41:11Z</time>
      </trkpt>
      <trkpt lat="45.89621" lon="4.67459">
        <ele>403</ele>
        <time>2018-06-03T09:41:12Z</time>
      </trkpt>
      <trkpt lat="45.89629" lon="4.67462">
        <ele>403</ele>
        <time>2018-06-03T09:41:13Z</time>
      </trkpt>
      <trkpt lat="45.89636" lon="4.67466">
        <ele>403</ele>
        <time>2018-06-03T09:41:14Z</time>
      </trkpt>
      <trkpt lat="45.89643" lon="4.67469">
        <ele>403</ele>
        <time>2018-06-03T09:41:15Z</time>
      </trkpt>
      <trkpt lat="45.8965" lon="4.67471">
        <ele>402</ele>
        <time>2018-06-03T09:41:16Z</time>
      </trkpt>
      <trkpt lat="45.89657" lon="4.67474">
        <ele>402</ele>
        <time>2018-06-03T09:41:17Z</time>
      </trkpt>
      <trkpt lat="45.89663" lon="4.67477">
        <ele>402</ele>
        <time>2018-06-03T09:41:18Z</time>
      </trkpt>
      <trkpt lat="45.8967" lon="4.67479">
        <ele>402</ele>
        <time>2018-06-03T09:41:19Z</time>
      </trkpt>
      <trkpt lat="45.89677" lon="4.67478">
        <ele>402</ele>
        <time>2018-06-03T09:41:20Z</time>
      </trkpt>
      <trkpt lat="45.89685" lon="4.6748">
        <ele>402</ele>
        <time>2018-06-03T09:41:21Z</time>
      </trkpt>
      <trkpt lat="45.89692" lon="4.67482">
        <ele>402</ele>
        <time>2018-06-03T09:41:22Z</time>
      </trkpt>
      <trkpt lat="45.89699" lon="4.67485">
        <ele>402</ele>
        <time>2018-06-03T09:41:23Z</time>
      </trkpt>
      <trkpt lat="45.89706" lon="4.67488">
        <ele>402</ele>
        <time>2018-06-03T09:41:24Z</time>
      </trkpt>
      <trkpt lat="45.89712" lon="4.6749">
        <ele>402</ele>
        <time>2018-06-03T09:41:25Z</time>
      </trkpt>
      <trkpt lat="45.89719" lon="4.6749">
        <ele>402</ele>
        <time>2018-06-03T09:41:26Z</time>
      </trkpt>
      <trkpt lat="45.89726" lon="4.67491">
        <ele>402</ele>
        <time>2018-06-03T09:41:27Z</time>
      </trkpt>
      <trkpt lat="45.89733" lon="4.67493">
        <ele>401</ele>
        <time>2018-06-03T09:41:28Z</time>
      </trkpt>
      <trkpt lat="45.89741" lon="4.67494">
        <ele>401</ele>
        <time>2018-06-03T09:41:29Z</time>
      </trkpt>
      <trkpt lat="45.89749" lon="4.67493">
        <ele>400</ele>
        <time>2018-06-03T09:41:30Z</time>
      </trkpt>
      <trkpt lat="45.89757" lon="4.67493">
        <ele>399</ele>
        <time>2018-06-03T09:41:31Z</time>
      </trkpt>
      <trkpt lat="45.89765" lon="4.67493">
        <ele>399</ele>
        <time>2018-06-03T09:41:32Z</time>
      </trkpt>
      <trkpt lat="45.89772" lon="4.67494">
        <ele>399</ele>
        <time>2018-06-03T09:41:33Z</time>
      </trkpt>
      <trkpt lat="45.8978" lon="4.67494">
        <ele>399</ele>
        <time>2018-06-03T09:41:34Z</time>
      </trkpt>
      <trkpt lat="45.89788" lon="4.67492">
        <ele>399</ele>
        <time>2018-06-03T09:41:35Z</time>
      </trkpt>
      <trkpt lat="45.89794" lon="4.67486">
        <ele>399</ele>
        <time>2018-06-03T09:41:36Z</time>
      </trkpt>
      <trkpt lat="45.89802" lon="4.67479">
        <ele>398</ele>
        <time>2018-06-03T09:41:37Z</time>
      </trkpt>
      <trkpt lat="45.89808" lon="4.6747">
        <ele>399</ele>
        <time>2018-06-03T09:41:38Z</time>
      </trkpt>
      <trkpt lat="45.89814" lon="4.6746">
        <ele>399</ele>
        <time>2018-06-03T09:41:39Z</time>
      </trkpt>
      <trkpt lat="45.8982" lon="4.67447">
        <ele>399</ele>
        <time>2018-06-03T09:41:40Z</time>
      </trkpt>
      <trkpt lat="45.89825" lon="4.67436">
        <ele>398</ele>
        <time>2018-06-03T09:41:41Z</time>
      </trkpt>
      <trkpt lat="45.8983" lon="4.67424">
        <ele>398</ele>
        <time>2018-06-03T09:41:42Z</time>
      </trkpt>
      <trkpt lat="45.89834" lon="4.67412">
        <ele>397</ele>
        <time>2018-06-03T09:41:43Z</time>
      </trkpt>
      <trkpt lat="45.89833" lon="4.67402">
        <ele>401</ele>
        <time>2018-06-03T09:41:44Z</time>
      </trkpt>
      <trkpt lat="45.89834" lon="4.67392">
        <ele>397</ele>
        <time>2018-06-03T09:41:45Z</time>
      </trkpt>
      <trkpt lat="45.89839" lon="4.67381">
        <ele>398</ele>
        <time>2018-06-03T09:41:46Z</time>
      </trkpt>
      <trkpt lat="45.89845" lon="4.67374">
        <ele>398</ele>
        <time>2018-06-03T09:41:47Z</time>
      </trkpt>
      <trkpt lat="45.89852" lon="4.67366">
        <ele>399</ele>
        <time>2018-06-03T09:41:48Z</time>
      </trkpt>
      <trkpt lat="45.89857" lon="4.67358">
        <ele>399</ele>
        <time>2018-06-03T09:41:49Z</time>
      </trkpt>
      <trkpt lat="45.89864" lon="4.67354">
        <ele>399</ele>
        <time>2018-06-03T09:41:50Z</time>
      </trkpt>
      <trkpt lat="45.89871" lon="4.67351">
        <ele>399</ele>
        <time>2018-06-03T09:41:51Z</time>
      </trkpt>
      <trkpt lat="45.89879" lon="4.67349">
        <ele>398</ele>
        <time>2018-06-03T09:41:52Z</time>
      </trkpt>
      <trkpt lat="45.89888" lon="4.6735">
        <ele>398</ele>
        <time>2018-06-03T09:41:53Z</time>
      </trkpt>
      <trkpt lat="45.89895" lon="4.6735">
        <ele>398</ele>
        <time>2018-06-03T09:41:54Z</time>
      </trkpt>
      <trkpt lat="45.89904" lon="4.67352">
        <ele>398</ele>
        <time>2018-06-03T09:41:55Z</time>
      </trkpt>
      <trkpt lat="45.89912" lon="4.67354">
        <ele>398</ele>
        <time>2018-06-03T09:41:56Z</time>
      </trkpt>
      <trkpt lat="45.8992" lon="4.67356">
        <ele>396</ele>
        <time>2018-06-03T09:41:57Z</time>
      </trkpt>
      <trkpt lat="45.8993" lon="4.67358">
        <ele>396</ele>
        <time>2018-06-03T09:41:58Z</time>
      </trkpt>
      <trkpt lat="45.89938" lon="4.67361">
        <ele>395</ele>
        <time>2018-06-03T09:41:59Z</time>
      </trkpt>
      <trkpt lat="45.89947" lon="4.67363">
        <ele>395</ele>
        <time>2018-06-03T09:42:00Z</time>
      </trkpt>
      <trkpt lat="45.89956" lon="4.67366">
        <ele>394</ele>
        <time>2018-06-03T09:42:01Z</time>
      </trkpt>
      <trkpt lat="45.89964" lon="4.67368">
        <ele>394</ele>
        <time>2018-06-03T09:42:02Z</time>
      </trkpt>
      <trkpt lat="45.89973" lon="4.67372">
        <ele>394</ele>
        <time>2018-06-03T09:42:03Z</time>
      </trkpt>
      <trkpt lat="45.8998" lon="4.67374">
        <ele>394</ele>
        <time>2018-06-03T09:42:04Z</time>
      </trkpt>
      <trkpt lat="45.89988" lon="4.67376">
        <ele>394</ele>
        <time>2018-06-03T09:42:05Z</time>
      </trkpt>
      <trkpt lat="45.89997" lon="4.67385">
        <ele>392</ele>
        <time>2018-06-03T09:42:06Z</time>
      </trkpt>
      <trkpt lat="45.90005" lon="4.6739">
        <ele>394</ele>
        <time>2018-06-03T09:42:07Z</time>
      </trkpt>
      <trkpt lat="45.90013" lon="4.67397">
        <ele>393</ele>
        <time>2018-06-03T09:42:08Z</time>
      </trkpt>
      <trkpt lat="45.90022" lon="4.67402">
        <ele>394</ele>
        <time>2018-06-03T09:42:09Z</time>
      </trkpt>
      <trkpt lat="45.9003" lon="4.6741">
        <ele>394</ele>
        <time>2018-06-03T09:42:10Z</time>
      </trkpt>
      <trkpt lat="45.90038" lon="4.67419">
        <ele>385</ele>
        <time>2018-06-03T09:42:11Z</time>
      </trkpt>
      <trkpt lat="45.90045" lon="4.67425">
        <ele>385</ele>
        <time>2018-06-03T09:42:12Z</time>
      </trkpt>
      <trkpt lat="45.90053" lon="4.67434">
        <ele>385</ele>
        <time>2018-06-03T09:42:13Z</time>
      </trkpt>
      <trkpt lat="45.9006" lon="4.67442">
        <ele>385</ele>
        <time>2018-06-03T09:42:14Z</time>
      </trkpt>
      <trkpt lat="45.90068" lon="4.67451">
        <ele>384</ele>
        <time>2018-06-03T09:42:15Z</time>
      </trkpt>
      <trkpt lat="45.90076" lon="4.6746">
        <ele>383</ele>
        <time>2018-06-03T09:42:16Z</time>
      </trkpt>
      <trkpt lat="45.90082" lon="4.67468">
        <ele>382</ele>
        <time>2018-06-03T09:42:17Z</time>
      </trkpt>
      <trkpt lat="45.9009" lon="4.67475">
        <ele>385</ele>
        <time>2018-06-03T09:42:18Z</time>
      </trkpt>
      <trkpt lat="45.90098" lon="4.67484">
        <ele>384</ele>
        <time>2018-06-03T09:42:19Z</time>
      </trkpt>
      <trkpt lat="45.90105" lon="4.67493">
        <ele>384</ele>
        <time>2018-06-03T09:42:20Z</time>
      </trkpt>
      <trkpt lat="45.90112" lon="4.67503">
        <ele>377</ele>
        <time>2018-06-03T09:42:21Z</time>
      </trkpt>
      <trkpt lat="45.90119" lon="4.67513">
        <ele>378</ele>
        <time>2018-06-03T09:42:22Z</time>
      </trkpt>
      <trkpt lat="45.90124" lon="4.67523">
        <ele>378</ele>
        <time>2018-06-03T09:42:23Z</time>
      </trkpt>
      <trkpt lat="45.9013" lon="4.67533">
        <ele>377</ele>
        <time>2018-06-03T09:42:24Z</time>
      </trkpt>
      <trkpt lat="45.90135" lon="4.67544">
        <ele>377</ele>
        <time>2018-06-03T09:42:25Z</time>
      </trkpt>
      <trkpt lat="45.9014" lon="4.67554">
        <ele>377</ele>
        <time>2018-06-03T09:42:26Z</time>
      </trkpt>
      <trkpt lat="45.90146" lon="4.67565">
        <ele>376</ele>
        <time>2018-06-03T09:42:27Z</time>
      </trkpt>
      <trkpt lat="45.90153" lon="4.67574">
        <ele>376</ele>
        <time>2018-06-03T09:42:28Z</time>
      </trkpt>
      <trkpt lat="45.90161" lon="4.67583">
        <ele>376</ele>
        <time>2018-06-03T09:42:29Z</time>
      </trkpt>
      <trkpt lat="45.90168" lon="4.67592">
        <ele>376</ele>
        <time>2018-06-03T09:42:30Z</time>
      </trkpt>
      <trkpt lat="45.90174" lon="4.676">
        <ele>376</ele>
        <time>2018-06-03T09:42:31Z</time>
      </trkpt>
      <trkpt lat="45.90181" lon="4.67608">
        <ele>376</ele>
        <time>2018-06-03T09:42:32Z</time>
      </trkpt>
      <trkpt lat="45.90189" lon="4.67617">
        <ele>376</ele>
        <time>2018-06-03T09:42:33Z</time>
      </trkpt>
      <trkpt lat="45.90196" lon="4.67625">
        <ele>375</ele>
        <time>2018-06-03T09:42:34Z</time>
      </trkpt>
      <trkpt lat="45.90204" lon="4.67633">
        <ele>375</ele>
        <time>2018-06-03T09:42:35Z</time>
      </trkpt>
      <trkpt lat="45.90212" lon="4.67641">
        <ele>375</ele>
        <time>2018-06-03T09:42:36Z</time>
      </trkpt>
      <trkpt lat="45.9022" lon="4.6765">
        <ele>375</ele>
        <time>2018-06-03T09:42:37Z</time>
      </trkpt>
      <trkpt lat="45.90227" lon="4.67658">
        <ele>375</ele>
        <time>2018-06-03T09:42:38Z</time>
      </trkpt>
      <trkpt lat="45.90235" lon="4.67665">
        <ele>375</ele>
        <time>2018-06-03T09:42:39Z</time>
      </trkpt>
      <trkpt lat="45.90243" lon="4.67671">
        <ele>373</ele>
        <time>2018-06-03T09:42:40Z</time>
      </trkpt>
      <trkpt lat="45.9025" lon="4.67675">
        <ele>374</ele>
        <time>2018-06-03T09:42:41Z</time>
      </trkpt>
      <trkpt lat="45.90259" lon="4.6768">
        <ele>374</ele>
        <time>2018-06-03T09:42:42Z</time>
      </trkpt>
      <trkpt lat="45.90267" lon="4.67684">
        <ele>374</ele>
        <time>2018-06-03T09:42:43Z</time>
      </trkpt>
      <trkpt lat="45.90275" lon="4.67687">
        <ele>374</ele>
        <time>2018-06-03T09:42:44Z</time>
      </trkpt>
      <trkpt lat="45.90283" lon="4.67691">
        <ele>374</ele>
        <time>2018-06-03T09:42:45Z</time>
      </trkpt>
      <trkpt lat="45.90292" lon="4.67694">
        <ele>374</ele>
        <time>2018-06-03T09:42:46Z</time>
      </trkpt>
      <trkpt lat="45.90299" lon="4.67696">
        <ele>374</ele>
        <time>2018-06-03T09:42:47Z</time>
      </trkpt>
      <trkpt lat="45.90307" lon="4.67699">
        <ele>374</ele>
        <time>2018-06-03T09:42:48Z</time>
      </trkpt>
      <trkpt lat="45.90315" lon="4.67701">
        <ele>374</ele>
        <time>2018-06-03T09:42:49Z</time>
      </trkpt>
      <trkpt lat="45.90324" lon="4.67704">
        <ele>374</ele>
        <time>2018-06-03T09:42:50Z</time>
      </trkpt>
      <trkpt lat="45.90331" lon="4.67705">
        <ele>374</ele>
        <time>2018-06-03T09:42:51Z</time>
      </trkpt>
      <trkpt lat="45.9034" lon="4.67708">
        <ele>372</ele>
        <time>2018-06-03T09:42:52Z</time>
      </trkpt>
      <trkpt lat="45.90348" lon="4.67711">
        <ele>372</ele>
        <time>2018-06-03T09:42:53Z</time>
      </trkpt>
      <trkpt lat="45.90357" lon="4.67715">
        <ele>371</ele>
        <time>2018-06-03T09:42:54Z</time>
      </trkpt>
      <trkpt lat="45.90365" lon="4.67717">
        <ele>371</ele>
        <time>2018-06-03T09:42:55Z</time>
      </trkpt>
      <trkpt lat="45.90374" lon="4.67721">
        <ele>371</ele>
        <time>2018-06-03T09:42:56Z</time>
      </trkpt>
      <trkpt lat="45.90382" lon="4.67722">
        <ele>370</ele>
        <time>2018-06-03T09:42:57Z</time>
      </trkpt>
      <trkpt lat="45.90391" lon="4.67726">
        <ele>370</ele>
        <time>2018-06-03T09:42:58Z</time>
      </trkpt>
      <trkpt lat="45.90399" lon="4.67729">
        <ele>369</ele>
        <time>2018-06-03T09:42:59Z</time>
      </trkpt>
      <trkpt lat="45.90408" lon="4.67732">
        <ele>368</ele>
        <time>2018-06-03T09:43:00Z</time>
      </trkpt>
      <trkpt lat="45.90417" lon="4.67736">
        <ele>368</ele>
        <time>2018-06-03T09:43:01Z</time>
      </trkpt>
      <trkpt lat="45.90425" lon="4.6774">
        <ele>366</ele>
        <time>2018-06-03T09:43:02Z</time>
      </trkpt>
      <trkpt lat="45.90436" lon="4.67743">
        <ele>366</ele>
        <time>2018-06-03T09:43:03Z</time>
      </trkpt>
      <trkpt lat="45.90445" lon="4.67747">
        <ele>367</ele>
        <time>2018-06-03T09:43:04Z</time>
      </trkpt>
      <trkpt lat="45.90454" lon="4.67751">
        <ele>364</ele>
        <time>2018-06-03T09:43:05Z</time>
      </trkpt>
      <trkpt lat="45.90463" lon="4.67752">
        <ele>364</ele>
        <time>2018-06-03T09:43:06Z</time>
      </trkpt>
      <trkpt lat="45.90471" lon="4.67756">
        <ele>364</ele>
        <time>2018-06-03T09:43:07Z</time>
      </trkpt>
      <trkpt lat="45.90479" lon="4.67758">
        <ele>364</ele>
        <time>2018-06-03T09:43:08Z</time>
      </trkpt>
      <trkpt lat="45.90486" lon="4.67763">
        <ele>364</ele>
        <time>2018-06-03T09:43:09Z</time>
      </trkpt>
      <trkpt lat="45.90495" lon="4.67765">
        <ele>364</ele>
        <time>2018-06-03T09:43:10Z</time>
      </trkpt>
      <trkpt lat="45.90504" lon="4.67769">
        <ele>364</ele>
        <time>2018-06-03T09:43:11Z</time>
      </trkpt>
      <trkpt lat="45.90512" lon="4.67772">
        <ele>365</ele>
        <time>2018-06-03T09:43:12Z</time>
      </trkpt>
      <trkpt lat="45.90521" lon="4.67773">
        <ele>365</ele>
        <time>2018-06-03T09:43:13Z</time>
      </trkpt>
      <trkpt lat="45.90529" lon="4.67777">
        <ele>365</ele>
        <time>2018-06-03T09:43:14Z</time>
      </trkpt>
      <trkpt lat="45.90536" lon="4.6778">
        <ele>365</ele>
        <time>2018-06-03T09:43:15Z</time>
      </trkpt>
      <trkpt lat="45.90542" lon="4.67782">
        <ele>365</ele>
        <time>2018-06-03T09:43:16Z</time>
      </trkpt>
      <trkpt lat="45.90551" lon="4.67784">
        <ele>365</ele>
        <time>2018-06-03T09:43:17Z</time>
      </trkpt>
      <trkpt lat="45.90557" lon="4.67786">
        <ele>365</ele>
        <time>2018-06-03T09:43:18Z</time>
      </trkpt>
      <trkpt lat="45.90563" lon="4.67787">
        <ele>365</ele>
        <time>2018-06-03T09:43:19Z</time>
      </trkpt>
      <trkpt lat="45.90569" lon="4.67788">
        <ele>365</ele>
        <time>2018-06-03T09:43:20Z</time>
      </trkpt>
      <trkpt lat="45.90576" lon="4.67789">
        <ele>365</ele>
        <time>2018-06-03T09:43:21Z</time>
      </trkpt>
      <trkpt lat="45.90581" lon="4.6779">
        <ele>366</ele>
        <time>2018-06-03T09:43:22Z</time>
      </trkpt>
      <trkpt lat="45.90587" lon="4.67789">
        <ele>367</ele>
        <time>2018-06-03T09:43:23Z</time>
      </trkpt>
      <trkpt lat="45.90593" lon="4.67788">
        <ele>367</ele>
        <time>2018-06-03T09:43:24Z</time>
      </trkpt>
      <trkpt lat="45.90599" lon="4.67788">
        <ele>367</ele>
        <time>2018-06-03T09:43:25Z</time>
      </trkpt>
      <trkpt lat="45.90605" lon="4.67787">
        <ele>367</ele>
        <time>2018-06-03T09:43:26Z</time>
      </trkpt>
      <trkpt lat="45.9061" lon="4.67788">
        <ele>367</ele>
        <time>2018-06-03T09:43:27Z</time>
      </trkpt>
      <trkpt lat="45.90616" lon="4.67789">
        <ele>367</ele>
        <time>2018-06-03T09:43:28Z</time>
      </trkpt>
      <trkpt lat="45.90622" lon="4.6779">
        <ele>367</ele>
        <time>2018-06-03T09:43:29Z</time>
      </trkpt>
      <trkpt lat="45.90628" lon="4.6779">
        <ele>367</ele>
        <time>2018-06-03T09:43:30Z</time>
      </trkpt>
      <trkpt lat="45.90632" lon="4.67791">
        <ele>367</ele>
        <time>2018-06-03T09:43:31Z</time>
      </trkpt>
      <trkpt lat="45.90638" lon="4.67792">
        <ele>367</ele>
        <time>2018-06-03T09:43:32Z</time>
      </trkpt>
      <trkpt lat="45.90642" lon="4.67793">
        <ele>367</ele>
        <time>2018-06-03T09:43:33Z</time>
      </trkpt>
      <trkpt lat="45.90647" lon="4.67793">
        <ele>367</ele>
        <time>2018-06-03T09:43:34Z</time>
      </trkpt>
      <trkpt lat="45.90652" lon="4.67793">
        <ele>367</ele>
        <time>2018-06-03T09:43:35Z</time>
      </trkpt>
      <trkpt lat="45.90657" lon="4.67793">
        <ele>368</ele>
        <time>2018-06-03T09:43:36Z</time>
      </trkpt>
      <trkpt lat="45.90662" lon="4.67794">
        <ele>368</ele>
        <time>2018-06-03T09:43:37Z</time>
      </trkpt>
      <trkpt lat="45.90667" lon="4.67793">
        <ele>368</ele>
        <time>2018-06-03T09:43:38Z</time>
      </trkpt>
      <trkpt lat="45.90671" lon="4.67794">
        <ele>368</ele>
        <time>2018-06-03T09:43:39Z</time>
      </trkpt>
      <trkpt lat="45.90676" lon="4.67795">
        <ele>368</ele>
        <time>2018-06-03T09:43:40Z</time>
      </trkpt>
      <trkpt lat="45.90681" lon="4.67795">
        <ele>368</ele>
        <time>2018-06-03T09:43:41Z</time>
      </trkpt>
      <trkpt lat="45.90686" lon="4.67796">
        <ele>368</ele>
        <time>2018-06-03T09:43:42Z</time>
      </trkpt>
      <trkpt lat="45.9069" lon="4.67797">
        <ele>368</ele>
        <time>2018-06-03T09:43:43Z</time>
      </trkpt>
      <trkpt lat="45.90698" lon="4.67796">
        <ele>368</ele>
        <time>2018-06-03T09:43:45Z</time>
      </trkpt>
      <trkpt lat="45.90702" lon="4.67797">
        <ele>368</ele>
        <time>2018-06-03T09:43:46Z</time>
      </trkpt>
      <trkpt lat="45.90709" lon="4.678">
        <ele>368</ele>
        <time>2018-06-03T09:43:48Z</time>
      </trkpt>
      <trkpt lat="45.90713" lon="4.67802">
        <ele>368</ele>
        <time>2018-06-03T09:43:49Z</time>
      </trkpt>
      <trkpt lat="45.9072" lon="4.67806">
        <ele>368</ele>
        <time>2018-06-03T09:43:51Z</time>
      </trkpt>
      <trkpt lat="45.90724" lon="4.67806">
        <ele>368</ele>
        <time>2018-06-03T09:43:52Z</time>
      </trkpt>
      <trkpt lat="45.90732" lon="4.67809">
        <ele>369</ele>
        <time>2018-06-03T09:43:54Z</time>
      </trkpt>
      <trkpt lat="45.90736" lon="4.67811">
        <ele>369</ele>
        <time>2018-06-03T09:43:55Z</time>
      </trkpt>
      <trkpt lat="45.90744" lon="4.67815">
        <ele>369</ele>
        <time>2018-06-03T09:43:57Z</time>
      </trkpt>
      <trkpt lat="45.90748" lon="4.67817">
        <ele>369</ele>
        <time>2018-06-03T09:43:58Z</time>
      </trkpt>
      <trkpt lat="45.90756" lon="4.67819">
        <ele>369</ele>
        <time>2018-06-03T09:44:00Z</time>
      </trkpt>
      <trkpt lat="45.90761" lon="4.6782">
        <ele>369</ele>
        <time>2018-06-03T09:44:01Z</time>
      </trkpt>
      <trkpt lat="45.90766" lon="4.67822">
        <ele>369</ele>
        <time>2018-06-03T09:44:02Z</time>
      </trkpt>
      <trkpt lat="45.9077" lon="4.67824">
        <ele>369</ele>
        <time>2018-06-03T09:44:03Z</time>
      </trkpt>
      <trkpt lat="45.90778" lon="4.67829">
        <ele>369</ele>
        <time>2018-06-03T09:44:05Z</time>
      </trkpt>
      <trkpt lat="45.90782" lon="4.6783">
        <ele>368</ele>
        <time>2018-06-03T09:44:06Z</time>
      </trkpt>
      <trkpt lat="45.9079" lon="4.67833">
        <ele>368</ele>
        <time>2018-06-03T09:44:08Z</time>
      </trkpt>
      <trkpt lat="45.90794" lon="4.67835">
        <ele>371</ele>
        <time>2018-06-03T09:44:09Z</time>
      </trkpt>
      <trkpt lat="45.90803" lon="4.67837">
        <ele>371</ele>
        <time>2018-06-03T09:44:11Z</time>
      </trkpt>
      <trkpt lat="45.90807" lon="4.67839">
        <ele>371</ele>
        <time>2018-06-03T09:44:12Z</time>
      </trkpt>
      <trkpt lat="45.90816" lon="4.67842">
        <ele>370</ele>
        <time>2018-06-03T09:44:14Z</time>
      </trkpt>
      <trkpt lat="45.9082" lon="4.67845">
        <ele>370</ele>
        <time>2018-06-03T09:44:15Z</time>
      </trkpt>
      <trkpt lat="45.90825" lon="4.67847">
        <ele>370</ele>
        <time>2018-06-03T09:44:16Z</time>
      </trkpt>
      <trkpt lat="45.90831" lon="4.67848">
        <ele>370</ele>
        <time>2018-06-03T09:44:17Z</time>
      </trkpt>
      <trkpt lat="45.90836" lon="4.6785">
        <ele>370</ele>
        <time>2018-06-03T09:44:18Z</time>
      </trkpt>
      <trkpt lat="45.90842" lon="4.67852">
        <ele>370</ele>
        <time>2018-06-03T09:44:19Z</time>
      </trkpt>
      <trkpt lat="45.90847" lon="4.67853">
        <ele>370</ele>
        <time>2018-06-03T09:44:20Z</time>
      </trkpt>
      <trkpt lat="45.90851" lon="4.67855">
        <ele>370</ele>
        <time>2018-06-03T09:44:21Z</time>
      </trkpt>
      <trkpt lat="45.90856" lon="4.67858">
        <ele>370</ele>
        <time>2018-06-03T09:44:22Z</time>
      </trkpt>
      <trkpt lat="45.90862" lon="4.67858">
        <ele>370</ele>
        <time>2018-06-03T09:44:23Z</time>
      </trkpt>
      <trkpt lat="45.90867" lon="4.6786">
        <ele>370</ele>
        <time>2018-06-03T09:44:24Z</time>
      </trkpt>
      <trkpt lat="45.90872" lon="4.67862">
        <ele>370</ele>
        <time>2018-06-03T09:44:25Z</time>
      </trkpt>
      <trkpt lat="45.90877" lon="4.67864">
        <ele>370</ele>
        <time>2018-06-03T09:44:26Z</time>
      </trkpt>
      <trkpt lat="45.90882" lon="4.67868">
        <ele>370</ele>
        <time>2018-06-03T09:44:27Z</time>
      </trkpt>
      <trkpt lat="45.90887" lon="4.67871">
        <ele>370</ele>
        <time>2018-06-03T09:44:28Z</time>
      </trkpt>
      <trkpt lat="45.90892" lon="4.67871">
        <ele>370</ele>
        <time>2018-06-03T09:44:29Z</time>
      </trkpt>
      <trkpt lat="45.90898" lon="4.67873">
        <ele>370</ele>
        <time>2018-06-03T09:44:30Z</time>
      </trkpt>
      <trkpt lat="45.90903" lon="4.67875">
        <ele>370</ele>
        <time>2018-06-03T09:44:31Z</time>
      </trkpt>
      <trkpt lat="45.90908" lon="4.67878">
        <ele>370</ele>
        <time>2018-06-03T09:44:32Z</time>
      </trkpt>
      <trkpt lat="45.90914" lon="4.6788">
        <ele>370</ele>
        <time>2018-06-03T09:44:33Z</time>
      </trkpt>
      <trkpt lat="45.90919" lon="4.67882">
        <ele>369</ele>
        <time>2018-06-03T09:44:34Z</time>
      </trkpt>
      <trkpt lat="45.90923" lon="4.67884">
        <ele>369</ele>
        <time>2018-06-03T09:44:35Z</time>
      </trkpt>
      <trkpt lat="45.90928" lon="4.67887">
        <ele>370</ele>
        <time>2018-06-03T09:44:36Z</time>
      </trkpt>
      <trkpt lat="45.90933" lon="4.67889">
        <ele>370</ele>
        <time>2018-06-03T09:44:37Z</time>
      </trkpt>
      <trkpt lat="45.90938" lon="4.6789">
        <ele>370</ele>
        <time>2018-06-03T09:44:38Z</time>
      </trkpt>
      <trkpt lat="45.90942" lon="4.67892">
        <ele>370</ele>
        <time>2018-06-03T09:44:39Z</time>
      </trkpt>
      <trkpt lat="45.90946" lon="4.67895">
        <ele>370</ele>
        <time>2018-06-03T09:44:40Z</time>
      </trkpt>
      <trkpt lat="45.90951" lon="4.67897">
        <ele>370</ele>
        <time>2018-06-03T09:44:41Z</time>
      </trkpt>
      <trkpt lat="45.90956" lon="4.67899">
        <ele>370</ele>
        <time>2018-06-03T09:44:42Z</time>
      </trkpt>
      <trkpt lat="45.9096" lon="4.67901">
        <ele>370</ele>
        <time>2018-06-03T09:44:43Z</time>
      </trkpt>
      <trkpt lat="45.90966" lon="4.67901">
        <ele>370</ele>
        <time>2018-06-03T09:44:44Z</time>
      </trkpt>
      <trkpt lat="45.90971" lon="4.67903">
        <ele>370</ele>
        <time>2018-06-03T09:44:45Z</time>
      </trkpt>
      <trkpt lat="45.90975" lon="4.67904">
        <ele>370</ele>
        <time>2018-06-03T09:44:46Z</time>
      </trkpt>
      <trkpt lat="45.9098" lon="4.67908">
        <ele>370</ele>
        <time>2018-06-03T09:44:47Z</time>
      </trkpt>
      <trkpt lat="45.90985" lon="4.67913">
        <ele>371</ele>
        <time>2018-06-03T09:44:48Z</time>
      </trkpt>
      <trkpt lat="45.90989" lon="4.67916">
        <ele>371</ele>
        <time>2018-06-03T09:44:49Z</time>
      </trkpt>
      <trkpt lat="45.90994" lon="4.67915">
        <ele>371</ele>
        <time>2018-06-03T09:44:50Z</time>
      </trkpt>
      <trkpt lat="45.90999" lon="4.67916">
        <ele>372</ele>
        <time>2018-06-03T09:44:51Z</time>
      </trkpt>
      <trkpt lat="45.91006" lon="4.67919">
        <ele>373</ele>
        <time>2018-06-03T09:44:53Z</time>
      </trkpt>
      <trkpt lat="45.91009" lon="4.67921">
        <ele>373</ele>
        <time>2018-06-03T09:44:54Z</time>
      </trkpt>
      <trkpt lat="45.91012" lon="4.67923">
        <ele>373</ele>
        <time>2018-06-03T09:44:55Z</time>
      </trkpt>
      <trkpt lat="45.91017" lon="4.67926">
        <ele>373</ele>
        <time>2018-06-03T09:44:56Z</time>
      </trkpt>
      <trkpt lat="45.91025" lon="4.6793">
        <ele>374</ele>
        <time>2018-06-03T09:44:58Z</time>
      </trkpt>
      <trkpt lat="45.91029" lon="4.67932">
        <ele>374</ele>
        <time>2018-06-03T09:44:59Z</time>
      </trkpt>
      <trkpt lat="45.91034" lon="4.67934">
        <ele>374</ele>
        <time>2018-06-03T09:45:01Z</time>
      </trkpt>
      <trkpt lat="45.91038" lon="4.67935">
        <ele>374</ele>
        <time>2018-06-03T09:45:02Z</time>
      </trkpt>
      <trkpt lat="45.91045" lon="4.67938">
        <ele>374</ele>
        <time>2018-06-03T09:45:04Z</time>
      </trkpt>
      <trkpt lat="45.91047" lon="4.67938">
        <ele>374</ele>
        <time>2018-06-03T09:45:05Z</time>
      </trkpt>
      <trkpt lat="45.91055" lon="4.67942">
        <ele>375</ele>
        <time>2018-06-03T09:45:07Z</time>
      </trkpt>
      <trkpt lat="45.91057" lon="4.67943">
        <ele>375</ele>
        <time>2018-06-03T09:45:08Z</time>
      </trkpt>
      <trkpt lat="45.91062" lon="4.67944">
        <ele>375</ele>
        <time>2018-06-03T09:45:10Z</time>
      </trkpt>
      <trkpt lat="45.91069" lon="4.67946">
        <ele>375</ele>
        <time>2018-06-03T09:45:11Z</time>
      </trkpt>
      <trkpt lat="45.91078" lon="4.67949">
        <ele>375</ele>
        <time>2018-06-03T09:45:15Z</time>
      </trkpt>
      <trkpt lat="45.91081" lon="4.67949">
        <ele>375</ele>
        <time>2018-06-03T09:45:16Z</time>
      </trkpt>
      <trkpt lat="45.91089" lon="4.67951">
        <ele>376</ele>
        <time>2018-06-03T09:45:19Z</time>
      </trkpt>
      <trkpt lat="45.91092" lon="4.67952">
        <ele>376</ele>
        <time>2018-06-03T09:45:20Z</time>
      </trkpt>
      <trkpt lat="45.91101" lon="4.67954">
        <ele>376</ele>
        <time>2018-06-03T09:45:23Z</time>
      </trkpt>
      <trkpt lat="45.91103" lon="4.67955">
        <ele>376</ele>
        <time>2018-06-03T09:45:24Z</time>
      </trkpt>
      <trkpt lat="45.91109" lon="4.67957">
        <ele>377</ele>
        <time>2018-06-03T09:45:26Z</time>
      </trkpt>
      <trkpt lat="45.91112" lon="4.67958">
        <ele>377</ele>
        <time>2018-06-03T09:45:27Z</time>
      </trkpt>
      <trkpt lat="45.91118" lon="4.6796">
        <ele>377</ele>
        <time>2018-06-03T09:45:29Z</time>
      </trkpt>
      <trkpt lat="45.91121" lon="4.67961">
        <ele>377</ele>
        <time>2018-06-03T09:45:30Z</time>
      </trkpt>
      <trkpt lat="45.91128" lon="4.67964">
        <ele>377</ele>
        <time>2018-06-03T09:45:32Z</time>
      </trkpt>
      <trkpt lat="45.91131" lon="4.67965">
        <ele>377</ele>
        <time>2018-06-03T09:45:33Z</time>
      </trkpt>
      <trkpt lat="45.91137" lon="4.67967">
        <ele>377</ele>
        <time>2018-06-03T09:45:35Z</time>
      </trkpt>
      <trkpt lat="45.9114" lon="4.67968">
        <ele>377</ele>
        <time>2018-06-03T09:45:36Z</time>
      </trkpt>
      <trkpt lat="45.91146" lon="4.67971">
        <ele>378</ele>
        <time>2018-06-03T09:45:38Z</time>
      </trkpt>
      <trkpt lat="45.91149" lon="4.67973">
        <ele>378</ele>
        <time>2018-06-03T09:45:39Z</time>
      </trkpt>
      <trkpt lat="45.91155" lon="4.67976">
        <ele>378</ele>
        <time>2018-06-03T09:45:41Z</time>
      </trkpt>
      <trkpt lat="45.91158" lon="4.67978">
        <ele>378</ele>
        <time>2018-06-03T09:45:42Z</time>
      </trkpt>
      <trkpt lat="45.91164" lon="4.67981">
        <ele>379</ele>
        <time>2018-06-03T09:45:44Z</time>
      </trkpt>
      <trkpt lat="45.91167" lon="4.67983">
        <ele>379</ele>
        <time>2018-06-03T09:45:45Z</time>
      </trkpt>
      <trkpt lat="45.91172" lon="4.67987">
        <ele>380</ele>
        <time>2018-06-03T09:45:47Z</time>
      </trkpt>
      <trkpt lat="45.91175" lon="4.67989">
        <ele>380</ele>
        <time>2018-06-03T09:45:48Z</time>
      </trkpt>
      <trkpt lat="45.91181" lon="4.67993">
        <ele>380</ele>
        <time>2018-06-03T09:45:50Z</time>
      </trkpt>
      <trkpt lat="45.91184" lon="4.67995">
        <ele>380</ele>
        <time>2018-06-03T09:45:51Z</time>
      </trkpt>
      <trkpt lat="45.9119" lon="4.67998">
        <ele>380</ele>
        <time>2018-06-03T09:45:53Z</time>
      </trkpt>
      <trkpt lat="45.91193" lon="4.68">
        <ele>380</ele>
        <time>2018-06-03T09:45:54Z</time>
      </trkpt>
      <trkpt lat="45.91199" lon="4.68003">
        <ele>383</ele>
        <time>2018-06-03T09:45:56Z</time>
      </trkpt>
      <trkpt lat="45.91202" lon="4.68005">
        <ele>383</ele>
        <time>2018-06-03T09:45:57Z</time>
      </trkpt>
      <trkpt lat="45.91209" lon="4.68008">
        <ele>383</ele>
        <time>2018-06-03T09:45:59Z</time>
      </trkpt>
      <trkpt lat="45.91212" lon="4.68009">
        <ele>383</ele>
        <time>2018-06-03T09:46:00Z</time>
      </trkpt>
      <trkpt lat="45.91219" lon="4.68012">
        <ele>384</ele>
        <time>2018-06-03T09:46:02Z</time>
      </trkpt>
      <trkpt lat="45.91222" lon="4.68013">
        <ele>384</ele>
        <time>2018-06-03T09:46:03Z</time>
      </trkpt>
      <trkpt lat="45.91231" lon="4.68017">
        <ele>384</ele>
        <time>2018-06-03T09:46:04Z</time>
      </trkpt>
      <trkpt lat="45.91238" lon="4.68021">
        <ele>384</ele>
        <time>2018-06-03T09:46:06Z</time>
      </trkpt>
      <trkpt lat="45.9124" lon="4.68022">
        <ele>384</ele>
        <time>2018-06-03T09:46:07Z</time>
      </trkpt>
      <trkpt lat="45.91246" lon="4.68026">
        <ele>384</ele>
        <time>2018-06-03T09:46:09Z</time>
      </trkpt>
      <trkpt lat="45.91251" lon="4.68029">
        <ele>385</ele>
        <time>2018-06-03T09:46:10Z</time>
      </trkpt>
      <trkpt lat="45.9126" lon="4.68032">
        <ele>385</ele>
        <time>2018-06-03T09:46:13Z</time>
      </trkpt>
      <trkpt lat="45.91265" lon="4.68035">
        <ele>385</ele>
        <time>2018-06-03T09:46:14Z</time>
      </trkpt>
      <trkpt lat="45.91271" lon="4.68039">
        <ele>385</ele>
        <time>2018-06-03T09:46:16Z</time>
      </trkpt>
      <trkpt lat="45.91275" lon="4.68041">
        <ele>385</ele>
        <time>2018-06-03T09:46:17Z</time>
      </trkpt>
      <trkpt lat="45.91282" lon="4.68045">
        <ele>385</ele>
        <time>2018-06-03T09:46:19Z</time>
      </trkpt>
      <trkpt lat="45.91286" lon="4.68047">
        <ele>385</ele>
        <time>2018-06-03T09:46:20Z</time>
      </trkpt>
      <trkpt lat="45.91293" lon="4.6805">
        <ele>385</ele>
        <time>2018-06-03T09:46:22Z</time>
      </trkpt>
      <trkpt lat="45.91297" lon="4.68051">
        <ele>385</ele>
        <time>2018-06-03T09:46:23Z</time>
      </trkpt>
      <trkpt lat="45.91305" lon="4.68055">
        <ele>385</ele>
        <time>2018-06-03T09:46:25Z</time>
      </trkpt>
      <trkpt lat="45.91309" lon="4.68056">
        <ele>385</ele>
        <time>2018-06-03T09:46:26Z</time>
      </trkpt>
      <trkpt lat="45.91317" lon="4.6806">
        <ele>385</ele>
        <time>2018-06-03T09:46:28Z</time>
      </trkpt>
      <trkpt lat="45.91321" lon="4.68062">
        <ele>385</ele>
        <time>2018-06-03T09:46:29Z</time>
      </trkpt>
      <trkpt lat="45.91325" lon="4.68064">
        <ele>385</ele>
        <time>2018-06-03T09:46:30Z</time>
      </trkpt>
      <trkpt lat="45.9133" lon="4.68065">
        <ele>385</ele>
        <time>2018-06-03T09:46:31Z</time>
      </trkpt>
      <trkpt lat="45.91338" lon="4.6807">
        <ele>385</ele>
        <time>2018-06-03T09:46:33Z</time>
      </trkpt>
      <trkpt lat="45.91342" lon="4.68071">
        <ele>385</ele>
        <time>2018-06-03T09:46:34Z</time>
      </trkpt>
      <trkpt lat="45.91347" lon="4.68073">
        <ele>385</ele>
        <time>2018-06-03T09:46:35Z</time>
      </trkpt>
      <trkpt lat="45.91352" lon="4.68072">
        <ele>385</ele>
        <time>2018-06-03T09:46:36Z</time>
      </trkpt>
      <trkpt lat="45.9136" lon="4.68077">
        <ele>385</ele>
        <time>2018-06-03T09:46:38Z</time>
      </trkpt>
      <trkpt lat="45.91364" lon="4.68078">
        <ele>385</ele>
        <time>2018-06-03T09:46:39Z</time>
      </trkpt>
      <trkpt lat="45.91368" lon="4.68077">
        <ele>385</ele>
        <time>2018-06-03T09:46:40Z</time>
      </trkpt>
      <trkpt lat="45.91373" lon="4.68078">
        <ele>385</ele>
        <time>2018-06-03T09:46:41Z</time>
      </trkpt>
      <trkpt lat="45.91382" lon="4.68081">
        <ele>385</ele>
        <time>2018-06-03T09:46:43Z</time>
      </trkpt>
      <trkpt lat="45.91386" lon="4.68082">
        <ele>385</ele>
        <time>2018-06-03T09:46:44Z</time>
      </trkpt>
      <trkpt lat="45.91395" lon="4.68083">
        <ele>385</ele>
        <time>2018-06-03T09:46:46Z</time>
      </trkpt>
      <trkpt lat="45.914" lon="4.68083">
        <ele>385</ele>
        <time>2018-06-03T09:46:47Z</time>
      </trkpt>
      <trkpt lat="45.91409" lon="4.68081">
        <ele>386</ele>
        <time>2018-06-03T09:46:49Z</time>
      </trkpt>
      <trkpt lat="45.91414" lon="4.6808">
        <ele>386</ele>
        <time>2018-06-03T09:46:50Z</time>
      </trkpt>
      <trkpt lat="45.91418" lon="4.6808">
        <ele>386</ele>
        <time>2018-06-03T09:46:51Z</time>
      </trkpt>
      <trkpt lat="45.91423" lon="4.6808">
        <ele>385</ele>
        <time>2018-06-03T09:46:52Z</time>
      </trkpt>
      <trkpt lat="45.91428" lon="4.6808">
        <ele>385</ele>
        <time>2018-06-03T09:46:53Z</time>
      </trkpt>
      <trkpt lat="45.91433" lon="4.68081">
        <ele>385</ele>
        <time>2018-06-03T09:46:54Z</time>
      </trkpt>
      <trkpt lat="45.91437" lon="4.68082">
        <ele>385</ele>
        <time>2018-06-03T09:46:55Z</time>
      </trkpt>
      <trkpt lat="45.91443" lon="4.68084">
        <ele>385</ele>
        <time>2018-06-03T09:46:56Z</time>
      </trkpt>
      <trkpt lat="45.91448" lon="4.68085">
        <ele>384</ele>
        <time>2018-06-03T09:46:57Z</time>
      </trkpt>
      <trkpt lat="45.91454" lon="4.68086">
        <ele>384</ele>
        <time>2018-06-03T09:46:58Z</time>
      </trkpt>
      <trkpt lat="45.91459" lon="4.68087">
        <ele>384</ele>
        <time>2018-06-03T09:46:59Z</time>
      </trkpt>
      <trkpt lat="45.91465" lon="4.68091">
        <ele>384</ele>
        <time>2018-06-03T09:47:00Z</time>
      </trkpt>
      <trkpt lat="45.9147" lon="4.68094">
        <ele>384</ele>
        <time>2018-06-03T09:47:01Z</time>
      </trkpt>
      <trkpt lat="45.91475" lon="4.68099">
        <ele>383</ele>
        <time>2018-06-03T09:47:02Z</time>
      </trkpt>
      <trkpt lat="45.91481" lon="4.68103">
        <ele>383</ele>
        <time>2018-06-03T09:47:03Z</time>
      </trkpt>
      <trkpt lat="45.91487" lon="4.68107">
        <ele>383</ele>
        <time>2018-06-03T09:47:04Z</time>
      </trkpt>
      <trkpt lat="45.91493" lon="4.68111">
        <ele>383</ele>
        <time>2018-06-03T09:47:05Z</time>
      </trkpt>
      <trkpt lat="45.915" lon="4.68118">
        <ele>383</ele>
        <time>2018-06-03T09:47:06Z</time>
      </trkpt>
      <trkpt lat="45.91506" lon="4.68122">
        <ele>380</ele>
        <time>2018-06-03T09:47:07Z</time>
      </trkpt>
      <trkpt lat="45.91513" lon="4.68126">
        <ele>380</ele>
        <time>2018-06-03T09:47:08Z</time>
      </trkpt>
      <trkpt lat="45.9152" lon="4.68129">
        <ele>380</ele>
        <time>2018-06-03T09:47:09Z</time>
      </trkpt>
      <trkpt lat="45.91528" lon="4.68133">
        <ele>379</ele>
        <time>2018-06-03T09:47:10Z</time>
      </trkpt>
      <trkpt lat="45.91535" lon="4.68138">
        <ele>379</ele>
        <time>2018-06-03T09:47:11Z</time>
      </trkpt>
      <trkpt lat="45.91543" lon="4.68142">
        <ele>379</ele>
        <time>2018-06-03T09:47:12Z</time>
      </trkpt>
      <trkpt lat="45.91551" lon="4.68145">
        <ele>379</ele>
        <time>2018-06-03T09:47:13Z</time>
      </trkpt>
      <trkpt lat="45.91558" lon="4.68151">
        <ele>379</ele>
        <time>2018-06-03T09:47:14Z</time>
      </trkpt>
      <trkpt lat="45.91567" lon="4.68155">
        <ele>378</ele>
        <time>2018-06-03T09:47:15Z</time>
      </trkpt>
      <trkpt lat="45.91576" lon="4.6816">
        <ele>378</ele>
        <time>2018-06-03T09:47:16Z</time>
      </trkpt>
      <trkpt lat="45.91585" lon="4.68165">
        <ele>377</ele>
        <time>2018-06-03T09:47:17Z</time>
      </trkpt>
      <trkpt lat="45.91592" lon="4.6817">
        <ele>377</ele>
        <time>2018-06-03T09:47:18Z</time>
      </trkpt>
      <trkpt lat="45.91601" lon="4.68175">
        <ele>376</ele>
        <time>2018-06-03T09:47:19Z</time>
      </trkpt>
      <trkpt lat="45.91609" lon="4.68182">
        <ele>376</ele>
        <time>2018-06-03T09:47:20Z</time>
      </trkpt>
      <trkpt lat="45.91616" lon="4.68189">
        <ele>375</ele>
        <time>2018-06-03T09:47:21Z</time>
      </trkpt>
      <trkpt lat="45.91625" lon="4.68195">
        <ele>375</ele>
        <time>2018-06-03T09:47:22Z</time>
      </trkpt>
      <trkpt lat="45.91633" lon="4.68201">
        <ele>374</ele>
        <time>2018-06-03T09:47:23Z</time>
      </trkpt>
      <trkpt lat="45.91642" lon="4.68207">
        <ele>374</ele>
        <time>2018-06-03T09:47:24Z</time>
      </trkpt>
      <trkpt lat="45.9165" lon="4.68214">
        <ele>374</ele>
        <time>2018-06-03T09:47:25Z</time>
      </trkpt>
      <trkpt lat="45.91661" lon="4.68219">
        <ele>374</ele>
        <time>2018-06-03T09:47:26Z</time>
      </trkpt>
      <trkpt lat="45.9167" lon="4.68225">
        <ele>371</ele>
        <time>2018-06-03T09:47:27Z</time>
      </trkpt>
      <trkpt lat="45.91679" lon="4.68231">
        <ele>371</ele>
        <time>2018-06-03T09:47:28Z</time>
      </trkpt>
      <trkpt lat="45.91687" lon="4.68237">
        <ele>371</ele>
        <time>2018-06-03T09:47:29Z</time>
      </trkpt>
      <trkpt lat="45.91696" lon="4.68243">
        <ele>371</ele>
        <time>2018-06-03T09:47:30Z</time>
      </trkpt>
      <trkpt lat="45.91704" lon="4.68249">
        <ele>370</ele>
        <time>2018-06-03T09:47:31Z</time>
      </trkpt>
      <trkpt lat="45.91714" lon="4.68252">
        <ele>373</ele>
        <time>2018-06-03T09:47:32Z</time>
      </trkpt>
      <trkpt lat="45.91721" lon="4.68255">
        <ele>372</ele>
        <time>2018-06-03T09:47:33Z</time>
      </trkpt>
      <trkpt lat="45.9173" lon="4.68256">
        <ele>372</ele>
        <time>2018-06-03T09:47:34Z</time>
      </trkpt>
      <trkpt lat="45.91738" lon="4.68257">
        <ele>371</ele>
        <time>2018-06-03T09:47:35Z</time>
      </trkpt>
      <trkpt lat="45.91745" lon="4.68262">
        <ele>371</ele>
        <time>2018-06-03T09:47:36Z</time>
      </trkpt>
      <trkpt lat="45.91753" lon="4.68264">
        <ele>371</ele>
        <time>2018-06-03T09:47:37Z</time>
      </trkpt>
      <trkpt lat="45.91759" lon="4.68263">
        <ele>371</ele>
        <time>2018-06-03T09:47:38Z</time>
      </trkpt>
      <trkpt lat="45.91766" lon="4.68267">
        <ele>372</ele>
        <time>2018-06-03T09:47:39Z</time>
      </trkpt>
      <trkpt lat="45.91773" lon="4.68269">
        <ele>372</ele>
        <time>2018-06-03T09:47:40Z</time>
      </trkpt>
      <trkpt lat="45.91779" lon="4.6827">
        <ele>372</ele>
        <time>2018-06-03T09:47:41Z</time>
      </trkpt>
      <trkpt lat="45.91784" lon="4.68271">
        <ele>372</ele>
        <time>2018-06-03T09:47:42Z</time>
      </trkpt>
      <trkpt lat="45.91789" lon="4.68272">
        <ele>372</ele>
        <time>2018-06-03T09:47:43Z</time>
      </trkpt>
      <trkpt lat="45.91793" lon="4.68274">
        <ele>372</ele>
        <time>2018-06-03T09:47:44Z</time>
      </trkpt>
      <trkpt lat="45.91797" lon="4.68275">
        <ele>372</ele>
        <time>2018-06-03T09:47:45Z</time>
      </trkpt>
      <trkpt lat="45.91803" lon="4.68276">
        <ele>372</ele>
        <time>2018-06-03T09:47:46Z</time>
      </trkpt>
      <trkpt lat="45.91811" lon="4.68276">
        <ele>372</ele>
        <time>2018-06-03T09:47:47Z</time>
      </trkpt>
      <trkpt lat="45.91816" lon="4.68277">
        <ele>372</ele>
        <time>2018-06-03T09:47:48Z</time>
      </trkpt>
      <trkpt lat="45.9182" lon="4.68279">
        <ele>372</ele>
        <time>2018-06-03T09:47:49Z</time>
      </trkpt>
      <trkpt lat="45.91825" lon="4.6828">
        <ele>372</ele>
        <time>2018-06-03T09:47:50Z</time>
      </trkpt>
      <trkpt lat="45.91833" lon="4.68282">
        <ele>373</ele>
        <time>2018-06-03T09:47:52Z</time>
      </trkpt>
      <trkpt lat="45.91837" lon="4.68282">
        <ele>374</ele>
        <time>2018-06-03T09:47:53Z</time>
      </trkpt>
      <trkpt lat="45.91842" lon="4.68283">
        <ele>374</ele>
        <time>2018-06-03T09:47:54Z</time>
      </trkpt>
      <trkpt lat="45.91847" lon="4.68283">
        <ele>375</ele>
        <time>2018-06-03T09:47:55Z</time>
      </trkpt>
      <trkpt lat="45.91854" lon="4.68286">
        <ele>375</ele>
        <time>2018-06-03T09:47:57Z</time>
      </trkpt>
      <trkpt lat="45.91859" lon="4.68287">
        <ele>375</ele>
        <time>2018-06-03T09:47:58Z</time>
      </trkpt>
      <trkpt lat="45.91866" lon="4.68287">
        <ele>375</ele>
        <time>2018-06-03T09:48:00Z</time>
      </trkpt>
      <trkpt lat="45.9187" lon="4.68287">
        <ele>375</ele>
        <time>2018-06-03T09:48:01Z</time>
      </trkpt>
      <trkpt lat="45.91875" lon="4.68287">
        <ele>376</ele>
        <time>2018-06-03T09:48:02Z</time>
      </trkpt>
      <trkpt lat="45.91879" lon="4.68287">
        <ele>376</ele>
        <time>2018-06-03T09:48:03Z</time>
      </trkpt>
      <trkpt lat="45.91885" lon="4.68289">
        <ele>376</ele>
        <time>2018-06-03T09:48:04Z</time>
      </trkpt>
      <trkpt lat="45.91889" lon="4.68289">
        <ele>376</ele>
        <time>2018-06-03T09:48:05Z</time>
      </trkpt>
      <trkpt lat="45.91896" lon="4.68286">
        <ele>376</ele>
        <time>2018-06-03T09:48:07Z</time>
      </trkpt>
      <trkpt lat="45.91898" lon="4.68287">
        <ele>376</ele>
        <time>2018-06-03T09:48:08Z</time>
      </trkpt>
      <trkpt lat="45.91906" lon="4.68288">
        <ele>376</ele>
        <time>2018-06-03T09:48:10Z</time>
      </trkpt>
      <trkpt lat="45.91908" lon="4.68288">
        <ele>376</ele>
        <time>2018-06-03T09:48:11Z</time>
      </trkpt>
      <trkpt lat="45.91917" lon="4.68289">
        <ele>378</ele>
        <time>2018-06-03T09:48:13Z</time>
      </trkpt>
      <trkpt lat="45.91921" lon="4.6829">
        <ele>379</ele>
        <time>2018-06-03T09:48:14Z</time>
      </trkpt>
      <trkpt lat="45.91928" lon="4.68292">
        <ele>379</ele>
        <time>2018-06-03T09:48:16Z</time>
      </trkpt>
      <trkpt lat="45.91932" lon="4.68293">
        <ele>379</ele>
        <time>2018-06-03T09:48:17Z</time>
      </trkpt>
      <trkpt lat="45.91937" lon="4.68295">
        <ele>379</ele>
        <time>2018-06-03T09:48:19Z</time>
      </trkpt>
      <trkpt lat="45.91942" lon="4.68298">
        <ele>379</ele>
        <time>2018-06-03T09:48:20Z</time>
      </trkpt>
      <trkpt lat="45.91948" lon="4.683">
        <ele>379</ele>
        <time>2018-06-03T09:48:22Z</time>
      </trkpt>
      <trkpt lat="45.91952" lon="4.68301">
        <ele>379</ele>
        <time>2018-06-03T09:48:23Z</time>
      </trkpt>
      <trkpt lat="45.9196" lon="4.68304">
        <ele>379</ele>
        <time>2018-06-03T09:48:26Z</time>
      </trkpt>
      <trkpt lat="45.91962" lon="4.68304">
        <ele>379</ele>
        <time>2018-06-03T09:48:27Z</time>
      </trkpt>
      <trkpt lat="45.9197" lon="4.68306">
        <ele>380</ele>
        <time>2018-06-03T09:48:30Z</time>
      </trkpt>
      <trkpt lat="45.91972" lon="4.68307">
        <ele>380</ele>
        <time>2018-06-03T09:48:31Z</time>
      </trkpt>
      <trkpt lat="45.91981" lon="4.68308">
        <ele>380</ele>
        <time>2018-06-03T09:48:32Z</time>
      </trkpt>
      <trkpt lat="45.91984" lon="4.68309">
        <ele>380</ele>
        <time>2018-06-03T09:48:33Z</time>
      </trkpt>
      <trkpt lat="45.91988" lon="4.68309">
        <ele>380</ele>
        <time>2018-06-03T09:48:35Z</time>
      </trkpt>
      <trkpt lat="45.91995" lon="4.68311">
        <ele>381</ele>
        <time>2018-06-03T09:48:36Z</time>
      </trkpt>
      <trkpt lat="45.92002" lon="4.68314">
        <ele>380</ele>
        <time>2018-06-03T09:48:38Z</time>
      </trkpt>
      <trkpt lat="45.92006" lon="4.68314">
        <ele>380</ele>
        <time>2018-06-03T09:48:39Z</time>
      </trkpt>
      <trkpt lat="45.92014" lon="4.68311">
        <ele>380</ele>
        <time>2018-06-03T09:48:41Z</time>
      </trkpt>
      <trkpt lat="45.9202" lon="4.68311">
        <ele>380</ele>
        <time>2018-06-03T09:48:42Z</time>
      </trkpt>
      <trkpt lat="45.92024" lon="4.68312">
        <ele>380</ele>
        <time>2018-06-03T09:48:43Z</time>
      </trkpt>
      <trkpt lat="45.92029" lon="4.68312">
        <ele>380</ele>
        <time>2018-06-03T09:48:44Z</time>
      </trkpt>
      <trkpt lat="45.92034" lon="4.68312">
        <ele>379</ele>
        <time>2018-06-03T09:48:45Z</time>
      </trkpt>
      <trkpt lat="45.92039" lon="4.68314">
        <ele>379</ele>
        <time>2018-06-03T09:48:46Z</time>
      </trkpt>
      <trkpt lat="45.92044" lon="4.68313">
        <ele>379</ele>
        <time>2018-06-03T09:48:47Z</time>
      </trkpt>
      <trkpt lat="45.92049" lon="4.68314">
        <ele>379</ele>
        <time>2018-06-03T09:48:48Z</time>
      </trkpt>
      <trkpt lat="45.92054" lon="4.68314">
        <ele>379</ele>
        <time>2018-06-03T09:48:49Z</time>
      </trkpt>
      <trkpt lat="45.92059" lon="4.68315">
        <ele>379</ele>
        <time>2018-06-03T09:48:50Z</time>
      </trkpt>
      <trkpt lat="45.92063" lon="4.68318">
        <ele>380</ele>
        <time>2018-06-03T09:48:51Z</time>
      </trkpt>
      <trkpt lat="45.92069" lon="4.68319">
        <ele>380</ele>
        <time>2018-06-03T09:48:52Z</time>
      </trkpt>
      <trkpt lat="45.92074" lon="4.68321">
        <ele>380</ele>
        <time>2018-06-03T09:48:53Z</time>
      </trkpt>
      <trkpt lat="45.92079" lon="4.68322">
        <ele>380</ele>
        <time>2018-06-03T09:48:54Z</time>
      </trkpt>
      <trkpt lat="45.92084" lon="4.68324">
        <ele>380</ele>
        <time>2018-06-03T09:48:55Z</time>
      </trkpt>
      <trkpt lat="45.9209" lon="4.68325">
        <ele>380</ele>
        <time>2018-06-03T09:48:56Z</time>
      </trkpt>
      <trkpt lat="45.92095" lon="4.68327">
        <ele>380</ele>
        <time>2018-06-03T09:48:57Z</time>
      </trkpt>
      <trkpt lat="45.92101" lon="4.6833">
        <ele>379</ele>
        <time>2018-06-03T09:48:58Z</time>
      </trkpt>
      <trkpt lat="45.92106" lon="4.68333">
        <ele>379</ele>
        <time>2018-06-03T09:48:59Z</time>
      </trkpt>
      <trkpt lat="45.92111" lon="4.68337">
        <ele>383</ele>
        <time>2018-06-03T09:49:00Z</time>
      </trkpt>
      <trkpt lat="45.92116" lon="4.6834">
        <ele>383</ele>
        <time>2018-06-03T09:49:01Z</time>
      </trkpt>
      <trkpt lat="45.9212" lon="4.68343">
        <ele>383</ele>
        <time>2018-06-03T09:49:02Z</time>
      </trkpt>
      <trkpt lat="45.92126" lon="4.68346">
        <ele>383</ele>
        <time>2018-06-03T09:49:03Z</time>
      </trkpt>
      <trkpt lat="45.92131" lon="4.68348">
        <ele>383</ele>
        <time>2018-06-03T09:49:04Z</time>
      </trkpt>
      <trkpt lat="45.92136" lon="4.68352">
        <ele>383</ele>
        <time>2018-06-03T09:49:05Z</time>
      </trkpt>
      <trkpt lat="45.9214" lon="4.68353">
        <ele>383</ele>
        <time>2018-06-03T09:49:06Z</time>
      </trkpt>
      <trkpt lat="45.92145" lon="4.68358">
        <ele>383</ele>
        <time>2018-06-03T09:49:07Z</time>
      </trkpt>
      <trkpt lat="45.92149" lon="4.68363">
        <ele>383</ele>
        <time>2018-06-03T09:49:08Z</time>
      </trkpt>
      <trkpt lat="45.92156" lon="4.6837">
        <ele>383</ele>
        <time>2018-06-03T09:49:10Z</time>
      </trkpt>
      <trkpt lat="45.92158" lon="4.68371">
        <ele>383</ele>
        <time>2018-06-03T09:49:11Z</time>
      </trkpt>
      <trkpt lat="45.92162" lon="4.68379">
        <ele>384</ele>
        <time>2018-06-03T09:49:12Z</time>
      </trkpt>
      <trkpt lat="45.92165" lon="4.68382">
        <ele>384</ele>
        <time>2018-06-03T09:49:13Z</time>
      </trkpt>
      <trkpt lat="45.92169" lon="4.68386">
        <ele>383</ele>
        <time>2018-06-03T09:49:14Z</time>
      </trkpt>
      <trkpt lat="45.92172" lon="4.6839">
        <ele>383</ele>
        <time>2018-06-03T09:49:15Z</time>
      </trkpt>
      <trkpt lat="45.92177" lon="4.684">
        <ele>383</ele>
        <time>2018-06-03T09:49:17Z</time>
      </trkpt>
      <trkpt lat="45.9218" lon="4.68405">
        <ele>384</ele>
        <time>2018-06-03T09:49:18Z</time>
      </trkpt>
      <trkpt lat="45.92184" lon="4.6841">
        <ele>384</ele>
        <time>2018-06-03T09:49:19Z</time>
      </trkpt>
      <trkpt lat="45.92187" lon="4.68414">
        <ele>384</ele>
        <time>2018-06-03T09:49:20Z</time>
      </trkpt>
      <trkpt lat="45.92192" lon="4.68418">
        <ele>386</ele>
        <time>2018-06-03T09:49:21Z</time>
      </trkpt>
      <trkpt lat="45.92197" lon="4.6842">
        <ele>386</ele>
        <time>2018-06-03T09:49:22Z</time>
      </trkpt>
      <trkpt lat="45.92202" lon="4.68423">
        <ele>386</ele>
        <time>2018-06-03T09:49:23Z</time>
      </trkpt>
      <trkpt lat="45.92206" lon="4.68426">
        <ele>386</ele>
        <time>2018-06-03T09:49:24Z</time>
      </trkpt>
      <trkpt lat="45.9221" lon="4.68429">
        <ele>386</ele>
        <time>2018-06-03T09:49:25Z</time>
      </trkpt>
      <trkpt lat="45.92214" lon="4.68434">
        <ele>386</ele>
        <time>2018-06-03T09:49:26Z</time>
      </trkpt>
      <trkpt lat="45.9222" lon="4.68433">
        <ele>385</ele>
        <time>2018-06-03T09:49:27Z</time>
      </trkpt>
      <trkpt lat="45.92224" lon="4.68438">
        <ele>385</ele>
        <time>2018-06-03T09:49:28Z</time>
      </trkpt>
      <trkpt lat="45.92227" lon="4.68442">
        <ele>385</ele>
        <time>2018-06-03T09:49:29Z</time>
      </trkpt>
      <trkpt lat="45.92232" lon="4.68447">
        <ele>386</ele>
        <time>2018-06-03T09:49:30Z</time>
      </trkpt>
      <trkpt lat="45.92237" lon="4.68451">
        <ele>386</ele>
        <time>2018-06-03T09:49:31Z</time>
      </trkpt>
      <trkpt lat="45.92241" lon="4.68458">
        <ele>386</ele>
        <time>2018-06-03T09:49:32Z</time>
      </trkpt>
      <trkpt lat="45.92245" lon="4.68464">
        <ele>386</ele>
        <time>2018-06-03T09:49:33Z</time>
      </trkpt>
      <trkpt lat="45.9225" lon="4.68468">
        <ele>386</ele>
        <time>2018-06-03T09:49:34Z</time>
      </trkpt>
      <trkpt lat="45.92254" lon="4.68472">
        <ele>384</ele>
        <time>2018-06-03T09:49:35Z</time>
      </trkpt>
      <trkpt lat="45.92259" lon="4.68476">
        <ele>384</ele>
        <time>2018-06-03T09:49:36Z</time>
      </trkpt>
      <trkpt lat="45.92263" lon="4.6848">
        <ele>384</ele>
        <time>2018-06-03T09:49:37Z</time>
      </trkpt>
      <trkpt lat="45.92268" lon="4.68483">
        <ele>384</ele>
        <time>2018-06-03T09:49:38Z</time>
      </trkpt>
      <trkpt lat="45.92273" lon="4.68488">
        <ele>384</ele>
        <time>2018-06-03T09:49:39Z</time>
      </trkpt>
      <trkpt lat="45.92277" lon="4.68495">
        <ele>384</ele>
        <time>2018-06-03T09:49:40Z</time>
      </trkpt>
      <trkpt lat="45.92281" lon="4.68499">
        <ele>384</ele>
        <time>2018-06-03T09:49:41Z</time>
      </trkpt>
      <trkpt lat="45.92285" lon="4.68504">
        <ele>387</ele>
        <time>2018-06-03T09:49:42Z</time>
      </trkpt>
      <trkpt lat="45.9229" lon="4.68508">
        <ele>387</ele>
        <time>2018-06-03T09:49:43Z</time>
      </trkpt>
      <trkpt lat="45.92294" lon="4.68514">
        <ele>387</ele>
        <time>2018-06-03T09:49:44Z</time>
      </trkpt>
      <trkpt lat="45.92298" lon="4.68516">
        <ele>387</ele>
        <time>2018-06-03T09:49:45Z</time>
      </trkpt>
      <trkpt lat="45.92303" lon="4.6852">
        <ele>387</ele>
        <time>2018-06-03T09:49:46Z</time>
      </trkpt>
      <trkpt lat="45.92307" lon="4.68525">
        <ele>387</ele>
        <time>2018-06-03T09:49:47Z</time>
      </trkpt>
      <trkpt lat="45.92311" lon="4.68528">
        <ele>387</ele>
        <time>2018-06-03T09:49:48Z</time>
      </trkpt>
      <trkpt lat="45.92315" lon="4.68533">
        <ele>387</ele>
        <time>2018-06-03T09:49:49Z</time>
      </trkpt>
      <trkpt lat="45.9232" lon="4.68537">
        <ele>388</ele>
        <time>2018-06-03T09:49:50Z</time>
      </trkpt>
      <trkpt lat="45.92325" lon="4.6854">
        <ele>388</ele>
        <time>2018-06-03T09:49:51Z</time>
      </trkpt>
      <trkpt lat="45.9233" lon="4.68541">
        <ele>388</ele>
        <time>2018-06-03T09:49:52Z</time>
      </trkpt>
      <trkpt lat="45.92337" lon="4.68546">
        <ele>384</ele>
        <time>2018-06-03T09:49:54Z</time>
      </trkpt>
      <trkpt lat="45.92341" lon="4.6855">
        <ele>385</ele>
        <time>2018-06-03T09:49:55Z</time>
      </trkpt>
      <trkpt lat="45.92345" lon="4.68555">
        <ele>385</ele>
        <time>2018-06-03T09:49:56Z</time>
      </trkpt>
      <trkpt lat="45.9235" lon="4.68558">
        <ele>385</ele>
        <time>2018-06-03T09:49:57Z</time>
      </trkpt>
      <trkpt lat="45.92355" lon="4.68562">
        <ele>385</ele>
        <time>2018-06-03T09:49:58Z</time>
      </trkpt>
      <trkpt lat="45.9236" lon="4.68565">
        <ele>385</ele>
        <time>2018-06-03T09:49:59Z</time>
      </trkpt>
      <trkpt lat="45.92366" lon="4.68569">
        <ele>385</ele>
        <time>2018-06-03T09:50:00Z</time>
      </trkpt>
      <trkpt lat="45.92371" lon="4.6857">
        <ele>384</ele>
        <time>2018-06-03T09:50:01Z</time>
      </trkpt>
      <trkpt lat="45.92376" lon="4.68573">
        <ele>384</ele>
        <time>2018-06-03T09:50:02Z</time>
      </trkpt>
      <trkpt lat="45.92383" lon="4.68577">
        <ele>383</ele>
        <time>2018-06-03T09:50:03Z</time>
      </trkpt>
      <trkpt lat="45.92389" lon="4.68582">
        <ele>383</ele>
        <time>2018-06-03T09:50:04Z</time>
      </trkpt>
      <trkpt lat="45.92395" lon="4.68586">
        <ele>386</ele>
        <time>2018-06-03T09:50:05Z</time>
      </trkpt>
      <trkpt lat="45.924" lon="4.68588">
        <ele>385</ele>
        <time>2018-06-03T09:50:06Z</time>
      </trkpt>
      <trkpt lat="45.92406" lon="4.6859">
        <ele>385</ele>
        <time>2018-06-03T09:50:07Z</time>
      </trkpt>
      <trkpt lat="45.9241" lon="4.68593">
        <ele>384</ele>
        <time>2018-06-03T09:50:08Z</time>
      </trkpt>
      <trkpt lat="45.92417" lon="4.68594">
        <ele>381</ele>
        <time>2018-06-03T09:50:09Z</time>
      </trkpt>
      <trkpt lat="45.92423" lon="4.68598">
        <ele>381</ele>
        <time>2018-06-03T09:50:10Z</time>
      </trkpt>
      <trkpt lat="45.9243" lon="4.68603">
        <ele>381</ele>
        <time>2018-06-03T09:50:11Z</time>
      </trkpt>
      <trkpt lat="45.92436" lon="4.68607">
        <ele>381</ele>
        <time>2018-06-03T09:50:12Z</time>
      </trkpt>
      <trkpt lat="45.92441" lon="4.6861">
        <ele>380</ele>
        <time>2018-06-03T09:50:13Z</time>
      </trkpt>
      <trkpt lat="45.92448" lon="4.68614">
        <ele>380</ele>
        <time>2018-06-03T09:50:14Z</time>
      </trkpt>
      <trkpt lat="45.92454" lon="4.68618">
        <ele>380</ele>
        <time>2018-06-03T09:50:15Z</time>
      </trkpt>
      <trkpt lat="45.9246" lon="4.68621">
        <ele>380</ele>
        <time>2018-06-03T09:50:16Z</time>
      </trkpt>
      <trkpt lat="45.92467" lon="4.68623">
        <ele>380</ele>
        <time>2018-06-03T09:50:17Z</time>
      </trkpt>
      <trkpt lat="45.92476" lon="4.68624">
        <ele>379</ele>
        <time>2018-06-03T09:50:18Z</time>
      </trkpt>
      <trkpt lat="45.92482" lon="4.68626">
        <ele>379</ele>
        <time>2018-06-03T09:50:19Z</time>
      </trkpt>
      <trkpt lat="45.92489" lon="4.68628">
        <ele>379</ele>
        <time>2018-06-03T09:50:20Z</time>
      </trkpt>
      <trkpt lat="45.92496" lon="4.68629">
        <ele>379</ele>
        <time>2018-06-03T09:50:21Z</time>
      </trkpt>
      <trkpt lat="45.92503" lon="4.68632">
        <ele>375</ele>
        <time>2018-06-03T09:50:22Z</time>
      </trkpt>
      <trkpt lat="45.92509" lon="4.68634">
        <ele>375</ele>
        <time>2018-06-03T09:50:23Z</time>
      </trkpt>
      <trkpt lat="45.92516" lon="4.68635">
        <ele>375</ele>
        <time>2018-06-03T09:50:24Z</time>
      </trkpt>
      <trkpt lat="45.92523" lon="4.68637">
        <ele>375</ele>
        <time>2018-06-03T09:50:25Z</time>
      </trkpt>
      <trkpt lat="45.92531" lon="4.68639">
        <ele>375</ele>
        <time>2018-06-03T09:50:26Z</time>
      </trkpt>
      <trkpt lat="45.92535" lon="4.68644">
        <ele>375</ele>
        <time>2018-06-03T09:50:27Z</time>
      </trkpt>
      <trkpt lat="45.92542" lon="4.68647">
        <ele>374</ele>
        <time>2018-06-03T09:50:28Z</time>
      </trkpt>
      <trkpt lat="45.92549" lon="4.68649">
        <ele>374</ele>
        <time>2018-06-03T09:50:29Z</time>
      </trkpt>
      <trkpt lat="45.92555" lon="4.68648">
        <ele>374</ele>
        <time>2018-06-03T09:50:30Z</time>
      </trkpt>
      <trkpt lat="45.92561" lon="4.68646">
        <ele>374</ele>
        <time>2018-06-03T09:50:31Z</time>
      </trkpt>
      <trkpt lat="45.92565" lon="4.68646">
        <ele>374</ele>
        <time>2018-06-03T09:50:32Z</time>
      </trkpt>
      <trkpt lat="45.92574" lon="4.68644">
        <ele>374</ele>
        <time>2018-06-03T09:50:34Z</time>
      </trkpt>
      <trkpt lat="45.92577" lon="4.6864">
        <ele>373</ele>
        <time>2018-06-03T09:50:35Z</time>
      </trkpt>
      <trkpt lat="45.92582" lon="4.68638">
        <ele>373</ele>
        <time>2018-06-03T09:50:36Z</time>
      </trkpt>
      <trkpt lat="45.92587" lon="4.68634">
        <ele>370</ele>
        <time>2018-06-03T09:50:37Z</time>
      </trkpt>
      <trkpt lat="45.92594" lon="4.68631">
        <ele>370</ele>
        <time>2018-06-03T09:50:39Z</time>
      </trkpt>
      <trkpt lat="45.92598" lon="4.68629">
        <ele>369</ele>
        <time>2018-06-03T09:50:40Z</time>
      </trkpt>
      <trkpt lat="45.92605" lon="4.6863">
        <ele>369</ele>
        <time>2018-06-03T09:50:44Z</time>
      </trkpt>
      <trkpt lat="45.92611" lon="4.68628">
        <ele>369</ele>
        <time>2018-06-03T09:50:45Z</time>
      </trkpt>
      <trkpt lat="45.92617" lon="4.68628">
        <ele>369</ele>
        <time>2018-06-03T09:50:47Z</time>
      </trkpt>
      <trkpt lat="45.92621" lon="4.68625">
        <ele>368</ele>
        <time>2018-06-03T09:50:48Z</time>
      </trkpt>
      <trkpt lat="45.92627" lon="4.68623">
        <ele>368</ele>
        <time>2018-06-03T09:50:49Z</time>
      </trkpt>
      <trkpt lat="45.92631" lon="4.68621">
        <ele>368</ele>
        <time>2018-06-03T09:50:50Z</time>
      </trkpt>
      <trkpt lat="45.92636" lon="4.6862">
        <ele>368</ele>
        <time>2018-06-03T09:50:51Z</time>
      </trkpt>
      <trkpt lat="45.9264" lon="4.68618">
        <ele>368</ele>
        <time>2018-06-03T09:50:52Z</time>
      </trkpt>
      <trkpt lat="45.92646" lon="4.68615">
        <ele>367</ele>
        <time>2018-06-03T09:50:53Z</time>
      </trkpt>
      <trkpt lat="45.9265" lon="4.68611">
        <ele>367</ele>
        <time>2018-06-03T09:50:54Z</time>
      </trkpt>
      <trkpt lat="45.92656" lon="4.68609">
        <ele>367</ele>
        <time>2018-06-03T09:50:55Z</time>
      </trkpt>
      <trkpt lat="45.92662" lon="4.68609">
        <ele>367</ele>
        <time>2018-06-03T09:50:56Z</time>
      </trkpt>
      <trkpt lat="45.92668" lon="4.68606">
        <ele>364</ele>
        <time>2018-06-03T09:50:57Z</time>
      </trkpt>
      <trkpt lat="45.92673" lon="4.68603">
        <ele>364</ele>
        <time>2018-06-03T09:50:58Z</time>
      </trkpt>
      <trkpt lat="45.92678" lon="4.686">
        <ele>364</ele>
        <time>2018-06-03T09:50:59Z</time>
      </trkpt>
      <trkpt lat="45.92684" lon="4.68597">
        <ele>364</ele>
        <time>2018-06-03T09:51:00Z</time>
      </trkpt>
      <trkpt lat="45.92689" lon="4.68594">
        <ele>364</ele>
        <time>2018-06-03T09:51:01Z</time>
      </trkpt>
      <trkpt lat="45.92694" lon="4.68592">
        <ele>364</ele>
        <time>2018-06-03T09:51:02Z</time>
      </trkpt>
      <trkpt lat="45.92698" lon="4.68591">
        <ele>364</ele>
        <time>2018-06-03T09:51:03Z</time>
      </trkpt>
      <trkpt lat="45.92703" lon="4.6859">
        <ele>364</ele>
        <time>2018-06-03T09:51:04Z</time>
      </trkpt>
      <trkpt lat="45.92708" lon="4.68586">
        <ele>364</ele>
        <time>2018-06-03T09:51:05Z</time>
      </trkpt>
      <trkpt lat="45.92714" lon="4.68583">
        <ele>366</ele>
        <time>2018-06-03T09:51:06Z</time>
      </trkpt>
      <trkpt lat="45.9272" lon="4.6858">
        <ele>366</ele>
        <time>2018-06-03T09:51:07Z</time>
      </trkpt>
      <trkpt lat="45.92726" lon="4.68578">
        <ele>366</ele>
        <time>2018-06-03T09:51:08Z</time>
      </trkpt>
      <trkpt lat="45.92732" lon="4.68576">
        <ele>366</ele>
        <time>2018-06-03T09:51:09Z</time>
      </trkpt>
      <trkpt lat="45.92738" lon="4.68575">
        <ele>366</ele>
        <time>2018-06-03T09:51:10Z</time>
      </trkpt>
      <trkpt lat="45.92744" lon="4.68572">
        <ele>366</ele>
        <time>2018-06-03T09:51:11Z</time>
      </trkpt>
      <trkpt lat="45.92751" lon="4.68571">
        <ele>366</ele>
        <time>2018-06-03T09:51:12Z</time>
      </trkpt>
      <trkpt lat="45.92757" lon="4.68571">
        <ele>366</ele>
        <time>2018-06-03T09:51:13Z</time>
      </trkpt>
      <trkpt lat="45.92763" lon="4.68571">
        <ele>365</ele>
        <time>2018-06-03T09:51:14Z</time>
      </trkpt>
      <trkpt lat="45.9277" lon="4.68571">
        <ele>365</ele>
        <time>2018-06-03T09:51:15Z</time>
      </trkpt>
      <trkpt lat="45.92775" lon="4.68576">
        <ele>365</ele>
        <time>2018-06-03T09:51:16Z</time>
      </trkpt>
      <trkpt lat="45.92782" lon="4.68576">
        <ele>365</ele>
        <time>2018-06-03T09:51:17Z</time>
      </trkpt>
      <trkpt lat="45.9279" lon="4.68575">
        <ele>364</ele>
        <time>2018-06-03T09:51:18Z</time>
      </trkpt>
      <trkpt lat="45.92797" lon="4.68577">
        <ele>364</ele>
        <time>2018-06-03T09:51:19Z</time>
      </trkpt>
      <trkpt lat="45.92804" lon="4.68571">
        <ele>364</ele>
        <time>2018-06-03T09:51:20Z</time>
      </trkpt>
      <trkpt lat="45.92812" lon="4.68572">
        <ele>363</ele>
        <time>2018-06-03T09:51:21Z</time>
      </trkpt>
      <trkpt lat="45.92819" lon="4.68573">
        <ele>363</ele>
        <time>2018-06-03T09:51:22Z</time>
      </trkpt>
      <trkpt lat="45.92826" lon="4.68574">
        <ele>362</ele>
        <time>2018-06-03T09:51:23Z</time>
      </trkpt>
      <trkpt lat="45.92833" lon="4.68575">
        <ele>362</ele>
        <time>2018-06-03T09:51:24Z</time>
      </trkpt>
      <trkpt lat="45.92839" lon="4.68575">
        <ele>361</ele>
        <time>2018-06-03T09:51:25Z</time>
      </trkpt>
      <trkpt lat="45.92846" lon="4.68575">
        <ele>361</ele>
        <time>2018-06-03T09:51:26Z</time>
      </trkpt>
      <trkpt lat="45.92854" lon="4.68577">
        <ele>361</ele>
        <time>2018-06-03T09:51:27Z</time>
      </trkpt>
      <trkpt lat="45.92861" lon="4.68578">
        <ele>360</ele>
        <time>2018-06-03T09:51:28Z</time>
      </trkpt>
      <trkpt lat="45.92869" lon="4.68579">
        <ele>360</ele>
        <time>2018-06-03T09:51:29Z</time>
      </trkpt>
      <trkpt lat="45.92877" lon="4.6858">
        <ele>360</ele>
        <time>2018-06-03T09:51:30Z</time>
      </trkpt>
      <trkpt lat="45.92884" lon="4.68581">
        <ele>360</ele>
        <time>2018-06-03T09:51:31Z</time>
      </trkpt>
      <trkpt lat="45.92892" lon="4.68584">
        <ele>358</ele>
        <time>2018-06-03T09:51:32Z</time>
      </trkpt>
      <trkpt lat="45.92899" lon="4.68586">
        <ele>359</ele>
        <time>2018-06-03T09:51:33Z</time>
      </trkpt>
      <trkpt lat="45.92908" lon="4.68588">
        <ele>359</ele>
        <time>2018-06-03T09:51:34Z</time>
      </trkpt>
      <trkpt lat="45.92915" lon="4.6859">
        <ele>359</ele>
        <time>2018-06-03T09:51:35Z</time>
      </trkpt>
      <trkpt lat="45.92923" lon="4.68592">
        <ele>359</ele>
        <time>2018-06-03T09:51:36Z</time>
      </trkpt>
      <trkpt lat="45.92931" lon="4.68594">
        <ele>359</ele>
        <time>2018-06-03T09:51:37Z</time>
      </trkpt>
      <trkpt lat="45.92939" lon="4.68596">
        <ele>358</ele>
        <time>2018-06-03T09:51:38Z</time>
      </trkpt>
      <trkpt lat="45.92947" lon="4.68599">
        <ele>358</ele>
        <time>2018-06-03T09:51:39Z</time>
      </trkpt>
      <trkpt lat="45.92954" lon="4.686">
        <ele>358</ele>
        <time>2018-06-03T09:51:40Z</time>
      </trkpt>
      <trkpt lat="45.92962" lon="4.68602">
        <ele>358</ele>
        <time>2018-06-03T09:51:41Z</time>
      </trkpt>
      <trkpt lat="45.9297" lon="4.68604">
        <ele>358</ele>
        <time>2018-06-03T09:51:42Z</time>
      </trkpt>
      <trkpt lat="45.92978" lon="4.68605">
        <ele>358</ele>
        <time>2018-06-03T09:51:43Z</time>
      </trkpt>
      <trkpt lat="45.92986" lon="4.68607">
        <ele>358</ele>
        <time>2018-06-03T09:51:44Z</time>
      </trkpt>
      <trkpt lat="45.92993" lon="4.68607">
        <ele>358</ele>
        <time>2018-06-03T09:51:45Z</time>
      </trkpt>
      <trkpt lat="45.93001" lon="4.68608">
        <ele>356</ele>
        <time>2018-06-03T09:51:46Z</time>
      </trkpt>
      <trkpt lat="45.93009" lon="4.68611">
        <ele>356</ele>
        <time>2018-06-03T09:51:47Z</time>
      </trkpt>
      <trkpt lat="45.93016" lon="4.68612">
        <ele>356</ele>
        <time>2018-06-03T09:51:48Z</time>
      </trkpt>
      <trkpt lat="45.93025" lon="4.68615">
        <ele>355</ele>
        <time>2018-06-03T09:51:49Z</time>
      </trkpt>
      <trkpt lat="45.93033" lon="4.68618">
        <ele>355</ele>
        <time>2018-06-03T09:51:50Z</time>
      </trkpt>
      <trkpt lat="45.93041" lon="4.6862">
        <ele>355</ele>
        <time>2018-06-03T09:51:51Z</time>
      </trkpt>
      <trkpt lat="45.93048" lon="4.68622">
        <ele>355</ele>
        <time>2018-06-03T09:51:52Z</time>
      </trkpt>
      <trkpt lat="45.93056" lon="4.68624">
        <ele>354</ele>
        <time>2018-06-03T09:51:53Z</time>
      </trkpt>
      <trkpt lat="45.93063" lon="4.68628">
        <ele>354</ele>
        <time>2018-06-03T09:51:54Z</time>
      </trkpt>
      <trkpt lat="45.9307" lon="4.6863">
        <ele>354</ele>
        <time>2018-06-03T09:51:55Z</time>
      </trkpt>
      <trkpt lat="45.9308" lon="4.68633">
        <ele>354</ele>
        <time>2018-06-03T09:51:56Z</time>
      </trkpt>
      <trkpt lat="45.93088" lon="4.68635">
        <ele>349</ele>
        <time>2018-06-03T09:51:57Z</time>
      </trkpt>
      <trkpt lat="45.93097" lon="4.68637">
        <ele>349</ele>
        <time>2018-06-03T09:51:58Z</time>
      </trkpt>
      <trkpt lat="45.93107" lon="4.68637">
        <ele>349</ele>
        <time>2018-06-03T09:51:59Z</time>
      </trkpt>
      <trkpt lat="45.93117" lon="4.68639">
        <ele>348</ele>
        <time>2018-06-03T09:52:00Z</time>
      </trkpt>
      <trkpt lat="45.93126" lon="4.68641">
        <ele>348</ele>
        <time>2018-06-03T09:52:01Z</time>
      </trkpt>
      <trkpt lat="45.93135" lon="4.68644">
        <ele>347</ele>
        <time>2018-06-03T09:52:02Z</time>
      </trkpt>
      <trkpt lat="45.93145" lon="4.68646">
        <ele>347</ele>
        <time>2018-06-03T09:52:03Z</time>
      </trkpt>
      <trkpt lat="45.93154" lon="4.6865">
        <ele>347</ele>
        <time>2018-06-03T09:52:04Z</time>
      </trkpt>
      <trkpt lat="45.93164" lon="4.68653">
        <ele>347</ele>
        <time>2018-06-03T09:52:05Z</time>
      </trkpt>
      <trkpt lat="45.93174" lon="4.68654">
        <ele>345</ele>
        <time>2018-06-03T09:52:06Z</time>
      </trkpt>
      <trkpt lat="45.93184" lon="4.68653">
        <ele>345</ele>
        <time>2018-06-03T09:52:07Z</time>
      </trkpt>
      <trkpt lat="45.93194" lon="4.68656">
        <ele>345</ele>
        <time>2018-06-03T09:52:08Z</time>
      </trkpt>
      <trkpt lat="45.93203" lon="4.68659">
        <ele>344</ele>
        <time>2018-06-03T09:52:09Z</time>
      </trkpt>
      <trkpt lat="45.93214" lon="4.68661">
        <ele>344</ele>
        <time>2018-06-03T09:52:10Z</time>
      </trkpt>
      <trkpt lat="45.93223" lon="4.68663">
        <ele>344</ele>
        <time>2018-06-03T09:52:11Z</time>
      </trkpt>
      <trkpt lat="45.93232" lon="4.68667">
        <ele>344</ele>
        <time>2018-06-03T09:52:12Z</time>
      </trkpt>
      <trkpt lat="45.93242" lon="4.68666">
        <ele>344</ele>
        <time>2018-06-03T09:52:13Z</time>
      </trkpt>
      <trkpt lat="45.93252" lon="4.68664">
        <ele>344</ele>
        <time>2018-06-03T09:52:14Z</time>
      </trkpt>
      <trkpt lat="45.9326" lon="4.68666">
        <ele>344</ele>
        <time>2018-06-03T09:52:15Z</time>
      </trkpt>
      <trkpt lat="45.93269" lon="4.68668">
        <ele>344</ele>
        <time>2018-06-03T09:52:16Z</time>
      </trkpt>
      <trkpt lat="45.93277" lon="4.68672">
        <ele>344</ele>
        <time>2018-06-03T09:52:17Z</time>
      </trkpt>
      <trkpt lat="45.93284" lon="4.68675">
        <ele>344</ele>
        <time>2018-06-03T09:52:18Z</time>
      </trkpt>
      <trkpt lat="45.93292" lon="4.68678">
        <ele>344</ele>
        <time>2018-06-03T09:52:19Z</time>
      </trkpt>
      <trkpt lat="45.93298" lon="4.68681">
        <ele>344</ele>
        <time>2018-06-03T09:52:20Z</time>
      </trkpt>
      <trkpt lat="45.93306" lon="4.68683">
        <ele>344</ele>
        <time>2018-06-03T09:52:21Z</time>
      </trkpt>
      <trkpt lat="45.93314" lon="4.68684">
        <ele>344</ele>
        <time>2018-06-03T09:52:22Z</time>
      </trkpt>
      <trkpt lat="45.93321" lon="4.68684">
        <ele>344</ele>
        <time>2018-06-03T09:52:23Z</time>
      </trkpt>
      <trkpt lat="45.93329" lon="4.68686">
        <ele>344</ele>
        <time>2018-06-03T09:52:24Z</time>
      </trkpt>
      <trkpt lat="45.93336" lon="4.68689">
        <ele>344</ele>
        <time>2018-06-03T09:52:25Z</time>
      </trkpt>
      <trkpt lat="45.93344" lon="4.68689">
        <ele>344</ele>
        <time>2018-06-03T09:52:26Z</time>
      </trkpt>
      <trkpt lat="45.93351" lon="4.68691">
        <ele>344</ele>
        <time>2018-06-03T09:52:27Z</time>
      </trkpt>
      <trkpt lat="45.93357" lon="4.68689">
        <ele>344</ele>
        <time>2018-06-03T09:52:28Z</time>
      </trkpt>
      <trkpt lat="45.93363" lon="4.68691">
        <ele>344</ele>
        <time>2018-06-03T09:52:29Z</time>
      </trkpt>
      <trkpt lat="45.9337" lon="4.68692">
        <ele>344</ele>
        <time>2018-06-03T09:52:30Z</time>
      </trkpt>
      <trkpt lat="45.93376" lon="4.68694">
        <ele>344</ele>
        <time>2018-06-03T09:52:31Z</time>
      </trkpt>
      <trkpt lat="45.93382" lon="4.68696">
        <ele>344</ele>
        <time>2018-06-03T09:52:32Z</time>
      </trkpt>
      <trkpt lat="45.9339" lon="4.68697">
        <ele>344</ele>
        <time>2018-06-03T09:52:33Z</time>
      </trkpt>
      <trkpt lat="45.93398" lon="4.68699">
        <ele>344</ele>
        <time>2018-06-03T09:52:34Z</time>
      </trkpt>
      <trkpt lat="45.93406" lon="4.687">
        <ele>344</ele>
        <time>2018-06-03T09:52:35Z</time>
      </trkpt>
      <trkpt lat="45.93413" lon="4.68702">
        <ele>344</ele>
        <time>2018-06-03T09:52:36Z</time>
      </trkpt>
      <trkpt lat="45.9342" lon="4.68704">
        <ele>343</ele>
        <time>2018-06-03T09:52:37Z</time>
      </trkpt>
      <trkpt lat="45.93427" lon="4.68706">
        <ele>343</ele>
        <time>2018-06-03T09:52:38Z</time>
      </trkpt>
      <trkpt lat="45.93434" lon="4.68705">
        <ele>343</ele>
        <time>2018-06-03T09:52:39Z</time>
      </trkpt>
      <trkpt lat="45.9344" lon="4.68707">
        <ele>343</ele>
        <time>2018-06-03T09:52:40Z</time>
      </trkpt>
      <trkpt lat="45.93447" lon="4.68708">
        <ele>343</ele>
        <time>2018-06-03T09:52:41Z</time>
      </trkpt>
      <trkpt lat="45.93452" lon="4.68708">
        <ele>343</ele>
        <time>2018-06-03T09:52:42Z</time>
      </trkpt>
      <trkpt lat="45.93457" lon="4.68712">
        <ele>342</ele>
        <time>2018-06-03T09:52:43Z</time>
      </trkpt>
      <trkpt lat="45.93462" lon="4.68715">
        <ele>342</ele>
        <time>2018-06-03T09:52:44Z</time>
      </trkpt>
      <trkpt lat="45.93469" lon="4.68717">
        <ele>342</ele>
        <time>2018-06-03T09:52:45Z</time>
      </trkpt>
      <trkpt lat="45.93475" lon="4.68718">
        <ele>342</ele>
        <time>2018-06-03T09:52:46Z</time>
      </trkpt>
      <trkpt lat="45.93481" lon="4.6872">
        <ele>342</ele>
        <time>2018-06-03T09:52:47Z</time>
      </trkpt>
      <trkpt lat="45.93487" lon="4.68722">
        <ele>342</ele>
        <time>2018-06-03T09:52:48Z</time>
      </trkpt>
      <trkpt lat="45.93494" lon="4.68723">
        <ele>342</ele>
        <time>2018-06-03T09:52:49Z</time>
      </trkpt>
      <trkpt lat="45.935" lon="4.68724">
        <ele>342</ele>
        <time>2018-06-03T09:52:50Z</time>
      </trkpt>
      <trkpt lat="45.93506" lon="4.68725">
        <ele>342</ele>
        <time>2018-06-03T09:52:51Z</time>
      </trkpt>
      <trkpt lat="45.93513" lon="4.68722">
        <ele>342</ele>
        <time>2018-06-03T09:52:52Z</time>
      </trkpt>
      <trkpt lat="45.93519" lon="4.68724">
        <ele>342</ele>
        <time>2018-06-03T09:52:53Z</time>
      </trkpt>
      <trkpt lat="45.93526" lon="4.68725">
        <ele>342</ele>
        <time>2018-06-03T09:52:54Z</time>
      </trkpt>
      <trkpt lat="45.93533" lon="4.68728">
        <ele>342</ele>
        <time>2018-06-03T09:52:55Z</time>
      </trkpt>
      <trkpt lat="45.93539" lon="4.6873">
        <ele>342</ele>
        <time>2018-06-03T09:52:56Z</time>
      </trkpt>
      <trkpt lat="45.93544" lon="4.68732">
        <ele>342</ele>
        <time>2018-06-03T09:52:57Z</time>
      </trkpt>
      <trkpt lat="45.9355" lon="4.68733">
        <ele>342</ele>
        <time>2018-06-03T09:52:58Z</time>
      </trkpt>
      <trkpt lat="45.93556" lon="4.68734">
        <ele>342</ele>
        <time>2018-06-03T09:52:59Z</time>
      </trkpt>
      <trkpt lat="45.93562" lon="4.68735">
        <ele>342</ele>
        <time>2018-06-03T09:53:00Z</time>
      </trkpt>
      <trkpt lat="45.93568" lon="4.68737">
        <ele>343</ele>
        <time>2018-06-03T09:53:01Z</time>
      </trkpt>
      <trkpt lat="45.93574" lon="4.68739">
        <ele>343</ele>
        <time>2018-06-03T09:53:02Z</time>
      </trkpt>
      <trkpt lat="45.9358" lon="4.68741">
        <ele>343</ele>
        <time>2018-06-03T09:53:03Z</time>
      </trkpt>
      <trkpt lat="45.93586" lon="4.68743">
        <ele>343</ele>
        <time>2018-06-03T09:53:04Z</time>
      </trkpt>
      <trkpt lat="45.93592" lon="4.68745">
        <ele>343</ele>
        <time>2018-06-03T09:53:05Z</time>
      </trkpt>
      <trkpt lat="45.93598" lon="4.68747">
        <ele>343</ele>
        <time>2018-06-03T09:53:06Z</time>
      </trkpt>
      <trkpt lat="45.93604" lon="4.68747">
        <ele>342</ele>
        <time>2018-06-03T09:53:07Z</time>
      </trkpt>
      <trkpt lat="45.93609" lon="4.68748">
        <ele>342</ele>
        <time>2018-06-03T09:53:08Z</time>
      </trkpt>
      <trkpt lat="45.93614" lon="4.68749">
        <ele>342</ele>
        <time>2018-06-03T09:53:09Z</time>
      </trkpt>
      <trkpt lat="45.93619" lon="4.68751">
        <ele>343</ele>
        <time>2018-06-03T09:53:10Z</time>
      </trkpt>
      <trkpt lat="45.93625" lon="4.68754">
        <ele>343</ele>
        <time>2018-06-03T09:53:11Z</time>
      </trkpt>
      <trkpt lat="45.9363" lon="4.68756">
        <ele>343</ele>
        <time>2018-06-03T09:53:12Z</time>
      </trkpt>
      <trkpt lat="45.93635" lon="4.68759">
        <ele>343</ele>
        <time>2018-06-03T09:53:13Z</time>
      </trkpt>
      <trkpt lat="45.93641" lon="4.68763">
        <ele>343</ele>
        <time>2018-06-03T09:53:14Z</time>
      </trkpt>
      <trkpt lat="45.93645" lon="4.68765">
        <ele>343</ele>
        <time>2018-06-03T09:53:15Z</time>
      </trkpt>
      <trkpt lat="45.93652" lon="4.68767">
        <ele>343</ele>
        <time>2018-06-03T09:53:16Z</time>
      </trkpt>
      <trkpt lat="45.93657" lon="4.68768">
        <ele>343</ele>
        <time>2018-06-03T09:53:17Z</time>
      </trkpt>
      <trkpt lat="45.93664" lon="4.68768">
        <ele>343</ele>
        <time>2018-06-03T09:53:18Z</time>
      </trkpt>
      <trkpt lat="45.93668" lon="4.68769">
        <ele>342</ele>
        <time>2018-06-03T09:53:19Z</time>
      </trkpt>
      <trkpt lat="45.93675" lon="4.68772">
        <ele>342</ele>
        <time>2018-06-03T09:53:20Z</time>
      </trkpt>
      <trkpt lat="45.93681" lon="4.68774">
        <ele>342</ele>
        <time>2018-06-03T09:53:21Z</time>
      </trkpt>
      <trkpt lat="45.93688" lon="4.68774">
        <ele>342</ele>
        <time>2018-06-03T09:53:22Z</time>
      </trkpt>
      <trkpt lat="45.93695" lon="4.68776">
        <ele>342</ele>
        <time>2018-06-03T09:53:23Z</time>
      </trkpt>
      <trkpt lat="45.93702" lon="4.68778">
        <ele>342</ele>
        <time>2018-06-03T09:53:24Z</time>
      </trkpt>
      <trkpt lat="45.93709" lon="4.6878">
        <ele>342</ele>
        <time>2018-06-03T09:53:25Z</time>
      </trkpt>
      <trkpt lat="45.93715" lon="4.68782">
        <ele>342</ele>
        <time>2018-06-03T09:53:26Z</time>
      </trkpt>
      <trkpt lat="45.93721" lon="4.68785">
        <ele>342</ele>
        <time>2018-06-03T09:53:27Z</time>
      </trkpt>
      <trkpt lat="45.93727" lon="4.68787">
        <ele>342</ele>
        <time>2018-06-03T09:53:28Z</time>
      </trkpt>
      <trkpt lat="45.93729" lon="4.68792">
        <ele>342</ele>
        <time>2018-06-03T09:53:29Z</time>
      </trkpt>
      <trkpt lat="45.93736" lon="4.68794">
        <ele>342</ele>
        <time>2018-06-03T09:53:30Z</time>
      </trkpt>
      <trkpt lat="45.93744" lon="4.68794">
        <ele>342</ele>
        <time>2018-06-03T09:53:31Z</time>
      </trkpt>
      <trkpt lat="45.93749" lon="4.68795">
        <ele>342</ele>
        <time>2018-06-03T09:53:32Z</time>
      </trkpt>
      <trkpt lat="45.93756" lon="4.68797">
        <ele>341</ele>
        <time>2018-06-03T09:53:33Z</time>
      </trkpt>
      <trkpt lat="45.93761" lon="4.68799">
        <ele>341</ele>
        <time>2018-06-03T09:53:34Z</time>
      </trkpt>
      <trkpt lat="45.93769" lon="4.68802">
        <ele>341</ele>
        <time>2018-06-03T09:53:35Z</time>
      </trkpt>
      <trkpt lat="45.93774" lon="4.68806">
        <ele>341</ele>
        <time>2018-06-03T09:53:36Z</time>
      </trkpt>
      <trkpt lat="45.9378" lon="4.68809">
        <ele>341</ele>
        <time>2018-06-03T09:53:37Z</time>
      </trkpt>
      <trkpt lat="45.93788" lon="4.68813">
        <ele>341</ele>
        <time>2018-06-03T09:53:38Z</time>
      </trkpt>
      <trkpt lat="45.93795" lon="4.68816">
        <ele>341</ele>
        <time>2018-06-03T09:53:39Z</time>
      </trkpt>
      <trkpt lat="45.93802" lon="4.68819">
        <ele>341</ele>
        <time>2018-06-03T09:53:40Z</time>
      </trkpt>
      <trkpt lat="45.93808" lon="4.68822">
        <ele>341</ele>
        <time>2018-06-03T09:53:41Z</time>
      </trkpt>
      <trkpt lat="45.93814" lon="4.68826">
        <ele>341</ele>
        <time>2018-06-03T09:53:42Z</time>
      </trkpt>
      <trkpt lat="45.93819" lon="4.6883">
        <ele>341</ele>
        <time>2018-06-03T09:53:43Z</time>
      </trkpt>
      <trkpt lat="45.93824" lon="4.68833">
        <ele>342</ele>
        <time>2018-06-03T09:53:44Z</time>
      </trkpt>
      <trkpt lat="45.93831" lon="4.68836">
        <ele>342</ele>
        <time>2018-06-03T09:53:45Z</time>
      </trkpt>
      <trkpt lat="45.93837" lon="4.68839">
        <ele>342</ele>
        <time>2018-06-03T09:53:46Z</time>
      </trkpt>
      <trkpt lat="45.93842" lon="4.68842">
        <ele>342</ele>
        <time>2018-06-03T09:53:47Z</time>
      </trkpt>
      <trkpt lat="45.93848" lon="4.68846">
        <ele>342</ele>
        <time>2018-06-03T09:53:48Z</time>
      </trkpt>
      <trkpt lat="45.93854" lon="4.6885">
        <ele>342</ele>
        <time>2018-06-03T09:53:49Z</time>
      </trkpt>
      <trkpt lat="45.93859" lon="4.68855">
        <ele>342</ele>
        <time>2018-06-03T09:53:50Z</time>
      </trkpt>
      <trkpt lat="45.93866" lon="4.68857">
        <ele>342</ele>
        <time>2018-06-03T09:53:51Z</time>
      </trkpt>
      <trkpt lat="45.93871" lon="4.68861">
        <ele>342</ele>
        <time>2018-06-03T09:53:52Z</time>
      </trkpt>
      <trkpt lat="45.93877" lon="4.68865">
        <ele>343</ele>
        <time>2018-06-03T09:53:53Z</time>
      </trkpt>
      <trkpt lat="45.93883" lon="4.68867">
        <ele>343</ele>
        <time>2018-06-03T09:53:54Z</time>
      </trkpt>
      <trkpt lat="45.93888" lon="4.68868">
        <ele>343</ele>
        <time>2018-06-03T09:53:55Z</time>
      </trkpt>
      <trkpt lat="45.93893" lon="4.68871">
        <ele>343</ele>
        <time>2018-06-03T09:53:56Z</time>
      </trkpt>
      <trkpt lat="45.93899" lon="4.68871">
        <ele>343</ele>
        <time>2018-06-03T09:53:57Z</time>
      </trkpt>
      <trkpt lat="45.93905" lon="4.68874">
        <ele>343</ele>
        <time>2018-06-03T09:53:58Z</time>
      </trkpt>
      <trkpt lat="45.9391" lon="4.68876">
        <ele>342</ele>
        <time>2018-06-03T09:53:59Z</time>
      </trkpt>
      <trkpt lat="45.93915" lon="4.68878">
        <ele>342</ele>
        <time>2018-06-03T09:54:00Z</time>
      </trkpt>
      <trkpt lat="45.93921" lon="4.6888">
        <ele>342</ele>
        <time>2018-06-03T09:54:01Z</time>
      </trkpt>
      <trkpt lat="45.93926" lon="4.68881">
        <ele>342</ele>
        <time>2018-06-03T09:54:02Z</time>
      </trkpt>
      <trkpt lat="45.9393" lon="4.68883">
        <ele>342</ele>
        <time>2018-06-03T09:54:03Z</time>
      </trkpt>
      <trkpt lat="45.93936" lon="4.68884">
        <ele>342</ele>
        <time>2018-06-03T09:54:04Z</time>
      </trkpt>
      <trkpt lat="45.93941" lon="4.68886">
        <ele>342</ele>
        <time>2018-06-03T09:54:05Z</time>
      </trkpt>
      <trkpt lat="45.93946" lon="4.6889">
        <ele>342</ele>
        <time>2018-06-03T09:54:06Z</time>
      </trkpt>
      <trkpt lat="45.93952" lon="4.68892">
        <ele>342</ele>
        <time>2018-06-03T09:54:07Z</time>
      </trkpt>
      <trkpt lat="45.93956" lon="4.68893">
        <ele>342</ele>
        <time>2018-06-03T09:54:08Z</time>
      </trkpt>
      <trkpt lat="45.93961" lon="4.68896">
        <ele>342</ele>
        <time>2018-06-03T09:54:09Z</time>
      </trkpt>
      <trkpt lat="45.93967" lon="4.68898">
        <ele>342</ele>
        <time>2018-06-03T09:54:10Z</time>
      </trkpt>
      <trkpt lat="45.93972" lon="4.689">
        <ele>342</ele>
        <time>2018-06-03T09:54:11Z</time>
      </trkpt>
      <trkpt lat="45.93977" lon="4.68902">
        <ele>342</ele>
        <time>2018-06-03T09:54:12Z</time>
      </trkpt>
      <trkpt lat="45.93982" lon="4.68904">
        <ele>342</ele>
        <time>2018-06-03T09:54:13Z</time>
      </trkpt>
      <trkpt lat="45.93988" lon="4.68904">
        <ele>342</ele>
        <time>2018-06-03T09:54:14Z</time>
      </trkpt>
      <trkpt lat="45.93994" lon="4.68906">
        <ele>342</ele>
        <time>2018-06-03T09:54:15Z</time>
      </trkpt>
      <trkpt lat="45.93999" lon="4.68908">
        <ele>342</ele>
        <time>2018-06-03T09:54:16Z</time>
      </trkpt>
      <trkpt lat="45.94005" lon="4.68911">
        <ele>341</ele>
        <time>2018-06-03T09:54:17Z</time>
      </trkpt>
      <trkpt lat="45.94011" lon="4.68912">
        <ele>341</ele>
        <time>2018-06-03T09:54:18Z</time>
      </trkpt>
      <trkpt lat="45.94018" lon="4.68914">
        <ele>341</ele>
        <time>2018-06-03T09:54:19Z</time>
      </trkpt>
      <trkpt lat="45.94024" lon="4.68915">
        <ele>341</ele>
        <time>2018-06-03T09:54:20Z</time>
      </trkpt>
      <trkpt lat="45.9403" lon="4.68918">
        <ele>341</ele>
        <time>2018-06-03T09:54:21Z</time>
      </trkpt>
      <trkpt lat="45.94037" lon="4.68921">
        <ele>341</ele>
        <time>2018-06-03T09:54:22Z</time>
      </trkpt>
      <trkpt lat="45.94043" lon="4.68924">
        <ele>341</ele>
        <time>2018-06-03T09:54:23Z</time>
      </trkpt>
      <trkpt lat="45.9405" lon="4.68932">
        <ele>341</ele>
        <time>2018-06-03T09:54:24Z</time>
      </trkpt>
      <trkpt lat="45.94056" lon="4.68937">
        <ele>341</ele>
        <time>2018-06-03T09:54:25Z</time>
      </trkpt>
      <trkpt lat="45.94063" lon="4.68941">
        <ele>341</ele>
        <time>2018-06-03T09:54:26Z</time>
      </trkpt>
      <trkpt lat="45.9407" lon="4.68944">
        <ele>341</ele>
        <time>2018-06-03T09:54:27Z</time>
      </trkpt>
      <trkpt lat="45.94078" lon="4.68946">
        <ele>341</ele>
        <time>2018-06-03T09:54:28Z</time>
      </trkpt>
      <trkpt lat="45.94085" lon="4.68947">
        <ele>340</ele>
        <time>2018-06-03T09:54:29Z</time>
      </trkpt>
      <trkpt lat="45.94092" lon="4.68949">
        <ele>340</ele>
        <time>2018-06-03T09:54:30Z</time>
      </trkpt>
      <trkpt lat="45.94099" lon="4.68951">
        <ele>340</ele>
        <time>2018-06-03T09:54:31Z</time>
      </trkpt>
      <trkpt lat="45.94106" lon="4.68953">
        <ele>340</ele>
        <time>2018-06-03T09:54:32Z</time>
      </trkpt>
      <trkpt lat="45.94112" lon="4.68956">
        <ele>340</ele>
        <time>2018-06-03T09:54:33Z</time>
      </trkpt>
      <trkpt lat="45.94119" lon="4.6896">
        <ele>340</ele>
        <time>2018-06-03T09:54:34Z</time>
      </trkpt>
      <trkpt lat="45.94126" lon="4.68959">
        <ele>340</ele>
        <time>2018-06-03T09:54:35Z</time>
      </trkpt>
      <trkpt lat="45.94132" lon="4.68961">
        <ele>340</ele>
        <time>2018-06-03T09:54:36Z</time>
      </trkpt>
      <trkpt lat="45.94139" lon="4.68963">
        <ele>340</ele>
        <time>2018-06-03T09:54:37Z</time>
      </trkpt>
      <trkpt lat="45.94146" lon="4.68965">
        <ele>340</ele>
        <time>2018-06-03T09:54:38Z</time>
      </trkpt>
      <trkpt lat="45.94152" lon="4.68966">
        <ele>340</ele>
        <time>2018-06-03T09:54:39Z</time>
      </trkpt>
      <trkpt lat="45.94158" lon="4.68969">
        <ele>340</ele>
        <time>2018-06-03T09:54:40Z</time>
      </trkpt>
      <trkpt lat="45.94164" lon="4.68972">
        <ele>340</ele>
        <time>2018-06-03T09:54:41Z</time>
      </trkpt>
      <trkpt lat="45.94171" lon="4.68974">
        <ele>338</ele>
        <time>2018-06-03T09:54:42Z</time>
      </trkpt>
      <trkpt lat="45.94175" lon="4.68975">
        <ele>338</ele>
        <time>2018-06-03T09:54:43Z</time>
      </trkpt>
      <trkpt lat="45.94182" lon="4.68977">
        <ele>338</ele>
        <time>2018-06-03T09:54:44Z</time>
      </trkpt>
      <trkpt lat="45.94189" lon="4.68979">
        <ele>338</ele>
        <time>2018-06-03T09:54:45Z</time>
      </trkpt>
      <trkpt lat="45.94196" lon="4.68981">
        <ele>338</ele>
        <time>2018-06-03T09:54:46Z</time>
      </trkpt>
      <trkpt lat="45.94202" lon="4.68983">
        <ele>338</ele>
        <time>2018-06-03T09:54:47Z</time>
      </trkpt>
      <trkpt lat="45.94209" lon="4.68984">
        <ele>338</ele>
        <time>2018-06-03T09:54:48Z</time>
      </trkpt>
      <trkpt lat="45.94216" lon="4.68985">
        <ele>338</ele>
        <time>2018-06-03T09:54:49Z</time>
      </trkpt>
      <trkpt lat="45.94224" lon="4.68987">
        <ele>338</ele>
        <time>2018-06-03T09:54:50Z</time>
      </trkpt>
      <trkpt lat="45.94231" lon="4.68988">
        <ele>338</ele>
        <time>2018-06-03T09:54:51Z</time>
      </trkpt>
      <trkpt lat="45.94238" lon="4.68989">
        <ele>338</ele>
        <time>2018-06-03T09:54:52Z</time>
      </trkpt>
      <trkpt lat="45.94244" lon="4.6899">
        <ele>338</ele>
        <time>2018-06-03T09:54:53Z</time>
      </trkpt>
      <trkpt lat="45.94251" lon="4.68992">
        <ele>337</ele>
        <time>2018-06-03T09:54:54Z</time>
      </trkpt>
      <trkpt lat="45.94258" lon="4.68993">
        <ele>337</ele>
        <time>2018-06-03T09:54:55Z</time>
      </trkpt>
      <trkpt lat="45.94266" lon="4.68994">
        <ele>337</ele>
        <time>2018-06-03T09:54:56Z</time>
      </trkpt>
      <trkpt lat="45.94272" lon="4.68995">
        <ele>337</ele>
        <time>2018-06-03T09:54:57Z</time>
      </trkpt>
      <trkpt lat="45.94279" lon="4.68997">
        <ele>337</ele>
        <time>2018-06-03T09:54:58Z</time>
      </trkpt>
      <trkpt lat="45.94285" lon="4.68998">
        <ele>336</ele>
        <time>2018-06-03T09:54:59Z</time>
      </trkpt>
      <trkpt lat="45.94292" lon="4.68999">
        <ele>336</ele>
        <time>2018-06-03T09:55:00Z</time>
      </trkpt>
      <trkpt lat="45.94298" lon="4.69002">
        <ele>337</ele>
        <time>2018-06-03T09:55:01Z</time>
      </trkpt>
      <trkpt lat="45.94305" lon="4.69003">
        <ele>337</ele>
        <time>2018-06-03T09:55:02Z</time>
      </trkpt>
      <trkpt lat="45.94312" lon="4.69003">
        <ele>337</ele>
        <time>2018-06-03T09:55:03Z</time>
      </trkpt>
      <trkpt lat="45.94319" lon="4.69004">
        <ele>337</ele>
        <time>2018-06-03T09:55:04Z</time>
      </trkpt>
      <trkpt lat="45.94325" lon="4.69004">
        <ele>337</ele>
        <time>2018-06-03T09:55:05Z</time>
      </trkpt>
      <trkpt lat="45.94332" lon="4.69004">
        <ele>337</ele>
        <time>2018-06-03T09:55:06Z</time>
      </trkpt>
      <trkpt lat="45.94338" lon="4.69005">
        <ele>337</ele>
        <time>2018-06-03T09:55:07Z</time>
      </trkpt>
      <trkpt lat="45.94344" lon="4.69004">
        <ele>337</ele>
        <time>2018-06-03T09:55:08Z</time>
      </trkpt>
      <trkpt lat="45.94351" lon="4.69005">
        <ele>338</ele>
        <time>2018-06-03T09:55:09Z</time>
      </trkpt>
      <trkpt lat="45.94357" lon="4.69005">
        <ele>338</ele>
        <time>2018-06-03T09:55:10Z</time>
      </trkpt>
      <trkpt lat="45.94363" lon="4.69005">
        <ele>338</ele>
        <time>2018-06-03T09:55:11Z</time>
      </trkpt>
      <trkpt lat="45.94369" lon="4.69006">
        <ele>338</ele>
        <time>2018-06-03T09:55:12Z</time>
      </trkpt>
      <trkpt lat="45.94375" lon="4.69006">
        <ele>338</ele>
        <time>2018-06-03T09:55:13Z</time>
      </trkpt>
      <trkpt lat="45.94381" lon="4.69005">
        <ele>338</ele>
        <time>2018-06-03T09:55:14Z</time>
      </trkpt>
      <trkpt lat="45.94386" lon="4.69006">
        <ele>338</ele>
        <time>2018-06-03T09:55:15Z</time>
      </trkpt>
      <trkpt lat="45.94392" lon="4.69004">
        <ele>338</ele>
        <time>2018-06-03T09:55:16Z</time>
      </trkpt>
      <trkpt lat="45.94398" lon="4.69006">
        <ele>339</ele>
        <time>2018-06-03T09:55:17Z</time>
      </trkpt>
      <trkpt lat="45.94404" lon="4.69005">
        <ele>339</ele>
        <time>2018-06-03T09:55:18Z</time>
      </trkpt>
      <trkpt lat="45.9441" lon="4.69006">
        <ele>339</ele>
        <time>2018-06-03T09:55:19Z</time>
      </trkpt>
      <trkpt lat="45.94415" lon="4.69006">
        <ele>339</ele>
        <time>2018-06-03T09:55:20Z</time>
      </trkpt>
      <trkpt lat="45.94421" lon="4.69007">
        <ele>339</ele>
        <time>2018-06-03T09:55:21Z</time>
      </trkpt>
      <trkpt lat="45.94426" lon="4.69009">
        <ele>340</ele>
        <time>2018-06-03T09:55:22Z</time>
      </trkpt>
      <trkpt lat="45.94432" lon="4.69008">
        <ele>340</ele>
        <time>2018-06-03T09:55:23Z</time>
      </trkpt>
      <trkpt lat="45.94437" lon="4.69009">
        <ele>340</ele>
        <time>2018-06-03T09:55:24Z</time>
      </trkpt>
      <trkpt lat="45.94443" lon="4.69005">
        <ele>340</ele>
        <time>2018-06-03T09:55:25Z</time>
      </trkpt>
      <trkpt lat="45.94448" lon="4.69005">
        <ele>340</ele>
        <time>2018-06-03T09:55:26Z</time>
      </trkpt>
      <trkpt lat="45.94453" lon="4.69007">
        <ele>340</ele>
        <time>2018-06-03T09:55:27Z</time>
      </trkpt>
      <trkpt lat="45.94458" lon="4.69008">
        <ele>340</ele>
        <time>2018-06-03T09:55:28Z</time>
      </trkpt>
      <trkpt lat="45.94464" lon="4.69009">
        <ele>341</ele>
        <time>2018-06-03T09:55:29Z</time>
      </trkpt>
      <trkpt lat="45.94469" lon="4.6901">
        <ele>341</ele>
        <time>2018-06-03T09:55:30Z</time>
      </trkpt>
      <trkpt lat="45.94474" lon="4.69011">
        <ele>341</ele>
        <time>2018-06-03T09:55:31Z</time>
      </trkpt>
      <trkpt lat="45.94479" lon="4.69011">
        <ele>341</ele>
        <time>2018-06-03T09:55:32Z</time>
      </trkpt>
      <trkpt lat="45.94485" lon="4.69011">
        <ele>341</ele>
        <time>2018-06-03T09:55:33Z</time>
      </trkpt>
      <trkpt lat="45.9449" lon="4.69013">
        <ele>341</ele>
        <time>2018-06-03T09:55:34Z</time>
      </trkpt>
      <trkpt lat="45.94496" lon="4.69014">
        <ele>341</ele>
        <time>2018-06-03T09:55:35Z</time>
      </trkpt>
      <trkpt lat="45.94501" lon="4.69016">
        <ele>341</ele>
        <time>2018-06-03T09:55:36Z</time>
      </trkpt>
      <trkpt lat="45.94506" lon="4.69016">
        <ele>342</ele>
        <time>2018-06-03T09:55:37Z</time>
      </trkpt>
      <trkpt lat="45.94511" lon="4.69018">
        <ele>342</ele>
        <time>2018-06-03T09:55:38Z</time>
      </trkpt>
      <trkpt lat="45.94516" lon="4.6902">
        <ele>342</ele>
        <time>2018-06-03T09:55:39Z</time>
      </trkpt>
      <trkpt lat="45.94521" lon="4.69021">
        <ele>342</ele>
        <time>2018-06-03T09:55:40Z</time>
      </trkpt>
      <trkpt lat="45.94526" lon="4.69023">
        <ele>342</ele>
        <time>2018-06-03T09:55:41Z</time>
      </trkpt>
      <trkpt lat="45.94531" lon="4.69025">
        <ele>342</ele>
        <time>2018-06-03T09:55:42Z</time>
      </trkpt>
      <trkpt lat="45.94536" lon="4.69026">
        <ele>342</ele>
        <time>2018-06-03T09:55:43Z</time>
      </trkpt>
      <trkpt lat="45.94541" lon="4.69026">
        <ele>342</ele>
        <time>2018-06-03T09:55:44Z</time>
      </trkpt>
      <trkpt lat="45.94546" lon="4.69028">
        <ele>342</ele>
        <time>2018-06-03T09:55:45Z</time>
      </trkpt>
      <trkpt lat="45.94551" lon="4.6903">
        <ele>342</ele>
        <time>2018-06-03T09:55:46Z</time>
      </trkpt>
      <trkpt lat="45.94556" lon="4.6903">
        <ele>342</ele>
        <time>2018-06-03T09:55:47Z</time>
      </trkpt>
      <trkpt lat="45.94561" lon="4.69032">
        <ele>342</ele>
        <time>2018-06-03T09:55:48Z</time>
      </trkpt>
      <trkpt lat="45.94567" lon="4.69033">
        <ele>342</ele>
        <time>2018-06-03T09:55:49Z</time>
      </trkpt>
      <trkpt lat="45.94572" lon="4.69034">
        <ele>342</ele>
        <time>2018-06-03T09:55:50Z</time>
      </trkpt>
      <trkpt lat="45.94577" lon="4.69036">
        <ele>342</ele>
        <time>2018-06-03T09:55:51Z</time>
      </trkpt>
      <trkpt lat="45.94582" lon="4.69038">
        <ele>342</ele>
        <time>2018-06-03T09:55:52Z</time>
      </trkpt>
      <trkpt lat="45.94588" lon="4.69041">
        <ele>342</ele>
        <time>2018-06-03T09:55:53Z</time>
      </trkpt>
      <trkpt lat="45.94593" lon="4.6904">
        <ele>342</ele>
        <time>2018-06-03T09:55:54Z</time>
      </trkpt>
      <trkpt lat="45.94598" lon="4.69041">
        <ele>342</ele>
        <time>2018-06-03T09:55:55Z</time>
      </trkpt>
      <trkpt lat="45.94603" lon="4.69044">
        <ele>342</ele>
        <time>2018-06-03T09:55:56Z</time>
      </trkpt>
      <trkpt lat="45.94607" lon="4.69046">
        <ele>342</ele>
        <time>2018-06-03T09:55:57Z</time>
      </trkpt>
      <trkpt lat="45.94612" lon="4.69048">
        <ele>342</ele>
        <time>2018-06-03T09:55:58Z</time>
      </trkpt>
      <trkpt lat="45.94617" lon="4.6905">
        <ele>342</ele>
        <time>2018-06-03T09:55:59Z</time>
      </trkpt>
      <trkpt lat="45.94622" lon="4.69051">
        <ele>342</ele>
        <time>2018-06-03T09:56:00Z</time>
      </trkpt>
      <trkpt lat="45.94627" lon="4.69051">
        <ele>342</ele>
        <time>2018-06-03T09:56:01Z</time>
      </trkpt>
      <trkpt lat="45.94632" lon="4.69053">
        <ele>342</ele>
        <time>2018-06-03T09:56:02Z</time>
      </trkpt>
      <trkpt lat="45.94637" lon="4.69054">
        <ele>342</ele>
        <time>2018-06-03T09:56:03Z</time>
      </trkpt>
      <trkpt lat="45.94642" lon="4.69056">
        <ele>342</ele>
        <time>2018-06-03T09:56:04Z</time>
      </trkpt>
      <trkpt lat="45.94647" lon="4.69057">
        <ele>342</ele>
        <time>2018-06-03T09:56:05Z</time>
      </trkpt>
      <trkpt lat="45.94652" lon="4.69059">
        <ele>342</ele>
        <time>2018-06-03T09:56:06Z</time>
      </trkpt>
      <trkpt lat="45.94657" lon="4.69058">
        <ele>342</ele>
        <time>2018-06-03T09:56:07Z</time>
      </trkpt>
      <trkpt lat="45.94662" lon="4.69059">
        <ele>342</ele>
        <time>2018-06-03T09:56:08Z</time>
      </trkpt>
      <trkpt lat="45.94667" lon="4.69062">
        <ele>342</ele>
        <time>2018-06-03T09:56:09Z</time>
      </trkpt>
      <trkpt lat="45.94673" lon="4.69064">
        <ele>342</ele>
        <time>2018-06-03T09:56:10Z</time>
      </trkpt>
      <trkpt lat="45.94677" lon="4.69066">
        <ele>342</ele>
        <time>2018-06-03T09:56:11Z</time>
      </trkpt>
      <trkpt lat="45.94684" lon="4.69069">
        <ele>342</ele>
        <time>2018-06-03T09:56:12Z</time>
      </trkpt>
      <trkpt lat="45.94689" lon="4.69071">
        <ele>342</ele>
        <time>2018-06-03T09:56:13Z</time>
      </trkpt>
      <trkpt lat="45.94694" lon="4.69073">
        <ele>342</ele>
        <time>2018-06-03T09:56:14Z</time>
      </trkpt>
      <trkpt lat="45.947" lon="4.69075">
        <ele>342</ele>
        <time>2018-06-03T09:56:15Z</time>
      </trkpt>
      <trkpt lat="45.94706" lon="4.69077">
        <ele>342</ele>
        <time>2018-06-03T09:56:16Z</time>
      </trkpt>
      <trkpt lat="45.94711" lon="4.69078">
        <ele>343</ele>
        <time>2018-06-03T09:56:17Z</time>
      </trkpt>
      <trkpt lat="45.94717" lon="4.6908">
        <ele>343</ele>
        <time>2018-06-03T09:56:18Z</time>
      </trkpt>
      <trkpt lat="45.94722" lon="4.69083">
        <ele>343</ele>
        <time>2018-06-03T09:56:19Z</time>
      </trkpt>
      <trkpt lat="45.94728" lon="4.69084">
        <ele>344</ele>
        <time>2018-06-03T09:56:20Z</time>
      </trkpt>
      <trkpt lat="45.94733" lon="4.69086">
        <ele>344</ele>
        <time>2018-06-03T09:56:21Z</time>
      </trkpt>
      <trkpt lat="45.94739" lon="4.69087">
        <ele>345</ele>
        <time>2018-06-03T09:56:22Z</time>
      </trkpt>
      <trkpt lat="45.94746" lon="4.69091">
        <ele>345</ele>
        <time>2018-06-03T09:56:23Z</time>
      </trkpt>
      <trkpt lat="45.94752" lon="4.69092">
        <ele>345</ele>
        <time>2018-06-03T09:56:24Z</time>
      </trkpt>
      <trkpt lat="45.94757" lon="4.69094">
        <ele>345</ele>
        <time>2018-06-03T09:56:25Z</time>
      </trkpt>
      <trkpt lat="45.94762" lon="4.69096">
        <ele>344</ele>
        <time>2018-06-03T09:56:26Z</time>
      </trkpt>
      <trkpt lat="45.94768" lon="4.69099">
        <ele>344</ele>
        <time>2018-06-03T09:56:27Z</time>
      </trkpt>
      <trkpt lat="45.94773" lon="4.69099">
        <ele>344</ele>
        <time>2018-06-03T09:56:28Z</time>
      </trkpt>
      <trkpt lat="45.94779" lon="4.69101">
        <ele>344</ele>
        <time>2018-06-03T09:56:29Z</time>
      </trkpt>
      <trkpt lat="45.94784" lon="4.69103">
        <ele>344</ele>
        <time>2018-06-03T09:56:30Z</time>
      </trkpt>
      <trkpt lat="45.9479" lon="4.69105">
        <ele>344</ele>
        <time>2018-06-03T09:56:31Z</time>
      </trkpt>
      <trkpt lat="45.94797" lon="4.69107">
        <ele>344</ele>
        <time>2018-06-03T09:56:32Z</time>
      </trkpt>
      <trkpt lat="45.94803" lon="4.69109">
        <ele>344</ele>
        <time>2018-06-03T09:56:33Z</time>
      </trkpt>
      <trkpt lat="45.94808" lon="4.69111">
        <ele>344</ele>
        <time>2018-06-03T09:56:34Z</time>
      </trkpt>
      <trkpt lat="45.94814" lon="4.69114">
        <ele>344</ele>
        <time>2018-06-03T09:56:35Z</time>
      </trkpt>
      <trkpt lat="45.9482" lon="4.69117">
        <ele>344</ele>
        <time>2018-06-03T09:56:36Z</time>
      </trkpt>
      <trkpt lat="45.94826" lon="4.69119">
        <ele>344</ele>
        <time>2018-06-03T09:56:37Z</time>
      </trkpt>
      <trkpt lat="45.94833" lon="4.69121">
        <ele>342</ele>
        <time>2018-06-03T09:56:38Z</time>
      </trkpt>
      <trkpt lat="45.9484" lon="4.69123">
        <ele>342</ele>
        <time>2018-06-03T09:56:39Z</time>
      </trkpt>
      <trkpt lat="45.94846" lon="4.69125">
        <ele>342</ele>
        <time>2018-06-03T09:56:40Z</time>
      </trkpt>
      <trkpt lat="45.94853" lon="4.69127">
        <ele>342</ele>
        <time>2018-06-03T09:56:41Z</time>
      </trkpt>
      <trkpt lat="45.94858" lon="4.69129">
        <ele>342</ele>
        <time>2018-06-03T09:56:42Z</time>
      </trkpt>
      <trkpt lat="45.94864" lon="4.69136">
        <ele>342</ele>
        <time>2018-06-03T09:56:43Z</time>
      </trkpt>
      <trkpt lat="45.94872" lon="4.69136">
        <ele>342</ele>
        <time>2018-06-03T09:56:44Z</time>
      </trkpt>
      <trkpt lat="45.94878" lon="4.69139">
        <ele>342</ele>
        <time>2018-06-03T09:56:45Z</time>
      </trkpt>
      <trkpt lat="45.94884" lon="4.69137">
        <ele>342</ele>
        <time>2018-06-03T09:56:46Z</time>
      </trkpt>
      <trkpt lat="45.9489" lon="4.69141">
        <ele>342</ele>
        <time>2018-06-03T09:56:47Z</time>
      </trkpt>
      <trkpt lat="45.94897" lon="4.69145">
        <ele>342</ele>
        <time>2018-06-03T09:56:48Z</time>
      </trkpt>
      <trkpt lat="45.94903" lon="4.6915">
        <ele>342</ele>
        <time>2018-06-03T09:56:49Z</time>
      </trkpt>
      <trkpt lat="45.94909" lon="4.69153">
        <ele>342</ele>
        <time>2018-06-03T09:56:50Z</time>
      </trkpt>
      <trkpt lat="45.94916" lon="4.69157">
        <ele>342</ele>
        <time>2018-06-03T09:56:51Z</time>
      </trkpt>
      <trkpt lat="45.94922" lon="4.69161">
        <ele>341</ele>
        <time>2018-06-03T09:56:52Z</time>
      </trkpt>
      <trkpt lat="45.94929" lon="4.69166">
        <ele>340</ele>
        <time>2018-06-03T09:56:53Z</time>
      </trkpt>
      <trkpt lat="45.94936" lon="4.6917">
        <ele>341</ele>
        <time>2018-06-03T09:56:54Z</time>
      </trkpt>
      <trkpt lat="45.94942" lon="4.69175">
        <ele>341</ele>
        <time>2018-06-03T09:56:55Z</time>
      </trkpt>
      <trkpt lat="45.94948" lon="4.6918">
        <ele>340</ele>
        <time>2018-06-03T09:56:56Z</time>
      </trkpt>
      <trkpt lat="45.94955" lon="4.69184">
        <ele>340</ele>
        <time>2018-06-03T09:56:57Z</time>
      </trkpt>
      <trkpt lat="45.94963" lon="4.69191">
        <ele>340</ele>
        <time>2018-06-03T09:56:58Z</time>
      </trkpt>
      <trkpt lat="45.9497" lon="4.69197">
        <ele>340</ele>
        <time>2018-06-03T09:56:59Z</time>
      </trkpt>
      <trkpt lat="45.94977" lon="4.69202">
        <ele>340</ele>
        <time>2018-06-03T09:57:00Z</time>
      </trkpt>
      <trkpt lat="45.94984" lon="4.6921">
        <ele>340</ele>
        <time>2018-06-03T09:57:01Z</time>
      </trkpt>
      <trkpt lat="45.94992" lon="4.69215">
        <ele>340</ele>
        <time>2018-06-03T09:57:02Z</time>
      </trkpt>
      <trkpt lat="45.95" lon="4.69219">
        <ele>340</ele>
        <time>2018-06-03T09:57:03Z</time>
      </trkpt>
      <trkpt lat="45.95007" lon="4.69221">
        <ele>337</ele>
        <time>2018-06-03T09:57:04Z</time>
      </trkpt>
      <trkpt lat="45.95016" lon="4.69226">
        <ele>337</ele>
        <time>2018-06-03T09:57:05Z</time>
      </trkpt>
      <trkpt lat="45.95023" lon="4.69232">
        <ele>337</ele>
        <time>2018-06-03T09:57:06Z</time>
      </trkpt>
      <trkpt lat="45.95031" lon="4.69239">
        <ele>337</ele>
        <time>2018-06-03T09:57:07Z</time>
      </trkpt>
      <trkpt lat="45.95038" lon="4.69246">
        <ele>336</ele>
        <time>2018-06-03T09:57:08Z</time>
      </trkpt>
      <trkpt lat="45.95046" lon="4.69253">
        <ele>337</ele>
        <time>2018-06-03T09:57:09Z</time>
      </trkpt>
      <trkpt lat="45.95054" lon="4.6926">
        <ele>336</ele>
        <time>2018-06-03T09:57:10Z</time>
      </trkpt>
      <trkpt lat="45.95062" lon="4.69268">
        <ele>336</ele>
        <time>2018-06-03T09:57:11Z</time>
      </trkpt>
      <trkpt lat="45.95069" lon="4.69276">
        <ele>336</ele>
        <time>2018-06-03T09:57:12Z</time>
      </trkpt>
      <trkpt lat="45.95076" lon="4.69284">
        <ele>336</ele>
        <time>2018-06-03T09:57:13Z</time>
      </trkpt>
      <trkpt lat="45.95082" lon="4.69292">
        <ele>336</ele>
        <time>2018-06-03T09:57:14Z</time>
      </trkpt>
      <trkpt lat="45.95089" lon="4.693">
        <ele>334</ele>
        <time>2018-06-03T09:57:15Z</time>
      </trkpt>
      <trkpt lat="45.95095" lon="4.69308">
        <ele>334</ele>
        <time>2018-06-03T09:57:16Z</time>
      </trkpt>
      <trkpt lat="45.95102" lon="4.69314">
        <ele>334</ele>
        <time>2018-06-03T09:57:17Z</time>
      </trkpt>
      <trkpt lat="45.95108" lon="4.69321">
        <ele>334</ele>
        <time>2018-06-03T09:57:18Z</time>
      </trkpt>
      <trkpt lat="45.95115" lon="4.69328">
        <ele>334</ele>
        <time>2018-06-03T09:57:19Z</time>
      </trkpt>
      <trkpt lat="45.95121" lon="4.69335">
        <ele>336</ele>
        <time>2018-06-03T09:57:20Z</time>
      </trkpt>
      <trkpt lat="45.95128" lon="4.69341">
        <ele>337</ele>
        <time>2018-06-03T09:57:21Z</time>
      </trkpt>
      <trkpt lat="45.95134" lon="4.69347">
        <ele>337</ele>
        <time>2018-06-03T09:57:22Z</time>
      </trkpt>
      <trkpt lat="45.95141" lon="4.69354">
        <ele>337</ele>
        <time>2018-06-03T09:57:23Z</time>
      </trkpt>
      <trkpt lat="45.95146" lon="4.69359">
        <ele>337</ele>
        <time>2018-06-03T09:57:24Z</time>
      </trkpt>
      <trkpt lat="45.95151" lon="4.69364">
        <ele>337</ele>
        <time>2018-06-03T09:57:25Z</time>
      </trkpt>
      <trkpt lat="45.95156" lon="4.69371">
        <ele>337</ele>
        <time>2018-06-03T09:57:26Z</time>
      </trkpt>
      <trkpt lat="45.95162" lon="4.69378">
        <ele>337</ele>
        <time>2018-06-03T09:57:27Z</time>
      </trkpt>
      <trkpt lat="45.95168" lon="4.69383">
        <ele>337</ele>
        <time>2018-06-03T09:57:28Z</time>
      </trkpt>
      <trkpt lat="45.95174" lon="4.69387">
        <ele>337</ele>
        <time>2018-06-03T09:57:29Z</time>
      </trkpt>
      <trkpt lat="45.95179" lon="4.69392">
        <ele>337</ele>
        <time>2018-06-03T09:57:30Z</time>
      </trkpt>
      <trkpt lat="45.95185" lon="4.69393">
        <ele>337</ele>
        <time>2018-06-03T09:57:31Z</time>
      </trkpt>
      <trkpt lat="45.95191" lon="4.69396">
        <ele>337</ele>
        <time>2018-06-03T09:57:32Z</time>
      </trkpt>
      <trkpt lat="45.95196" lon="4.69402">
        <ele>337</ele>
        <time>2018-06-03T09:57:33Z</time>
      </trkpt>
      <trkpt lat="45.95202" lon="4.69406">
        <ele>337</ele>
        <time>2018-06-03T09:57:34Z</time>
      </trkpt>
      <trkpt lat="45.95207" lon="4.6941">
        <ele>337</ele>
        <time>2018-06-03T09:57:35Z</time>
      </trkpt>
      <trkpt lat="45.95213" lon="4.69414">
        <ele>337</ele>
        <time>2018-06-03T09:57:36Z</time>
      </trkpt>
      <trkpt lat="45.95218" lon="4.69416">
        <ele>337</ele>
        <time>2018-06-03T09:57:37Z</time>
      </trkpt>
      <trkpt lat="45.95223" lon="4.69418">
        <ele>340</ele>
        <time>2018-06-03T09:57:38Z</time>
      </trkpt>
      <trkpt lat="45.95229" lon="4.69421">
        <ele>340</ele>
        <time>2018-06-03T09:57:39Z</time>
      </trkpt>
      <trkpt lat="45.95236" lon="4.69423">
        <ele>339</ele>
        <time>2018-06-03T09:57:40Z</time>
      </trkpt>
      <trkpt lat="45.95242" lon="4.69426">
        <ele>339</ele>
        <time>2018-06-03T09:57:41Z</time>
      </trkpt>
      <trkpt lat="45.95246" lon="4.69429">
        <ele>339</ele>
        <time>2018-06-03T09:57:42Z</time>
      </trkpt>
      <trkpt lat="45.95252" lon="4.69432">
        <ele>338</ele>
        <time>2018-06-03T09:57:43Z</time>
      </trkpt>
      <trkpt lat="45.95257" lon="4.69435">
        <ele>338</ele>
        <time>2018-06-03T09:57:44Z</time>
      </trkpt>
      <trkpt lat="45.95263" lon="4.69437">
        <ele>339</ele>
        <time>2018-06-03T09:57:45Z</time>
      </trkpt>
      <trkpt lat="45.95269" lon="4.6944">
        <ele>339</ele>
        <time>2018-06-03T09:57:46Z</time>
      </trkpt>
      <trkpt lat="45.95275" lon="4.69445">
        <ele>339</ele>
        <time>2018-06-03T09:57:47Z</time>
      </trkpt>
      <trkpt lat="45.9528" lon="4.69446">
        <ele>339</ele>
        <time>2018-06-03T09:57:48Z</time>
      </trkpt>
      <trkpt lat="45.95286" lon="4.69445">
        <ele>338</ele>
        <time>2018-06-03T09:57:49Z</time>
      </trkpt>
      <trkpt lat="45.95291" lon="4.69448">
        <ele>338</ele>
        <time>2018-06-03T09:57:50Z</time>
      </trkpt>
      <trkpt lat="45.95297" lon="4.69451">
        <ele>338</ele>
        <time>2018-06-03T09:57:51Z</time>
      </trkpt>
      <trkpt lat="45.95304" lon="4.69455">
        <ele>338</ele>
        <time>2018-06-03T09:57:52Z</time>
      </trkpt>
      <trkpt lat="45.9531" lon="4.69458">
        <ele>338</ele>
        <time>2018-06-03T09:57:53Z</time>
      </trkpt>
      <trkpt lat="45.95316" lon="4.69461">
        <ele>338</ele>
        <time>2018-06-03T09:57:54Z</time>
      </trkpt>
      <trkpt lat="45.95322" lon="4.69463">
        <ele>339</ele>
        <time>2018-06-03T09:57:55Z</time>
      </trkpt>
      <trkpt lat="45.95328" lon="4.69466">
        <ele>339</ele>
        <time>2018-06-03T09:57:56Z</time>
      </trkpt>
      <trkpt lat="45.95333" lon="4.69469">
        <ele>337</ele>
        <time>2018-06-03T09:57:57Z</time>
      </trkpt>
      <trkpt lat="45.9534" lon="4.69472">
        <ele>337</ele>
        <time>2018-06-03T09:57:58Z</time>
      </trkpt>
      <trkpt lat="45.95346" lon="4.69476">
        <ele>337</ele>
        <time>2018-06-03T09:57:59Z</time>
      </trkpt>
      <trkpt lat="45.95351" lon="4.6948">
        <ele>337</ele>
        <time>2018-06-03T09:58:00Z</time>
      </trkpt>
      <trkpt lat="45.95359" lon="4.69484">
        <ele>337</ele>
        <time>2018-06-03T09:58:01Z</time>
      </trkpt>
      <trkpt lat="45.95365" lon="4.69488">
        <ele>337</ele>
        <time>2018-06-03T09:58:02Z</time>
      </trkpt>
      <trkpt lat="45.95371" lon="4.69493">
        <ele>337</ele>
        <time>2018-06-03T09:58:03Z</time>
      </trkpt>
      <trkpt lat="45.95377" lon="4.69497">
        <ele>337</ele>
        <time>2018-06-03T09:58:04Z</time>
      </trkpt>
      <trkpt lat="45.95382" lon="4.69502">
        <ele>340</ele>
        <time>2018-06-03T09:58:05Z</time>
      </trkpt>
      <trkpt lat="45.9539" lon="4.69506">
        <ele>340</ele>
        <time>2018-06-03T09:58:06Z</time>
      </trkpt>
      <trkpt lat="45.95397" lon="4.69511">
        <ele>339</ele>
        <time>2018-06-03T09:58:07Z</time>
      </trkpt>
      <trkpt lat="45.95406" lon="4.69513">
        <ele>339</ele>
        <time>2018-06-03T09:58:08Z</time>
      </trkpt>
      <trkpt lat="45.95412" lon="4.69517">
        <ele>339</ele>
        <time>2018-06-03T09:58:09Z</time>
      </trkpt>
      <trkpt lat="45.95418" lon="4.69521">
        <ele>337</ele>
        <time>2018-06-03T09:58:10Z</time>
      </trkpt>
      <trkpt lat="45.95425" lon="4.69526">
        <ele>337</ele>
        <time>2018-06-03T09:58:11Z</time>
      </trkpt>
      <trkpt lat="45.95431" lon="4.69531">
        <ele>337</ele>
        <time>2018-06-03T09:58:12Z</time>
      </trkpt>
      <trkpt lat="45.95437" lon="4.69532">
        <ele>337</ele>
        <time>2018-06-03T09:58:13Z</time>
      </trkpt>
      <trkpt lat="45.95444" lon="4.69536">
        <ele>337</ele>
        <time>2018-06-03T09:58:14Z</time>
      </trkpt>
      <trkpt lat="45.9545" lon="4.6954">
        <ele>337</ele>
        <time>2018-06-03T09:58:15Z</time>
      </trkpt>
      <trkpt lat="45.95457" lon="4.69542">
        <ele>337</ele>
        <time>2018-06-03T09:58:16Z</time>
      </trkpt>
      <trkpt lat="45.95465" lon="4.69547">
        <ele>336</ele>
        <time>2018-06-03T09:58:17Z</time>
      </trkpt>
      <trkpt lat="45.95472" lon="4.6955">
        <ele>336</ele>
        <time>2018-06-03T09:58:18Z</time>
      </trkpt>
      <trkpt lat="45.95479" lon="4.69555">
        <ele>336</ele>
        <time>2018-06-03T09:58:19Z</time>
      </trkpt>
      <trkpt lat="45.95487" lon="4.69559">
        <ele>336</ele>
        <time>2018-06-03T09:58:20Z</time>
      </trkpt>
      <trkpt lat="45.95494" lon="4.69561">
        <ele>336</ele>
        <time>2018-06-03T09:58:21Z</time>
      </trkpt>
      <trkpt lat="45.95502" lon="4.69565">
        <ele>334</ele>
        <time>2018-06-03T09:58:22Z</time>
      </trkpt>
      <trkpt lat="45.95509" lon="4.6957">
        <ele>334</ele>
        <time>2018-06-03T09:58:23Z</time>
      </trkpt>
      <trkpt lat="45.95517" lon="4.69573">
        <ele>334</ele>
        <time>2018-06-03T09:58:24Z</time>
      </trkpt>
      <trkpt lat="45.95526" lon="4.69575">
        <ele>333</ele>
        <time>2018-06-03T09:58:25Z</time>
      </trkpt>
      <trkpt lat="45.95534" lon="4.69578">
        <ele>332</ele>
        <time>2018-06-03T09:58:26Z</time>
      </trkpt>
      <trkpt lat="45.95542" lon="4.69583">
        <ele>332</ele>
        <time>2018-06-03T09:58:27Z</time>
      </trkpt>
      <trkpt lat="45.95549" lon="4.69585">
        <ele>331</ele>
        <time>2018-06-03T09:58:28Z</time>
      </trkpt>
      <trkpt lat="45.95557" lon="4.69588">
        <ele>330</ele>
        <time>2018-06-03T09:58:29Z</time>
      </trkpt>
      <trkpt lat="45.95565" lon="4.69591">
        <ele>330</ele>
        <time>2018-06-03T09:58:30Z</time>
      </trkpt>
      <trkpt lat="45.95573" lon="4.69596">
        <ele>330</ele>
        <time>2018-06-03T09:58:31Z</time>
      </trkpt>
      <trkpt lat="45.95581" lon="4.69599">
        <ele>329</ele>
        <time>2018-06-03T09:58:32Z</time>
      </trkpt>
      <trkpt lat="45.95589" lon="4.69602">
        <ele>328</ele>
        <time>2018-06-03T09:58:33Z</time>
      </trkpt>
      <trkpt lat="45.95597" lon="4.69607">
        <ele>328</ele>
        <time>2018-06-03T09:58:34Z</time>
      </trkpt>
      <trkpt lat="45.95606" lon="4.6961">
        <ele>328</ele>
        <time>2018-06-03T09:58:35Z</time>
      </trkpt>
      <trkpt lat="45.95614" lon="4.69613">
        <ele>328</ele>
        <time>2018-06-03T09:58:36Z</time>
      </trkpt>
      <trkpt lat="45.9562" lon="4.69618">
        <ele>328</ele>
        <time>2018-06-03T09:58:37Z</time>
      </trkpt>
      <trkpt lat="45.95629" lon="4.69621">
        <ele>328</ele>
        <time>2018-06-03T09:58:38Z</time>
      </trkpt>
      <trkpt lat="45.95637" lon="4.69624">
        <ele>328</ele>
        <time>2018-06-03T09:58:39Z</time>
      </trkpt>
      <trkpt lat="45.95645" lon="4.69629">
        <ele>328</ele>
        <time>2018-06-03T09:58:40Z</time>
      </trkpt>
      <trkpt lat="45.95653" lon="4.69633">
        <ele>328</ele>
        <time>2018-06-03T09:58:41Z</time>
      </trkpt>
      <trkpt lat="45.95662" lon="4.69636">
        <ele>327</ele>
        <time>2018-06-03T09:58:42Z</time>
      </trkpt>
      <trkpt lat="45.9567" lon="4.69639">
        <ele>326</ele>
        <time>2018-06-03T09:58:43Z</time>
      </trkpt>
      <trkpt lat="45.95677" lon="4.69641">
        <ele>326</ele>
        <time>2018-06-03T09:58:44Z</time>
      </trkpt>
      <trkpt lat="45.95685" lon="4.69644">
        <ele>326</ele>
        <time>2018-06-03T09:58:45Z</time>
      </trkpt>
      <trkpt lat="45.95692" lon="4.69645">
        <ele>326</ele>
        <time>2018-06-03T09:58:46Z</time>
      </trkpt>
      <trkpt lat="45.95701" lon="4.69649">
        <ele>326</ele>
        <time>2018-06-03T09:58:47Z</time>
      </trkpt>
      <trkpt lat="45.95709" lon="4.69651">
        <ele>326</ele>
        <time>2018-06-03T09:58:48Z</time>
      </trkpt>
      <trkpt lat="45.95716" lon="4.69655">
        <ele>326</ele>
        <time>2018-06-03T09:58:49Z</time>
      </trkpt>
      <trkpt lat="45.95724" lon="4.69657">
        <ele>326</ele>
        <time>2018-06-03T09:58:50Z</time>
      </trkpt>
      <trkpt lat="45.95731" lon="4.69658">
        <ele>326</ele>
        <time>2018-06-03T09:58:51Z</time>
      </trkpt>
      <trkpt lat="45.95738" lon="4.69661">
        <ele>326</ele>
        <time>2018-06-03T09:58:52Z</time>
      </trkpt>
      <trkpt lat="45.95745" lon="4.69665">
        <ele>326</ele>
        <time>2018-06-03T09:58:53Z</time>
      </trkpt>
      <trkpt lat="45.95752" lon="4.6967">
        <ele>326</ele>
        <time>2018-06-03T09:58:54Z</time>
      </trkpt>
      <trkpt lat="45.95758" lon="4.69674">
        <ele>326</ele>
        <time>2018-06-03T09:58:55Z</time>
      </trkpt>
      <trkpt lat="45.95764" lon="4.69678">
        <ele>326</ele>
        <time>2018-06-03T09:58:56Z</time>
      </trkpt>
      <trkpt lat="45.9577" lon="4.69681">
        <ele>326</ele>
        <time>2018-06-03T09:58:57Z</time>
      </trkpt>
      <trkpt lat="45.95777" lon="4.69686">
        <ele>326</ele>
        <time>2018-06-03T09:58:58Z</time>
      </trkpt>
      <trkpt lat="45.95782" lon="4.6969">
        <ele>326</ele>
        <time>2018-06-03T09:58:59Z</time>
      </trkpt>
      <trkpt lat="45.95787" lon="4.69696">
        <ele>326</ele>
        <time>2018-06-03T09:59:00Z</time>
      </trkpt>
      <trkpt lat="45.95792" lon="4.69702">
        <ele>326</ele>
        <time>2018-06-03T09:59:01Z</time>
      </trkpt>
      <trkpt lat="45.95797" lon="4.69708">
        <ele>326</ele>
        <time>2018-06-03T09:59:02Z</time>
      </trkpt>
      <trkpt lat="45.95802" lon="4.69716">
        <ele>326</ele>
        <time>2018-06-03T09:59:03Z</time>
      </trkpt>
      <trkpt lat="45.95807" lon="4.69723">
        <ele>326</ele>
        <time>2018-06-03T09:59:04Z</time>
      </trkpt>
      <trkpt lat="45.9581" lon="4.69728">
        <ele>326</ele>
        <time>2018-06-03T09:59:05Z</time>
      </trkpt>
      <trkpt lat="45.95815" lon="4.69735">
        <ele>327</ele>
        <time>2018-06-03T09:59:06Z</time>
      </trkpt>
      <trkpt lat="45.9582" lon="4.69741">
        <ele>327</ele>
        <time>2018-06-03T09:59:07Z</time>
      </trkpt>
      <trkpt lat="45.95823" lon="4.69746">
        <ele>327</ele>
        <time>2018-06-03T09:59:08Z</time>
      </trkpt>
      <trkpt lat="45.95827" lon="4.69752">
        <ele>327</ele>
        <time>2018-06-03T09:59:09Z</time>
      </trkpt>
      <trkpt lat="45.9583" lon="4.69759">
        <ele>327</ele>
        <time>2018-06-03T09:59:10Z</time>
      </trkpt>
      <trkpt lat="45.95833" lon="4.69765">
        <ele>328</ele>
        <time>2018-06-03T09:59:11Z</time>
      </trkpt>
      <trkpt lat="45.95836" lon="4.69772">
        <ele>327</ele>
        <time>2018-06-03T09:59:12Z</time>
      </trkpt>
      <trkpt lat="45.9584" lon="4.69776">
        <ele>327</ele>
        <time>2018-06-03T09:59:13Z</time>
      </trkpt>
      <trkpt lat="45.95843" lon="4.69782">
        <ele>327</ele>
        <time>2018-06-03T09:59:14Z</time>
      </trkpt>
      <trkpt lat="45.95846" lon="4.69788">
        <ele>327</ele>
        <time>2018-06-03T09:59:15Z</time>
      </trkpt>
      <trkpt lat="45.95849" lon="4.69793">
        <ele>327</ele>
        <time>2018-06-03T09:59:16Z</time>
      </trkpt>
      <trkpt lat="45.95852" lon="4.69799">
        <ele>327</ele>
        <time>2018-06-03T09:59:17Z</time>
      </trkpt>
      <trkpt lat="45.95855" lon="4.69805">
        <ele>327</ele>
        <time>2018-06-03T09:59:18Z</time>
      </trkpt>
      <trkpt lat="45.95858" lon="4.69811">
        <ele>327</ele>
        <time>2018-06-03T09:59:19Z</time>
      </trkpt>
      <trkpt lat="45.95862" lon="4.69817">
        <ele>327</ele>
        <time>2018-06-03T09:59:20Z</time>
      </trkpt>
      <trkpt lat="45.95864" lon="4.69823">
        <ele>328</ele>
        <time>2018-06-03T09:59:21Z</time>
      </trkpt>
      <trkpt lat="45.95866" lon="4.69829">
        <ele>328</ele>
        <time>2018-06-03T09:59:22Z</time>
      </trkpt>
      <trkpt lat="45.95869" lon="4.69836">
        <ele>329</ele>
        <time>2018-06-03T09:59:23Z</time>
      </trkpt>
      <trkpt lat="45.9587" lon="4.69842">
        <ele>329</ele>
        <time>2018-06-03T09:59:24Z</time>
      </trkpt>
      <trkpt lat="45.95872" lon="4.69849">
        <ele>329</ele>
        <time>2018-06-03T09:59:25Z</time>
      </trkpt>
      <trkpt lat="45.95874" lon="4.69856">
        <ele>329</ele>
        <time>2018-06-03T09:59:26Z</time>
      </trkpt>
      <trkpt lat="45.95876" lon="4.69864">
        <ele>329</ele>
        <time>2018-06-03T09:59:27Z</time>
      </trkpt>
      <trkpt lat="45.95878" lon="4.69871">
        <ele>329</ele>
        <time>2018-06-03T09:59:28Z</time>
      </trkpt>
      <trkpt lat="45.95882" lon="4.69878">
        <ele>329</ele>
        <time>2018-06-03T09:59:29Z</time>
      </trkpt>
      <trkpt lat="45.95883" lon="4.69885">
        <ele>329</ele>
        <time>2018-06-03T09:59:30Z</time>
      </trkpt>
      <trkpt lat="45.95887" lon="4.69891">
        <ele>329</ele>
        <time>2018-06-03T09:59:31Z</time>
      </trkpt>
      <trkpt lat="45.95888" lon="4.699">
        <ele>329</ele>
        <time>2018-06-03T09:59:32Z</time>
      </trkpt>
      <trkpt lat="45.9589" lon="4.69908">
        <ele>329</ele>
        <time>2018-06-03T09:59:33Z</time>
      </trkpt>
      <trkpt lat="45.95892" lon="4.69917">
        <ele>329</ele>
        <time>2018-06-03T09:59:34Z</time>
      </trkpt>
      <trkpt lat="45.95893" lon="4.69926">
        <ele>328</ele>
        <time>2018-06-03T09:59:35Z</time>
      </trkpt>
      <trkpt lat="45.95895" lon="4.69934">
        <ele>328</ele>
        <time>2018-06-03T09:59:36Z</time>
      </trkpt>
      <trkpt lat="45.95895" lon="4.69941">
        <ele>328</ele>
        <time>2018-06-03T09:59:37Z</time>
      </trkpt>
      <trkpt lat="45.95896" lon="4.69949">
        <ele>328</ele>
        <time>2018-06-03T09:59:38Z</time>
      </trkpt>
      <trkpt lat="45.95897" lon="4.69962">
        <ele>328</ele>
        <time>2018-06-03T09:59:39Z</time>
      </trkpt>
      <trkpt lat="45.959" lon="4.69971">
        <ele>328</ele>
        <time>2018-06-03T09:59:40Z</time>
      </trkpt>
      <trkpt lat="45.95904" lon="4.69979">
        <ele>328</ele>
        <time>2018-06-03T09:59:41Z</time>
      </trkpt>
      <trkpt lat="45.95907" lon="4.69987">
        <ele>328</ele>
        <time>2018-06-03T09:59:42Z</time>
      </trkpt>
      <trkpt lat="45.9591" lon="4.69993">
        <ele>328</ele>
        <time>2018-06-03T09:59:43Z</time>
      </trkpt>
      <trkpt lat="45.95911" lon="4.70001">
        <ele>328</ele>
        <time>2018-06-03T09:59:44Z</time>
      </trkpt>
      <trkpt lat="45.95914" lon="4.70009">
        <ele>328</ele>
        <time>2018-06-03T09:59:45Z</time>
      </trkpt>
      <trkpt lat="45.95917" lon="4.70016">
        <ele>328</ele>
        <time>2018-06-03T09:59:46Z</time>
      </trkpt>
      <trkpt lat="45.95921" lon="4.70022">
        <ele>328</ele>
        <time>2018-06-03T09:59:47Z</time>
      </trkpt>
      <trkpt lat="45.95925" lon="4.70028">
        <ele>328</ele>
        <time>2018-06-03T09:59:48Z</time>
      </trkpt>
      <trkpt lat="45.95927" lon="4.70033">
        <ele>328</ele>
        <time>2018-06-03T09:59:49Z</time>
      </trkpt>
      <trkpt lat="45.95931" lon="4.70039">
        <ele>328</ele>
        <time>2018-06-03T09:59:50Z</time>
      </trkpt>
      <trkpt lat="45.95934" lon="4.70045">
        <ele>328</ele>
        <time>2018-06-03T09:59:51Z</time>
      </trkpt>
      <trkpt lat="45.95938" lon="4.7005">
        <ele>328</ele>
        <time>2018-06-03T09:59:52Z</time>
      </trkpt>
      <trkpt lat="45.95942" lon="4.70056">
        <ele>328</ele>
        <time>2018-06-03T09:59:53Z</time>
      </trkpt>
      <trkpt lat="45.95946" lon="4.70061">
        <ele>328</ele>
        <time>2018-06-03T09:59:54Z</time>
      </trkpt>
      <trkpt lat="45.9595" lon="4.70069">
        <ele>328</ele>
        <time>2018-06-03T09:59:55Z</time>
      </trkpt>
      <trkpt lat="45.95955" lon="4.70075">
        <ele>328</ele>
        <time>2018-06-03T09:59:56Z</time>
      </trkpt>
      <trkpt lat="45.95959" lon="4.70081">
        <ele>328</ele>
        <time>2018-06-03T09:59:57Z</time>
      </trkpt>
      <trkpt lat="45.95964" lon="4.70086">
        <ele>328</ele>
        <time>2018-06-03T09:59:58Z</time>
      </trkpt>
      <trkpt lat="45.95968" lon="4.70089">
        <ele>328</ele>
        <time>2018-06-03T09:59:59Z</time>
      </trkpt>
      <trkpt lat="45.95974" lon="4.70095">
        <ele>328</ele>
        <time>2018-06-03T10:00:00Z</time>
      </trkpt>
      <trkpt lat="45.95978" lon="4.701">
        <ele>328</ele>
        <time>2018-06-03T10:00:01Z</time>
      </trkpt>
      <trkpt lat="45.95983" lon="4.70106">
        <ele>328</ele>
        <time>2018-06-03T10:00:02Z</time>
      </trkpt>
      <trkpt lat="45.95987" lon="4.70109">
        <ele>328</ele>
        <time>2018-06-03T10:00:03Z</time>
      </trkpt>
      <trkpt lat="45.95991" lon="4.70114">
        <ele>328</ele>
        <time>2018-06-03T10:00:04Z</time>
      </trkpt>
      <trkpt lat="45.95996" lon="4.70118">
        <ele>328</ele>
        <time>2018-06-03T10:00:05Z</time>
      </trkpt>
      <trkpt lat="45.96" lon="4.70121">
        <ele>328</ele>
        <time>2018-06-03T10:00:06Z</time>
      </trkpt>
      <trkpt lat="45.96005" lon="4.70126">
        <ele>328</ele>
        <time>2018-06-03T10:00:07Z</time>
      </trkpt>
      <trkpt lat="45.9601" lon="4.70131">
        <ele>328</ele>
        <time>2018-06-03T10:00:08Z</time>
      </trkpt>
      <trkpt lat="45.96014" lon="4.70135">
        <ele>328</ele>
        <time>2018-06-03T10:00:09Z</time>
      </trkpt>
      <trkpt lat="45.96019" lon="4.70141">
        <ele>329</ele>
        <time>2018-06-03T10:00:10Z</time>
      </trkpt>
      <trkpt lat="45.96023" lon="4.70146">
        <ele>329</ele>
        <time>2018-06-03T10:00:11Z</time>
      </trkpt>
      <trkpt lat="45.96028" lon="4.70151">
        <ele>329</ele>
        <time>2018-06-03T10:00:12Z</time>
      </trkpt>
      <trkpt lat="45.96033" lon="4.70153">
        <ele>329</ele>
        <time>2018-06-03T10:00:13Z</time>
      </trkpt>
      <trkpt lat="45.96039" lon="4.70159">
        <ele>329</ele>
        <time>2018-06-03T10:00:14Z</time>
      </trkpt>
      <trkpt lat="45.96044" lon="4.70163">
        <ele>328</ele>
        <time>2018-06-03T10:00:15Z</time>
      </trkpt>
      <trkpt lat="45.96049" lon="4.70167">
        <ele>327</ele>
        <time>2018-06-03T10:00:16Z</time>
      </trkpt>
      <trkpt lat="45.96054" lon="4.70171">
        <ele>327</ele>
        <time>2018-06-03T10:00:17Z</time>
      </trkpt>
      <trkpt lat="45.96059" lon="4.70175">
        <ele>327</ele>
        <time>2018-06-03T10:00:18Z</time>
      </trkpt>
      <trkpt lat="45.96063" lon="4.70179">
        <ele>327</ele>
        <time>2018-06-03T10:00:19Z</time>
      </trkpt>
      <trkpt lat="45.96068" lon="4.70184">
        <ele>327</ele>
        <time>2018-06-03T10:00:20Z</time>
      </trkpt>
      <trkpt lat="45.96072" lon="4.70187">
        <ele>327</ele>
        <time>2018-06-03T10:00:21Z</time>
      </trkpt>
      <trkpt lat="45.96077" lon="4.70192">
        <ele>327</ele>
        <time>2018-06-03T10:00:22Z</time>
      </trkpt>
      <trkpt lat="45.96082" lon="4.70196">
        <ele>327</ele>
        <time>2018-06-03T10:00:23Z</time>
      </trkpt>
      <trkpt lat="45.96088" lon="4.70203">
        <ele>327</ele>
        <time>2018-06-03T10:00:24Z</time>
      </trkpt>
      <trkpt lat="45.96092" lon="4.70208">
        <ele>327</ele>
        <time>2018-06-03T10:00:25Z</time>
      </trkpt>
      <trkpt lat="45.96097" lon="4.70212">
        <ele>327</ele>
        <time>2018-06-03T10:00:26Z</time>
      </trkpt>
      <trkpt lat="45.96103" lon="4.70218">
        <ele>327</ele>
        <time>2018-06-03T10:00:27Z</time>
      </trkpt>
      <trkpt lat="45.96108" lon="4.70224">
        <ele>327</ele>
        <time>2018-06-03T10:00:28Z</time>
      </trkpt>
      <trkpt lat="45.96114" lon="4.70227">
        <ele>327</ele>
        <time>2018-06-03T10:00:29Z</time>
      </trkpt>
      <trkpt lat="45.96119" lon="4.70233">
        <ele>327</ele>
        <time>2018-06-03T10:00:30Z</time>
      </trkpt>
      <trkpt lat="45.96124" lon="4.70237">
        <ele>327</ele>
        <time>2018-06-03T10:00:31Z</time>
      </trkpt>
      <trkpt lat="45.96131" lon="4.70241">
        <ele>327</ele>
        <time>2018-06-03T10:00:32Z</time>
      </trkpt>
      <trkpt lat="45.96136" lon="4.70247">
        <ele>327</ele>
        <time>2018-06-03T10:00:33Z</time>
      </trkpt>
      <trkpt lat="45.96142" lon="4.70253">
        <ele>324</ele>
        <time>2018-06-03T10:00:34Z</time>
      </trkpt>
      <trkpt lat="45.96149" lon="4.70256">
        <ele>325</ele>
        <time>2018-06-03T10:00:35Z</time>
      </trkpt>
      <trkpt lat="45.96155" lon="4.70262">
        <ele>325</ele>
        <time>2018-06-03T10:00:36Z</time>
      </trkpt>
      <trkpt lat="45.96158" lon="4.7027">
        <ele>324</ele>
        <time>2018-06-03T10:00:37Z</time>
      </trkpt>
      <trkpt lat="45.96163" lon="4.70276">
        <ele>324</ele>
        <time>2018-06-03T10:00:38Z</time>
      </trkpt>
      <trkpt lat="45.96169" lon="4.70283">
        <ele>326</ele>
        <time>2018-06-03T10:00:39Z</time>
      </trkpt>
      <trkpt lat="45.96175" lon="4.70291">
        <ele>326</ele>
        <time>2018-06-03T10:00:40Z</time>
      </trkpt>
      <trkpt lat="45.96179" lon="4.70297">
        <ele>326</ele>
        <time>2018-06-03T10:00:41Z</time>
      </trkpt>
      <trkpt lat="45.96183" lon="4.70304">
        <ele>325</ele>
        <time>2018-06-03T10:00:42Z</time>
      </trkpt>
      <trkpt lat="45.96188" lon="4.70311">
        <ele>325</ele>
        <time>2018-06-03T10:00:43Z</time>
      </trkpt>
      <trkpt lat="45.96192" lon="4.70316">
        <ele>325</ele>
        <time>2018-06-03T10:00:44Z</time>
      </trkpt>
      <trkpt lat="45.96197" lon="4.70322">
        <ele>325</ele>
        <time>2018-06-03T10:00:45Z</time>
      </trkpt>
      <trkpt lat="45.96202" lon="4.70328">
        <ele>326</ele>
        <time>2018-06-03T10:00:46Z</time>
      </trkpt>
      <trkpt lat="45.96206" lon="4.70335">
        <ele>321</ele>
        <time>2018-06-03T10:00:47Z</time>
      </trkpt>
      <trkpt lat="45.9621" lon="4.70344">
        <ele>321</ele>
        <time>2018-06-03T10:00:48Z</time>
      </trkpt>
      <trkpt lat="45.96216" lon="4.70352">
        <ele>321</ele>
        <time>2018-06-03T10:00:49Z</time>
      </trkpt>
      <trkpt lat="45.96221" lon="4.70359">
        <ele>321</ele>
        <time>2018-06-03T10:00:50Z</time>
      </trkpt>
      <trkpt lat="45.96225" lon="4.70366">
        <ele>321</ele>
        <time>2018-06-03T10:00:51Z</time>
      </trkpt>
      <trkpt lat="45.9623" lon="4.70373">
        <ele>321</ele>
        <time>2018-06-03T10:00:52Z</time>
      </trkpt>
      <trkpt lat="45.96235" lon="4.7038">
        <ele>320</ele>
        <time>2018-06-03T10:00:53Z</time>
      </trkpt>
      <trkpt lat="45.9624" lon="4.70388">
        <ele>320</ele>
        <time>2018-06-03T10:00:54Z</time>
      </trkpt>
      <trkpt lat="45.96246" lon="4.70395">
        <ele>320</ele>
        <time>2018-06-03T10:00:55Z</time>
      </trkpt>
      <trkpt lat="45.96251" lon="4.70403">
        <ele>324</ele>
        <time>2018-06-03T10:00:56Z</time>
      </trkpt>
      <trkpt lat="45.96255" lon="4.70412">
        <ele>322</ele>
        <time>2018-06-03T10:00:57Z</time>
      </trkpt>
      <trkpt lat="45.96261" lon="4.70419">
        <ele>320</ele>
        <time>2018-06-03T10:00:58Z</time>
      </trkpt>
      <trkpt lat="45.96266" lon="4.70427">
        <ele>321</ele>
        <time>2018-06-03T10:00:59Z</time>
      </trkpt>
      <trkpt lat="45.9627" lon="4.70435">
        <ele>321</ele>
        <time>2018-06-03T10:01:00Z</time>
      </trkpt>
      <trkpt lat="45.96276" lon="4.70442">
        <ele>321</ele>
        <time>2018-06-03T10:01:01Z</time>
      </trkpt>
      <trkpt lat="45.9628" lon="4.70449">
        <ele>321</ele>
        <time>2018-06-03T10:01:02Z</time>
      </trkpt>
      <trkpt lat="45.96285" lon="4.70456">
        <ele>321</ele>
        <time>2018-06-03T10:01:03Z</time>
      </trkpt>
      <trkpt lat="45.9629" lon="4.70463">
        <ele>321</ele>
        <time>2018-06-03T10:01:04Z</time>
      </trkpt>
      <trkpt lat="45.96297" lon="4.70471">
        <ele>320</ele>
        <time>2018-06-03T10:01:05Z</time>
      </trkpt>
      <trkpt lat="45.96302" lon="4.70478">
        <ele>320</ele>
        <time>2018-06-03T10:01:06Z</time>
      </trkpt>
      <trkpt lat="45.96308" lon="4.70486">
        <ele>320</ele>
        <time>2018-06-03T10:01:07Z</time>
      </trkpt>
      <trkpt lat="45.96314" lon="4.70493">
        <ele>320</ele>
        <time>2018-06-03T10:01:08Z</time>
      </trkpt>
      <trkpt lat="45.96319" lon="4.705">
        <ele>317</ele>
        <time>2018-06-03T10:01:09Z</time>
      </trkpt>
      <trkpt lat="45.96326" lon="4.70508">
        <ele>317</ele>
        <time>2018-06-03T10:01:10Z</time>
      </trkpt>
      <trkpt lat="45.96332" lon="4.70515">
        <ele>317</ele>
        <time>2018-06-03T10:01:11Z</time>
      </trkpt>
      <trkpt lat="45.96338" lon="4.70523">
        <ele>319</ele>
        <time>2018-06-03T10:01:12Z</time>
      </trkpt>
      <trkpt lat="45.96343" lon="4.7053">
        <ele>319</ele>
        <time>2018-06-03T10:01:13Z</time>
      </trkpt>
      <trkpt lat="45.96349" lon="4.70538">
        <ele>319</ele>
        <time>2018-06-03T10:01:14Z</time>
      </trkpt>
      <trkpt lat="45.96355" lon="4.70545">
        <ele>318</ele>
        <time>2018-06-03T10:01:15Z</time>
      </trkpt>
      <trkpt lat="45.96359" lon="4.70552">
        <ele>318</ele>
        <time>2018-06-03T10:01:16Z</time>
      </trkpt>
      <trkpt lat="45.96366" lon="4.7056">
        <ele>318</ele>
        <time>2018-06-03T10:01:17Z</time>
      </trkpt>
      <trkpt lat="45.96371" lon="4.70567">
        <ele>318</ele>
        <time>2018-06-03T10:01:18Z</time>
      </trkpt>
      <trkpt lat="45.96377" lon="4.70575">
        <ele>318</ele>
        <time>2018-06-03T10:01:19Z</time>
      </trkpt>
      <trkpt lat="45.96384" lon="4.70583">
        <ele>318</ele>
        <time>2018-06-03T10:01:20Z</time>
      </trkpt>
      <trkpt lat="45.96391" lon="4.70592">
        <ele>313</ele>
        <time>2018-06-03T10:01:21Z</time>
      </trkpt>
      <trkpt lat="45.96398" lon="4.70601">
        <ele>313</ele>
        <time>2018-06-03T10:01:22Z</time>
      </trkpt>
      <trkpt lat="45.96406" lon="4.7061">
        <ele>312</ele>
        <time>2018-06-03T10:01:23Z</time>
      </trkpt>
      <trkpt lat="45.96414" lon="4.70619">
        <ele>311</ele>
        <time>2018-06-03T10:01:24Z</time>
      </trkpt>
      <trkpt lat="45.96421" lon="4.70628">
        <ele>313</ele>
        <time>2018-06-03T10:01:25Z</time>
      </trkpt>
      <trkpt lat="45.9643" lon="4.70636">
        <ele>313</ele>
        <time>2018-06-03T10:01:26Z</time>
      </trkpt>
      <trkpt lat="45.96438" lon="4.70644">
        <ele>313</ele>
        <time>2018-06-03T10:01:27Z</time>
      </trkpt>
      <trkpt lat="45.96447" lon="4.70654">
        <ele>312</ele>
        <time>2018-06-03T10:01:28Z</time>
      </trkpt>
      <trkpt lat="45.96454" lon="4.70662">
        <ele>312</ele>
        <time>2018-06-03T10:01:29Z</time>
      </trkpt>
      <trkpt lat="45.96462" lon="4.7067">
        <ele>305</ele>
        <time>2018-06-03T10:01:30Z</time>
      </trkpt>
      <trkpt lat="45.96471" lon="4.70678">
        <ele>306</ele>
        <time>2018-06-03T10:01:31Z</time>
      </trkpt>
      <trkpt lat="45.96481" lon="4.70686">
        <ele>306</ele>
        <time>2018-06-03T10:01:32Z</time>
      </trkpt>
      <trkpt lat="45.96489" lon="4.70695">
        <ele>305</ele>
        <time>2018-06-03T10:01:33Z</time>
      </trkpt>
      <trkpt lat="45.96497" lon="4.70703">
        <ele>305</ele>
        <time>2018-06-03T10:01:34Z</time>
      </trkpt>
      <trkpt lat="45.96506" lon="4.70711">
        <ele>306</ele>
        <time>2018-06-03T10:01:35Z</time>
      </trkpt>
      <trkpt lat="45.96515" lon="4.7072">
        <ele>305</ele>
        <time>2018-06-03T10:01:36Z</time>
      </trkpt>
      <trkpt lat="45.96526" lon="4.70728">
        <ele>305</ele>
        <time>2018-06-03T10:01:37Z</time>
      </trkpt>
      <trkpt lat="45.96536" lon="4.70736">
        <ele>305</ele>
        <time>2018-06-03T10:01:38Z</time>
      </trkpt>
      <trkpt lat="45.96546" lon="4.70745">
        <ele>305</ele>
        <time>2018-06-03T10:01:39Z</time>
      </trkpt>
      <trkpt lat="45.96556" lon="4.70754">
        <ele>299</ele>
        <time>2018-06-03T10:01:40Z</time>
      </trkpt>
      <trkpt lat="45.96566" lon="4.7076">
        <ele>299</ele>
        <time>2018-06-03T10:01:41Z</time>
      </trkpt>
      <trkpt lat="45.96576" lon="4.70767">
        <ele>299</ele>
        <time>2018-06-03T10:01:42Z</time>
      </trkpt>
      <trkpt lat="45.96587" lon="4.70774">
        <ele>300</ele>
        <time>2018-06-03T10:01:43Z</time>
      </trkpt>
      <trkpt lat="45.96597" lon="4.70782">
        <ele>299</ele>
        <time>2018-06-03T10:01:44Z</time>
      </trkpt>
      <trkpt lat="45.96607" lon="4.70789">
        <ele>298</ele>
        <time>2018-06-03T10:01:45Z</time>
      </trkpt>
      <trkpt lat="45.96618" lon="4.70796">
        <ele>298</ele>
        <time>2018-06-03T10:01:46Z</time>
      </trkpt>
      <trkpt lat="45.96628" lon="4.70803">
        <ele>298</ele>
        <time>2018-06-03T10:01:47Z</time>
      </trkpt>
      <trkpt lat="45.96638" lon="4.70811">
        <ele>298</ele>
        <time>2018-06-03T10:01:48Z</time>
      </trkpt>
      <trkpt lat="45.96648" lon="4.70816">
        <ele>297</ele>
        <time>2018-06-03T10:01:49Z</time>
      </trkpt>
      <trkpt lat="45.9666" lon="4.7082">
        <ele>297</ele>
        <time>2018-06-03T10:01:50Z</time>
      </trkpt>
      <trkpt lat="45.96669" lon="4.70827">
        <ele>296</ele>
        <time>2018-06-03T10:01:51Z</time>
      </trkpt>
      <trkpt lat="45.96679" lon="4.70834">
        <ele>293</ele>
        <time>2018-06-03T10:01:52Z</time>
      </trkpt>
      <trkpt lat="45.9669" lon="4.70841">
        <ele>291</ele>
        <time>2018-06-03T10:01:53Z</time>
      </trkpt>
      <trkpt lat="45.96701" lon="4.70848">
        <ele>290</ele>
        <time>2018-06-03T10:01:54Z</time>
      </trkpt>
      <trkpt lat="45.9671" lon="4.70855">
        <ele>290</ele>
        <time>2018-06-03T10:01:55Z</time>
      </trkpt>
      <trkpt lat="45.96721" lon="4.70863">
        <ele>289</ele>
        <time>2018-06-03T10:01:56Z</time>
      </trkpt>
      <trkpt lat="45.96732" lon="4.7087">
        <ele>289</ele>
        <time>2018-06-03T10:01:57Z</time>
      </trkpt>
      <trkpt lat="45.96739" lon="4.70877">
        <ele>288</ele>
        <time>2018-06-03T10:01:58Z</time>
      </trkpt>
      <trkpt lat="45.9675" lon="4.70884">
        <ele>287</ele>
        <time>2018-06-03T10:01:59Z</time>
      </trkpt>
      <trkpt lat="45.9676" lon="4.70891">
        <ele>288</ele>
        <time>2018-06-03T10:02:00Z</time>
      </trkpt>
      <trkpt lat="45.96771" lon="4.70898">
        <ele>288</ele>
        <time>2018-06-03T10:02:01Z</time>
      </trkpt>
      <trkpt lat="45.96781" lon="4.70904">
        <ele>288</ele>
        <time>2018-06-03T10:02:02Z</time>
      </trkpt>
      <trkpt lat="45.96791" lon="4.70911">
        <ele>288</ele>
        <time>2018-06-03T10:02:03Z</time>
      </trkpt>
      <trkpt lat="45.96801" lon="4.70918">
        <ele>280</ele>
        <time>2018-06-03T10:02:04Z</time>
      </trkpt>
      <trkpt lat="45.9681" lon="4.70923">
        <ele>281</ele>
        <time>2018-06-03T10:02:05Z</time>
      </trkpt>
      <trkpt lat="45.96822" lon="4.70931">
        <ele>281</ele>
        <time>2018-06-03T10:02:06Z</time>
      </trkpt>
      <trkpt lat="45.96832" lon="4.70935">
        <ele>281</ele>
        <time>2018-06-03T10:02:07Z</time>
      </trkpt>
      <trkpt lat="45.96843" lon="4.70942">
        <ele>281</ele>
        <time>2018-06-03T10:02:08Z</time>
      </trkpt>
      <trkpt lat="45.96854" lon="4.70948">
        <ele>280</ele>
        <time>2018-06-03T10:02:09Z</time>
      </trkpt>
      <trkpt lat="45.96865" lon="4.70955">
        <ele>280</ele>
        <time>2018-06-03T10:02:10Z</time>
      </trkpt>
      <trkpt lat="45.96875" lon="4.70958">
        <ele>279</ele>
        <time>2018-06-03T10:02:11Z</time>
      </trkpt>
      <trkpt lat="45.96887" lon="4.70963">
        <ele>279</ele>
        <time>2018-06-03T10:02:12Z</time>
      </trkpt>
      <trkpt lat="45.96898" lon="4.70967">
        <ele>278</ele>
        <time>2018-06-03T10:02:13Z</time>
      </trkpt>
      <trkpt lat="45.96909" lon="4.7097">
        <ele>278</ele>
        <time>2018-06-03T10:02:14Z</time>
      </trkpt>
      <trkpt lat="45.9692" lon="4.70973">
        <ele>276</ele>
        <time>2018-06-03T10:02:15Z</time>
      </trkpt>
      <trkpt lat="45.96932" lon="4.70977">
        <ele>276</ele>
        <time>2018-06-03T10:02:16Z</time>
      </trkpt>
      <trkpt lat="45.96944" lon="4.70979">
        <ele>275</ele>
        <time>2018-06-03T10:02:17Z</time>
      </trkpt>
      <trkpt lat="45.96955" lon="4.70982">
        <ele>275</ele>
        <time>2018-06-03T10:02:18Z</time>
      </trkpt>
      <trkpt lat="45.96967" lon="4.70982">
        <ele>274</ele>
        <time>2018-06-03T10:02:19Z</time>
      </trkpt>
      <trkpt lat="45.96979" lon="4.70983">
        <ele>273</ele>
        <time>2018-06-03T10:02:20Z</time>
      </trkpt>
      <trkpt lat="45.9699" lon="4.70985">
        <ele>272</ele>
        <time>2018-06-03T10:02:21Z</time>
      </trkpt>
      <trkpt lat="45.97002" lon="4.70986">
        <ele>269</ele>
        <time>2018-06-03T10:02:22Z</time>
      </trkpt>
      <trkpt lat="45.97014" lon="4.70983">
        <ele>270</ele>
        <time>2018-06-03T10:02:23Z</time>
      </trkpt>
      <trkpt lat="45.97026" lon="4.70983">
        <ele>270</ele>
        <time>2018-06-03T10:02:24Z</time>
      </trkpt>
      <trkpt lat="45.97039" lon="4.70982">
        <ele>269</ele>
        <time>2018-06-03T10:02:25Z</time>
      </trkpt>
      <trkpt lat="45.97051" lon="4.7098">
        <ele>269</ele>
        <time>2018-06-03T10:02:26Z</time>
      </trkpt>
      <trkpt lat="45.97062" lon="4.70979">
        <ele>269</ele>
        <time>2018-06-03T10:02:27Z</time>
      </trkpt>
      <trkpt lat="45.97074" lon="4.70977">
        <ele>268</ele>
        <time>2018-06-03T10:02:28Z</time>
      </trkpt>
      <trkpt lat="45.97086" lon="4.70975">
        <ele>265</ele>
        <time>2018-06-03T10:02:29Z</time>
      </trkpt>
      <trkpt lat="45.97097" lon="4.70971">
        <ele>265</ele>
        <time>2018-06-03T10:02:30Z</time>
      </trkpt>
      <trkpt lat="45.9711" lon="4.70968">
        <ele>264</ele>
        <time>2018-06-03T10:02:31Z</time>
      </trkpt>
      <trkpt lat="45.9712" lon="4.70964">
        <ele>264</ele>
        <time>2018-06-03T10:02:32Z</time>
      </trkpt>
      <trkpt lat="45.97131" lon="4.70959">
        <ele>264</ele>
        <time>2018-06-03T10:02:33Z</time>
      </trkpt>
      <trkpt lat="45.97142" lon="4.70954">
        <ele>263</ele>
        <time>2018-06-03T10:02:34Z</time>
      </trkpt>
      <trkpt lat="45.97152" lon="4.70951">
        <ele>263</ele>
        <time>2018-06-03T10:02:35Z</time>
      </trkpt>
      <trkpt lat="45.97163" lon="4.70946">
        <ele>263</ele>
        <time>2018-06-03T10:02:36Z</time>
      </trkpt>
      <trkpt lat="45.97171" lon="4.70939">
        <ele>259</ele>
        <time>2018-06-03T10:02:37Z</time>
      </trkpt>
      <trkpt lat="45.97179" lon="4.70934">
        <ele>259</ele>
        <time>2018-06-03T10:02:38Z</time>
      </trkpt>
      <trkpt lat="45.97186" lon="4.7093">
        <ele>258</ele>
        <time>2018-06-03T10:02:39Z</time>
      </trkpt>
      <trkpt lat="45.97194" lon="4.70926">
        <ele>258</ele>
        <time>2018-06-03T10:02:40Z</time>
      </trkpt>
      <trkpt lat="45.97202" lon="4.70919">
        <ele>257</ele>
        <time>2018-06-03T10:02:41Z</time>
      </trkpt>
      <trkpt lat="45.9721" lon="4.70911">
        <ele>260</ele>
        <time>2018-06-03T10:02:42Z</time>
      </trkpt>
      <trkpt lat="45.97218" lon="4.70902">
        <ele>259</ele>
        <time>2018-06-03T10:02:43Z</time>
      </trkpt>
      <trkpt lat="45.97225" lon="4.70892">
        <ele>259</ele>
        <time>2018-06-03T10:02:44Z</time>
      </trkpt>
      <trkpt lat="45.97232" lon="4.70884">
        <ele>259</ele>
        <time>2018-06-03T10:02:45Z</time>
      </trkpt>
      <trkpt lat="45.9724" lon="4.70872">
        <ele>259</ele>
        <time>2018-06-03T10:02:46Z</time>
      </trkpt>
      <trkpt lat="45.97248" lon="4.70861">
        <ele>259</ele>
        <time>2018-06-03T10:02:47Z</time>
      </trkpt>
      <trkpt lat="45.97255" lon="4.70853">
        <ele>254</ele>
        <time>2018-06-03T10:02:48Z</time>
      </trkpt>
      <trkpt lat="45.97261" lon="4.70844">
        <ele>254</ele>
        <time>2018-06-03T10:02:49Z</time>
      </trkpt>
      <trkpt lat="45.97267" lon="4.70834">
        <ele>254</ele>
        <time>2018-06-03T10:02:50Z</time>
      </trkpt>
      <trkpt lat="45.97275" lon="4.70824">
        <ele>255</ele>
        <time>2018-06-03T10:02:51Z</time>
      </trkpt>
      <trkpt lat="45.97283" lon="4.70813">
        <ele>254</ele>
        <time>2018-06-03T10:02:52Z</time>
      </trkpt>
      <trkpt lat="45.97291" lon="4.70804">
        <ele>254</ele>
        <time>2018-06-03T10:02:53Z</time>
      </trkpt>
      <trkpt lat="45.973" lon="4.70795">
        <ele>253</ele>
        <time>2018-06-03T10:02:54Z</time>
      </trkpt>
      <trkpt lat="45.97307" lon="4.70787">
        <ele>253</ele>
        <time>2018-06-03T10:02:55Z</time>
      </trkpt>
      <trkpt lat="45.97315" lon="4.70781">
        <ele>252</ele>
        <time>2018-06-03T10:02:56Z</time>
      </trkpt>
      <trkpt lat="45.97323" lon="4.70774">
        <ele>252</ele>
        <time>2018-06-03T10:02:57Z</time>
      </trkpt>
      <trkpt lat="45.97332" lon="4.7077">
        <ele>251</ele>
        <time>2018-06-03T10:02:58Z</time>
      </trkpt>
      <trkpt lat="45.9734" lon="4.70766">
        <ele>246</ele>
        <time>2018-06-03T10:02:59Z</time>
      </trkpt>
      <trkpt lat="45.97348" lon="4.70762">
        <ele>246</ele>
        <time>2018-06-03T10:03:00Z</time>
      </trkpt>
      <trkpt lat="45.97358" lon="4.70757">
        <ele>245</ele>
        <time>2018-06-03T10:03:01Z</time>
      </trkpt>
      <trkpt lat="45.97367" lon="4.70753">
        <ele>244</ele>
        <time>2018-06-03T10:03:02Z</time>
      </trkpt>
      <trkpt lat="45.97375" lon="4.70749">
        <ele>244</ele>
        <time>2018-06-03T10:03:03Z</time>
      </trkpt>
      <trkpt lat="45.97382" lon="4.70746">
        <ele>244</ele>
        <time>2018-06-03T10:03:04Z</time>
      </trkpt>
      <trkpt lat="45.9739" lon="4.70744">
        <ele>243</ele>
        <time>2018-06-03T10:03:05Z</time>
      </trkpt>
      <trkpt lat="45.97397" lon="4.70744">
        <ele>242</ele>
        <time>2018-06-03T10:03:06Z</time>
      </trkpt>
      <trkpt lat="45.97405" lon="4.70745">
        <ele>242</ele>
        <time>2018-06-03T10:03:07Z</time>
      </trkpt>
      <trkpt lat="45.97413" lon="4.70747">
        <ele>241</ele>
        <time>2018-06-03T10:03:08Z</time>
      </trkpt>
      <trkpt lat="45.97422" lon="4.70748">
        <ele>240</ele>
        <time>2018-06-03T10:03:09Z</time>
      </trkpt>
      <trkpt lat="45.97429" lon="4.70748">
        <ele>239</ele>
        <time>2018-06-03T10:03:10Z</time>
      </trkpt>
      <trkpt lat="45.97437" lon="4.70749">
        <ele>239</ele>
        <time>2018-06-03T10:03:11Z</time>
      </trkpt>
      <trkpt lat="45.97445" lon="4.7075">
        <ele>238</ele>
        <time>2018-06-03T10:03:12Z</time>
      </trkpt>
      <trkpt lat="45.97453" lon="4.7075">
        <ele>238</ele>
        <time>2018-06-03T10:03:13Z</time>
      </trkpt>
      <trkpt lat="45.97461" lon="4.70748">
        <ele>238</ele>
        <time>2018-06-03T10:03:14Z</time>
      </trkpt>
      <trkpt lat="45.97467" lon="4.70747">
        <ele>238</ele>
        <time>2018-06-03T10:03:15Z</time>
      </trkpt>
      <trkpt lat="45.97474" lon="4.70745">
        <ele>237</ele>
        <time>2018-06-03T10:03:16Z</time>
      </trkpt>
      <trkpt lat="45.9748" lon="4.70742">
        <ele>237</ele>
        <time>2018-06-03T10:03:17Z</time>
      </trkpt>
      <trkpt lat="45.97486" lon="4.70743">
        <ele>237</ele>
        <time>2018-06-03T10:03:18Z</time>
      </trkpt>
      <trkpt lat="45.97493" lon="4.70741">
        <ele>237</ele>
        <time>2018-06-03T10:03:19Z</time>
      </trkpt>
      <trkpt lat="45.975" lon="4.7074">
        <ele>235</ele>
        <time>2018-06-03T10:03:20Z</time>
      </trkpt>
      <trkpt lat="45.97506" lon="4.70739">
        <ele>235</ele>
        <time>2018-06-03T10:03:21Z</time>
      </trkpt>
      <trkpt lat="45.97512" lon="4.70738">
        <ele>235</ele>
        <time>2018-06-03T10:03:22Z</time>
      </trkpt>
      <trkpt lat="45.97519" lon="4.70736">
        <ele>234</ele>
        <time>2018-06-03T10:03:23Z</time>
      </trkpt>
      <trkpt lat="45.97526" lon="4.70735">
        <ele>234</ele>
        <time>2018-06-03T10:03:24Z</time>
      </trkpt>
      <trkpt lat="45.97533" lon="4.70735">
        <ele>234</ele>
        <time>2018-06-03T10:03:25Z</time>
      </trkpt>
      <trkpt lat="45.9754" lon="4.70734">
        <ele>234</ele>
        <time>2018-06-03T10:03:26Z</time>
      </trkpt>
      <trkpt lat="45.97547" lon="4.70733">
        <ele>233</ele>
        <time>2018-06-03T10:03:27Z</time>
      </trkpt>
      <trkpt lat="45.97553" lon="4.70732">
        <ele>233</ele>
        <time>2018-06-03T10:03:28Z</time>
      </trkpt>
      <trkpt lat="45.97561" lon="4.70729">
        <ele>233</ele>
        <time>2018-06-03T10:03:29Z</time>
      </trkpt>
      <trkpt lat="45.97568" lon="4.70726">
        <ele>233</ele>
        <time>2018-06-03T10:03:30Z</time>
      </trkpt>
      <trkpt lat="45.97575" lon="4.70725">
        <ele>232</ele>
        <time>2018-06-03T10:03:31Z</time>
      </trkpt>
      <trkpt lat="45.97583" lon="4.70726">
        <ele>232</ele>
        <time>2018-06-03T10:03:32Z</time>
      </trkpt>
      <trkpt lat="45.97591" lon="4.70728">
        <ele>229</ele>
        <time>2018-06-03T10:03:33Z</time>
      </trkpt>
      <trkpt lat="45.97599" lon="4.70729">
        <ele>229</ele>
        <time>2018-06-03T10:03:34Z</time>
      </trkpt>
      <trkpt lat="45.97607" lon="4.70731">
        <ele>229</ele>
        <time>2018-06-03T10:03:35Z</time>
      </trkpt>
      <trkpt lat="45.97616" lon="4.70733">
        <ele>228</ele>
        <time>2018-06-03T10:03:36Z</time>
      </trkpt>
      <trkpt lat="45.97624" lon="4.70736">
        <ele>228</ele>
        <time>2018-06-03T10:03:37Z</time>
      </trkpt>
      <trkpt lat="45.97632" lon="4.70739">
        <ele>227</ele>
        <time>2018-06-03T10:03:38Z</time>
      </trkpt>
      <trkpt lat="45.97641" lon="4.70743">
        <ele>227</ele>
        <time>2018-06-03T10:03:39Z</time>
      </trkpt>
      <trkpt lat="45.97649" lon="4.70746">
        <ele>226</ele>
        <time>2018-06-03T10:03:40Z</time>
      </trkpt>
      <trkpt lat="45.97657" lon="4.7075">
        <ele>225</ele>
        <time>2018-06-03T10:03:41Z</time>
      </trkpt>
      <trkpt lat="45.97666" lon="4.70752">
        <ele>224</ele>
        <time>2018-06-03T10:03:42Z</time>
      </trkpt>
      <trkpt lat="45.97674" lon="4.70756">
        <ele>224</ele>
        <time>2018-06-03T10:03:43Z</time>
      </trkpt>
      <trkpt lat="45.97683" lon="4.70758">
        <ele>223</ele>
        <time>2018-06-03T10:03:44Z</time>
      </trkpt>
      <trkpt lat="45.97692" lon="4.70762">
        <ele>223</ele>
        <time>2018-06-03T10:03:45Z</time>
      </trkpt>
      <trkpt lat="45.977" lon="4.70765">
        <ele>223</ele>
        <time>2018-06-03T10:03:46Z</time>
      </trkpt>
      <trkpt lat="45.97708" lon="4.70768">
        <ele>223</ele>
        <time>2018-06-03T10:03:47Z</time>
      </trkpt>
      <trkpt lat="45.97717" lon="4.7077">
        <ele>223</ele>
        <time>2018-06-03T10:03:48Z</time>
      </trkpt>
      <trkpt lat="45.97725" lon="4.70773">
        <ele>222</ele>
        <time>2018-06-03T10:03:49Z</time>
      </trkpt>
      <trkpt lat="45.97734" lon="4.70775">
        <ele>222</ele>
        <time>2018-06-03T10:03:50Z</time>
      </trkpt>
      <trkpt lat="45.97739" lon="4.70776">
        <ele>222</ele>
        <time>2018-06-03T10:03:51Z</time>
      </trkpt>
      <trkpt lat="45.97746" lon="4.70779">
        <ele>222</ele>
        <time>2018-06-03T10:03:52Z</time>
      </trkpt>
      <trkpt lat="45.97753" lon="4.7078">
        <ele>221</ele>
        <time>2018-06-03T10:03:53Z</time>
      </trkpt>
      <trkpt lat="45.97758" lon="4.70781">
        <ele>221</ele>
        <time>2018-06-03T10:03:54Z</time>
      </trkpt>
      <trkpt lat="45.97766" lon="4.70783">
        <ele>221</ele>
        <time>2018-06-03T10:03:55Z</time>
      </trkpt>
      <trkpt lat="45.97772" lon="4.70786">
        <ele>221</ele>
        <time>2018-06-03T10:03:56Z</time>
      </trkpt>
      <trkpt lat="45.97777" lon="4.70789">
        <ele>221</ele>
        <time>2018-06-03T10:03:57Z</time>
      </trkpt>
      <trkpt lat="45.97781" lon="4.70794">
        <ele>221</ele>
        <time>2018-06-03T10:03:58Z</time>
      </trkpt>
      <trkpt lat="45.97787" lon="4.70798">
        <ele>221</ele>
        <time>2018-06-03T10:03:59Z</time>
      </trkpt>
      <trkpt lat="45.97793" lon="4.70801">
        <ele>221</ele>
        <time>2018-06-03T10:04:00Z</time>
      </trkpt>
      <trkpt lat="45.97799" lon="4.70808">
        <ele>221</ele>
        <time>2018-06-03T10:04:01Z</time>
      </trkpt>
      <trkpt lat="45.97802" lon="4.70814">
        <ele>221</ele>
        <time>2018-06-03T10:04:02Z</time>
      </trkpt>
      <trkpt lat="45.97806" lon="4.70822">
        <ele>221</ele>
        <time>2018-06-03T10:04:03Z</time>
      </trkpt>
      <trkpt lat="45.9781" lon="4.7083">
        <ele>221</ele>
        <time>2018-06-03T10:04:04Z</time>
      </trkpt>
      <trkpt lat="45.97812" lon="4.70839">
        <ele>220</ele>
        <time>2018-06-03T10:04:05Z</time>
      </trkpt>
      <trkpt lat="45.97815" lon="4.70847">
        <ele>220</ele>
        <time>2018-06-03T10:04:06Z</time>
      </trkpt>
      <trkpt lat="45.97816" lon="4.70857">
        <ele>220</ele>
        <time>2018-06-03T10:04:07Z</time>
      </trkpt>
      <trkpt lat="45.97818" lon="4.70867">
        <ele>220</ele>
        <time>2018-06-03T10:04:08Z</time>
      </trkpt>
      <trkpt lat="45.9782" lon="4.70875">
        <ele>220</ele>
        <time>2018-06-03T10:04:09Z</time>
      </trkpt>
      <trkpt lat="45.97819" lon="4.70885">
        <ele>220</ele>
        <time>2018-06-03T10:04:10Z</time>
      </trkpt>
      <trkpt lat="45.9782" lon="4.70897">
        <ele>220</ele>
        <time>2018-06-03T10:04:11Z</time>
      </trkpt>
      <trkpt lat="45.9782" lon="4.70908">
        <ele>219</ele>
        <time>2018-06-03T10:04:12Z</time>
      </trkpt>
      <trkpt lat="45.9782" lon="4.70918">
        <ele>219</ele>
        <time>2018-06-03T10:04:13Z</time>
      </trkpt>
      <trkpt lat="45.97822" lon="4.70927">
        <ele>219</ele>
        <time>2018-06-03T10:04:14Z</time>
      </trkpt>
      <trkpt lat="45.97825" lon="4.70936">
        <ele>218</ele>
        <time>2018-06-03T10:04:15Z</time>
      </trkpt>
      <trkpt lat="45.9783" lon="4.70945">
        <ele>218</ele>
        <time>2018-06-03T10:04:16Z</time>
      </trkpt>
      <trkpt lat="45.97833" lon="4.70955">
        <ele>218</ele>
        <time>2018-06-03T10:04:17Z</time>
      </trkpt>
      <trkpt lat="45.97835" lon="4.70966">
        <ele>217</ele>
        <time>2018-06-03T10:04:18Z</time>
      </trkpt>
      <trkpt lat="45.97836" lon="4.70976">
        <ele>217</ele>
        <time>2018-06-03T10:04:19Z</time>
      </trkpt>
      <trkpt lat="45.97836" lon="4.70987">
        <ele>217</ele>
        <time>2018-06-03T10:04:20Z</time>
      </trkpt>
      <trkpt lat="45.9784" lon="4.70997">
        <ele>216</ele>
        <time>2018-06-03T10:04:21Z</time>
      </trkpt>
      <trkpt lat="45.9784" lon="4.71011">
        <ele>216</ele>
        <time>2018-06-03T10:04:22Z</time>
      </trkpt>
      <trkpt lat="45.97843" lon="4.71024">
        <ele>216</ele>
        <time>2018-06-03T10:04:23Z</time>
      </trkpt>
      <trkpt lat="45.97845" lon="4.71036">
        <ele>216</ele>
        <time>2018-06-03T10:04:24Z</time>
      </trkpt>
      <trkpt lat="45.97847" lon="4.71049">
        <ele>215</ele>
        <time>2018-06-03T10:04:25Z</time>
      </trkpt>
      <trkpt lat="45.97851" lon="4.71063">
        <ele>215</ele>
        <time>2018-06-03T10:04:26Z</time>
      </trkpt>
      <trkpt lat="45.97851" lon="4.71076">
        <ele>215</ele>
        <time>2018-06-03T10:04:27Z</time>
      </trkpt>
      <trkpt lat="45.97852" lon="4.71087">
        <ele>213</ele>
        <time>2018-06-03T10:04:28Z</time>
      </trkpt>
      <trkpt lat="45.97854" lon="4.711">
        <ele>213</ele>
        <time>2018-06-03T10:04:29Z</time>
      </trkpt>
      <trkpt lat="45.97855" lon="4.71114">
        <ele>213</ele>
        <time>2018-06-03T10:04:30Z</time>
      </trkpt>
      <trkpt lat="45.97857" lon="4.71128">
        <ele>212</ele>
        <time>2018-06-03T10:04:31Z</time>
      </trkpt>
      <trkpt lat="45.97858" lon="4.7114">
        <ele>212</ele>
        <time>2018-06-03T10:04:32Z</time>
      </trkpt>
      <trkpt lat="45.97857" lon="4.71153">
        <ele>212</ele>
        <time>2018-06-03T10:04:33Z</time>
      </trkpt>
      <trkpt lat="45.97858" lon="4.71165">
        <ele>212</ele>
        <time>2018-06-03T10:04:34Z</time>
      </trkpt>
      <trkpt lat="45.97858" lon="4.71178">
        <ele>209</ele>
        <time>2018-06-03T10:04:35Z</time>
      </trkpt>
      <trkpt lat="45.97857" lon="4.7119">
        <ele>209</ele>
        <time>2018-06-03T10:04:36Z</time>
      </trkpt>
      <trkpt lat="45.97856" lon="4.71202">
        <ele>209</ele>
        <time>2018-06-03T10:04:37Z</time>
      </trkpt>
      <trkpt lat="45.97856" lon="4.71216">
        <ele>208</ele>
        <time>2018-06-03T10:04:38Z</time>
      </trkpt>
      <trkpt lat="45.97857" lon="4.71229">
        <ele>208</ele>
        <time>2018-06-03T10:04:39Z</time>
      </trkpt>
      <trkpt lat="45.97857" lon="4.71241">
        <ele>208</ele>
        <time>2018-06-03T10:04:40Z</time>
      </trkpt>
      <trkpt lat="45.97857" lon="4.71255">
        <ele>206</ele>
        <time>2018-06-03T10:04:41Z</time>
      </trkpt>
      <trkpt lat="45.97857" lon="4.71267">
        <ele>206</ele>
        <time>2018-06-03T10:04:42Z</time>
      </trkpt>
      <trkpt lat="45.97856" lon="4.7128">
        <ele>206</ele>
        <time>2018-06-03T10:04:43Z</time>
      </trkpt>
      <trkpt lat="45.97855" lon="4.71294">
        <ele>206</ele>
        <time>2018-06-03T10:04:44Z</time>
      </trkpt>
      <trkpt lat="45.97856" lon="4.71307">
        <ele>205</ele>
        <time>2018-06-03T10:04:45Z</time>
      </trkpt>
      <trkpt lat="45.97856" lon="4.7132">
        <ele>205</ele>
        <time>2018-06-03T10:04:46Z</time>
      </trkpt>
      <trkpt lat="45.97856" lon="4.71331">
        <ele>205</ele>
        <time>2018-06-03T10:04:47Z</time>
      </trkpt>
      <trkpt lat="45.97854" lon="4.71342">
        <ele>204</ele>
        <time>2018-06-03T10:04:48Z</time>
      </trkpt>
      <trkpt lat="45.97852" lon="4.71354">
        <ele>204</ele>
        <time>2018-06-03T10:04:49Z</time>
      </trkpt>
      <trkpt lat="45.97853" lon="4.71366">
        <ele>203</ele>
        <time>2018-06-03T10:04:50Z</time>
      </trkpt>
      <trkpt lat="45.97853" lon="4.7138">
        <ele>203</ele>
        <time>2018-06-03T10:04:51Z</time>
      </trkpt>
      <trkpt lat="45.97855" lon="4.71392">
        <ele>203</ele>
        <time>2018-06-03T10:04:52Z</time>
      </trkpt>
      <trkpt lat="45.97856" lon="4.71405">
        <ele>203</ele>
        <time>2018-06-03T10:04:53Z</time>
      </trkpt>
      <trkpt lat="45.97858" lon="4.71417">
        <ele>202</ele>
        <time>2018-06-03T10:04:54Z</time>
      </trkpt>
      <trkpt lat="45.97859" lon="4.7143">
        <ele>201</ele>
        <time>2018-06-03T10:04:55Z</time>
      </trkpt>
      <trkpt lat="45.97861" lon="4.71442">
        <ele>201</ele>
        <time>2018-06-03T10:04:56Z</time>
      </trkpt>
      <trkpt lat="45.97861" lon="4.71454">
        <ele>201</ele>
        <time>2018-06-03T10:04:57Z</time>
      </trkpt>
      <trkpt lat="45.97864" lon="4.71467">
        <ele>201</ele>
        <time>2018-06-03T10:04:58Z</time>
      </trkpt>
      <trkpt lat="45.97866" lon="4.71479">
        <ele>201</ele>
        <time>2018-06-03T10:04:59Z</time>
      </trkpt>
      <trkpt lat="45.97869" lon="4.71494">
        <ele>201</ele>
        <time>2018-06-03T10:05:00Z</time>
      </trkpt>
      <trkpt lat="45.97871" lon="4.71506">
        <ele>199</ele>
        <time>2018-06-03T10:05:01Z</time>
      </trkpt>
      <trkpt lat="45.97873" lon="4.71519">
        <ele>199</ele>
        <time>2018-06-03T10:05:02Z</time>
      </trkpt>
      <trkpt lat="45.97876" lon="4.71531">
        <ele>199</ele>
        <time>2018-06-03T10:05:03Z</time>
      </trkpt>
      <trkpt lat="45.97878" lon="4.71543">
        <ele>199</ele>
        <time>2018-06-03T10:05:04Z</time>
      </trkpt>
      <trkpt lat="45.9788" lon="4.71556">
        <ele>198</ele>
        <time>2018-06-03T10:05:05Z</time>
      </trkpt>
      <trkpt lat="45.97881" lon="4.71568">
        <ele>198</ele>
        <time>2018-06-03T10:05:06Z</time>
      </trkpt>
      <trkpt lat="45.97882" lon="4.71581">
        <ele>198</ele>
        <time>2018-06-03T10:05:07Z</time>
      </trkpt>
      <trkpt lat="45.97882" lon="4.71595">
        <ele>197</ele>
        <time>2018-06-03T10:05:08Z</time>
      </trkpt>
      <trkpt lat="45.97884" lon="4.71606">
        <ele>197</ele>
        <time>2018-06-03T10:05:09Z</time>
      </trkpt>
      <trkpt lat="45.97883" lon="4.71615">
        <ele>197</ele>
        <time>2018-06-03T10:05:10Z</time>
      </trkpt>
      <trkpt lat="45.97884" lon="4.71627">
        <ele>197</ele>
        <time>2018-06-03T10:05:11Z</time>
      </trkpt>
      <trkpt lat="45.97884" lon="4.71638">
        <ele>197</ele>
        <time>2018-06-03T10:05:12Z</time>
      </trkpt>
      <trkpt lat="45.9788" lon="4.71649">
        <ele>197</ele>
        <time>2018-06-03T10:05:13Z</time>
      </trkpt>
      <trkpt lat="45.9788" lon="4.71659">
        <ele>197</ele>
        <time>2018-06-03T10:05:14Z</time>
      </trkpt>
      <trkpt lat="45.97877" lon="4.71671">
        <ele>196</ele>
        <time>2018-06-03T10:05:15Z</time>
      </trkpt>
      <trkpt lat="45.97874" lon="4.71682">
        <ele>196</ele>
        <time>2018-06-03T10:05:16Z</time>
      </trkpt>
      <trkpt lat="45.97872" lon="4.71693">
        <ele>196</ele>
        <time>2018-06-03T10:05:17Z</time>
      </trkpt>
      <trkpt lat="45.97871" lon="4.71704">
        <ele>196</ele>
        <time>2018-06-03T10:05:18Z</time>
      </trkpt>
      <trkpt lat="45.97869" lon="4.71714">
        <ele>196</ele>
        <time>2018-06-03T10:05:19Z</time>
      </trkpt>
      <trkpt lat="45.97864" lon="4.71721">
        <ele>196</ele>
        <time>2018-06-03T10:05:20Z</time>
      </trkpt>
      <trkpt lat="45.9786" lon="4.71727">
        <ele>196</ele>
        <time>2018-06-03T10:05:21Z</time>
      </trkpt>
      <trkpt lat="45.97856" lon="4.71735">
        <ele>196</ele>
        <time>2018-06-03T10:05:22Z</time>
      </trkpt>
      <trkpt lat="45.9785" lon="4.7174">
        <ele>196</ele>
        <time>2018-06-03T10:05:23Z</time>
      </trkpt>
      <trkpt lat="45.97843" lon="4.71743">
        <ele>195</ele>
        <time>2018-06-03T10:05:24Z</time>
      </trkpt>
      <trkpt lat="45.97838" lon="4.71744">
        <ele>195</ele>
        <time>2018-06-03T10:05:25Z</time>
      </trkpt>
      <trkpt lat="45.97831" lon="4.71744">
        <ele>195</ele>
        <time>2018-06-03T10:05:26Z</time>
      </trkpt>
      <trkpt lat="45.97826" lon="4.71743">
        <ele>196</ele>
        <time>2018-06-03T10:05:27Z</time>
      </trkpt>
      <trkpt lat="45.97819" lon="4.71743">
        <ele>196</ele>
        <time>2018-06-03T10:05:28Z</time>
      </trkpt>
      <trkpt lat="45.97814" lon="4.71742">
        <ele>196</ele>
        <time>2018-06-03T10:05:29Z</time>
      </trkpt>
      <trkpt lat="45.97808" lon="4.71742">
        <ele>196</ele>
        <time>2018-06-03T10:05:30Z</time>
      </trkpt>
      <trkpt lat="45.97801" lon="4.71742">
        <ele>196</ele>
        <time>2018-06-03T10:05:31Z</time>
      </trkpt>
      <trkpt lat="45.97795" lon="4.71741">
        <ele>196</ele>
        <time>2018-06-03T10:05:32Z</time>
      </trkpt>
      <trkpt lat="45.9779" lon="4.7174">
        <ele>196</ele>
        <time>2018-06-03T10:05:33Z</time>
      </trkpt>
      <trkpt lat="45.97783" lon="4.71739">
        <ele>196</ele>
        <time>2018-06-03T10:05:34Z</time>
      </trkpt>
      <trkpt lat="45.97777" lon="4.71738">
        <ele>196</ele>
        <time>2018-06-03T10:05:35Z</time>
      </trkpt>
      <trkpt lat="45.97771" lon="4.71737">
        <ele>196</ele>
        <time>2018-06-03T10:05:36Z</time>
      </trkpt>
      <trkpt lat="45.97765" lon="4.71736">
        <ele>196</ele>
        <time>2018-06-03T10:05:37Z</time>
      </trkpt>
      <trkpt lat="45.97758" lon="4.71735">
        <ele>196</ele>
        <time>2018-06-03T10:05:38Z</time>
      </trkpt>
      <trkpt lat="45.97751" lon="4.71734">
        <ele>196</ele>
        <time>2018-06-03T10:05:39Z</time>
      </trkpt>
      <trkpt lat="45.97745" lon="4.71734">
        <ele>196</ele>
        <time>2018-06-03T10:05:40Z</time>
      </trkpt>
      <trkpt lat="45.97738" lon="4.71734">
        <ele>196</ele>
        <time>2018-06-03T10:05:41Z</time>
      </trkpt>
      <trkpt lat="45.97732" lon="4.71732">
        <ele>196</ele>
        <time>2018-06-03T10:05:42Z</time>
      </trkpt>
      <trkpt lat="45.97725" lon="4.71731">
        <ele>196</ele>
        <time>2018-06-03T10:05:43Z</time>
      </trkpt>
      <trkpt lat="45.97718" lon="4.71733">
        <ele>196</ele>
        <time>2018-06-03T10:05:44Z</time>
      </trkpt>
      <trkpt lat="45.97712" lon="4.71732">
        <ele>196</ele>
        <time>2018-06-03T10:05:45Z</time>
      </trkpt>
      <trkpt lat="45.97705" lon="4.7173">
        <ele>196</ele>
        <time>2018-06-03T10:05:46Z</time>
      </trkpt>
      <trkpt lat="45.97699" lon="4.7173">
        <ele>196</ele>
        <time>2018-06-03T10:05:47Z</time>
      </trkpt>
      <trkpt lat="45.97693" lon="4.71728">
        <ele>196</ele>
        <time>2018-06-03T10:05:48Z</time>
      </trkpt>
      <trkpt lat="45.97686" lon="4.71727">
        <ele>196</ele>
        <time>2018-06-03T10:05:49Z</time>
      </trkpt>
      <trkpt lat="45.9768" lon="4.71726">
        <ele>196</ele>
        <time>2018-06-03T10:05:50Z</time>
      </trkpt>
      <trkpt lat="45.97674" lon="4.71726">
        <ele>196</ele>
        <time>2018-06-03T10:05:51Z</time>
      </trkpt>
      <trkpt lat="45.97668" lon="4.71726">
        <ele>196</ele>
        <time>2018-06-03T10:05:52Z</time>
      </trkpt>
      <trkpt lat="45.97662" lon="4.71724">
        <ele>196</ele>
        <time>2018-06-03T10:05:53Z</time>
      </trkpt>
      <trkpt lat="45.97656" lon="4.71724">
        <ele>196</ele>
        <time>2018-06-03T10:05:54Z</time>
      </trkpt>
      <trkpt lat="45.9765" lon="4.71722">
        <ele>196</ele>
        <time>2018-06-03T10:05:55Z</time>
      </trkpt>
      <trkpt lat="45.97644" lon="4.71722">
        <ele>196</ele>
        <time>2018-06-03T10:05:56Z</time>
      </trkpt>
      <trkpt lat="45.97638" lon="4.71721">
        <ele>197</ele>
        <time>2018-06-03T10:05:57Z</time>
      </trkpt>
      <trkpt lat="45.97634" lon="4.71717">
        <ele>197</ele>
        <time>2018-06-03T10:05:58Z</time>
      </trkpt>
      <trkpt lat="45.97631" lon="4.71712">
        <ele>197</ele>
        <time>2018-06-03T10:05:59Z</time>
      </trkpt>
      <trkpt lat="45.97622" lon="4.71714">
        <ele>197</ele>
        <time>2018-06-03T10:06:00Z</time>
      </trkpt>
      <trkpt lat="45.97618" lon="4.71712">
        <ele>197</ele>
        <time>2018-06-03T10:06:01Z</time>
      </trkpt>
      <trkpt lat="45.97612" lon="4.71709">
        <ele>197</ele>
        <time>2018-06-03T10:06:02Z</time>
      </trkpt>
      <trkpt lat="45.97607" lon="4.7171">
        <ele>197</ele>
        <time>2018-06-03T10:06:03Z</time>
      </trkpt>
      <trkpt lat="45.97603" lon="4.71715">
        <ele>197</ele>
        <time>2018-06-03T10:06:04Z</time>
      </trkpt>
      <trkpt lat="45.976" lon="4.71718">
        <ele>197</ele>
        <time>2018-06-03T10:06:05Z</time>
      </trkpt>
      <trkpt lat="45.97595" lon="4.71723">
        <ele>197</ele>
        <time>2018-06-03T10:06:06Z</time>
      </trkpt>
      <trkpt lat="45.97589" lon="4.71724">
        <ele>197</ele>
        <time>2018-06-03T10:06:07Z</time>
      </trkpt>
      <trkpt lat="45.97583" lon="4.71724">
        <ele>197</ele>
        <time>2018-06-03T10:06:08Z</time>
      </trkpt>
      <trkpt lat="45.97578" lon="4.71724">
        <ele>197</ele>
        <time>2018-06-03T10:06:09Z</time>
      </trkpt>
      <trkpt lat="45.97573" lon="4.71724">
        <ele>197</ele>
        <time>2018-06-03T10:06:10Z</time>
      </trkpt>
      <trkpt lat="45.97567" lon="4.71723">
        <ele>198</ele>
        <time>2018-06-03T10:06:11Z</time>
      </trkpt>
      <trkpt lat="45.97561" lon="4.71722">
        <ele>198</ele>
        <time>2018-06-03T10:06:12Z</time>
      </trkpt>
      <trkpt lat="45.97555" lon="4.71721">
        <ele>198</ele>
        <time>2018-06-03T10:06:13Z</time>
      </trkpt>
      <trkpt lat="45.9755" lon="4.71721">
        <ele>198</ele>
        <time>2018-06-03T10:06:14Z</time>
      </trkpt>
      <trkpt lat="45.97544" lon="4.7172">
        <ele>198</ele>
        <time>2018-06-03T10:06:15Z</time>
      </trkpt>
      <trkpt lat="45.97538" lon="4.71718">
        <ele>198</ele>
        <time>2018-06-03T10:06:16Z</time>
      </trkpt>
      <trkpt lat="45.97534" lon="4.71718">
        <ele>198</ele>
        <time>2018-06-03T10:06:17Z</time>
      </trkpt>
      <trkpt lat="45.97528" lon="4.71717">
        <ele>198</ele>
        <time>2018-06-03T10:06:18Z</time>
      </trkpt>
      <trkpt lat="45.97523" lon="4.71716">
        <ele>198</ele>
        <time>2018-06-03T10:06:19Z</time>
      </trkpt>
      <trkpt lat="45.97517" lon="4.71714">
        <ele>198</ele>
        <time>2018-06-03T10:06:20Z</time>
      </trkpt>
      <trkpt lat="45.97513" lon="4.71714">
        <ele>198</ele>
        <time>2018-06-03T10:06:21Z</time>
      </trkpt>
      <trkpt lat="45.97506" lon="4.71713">
        <ele>199</ele>
        <time>2018-06-03T10:06:22Z</time>
      </trkpt>
      <trkpt lat="45.975" lon="4.71712">
        <ele>198</ele>
        <time>2018-06-03T10:06:23Z</time>
      </trkpt>
      <trkpt lat="45.97494" lon="4.71712">
        <ele>198</ele>
        <time>2018-06-03T10:06:24Z</time>
      </trkpt>
      <trkpt lat="45.97488" lon="4.71712">
        <ele>198</ele>
        <time>2018-06-03T10:06:25Z</time>
      </trkpt>
      <trkpt lat="45.97481" lon="4.71714">
        <ele>198</ele>
        <time>2018-06-03T10:06:26Z</time>
      </trkpt>
      <trkpt lat="45.97476" lon="4.71713">
        <ele>197</ele>
        <time>2018-06-03T10:06:27Z</time>
      </trkpt>
      <trkpt lat="45.97469" lon="4.71711">
        <ele>197</ele>
        <time>2018-06-03T10:06:28Z</time>
      </trkpt>
      <trkpt lat="45.97462" lon="4.71711">
        <ele>197</ele>
        <time>2018-06-03T10:06:29Z</time>
      </trkpt>
      <trkpt lat="45.97456" lon="4.71713">
        <ele>197</ele>
        <time>2018-06-03T10:06:30Z</time>
      </trkpt>
      <trkpt lat="45.97451" lon="4.71714">
        <ele>197</ele>
        <time>2018-06-03T10:06:31Z</time>
      </trkpt>
      <trkpt lat="45.97445" lon="4.71714">
        <ele>197</ele>
        <time>2018-06-03T10:06:32Z</time>
      </trkpt>
      <trkpt lat="45.97438" lon="4.71713">
        <ele>197</ele>
        <time>2018-06-03T10:06:33Z</time>
      </trkpt>
      <trkpt lat="45.97433" lon="4.71713">
        <ele>196</ele>
        <time>2018-06-03T10:06:34Z</time>
      </trkpt>
      <trkpt lat="45.97427" lon="4.71713">
        <ele>196</ele>
        <time>2018-06-03T10:06:35Z</time>
      </trkpt>
      <trkpt lat="45.97421" lon="4.71711">
        <ele>196</ele>
        <time>2018-06-03T10:06:36Z</time>
      </trkpt>
      <trkpt lat="45.97416" lon="4.7171">
        <ele>195</ele>
        <time>2018-06-03T10:06:37Z</time>
      </trkpt>
      <trkpt lat="45.9741" lon="4.71711">
        <ele>195</ele>
        <time>2018-06-03T10:06:38Z</time>
      </trkpt>
      <trkpt lat="45.97405" lon="4.71711">
        <ele>195</ele>
        <time>2018-06-03T10:06:39Z</time>
      </trkpt>
      <trkpt lat="45.97398" lon="4.7171">
        <ele>195</ele>
        <time>2018-06-03T10:06:40Z</time>
      </trkpt>
      <trkpt lat="45.97392" lon="4.71709">
        <ele>195</ele>
        <time>2018-06-03T10:06:41Z</time>
      </trkpt>
      <trkpt lat="45.97388" lon="4.71708">
        <ele>195</ele>
        <time>2018-06-03T10:06:42Z</time>
      </trkpt>
      <trkpt lat="45.97383" lon="4.71706">
        <ele>195</ele>
        <time>2018-06-03T10:06:43Z</time>
      </trkpt>
      <trkpt lat="45.97376" lon="4.71706">
        <ele>195</ele>
        <time>2018-06-03T10:06:44Z</time>
      </trkpt>
      <trkpt lat="45.97371" lon="4.71704">
        <ele>195</ele>
        <time>2018-06-03T10:06:45Z</time>
      </trkpt>
      <trkpt lat="45.97365" lon="4.71704">
        <ele>195</ele>
        <time>2018-06-03T10:06:46Z</time>
      </trkpt>
      <trkpt lat="45.9736" lon="4.71703">
        <ele>195</ele>
        <time>2018-06-03T10:06:47Z</time>
      </trkpt>
      <trkpt lat="45.97353" lon="4.71706">
        <ele>195</ele>
        <time>2018-06-03T10:06:48Z</time>
      </trkpt>
      <trkpt lat="45.97347" lon="4.71705">
        <ele>195</ele>
        <time>2018-06-03T10:06:49Z</time>
      </trkpt>
      <trkpt lat="45.97341" lon="4.71704">
        <ele>195</ele>
        <time>2018-06-03T10:06:50Z</time>
      </trkpt>
      <trkpt lat="45.97337" lon="4.71703">
        <ele>195</ele>
        <time>2018-06-03T10:06:51Z</time>
      </trkpt>
      <trkpt lat="45.97331" lon="4.71702">
        <ele>196</ele>
        <time>2018-06-03T10:06:52Z</time>
      </trkpt>
      <trkpt lat="45.97325" lon="4.71701">
        <ele>196</ele>
        <time>2018-06-03T10:06:53Z</time>
      </trkpt>
      <trkpt lat="45.97321" lon="4.71697">
        <ele>196</ele>
        <time>2018-06-03T10:06:54Z</time>
      </trkpt>
      <trkpt lat="45.97315" lon="4.71693">
        <ele>196</ele>
        <time>2018-06-03T10:06:55Z</time>
      </trkpt>
      <trkpt lat="45.9731" lon="4.7169">
        <ele>196</ele>
        <time>2018-06-03T10:06:56Z</time>
      </trkpt>
      <trkpt lat="45.97303" lon="4.71689">
        <ele>197</ele>
        <time>2018-06-03T10:06:57Z</time>
      </trkpt>
      <trkpt lat="45.97297" lon="4.71691">
        <ele>197</ele>
        <time>2018-06-03T10:06:58Z</time>
      </trkpt>
      <trkpt lat="45.97291" lon="4.71691">
        <ele>197</ele>
        <time>2018-06-03T10:06:59Z</time>
      </trkpt>
      <trkpt lat="45.97284" lon="4.71693">
        <ele>197</ele>
        <time>2018-06-03T10:07:00Z</time>
      </trkpt>
      <trkpt lat="45.97278" lon="4.71695">
        <ele>197</ele>
        <time>2018-06-03T10:07:01Z</time>
      </trkpt>
      <trkpt lat="45.97272" lon="4.71694">
        <ele>197</ele>
        <time>2018-06-03T10:07:02Z</time>
      </trkpt>
      <trkpt lat="45.97265" lon="4.71695">
        <ele>197</ele>
        <time>2018-06-03T10:07:03Z</time>
      </trkpt>
      <trkpt lat="45.97257" lon="4.71696">
        <ele>197</ele>
        <time>2018-06-03T10:07:04Z</time>
      </trkpt>
      <trkpt lat="45.97251" lon="4.71694">
        <ele>197</ele>
        <time>2018-06-03T10:07:05Z</time>
      </trkpt>
      <trkpt lat="45.97244" lon="4.71694">
        <ele>197</ele>
        <time>2018-06-03T10:07:06Z</time>
      </trkpt>
      <trkpt lat="45.97237" lon="4.71693">
        <ele>197</ele>
        <time>2018-06-03T10:07:07Z</time>
      </trkpt>
      <trkpt lat="45.97231" lon="4.71692">
        <ele>197</ele>
        <time>2018-06-03T10:07:08Z</time>
      </trkpt>
      <trkpt lat="45.97223" lon="4.71691">
        <ele>197</ele>
        <time>2018-06-03T10:07:09Z</time>
      </trkpt>
      <trkpt lat="45.97216" lon="4.71689">
        <ele>197</ele>
        <time>2018-06-03T10:07:10Z</time>
      </trkpt>
      <trkpt lat="45.97211" lon="4.71688">
        <ele>197</ele>
        <time>2018-06-03T10:07:11Z</time>
      </trkpt>
      <trkpt lat="45.97206" lon="4.71688">
        <ele>197</ele>
        <time>2018-06-03T10:07:12Z</time>
      </trkpt>
      <trkpt lat="45.972" lon="4.71689">
        <ele>197</ele>
        <time>2018-06-03T10:07:13Z</time>
      </trkpt>
      <trkpt lat="45.97193" lon="4.71687">
        <ele>197</ele>
        <time>2018-06-03T10:07:14Z</time>
      </trkpt>
      <trkpt lat="45.97186" lon="4.71686">
        <ele>197</ele>
        <time>2018-06-03T10:07:15Z</time>
      </trkpt>
      <trkpt lat="45.97179" lon="4.71686">
        <ele>197</ele>
        <time>2018-06-03T10:07:16Z</time>
      </trkpt>
      <trkpt lat="45.97171" lon="4.71685">
        <ele>197</ele>
        <time>2018-06-03T10:07:17Z</time>
      </trkpt>
      <trkpt lat="45.97165" lon="4.71686">
        <ele>196</ele>
        <time>2018-06-03T10:07:18Z</time>
      </trkpt>
      <trkpt lat="45.97158" lon="4.71685">
        <ele>196</ele>
        <time>2018-06-03T10:07:19Z</time>
      </trkpt>
      <trkpt lat="45.97153" lon="4.71683">
        <ele>196</ele>
        <time>2018-06-03T10:07:20Z</time>
      </trkpt>
      <trkpt lat="45.97146" lon="4.71683">
        <ele>195</ele>
        <time>2018-06-03T10:07:21Z</time>
      </trkpt>
      <trkpt lat="45.97139" lon="4.71684">
        <ele>195</ele>
        <time>2018-06-03T10:07:22Z</time>
      </trkpt>
      <trkpt lat="45.97132" lon="4.71685">
        <ele>195</ele>
        <time>2018-06-03T10:07:23Z</time>
      </trkpt>
      <trkpt lat="45.97126" lon="4.71686">
        <ele>195</ele>
        <time>2018-06-03T10:07:24Z</time>
      </trkpt>
      <trkpt lat="45.9712" lon="4.71687">
        <ele>195</ele>
        <time>2018-06-03T10:07:25Z</time>
      </trkpt>
      <trkpt lat="45.97113" lon="4.71686">
        <ele>194</ele>
        <time>2018-06-03T10:07:26Z</time>
      </trkpt>
      <trkpt lat="45.97107" lon="4.71687">
        <ele>194</ele>
        <time>2018-06-03T10:07:27Z</time>
      </trkpt>
      <trkpt lat="45.97101" lon="4.71687">
        <ele>194</ele>
        <time>2018-06-03T10:07:28Z</time>
      </trkpt>
      <trkpt lat="45.97095" lon="4.71686">
        <ele>194</ele>
        <time>2018-06-03T10:07:29Z</time>
      </trkpt>
      <trkpt lat="45.97089" lon="4.71686">
        <ele>194</ele>
        <time>2018-06-03T10:07:30Z</time>
      </trkpt>
      <trkpt lat="45.97083" lon="4.71684">
        <ele>193</ele>
        <time>2018-06-03T10:07:31Z</time>
      </trkpt>
      <trkpt lat="45.97076" lon="4.71683">
        <ele>193</ele>
        <time>2018-06-03T10:07:32Z</time>
      </trkpt>
      <trkpt lat="45.97069" lon="4.71683">
        <ele>193</ele>
        <time>2018-06-03T10:07:33Z</time>
      </trkpt>
      <trkpt lat="45.97063" lon="4.71681">
        <ele>193</ele>
        <time>2018-06-03T10:07:34Z</time>
      </trkpt>
      <trkpt lat="45.97056" lon="4.71681">
        <ele>193</ele>
        <time>2018-06-03T10:07:35Z</time>
      </trkpt>
      <trkpt lat="45.97051" lon="4.71677">
        <ele>193</ele>
        <time>2018-06-03T10:07:36Z</time>
      </trkpt>
      <trkpt lat="45.97045" lon="4.71676">
        <ele>193</ele>
        <time>2018-06-03T10:07:37Z</time>
      </trkpt>
      <trkpt lat="45.9704" lon="4.71673">
        <ele>193</ele>
        <time>2018-06-03T10:07:38Z</time>
      </trkpt>
      <trkpt lat="45.97033" lon="4.71673">
        <ele>193</ele>
        <time>2018-06-03T10:07:39Z</time>
      </trkpt>
      <trkpt lat="45.97027" lon="4.71674">
        <ele>193</ele>
        <time>2018-06-03T10:07:40Z</time>
      </trkpt>
      <trkpt lat="45.9702" lon="4.71674">
        <ele>193</ele>
        <time>2018-06-03T10:07:41Z</time>
      </trkpt>
      <trkpt lat="45.97015" lon="4.71674">
        <ele>193</ele>
        <time>2018-06-03T10:07:42Z</time>
      </trkpt>
      <trkpt lat="45.97007" lon="4.71676">
        <ele>193</ele>
        <time>2018-06-03T10:07:43Z</time>
      </trkpt>
      <trkpt lat="45.97001" lon="4.71675">
        <ele>193</ele>
        <time>2018-06-03T10:07:44Z</time>
      </trkpt>
      <trkpt lat="45.96994" lon="4.71675">
        <ele>193</ele>
        <time>2018-06-03T10:07:45Z</time>
      </trkpt>
      <trkpt lat="45.96988" lon="4.71674">
        <ele>193</ele>
        <time>2018-06-03T10:07:46Z</time>
      </trkpt>
      <trkpt lat="45.96981" lon="4.71674">
        <ele>192</ele>
        <time>2018-06-03T10:07:47Z</time>
      </trkpt>
      <trkpt lat="45.96975" lon="4.71672">
        <ele>192</ele>
        <time>2018-06-03T10:07:48Z</time>
      </trkpt>
      <trkpt lat="45.96969" lon="4.71671">
        <ele>192</ele>
        <time>2018-06-03T10:07:49Z</time>
      </trkpt>
      <trkpt lat="45.96962" lon="4.71672">
        <ele>192</ele>
        <time>2018-06-03T10:07:50Z</time>
      </trkpt>
      <trkpt lat="45.96955" lon="4.71672">
        <ele>192</ele>
        <time>2018-06-03T10:07:51Z</time>
      </trkpt>
      <trkpt lat="45.96948" lon="4.71672">
        <ele>192</ele>
        <time>2018-06-03T10:07:52Z</time>
      </trkpt>
      <trkpt lat="45.9694" lon="4.71671">
        <ele>192</ele>
        <time>2018-06-03T10:07:53Z</time>
      </trkpt>
      <trkpt lat="45.96932" lon="4.71671">
        <ele>193</ele>
        <time>2018-06-03T10:07:54Z</time>
      </trkpt>
      <trkpt lat="45.96926" lon="4.71671">
        <ele>193</ele>
        <time>2018-06-03T10:07:55Z</time>
      </trkpt>
      <trkpt lat="45.96919" lon="4.71672">
        <ele>194</ele>
        <time>2018-06-03T10:07:56Z</time>
      </trkpt>
      <trkpt lat="45.96911" lon="4.71672">
        <ele>193</ele>
        <time>2018-06-03T10:07:57Z</time>
      </trkpt>
      <trkpt lat="45.96904" lon="4.7167">
        <ele>192</ele>
        <time>2018-06-03T10:07:58Z</time>
      </trkpt>
      <trkpt lat="45.96897" lon="4.71671">
        <ele>192</ele>
        <time>2018-06-03T10:07:59Z</time>
      </trkpt>
      <trkpt lat="45.9689" lon="4.71671">
        <ele>191</ele>
        <time>2018-06-03T10:08:00Z</time>
      </trkpt>
      <trkpt lat="45.96882" lon="4.71669">
        <ele>191</ele>
        <time>2018-06-03T10:08:01Z</time>
      </trkpt>
      <trkpt lat="45.96875" lon="4.71667">
        <ele>191</ele>
        <time>2018-06-03T10:08:02Z</time>
      </trkpt>
      <trkpt lat="45.96867" lon="4.71667">
        <ele>195</ele>
        <time>2018-06-03T10:08:03Z</time>
      </trkpt>
      <trkpt lat="45.9686" lon="4.71666">
        <ele>194</ele>
        <time>2018-06-03T10:08:04Z</time>
      </trkpt>
      <trkpt lat="45.96853" lon="4.71665">
        <ele>194</ele>
        <time>2018-06-03T10:08:05Z</time>
      </trkpt>
      <trkpt lat="45.96846" lon="4.71664">
        <ele>194</ele>
        <time>2018-06-03T10:08:06Z</time>
      </trkpt>
      <trkpt lat="45.9684" lon="4.71663">
        <ele>193</ele>
        <time>2018-06-03T10:08:07Z</time>
      </trkpt>
      <trkpt lat="45.96834" lon="4.71663">
        <ele>193</ele>
        <time>2018-06-03T10:08:08Z</time>
      </trkpt>
      <trkpt lat="45.96828" lon="4.71662">
        <ele>192</ele>
        <time>2018-06-03T10:08:09Z</time>
      </trkpt>
      <trkpt lat="45.96822" lon="4.71661">
        <ele>192</ele>
        <time>2018-06-03T10:08:10Z</time>
      </trkpt>
      <trkpt lat="45.96815" lon="4.71659">
        <ele>193</ele>
        <time>2018-06-03T10:08:11Z</time>
      </trkpt>
      <trkpt lat="45.96807" lon="4.71658">
        <ele>193</ele>
        <time>2018-06-03T10:08:12Z</time>
      </trkpt>
      <trkpt lat="45.96801" lon="4.71656">
        <ele>193</ele>
        <time>2018-06-03T10:08:13Z</time>
      </trkpt>
      <trkpt lat="45.96794" lon="4.71655">
        <ele>192</ele>
        <time>2018-06-03T10:08:14Z</time>
      </trkpt>
      <trkpt lat="45.96788" lon="4.71655">
        <ele>192</ele>
        <time>2018-06-03T10:08:15Z</time>
      </trkpt>
      <trkpt lat="45.96782" lon="4.71654">
        <ele>192</ele>
        <time>2018-06-03T10:08:16Z</time>
      </trkpt>
      <trkpt lat="45.96776" lon="4.71653">
        <ele>192</ele>
        <time>2018-06-03T10:08:17Z</time>
      </trkpt>
      <trkpt lat="45.96769" lon="4.71652">
        <ele>192</ele>
        <time>2018-06-03T10:08:18Z</time>
      </trkpt>
      <trkpt lat="45.96763" lon="4.71651">
        <ele>191</ele>
        <time>2018-06-03T10:08:19Z</time>
      </trkpt>
      <trkpt lat="45.96756" lon="4.7165">
        <ele>191</ele>
        <time>2018-06-03T10:08:20Z</time>
      </trkpt>
      <trkpt lat="45.9675" lon="4.71649">
        <ele>190</ele>
        <time>2018-06-03T10:08:21Z</time>
      </trkpt>
      <trkpt lat="45.96742" lon="4.71648">
        <ele>190</ele>
        <time>2018-06-03T10:08:22Z</time>
      </trkpt>
      <trkpt lat="45.96735" lon="4.71647">
        <ele>190</ele>
        <time>2018-06-03T10:08:23Z</time>
      </trkpt>
      <trkpt lat="45.96728" lon="4.71646">
        <ele>190</ele>
        <time>2018-06-03T10:08:24Z</time>
      </trkpt>
      <trkpt lat="45.96722" lon="4.71645">
        <ele>190</ele>
        <time>2018-06-03T10:08:25Z</time>
      </trkpt>
      <trkpt lat="45.96717" lon="4.71643">
        <ele>190</ele>
        <time>2018-06-03T10:08:26Z</time>
      </trkpt>
      <trkpt lat="45.9671" lon="4.71641">
        <ele>190</ele>
        <time>2018-06-03T10:08:27Z</time>
      </trkpt>
      <trkpt lat="45.96702" lon="4.71641">
        <ele>190</ele>
        <time>2018-06-03T10:08:28Z</time>
      </trkpt>
      <trkpt lat="45.96695" lon="4.71639">
        <ele>190</ele>
        <time>2018-06-03T10:08:29Z</time>
      </trkpt>
      <trkpt lat="45.96689" lon="4.71637">
        <ele>190</ele>
        <time>2018-06-03T10:08:30Z</time>
      </trkpt>
      <trkpt lat="45.96682" lon="4.71636">
        <ele>190</ele>
        <time>2018-06-03T10:08:31Z</time>
      </trkpt>
      <trkpt lat="45.96674" lon="4.71637">
        <ele>190</ele>
        <time>2018-06-03T10:08:32Z</time>
      </trkpt>
      <trkpt lat="45.96666" lon="4.71635">
        <ele>188</ele>
        <time>2018-06-03T10:08:33Z</time>
      </trkpt>
      <trkpt lat="45.9666" lon="4.71634">
        <ele>188</ele>
        <time>2018-06-03T10:08:34Z</time>
      </trkpt>
      <trkpt lat="45.96653" lon="4.71633">
        <ele>188</ele>
        <time>2018-06-03T10:08:35Z</time>
      </trkpt>
      <trkpt lat="45.96646" lon="4.71634">
        <ele>188</ele>
        <time>2018-06-03T10:08:36Z</time>
      </trkpt>
      <trkpt lat="45.9664" lon="4.71633">
        <ele>188</ele>
        <time>2018-06-03T10:08:37Z</time>
      </trkpt>
      <trkpt lat="45.96633" lon="4.71631">
        <ele>188</ele>
        <time>2018-06-03T10:08:38Z</time>
      </trkpt>
      <trkpt lat="45.96626" lon="4.7163">
        <ele>188</ele>
        <time>2018-06-03T10:08:39Z</time>
      </trkpt>
      <trkpt lat="45.96619" lon="4.7163">
        <ele>187</ele>
        <time>2018-06-03T10:08:40Z</time>
      </trkpt>
      <trkpt lat="45.96612" lon="4.71629">
        <ele>187</ele>
        <time>2018-06-03T10:08:41Z</time>
      </trkpt>
      <trkpt lat="45.96606" lon="4.71627">
        <ele>187</ele>
        <time>2018-06-03T10:08:42Z</time>
      </trkpt>
      <trkpt lat="45.96599" lon="4.71626">
        <ele>187</ele>
        <time>2018-06-03T10:08:43Z</time>
      </trkpt>
      <trkpt lat="45.96593" lon="4.71625">
        <ele>187</ele>
        <time>2018-06-03T10:08:44Z</time>
      </trkpt>
      <trkpt lat="45.96586" lon="4.71624">
        <ele>187</ele>
        <time>2018-06-03T10:08:45Z</time>
      </trkpt>
      <trkpt lat="45.96578" lon="4.71623">
        <ele>185</ele>
        <time>2018-06-03T10:08:46Z</time>
      </trkpt>
      <trkpt lat="45.96572" lon="4.71622">
        <ele>185</ele>
        <time>2018-06-03T10:08:47Z</time>
      </trkpt>
      <trkpt lat="45.96565" lon="4.71622">
        <ele>185</ele>
        <time>2018-06-03T10:08:48Z</time>
      </trkpt>
      <trkpt lat="45.96559" lon="4.71621">
        <ele>185</ele>
        <time>2018-06-03T10:08:49Z</time>
      </trkpt>
      <trkpt lat="45.96555" lon="4.71618">
        <ele>185</ele>
        <time>2018-06-03T10:08:50Z</time>
      </trkpt>
      <trkpt lat="45.9655" lon="4.71613">
        <ele>185</ele>
        <time>2018-06-03T10:08:51Z</time>
      </trkpt>
      <trkpt lat="45.96545" lon="4.71607">
        <ele>185</ele>
        <time>2018-06-03T10:08:52Z</time>
      </trkpt>
      <trkpt lat="45.96537" lon="4.71604">
        <ele>185</ele>
        <time>2018-06-03T10:08:53Z</time>
      </trkpt>
      <trkpt lat="45.96531" lon="4.71602">
        <ele>185</ele>
        <time>2018-06-03T10:08:54Z</time>
      </trkpt>
      <trkpt lat="45.96525" lon="4.71604">
        <ele>185</ele>
        <time>2018-06-03T10:08:55Z</time>
      </trkpt>
      <trkpt lat="45.96521" lon="4.71608">
        <ele>184</ele>
        <time>2018-06-03T10:08:56Z</time>
      </trkpt>
      <trkpt lat="45.96515" lon="4.71613">
        <ele>184</ele>
        <time>2018-06-03T10:08:57Z</time>
      </trkpt>
      <trkpt lat="45.96509" lon="4.71611">
        <ele>184</ele>
        <time>2018-06-03T10:08:58Z</time>
      </trkpt>
      <trkpt lat="45.96503" lon="4.71609">
        <ele>184</ele>
        <time>2018-06-03T10:08:59Z</time>
      </trkpt>
      <trkpt lat="45.96495" lon="4.71611">
        <ele>183</ele>
        <time>2018-06-03T10:09:00Z</time>
      </trkpt>
      <trkpt lat="45.96488" lon="4.71609">
        <ele>183</ele>
        <time>2018-06-03T10:09:01Z</time>
      </trkpt>
      <trkpt lat="45.96481" lon="4.71607">
        <ele>183</ele>
        <time>2018-06-03T10:09:02Z</time>
      </trkpt>
      <trkpt lat="45.96474" lon="4.71605">
        <ele>183</ele>
        <time>2018-06-03T10:09:03Z</time>
      </trkpt>
      <trkpt lat="45.96465" lon="4.71603">
        <ele>183</ele>
        <time>2018-06-03T10:09:04Z</time>
      </trkpt>
      <trkpt lat="45.96459" lon="4.71601">
        <ele>183</ele>
        <time>2018-06-03T10:09:05Z</time>
      </trkpt>
      <trkpt lat="45.96452" lon="4.71599">
        <ele>183</ele>
        <time>2018-06-03T10:09:06Z</time>
      </trkpt>
      <trkpt lat="45.96445" lon="4.71598">
        <ele>183</ele>
        <time>2018-06-03T10:09:07Z</time>
      </trkpt>
      <trkpt lat="45.96438" lon="4.71596">
        <ele>183</ele>
        <time>2018-06-03T10:09:08Z</time>
      </trkpt>
      <trkpt lat="45.96429" lon="4.71595">
        <ele>184</ele>
        <time>2018-06-03T10:09:09Z</time>
      </trkpt>
      <trkpt lat="45.96423" lon="4.71595">
        <ele>184</ele>
        <time>2018-06-03T10:09:10Z</time>
      </trkpt>
      <trkpt lat="45.96415" lon="4.71594">
        <ele>184</ele>
        <time>2018-06-03T10:09:11Z</time>
      </trkpt>
      <trkpt lat="45.96408" lon="4.71592">
        <ele>184</ele>
        <time>2018-06-03T10:09:12Z</time>
      </trkpt>
      <trkpt lat="45.964" lon="4.71592">
        <ele>183</ele>
        <time>2018-06-03T10:09:13Z</time>
      </trkpt>
      <trkpt lat="45.96392" lon="4.71591">
        <ele>183</ele>
        <time>2018-06-03T10:09:14Z</time>
      </trkpt>
      <trkpt lat="45.96384" lon="4.71591">
        <ele>183</ele>
        <time>2018-06-03T10:09:15Z</time>
      </trkpt>
      <trkpt lat="45.96376" lon="4.71589">
        <ele>182</ele>
        <time>2018-06-03T10:09:16Z</time>
      </trkpt>
      <trkpt lat="45.96367" lon="4.71588">
        <ele>182</ele>
        <time>2018-06-03T10:09:17Z</time>
      </trkpt>
      <trkpt lat="45.9636" lon="4.71587">
        <ele>182</ele>
        <time>2018-06-03T10:09:18Z</time>
      </trkpt>
      <trkpt lat="45.96353" lon="4.71585">
        <ele>182</ele>
        <time>2018-06-03T10:09:19Z</time>
      </trkpt>
      <trkpt lat="45.96346" lon="4.71585">
        <ele>182</ele>
        <time>2018-06-03T10:09:20Z</time>
      </trkpt>
      <trkpt lat="45.96338" lon="4.71584">
        <ele>183</ele>
        <time>2018-06-03T10:09:21Z</time>
      </trkpt>
      <trkpt lat="45.96331" lon="4.71581">
        <ele>183</ele>
        <time>2018-06-03T10:09:22Z</time>
      </trkpt>
      <trkpt lat="45.96324" lon="4.71579">
        <ele>184</ele>
        <time>2018-06-03T10:09:23Z</time>
      </trkpt>
      <trkpt lat="45.96317" lon="4.7158">
        <ele>184</ele>
        <time>2018-06-03T10:09:24Z</time>
      </trkpt>
      <trkpt lat="45.9631" lon="4.71579">
        <ele>184</ele>
        <time>2018-06-03T10:09:25Z</time>
      </trkpt>
      <trkpt lat="45.96302" lon="4.71578">
        <ele>184</ele>
        <time>2018-06-03T10:09:26Z</time>
      </trkpt>
      <trkpt lat="45.96296" lon="4.71577">
        <ele>184</ele>
        <time>2018-06-03T10:09:27Z</time>
      </trkpt>
      <trkpt lat="45.9629" lon="4.71576">
        <ele>184</ele>
        <time>2018-06-03T10:09:28Z</time>
      </trkpt>
      <trkpt lat="45.96282" lon="4.71575">
        <ele>184</ele>
        <time>2018-06-03T10:09:29Z</time>
      </trkpt>
      <trkpt lat="45.96275" lon="4.71574">
        <ele>184</ele>
        <time>2018-06-03T10:09:30Z</time>
      </trkpt>
      <trkpt lat="45.96269" lon="4.71573">
        <ele>183</ele>
        <time>2018-06-03T10:09:31Z</time>
      </trkpt>
      <trkpt lat="45.9626" lon="4.71572">
        <ele>183</ele>
        <time>2018-06-03T10:09:32Z</time>
      </trkpt>
      <trkpt lat="45.96253" lon="4.7157">
        <ele>183</ele>
        <time>2018-06-03T10:09:33Z</time>
      </trkpt>
      <trkpt lat="45.96246" lon="4.71569">
        <ele>182</ele>
        <time>2018-06-03T10:09:34Z</time>
      </trkpt>
      <trkpt lat="45.9624" lon="4.71568">
        <ele>183</ele>
        <time>2018-06-03T10:09:35Z</time>
      </trkpt>
      <trkpt lat="45.96234" lon="4.71567">
        <ele>183</ele>
        <time>2018-06-03T10:09:36Z</time>
      </trkpt>
      <trkpt lat="45.96228" lon="4.71567">
        <ele>183</ele>
        <time>2018-06-03T10:09:37Z</time>
      </trkpt>
      <trkpt lat="45.96221" lon="4.71566">
        <ele>183</ele>
        <time>2018-06-03T10:09:38Z</time>
      </trkpt>
      <trkpt lat="45.96215" lon="4.71565">
        <ele>183</ele>
        <time>2018-06-03T10:09:39Z</time>
      </trkpt>
      <trkpt lat="45.96208" lon="4.71563">
        <ele>183</ele>
        <time>2018-06-03T10:09:40Z</time>
      </trkpt>
      <trkpt lat="45.96202" lon="4.71563">
        <ele>183</ele>
        <time>2018-06-03T10:09:41Z</time>
      </trkpt>
      <trkpt lat="45.96195" lon="4.71561">
        <ele>183</ele>
        <time>2018-06-03T10:09:42Z</time>
      </trkpt>
      <trkpt lat="45.96189" lon="4.71559">
        <ele>183</ele>
        <time>2018-06-03T10:09:43Z</time>
      </trkpt>
      <trkpt lat="45.96182" lon="4.71556">
        <ele>183</ele>
        <time>2018-06-03T10:09:44Z</time>
      </trkpt>
      <trkpt lat="45.96176" lon="4.71555">
        <ele>183</ele>
        <time>2018-06-03T10:09:45Z</time>
      </trkpt>
      <trkpt lat="45.9617" lon="4.71555">
        <ele>183</ele>
        <time>2018-06-03T10:09:46Z</time>
      </trkpt>
      <trkpt lat="45.96164" lon="4.71555">
        <ele>184</ele>
        <time>2018-06-03T10:09:47Z</time>
      </trkpt>
      <trkpt lat="45.96157" lon="4.71552">
        <ele>184</ele>
        <time>2018-06-03T10:09:48Z</time>
      </trkpt>
      <trkpt lat="45.96151" lon="4.71552">
        <ele>184</ele>
        <time>2018-06-03T10:09:49Z</time>
      </trkpt>
      <trkpt lat="45.96145" lon="4.71551">
        <ele>184</ele>
        <time>2018-06-03T10:09:50Z</time>
      </trkpt>
      <trkpt lat="45.96139" lon="4.71549">
        <ele>184</ele>
        <time>2018-06-03T10:09:51Z</time>
      </trkpt>
      <trkpt lat="45.96133" lon="4.71548">
        <ele>184</ele>
        <time>2018-06-03T10:09:52Z</time>
      </trkpt>
      <trkpt lat="45.96126" lon="4.71547">
        <ele>185</ele>
        <time>2018-06-03T10:09:53Z</time>
      </trkpt>
      <trkpt lat="45.9612" lon="4.71547">
        <ele>185</ele>
        <time>2018-06-03T10:09:54Z</time>
      </trkpt>
      <trkpt lat="45.96113" lon="4.71545">
        <ele>185</ele>
        <time>2018-06-03T10:09:55Z</time>
      </trkpt>
      <trkpt lat="45.96107" lon="4.71543">
        <ele>185</ele>
        <time>2018-06-03T10:09:56Z</time>
      </trkpt>
      <trkpt lat="45.96101" lon="4.71543">
        <ele>185</ele>
        <time>2018-06-03T10:09:57Z</time>
      </trkpt>
      <trkpt lat="45.96095" lon="4.71543">
        <ele>185</ele>
        <time>2018-06-03T10:09:58Z</time>
      </trkpt>
      <trkpt lat="45.96088" lon="4.71542">
        <ele>185</ele>
        <time>2018-06-03T10:09:59Z</time>
      </trkpt>
      <trkpt lat="45.96083" lon="4.71542">
        <ele>185</ele>
        <time>2018-06-03T10:10:00Z</time>
      </trkpt>
      <trkpt lat="45.96078" lon="4.7154">
        <ele>185</ele>
        <time>2018-06-03T10:10:01Z</time>
      </trkpt>
      <trkpt lat="45.96071" lon="4.71539">
        <ele>185</ele>
        <time>2018-06-03T10:10:02Z</time>
      </trkpt>
      <trkpt lat="45.96066" lon="4.71538">
        <ele>185</ele>
        <time>2018-06-03T10:10:03Z</time>
      </trkpt>
      <trkpt lat="45.9606" lon="4.71536">
        <ele>186</ele>
        <time>2018-06-03T10:10:04Z</time>
      </trkpt>
      <trkpt lat="45.96054" lon="4.71534">
        <ele>186</ele>
        <time>2018-06-03T10:10:05Z</time>
      </trkpt>
      <trkpt lat="45.96048" lon="4.71533">
        <ele>186</ele>
        <time>2018-06-03T10:10:06Z</time>
      </trkpt>
      <trkpt lat="45.96042" lon="4.71531">
        <ele>186</ele>
        <time>2018-06-03T10:10:07Z</time>
      </trkpt>
      <trkpt lat="45.96036" lon="4.7153">
        <ele>186</ele>
        <time>2018-06-03T10:10:08Z</time>
      </trkpt>
      <trkpt lat="45.96031" lon="4.71529">
        <ele>186</ele>
        <time>2018-06-03T10:10:09Z</time>
      </trkpt>
      <trkpt lat="45.96025" lon="4.71529">
        <ele>186</ele>
        <time>2018-06-03T10:10:10Z</time>
      </trkpt>
      <trkpt lat="45.9602" lon="4.71527">
        <ele>186</ele>
        <time>2018-06-03T10:10:11Z</time>
      </trkpt>
      <trkpt lat="45.96015" lon="4.71525">
        <ele>186</ele>
        <time>2018-06-03T10:10:12Z</time>
      </trkpt>
      <trkpt lat="45.96009" lon="4.71525">
        <ele>186</ele>
        <time>2018-06-03T10:10:13Z</time>
      </trkpt>
      <trkpt lat="45.96004" lon="4.71522">
        <ele>186</ele>
        <time>2018-06-03T10:10:14Z</time>
      </trkpt>
      <trkpt lat="45.96001" lon="4.71519">
        <ele>186</ele>
        <time>2018-06-03T10:10:15Z</time>
      </trkpt>
      <trkpt lat="45.95997" lon="4.71516">
        <ele>186</ele>
        <time>2018-06-03T10:10:16Z</time>
      </trkpt>
      <trkpt lat="45.95992" lon="4.71513">
        <ele>186</ele>
        <time>2018-06-03T10:10:17Z</time>
      </trkpt>
      <trkpt lat="45.95986" lon="4.71514">
        <ele>185</ele>
        <time>2018-06-03T10:10:18Z</time>
      </trkpt>
      <trkpt lat="45.9598" lon="4.71517">
        <ele>185</ele>
        <time>2018-06-03T10:10:19Z</time>
      </trkpt>
      <trkpt lat="45.95973" lon="4.71519">
        <ele>185</ele>
        <time>2018-06-03T10:10:20Z</time>
      </trkpt>
      <trkpt lat="45.95967" lon="4.71521">
        <ele>184</ele>
        <time>2018-06-03T10:10:21Z</time>
      </trkpt>
      <trkpt lat="45.95961" lon="4.71523">
        <ele>184</ele>
        <time>2018-06-03T10:10:22Z</time>
      </trkpt>
      <trkpt lat="45.95954" lon="4.71523">
        <ele>184</ele>
        <time>2018-06-03T10:10:23Z</time>
      </trkpt>
      <trkpt lat="45.95948" lon="4.71523">
        <ele>184</ele>
        <time>2018-06-03T10:10:24Z</time>
      </trkpt>
      <trkpt lat="45.95941" lon="4.71522">
        <ele>184</ele>
        <time>2018-06-03T10:10:25Z</time>
      </trkpt>
      <trkpt lat="45.95934" lon="4.71522">
        <ele>184</ele>
        <time>2018-06-03T10:10:26Z</time>
      </trkpt>
      <trkpt lat="45.95927" lon="4.71522">
        <ele>184</ele>
        <time>2018-06-03T10:10:27Z</time>
      </trkpt>
      <trkpt lat="45.9592" lon="4.71521">
        <ele>184</ele>
        <time>2018-06-03T10:10:28Z</time>
      </trkpt>
      <trkpt lat="45.95913" lon="4.71522">
        <ele>183</ele>
        <time>2018-06-03T10:10:29Z</time>
      </trkpt>
      <trkpt lat="45.95907" lon="4.71521">
        <ele>183</ele>
        <time>2018-06-03T10:10:30Z</time>
      </trkpt>
      <trkpt lat="45.95898" lon="4.71521">
        <ele>182</ele>
        <time>2018-06-03T10:10:31Z</time>
      </trkpt>
      <trkpt lat="45.95892" lon="4.7152">
        <ele>182</ele>
        <time>2018-06-03T10:10:32Z</time>
      </trkpt>
      <trkpt lat="45.95886" lon="4.7152">
        <ele>182</ele>
        <time>2018-06-03T10:10:33Z</time>
      </trkpt>
      <trkpt lat="45.95879" lon="4.7152">
        <ele>182</ele>
        <time>2018-06-03T10:10:34Z</time>
      </trkpt>
      <trkpt lat="45.95872" lon="4.7152">
        <ele>182</ele>
        <time>2018-06-03T10:10:35Z</time>
      </trkpt>
      <trkpt lat="45.95865" lon="4.7152">
        <ele>182</ele>
        <time>2018-06-03T10:10:36Z</time>
      </trkpt>
      <trkpt lat="45.95857" lon="4.71521">
        <ele>182</ele>
        <time>2018-06-03T10:10:37Z</time>
      </trkpt>
      <trkpt lat="45.9585" lon="4.71521">
        <ele>182</ele>
        <time>2018-06-03T10:10:38Z</time>
      </trkpt>
      <trkpt lat="45.95844" lon="4.71521">
        <ele>182</ele>
        <time>2018-06-03T10:10:39Z</time>
      </trkpt>
      <trkpt lat="45.95836" lon="4.7152">
        <ele>182</ele>
        <time>2018-06-03T10:10:40Z</time>
      </trkpt>
      <trkpt lat="45.95829" lon="4.71519">
        <ele>182</ele>
        <time>2018-06-03T10:10:41Z</time>
      </trkpt>
      <trkpt lat="45.95822" lon="4.71519">
        <ele>182</ele>
        <time>2018-06-03T10:10:42Z</time>
      </trkpt>
      <trkpt lat="45.95816" lon="4.71518">
        <ele>182</ele>
        <time>2018-06-03T10:10:43Z</time>
      </trkpt>
      <trkpt lat="45.9581" lon="4.71517">
        <ele>181</ele>
        <time>2018-06-03T10:10:44Z</time>
      </trkpt>
      <trkpt lat="45.95802" lon="4.71517">
        <ele>181</ele>
        <time>2018-06-03T10:10:45Z</time>
      </trkpt>
      <trkpt lat="45.95795" lon="4.71516">
        <ele>181</ele>
        <time>2018-06-03T10:10:46Z</time>
      </trkpt>
      <trkpt lat="45.95788" lon="4.71515">
        <ele>181</ele>
        <time>2018-06-03T10:10:47Z</time>
      </trkpt>
      <trkpt lat="45.95781" lon="4.71514">
        <ele>181</ele>
        <time>2018-06-03T10:10:48Z</time>
      </trkpt>
      <trkpt lat="45.95772" lon="4.71514">
        <ele>181</ele>
        <time>2018-06-03T10:10:49Z</time>
      </trkpt>
      <trkpt lat="45.95764" lon="4.71516">
        <ele>181</ele>
        <time>2018-06-03T10:10:50Z</time>
      </trkpt>
      <trkpt lat="45.95756" lon="4.71516">
        <ele>181</ele>
        <time>2018-06-03T10:10:51Z</time>
      </trkpt>
      <trkpt lat="45.95747" lon="4.71514">
        <ele>181</ele>
        <time>2018-06-03T10:10:52Z</time>
      </trkpt>
      <trkpt lat="45.95738" lon="4.71513">
        <ele>181</ele>
        <time>2018-06-03T10:10:53Z</time>
      </trkpt>
      <trkpt lat="45.95729" lon="4.71512">
        <ele>181</ele>
        <time>2018-06-03T10:10:54Z</time>
      </trkpt>
      <trkpt lat="45.95721" lon="4.71513">
        <ele>180</ele>
        <time>2018-06-03T10:10:55Z</time>
      </trkpt>
      <trkpt lat="45.95712" lon="4.71512">
        <ele>180</ele>
        <time>2018-06-03T10:10:56Z</time>
      </trkpt>
      <trkpt lat="45.95705" lon="4.71513">
        <ele>180</ele>
        <time>2018-06-03T10:10:57Z</time>
      </trkpt>
      <trkpt lat="45.95699" lon="4.71514">
        <ele>180</ele>
        <time>2018-06-03T10:10:58Z</time>
      </trkpt>
      <trkpt lat="45.95691" lon="4.71514">
        <ele>180</ele>
        <time>2018-06-03T10:10:59Z</time>
      </trkpt>
      <trkpt lat="45.95682" lon="4.71513">
        <ele>181</ele>
        <time>2018-06-03T10:11:00Z</time>
      </trkpt>
      <trkpt lat="45.95674" lon="4.71511">
        <ele>181</ele>
        <time>2018-06-03T10:11:01Z</time>
      </trkpt>
      <trkpt lat="45.95666" lon="4.7151">
        <ele>181</ele>
        <time>2018-06-03T10:11:02Z</time>
      </trkpt>
      <trkpt lat="45.95657" lon="4.7151">
        <ele>181</ele>
        <time>2018-06-03T10:11:03Z</time>
      </trkpt>
      <trkpt lat="45.9565" lon="4.71509">
        <ele>180</ele>
        <time>2018-06-03T10:11:04Z</time>
      </trkpt>
      <trkpt lat="45.95642" lon="4.71508">
        <ele>180</ele>
        <time>2018-06-03T10:11:05Z</time>
      </trkpt>
      <trkpt lat="45.95635" lon="4.71509">
        <ele>180</ele>
        <time>2018-06-03T10:11:06Z</time>
      </trkpt>
      <trkpt lat="45.95628" lon="4.71509">
        <ele>180</ele>
        <time>2018-06-03T10:11:07Z</time>
      </trkpt>
      <trkpt lat="45.9562" lon="4.71509">
        <ele>179</ele>
        <time>2018-06-03T10:11:08Z</time>
      </trkpt>
      <trkpt lat="45.95612" lon="4.71508">
        <ele>179</ele>
        <time>2018-06-03T10:11:09Z</time>
      </trkpt>
      <trkpt lat="45.95604" lon="4.71508">
        <ele>179</ele>
        <time>2018-06-03T10:11:10Z</time>
      </trkpt>
      <trkpt lat="45.95597" lon="4.71508">
        <ele>179</ele>
        <time>2018-06-03T10:11:11Z</time>
      </trkpt>
      <trkpt lat="45.95589" lon="4.71507">
        <ele>180</ele>
        <time>2018-06-03T10:11:12Z</time>
      </trkpt>
      <trkpt lat="45.95584" lon="4.71508">
        <ele>180</ele>
        <time>2018-06-03T10:11:13Z</time>
      </trkpt>
      <trkpt lat="45.95577" lon="4.71507">
        <ele>179</ele>
        <time>2018-06-03T10:11:14Z</time>
      </trkpt>
      <trkpt lat="45.95569" lon="4.71506">
        <ele>179</ele>
        <time>2018-06-03T10:11:15Z</time>
      </trkpt>
      <trkpt lat="45.95562" lon="4.71505">
        <ele>178</ele>
        <time>2018-06-03T10:11:16Z</time>
      </trkpt>
      <trkpt lat="45.95553" lon="4.71505">
        <ele>178</ele>
        <time>2018-06-03T10:11:17Z</time>
      </trkpt>
      <trkpt lat="45.95545" lon="4.71504">
        <ele>178</ele>
        <time>2018-06-03T10:11:18Z</time>
      </trkpt>
      <trkpt lat="45.95537" lon="4.71503">
        <ele>177</ele>
        <time>2018-06-03T10:11:19Z</time>
      </trkpt>
      <trkpt lat="45.95529" lon="4.71501">
        <ele>177</ele>
        <time>2018-06-03T10:11:20Z</time>
      </trkpt>
      <trkpt lat="45.95522" lon="4.715">
        <ele>178</ele>
        <time>2018-06-03T10:11:21Z</time>
      </trkpt>
      <trkpt lat="45.95514" lon="4.71499">
        <ele>178</ele>
        <time>2018-06-03T10:11:22Z</time>
      </trkpt>
      <trkpt lat="45.95506" lon="4.715">
        <ele>177</ele>
        <time>2018-06-03T10:11:23Z</time>
      </trkpt>
      <trkpt lat="45.95498" lon="4.71499">
        <ele>177</ele>
        <time>2018-06-03T10:11:24Z</time>
      </trkpt>
      <trkpt lat="45.9549" lon="4.71498">
        <ele>177</ele>
        <time>2018-06-03T10:11:25Z</time>
      </trkpt>
      <trkpt lat="45.95481" lon="4.71496">
        <ele>176</ele>
        <time>2018-06-03T10:11:26Z</time>
      </trkpt>
      <trkpt lat="45.95473" lon="4.71499">
        <ele>176</ele>
        <time>2018-06-03T10:11:27Z</time>
      </trkpt>
      <trkpt lat="45.95466" lon="4.71497">
        <ele>176</ele>
        <time>2018-06-03T10:11:28Z</time>
      </trkpt>
      <trkpt lat="45.95459" lon="4.71497">
        <ele>176</ele>
        <time>2018-06-03T10:11:29Z</time>
      </trkpt>
      <trkpt lat="45.95452" lon="4.71497">
        <ele>176</ele>
        <time>2018-06-03T10:11:30Z</time>
      </trkpt>
      <trkpt lat="45.95446" lon="4.71495">
        <ele>176</ele>
        <time>2018-06-03T10:11:31Z</time>
      </trkpt>
      <trkpt lat="45.9544" lon="4.71494">
        <ele>175</ele>
        <time>2018-06-03T10:11:32Z</time>
      </trkpt>
      <trkpt lat="45.95433" lon="4.71494">
        <ele>175</ele>
        <time>2018-06-03T10:11:33Z</time>
      </trkpt>
      <trkpt lat="45.95427" lon="4.71494">
        <ele>175</ele>
        <time>2018-06-03T10:11:34Z</time>
      </trkpt>
      <trkpt lat="45.9542" lon="4.71494">
        <ele>175</ele>
        <time>2018-06-03T10:11:35Z</time>
      </trkpt>
      <trkpt lat="45.95412" lon="4.71493">
        <ele>174</ele>
        <time>2018-06-03T10:11:36Z</time>
      </trkpt>
      <trkpt lat="45.95406" lon="4.71492">
        <ele>175</ele>
        <time>2018-06-03T10:11:37Z</time>
      </trkpt>
      <trkpt lat="45.95399" lon="4.71491">
        <ele>175</ele>
        <time>2018-06-03T10:11:38Z</time>
      </trkpt>
      <trkpt lat="45.95391" lon="4.71491">
        <ele>175</ele>
        <time>2018-06-03T10:11:39Z</time>
      </trkpt>
      <trkpt lat="45.95384" lon="4.71491">
        <ele>175</ele>
        <time>2018-06-03T10:11:40Z</time>
      </trkpt>
      <trkpt lat="45.95376" lon="4.71491">
        <ele>175</ele>
        <time>2018-06-03T10:11:41Z</time>
      </trkpt>
      <trkpt lat="45.95368" lon="4.71491">
        <ele>175</ele>
        <time>2018-06-03T10:11:42Z</time>
      </trkpt>
      <trkpt lat="45.95361" lon="4.7149">
        <ele>175</ele>
        <time>2018-06-03T10:11:43Z</time>
      </trkpt>
      <trkpt lat="45.95353" lon="4.71489">
        <ele>175</ele>
        <time>2018-06-03T10:11:44Z</time>
      </trkpt>
      <trkpt lat="45.95346" lon="4.71488">
        <ele>175</ele>
        <time>2018-06-03T10:11:45Z</time>
      </trkpt>
      <trkpt lat="45.95339" lon="4.71488">
        <ele>175</ele>
        <time>2018-06-03T10:11:46Z</time>
      </trkpt>
      <trkpt lat="45.95333" lon="4.71489">
        <ele>175</ele>
        <time>2018-06-03T10:11:47Z</time>
      </trkpt>
      <trkpt lat="45.95327" lon="4.71488">
        <ele>175</ele>
        <time>2018-06-03T10:11:48Z</time>
      </trkpt>
      <trkpt lat="45.9532" lon="4.71487">
        <ele>175</ele>
        <time>2018-06-03T10:11:49Z</time>
      </trkpt>
      <trkpt lat="45.95313" lon="4.71486">
        <ele>175</ele>
        <time>2018-06-03T10:11:50Z</time>
      </trkpt>
      <trkpt lat="45.95306" lon="4.71485">
        <ele>175</ele>
        <time>2018-06-03T10:11:51Z</time>
      </trkpt>
      <trkpt lat="45.953" lon="4.71484">
        <ele>176</ele>
        <time>2018-06-03T10:11:52Z</time>
      </trkpt>
      <trkpt lat="45.95293" lon="4.71485">
        <ele>176</ele>
        <time>2018-06-03T10:11:53Z</time>
      </trkpt>
      <trkpt lat="45.95286" lon="4.71486">
        <ele>176</ele>
        <time>2018-06-03T10:11:54Z</time>
      </trkpt>
      <trkpt lat="45.9528" lon="4.71486">
        <ele>176</ele>
        <time>2018-06-03T10:11:55Z</time>
      </trkpt>
      <trkpt lat="45.95274" lon="4.71484">
        <ele>176</ele>
        <time>2018-06-03T10:11:56Z</time>
      </trkpt>
      <trkpt lat="45.95268" lon="4.71484">
        <ele>176</ele>
        <time>2018-06-03T10:11:57Z</time>
      </trkpt>
      <trkpt lat="45.95262" lon="4.71483">
        <ele>176</ele>
        <time>2018-06-03T10:11:58Z</time>
      </trkpt>
      <trkpt lat="45.95255" lon="4.71483">
        <ele>176</ele>
        <time>2018-06-03T10:11:59Z</time>
      </trkpt>
      <trkpt lat="45.9525" lon="4.71483">
        <ele>177</ele>
        <time>2018-06-03T10:12:00Z</time>
      </trkpt>
      <trkpt lat="45.95243" lon="4.71482">
        <ele>177</ele>
        <time>2018-06-03T10:12:01Z</time>
      </trkpt>
      <trkpt lat="45.95237" lon="4.71481">
        <ele>177</ele>
        <time>2018-06-03T10:12:02Z</time>
      </trkpt>
      <trkpt lat="45.95231" lon="4.71481">
        <ele>177</ele>
        <time>2018-06-03T10:12:03Z</time>
      </trkpt>
      <trkpt lat="45.95225" lon="4.71481">
        <ele>177</ele>
        <time>2018-06-03T10:12:04Z</time>
      </trkpt>
      <trkpt lat="45.95218" lon="4.71483">
        <ele>177</ele>
        <time>2018-06-03T10:12:05Z</time>
      </trkpt>
      <trkpt lat="45.95212" lon="4.71481">
        <ele>177</ele>
        <time>2018-06-03T10:12:06Z</time>
      </trkpt>
      <trkpt lat="45.95205" lon="4.71484">
        <ele>177</ele>
        <time>2018-06-03T10:12:07Z</time>
      </trkpt>
      <trkpt lat="45.952" lon="4.71483">
        <ele>177</ele>
        <time>2018-06-03T10:12:08Z</time>
      </trkpt>
      <trkpt lat="45.95195" lon="4.71482">
        <ele>177</ele>
        <time>2018-06-03T10:12:09Z</time>
      </trkpt>
      <trkpt lat="45.95189" lon="4.71484">
        <ele>177</ele>
        <time>2018-06-03T10:12:10Z</time>
      </trkpt>
      <trkpt lat="45.95183" lon="4.71484">
        <ele>177</ele>
        <time>2018-06-03T10:12:11Z</time>
      </trkpt>
      <trkpt lat="45.95176" lon="4.71484">
        <ele>177</ele>
        <time>2018-06-03T10:12:12Z</time>
      </trkpt>
      <trkpt lat="45.95171" lon="4.71484">
        <ele>177</ele>
        <time>2018-06-03T10:12:13Z</time>
      </trkpt>
      <trkpt lat="45.95166" lon="4.71483">
        <ele>178</ele>
        <time>2018-06-03T10:12:14Z</time>
      </trkpt>
      <trkpt lat="45.95159" lon="4.71483">
        <ele>178</ele>
        <time>2018-06-03T10:12:15Z</time>
      </trkpt>
      <trkpt lat="45.95153" lon="4.71482">
        <ele>178</ele>
        <time>2018-06-03T10:12:16Z</time>
      </trkpt>
      <trkpt lat="45.95149" lon="4.71482">
        <ele>178</ele>
        <time>2018-06-03T10:12:17Z</time>
      </trkpt>
      <trkpt lat="45.95144" lon="4.71484">
        <ele>178</ele>
        <time>2018-06-03T10:12:18Z</time>
      </trkpt>
      <trkpt lat="45.95138" lon="4.71485">
        <ele>178</ele>
        <time>2018-06-03T10:12:19Z</time>
      </trkpt>
      <trkpt lat="45.95134" lon="4.71484">
        <ele>178</ele>
        <time>2018-06-03T10:12:20Z</time>
      </trkpt>
      <trkpt lat="45.95129" lon="4.71483">
        <ele>178</ele>
        <time>2018-06-03T10:12:21Z</time>
      </trkpt>
      <trkpt lat="45.95125" lon="4.71482">
        <ele>178</ele>
        <time>2018-06-03T10:12:22Z</time>
      </trkpt>
      <trkpt lat="45.9512" lon="4.71482">
        <ele>178</ele>
        <time>2018-06-03T10:12:23Z</time>
      </trkpt>
      <trkpt lat="45.95115" lon="4.71481">
        <ele>179</ele>
        <time>2018-06-03T10:12:24Z</time>
      </trkpt>
      <trkpt lat="45.9511" lon="4.71481">
        <ele>179</ele>
        <time>2018-06-03T10:12:25Z</time>
      </trkpt>
      <trkpt lat="45.95106" lon="4.71481">
        <ele>179</ele>
        <time>2018-06-03T10:12:26Z</time>
      </trkpt>
      <trkpt lat="45.95098" lon="4.71478">
        <ele>179</ele>
        <time>2018-06-03T10:12:28Z</time>
      </trkpt>
      <trkpt lat="45.95093" lon="4.71477">
        <ele>179</ele>
        <time>2018-06-03T10:12:29Z</time>
      </trkpt>
      <trkpt lat="45.95086" lon="4.71479">
        <ele>179</ele>
        <time>2018-06-03T10:12:31Z</time>
      </trkpt>
      <trkpt lat="45.95082" lon="4.71477">
        <ele>180</ele>
        <time>2018-06-03T10:12:32Z</time>
      </trkpt>
      <trkpt lat="45.95078" lon="4.71476">
        <ele>181</ele>
        <time>2018-06-03T10:12:33Z</time>
      </trkpt>
      <trkpt lat="45.95073" lon="4.71474">
        <ele>181</ele>
        <time>2018-06-03T10:12:34Z</time>
      </trkpt>
      <trkpt lat="45.95064" lon="4.71474">
        <ele>181</ele>
        <time>2018-06-03T10:12:36Z</time>
      </trkpt>
      <trkpt lat="45.95061" lon="4.71472">
        <ele>181</ele>
        <time>2018-06-03T10:12:37Z</time>
      </trkpt>
      <trkpt lat="45.95053" lon="4.7147">
        <ele>181</ele>
        <time>2018-06-03T10:12:39Z</time>
      </trkpt>
      <trkpt lat="45.95049" lon="4.71471">
        <ele>181</ele>
        <time>2018-06-03T10:12:40Z</time>
      </trkpt>
      <trkpt lat="45.95044" lon="4.7147">
        <ele>181</ele>
        <time>2018-06-03T10:12:42Z</time>
      </trkpt>
      <trkpt lat="45.95039" lon="4.71468">
        <ele>182</ele>
        <time>2018-06-03T10:12:43Z</time>
      </trkpt>
      <trkpt lat="45.95032" lon="4.71467">
        <ele>182</ele>
        <time>2018-06-03T10:12:46Z</time>
      </trkpt>
      <trkpt lat="45.95026" lon="4.71465">
        <ele>182</ele>
        <time>2018-06-03T10:12:47Z</time>
      </trkpt>
      <trkpt lat="45.95021" lon="4.71464">
        <ele>182</ele>
        <time>2018-06-03T10:12:48Z</time>
      </trkpt>
      <trkpt lat="45.95017" lon="4.71464">
        <ele>182</ele>
        <time>2018-06-03T10:12:49Z</time>
      </trkpt>
      <trkpt lat="45.95012" lon="4.71463">
        <ele>182</ele>
        <time>2018-06-03T10:12:50Z</time>
      </trkpt>
      <trkpt lat="45.95008" lon="4.71463">
        <ele>182</ele>
        <time>2018-06-03T10:12:51Z</time>
      </trkpt>
      <trkpt lat="45.95003" lon="4.71462">
        <ele>182</ele>
        <time>2018-06-03T10:12:52Z</time>
      </trkpt>
      <trkpt lat="45.94997" lon="4.7146">
        <ele>183</ele>
        <time>2018-06-03T10:12:53Z</time>
      </trkpt>
      <trkpt lat="45.94993" lon="4.71455">
        <ele>184</ele>
        <time>2018-06-03T10:12:54Z</time>
      </trkpt>
      <trkpt lat="45.94989" lon="4.7145">
        <ele>184</ele>
        <time>2018-06-03T10:12:55Z</time>
      </trkpt>
      <trkpt lat="45.94984" lon="4.7144">
        <ele>184</ele>
        <time>2018-06-03T10:12:57Z</time>
      </trkpt>
      <trkpt lat="45.9498" lon="4.71436">
        <ele>185</ele>
        <time>2018-06-03T10:12:58Z</time>
      </trkpt>
      <trkpt lat="45.94976" lon="4.71433">
        <ele>185</ele>
        <time>2018-06-03T10:12:59Z</time>
      </trkpt>
      <trkpt lat="45.9497" lon="4.71432">
        <ele>185</ele>
        <time>2018-06-03T10:13:00Z</time>
      </trkpt>
      <trkpt lat="45.94965" lon="4.71433">
        <ele>185</ele>
        <time>2018-06-03T10:13:01Z</time>
      </trkpt>
      <trkpt lat="45.9496" lon="4.71435">
        <ele>184</ele>
        <time>2018-06-03T10:13:02Z</time>
      </trkpt>
      <trkpt lat="45.94955" lon="4.71441">
        <ele>184</ele>
        <time>2018-06-03T10:13:03Z</time>
      </trkpt>
      <trkpt lat="45.94951" lon="4.71445">
        <ele>184</ele>
        <time>2018-06-03T10:13:04Z</time>
      </trkpt>
      <trkpt lat="45.94946" lon="4.7145">
        <ele>184</ele>
        <time>2018-06-03T10:13:05Z</time>
      </trkpt>
      <trkpt lat="45.94942" lon="4.71454">
        <ele>184</ele>
        <time>2018-06-03T10:13:06Z</time>
      </trkpt>
      <trkpt lat="45.94937" lon="4.71457">
        <ele>184</ele>
        <time>2018-06-03T10:13:07Z</time>
      </trkpt>
      <trkpt lat="45.94933" lon="4.71459">
        <ele>183</ele>
        <time>2018-06-03T10:13:08Z</time>
      </trkpt>
      <trkpt lat="45.94927" lon="4.71458">
        <ele>184</ele>
        <time>2018-06-03T10:13:09Z</time>
      </trkpt>
      <trkpt lat="45.94921" lon="4.71457">
        <ele>184</ele>
        <time>2018-06-03T10:13:10Z</time>
      </trkpt>
      <trkpt lat="45.94916" lon="4.71457">
        <ele>184</ele>
        <time>2018-06-03T10:13:11Z</time>
      </trkpt>
      <trkpt lat="45.9491" lon="4.71455">
        <ele>184</ele>
        <time>2018-06-03T10:13:12Z</time>
      </trkpt>
      <trkpt lat="45.94906" lon="4.71454">
        <ele>184</ele>
        <time>2018-06-03T10:13:13Z</time>
      </trkpt>
      <trkpt lat="45.949" lon="4.71454">
        <ele>184</ele>
        <time>2018-06-03T10:13:14Z</time>
      </trkpt>
      <trkpt lat="45.94894" lon="4.71453">
        <ele>184</ele>
        <time>2018-06-03T10:13:15Z</time>
      </trkpt>
      <trkpt lat="45.94888" lon="4.71453">
        <ele>184</ele>
        <time>2018-06-03T10:13:16Z</time>
      </trkpt>
      <trkpt lat="45.94882" lon="4.71453">
        <ele>184</ele>
        <time>2018-06-03T10:13:17Z</time>
      </trkpt>
      <trkpt lat="45.94876" lon="4.71453">
        <ele>184</ele>
        <time>2018-06-03T10:13:18Z</time>
      </trkpt>
      <trkpt lat="45.94872" lon="4.71453">
        <ele>184</ele>
        <time>2018-06-03T10:13:19Z</time>
      </trkpt>
      <trkpt lat="45.94866" lon="4.71451">
        <ele>184</ele>
        <time>2018-06-03T10:13:20Z</time>
      </trkpt>
      <trkpt lat="45.94861" lon="4.7145">
        <ele>184</ele>
        <time>2018-06-03T10:13:21Z</time>
      </trkpt>
      <trkpt lat="45.94856" lon="4.7145">
        <ele>184</ele>
        <time>2018-06-03T10:13:22Z</time>
      </trkpt>
      <trkpt lat="45.9485" lon="4.71449">
        <ele>184</ele>
        <time>2018-06-03T10:13:23Z</time>
      </trkpt>
      <trkpt lat="45.94845" lon="4.71449">
        <ele>184</ele>
        <time>2018-06-03T10:13:24Z</time>
      </trkpt>
      <trkpt lat="45.94841" lon="4.7145">
        <ele>184</ele>
        <time>2018-06-03T10:13:25Z</time>
      </trkpt>
      <trkpt lat="45.94836" lon="4.71449">
        <ele>184</ele>
        <time>2018-06-03T10:13:26Z</time>
      </trkpt>
      <trkpt lat="45.94831" lon="4.71447">
        <ele>184</ele>
        <time>2018-06-03T10:13:27Z</time>
      </trkpt>
      <trkpt lat="45.94826" lon="4.71445">
        <ele>184</ele>
        <time>2018-06-03T10:13:28Z</time>
      </trkpt>
      <trkpt lat="45.94819" lon="4.71447">
        <ele>184</ele>
        <time>2018-06-03T10:13:29Z</time>
      </trkpt>
      <trkpt lat="45.94813" lon="4.71446">
        <ele>184</ele>
        <time>2018-06-03T10:13:30Z</time>
      </trkpt>
      <trkpt lat="45.94807" lon="4.71448">
        <ele>183</ele>
        <time>2018-06-03T10:13:31Z</time>
      </trkpt>
      <trkpt lat="45.94802" lon="4.71447">
        <ele>183</ele>
        <time>2018-06-03T10:13:32Z</time>
      </trkpt>
      <trkpt lat="45.94796" lon="4.71447">
        <ele>183</ele>
        <time>2018-06-03T10:13:33Z</time>
      </trkpt>
      <trkpt lat="45.94791" lon="4.71447">
        <ele>183</ele>
        <time>2018-06-03T10:13:34Z</time>
      </trkpt>
      <trkpt lat="45.94786" lon="4.71447">
        <ele>183</ele>
        <time>2018-06-03T10:13:35Z</time>
      </trkpt>
      <trkpt lat="45.9478" lon="4.71446">
        <ele>183</ele>
        <time>2018-06-03T10:13:36Z</time>
      </trkpt>
      <trkpt lat="45.94775" lon="4.71445">
        <ele>183</ele>
        <time>2018-06-03T10:13:37Z</time>
      </trkpt>
      <trkpt lat="45.94769" lon="4.71445">
        <ele>184</ele>
        <time>2018-06-03T10:13:38Z</time>
      </trkpt>
      <trkpt lat="45.94764" lon="4.71445">
        <ele>184</ele>
        <time>2018-06-03T10:13:39Z</time>
      </trkpt>
      <trkpt lat="45.94758" lon="4.71444">
        <ele>184</ele>
        <time>2018-06-03T10:13:40Z</time>
      </trkpt>
      <trkpt lat="45.94753" lon="4.71442">
        <ele>184</ele>
        <time>2018-06-03T10:13:41Z</time>
      </trkpt>
      <trkpt lat="45.94749" lon="4.71442">
        <ele>183</ele>
        <time>2018-06-03T10:13:42Z</time>
      </trkpt>
      <trkpt lat="45.94743" lon="4.71441">
        <ele>183</ele>
        <time>2018-06-03T10:13:43Z</time>
      </trkpt>
      <trkpt lat="45.94738" lon="4.7144">
        <ele>183</ele>
        <time>2018-06-03T10:13:44Z</time>
      </trkpt>
      <trkpt lat="45.94734" lon="4.71439">
        <ele>183</ele>
        <time>2018-06-03T10:13:45Z</time>
      </trkpt>
      <trkpt lat="45.94728" lon="4.7144">
        <ele>183</ele>
        <time>2018-06-03T10:13:46Z</time>
      </trkpt>
      <trkpt lat="45.94722" lon="4.71442">
        <ele>182</ele>
        <time>2018-06-03T10:13:47Z</time>
      </trkpt>
      <trkpt lat="45.94717" lon="4.71442">
        <ele>182</ele>
        <time>2018-06-03T10:13:48Z</time>
      </trkpt>
      <trkpt lat="45.94711" lon="4.71441">
        <ele>182</ele>
        <time>2018-06-03T10:13:49Z</time>
      </trkpt>
      <trkpt lat="45.94706" lon="4.71441">
        <ele>182</ele>
        <time>2018-06-03T10:13:50Z</time>
      </trkpt>
      <trkpt lat="45.94701" lon="4.71441">
        <ele>182</ele>
        <time>2018-06-03T10:13:51Z</time>
      </trkpt>
      <trkpt lat="45.94696" lon="4.7144">
        <ele>182</ele>
        <time>2018-06-03T10:13:52Z</time>
      </trkpt>
      <trkpt lat="45.94691" lon="4.7144">
        <ele>182</ele>
        <time>2018-06-03T10:13:53Z</time>
      </trkpt>
      <trkpt lat="45.94686" lon="4.7144">
        <ele>182</ele>
        <time>2018-06-03T10:13:54Z</time>
      </trkpt>
      <trkpt lat="45.94679" lon="4.71439">
        <ele>182</ele>
        <time>2018-06-03T10:13:55Z</time>
      </trkpt>
      <trkpt lat="45.94674" lon="4.71438">
        <ele>182</ele>
        <time>2018-06-03T10:13:56Z</time>
      </trkpt>
      <trkpt lat="45.9467" lon="4.71439">
        <ele>182</ele>
        <time>2018-06-03T10:13:57Z</time>
      </trkpt>
      <trkpt lat="45.94664" lon="4.71438">
        <ele>182</ele>
        <time>2018-06-03T10:13:58Z</time>
      </trkpt>
      <trkpt lat="45.94657" lon="4.71438">
        <ele>182</ele>
        <time>2018-06-03T10:13:59Z</time>
      </trkpt>
      <trkpt lat="45.9465" lon="4.71439">
        <ele>182</ele>
        <time>2018-06-03T10:14:00Z</time>
      </trkpt>
      <trkpt lat="45.94644" lon="4.71438">
        <ele>182</ele>
        <time>2018-06-03T10:14:01Z</time>
      </trkpt>
      <trkpt lat="45.94638" lon="4.7144">
        <ele>181</ele>
        <time>2018-06-03T10:14:02Z</time>
      </trkpt>
      <trkpt lat="45.94631" lon="4.71439">
        <ele>181</ele>
        <time>2018-06-03T10:14:03Z</time>
      </trkpt>
      <trkpt lat="45.94625" lon="4.7144">
        <ele>181</ele>
        <time>2018-06-03T10:14:04Z</time>
      </trkpt>
      <trkpt lat="45.94619" lon="4.71439">
        <ele>181</ele>
        <time>2018-06-03T10:14:05Z</time>
      </trkpt>
      <trkpt lat="45.94612" lon="4.71439">
        <ele>182</ele>
        <time>2018-06-03T10:14:06Z</time>
      </trkpt>
      <trkpt lat="45.94606" lon="4.71438">
        <ele>182</ele>
        <time>2018-06-03T10:14:07Z</time>
      </trkpt>
      <trkpt lat="45.94601" lon="4.71436">
        <ele>182</ele>
        <time>2018-06-03T10:14:08Z</time>
      </trkpt>
      <trkpt lat="45.94595" lon="4.71436">
        <ele>182</ele>
        <time>2018-06-03T10:14:09Z</time>
      </trkpt>
      <trkpt lat="45.94589" lon="4.71436">
        <ele>182</ele>
        <time>2018-06-03T10:14:10Z</time>
      </trkpt>
      <trkpt lat="45.94583" lon="4.71437">
        <ele>182</ele>
        <time>2018-06-03T10:14:11Z</time>
      </trkpt>
      <trkpt lat="45.94577" lon="4.71438">
        <ele>182</ele>
        <time>2018-06-03T10:14:12Z</time>
      </trkpt>
      <trkpt lat="45.94571" lon="4.71437">
        <ele>182</ele>
        <time>2018-06-03T10:14:13Z</time>
      </trkpt>
      <trkpt lat="45.94565" lon="4.71438">
        <ele>181</ele>
        <time>2018-06-03T10:14:14Z</time>
      </trkpt>
      <trkpt lat="45.94558" lon="4.7144">
        <ele>181</ele>
        <time>2018-06-03T10:14:15Z</time>
      </trkpt>
      <trkpt lat="45.94552" lon="4.71441">
        <ele>181</ele>
        <time>2018-06-03T10:14:16Z</time>
      </trkpt>
      <trkpt lat="45.94544" lon="4.71445">
        <ele>181</ele>
        <time>2018-06-03T10:14:17Z</time>
      </trkpt>
      <trkpt lat="45.94536" lon="4.71448">
        <ele>180</ele>
        <time>2018-06-03T10:14:18Z</time>
      </trkpt>
      <trkpt lat="45.94529" lon="4.71452">
        <ele>180</ele>
        <time>2018-06-03T10:14:19Z</time>
      </trkpt>
      <trkpt lat="45.94522" lon="4.71455">
        <ele>180</ele>
        <time>2018-06-03T10:14:20Z</time>
      </trkpt>
      <trkpt lat="45.94515" lon="4.71458">
        <ele>180</ele>
        <time>2018-06-03T10:14:21Z</time>
      </trkpt>
      <trkpt lat="45.94507" lon="4.7146">
        <ele>180</ele>
        <time>2018-06-03T10:14:22Z</time>
      </trkpt>
      <trkpt lat="45.94499" lon="4.71462">
        <ele>179</ele>
        <time>2018-06-03T10:14:23Z</time>
      </trkpt>
      <trkpt lat="45.94491" lon="4.71464">
        <ele>179</ele>
        <time>2018-06-03T10:14:24Z</time>
      </trkpt>
      <trkpt lat="45.94483" lon="4.71466">
        <ele>179</ele>
        <time>2018-06-03T10:14:25Z</time>
      </trkpt>
      <trkpt lat="45.94476" lon="4.71468">
        <ele>179</ele>
        <time>2018-06-03T10:14:26Z</time>
      </trkpt>
      <trkpt lat="45.94467" lon="4.71473">
        <ele>179</ele>
        <time>2018-06-03T10:14:27Z</time>
      </trkpt>
      <trkpt lat="45.9446" lon="4.71476">
        <ele>179</ele>
        <time>2018-06-03T10:14:28Z</time>
      </trkpt>
      <trkpt lat="45.94452" lon="4.71479">
        <ele>179</ele>
        <time>2018-06-03T10:14:29Z</time>
      </trkpt>
      <trkpt lat="45.94445" lon="4.7148">
        <ele>179</ele>
        <time>2018-06-03T10:14:30Z</time>
      </trkpt>
      <trkpt lat="45.94437" lon="4.71482">
        <ele>179</ele>
        <time>2018-06-03T10:14:31Z</time>
      </trkpt>
      <trkpt lat="45.9443" lon="4.71486">
        <ele>178</ele>
        <time>2018-06-03T10:14:32Z</time>
      </trkpt>
      <trkpt lat="45.94423" lon="4.71489">
        <ele>178</ele>
        <time>2018-06-03T10:14:33Z</time>
      </trkpt>
      <trkpt lat="45.94417" lon="4.71494">
        <ele>178</ele>
        <time>2018-06-03T10:14:34Z</time>
      </trkpt>
      <trkpt lat="45.9441" lon="4.71496">
        <ele>178</ele>
        <time>2018-06-03T10:14:35Z</time>
      </trkpt>
      <trkpt lat="45.94403" lon="4.71498">
        <ele>178</ele>
        <time>2018-06-03T10:14:36Z</time>
      </trkpt>
      <trkpt lat="45.94396" lon="4.715">
        <ele>177</ele>
        <time>2018-06-03T10:14:37Z</time>
      </trkpt>
      <trkpt lat="45.94389" lon="4.71503">
        <ele>177</ele>
        <time>2018-06-03T10:14:38Z</time>
      </trkpt>
      <trkpt lat="45.94382" lon="4.71504">
        <ele>177</ele>
        <time>2018-06-03T10:14:39Z</time>
      </trkpt>
      <trkpt lat="45.94374" lon="4.71508">
        <ele>176</ele>
        <time>2018-06-03T10:14:40Z</time>
      </trkpt>
      <trkpt lat="45.94368" lon="4.71509">
        <ele>176</ele>
        <time>2018-06-03T10:14:41Z</time>
      </trkpt>
      <trkpt lat="45.94362" lon="4.71512">
        <ele>176</ele>
        <time>2018-06-03T10:14:42Z</time>
      </trkpt>
      <trkpt lat="45.94355" lon="4.71515">
        <ele>176</ele>
        <time>2018-06-03T10:14:43Z</time>
      </trkpt>
      <trkpt lat="45.94348" lon="4.71517">
        <ele>176</ele>
        <time>2018-06-03T10:14:44Z</time>
      </trkpt>
      <trkpt lat="45.9434" lon="4.7152">
        <ele>176</ele>
        <time>2018-06-03T10:14:45Z</time>
      </trkpt>
      <trkpt lat="45.94332" lon="4.71523">
        <ele>176</ele>
        <time>2018-06-03T10:14:46Z</time>
      </trkpt>
      <trkpt lat="45.94325" lon="4.71526">
        <ele>176</ele>
        <time>2018-06-03T10:14:47Z</time>
      </trkpt>
      <trkpt lat="45.94317" lon="4.71529">
        <ele>175</ele>
        <time>2018-06-03T10:14:48Z</time>
      </trkpt>
      <trkpt lat="45.9431" lon="4.71532">
        <ele>175</ele>
        <time>2018-06-03T10:14:49Z</time>
      </trkpt>
      <trkpt lat="45.94303" lon="4.71537">
        <ele>175</ele>
        <time>2018-06-03T10:14:50Z</time>
      </trkpt>
      <trkpt lat="45.94296" lon="4.7154">
        <ele>175</ele>
        <time>2018-06-03T10:14:51Z</time>
      </trkpt>
      <trkpt lat="45.94289" lon="4.71543">
        <ele>175</ele>
        <time>2018-06-03T10:14:52Z</time>
      </trkpt>
      <trkpt lat="45.94282" lon="4.71545">
        <ele>175</ele>
        <time>2018-06-03T10:14:53Z</time>
      </trkpt>
      <trkpt lat="45.94276" lon="4.71548">
        <ele>175</ele>
        <time>2018-06-03T10:14:54Z</time>
      </trkpt>
      <trkpt lat="45.94268" lon="4.7155">
        <ele>175</ele>
        <time>2018-06-03T10:14:55Z</time>
      </trkpt>
      <trkpt lat="45.94261" lon="4.71553">
        <ele>175</ele>
        <time>2018-06-03T10:14:56Z</time>
      </trkpt>
      <trkpt lat="45.94254" lon="4.71558">
        <ele>175</ele>
        <time>2018-06-03T10:14:57Z</time>
      </trkpt>
      <trkpt lat="45.94246" lon="4.71561">
        <ele>174</ele>
        <time>2018-06-03T10:14:58Z</time>
      </trkpt>
      <trkpt lat="45.9424" lon="4.71564">
        <ele>174</ele>
        <time>2018-06-03T10:14:59Z</time>
      </trkpt>
      <trkpt lat="45.94232" lon="4.71566">
        <ele>174</ele>
        <time>2018-06-03T10:15:00Z</time>
      </trkpt>
      <trkpt lat="45.94226" lon="4.71569">
        <ele>174</ele>
        <time>2018-06-03T10:15:01Z</time>
      </trkpt>
      <trkpt lat="45.9422" lon="4.71572">
        <ele>174</ele>
        <time>2018-06-03T10:15:02Z</time>
      </trkpt>
      <trkpt lat="45.94213" lon="4.71574">
        <ele>174</ele>
        <time>2018-06-03T10:15:03Z</time>
      </trkpt>
      <trkpt lat="45.94206" lon="4.71577">
        <ele>174</ele>
        <time>2018-06-03T10:15:04Z</time>
      </trkpt>
      <trkpt lat="45.942" lon="4.7158">
        <ele>174</ele>
        <time>2018-06-03T10:15:05Z</time>
      </trkpt>
      <trkpt lat="45.94193" lon="4.71582">
        <ele>174</ele>
        <time>2018-06-03T10:15:06Z</time>
      </trkpt>
      <trkpt lat="45.94187" lon="4.71583">
        <ele>174</ele>
        <time>2018-06-03T10:15:07Z</time>
      </trkpt>
      <trkpt lat="45.94182" lon="4.71585">
        <ele>173</ele>
        <time>2018-06-03T10:15:08Z</time>
      </trkpt>
      <trkpt lat="45.94176" lon="4.71587">
        <ele>174</ele>
        <time>2018-06-03T10:15:09Z</time>
      </trkpt>
      <trkpt lat="45.94169" lon="4.71589">
        <ele>174</ele>
        <time>2018-06-03T10:15:10Z</time>
      </trkpt>
      <trkpt lat="45.94163" lon="4.71592">
        <ele>174</ele>
        <time>2018-06-03T10:15:11Z</time>
      </trkpt>
      <trkpt lat="45.94157" lon="4.71594">
        <ele>173</ele>
        <time>2018-06-03T10:15:12Z</time>
      </trkpt>
      <trkpt lat="45.94151" lon="4.71597">
        <ele>173</ele>
        <time>2018-06-03T10:15:13Z</time>
      </trkpt>
      <trkpt lat="45.94144" lon="4.716">
        <ele>173</ele>
        <time>2018-06-03T10:15:14Z</time>
      </trkpt>
      <trkpt lat="45.94138" lon="4.71605">
        <ele>173</ele>
        <time>2018-06-03T10:15:15Z</time>
      </trkpt>
      <trkpt lat="45.94131" lon="4.71608">
        <ele>173</ele>
        <time>2018-06-03T10:15:16Z</time>
      </trkpt>
      <trkpt lat="45.94124" lon="4.7161">
        <ele>173</ele>
        <time>2018-06-03T10:15:17Z</time>
      </trkpt>
      <trkpt lat="45.94117" lon="4.71612">
        <ele>173</ele>
        <time>2018-06-03T10:15:18Z</time>
      </trkpt>
      <trkpt lat="45.94112" lon="4.71615">
        <ele>173</ele>
        <time>2018-06-03T10:15:19Z</time>
      </trkpt>
      <trkpt lat="45.94104" lon="4.71618">
        <ele>173</ele>
        <time>2018-06-03T10:15:20Z</time>
      </trkpt>
      <trkpt lat="45.94097" lon="4.71621">
        <ele>173</ele>
        <time>2018-06-03T10:15:21Z</time>
      </trkpt>
      <trkpt lat="45.94091" lon="4.71622">
        <ele>173</ele>
        <time>2018-06-03T10:15:22Z</time>
      </trkpt>
      <trkpt lat="45.94086" lon="4.71625">
        <ele>173</ele>
        <time>2018-06-03T10:15:23Z</time>
      </trkpt>
      <trkpt lat="45.94081" lon="4.71627">
        <ele>174</ele>
        <time>2018-06-03T10:15:24Z</time>
      </trkpt>
      <trkpt lat="45.94076" lon="4.71628">
        <ele>174</ele>
        <time>2018-06-03T10:15:25Z</time>
      </trkpt>
      <trkpt lat="45.9407" lon="4.7163">
        <ele>174</ele>
        <time>2018-06-03T10:15:26Z</time>
      </trkpt>
      <trkpt lat="45.94064" lon="4.71634">
        <ele>174</ele>
        <time>2018-06-03T10:15:27Z</time>
      </trkpt>
      <trkpt lat="45.94058" lon="4.71636">
        <ele>174</ele>
        <time>2018-06-03T10:15:28Z</time>
      </trkpt>
      <trkpt lat="45.94052" lon="4.71636">
        <ele>175</ele>
        <time>2018-06-03T10:15:29Z</time>
      </trkpt>
      <trkpt lat="45.94046" lon="4.71638">
        <ele>175</ele>
        <time>2018-06-03T10:15:30Z</time>
      </trkpt>
      <trkpt lat="45.9404" lon="4.71641">
        <ele>175</ele>
        <time>2018-06-03T10:15:31Z</time>
      </trkpt>
      <trkpt lat="45.94034" lon="4.71643">
        <ele>175</ele>
        <time>2018-06-03T10:15:32Z</time>
      </trkpt>
      <trkpt lat="45.9403" lon="4.71646">
        <ele>175</ele>
        <time>2018-06-03T10:15:33Z</time>
      </trkpt>
      <trkpt lat="45.94025" lon="4.71648">
        <ele>175</ele>
        <time>2018-06-03T10:15:34Z</time>
      </trkpt>
      <trkpt lat="45.94021" lon="4.7165">
        <ele>175</ele>
        <time>2018-06-03T10:15:35Z</time>
      </trkpt>
      <trkpt lat="45.94016" lon="4.71652">
        <ele>176</ele>
        <time>2018-06-03T10:15:36Z</time>
      </trkpt>
      <trkpt lat="45.94011" lon="4.71654">
        <ele>176</ele>
        <time>2018-06-03T10:15:37Z</time>
      </trkpt>
      <trkpt lat="45.94007" lon="4.71655">
        <ele>176</ele>
        <time>2018-06-03T10:15:38Z</time>
      </trkpt>
      <trkpt lat="45.94002" lon="4.71657">
        <ele>176</ele>
        <time>2018-06-03T10:15:39Z</time>
      </trkpt>
      <trkpt lat="45.93993" lon="4.71657">
        <ele>177</ele>
        <time>2018-06-03T10:15:41Z</time>
      </trkpt>
      <trkpt lat="45.93989" lon="4.71657">
        <ele>177</ele>
        <time>2018-06-03T10:15:42Z</time>
      </trkpt>
      <trkpt lat="45.93983" lon="4.71659">
        <ele>177</ele>
        <time>2018-06-03T10:15:43Z</time>
      </trkpt>
      <trkpt lat="45.93976" lon="4.71661">
        <ele>177</ele>
        <time>2018-06-03T10:15:44Z</time>
      </trkpt>
      <trkpt lat="45.9397" lon="4.71663">
        <ele>177</ele>
        <time>2018-06-03T10:15:45Z</time>
      </trkpt>
      <trkpt lat="45.93964" lon="4.71667">
        <ele>177</ele>
        <time>2018-06-03T10:15:46Z</time>
      </trkpt>
      <trkpt lat="45.93957" lon="4.71671">
        <ele>175</ele>
        <time>2018-06-03T10:15:48Z</time>
      </trkpt>
      <trkpt lat="45.93949" lon="4.71673">
        <ele>175</ele>
        <time>2018-06-03T10:15:49Z</time>
      </trkpt>
      <trkpt lat="45.93945" lon="4.71675">
        <ele>175</ele>
        <time>2018-06-03T10:15:50Z</time>
      </trkpt>
      <trkpt lat="45.93938" lon="4.71678">
        <ele>175</ele>
        <time>2018-06-03T10:15:51Z</time>
      </trkpt>
      <trkpt lat="45.93933" lon="4.71681">
        <ele>175</ele>
        <time>2018-06-03T10:15:52Z</time>
      </trkpt>
      <trkpt lat="45.93926" lon="4.71682">
        <ele>175</ele>
        <time>2018-06-03T10:15:53Z</time>
      </trkpt>
      <trkpt lat="45.93921" lon="4.71685">
        <ele>175</ele>
        <time>2018-06-03T10:15:54Z</time>
      </trkpt>
      <trkpt lat="45.93915" lon="4.71688">
        <ele>174</ele>
        <time>2018-06-03T10:15:55Z</time>
      </trkpt>
      <trkpt lat="45.93909" lon="4.7169">
        <ele>174</ele>
        <time>2018-06-03T10:15:56Z</time>
      </trkpt>
      <trkpt lat="45.93905" lon="4.7169">
        <ele>174</ele>
        <time>2018-06-03T10:15:57Z</time>
      </trkpt>
      <trkpt lat="45.939" lon="4.71691">
        <ele>174</ele>
        <time>2018-06-03T10:15:58Z</time>
      </trkpt>
      <trkpt lat="45.93894" lon="4.71692">
        <ele>174</ele>
        <time>2018-06-03T10:15:59Z</time>
      </trkpt>
      <trkpt lat="45.93888" lon="4.71694">
        <ele>174</ele>
        <time>2018-06-03T10:16:00Z</time>
      </trkpt>
      <trkpt lat="45.93883" lon="4.71696">
        <ele>174</ele>
        <time>2018-06-03T10:16:01Z</time>
      </trkpt>
      <trkpt lat="45.93878" lon="4.71698">
        <ele>174</ele>
        <time>2018-06-03T10:16:02Z</time>
      </trkpt>
      <trkpt lat="45.93873" lon="4.717">
        <ele>174</ele>
        <time>2018-06-03T10:16:03Z</time>
      </trkpt>
      <trkpt lat="45.93868" lon="4.71701">
        <ele>174</ele>
        <time>2018-06-03T10:16:04Z</time>
      </trkpt>
      <trkpt lat="45.93863" lon="4.71704">
        <ele>174</ele>
        <time>2018-06-03T10:16:05Z</time>
      </trkpt>
      <trkpt lat="45.93857" lon="4.71707">
        <ele>174</ele>
        <time>2018-06-03T10:16:06Z</time>
      </trkpt>
      <trkpt lat="45.9385" lon="4.71711">
        <ele>174</ele>
        <time>2018-06-03T10:16:07Z</time>
      </trkpt>
      <trkpt lat="45.93845" lon="4.71712">
        <ele>174</ele>
        <time>2018-06-03T10:16:08Z</time>
      </trkpt>
      <trkpt lat="45.93841" lon="4.71714">
        <ele>174</ele>
        <time>2018-06-03T10:16:09Z</time>
      </trkpt>
      <trkpt lat="45.93837" lon="4.71716">
        <ele>175</ele>
        <time>2018-06-03T10:16:10Z</time>
      </trkpt>
      <trkpt lat="45.9383" lon="4.71719">
        <ele>175</ele>
        <time>2018-06-03T10:16:11Z</time>
      </trkpt>
      <trkpt lat="45.93825" lon="4.71721">
        <ele>175</ele>
        <time>2018-06-03T10:16:12Z</time>
      </trkpt>
      <trkpt lat="45.93819" lon="4.71723">
        <ele>175</ele>
        <time>2018-06-03T10:16:13Z</time>
      </trkpt>
      <trkpt lat="45.9381" lon="4.71727">
        <ele>175</ele>
        <time>2018-06-03T10:16:14Z</time>
      </trkpt>
      <trkpt lat="45.93805" lon="4.71731">
        <ele>175</ele>
        <time>2018-06-03T10:16:15Z</time>
      </trkpt>
      <trkpt lat="45.938" lon="4.71732">
        <ele>175</ele>
        <time>2018-06-03T10:16:16Z</time>
      </trkpt>
      <trkpt lat="45.93794" lon="4.71734">
        <ele>175</ele>
        <time>2018-06-03T10:16:17Z</time>
      </trkpt>
      <trkpt lat="45.93789" lon="4.7174">
        <ele>175</ele>
        <time>2018-06-03T10:16:18Z</time>
      </trkpt>
      <trkpt lat="45.93782" lon="4.71741">
        <ele>175</ele>
        <time>2018-06-03T10:16:19Z</time>
      </trkpt>
      <trkpt lat="45.93777" lon="4.71742">
        <ele>175</ele>
        <time>2018-06-03T10:16:20Z</time>
      </trkpt>
      <trkpt lat="45.93771" lon="4.71745">
        <ele>175</ele>
        <time>2018-06-03T10:16:21Z</time>
      </trkpt>
      <trkpt lat="45.93766" lon="4.71746">
        <ele>175</ele>
        <time>2018-06-03T10:16:22Z</time>
      </trkpt>
      <trkpt lat="45.9376" lon="4.71749">
        <ele>175</ele>
        <time>2018-06-03T10:16:23Z</time>
      </trkpt>
      <trkpt lat="45.93754" lon="4.71753">
        <ele>175</ele>
        <time>2018-06-03T10:16:24Z</time>
      </trkpt>
      <trkpt lat="45.93748" lon="4.71752">
        <ele>175</ele>
        <time>2018-06-03T10:16:25Z</time>
      </trkpt>
      <trkpt lat="45.93742" lon="4.71753">
        <ele>175</ele>
        <time>2018-06-03T10:16:26Z</time>
      </trkpt>
      <trkpt lat="45.93735" lon="4.71756">
        <ele>176</ele>
        <time>2018-06-03T10:16:27Z</time>
      </trkpt>
      <trkpt lat="45.93728" lon="4.71761">
        <ele>176</ele>
        <time>2018-06-03T10:16:28Z</time>
      </trkpt>
      <trkpt lat="45.93723" lon="4.71768">
        <ele>176</ele>
        <time>2018-06-03T10:16:29Z</time>
      </trkpt>
      <trkpt lat="45.93721" lon="4.71774">
        <ele>176</ele>
        <time>2018-06-03T10:16:30Z</time>
      </trkpt>
      <trkpt lat="45.93718" lon="4.71785">
        <ele>176</ele>
        <time>2018-06-03T10:16:31Z</time>
      </trkpt>
      <trkpt lat="45.93716" lon="4.71793">
        <ele>176</ele>
        <time>2018-06-03T10:16:32Z</time>
      </trkpt>
      <trkpt lat="45.93712" lon="4.71802">
        <ele>176</ele>
        <time>2018-06-03T10:16:33Z</time>
      </trkpt>
      <trkpt lat="45.93709" lon="4.71812">
        <ele>176</ele>
        <time>2018-06-03T10:16:34Z</time>
      </trkpt>
      <trkpt lat="45.93707" lon="4.7182">
        <ele>176</ele>
        <time>2018-06-03T10:16:35Z</time>
      </trkpt>
      <trkpt lat="45.93702" lon="4.71827">
        <ele>176</ele>
        <time>2018-06-03T10:16:36Z</time>
      </trkpt>
      <trkpt lat="45.93699" lon="4.71834">
        <ele>175</ele>
        <time>2018-06-03T10:16:37Z</time>
      </trkpt>
      <trkpt lat="45.93696" lon="4.71842">
        <ele>175</ele>
        <time>2018-06-03T10:16:38Z</time>
      </trkpt>
      <trkpt lat="45.93693" lon="4.7185">
        <ele>175</ele>
        <time>2018-06-03T10:16:39Z</time>
      </trkpt>
      <trkpt lat="45.93691" lon="4.71859">
        <ele>175</ele>
        <time>2018-06-03T10:16:40Z</time>
      </trkpt>
      <trkpt lat="45.93688" lon="4.71873">
        <ele>175</ele>
        <time>2018-06-03T10:16:41Z</time>
      </trkpt>
      <trkpt lat="45.93684" lon="4.71882">
        <ele>175</ele>
        <time>2018-06-03T10:16:42Z</time>
      </trkpt>
      <trkpt lat="45.9368" lon="4.71882">
        <ele>175</ele>
        <time>2018-06-03T10:16:43Z</time>
      </trkpt>
      <trkpt lat="45.93677" lon="4.7189">
        <ele>175</ele>
        <time>2018-06-03T10:16:44Z</time>
      </trkpt>
      <trkpt lat="45.93675" lon="4.719">
        <ele>175</ele>
        <time>2018-06-03T10:16:45Z</time>
      </trkpt>
      <trkpt lat="45.93672" lon="4.71906">
        <ele>175</ele>
        <time>2018-06-03T10:16:46Z</time>
      </trkpt>
      <trkpt lat="45.93671" lon="4.71916">
        <ele>175</ele>
        <time>2018-06-03T10:16:47Z</time>
      </trkpt>
      <trkpt lat="45.93667" lon="4.71923">
        <ele>175</ele>
        <time>2018-06-03T10:16:48Z</time>
      </trkpt>
      <trkpt lat="45.93667" lon="4.71932">
        <ele>174</ele>
        <time>2018-06-03T10:16:49Z</time>
      </trkpt>
      <trkpt lat="45.93664" lon="4.71938">
        <ele>175</ele>
        <time>2018-06-03T10:16:50Z</time>
      </trkpt>
      <trkpt lat="45.9366" lon="4.71946">
        <ele>175</ele>
        <time>2018-06-03T10:16:51Z</time>
      </trkpt>
      <trkpt lat="45.93656" lon="4.71954">
        <ele>175</ele>
        <time>2018-06-03T10:16:52Z</time>
      </trkpt>
      <trkpt lat="45.93653" lon="4.71962">
        <ele>175</ele>
        <time>2018-06-03T10:16:53Z</time>
      </trkpt>
      <trkpt lat="45.9365" lon="4.71971">
        <ele>175</ele>
        <time>2018-06-03T10:16:54Z</time>
      </trkpt>
      <trkpt lat="45.93647" lon="4.7198">
        <ele>175</ele>
        <time>2018-06-03T10:16:55Z</time>
      </trkpt>
      <trkpt lat="45.93645" lon="4.71988">
        <ele>175</ele>
        <time>2018-06-03T10:16:56Z</time>
      </trkpt>
      <trkpt lat="45.93641" lon="4.71993">
        <ele>175</ele>
        <time>2018-06-03T10:16:57Z</time>
      </trkpt>
      <trkpt lat="45.93637" lon="4.71998">
        <ele>175</ele>
        <time>2018-06-03T10:16:58Z</time>
      </trkpt>
      <trkpt lat="45.93635" lon="4.72004">
        <ele>174</ele>
        <time>2018-06-03T10:16:59Z</time>
      </trkpt>
      <trkpt lat="45.93632" lon="4.7201">
        <ele>174</ele>
        <time>2018-06-03T10:17:00Z</time>
      </trkpt>
      <trkpt lat="45.93628" lon="4.72017">
        <ele>175</ele>
        <time>2018-06-03T10:17:01Z</time>
      </trkpt>
      <trkpt lat="45.93626" lon="4.72025">
        <ele>175</ele>
        <time>2018-06-03T10:17:02Z</time>
      </trkpt>
      <trkpt lat="45.93624" lon="4.72034">
        <ele>175</ele>
        <time>2018-06-03T10:17:03Z</time>
      </trkpt>
      <trkpt lat="45.93621" lon="4.72042">
        <ele>175</ele>
        <time>2018-06-03T10:17:04Z</time>
      </trkpt>
      <trkpt lat="45.93619" lon="4.72049">
        <ele>175</ele>
        <time>2018-06-03T10:17:05Z</time>
      </trkpt>
      <trkpt lat="45.93616" lon="4.72056">
        <ele>175</ele>
        <time>2018-06-03T10:17:06Z</time>
      </trkpt>
      <trkpt lat="45.93615" lon="4.72063">
        <ele>175</ele>
        <time>2018-06-03T10:17:07Z</time>
      </trkpt>
      <trkpt lat="45.93613" lon="4.7207">
        <ele>175</ele>
        <time>2018-06-03T10:17:08Z</time>
      </trkpt>
      <trkpt lat="45.93611" lon="4.72079">
        <ele>175</ele>
        <time>2018-06-03T10:17:09Z</time>
      </trkpt>
      <trkpt lat="45.93608" lon="4.72087">
        <ele>174</ele>
        <time>2018-06-03T10:17:10Z</time>
      </trkpt>
      <trkpt lat="45.93604" lon="4.72091">
        <ele>174</ele>
        <time>2018-06-03T10:17:11Z</time>
      </trkpt>
      <trkpt lat="45.93601" lon="4.72099">
        <ele>174</ele>
        <time>2018-06-03T10:17:12Z</time>
      </trkpt>
      <trkpt lat="45.93597" lon="4.72104">
        <ele>174</ele>
        <time>2018-06-03T10:17:13Z</time>
      </trkpt>
      <trkpt lat="45.93593" lon="4.7211">
        <ele>174</ele>
        <time>2018-06-03T10:17:14Z</time>
      </trkpt>
      <trkpt lat="45.9359" lon="4.72115">
        <ele>174</ele>
        <time>2018-06-03T10:17:15Z</time>
      </trkpt>
      <trkpt lat="45.93585" lon="4.72123">
        <ele>174</ele>
        <time>2018-06-03T10:17:17Z</time>
      </trkpt>
      <trkpt lat="45.93582" lon="4.72129">
        <ele>174</ele>
        <time>2018-06-03T10:17:18Z</time>
      </trkpt>
      <trkpt lat="45.9358" lon="4.72134">
        <ele>174</ele>
        <time>2018-06-03T10:17:19Z</time>
      </trkpt>
      <trkpt lat="45.93578" lon="4.72144">
        <ele>174</ele>
        <time>2018-06-03T10:17:20Z</time>
      </trkpt>
      <trkpt lat="45.93575" lon="4.72152">
        <ele>174</ele>
        <time>2018-06-03T10:17:21Z</time>
      </trkpt>
      <trkpt lat="45.93572" lon="4.72158">
        <ele>174</ele>
        <time>2018-06-03T10:17:22Z</time>
      </trkpt>
      <trkpt lat="45.93568" lon="4.72169">
        <ele>173</ele>
        <time>2018-06-03T10:17:23Z</time>
      </trkpt>
      <trkpt lat="45.93565" lon="4.72178">
        <ele>173</ele>
        <time>2018-06-03T10:17:24Z</time>
      </trkpt>
      <trkpt lat="45.93564" lon="4.72186">
        <ele>173</ele>
        <time>2018-06-03T10:17:25Z</time>
      </trkpt>
      <trkpt lat="45.93561" lon="4.72193">
        <ele>173</ele>
        <time>2018-06-03T10:17:26Z</time>
      </trkpt>
      <trkpt lat="45.93558" lon="4.722">
        <ele>173</ele>
        <time>2018-06-03T10:17:27Z</time>
      </trkpt>
      <trkpt lat="45.93554" lon="4.72209">
        <ele>173</ele>
        <time>2018-06-03T10:17:28Z</time>
      </trkpt>
      <trkpt lat="45.9355" lon="4.72216">
        <ele>173</ele>
        <time>2018-06-03T10:17:29Z</time>
      </trkpt>
      <trkpt lat="45.93548" lon="4.72223">
        <ele>172</ele>
        <time>2018-06-03T10:17:30Z</time>
      </trkpt>
      <trkpt lat="45.93545" lon="4.7223">
        <ele>172</ele>
        <time>2018-06-03T10:17:31Z</time>
      </trkpt>
      <trkpt lat="45.93543" lon="4.72236">
        <ele>172</ele>
        <time>2018-06-03T10:17:32Z</time>
      </trkpt>
      <trkpt lat="45.9354" lon="4.72244">
        <ele>172</ele>
        <time>2018-06-03T10:17:33Z</time>
      </trkpt>
      <trkpt lat="45.93537" lon="4.7225">
        <ele>172</ele>
        <time>2018-06-03T10:17:34Z</time>
      </trkpt>
      <trkpt lat="45.93536" lon="4.72256">
        <ele>172</ele>
        <time>2018-06-03T10:17:35Z</time>
      </trkpt>
      <trkpt lat="45.93533" lon="4.72263">
        <ele>172</ele>
        <time>2018-06-03T10:17:36Z</time>
      </trkpt>
      <trkpt lat="45.93531" lon="4.72269">
        <ele>172</ele>
        <time>2018-06-03T10:17:37Z</time>
      </trkpt>
      <trkpt lat="45.93528" lon="4.72276">
        <ele>172</ele>
        <time>2018-06-03T10:17:38Z</time>
      </trkpt>
      <trkpt lat="45.93526" lon="4.72282">
        <ele>172</ele>
        <time>2018-06-03T10:17:39Z</time>
      </trkpt>
      <trkpt lat="45.93523" lon="4.72291">
        <ele>172</ele>
        <time>2018-06-03T10:17:40Z</time>
      </trkpt>
      <trkpt lat="45.93519" lon="4.72296">
        <ele>172</ele>
        <time>2018-06-03T10:17:41Z</time>
      </trkpt>
      <trkpt lat="45.93515" lon="4.72303">
        <ele>172</ele>
        <time>2018-06-03T10:17:42Z</time>
      </trkpt>
      <trkpt lat="45.93511" lon="4.72308">
        <ele>173</ele>
        <time>2018-06-03T10:17:43Z</time>
      </trkpt>
      <trkpt lat="45.93506" lon="4.72315">
        <ele>173</ele>
        <time>2018-06-03T10:17:44Z</time>
      </trkpt>
      <trkpt lat="45.93501" lon="4.72321">
        <ele>173</ele>
        <time>2018-06-03T10:17:45Z</time>
      </trkpt>
      <trkpt lat="45.93497" lon="4.72327">
        <ele>173</ele>
        <time>2018-06-03T10:17:46Z</time>
      </trkpt>
      <trkpt lat="45.93493" lon="4.72333">
        <ele>173</ele>
        <time>2018-06-03T10:17:47Z</time>
      </trkpt>
      <trkpt lat="45.93488" lon="4.7234">
        <ele>173</ele>
        <time>2018-06-03T10:17:48Z</time>
      </trkpt>
      <trkpt lat="45.93482" lon="4.72347">
        <ele>173</ele>
        <time>2018-06-03T10:17:49Z</time>
      </trkpt>
      <trkpt lat="45.93478" lon="4.72354">
        <ele>173</ele>
        <time>2018-06-03T10:17:50Z</time>
      </trkpt>
      <trkpt lat="45.93473" lon="4.7236">
        <ele>173</ele>
        <time>2018-06-03T10:17:51Z</time>
      </trkpt>
      <trkpt lat="45.93468" lon="4.72366">
        <ele>173</ele>
        <time>2018-06-03T10:17:52Z</time>
      </trkpt>
      <trkpt lat="45.93465" lon="4.72372">
        <ele>173</ele>
        <time>2018-06-03T10:17:53Z</time>
      </trkpt>
      <trkpt lat="45.93461" lon="4.72377">
        <ele>173</ele>
        <time>2018-06-03T10:17:54Z</time>
      </trkpt>
      <trkpt lat="45.93456" lon="4.72382">
        <ele>173</ele>
        <time>2018-06-03T10:17:55Z</time>
      </trkpt>
      <trkpt lat="45.93451" lon="4.72386">
        <ele>173</ele>
        <time>2018-06-03T10:17:56Z</time>
      </trkpt>
      <trkpt lat="45.93446" lon="4.7239">
        <ele>173</ele>
        <time>2018-06-03T10:17:57Z</time>
      </trkpt>
      <trkpt lat="45.93441" lon="4.72395">
        <ele>173</ele>
        <time>2018-06-03T10:17:58Z</time>
      </trkpt>
      <trkpt lat="45.93434" lon="4.72399">
        <ele>173</ele>
        <time>2018-06-03T10:17:59Z</time>
      </trkpt>
      <trkpt lat="45.93428" lon="4.72401">
        <ele>174</ele>
        <time>2018-06-03T10:18:00Z</time>
      </trkpt>
      <trkpt lat="45.93423" lon="4.72403">
        <ele>174</ele>
        <time>2018-06-03T10:18:01Z</time>
      </trkpt>
      <trkpt lat="45.93418" lon="4.72405">
        <ele>174</ele>
        <time>2018-06-03T10:18:02Z</time>
      </trkpt>
      <trkpt lat="45.93411" lon="4.72408">
        <ele>174</ele>
        <time>2018-06-03T10:18:03Z</time>
      </trkpt>
      <trkpt lat="45.93406" lon="4.72408">
        <ele>174</ele>
        <time>2018-06-03T10:18:04Z</time>
      </trkpt>
      <trkpt lat="45.93401" lon="4.72408">
        <ele>174</ele>
        <time>2018-06-03T10:18:05Z</time>
      </trkpt>
      <trkpt lat="45.93396" lon="4.72407">
        <ele>174</ele>
        <time>2018-06-03T10:18:06Z</time>
      </trkpt>
      <trkpt lat="45.93391" lon="4.72407">
        <ele>174</ele>
        <time>2018-06-03T10:18:07Z</time>
      </trkpt>
      <trkpt lat="45.93387" lon="4.72414">
        <ele>174</ele>
        <time>2018-06-03T10:18:08Z</time>
      </trkpt>
      <trkpt lat="45.93383" lon="4.72419">
        <ele>173</ele>
        <time>2018-06-03T10:18:09Z</time>
      </trkpt>
      <trkpt lat="45.93381" lon="4.72426">
        <ele>173</ele>
        <time>2018-06-03T10:18:10Z</time>
      </trkpt>
      <trkpt lat="45.93385" lon="4.72434">
        <ele>173</ele>
        <time>2018-06-03T10:18:11Z</time>
      </trkpt>
      <trkpt lat="45.9339" lon="4.72443">
        <ele>173</ele>
        <time>2018-06-03T10:18:12Z</time>
      </trkpt>
      <trkpt lat="45.9339" lon="4.72448">
        <ele>173</ele>
        <time>2018-06-03T10:18:13Z</time>
      </trkpt>
      <trkpt lat="45.93392" lon="4.72455">
        <ele>173</ele>
        <time>2018-06-03T10:18:14Z</time>
      </trkpt>
      <trkpt lat="45.93389" lon="4.72462">
        <ele>173</ele>
        <time>2018-06-03T10:18:15Z</time>
      </trkpt>
      <trkpt lat="45.93387" lon="4.72469">
        <ele>173</ele>
        <time>2018-06-03T10:18:16Z</time>
      </trkpt>
      <trkpt lat="45.93382" lon="4.72474">
        <ele>173</ele>
        <time>2018-06-03T10:18:17Z</time>
      </trkpt>
      <trkpt lat="45.93377" lon="4.7248">
        <ele>173</ele>
        <time>2018-06-03T10:18:18Z</time>
      </trkpt>
      <trkpt lat="45.93372" lon="4.72487">
        <ele>173</ele>
        <time>2018-06-03T10:18:19Z</time>
      </trkpt>
      <trkpt lat="45.93367" lon="4.72493">
        <ele>173</ele>
        <time>2018-06-03T10:18:20Z</time>
      </trkpt>
      <trkpt lat="45.93362" lon="4.72498">
        <ele>173</ele>
        <time>2018-06-03T10:18:21Z</time>
      </trkpt>
      <trkpt lat="45.93358" lon="4.72502">
        <ele>172</ele>
        <time>2018-06-03T10:18:22Z</time>
      </trkpt>
      <trkpt lat="45.93354" lon="4.72508">
        <ele>172</ele>
        <time>2018-06-03T10:18:23Z</time>
      </trkpt>
      <trkpt lat="45.9335" lon="4.72513">
        <ele>172</ele>
        <time>2018-06-03T10:18:24Z</time>
      </trkpt>
      <trkpt lat="45.93347" lon="4.72517">
        <ele>172</ele>
        <time>2018-06-03T10:18:25Z</time>
      </trkpt>
      <trkpt lat="45.93344" lon="4.72524">
        <ele>172</ele>
        <time>2018-06-03T10:18:26Z</time>
      </trkpt>
      <trkpt lat="45.9334" lon="4.72529">
        <ele>172</ele>
        <time>2018-06-03T10:18:27Z</time>
      </trkpt>
      <trkpt lat="45.93335" lon="4.72534">
        <ele>172</ele>
        <time>2018-06-03T10:18:28Z</time>
      </trkpt>
      <trkpt lat="45.93331" lon="4.72539">
        <ele>172</ele>
        <time>2018-06-03T10:18:29Z</time>
      </trkpt>
      <trkpt lat="45.93327" lon="4.72544">
        <ele>172</ele>
        <time>2018-06-03T10:18:30Z</time>
      </trkpt>
      <trkpt lat="45.93324" lon="4.72549">
        <ele>172</ele>
        <time>2018-06-03T10:18:31Z</time>
      </trkpt>
      <trkpt lat="45.93321" lon="4.72554">
        <ele>172</ele>
        <time>2018-06-03T10:18:32Z</time>
      </trkpt>
      <trkpt lat="45.93315" lon="4.72558">
        <ele>171</ele>
        <time>2018-06-03T10:18:33Z</time>
      </trkpt>
      <trkpt lat="45.9331" lon="4.72563">
        <ele>171</ele>
        <time>2018-06-03T10:18:34Z</time>
      </trkpt>
      <trkpt lat="45.93304" lon="4.72569">
        <ele>171</ele>
        <time>2018-06-03T10:18:35Z</time>
      </trkpt>
      <trkpt lat="45.933" lon="4.72573">
        <ele>171</ele>
        <time>2018-06-03T10:18:36Z</time>
      </trkpt>
      <trkpt lat="45.93296" lon="4.72579">
        <ele>171</ele>
        <time>2018-06-03T10:18:37Z</time>
      </trkpt>
      <trkpt lat="45.93291" lon="4.72584">
        <ele>170</ele>
        <time>2018-06-03T10:18:38Z</time>
      </trkpt>
      <trkpt lat="45.93286" lon="4.72589">
        <ele>170</ele>
        <time>2018-06-03T10:18:39Z</time>
      </trkpt>
      <trkpt lat="45.93281" lon="4.72594">
        <ele>170</ele>
        <time>2018-06-03T10:18:40Z</time>
      </trkpt>
      <trkpt lat="45.93277" lon="4.72598">
        <ele>170</ele>
        <time>2018-06-03T10:18:41Z</time>
      </trkpt>
      <trkpt lat="45.93272" lon="4.72604">
        <ele>170</ele>
        <time>2018-06-03T10:18:42Z</time>
      </trkpt>
      <trkpt lat="45.93269" lon="4.72606">
        <ele>170</ele>
        <time>2018-06-03T10:18:43Z</time>
      </trkpt>
      <trkpt lat="45.93265" lon="4.72611">
        <ele>170</ele>
        <time>2018-06-03T10:18:44Z</time>
      </trkpt>
      <trkpt lat="45.9326" lon="4.72618">
        <ele>170</ele>
        <time>2018-06-03T10:18:45Z</time>
      </trkpt>
      <trkpt lat="45.93256" lon="4.72621">
        <ele>170</ele>
        <time>2018-06-03T10:18:46Z</time>
      </trkpt>
      <trkpt lat="45.93251" lon="4.72626">
        <ele>170</ele>
        <time>2018-06-03T10:18:47Z</time>
      </trkpt>
      <trkpt lat="45.93247" lon="4.72631">
        <ele>170</ele>
        <time>2018-06-03T10:18:48Z</time>
      </trkpt>
      <trkpt lat="45.93243" lon="4.72634">
        <ele>170</ele>
        <time>2018-06-03T10:18:49Z</time>
      </trkpt>
      <trkpt lat="45.93239" lon="4.72639">
        <ele>170</ele>
        <time>2018-06-03T10:18:50Z</time>
      </trkpt>
      <trkpt lat="45.93235" lon="4.72643">
        <ele>170</ele>
        <time>2018-06-03T10:18:51Z</time>
      </trkpt>
      <trkpt lat="45.93231" lon="4.72648">
        <ele>170</ele>
        <time>2018-06-03T10:18:52Z</time>
      </trkpt>
      <trkpt lat="45.93226" lon="4.72654">
        <ele>170</ele>
        <time>2018-06-03T10:18:53Z</time>
      </trkpt>
      <trkpt lat="45.93222" lon="4.72659">
        <ele>170</ele>
        <time>2018-06-03T10:18:54Z</time>
      </trkpt>
      <trkpt lat="45.93218" lon="4.72663">
        <ele>170</ele>
        <time>2018-06-03T10:18:55Z</time>
      </trkpt>
      <trkpt lat="45.93215" lon="4.72667">
        <ele>169</ele>
        <time>2018-06-03T10:18:56Z</time>
      </trkpt>
      <trkpt lat="45.9321" lon="4.72672">
        <ele>169</ele>
        <time>2018-06-03T10:18:57Z</time>
      </trkpt>
      <trkpt lat="45.93206" lon="4.72677">
        <ele>169</ele>
        <time>2018-06-03T10:18:58Z</time>
      </trkpt>
      <trkpt lat="45.93202" lon="4.72681">
        <ele>169</ele>
        <time>2018-06-03T10:18:59Z</time>
      </trkpt>
      <trkpt lat="45.93198" lon="4.72686">
        <ele>169</ele>
        <time>2018-06-03T10:19:00Z</time>
      </trkpt>
      <trkpt lat="45.93194" lon="4.72692">
        <ele>169</ele>
        <time>2018-06-03T10:19:01Z</time>
      </trkpt>
      <trkpt lat="45.9319" lon="4.72697">
        <ele>169</ele>
        <time>2018-06-03T10:19:02Z</time>
      </trkpt>
      <trkpt lat="45.93186" lon="4.72703">
        <ele>169</ele>
        <time>2018-06-03T10:19:03Z</time>
      </trkpt>
      <trkpt lat="45.9318" lon="4.72708">
        <ele>169</ele>
        <time>2018-06-03T10:19:04Z</time>
      </trkpt>
      <trkpt lat="45.93177" lon="4.72712">
        <ele>169</ele>
        <time>2018-06-03T10:19:05Z</time>
      </trkpt>
      <trkpt lat="45.93172" lon="4.72717">
        <ele>170</ele>
        <time>2018-06-03T10:19:06Z</time>
      </trkpt>
      <trkpt lat="45.93167" lon="4.72723">
        <ele>170</ele>
        <time>2018-06-03T10:19:07Z</time>
      </trkpt>
      <trkpt lat="45.93163" lon="4.72728">
        <ele>170</ele>
        <time>2018-06-03T10:19:08Z</time>
      </trkpt>
      <trkpt lat="45.93158" lon="4.72733">
        <ele>170</ele>
        <time>2018-06-03T10:19:09Z</time>
      </trkpt>
      <trkpt lat="45.93154" lon="4.72738">
        <ele>170</ele>
        <time>2018-06-03T10:19:10Z</time>
      </trkpt>
      <trkpt lat="45.93149" lon="4.72743">
        <ele>170</ele>
        <time>2018-06-03T10:19:11Z</time>
      </trkpt>
      <trkpt lat="45.93145" lon="4.72749">
        <ele>170</ele>
        <time>2018-06-03T10:19:12Z</time>
      </trkpt>
      <trkpt lat="45.93141" lon="4.72755">
        <ele>171</ele>
        <time>2018-06-03T10:19:13Z</time>
      </trkpt>
      <trkpt lat="45.93136" lon="4.72761">
        <ele>171</ele>
        <time>2018-06-03T10:19:14Z</time>
      </trkpt>
      <trkpt lat="45.93132" lon="4.72766">
        <ele>171</ele>
        <time>2018-06-03T10:19:15Z</time>
      </trkpt>
      <trkpt lat="45.93127" lon="4.72772">
        <ele>171</ele>
        <time>2018-06-03T10:19:16Z</time>
      </trkpt>
      <trkpt lat="45.93122" lon="4.72778">
        <ele>171</ele>
        <time>2018-06-03T10:19:17Z</time>
      </trkpt>
      <trkpt lat="45.93119" lon="4.72785">
        <ele>171</ele>
        <time>2018-06-03T10:19:18Z</time>
      </trkpt>
      <trkpt lat="45.93114" lon="4.72794">
        <ele>171</ele>
        <time>2018-06-03T10:19:19Z</time>
      </trkpt>
      <trkpt lat="45.9311" lon="4.72798">
        <ele>171</ele>
        <time>2018-06-03T10:19:20Z</time>
      </trkpt>
      <trkpt lat="45.93105" lon="4.72802">
        <ele>171</ele>
        <time>2018-06-03T10:19:21Z</time>
      </trkpt>
      <trkpt lat="45.93101" lon="4.72807">
        <ele>171</ele>
        <time>2018-06-03T10:19:22Z</time>
      </trkpt>
      <trkpt lat="45.93096" lon="4.72811">
        <ele>172</ele>
        <time>2018-06-03T10:19:23Z</time>
      </trkpt>
      <trkpt lat="45.93091" lon="4.72816">
        <ele>172</ele>
        <time>2018-06-03T10:19:24Z</time>
      </trkpt>
      <trkpt lat="45.93088" lon="4.72822">
        <ele>172</ele>
        <time>2018-06-03T10:19:25Z</time>
      </trkpt>
      <trkpt lat="45.93083" lon="4.72827">
        <ele>173</ele>
        <time>2018-06-03T10:19:26Z</time>
      </trkpt>
      <trkpt lat="45.93079" lon="4.72832">
        <ele>173</ele>
        <time>2018-06-03T10:19:27Z</time>
      </trkpt>
      <trkpt lat="45.9304" lon="4.72856">
        <ele>172</ele>
        <time>2018-06-03T10:19:34Z</time>
      </trkpt>
      <trkpt lat="45.93037" lon="4.72868">
        <ele>172</ele>
        <time>2018-06-03T10:19:36Z</time>
      </trkpt>
      <trkpt lat="45.93033" lon="4.72873">
        <ele>172</ele>
        <time>2018-06-03T10:19:37Z</time>
      </trkpt>
      <trkpt lat="45.93031" lon="4.72883">
        <ele>172</ele>
        <time>2018-06-03T10:19:38Z</time>
      </trkpt>
      <trkpt lat="45.93027" lon="4.72888">
        <ele>172</ele>
        <time>2018-06-03T10:19:39Z</time>
      </trkpt>
      <trkpt lat="45.93022" lon="4.72894">
        <ele>172</ele>
        <time>2018-06-03T10:19:40Z</time>
      </trkpt>
      <trkpt lat="45.93018" lon="4.72899">
        <ele>172</ele>
        <time>2018-06-03T10:19:41Z</time>
      </trkpt>
      <trkpt lat="45.93014" lon="4.72905">
        <ele>172</ele>
        <time>2018-06-03T10:19:42Z</time>
      </trkpt>
      <trkpt lat="45.9301" lon="4.72911">
        <ele>171</ele>
        <time>2018-06-03T10:19:43Z</time>
      </trkpt>
      <trkpt lat="45.93005" lon="4.72915">
        <ele>171</ele>
        <time>2018-06-03T10:19:44Z</time>
      </trkpt>
      <trkpt lat="45.93001" lon="4.7292">
        <ele>171</ele>
        <time>2018-06-03T10:19:45Z</time>
      </trkpt>
      <trkpt lat="45.92997" lon="4.72926">
        <ele>171</ele>
        <time>2018-06-03T10:19:46Z</time>
      </trkpt>
      <trkpt lat="45.92992" lon="4.7293">
        <ele>171</ele>
        <time>2018-06-03T10:19:47Z</time>
      </trkpt>
      <trkpt lat="45.92988" lon="4.72935">
        <ele>171</ele>
        <time>2018-06-03T10:19:48Z</time>
      </trkpt>
      <trkpt lat="45.92983" lon="4.7294">
        <ele>171</ele>
        <time>2018-06-03T10:19:49Z</time>
      </trkpt>
      <trkpt lat="45.92978" lon="4.72946">
        <ele>171</ele>
        <time>2018-06-03T10:19:50Z</time>
      </trkpt>
      <trkpt lat="45.92974" lon="4.72952">
        <ele>171</ele>
        <time>2018-06-03T10:19:51Z</time>
      </trkpt>
      <trkpt lat="45.92969" lon="4.72956">
        <ele>171</ele>
        <time>2018-06-03T10:19:52Z</time>
      </trkpt>
      <trkpt lat="45.92965" lon="4.72961">
        <ele>171</ele>
        <time>2018-06-03T10:19:53Z</time>
      </trkpt>
      <trkpt lat="45.92961" lon="4.72967">
        <ele>171</ele>
        <time>2018-06-03T10:19:54Z</time>
      </trkpt>
      <trkpt lat="45.92957" lon="4.72975">
        <ele>171</ele>
        <time>2018-06-03T10:19:55Z</time>
      </trkpt>
      <trkpt lat="45.92953" lon="4.7298">
        <ele>171</ele>
        <time>2018-06-03T10:19:56Z</time>
      </trkpt>
      <trkpt lat="45.92949" lon="4.72985">
        <ele>171</ele>
        <time>2018-06-03T10:19:57Z</time>
      </trkpt>
      <trkpt lat="45.92945" lon="4.72989">
        <ele>171</ele>
        <time>2018-06-03T10:19:58Z</time>
      </trkpt>
      <trkpt lat="45.9294" lon="4.72994">
        <ele>171</ele>
        <time>2018-06-03T10:19:59Z</time>
      </trkpt>
      <trkpt lat="45.92937" lon="4.73001">
        <ele>171</ele>
        <time>2018-06-03T10:20:00Z</time>
      </trkpt>
      <trkpt lat="45.92933" lon="4.73005">
        <ele>171</ele>
        <time>2018-06-03T10:20:01Z</time>
      </trkpt>
      <trkpt lat="45.92929" lon="4.7301">
        <ele>172</ele>
        <time>2018-06-03T10:20:02Z</time>
      </trkpt>
      <trkpt lat="45.92925" lon="4.73015">
        <ele>172</ele>
        <time>2018-06-03T10:20:03Z</time>
      </trkpt>
      <trkpt lat="45.92921" lon="4.73021">
        <ele>172</ele>
        <time>2018-06-03T10:20:04Z</time>
      </trkpt>
      <trkpt lat="45.92917" lon="4.73026">
        <ele>172</ele>
        <time>2018-06-03T10:20:05Z</time>
      </trkpt>
      <trkpt lat="45.92914" lon="4.73031">
        <ele>172</ele>
        <time>2018-06-03T10:20:06Z</time>
      </trkpt>
      <trkpt lat="45.9291" lon="4.73035">
        <ele>172</ele>
        <time>2018-06-03T10:20:07Z</time>
      </trkpt>
      <trkpt lat="45.92903" lon="4.73044">
        <ele>172</ele>
        <time>2018-06-03T10:20:09Z</time>
      </trkpt>
      <trkpt lat="45.929" lon="4.7305">
        <ele>172</ele>
        <time>2018-06-03T10:20:10Z</time>
      </trkpt>
      <trkpt lat="45.92897" lon="4.73055">
        <ele>172</ele>
        <time>2018-06-03T10:20:11Z</time>
      </trkpt>
      <trkpt lat="45.92893" lon="4.73063">
        <ele>172</ele>
        <time>2018-06-03T10:20:12Z</time>
      </trkpt>
      <trkpt lat="45.92889" lon="4.73067">
        <ele>172</ele>
        <time>2018-06-03T10:20:13Z</time>
      </trkpt>
      <trkpt lat="45.92886" lon="4.73073">
        <ele>172</ele>
        <time>2018-06-03T10:20:14Z</time>
      </trkpt>
      <trkpt lat="45.92882" lon="4.73077">
        <ele>172</ele>
        <time>2018-06-03T10:20:15Z</time>
      </trkpt>
      <trkpt lat="45.92879" lon="4.73082">
        <ele>172</ele>
        <time>2018-06-03T10:20:16Z</time>
      </trkpt>
      <trkpt lat="45.92876" lon="4.73086">
        <ele>172</ele>
        <time>2018-06-03T10:20:17Z</time>
      </trkpt>
      <trkpt lat="45.92872" lon="4.7309">
        <ele>172</ele>
        <time>2018-06-03T10:20:18Z</time>
      </trkpt>
      <trkpt lat="45.92868" lon="4.73095">
        <ele>172</ele>
        <time>2018-06-03T10:20:19Z</time>
      </trkpt>
      <trkpt lat="45.92864" lon="4.731">
        <ele>171</ele>
        <time>2018-06-03T10:20:20Z</time>
      </trkpt>
      <trkpt lat="45.92858" lon="4.73108">
        <ele>171</ele>
        <time>2018-06-03T10:20:22Z</time>
      </trkpt>
      <trkpt lat="45.92854" lon="4.73109">
        <ele>171</ele>
        <time>2018-06-03T10:20:23Z</time>
      </trkpt>
      <trkpt lat="45.92847" lon="4.73102">
        <ele>171</ele>
        <time>2018-06-03T10:20:26Z</time>
      </trkpt>
      <trkpt lat="45.92847" lon="4.73095">
        <ele>171</ele>
        <time>2018-06-03T10:20:27Z</time>
      </trkpt>
      <trkpt lat="45.92845" lon="4.73083">
        <ele>171</ele>
        <time>2018-06-03T10:20:29Z</time>
      </trkpt>
      <trkpt lat="45.92845" lon="4.73075">
        <ele>171</ele>
        <time>2018-06-03T10:20:30Z</time>
      </trkpt>
      <trkpt lat="45.92841" lon="4.73067">
        <ele>171</ele>
        <time>2018-06-03T10:20:31Z</time>
      </trkpt>
      <trkpt lat="45.9284" lon="4.73059">
        <ele>171</ele>
        <time>2018-06-03T10:20:32Z</time>
      </trkpt>
      <trkpt lat="45.92838" lon="4.73051">
        <ele>171</ele>
        <time>2018-06-03T10:20:33Z</time>
      </trkpt>
      <trkpt lat="45.92837" lon="4.73043">
        <ele>171</ele>
        <time>2018-06-03T10:20:34Z</time>
      </trkpt>
      <trkpt lat="45.92836" lon="4.73036">
        <ele>171</ele>
        <time>2018-06-03T10:20:35Z</time>
      </trkpt>
      <trkpt lat="45.92836" lon="4.73028">
        <ele>171</ele>
        <time>2018-06-03T10:20:36Z</time>
      </trkpt>
      <trkpt lat="45.92834" lon="4.73022">
        <ele>171</ele>
        <time>2018-06-03T10:20:37Z</time>
      </trkpt>
      <trkpt lat="45.92831" lon="4.73013">
        <ele>170</ele>
        <time>2018-06-03T10:20:38Z</time>
      </trkpt>
      <trkpt lat="45.9283" lon="4.73005">
        <ele>170</ele>
        <time>2018-06-03T10:20:39Z</time>
      </trkpt>
      <trkpt lat="45.9283" lon="4.72996">
        <ele>170</ele>
        <time>2018-06-03T10:20:40Z</time>
      </trkpt>
      <trkpt lat="45.92829" lon="4.7299">
        <ele>170</ele>
        <time>2018-06-03T10:20:41Z</time>
      </trkpt>
      <trkpt lat="45.9283" lon="4.72982">
        <ele>170</ele>
        <time>2018-06-03T10:20:42Z</time>
      </trkpt>
      <trkpt lat="45.92829" lon="4.72974">
        <ele>170</ele>
        <time>2018-06-03T10:20:43Z</time>
      </trkpt>
      <trkpt lat="45.92828" lon="4.72966">
        <ele>170</ele>
        <time>2018-06-03T10:20:44Z</time>
      </trkpt>
      <trkpt lat="45.92827" lon="4.72958">
        <ele>170</ele>
        <time>2018-06-03T10:20:45Z</time>
      </trkpt>
      <trkpt lat="45.92827" lon="4.72951">
        <ele>170</ele>
        <time>2018-06-03T10:20:46Z</time>
      </trkpt>
      <trkpt lat="45.92827" lon="4.72944">
        <ele>170</ele>
        <time>2018-06-03T10:20:47Z</time>
      </trkpt>
      <trkpt lat="45.92824" lon="4.72935">
        <ele>170</ele>
        <time>2018-06-03T10:20:48Z</time>
      </trkpt>
      <trkpt lat="45.92823" lon="4.72928">
        <ele>170</ele>
        <time>2018-06-03T10:20:49Z</time>
      </trkpt>
      <trkpt lat="45.92823" lon="4.7292">
        <ele>170</ele>
        <time>2018-06-03T10:20:50Z</time>
      </trkpt>
      <trkpt lat="45.92821" lon="4.72912">
        <ele>170</ele>
        <time>2018-06-03T10:20:51Z</time>
      </trkpt>
      <trkpt lat="45.9282" lon="4.72903">
        <ele>170</ele>
        <time>2018-06-03T10:20:52Z</time>
      </trkpt>
      <trkpt lat="45.92818" lon="4.72895">
        <ele>170</ele>
        <time>2018-06-03T10:20:53Z</time>
      </trkpt>
      <trkpt lat="45.92817" lon="4.72887">
        <ele>170</ele>
        <time>2018-06-03T10:20:54Z</time>
      </trkpt>
      <trkpt lat="45.92815" lon="4.72879">
        <ele>170</ele>
        <time>2018-06-03T10:20:55Z</time>
      </trkpt>
      <trkpt lat="45.92815" lon="4.72872">
        <ele>170</ele>
        <time>2018-06-03T10:20:56Z</time>
      </trkpt>
      <trkpt lat="45.92814" lon="4.72865">
        <ele>170</ele>
        <time>2018-06-03T10:20:57Z</time>
      </trkpt>
      <trkpt lat="45.92811" lon="4.72859">
        <ele>170</ele>
        <time>2018-06-03T10:20:58Z</time>
      </trkpt>
      <trkpt lat="45.9281" lon="4.72851">
        <ele>170</ele>
        <time>2018-06-03T10:20:59Z</time>
      </trkpt>
      <trkpt lat="45.92808" lon="4.72844">
        <ele>170</ele>
        <time>2018-06-03T10:21:00Z</time>
      </trkpt>
      <trkpt lat="45.92806" lon="4.72836">
        <ele>170</ele>
        <time>2018-06-03T10:21:01Z</time>
      </trkpt>
      <trkpt lat="45.92804" lon="4.72829">
        <ele>171</ele>
        <time>2018-06-03T10:21:02Z</time>
      </trkpt>
      <trkpt lat="45.92803" lon="4.72822">
        <ele>170</ele>
        <time>2018-06-03T10:21:03Z</time>
      </trkpt>
      <trkpt lat="45.92803" lon="4.72816">
        <ele>170</ele>
        <time>2018-06-03T10:21:04Z</time>
      </trkpt>
      <trkpt lat="45.92801" lon="4.72809">
        <ele>170</ele>
        <time>2018-06-03T10:21:05Z</time>
      </trkpt>
      <trkpt lat="45.928" lon="4.72802">
        <ele>171</ele>
        <time>2018-06-03T10:21:06Z</time>
      </trkpt>
      <trkpt lat="45.92798" lon="4.72794">
        <ele>171</ele>
        <time>2018-06-03T10:21:08Z</time>
      </trkpt>
      <trkpt lat="45.92793" lon="4.72791">
        <ele>171</ele>
        <time>2018-06-03T10:21:09Z</time>
      </trkpt>
      <trkpt lat="45.92787" lon="4.72793">
        <ele>170</ele>
        <time>2018-06-03T10:21:11Z</time>
      </trkpt>
      <trkpt lat="45.92783" lon="4.72797">
        <ele>170</ele>
        <time>2018-06-03T10:21:12Z</time>
      </trkpt>
      <trkpt lat="45.92775" lon="4.728">
        <ele>170</ele>
        <time>2018-06-03T10:21:14Z</time>
      </trkpt>
      <trkpt lat="45.92771" lon="4.72803">
        <ele>170</ele>
        <time>2018-06-03T10:21:15Z</time>
      </trkpt>
      <trkpt lat="45.92767" lon="4.72806">
        <ele>170</ele>
        <time>2018-06-03T10:21:16Z</time>
      </trkpt>
      <trkpt lat="45.92763" lon="4.72811">
        <ele>170</ele>
        <time>2018-06-03T10:21:17Z</time>
      </trkpt>
      <trkpt lat="45.9276" lon="4.72815">
        <ele>170</ele>
        <time>2018-06-03T10:21:18Z</time>
      </trkpt>
      <trkpt lat="45.92756" lon="4.72819">
        <ele>170</ele>
        <time>2018-06-03T10:21:19Z</time>
      </trkpt>
      <trkpt lat="45.92752" lon="4.72823">
        <ele>170</ele>
        <time>2018-06-03T10:21:20Z</time>
      </trkpt>
      <trkpt lat="45.92748" lon="4.72826">
        <ele>169</ele>
        <time>2018-06-03T10:21:21Z</time>
      </trkpt>
      <trkpt lat="45.92744" lon="4.72829">
        <ele>169</ele>
        <time>2018-06-03T10:21:22Z</time>
      </trkpt>
      <trkpt lat="45.92739" lon="4.72832">
        <ele>169</ele>
        <time>2018-06-03T10:21:23Z</time>
      </trkpt>
      <trkpt lat="45.92735" lon="4.72834">
        <ele>169</ele>
        <time>2018-06-03T10:21:24Z</time>
      </trkpt>
      <trkpt lat="45.9273" lon="4.72838">
        <ele>169</ele>
        <time>2018-06-03T10:21:25Z</time>
      </trkpt>
      <trkpt lat="45.92726" lon="4.7284">
        <ele>169</ele>
        <time>2018-06-03T10:21:26Z</time>
      </trkpt>
      <trkpt lat="45.92721" lon="4.72843">
        <ele>169</ele>
        <time>2018-06-03T10:21:27Z</time>
      </trkpt>
      <trkpt lat="45.92717" lon="4.72846">
        <ele>169</ele>
        <time>2018-06-03T10:21:28Z</time>
      </trkpt>
      <trkpt lat="45.92713" lon="4.72849">
        <ele>169</ele>
        <time>2018-06-03T10:21:29Z</time>
      </trkpt>
      <trkpt lat="45.92709" lon="4.72854">
        <ele>169</ele>
        <time>2018-06-03T10:21:30Z</time>
      </trkpt>
      <trkpt lat="45.92704" lon="4.72857">
        <ele>169</ele>
        <time>2018-06-03T10:21:31Z</time>
      </trkpt>
      <trkpt lat="45.92696" lon="4.72862">
        <ele>169</ele>
        <time>2018-06-03T10:21:33Z</time>
      </trkpt>
      <trkpt lat="45.9269" lon="4.72866">
        <ele>169</ele>
        <time>2018-06-03T10:21:34Z</time>
      </trkpt>
      <trkpt lat="45.92686" lon="4.7287">
        <ele>169</ele>
        <time>2018-06-03T10:21:35Z</time>
      </trkpt>
      <trkpt lat="45.92681" lon="4.72874">
        <ele>169</ele>
        <time>2018-06-03T10:21:36Z</time>
      </trkpt>
      <trkpt lat="45.92676" lon="4.72877">
        <ele>170</ele>
        <time>2018-06-03T10:21:37Z</time>
      </trkpt>
      <trkpt lat="45.9267" lon="4.72885">
        <ele>170</ele>
        <time>2018-06-03T10:21:38Z</time>
      </trkpt>
      <trkpt lat="45.92666" lon="4.72889">
        <ele>169</ele>
        <time>2018-06-03T10:21:39Z</time>
      </trkpt>
      <trkpt lat="45.92661" lon="4.72894">
        <ele>170</ele>
        <time>2018-06-03T10:21:40Z</time>
      </trkpt>
      <trkpt lat="45.92655" lon="4.72898">
        <ele>170</ele>
        <time>2018-06-03T10:21:41Z</time>
      </trkpt>
      <trkpt lat="45.92651" lon="4.72901">
        <ele>170</ele>
        <time>2018-06-03T10:21:42Z</time>
      </trkpt>
      <trkpt lat="45.92645" lon="4.72905">
        <ele>170</ele>
        <time>2018-06-03T10:21:43Z</time>
      </trkpt>
      <trkpt lat="45.92641" lon="4.72908">
        <ele>169</ele>
        <time>2018-06-03T10:21:44Z</time>
      </trkpt>
      <trkpt lat="45.92637" lon="4.72911">
        <ele>169</ele>
        <time>2018-06-03T10:21:45Z</time>
      </trkpt>
      <trkpt lat="45.92632" lon="4.72913">
        <ele>169</ele>
        <time>2018-06-03T10:21:46Z</time>
      </trkpt>
      <trkpt lat="45.92628" lon="4.72917">
        <ele>170</ele>
        <time>2018-06-03T10:21:47Z</time>
      </trkpt>
      <trkpt lat="45.92622" lon="4.72922">
        <ele>169</ele>
        <time>2018-06-03T10:21:48Z</time>
      </trkpt>
      <trkpt lat="45.92616" lon="4.72926">
        <ele>169</ele>
        <time>2018-06-03T10:21:49Z</time>
      </trkpt>
      <trkpt lat="45.92612" lon="4.72935">
        <ele>169</ele>
        <time>2018-06-03T10:21:50Z</time>
      </trkpt>
      <trkpt lat="45.92606" lon="4.7294">
        <ele>169</ele>
        <time>2018-06-03T10:21:51Z</time>
      </trkpt>
      <trkpt lat="45.92602" lon="4.72944">
        <ele>169</ele>
        <time>2018-06-03T10:21:52Z</time>
      </trkpt>
      <trkpt lat="45.92597" lon="4.72949">
        <ele>169</ele>
        <time>2018-06-03T10:21:53Z</time>
      </trkpt>
      <trkpt lat="45.92592" lon="4.72955">
        <ele>169</ele>
        <time>2018-06-03T10:21:54Z</time>
      </trkpt>
      <trkpt lat="45.92587" lon="4.72959">
        <ele>169</ele>
        <time>2018-06-03T10:21:55Z</time>
      </trkpt>
      <trkpt lat="45.92583" lon="4.72965">
        <ele>169</ele>
        <time>2018-06-03T10:21:56Z</time>
      </trkpt>
      <trkpt lat="45.92578" lon="4.7297">
        <ele>169</ele>
        <time>2018-06-03T10:21:57Z</time>
      </trkpt>
      <trkpt lat="45.92572" lon="4.72976">
        <ele>169</ele>
        <time>2018-06-03T10:21:58Z</time>
      </trkpt>
      <trkpt lat="45.92566" lon="4.72981">
        <ele>169</ele>
        <time>2018-06-03T10:21:59Z</time>
      </trkpt>
      <trkpt lat="45.92562" lon="4.72986">
        <ele>169</ele>
        <time>2018-06-03T10:22:00Z</time>
      </trkpt>
      <trkpt lat="45.92557" lon="4.7299">
        <ele>169</ele>
        <time>2018-06-03T10:22:01Z</time>
      </trkpt>
      <trkpt lat="45.92552" lon="4.72997">
        <ele>169</ele>
        <time>2018-06-03T10:22:02Z</time>
      </trkpt>
      <trkpt lat="45.92545" lon="4.72999">
        <ele>169</ele>
        <time>2018-06-03T10:22:03Z</time>
      </trkpt>
      <trkpt lat="45.9254" lon="4.73005">
        <ele>169</ele>
        <time>2018-06-03T10:22:04Z</time>
      </trkpt>
      <trkpt lat="45.92535" lon="4.7301">
        <ele>169</ele>
        <time>2018-06-03T10:22:05Z</time>
      </trkpt>
      <trkpt lat="45.9253" lon="4.73013">
        <ele>169</ele>
        <time>2018-06-03T10:22:06Z</time>
      </trkpt>
      <trkpt lat="45.92525" lon="4.73018">
        <ele>169</ele>
        <time>2018-06-03T10:22:07Z</time>
      </trkpt>
      <trkpt lat="45.9252" lon="4.73025">
        <ele>169</ele>
        <time>2018-06-03T10:22:08Z</time>
      </trkpt>
      <trkpt lat="45.92514" lon="4.7303">
        <ele>169</ele>
        <time>2018-06-03T10:22:09Z</time>
      </trkpt>
      <trkpt lat="45.92509" lon="4.73036">
        <ele>169</ele>
        <time>2018-06-03T10:22:10Z</time>
      </trkpt>
      <trkpt lat="45.92505" lon="4.73039">
        <ele>169</ele>
        <time>2018-06-03T10:22:11Z</time>
      </trkpt>
      <trkpt lat="45.925" lon="4.73044">
        <ele>170</ele>
        <time>2018-06-03T10:22:12Z</time>
      </trkpt>
      <trkpt lat="45.92496" lon="4.73048">
        <ele>170</ele>
        <time>2018-06-03T10:22:13Z</time>
      </trkpt>
      <trkpt lat="45.92492" lon="4.73052">
        <ele>170</ele>
        <time>2018-06-03T10:22:14Z</time>
      </trkpt>
      <trkpt lat="45.92487" lon="4.73057">
        <ele>170</ele>
        <time>2018-06-03T10:22:15Z</time>
      </trkpt>
      <trkpt lat="45.92483" lon="4.73061">
        <ele>170</ele>
        <time>2018-06-03T10:22:16Z</time>
      </trkpt>
      <trkpt lat="45.92478" lon="4.73065">
        <ele>170</ele>
        <time>2018-06-03T10:22:17Z</time>
      </trkpt>
      <trkpt lat="45.92473" lon="4.73069">
        <ele>170</ele>
        <time>2018-06-03T10:22:18Z</time>
      </trkpt>
      <trkpt lat="45.92468" lon="4.73071">
        <ele>170</ele>
        <time>2018-06-03T10:22:19Z</time>
      </trkpt>
      <trkpt lat="45.92463" lon="4.73076">
        <ele>170</ele>
        <time>2018-06-03T10:22:20Z</time>
      </trkpt>
      <trkpt lat="45.92459" lon="4.73079">
        <ele>170</ele>
        <time>2018-06-03T10:22:21Z</time>
      </trkpt>
      <trkpt lat="45.92454" lon="4.73083">
        <ele>170</ele>
        <time>2018-06-03T10:22:22Z</time>
      </trkpt>
      <trkpt lat="45.9245" lon="4.73087">
        <ele>170</ele>
        <time>2018-06-03T10:22:23Z</time>
      </trkpt>
      <trkpt lat="45.92445" lon="4.7309">
        <ele>170</ele>
        <time>2018-06-03T10:22:24Z</time>
      </trkpt>
      <trkpt lat="45.9244" lon="4.73093">
        <ele>170</ele>
        <time>2018-06-03T10:22:25Z</time>
      </trkpt>
      <trkpt lat="45.92435" lon="4.73096">
        <ele>171</ele>
        <time>2018-06-03T10:22:26Z</time>
      </trkpt>
      <trkpt lat="45.9243" lon="4.73101">
        <ele>171</ele>
        <time>2018-06-03T10:22:27Z</time>
      </trkpt>
      <trkpt lat="45.92426" lon="4.73106">
        <ele>171</ele>
        <time>2018-06-03T10:22:28Z</time>
      </trkpt>
      <trkpt lat="45.92421" lon="4.73111">
        <ele>170</ele>
        <time>2018-06-03T10:22:29Z</time>
      </trkpt>
      <trkpt lat="45.92418" lon="4.73115">
        <ele>170</ele>
        <time>2018-06-03T10:22:30Z</time>
      </trkpt>
      <trkpt lat="45.92415" lon="4.7312">
        <ele>171</ele>
        <time>2018-06-03T10:22:31Z</time>
      </trkpt>
      <trkpt lat="45.92412" lon="4.73127">
        <ele>171</ele>
        <time>2018-06-03T10:22:32Z</time>
      </trkpt>
      <trkpt lat="45.9241" lon="4.73135">
        <ele>171</ele>
        <time>2018-06-03T10:22:33Z</time>
      </trkpt>
      <trkpt lat="45.92409" lon="4.73142">
        <ele>171</ele>
        <time>2018-06-03T10:22:34Z</time>
      </trkpt>
      <trkpt lat="45.9241" lon="4.73149">
        <ele>171</ele>
        <time>2018-06-03T10:22:35Z</time>
      </trkpt>
      <trkpt lat="45.92409" lon="4.73157">
        <ele>170</ele>
        <time>2018-06-03T10:22:36Z</time>
      </trkpt>
      <trkpt lat="45.92409" lon="4.73165">
        <ele>170</ele>
        <time>2018-06-03T10:22:37Z</time>
      </trkpt>
      <trkpt lat="45.9241" lon="4.73172">
        <ele>170</ele>
        <time>2018-06-03T10:22:38Z</time>
      </trkpt>
      <trkpt lat="45.9241" lon="4.7318">
        <ele>171</ele>
        <time>2018-06-03T10:22:39Z</time>
      </trkpt>
      <trkpt lat="45.9241" lon="4.73186">
        <ele>171</ele>
        <time>2018-06-03T10:22:40Z</time>
      </trkpt>
      <trkpt lat="45.9241" lon="4.73193">
        <ele>171</ele>
        <time>2018-06-03T10:22:41Z</time>
      </trkpt>
      <trkpt lat="45.92409" lon="4.732">
        <ele>171</ele>
        <time>2018-06-03T10:22:42Z</time>
      </trkpt>
      <trkpt lat="45.9241" lon="4.73208">
        <ele>171</ele>
        <time>2018-06-03T10:22:43Z</time>
      </trkpt>
      <trkpt lat="45.92411" lon="4.73216">
        <ele>171</ele>
        <time>2018-06-03T10:22:44Z</time>
      </trkpt>
      <trkpt lat="45.9241" lon="4.73223">
        <ele>171</ele>
        <time>2018-06-03T10:22:45Z</time>
      </trkpt>
      <trkpt lat="45.9241" lon="4.7323">
        <ele>171</ele>
        <time>2018-06-03T10:22:46Z</time>
      </trkpt>
      <trkpt lat="45.92411" lon="4.73237">
        <ele>171</ele>
        <time>2018-06-03T10:22:47Z</time>
      </trkpt>
      <trkpt lat="45.92411" lon="4.73245">
        <ele>171</ele>
        <time>2018-06-03T10:22:48Z</time>
      </trkpt>
      <trkpt lat="45.92414" lon="4.73252">
        <ele>171</ele>
        <time>2018-06-03T10:22:49Z</time>
      </trkpt>
      <trkpt lat="45.92415" lon="4.73259">
        <ele>171</ele>
        <time>2018-06-03T10:22:50Z</time>
      </trkpt>
      <trkpt lat="45.92416" lon="4.73266">
        <ele>171</ele>
        <time>2018-06-03T10:22:51Z</time>
      </trkpt>
      <trkpt lat="45.92417" lon="4.73274">
        <ele>171</ele>
        <time>2018-06-03T10:22:52Z</time>
      </trkpt>
      <trkpt lat="45.92417" lon="4.73281">
        <ele>171</ele>
        <time>2018-06-03T10:22:53Z</time>
      </trkpt>
      <trkpt lat="45.92417" lon="4.73289">
        <ele>171</ele>
        <time>2018-06-03T10:22:54Z</time>
      </trkpt>
      <trkpt lat="45.92419" lon="4.73298">
        <ele>171</ele>
        <time>2018-06-03T10:22:55Z</time>
      </trkpt>
      <trkpt lat="45.9242" lon="4.73305">
        <ele>171</ele>
        <time>2018-06-03T10:22:56Z</time>
      </trkpt>
      <trkpt lat="45.9242" lon="4.73313">
        <ele>171</ele>
        <time>2018-06-03T10:22:57Z</time>
      </trkpt>
      <trkpt lat="45.92422" lon="4.73324">
        <ele>171</ele>
        <time>2018-06-03T10:22:58Z</time>
      </trkpt>
      <trkpt lat="45.92423" lon="4.7333">
        <ele>171</ele>
        <time>2018-06-03T10:22:59Z</time>
      </trkpt>
      <trkpt lat="45.92424" lon="4.73338">
        <ele>171</ele>
        <time>2018-06-03T10:23:00Z</time>
      </trkpt>
      <trkpt lat="45.92424" lon="4.73347">
        <ele>171</ele>
        <time>2018-06-03T10:23:01Z</time>
      </trkpt>
      <trkpt lat="45.92425" lon="4.73353">
        <ele>171</ele>
        <time>2018-06-03T10:23:02Z</time>
      </trkpt>
      <trkpt lat="45.92425" lon="4.73359">
        <ele>171</ele>
        <time>2018-06-03T10:23:03Z</time>
      </trkpt>
      <trkpt lat="45.92426" lon="4.73366">
        <ele>172</ele>
        <time>2018-06-03T10:23:04Z</time>
      </trkpt>
      <trkpt lat="45.92426" lon="4.73372">
        <ele>172</ele>
        <time>2018-06-03T10:23:05Z</time>
      </trkpt>
      <trkpt lat="45.92429" lon="4.73382">
        <ele>172</ele>
        <time>2018-06-03T10:23:06Z</time>
      </trkpt>
      <trkpt lat="45.92431" lon="4.7339">
        <ele>172</ele>
        <time>2018-06-03T10:23:07Z</time>
      </trkpt>
      <trkpt lat="45.92434" lon="4.73399">
        <ele>172</ele>
        <time>2018-06-03T10:23:08Z</time>
      </trkpt>
      <trkpt lat="45.92436" lon="4.73407">
        <ele>172</ele>
        <time>2018-06-03T10:23:09Z</time>
      </trkpt>
      <trkpt lat="45.92436" lon="4.73411">
        <ele>172</ele>
        <time>2018-06-03T10:23:10Z</time>
      </trkpt>
      <trkpt lat="45.9244" lon="4.73416">
        <ele>172</ele>
        <time>2018-06-03T10:23:11Z</time>
      </trkpt>
      <trkpt lat="45.92443" lon="4.7342">
        <ele>173</ele>
        <time>2018-06-03T10:23:12Z</time>
      </trkpt>
      <trkpt lat="45.92448" lon="4.73424">
        <ele>173</ele>
        <time>2018-06-03T10:23:13Z</time>
      </trkpt>
      <trkpt lat="45.92452" lon="4.73426">
        <ele>173</ele>
        <time>2018-06-03T10:23:14Z</time>
      </trkpt>
      <trkpt lat="45.92457" lon="4.7343">
        <ele>173</ele>
        <time>2018-06-03T10:23:15Z</time>
      </trkpt>
      <trkpt lat="45.92461" lon="4.73434">
        <ele>173</ele>
        <time>2018-06-03T10:23:16Z</time>
      </trkpt>
      <trkpt lat="45.92466" lon="4.73439">
        <ele>173</ele>
        <time>2018-06-03T10:23:17Z</time>
      </trkpt>
      <trkpt lat="45.92469" lon="4.73446">
        <ele>173</ele>
        <time>2018-06-03T10:23:18Z</time>
      </trkpt>
      <trkpt lat="45.9247" lon="4.73455">
        <ele>173</ele>
        <time>2018-06-03T10:23:19Z</time>
      </trkpt>
      <trkpt lat="45.92471" lon="4.73464">
        <ele>173</ele>
        <time>2018-06-03T10:23:20Z</time>
      </trkpt>
      <trkpt lat="45.92472" lon="4.73473">
        <ele>173</ele>
        <time>2018-06-03T10:23:21Z</time>
      </trkpt>
      <trkpt lat="45.92472" lon="4.73482">
        <ele>173</ele>
        <time>2018-06-03T10:23:22Z</time>
      </trkpt>
      <trkpt lat="45.92472" lon="4.7349">
        <ele>173</ele>
        <time>2018-06-03T10:23:23Z</time>
      </trkpt>
      <trkpt lat="45.92472" lon="4.73498">
        <ele>173</ele>
        <time>2018-06-03T10:23:24Z</time>
      </trkpt>
      <trkpt lat="45.92472" lon="4.73507">
        <ele>174</ele>
        <time>2018-06-03T10:23:25Z</time>
      </trkpt>
      <trkpt lat="45.92473" lon="4.73516">
        <ele>174</ele>
        <time>2018-06-03T10:23:26Z</time>
      </trkpt>
      <trkpt lat="45.92473" lon="4.73524">
        <ele>174</ele>
        <time>2018-06-03T10:23:27Z</time>
      </trkpt>
      <trkpt lat="45.92473" lon="4.73534">
        <ele>174</ele>
        <time>2018-06-03T10:23:28Z</time>
      </trkpt>
      <trkpt lat="45.92473" lon="4.73541">
        <ele>174</ele>
        <time>2018-06-03T10:23:29Z</time>
      </trkpt>
      <trkpt lat="45.92473" lon="4.73549">
        <ele>173</ele>
        <time>2018-06-03T10:23:30Z</time>
      </trkpt>
      <trkpt lat="45.92474" lon="4.73558">
        <ele>173</ele>
        <time>2018-06-03T10:23:31Z</time>
      </trkpt>
      <trkpt lat="45.92474" lon="4.73568">
        <ele>173</ele>
        <time>2018-06-03T10:23:32Z</time>
      </trkpt>
      <trkpt lat="45.92473" lon="4.73577">
        <ele>173</ele>
        <time>2018-06-03T10:23:33Z</time>
      </trkpt>
      <trkpt lat="45.92473" lon="4.73586">
        <ele>174</ele>
        <time>2018-06-03T10:23:34Z</time>
      </trkpt>
      <trkpt lat="45.92473" lon="4.73595">
        <ele>174</ele>
        <time>2018-06-03T10:23:35Z</time>
      </trkpt>
      <trkpt lat="45.92473" lon="4.73605">
        <ele>174</ele>
        <time>2018-06-03T10:23:36Z</time>
      </trkpt>
      <trkpt lat="45.92474" lon="4.73614">
        <ele>174</ele>
        <time>2018-06-03T10:23:37Z</time>
      </trkpt>
      <trkpt lat="45.92475" lon="4.73624">
        <ele>174</ele>
        <time>2018-06-03T10:23:38Z</time>
      </trkpt>
      <trkpt lat="45.92475" lon="4.73633">
        <ele>174</ele>
        <time>2018-06-03T10:23:39Z</time>
      </trkpt>
      <trkpt lat="45.92474" lon="4.73642">
        <ele>174</ele>
        <time>2018-06-03T10:23:40Z</time>
      </trkpt>
      <trkpt lat="45.92475" lon="4.73652">
        <ele>174</ele>
        <time>2018-06-03T10:23:41Z</time>
      </trkpt>
      <trkpt lat="45.92475" lon="4.73658">
        <ele>174</ele>
        <time>2018-06-03T10:23:42Z</time>
      </trkpt>
      <trkpt lat="45.92474" lon="4.73664">
        <ele>174</ele>
        <time>2018-06-03T10:23:43Z</time>
      </trkpt>
      <trkpt lat="45.92472" lon="4.7367">
        <ele>174</ele>
        <time>2018-06-03T10:23:44Z</time>
      </trkpt>
      <trkpt lat="45.92471" lon="4.73678">
        <ele>174</ele>
        <time>2018-06-03T10:23:45Z</time>
      </trkpt>
      <trkpt lat="45.92471" lon="4.73685">
        <ele>174</ele>
        <time>2018-06-03T10:23:46Z</time>
      </trkpt>
      <trkpt lat="45.9247" lon="4.73692">
        <ele>174</ele>
        <time>2018-06-03T10:23:47Z</time>
      </trkpt>
      <trkpt lat="45.92468" lon="4.73698">
        <ele>174</ele>
        <time>2018-06-03T10:23:48Z</time>
      </trkpt>
      <trkpt lat="45.92464" lon="4.73708">
        <ele>174</ele>
        <time>2018-06-03T10:24:05Z</time>
      </trkpt>
      <trkpt lat="45.92463" lon="4.73709">
        <ele>174</ele>
        <time>2018-06-03T10:24:06Z</time>
      </trkpt>
      <trkpt lat="45.92461" lon="4.7371">
        <ele>174</ele>
        <time>2018-06-03T10:24:40.794Z</time>
      </trkpt>
    </trkseg>
  </trk>
</gpx>